<?xml version="1.0" encoding="UTF-8"?>
<gpx version="1.0" creator="GPSBabel - http://www.gpsbabel.org" xmlns="http://www.topografix.com/GPX/1/0">
  <time>2020-02-16T20:33:08.559Z</time>
  <bounds minlat="16.995280710" minlon="-96.472880930" maxlat="17.150564510" maxlon="-96.409552430"/>
  <trk>
    <name>Cueva de Bandidos Driveout.PatMemo.2020-01-20 19:17:49</name>
    <trkseg>
      <trkpt lat="17.123594770" lon="-96.430526650">
        <ele>2997.900</ele>
        <time>2020-01-20T22:22:05Z</time>
      </trkpt>
      <trkpt lat="17.123619510" lon="-96.430499140">
        <ele>2998.600</ele>
        <time>2020-01-20T22:22:07Z</time>
      </trkpt>
      <trkpt lat="17.123651160" lon="-96.430461390">
        <ele>2997.900</ele>
        <time>2020-01-20T22:22:09Z</time>
      </trkpt>
      <trkpt lat="17.123678060" lon="-96.430424040">
        <ele>2998.900</ele>
        <time>2020-01-20T22:22:11Z</time>
      </trkpt>
      <trkpt lat="17.123698260" lon="-96.430392150">
        <ele>2998.900</ele>
        <time>2020-01-20T22:22:13Z</time>
      </trkpt>
      <trkpt lat="17.123730410" lon="-96.430358970">
        <ele>2998.700</ele>
        <time>2020-01-20T22:22:15Z</time>
      </trkpt>
      <trkpt lat="17.123763610" lon="-96.430328850">
        <ele>2998.500</ele>
        <time>2020-01-20T22:22:17Z</time>
      </trkpt>
      <trkpt lat="17.123807160" lon="-96.430307620">
        <ele>2997.900</ele>
        <time>2020-01-20T22:22:20Z</time>
      </trkpt>
      <trkpt lat="17.123846980" lon="-96.430299500">
        <ele>2997.200</ele>
        <time>2020-01-20T22:22:22Z</time>
      </trkpt>
      <trkpt lat="17.123904120" lon="-96.430283640">
        <ele>2998.300</ele>
        <time>2020-01-20T22:22:24Z</time>
      </trkpt>
      <trkpt lat="17.123946100" lon="-96.430280060">
        <ele>2997.500</ele>
        <time>2020-01-20T22:22:26Z</time>
      </trkpt>
      <trkpt lat="17.123985090" lon="-96.430269310">
        <ele>2999.300</ele>
        <time>2020-01-20T22:22:28Z</time>
      </trkpt>
      <trkpt lat="17.124028170" lon="-96.430251190">
        <ele>3000.300</ele>
        <time>2020-01-20T22:22:30Z</time>
      </trkpt>
      <trkpt lat="17.124073280" lon="-96.430236240">
        <ele>3000.300</ele>
        <time>2020-01-20T22:22:32Z</time>
      </trkpt>
      <trkpt lat="17.124121320" lon="-96.430212660">
        <ele>2998.500</ele>
        <time>2020-01-20T22:22:35Z</time>
      </trkpt>
      <trkpt lat="17.124174340" lon="-96.430177970">
        <ele>2998.100</ele>
        <time>2020-01-20T22:22:38Z</time>
      </trkpt>
      <trkpt lat="17.124216370" lon="-96.430146380">
        <ele>2996.500</ele>
        <time>2020-01-20T22:22:40Z</time>
      </trkpt>
      <trkpt lat="17.124250160" lon="-96.430102190">
        <ele>2994.400</ele>
        <time>2020-01-20T22:22:42Z</time>
      </trkpt>
      <trkpt lat="17.124282650" lon="-96.430055310">
        <ele>2994.500</ele>
        <time>2020-01-20T22:22:45Z</time>
      </trkpt>
      <trkpt lat="17.124303550" lon="-96.430017390">
        <ele>2993.400</ele>
        <time>2020-01-20T22:22:47Z</time>
      </trkpt>
      <trkpt lat="17.124314030" lon="-96.429966810">
        <ele>2992.200</ele>
        <time>2020-01-20T22:22:49Z</time>
      </trkpt>
      <trkpt lat="17.124316260" lon="-96.429918600">
        <ele>2990.500</ele>
        <time>2020-01-20T22:22:51Z</time>
      </trkpt>
      <trkpt lat="17.124313350" lon="-96.429873830">
        <ele>2991.400</ele>
        <time>2020-01-20T22:22:53Z</time>
      </trkpt>
      <trkpt lat="17.124284530" lon="-96.429837710">
        <ele>2991.700</ele>
        <time>2020-01-20T22:22:56Z</time>
      </trkpt>
      <trkpt lat="17.124242910" lon="-96.429815600">
        <ele>2991.800</ele>
        <time>2020-01-20T22:22:58Z</time>
      </trkpt>
      <trkpt lat="17.124201950" lon="-96.429802700">
        <ele>2993.300</ele>
        <time>2020-01-20T22:23:00Z</time>
      </trkpt>
      <trkpt lat="17.124161220" lon="-96.429795960">
        <ele>2991.600</ele>
        <time>2020-01-20T22:23:02Z</time>
      </trkpt>
      <trkpt lat="17.124117600" lon="-96.429790560">
        <ele>2990.500</ele>
        <time>2020-01-20T22:23:04Z</time>
      </trkpt>
      <trkpt lat="17.124074290" lon="-96.429787020">
        <ele>2989.500</ele>
        <time>2020-01-20T22:23:06Z</time>
      </trkpt>
      <trkpt lat="17.124026770" lon="-96.429785780">
        <ele>2986.900</ele>
        <time>2020-01-20T22:23:09Z</time>
      </trkpt>
      <trkpt lat="17.123970900" lon="-96.429776190">
        <ele>2985.700</ele>
        <time>2020-01-20T22:23:12Z</time>
      </trkpt>
      <trkpt lat="17.123916950" lon="-96.429759400">
        <ele>2983.900</ele>
        <time>2020-01-20T22:23:15Z</time>
      </trkpt>
      <trkpt lat="17.123866010" lon="-96.429741620">
        <ele>2980.300</ele>
        <time>2020-01-20T22:23:17Z</time>
      </trkpt>
      <trkpt lat="17.123824490" lon="-96.429726350">
        <ele>2981.300</ele>
        <time>2020-01-20T22:23:19Z</time>
      </trkpt>
      <trkpt lat="17.123775350" lon="-96.429716990">
        <ele>2980.400</ele>
        <time>2020-01-20T22:23:22Z</time>
      </trkpt>
      <trkpt lat="17.123721790" lon="-96.429712360">
        <ele>2978.500</ele>
        <time>2020-01-20T22:23:24Z</time>
      </trkpt>
      <trkpt lat="17.123669380" lon="-96.429698250">
        <ele>2975.200</ele>
        <time>2020-01-20T22:23:26Z</time>
      </trkpt>
      <trkpt lat="17.123616600" lon="-96.429683970">
        <ele>2975.900</ele>
        <time>2020-01-20T22:23:28Z</time>
      </trkpt>
      <trkpt lat="17.123565200" lon="-96.429662940">
        <ele>2975.800</ele>
        <time>2020-01-20T22:23:30Z</time>
      </trkpt>
      <trkpt lat="17.123504660" lon="-96.429649200">
        <ele>2975.500</ele>
        <time>2020-01-20T22:23:32Z</time>
      </trkpt>
      <trkpt lat="17.123450020" lon="-96.429627880">
        <ele>2974.000</ele>
        <time>2020-01-20T22:23:34Z</time>
      </trkpt>
      <trkpt lat="17.123396840" lon="-96.429616880">
        <ele>2971.800</ele>
        <time>2020-01-20T22:23:36Z</time>
      </trkpt>
      <trkpt lat="17.123342440" lon="-96.429601830">
        <ele>2971.300</ele>
        <time>2020-01-20T22:23:38Z</time>
      </trkpt>
      <trkpt lat="17.123288440" lon="-96.429592070">
        <ele>2969.400</ele>
        <time>2020-01-20T22:23:40Z</time>
      </trkpt>
      <trkpt lat="17.123238330" lon="-96.429582700">
        <ele>2969.000</ele>
        <time>2020-01-20T22:23:42Z</time>
      </trkpt>
      <trkpt lat="17.123194800" lon="-96.429563950">
        <ele>2969.300</ele>
        <time>2020-01-20T22:23:44Z</time>
      </trkpt>
      <trkpt lat="17.123152340" lon="-96.429536770">
        <ele>2971.300</ele>
        <time>2020-01-20T22:23:46Z</time>
      </trkpt>
      <trkpt lat="17.123105740" lon="-96.429510320">
        <ele>2971.600</ele>
        <time>2020-01-20T22:23:48Z</time>
      </trkpt>
      <trkpt lat="17.123075340" lon="-96.429471600">
        <ele>2972.800</ele>
        <time>2020-01-20T22:23:50Z</time>
      </trkpt>
      <trkpt lat="17.123056700" lon="-96.429417700">
        <ele>2973.300</ele>
        <time>2020-01-20T22:23:52Z</time>
      </trkpt>
      <trkpt lat="17.123049150" lon="-96.429363890">
        <ele>2975.000</ele>
        <time>2020-01-20T22:23:54Z</time>
      </trkpt>
      <trkpt lat="17.123027960" lon="-96.429306210">
        <ele>2975.200</ele>
        <time>2020-01-20T22:23:56Z</time>
      </trkpt>
      <trkpt lat="17.123008060" lon="-96.429250260">
        <ele>2975.500</ele>
        <time>2020-01-20T22:23:58Z</time>
      </trkpt>
      <trkpt lat="17.122989740" lon="-96.429204340">
        <ele>2974.100</ele>
        <time>2020-01-20T22:24:00Z</time>
      </trkpt>
      <trkpt lat="17.122984730" lon="-96.429162170">
        <ele>2974.700</ele>
        <time>2020-01-20T22:24:02Z</time>
      </trkpt>
      <trkpt lat="17.122988170" lon="-96.429118250">
        <ele>2974.200</ele>
        <time>2020-01-20T22:24:04Z</time>
      </trkpt>
      <trkpt lat="17.122995780" lon="-96.429053110">
        <ele>2973.800</ele>
        <time>2020-01-20T22:24:06Z</time>
      </trkpt>
      <trkpt lat="17.122989320" lon="-96.428993530">
        <ele>2973.100</ele>
        <time>2020-01-20T22:24:08Z</time>
      </trkpt>
      <trkpt lat="17.122959620" lon="-96.428965300">
        <ele>2972.000</ele>
        <time>2020-01-20T22:24:10Z</time>
      </trkpt>
      <trkpt lat="17.122948650" lon="-96.428925120">
        <ele>2971.900</ele>
        <time>2020-01-20T22:24:12Z</time>
      </trkpt>
      <trkpt lat="17.122947900" lon="-96.428878490">
        <ele>2972.000</ele>
        <time>2020-01-20T22:24:14Z</time>
      </trkpt>
      <trkpt lat="17.122953440" lon="-96.428834220">
        <ele>2971.500</ele>
        <time>2020-01-20T22:24:16Z</time>
      </trkpt>
      <trkpt lat="17.122964360" lon="-96.428786280">
        <ele>2971.100</ele>
        <time>2020-01-20T22:24:18Z</time>
      </trkpt>
      <trkpt lat="17.122967060" lon="-96.428743740">
        <ele>2971.200</ele>
        <time>2020-01-20T22:24:20Z</time>
      </trkpt>
      <trkpt lat="17.122973590" lon="-96.428686000">
        <ele>2971.400</ele>
        <time>2020-01-20T22:24:22Z</time>
      </trkpt>
      <trkpt lat="17.122981100" lon="-96.428625660">
        <ele>2970.600</ele>
        <time>2020-01-20T22:24:24Z</time>
      </trkpt>
      <trkpt lat="17.122978160" lon="-96.428577190">
        <ele>2972.000</ele>
        <time>2020-01-20T22:24:26Z</time>
      </trkpt>
      <trkpt lat="17.122974770" lon="-96.428512000">
        <ele>2975.100</ele>
        <time>2020-01-20T22:24:28Z</time>
      </trkpt>
      <trkpt lat="17.122966950" lon="-96.428473570">
        <ele>2975.300</ele>
        <time>2020-01-20T22:24:30Z</time>
      </trkpt>
      <trkpt lat="17.122966800" lon="-96.428423480">
        <ele>2976.800</ele>
        <time>2020-01-20T22:24:32Z</time>
      </trkpt>
      <trkpt lat="17.122953700" lon="-96.428374250">
        <ele>2974.400</ele>
        <time>2020-01-20T22:24:34Z</time>
      </trkpt>
      <trkpt lat="17.122939220" lon="-96.428308350">
        <ele>2973.000</ele>
        <time>2020-01-20T22:24:36Z</time>
      </trkpt>
      <trkpt lat="17.122932240" lon="-96.428253750">
        <ele>2971.300</ele>
        <time>2020-01-20T22:24:38Z</time>
      </trkpt>
      <trkpt lat="17.122906770" lon="-96.428205810">
        <ele>2971.700</ele>
        <time>2020-01-20T22:24:40Z</time>
      </trkpt>
      <trkpt lat="17.122885570" lon="-96.428170900">
        <ele>2969.400</ele>
        <time>2020-01-20T22:24:42Z</time>
      </trkpt>
      <trkpt lat="17.122875020" lon="-96.428133150">
        <ele>2969.400</ele>
        <time>2020-01-20T22:24:44Z</time>
      </trkpt>
      <trkpt lat="17.122877400" lon="-96.428084700">
        <ele>2968.900</ele>
        <time>2020-01-20T22:24:46Z</time>
      </trkpt>
      <trkpt lat="17.122903210" lon="-96.428052550">
        <ele>2969.200</ele>
        <time>2020-01-20T22:24:48Z</time>
      </trkpt>
      <trkpt lat="17.122937480" lon="-96.428034320">
        <ele>2971.200</ele>
        <time>2020-01-20T22:24:50Z</time>
      </trkpt>
      <trkpt lat="17.122975740" lon="-96.428014100">
        <ele>2970.200</ele>
        <time>2020-01-20T22:24:52Z</time>
      </trkpt>
      <trkpt lat="17.123041290" lon="-96.428003600">
        <ele>2970.500</ele>
        <time>2020-01-20T22:24:54Z</time>
      </trkpt>
      <trkpt lat="17.123079890" lon="-96.428003230">
        <ele>2969.700</ele>
        <time>2020-01-20T22:24:55Z</time>
      </trkpt>
      <trkpt lat="17.123146670" lon="-96.427989940">
        <ele>2969.800</ele>
        <time>2020-01-20T22:24:57Z</time>
      </trkpt>
      <trkpt lat="17.123197860" lon="-96.427996860">
        <ele>2968.900</ele>
        <time>2020-01-20T22:24:59Z</time>
      </trkpt>
      <trkpt lat="17.123247340" lon="-96.427983120">
        <ele>2968.400</ele>
        <time>2020-01-20T22:25:01Z</time>
      </trkpt>
      <trkpt lat="17.123295540" lon="-96.427987740">
        <ele>2966.500</ele>
        <time>2020-01-20T22:25:03Z</time>
      </trkpt>
      <trkpt lat="17.123338000" lon="-96.428012130">
        <ele>2963.900</ele>
        <time>2020-01-20T22:25:05Z</time>
      </trkpt>
      <trkpt lat="17.123390040" lon="-96.428023890">
        <ele>2961.300</ele>
        <time>2020-01-20T22:25:07Z</time>
      </trkpt>
      <trkpt lat="17.123449120" lon="-96.428027050">
        <ele>2959.100</ele>
        <time>2020-01-20T22:25:09Z</time>
      </trkpt>
      <trkpt lat="17.123489060" lon="-96.428030680">
        <ele>2959.100</ele>
        <time>2020-01-20T22:25:10Z</time>
      </trkpt>
      <trkpt lat="17.123532010" lon="-96.428029830">
        <ele>2960.700</ele>
        <time>2020-01-20T22:25:11Z</time>
      </trkpt>
      <trkpt lat="17.123594810" lon="-96.428008690">
        <ele>2960.400</ele>
        <time>2020-01-20T22:25:12Z</time>
      </trkpt>
      <trkpt lat="17.123651280" lon="-96.427995760">
        <ele>2958.500</ele>
        <time>2020-01-20T22:25:14Z</time>
      </trkpt>
      <trkpt lat="17.123724830" lon="-96.427975980">
        <ele>2957.700</ele>
        <time>2020-01-20T22:25:16Z</time>
      </trkpt>
      <trkpt lat="17.123789670" lon="-96.427958700">
        <ele>2958.500</ele>
        <time>2020-01-20T22:25:18Z</time>
      </trkpt>
      <trkpt lat="17.123827960" lon="-96.427960320">
        <ele>2957.800</ele>
        <time>2020-01-20T22:25:19Z</time>
      </trkpt>
      <trkpt lat="17.123870050" lon="-96.427959920">
        <ele>2957.900</ele>
        <time>2020-01-20T22:25:20Z</time>
      </trkpt>
      <trkpt lat="17.123912410" lon="-96.427959090">
        <ele>2958.700</ele>
        <time>2020-01-20T22:25:21Z</time>
      </trkpt>
      <trkpt lat="17.123949370" lon="-96.427961710">
        <ele>2958.600</ele>
        <time>2020-01-20T22:25:22Z</time>
      </trkpt>
      <trkpt lat="17.123989360" lon="-96.427966790">
        <ele>2956.900</ele>
        <time>2020-01-20T22:25:23Z</time>
      </trkpt>
      <trkpt lat="17.124028720" lon="-96.427978250">
        <ele>2957.400</ele>
        <time>2020-01-20T22:25:24Z</time>
      </trkpt>
      <trkpt lat="17.124066850" lon="-96.427993170">
        <ele>2958.300</ele>
        <time>2020-01-20T22:25:25Z</time>
      </trkpt>
      <trkpt lat="17.124106100" lon="-96.428004650">
        <ele>2958.400</ele>
        <time>2020-01-20T22:25:26Z</time>
      </trkpt>
      <trkpt lat="17.124147940" lon="-96.428010530">
        <ele>2957.400</ele>
        <time>2020-01-20T22:25:27Z</time>
      </trkpt>
      <trkpt lat="17.124188780" lon="-96.428014110">
        <ele>2955.600</ele>
        <time>2020-01-20T22:25:28Z</time>
      </trkpt>
      <trkpt lat="17.124229480" lon="-96.428011000">
        <ele>2956.400</ele>
        <time>2020-01-20T22:25:29Z</time>
      </trkpt>
      <trkpt lat="17.124304830" lon="-96.428007780">
        <ele>2956.400</ele>
        <time>2020-01-20T22:25:31Z</time>
      </trkpt>
      <trkpt lat="17.124345620" lon="-96.428017260">
        <ele>2956.700</ele>
        <time>2020-01-20T22:25:32Z</time>
      </trkpt>
      <trkpt lat="17.124382130" lon="-96.428021720">
        <ele>2956.200</ele>
        <time>2020-01-20T22:25:33Z</time>
      </trkpt>
      <trkpt lat="17.124419450" lon="-96.428029080">
        <ele>2957.000</ele>
        <time>2020-01-20T22:25:34Z</time>
      </trkpt>
      <trkpt lat="17.124462840" lon="-96.428036530">
        <ele>2958.200</ele>
        <time>2020-01-20T22:25:35Z</time>
      </trkpt>
      <trkpt lat="17.124505150" lon="-96.428040340">
        <ele>2958.600</ele>
        <time>2020-01-20T22:25:36Z</time>
      </trkpt>
      <trkpt lat="17.124569950" lon="-96.428038240">
        <ele>2958.900</ele>
        <time>2020-01-20T22:25:38Z</time>
      </trkpt>
      <trkpt lat="17.124618830" lon="-96.428021340">
        <ele>2960.000</ele>
        <time>2020-01-20T22:25:40Z</time>
      </trkpt>
      <trkpt lat="17.124693100" lon="-96.428025910">
        <ele>2960.800</ele>
        <time>2020-01-20T22:25:42Z</time>
      </trkpt>
      <trkpt lat="17.124736380" lon="-96.428022620">
        <ele>2959.900</ele>
        <time>2020-01-20T22:25:43Z</time>
      </trkpt>
      <trkpt lat="17.124774350" lon="-96.428018450">
        <ele>2958.500</ele>
        <time>2020-01-20T22:25:44Z</time>
      </trkpt>
      <trkpt lat="17.124830030" lon="-96.428015630">
        <ele>2957.500</ele>
        <time>2020-01-20T22:25:46Z</time>
      </trkpt>
      <trkpt lat="17.124894530" lon="-96.428005510">
        <ele>2956.800</ele>
        <time>2020-01-20T22:25:48Z</time>
      </trkpt>
      <trkpt lat="17.124933630" lon="-96.428003240">
        <ele>2957.000</ele>
        <time>2020-01-20T22:25:49Z</time>
      </trkpt>
      <trkpt lat="17.124977180" lon="-96.427996610">
        <ele>2956.500</ele>
        <time>2020-01-20T22:25:50Z</time>
      </trkpt>
      <trkpt lat="17.125016630" lon="-96.427984550">
        <ele>2956.300</ele>
        <time>2020-01-20T22:25:51Z</time>
      </trkpt>
      <trkpt lat="17.125051070" lon="-96.427971900">
        <ele>2956.100</ele>
        <time>2020-01-20T22:25:52Z</time>
      </trkpt>
      <trkpt lat="17.125104380" lon="-96.427939400">
        <ele>2954.000</ele>
        <time>2020-01-20T22:25:54Z</time>
      </trkpt>
      <trkpt lat="17.125156960" lon="-96.427894840">
        <ele>2954.100</ele>
        <time>2020-01-20T22:25:56Z</time>
      </trkpt>
      <trkpt lat="17.125193000" lon="-96.427872920">
        <ele>2954.000</ele>
        <time>2020-01-20T22:25:57Z</time>
      </trkpt>
      <trkpt lat="17.125232420" lon="-96.427862230">
        <ele>2951.800</ele>
        <time>2020-01-20T22:25:58Z</time>
      </trkpt>
      <trkpt lat="17.125315970" lon="-96.427836350">
        <ele>2954.700</ele>
        <time>2020-01-20T22:26:00Z</time>
      </trkpt>
      <trkpt lat="17.125360960" lon="-96.427829890">
        <ele>2954.600</ele>
        <time>2020-01-20T22:26:01Z</time>
      </trkpt>
      <trkpt lat="17.125405250" lon="-96.427827150">
        <ele>2955.700</ele>
        <time>2020-01-20T22:26:02Z</time>
      </trkpt>
      <trkpt lat="17.125441920" lon="-96.427816390">
        <ele>2956.000</ele>
        <time>2020-01-20T22:26:03Z</time>
      </trkpt>
      <trkpt lat="17.125506890" lon="-96.427817070">
        <ele>2956.000</ele>
        <time>2020-01-20T22:26:05Z</time>
      </trkpt>
      <trkpt lat="17.125572260" lon="-96.427799530">
        <ele>2957.500</ele>
        <time>2020-01-20T22:26:07Z</time>
      </trkpt>
      <trkpt lat="17.125619910" lon="-96.427796390">
        <ele>2954.600</ele>
        <time>2020-01-20T22:26:09Z</time>
      </trkpt>
      <trkpt lat="17.125663280" lon="-96.427797700">
        <ele>2954.200</ele>
        <time>2020-01-20T22:26:11Z</time>
      </trkpt>
      <trkpt lat="17.125708510" lon="-96.427800140">
        <ele>2953.600</ele>
        <time>2020-01-20T22:26:13Z</time>
      </trkpt>
      <trkpt lat="17.125771040" lon="-96.427797940">
        <ele>2953.300</ele>
        <time>2020-01-20T22:26:15Z</time>
      </trkpt>
      <trkpt lat="17.125814770" lon="-96.427826220">
        <ele>2951.400</ele>
        <time>2020-01-20T22:26:17Z</time>
      </trkpt>
      <trkpt lat="17.125862160" lon="-96.427840940">
        <ele>2950.800</ele>
        <time>2020-01-20T22:26:19Z</time>
      </trkpt>
      <trkpt lat="17.125905570" lon="-96.427870980">
        <ele>2948.500</ele>
        <time>2020-01-20T22:26:21Z</time>
      </trkpt>
      <trkpt lat="17.125960350" lon="-96.427902460">
        <ele>2948.300</ele>
        <time>2020-01-20T22:26:23Z</time>
      </trkpt>
      <trkpt lat="17.126008910" lon="-96.427942220">
        <ele>2946.400</ele>
        <time>2020-01-20T22:26:25Z</time>
      </trkpt>
      <trkpt lat="17.126044960" lon="-96.427969270">
        <ele>2945.400</ele>
        <time>2020-01-20T22:26:27Z</time>
      </trkpt>
      <trkpt lat="17.126078610" lon="-96.427995310">
        <ele>2944.800</ele>
        <time>2020-01-20T22:26:29Z</time>
      </trkpt>
      <trkpt lat="17.126109740" lon="-96.428026820">
        <ele>2945.700</ele>
        <time>2020-01-20T22:26:31Z</time>
      </trkpt>
      <trkpt lat="17.126140730" lon="-96.428064920">
        <ele>2945.400</ele>
        <time>2020-01-20T22:26:33Z</time>
      </trkpt>
      <trkpt lat="17.126174700" lon="-96.428085090">
        <ele>2944.000</ele>
        <time>2020-01-20T22:26:35Z</time>
      </trkpt>
      <trkpt lat="17.126222330" lon="-96.428089740">
        <ele>2944.400</ele>
        <time>2020-01-20T22:26:37Z</time>
      </trkpt>
      <trkpt lat="17.126288030" lon="-96.428085790">
        <ele>2945.000</ele>
        <time>2020-01-20T22:26:39Z</time>
      </trkpt>
      <trkpt lat="17.126330110" lon="-96.428082060">
        <ele>2943.300</ele>
        <time>2020-01-20T22:26:41Z</time>
      </trkpt>
      <trkpt lat="17.126377790" lon="-96.428063570">
        <ele>2942.600</ele>
        <time>2020-01-20T22:26:44Z</time>
      </trkpt>
      <trkpt lat="17.126405070" lon="-96.428036630">
        <ele>2942.300</ele>
        <time>2020-01-20T22:26:46Z</time>
      </trkpt>
      <trkpt lat="17.126429800" lon="-96.428008730">
        <ele>2943.000</ele>
        <time>2020-01-20T22:26:48Z</time>
      </trkpt>
      <trkpt lat="17.126465860" lon="-96.427971490">
        <ele>2942.100</ele>
        <time>2020-01-20T22:26:50Z</time>
      </trkpt>
      <trkpt lat="17.126508670" lon="-96.427935180">
        <ele>2941.600</ele>
        <time>2020-01-20T22:26:52Z</time>
      </trkpt>
      <trkpt lat="17.126547720" lon="-96.427901120">
        <ele>2942.300</ele>
        <time>2020-01-20T22:26:54Z</time>
      </trkpt>
      <trkpt lat="17.126585230" lon="-96.427871170">
        <ele>2941.900</ele>
        <time>2020-01-20T22:26:56Z</time>
      </trkpt>
      <trkpt lat="17.126624500" lon="-96.427842190">
        <ele>2941.400</ele>
        <time>2020-01-20T22:26:59Z</time>
      </trkpt>
      <trkpt lat="17.126662840" lon="-96.427810440">
        <ele>2942.000</ele>
        <time>2020-01-20T22:27:02Z</time>
      </trkpt>
      <trkpt lat="17.126708310" lon="-96.427780330">
        <ele>2941.100</ele>
        <time>2020-01-20T22:27:04Z</time>
      </trkpt>
      <trkpt lat="17.126757640" lon="-96.427752770">
        <ele>2942.700</ele>
        <time>2020-01-20T22:27:06Z</time>
      </trkpt>
      <trkpt lat="17.126811610" lon="-96.427755180">
        <ele>2942.000</ele>
        <time>2020-01-20T22:27:08Z</time>
      </trkpt>
      <trkpt lat="17.126850010" lon="-96.427758140">
        <ele>2941.200</ele>
        <time>2020-01-20T22:27:09Z</time>
      </trkpt>
      <trkpt lat="17.126887140" lon="-96.427771910">
        <ele>2939.300</ele>
        <time>2020-01-20T22:27:10Z</time>
      </trkpt>
      <trkpt lat="17.126927710" lon="-96.427786370">
        <ele>2937.700</ele>
        <time>2020-01-20T22:27:11Z</time>
      </trkpt>
      <trkpt lat="17.126966740" lon="-96.427793580">
        <ele>2937.400</ele>
        <time>2020-01-20T22:27:12Z</time>
      </trkpt>
      <trkpt lat="17.127010140" lon="-96.427800470">
        <ele>2936.900</ele>
        <time>2020-01-20T22:27:13Z</time>
      </trkpt>
      <trkpt lat="17.127056520" lon="-96.427807170">
        <ele>2936.400</ele>
        <time>2020-01-20T22:27:14Z</time>
      </trkpt>
      <trkpt lat="17.127097970" lon="-96.427813070">
        <ele>2935.100</ele>
        <time>2020-01-20T22:27:15Z</time>
      </trkpt>
      <trkpt lat="17.127137920" lon="-96.427816720">
        <ele>2934.600</ele>
        <time>2020-01-20T22:27:16Z</time>
      </trkpt>
      <trkpt lat="17.127175600" lon="-96.427814050">
        <ele>2934.200</ele>
        <time>2020-01-20T22:27:17Z</time>
      </trkpt>
      <trkpt lat="17.127238890" lon="-96.427809480">
        <ele>2931.600</ele>
        <time>2020-01-20T22:27:19Z</time>
      </trkpt>
      <trkpt lat="17.127301670" lon="-96.427801430">
        <ele>2931.000</ele>
        <time>2020-01-20T22:27:21Z</time>
      </trkpt>
      <trkpt lat="17.127338700" lon="-96.427798370">
        <ele>2930.100</ele>
        <time>2020-01-20T22:27:22Z</time>
      </trkpt>
      <trkpt lat="17.127376310" lon="-96.427794610">
        <ele>2930.000</ele>
        <time>2020-01-20T22:27:23Z</time>
      </trkpt>
      <trkpt lat="17.127413610" lon="-96.427788170">
        <ele>2930.800</ele>
        <time>2020-01-20T22:27:24Z</time>
      </trkpt>
      <trkpt lat="17.127481720" lon="-96.427770590">
        <ele>2928.800</ele>
        <time>2020-01-20T22:27:26Z</time>
      </trkpt>
      <trkpt lat="17.127546640" lon="-96.427759070">
        <ele>2927.200</ele>
        <time>2020-01-20T22:27:28Z</time>
      </trkpt>
      <trkpt lat="17.127611600" lon="-96.427753060">
        <ele>2927.600</ele>
        <time>2020-01-20T22:27:30Z</time>
      </trkpt>
      <trkpt lat="17.127667540" lon="-96.427742080">
        <ele>2929.500</ele>
        <time>2020-01-20T22:27:32Z</time>
      </trkpt>
      <trkpt lat="17.127715970" lon="-96.427731270">
        <ele>2928.600</ele>
        <time>2020-01-20T22:27:34Z</time>
      </trkpt>
      <trkpt lat="17.127751450" lon="-96.427722680">
        <ele>2930.400</ele>
        <time>2020-01-20T22:27:36Z</time>
      </trkpt>
      <trkpt lat="17.127804000" lon="-96.427714980">
        <ele>2930.200</ele>
        <time>2020-01-20T22:27:38Z</time>
      </trkpt>
      <trkpt lat="17.127860070" lon="-96.427724030">
        <ele>2928.600</ele>
        <time>2020-01-20T22:27:40Z</time>
      </trkpt>
      <trkpt lat="17.127926480" lon="-96.427738570">
        <ele>2928.500</ele>
        <time>2020-01-20T22:27:42Z</time>
      </trkpt>
      <trkpt lat="17.127999350" lon="-96.427748860">
        <ele>2927.100</ele>
        <time>2020-01-20T22:27:44Z</time>
      </trkpt>
      <trkpt lat="17.128057580" lon="-96.427740040">
        <ele>2926.000</ele>
        <time>2020-01-20T22:27:46Z</time>
      </trkpt>
      <trkpt lat="17.128118970" lon="-96.427724420">
        <ele>2926.200</ele>
        <time>2020-01-20T22:27:48Z</time>
      </trkpt>
      <trkpt lat="17.128174390" lon="-96.427723870">
        <ele>2926.500</ele>
        <time>2020-01-20T22:27:50Z</time>
      </trkpt>
      <trkpt lat="17.128234360" lon="-96.427734720">
        <ele>2924.000</ele>
        <time>2020-01-20T22:27:52Z</time>
      </trkpt>
      <trkpt lat="17.128270950" lon="-96.427739630">
        <ele>2924.200</ele>
        <time>2020-01-20T22:27:53Z</time>
      </trkpt>
      <trkpt lat="17.128311310" lon="-96.427743520">
        <ele>2924.100</ele>
        <time>2020-01-20T22:27:54Z</time>
      </trkpt>
      <trkpt lat="17.128353740" lon="-96.427748870">
        <ele>2923.900</ele>
        <time>2020-01-20T22:27:55Z</time>
      </trkpt>
      <trkpt lat="17.128397740" lon="-96.427754380">
        <ele>2923.900</ele>
        <time>2020-01-20T22:27:56Z</time>
      </trkpt>
      <trkpt lat="17.128437750" lon="-96.427758850">
        <ele>2923.500</ele>
        <time>2020-01-20T22:27:57Z</time>
      </trkpt>
      <trkpt lat="17.128505900" lon="-96.427772760">
        <ele>2923.300</ele>
        <time>2020-01-20T22:27:59Z</time>
      </trkpt>
      <trkpt lat="17.128545090" lon="-96.427778980">
        <ele>2922.900</ele>
        <time>2020-01-20T22:28:00Z</time>
      </trkpt>
      <trkpt lat="17.128580640" lon="-96.427787800">
        <ele>2922.800</ele>
        <time>2020-01-20T22:28:01Z</time>
      </trkpt>
      <trkpt lat="17.128618040" lon="-96.427792250">
        <ele>2922.800</ele>
        <time>2020-01-20T22:28:02Z</time>
      </trkpt>
      <trkpt lat="17.128656880" lon="-96.427793980">
        <ele>2922.300</ele>
        <time>2020-01-20T22:28:03Z</time>
      </trkpt>
      <trkpt lat="17.128693150" lon="-96.427797470">
        <ele>2922.100</ele>
        <time>2020-01-20T22:28:04Z</time>
      </trkpt>
      <trkpt lat="17.128758730" lon="-96.427810210">
        <ele>2922.100</ele>
        <time>2020-01-20T22:28:06Z</time>
      </trkpt>
      <trkpt lat="17.128815740" lon="-96.427840360">
        <ele>2922.000</ele>
        <time>2020-01-20T22:28:08Z</time>
      </trkpt>
      <trkpt lat="17.128872110" lon="-96.427863640">
        <ele>2924.300</ele>
        <time>2020-01-20T22:28:10Z</time>
      </trkpt>
      <trkpt lat="17.128932530" lon="-96.427888790">
        <ele>2923.700</ele>
        <time>2020-01-20T22:28:12Z</time>
      </trkpt>
      <trkpt lat="17.128998790" lon="-96.427907140">
        <ele>2924.500</ele>
        <time>2020-01-20T22:28:14Z</time>
      </trkpt>
      <trkpt lat="17.129043700" lon="-96.427906720">
        <ele>2924.200</ele>
        <time>2020-01-20T22:28:16Z</time>
      </trkpt>
      <trkpt lat="17.129090300" lon="-96.427883910">
        <ele>2924.100</ele>
        <time>2020-01-20T22:28:18Z</time>
      </trkpt>
      <trkpt lat="17.129151500" lon="-96.427846060">
        <ele>2924.200</ele>
        <time>2020-01-20T22:28:20Z</time>
      </trkpt>
      <trkpt lat="17.129181110" lon="-96.427822610">
        <ele>2923.100</ele>
        <time>2020-01-20T22:28:21Z</time>
      </trkpt>
      <trkpt lat="17.129209020" lon="-96.427794530">
        <ele>2923.100</ele>
        <time>2020-01-20T22:28:22Z</time>
      </trkpt>
      <trkpt lat="17.129233540" lon="-96.427764860">
        <ele>2923.800</ele>
        <time>2020-01-20T22:28:23Z</time>
      </trkpt>
      <trkpt lat="17.129280140" lon="-96.427702080">
        <ele>2926.000</ele>
        <time>2020-01-20T22:28:25Z</time>
      </trkpt>
      <trkpt lat="17.129300970" lon="-96.427670630">
        <ele>2927.100</ele>
        <time>2020-01-20T22:28:26Z</time>
      </trkpt>
      <trkpt lat="17.129333440" lon="-96.427612470">
        <ele>2927.100</ele>
        <time>2020-01-20T22:28:28Z</time>
      </trkpt>
      <trkpt lat="17.129365720" lon="-96.427565760">
        <ele>2929.500</ele>
        <time>2020-01-20T22:28:30Z</time>
      </trkpt>
      <trkpt lat="17.129400670" lon="-96.427517550">
        <ele>2929.600</ele>
        <time>2020-01-20T22:28:32Z</time>
      </trkpt>
      <trkpt lat="17.129446000" lon="-96.427466250">
        <ele>2929.000</ele>
        <time>2020-01-20T22:28:34Z</time>
      </trkpt>
      <trkpt lat="17.129472920" lon="-96.427438380">
        <ele>2929.000</ele>
        <time>2020-01-20T22:28:35Z</time>
      </trkpt>
      <trkpt lat="17.129497800" lon="-96.427410400">
        <ele>2929.200</ele>
        <time>2020-01-20T22:28:36Z</time>
      </trkpt>
      <trkpt lat="17.129544280" lon="-96.427360780">
        <ele>2929.500</ele>
        <time>2020-01-20T22:28:38Z</time>
      </trkpt>
      <trkpt lat="17.129590960" lon="-96.427322960">
        <ele>2930.100</ele>
        <time>2020-01-20T22:28:40Z</time>
      </trkpt>
      <trkpt lat="17.129634230" lon="-96.427293120">
        <ele>2930.700</ele>
        <time>2020-01-20T22:28:42Z</time>
      </trkpt>
      <trkpt lat="17.129681950" lon="-96.427268460">
        <ele>2929.000</ele>
        <time>2020-01-20T22:28:44Z</time>
      </trkpt>
      <trkpt lat="17.129727000" lon="-96.427241520">
        <ele>2930.300</ele>
        <time>2020-01-20T22:28:46Z</time>
      </trkpt>
      <trkpt lat="17.129763930" lon="-96.427219140">
        <ele>2928.600</ele>
        <time>2020-01-20T22:28:48Z</time>
      </trkpt>
      <trkpt lat="17.129809340" lon="-96.427186510">
        <ele>2930.800</ele>
        <time>2020-01-20T22:28:50Z</time>
      </trkpt>
      <trkpt lat="17.129861540" lon="-96.427152500">
        <ele>2930.400</ele>
        <time>2020-01-20T22:28:52Z</time>
      </trkpt>
      <trkpt lat="17.129909170" lon="-96.427134690">
        <ele>2929.600</ele>
        <time>2020-01-20T22:28:54Z</time>
      </trkpt>
      <trkpt lat="17.129950760" lon="-96.427090390">
        <ele>2931.700</ele>
        <time>2020-01-20T22:28:56Z</time>
      </trkpt>
      <trkpt lat="17.130002930" lon="-96.427061890">
        <ele>2930.700</ele>
        <time>2020-01-20T22:28:58Z</time>
      </trkpt>
      <trkpt lat="17.130058090" lon="-96.427029580">
        <ele>2930.800</ele>
        <time>2020-01-20T22:29:00Z</time>
      </trkpt>
      <trkpt lat="17.130115830" lon="-96.427000650">
        <ele>2932.700</ele>
        <time>2020-01-20T22:29:02Z</time>
      </trkpt>
      <trkpt lat="17.130173850" lon="-96.426985980">
        <ele>2932.900</ele>
        <time>2020-01-20T22:29:04Z</time>
      </trkpt>
      <trkpt lat="17.130242660" lon="-96.426977750">
        <ele>2930.900</ele>
        <time>2020-01-20T22:29:06Z</time>
      </trkpt>
      <trkpt lat="17.130281120" lon="-96.426973070">
        <ele>2930.700</ele>
        <time>2020-01-20T22:29:07Z</time>
      </trkpt>
      <trkpt lat="17.130339350" lon="-96.426962930">
        <ele>2930.700</ele>
        <time>2020-01-20T22:29:09Z</time>
      </trkpt>
      <trkpt lat="17.130404970" lon="-96.426944480">
        <ele>2933.100</ele>
        <time>2020-01-20T22:29:11Z</time>
      </trkpt>
      <trkpt lat="17.130464790" lon="-96.426933120">
        <ele>2931.900</ele>
        <time>2020-01-20T22:29:13Z</time>
      </trkpt>
      <trkpt lat="17.130506430" lon="-96.426919530">
        <ele>2930.200</ele>
        <time>2020-01-20T22:29:15Z</time>
      </trkpt>
      <trkpt lat="17.130557180" lon="-96.426898450">
        <ele>2930.100</ele>
        <time>2020-01-20T22:29:17Z</time>
      </trkpt>
      <trkpt lat="17.130604780" lon="-96.426855950">
        <ele>2929.200</ele>
        <time>2020-01-20T22:29:19Z</time>
      </trkpt>
      <trkpt lat="17.130627150" lon="-96.426823640">
        <ele>2929.200</ele>
        <time>2020-01-20T22:29:20Z</time>
      </trkpt>
      <trkpt lat="17.130647300" lon="-96.426791800">
        <ele>2928.800</ele>
        <time>2020-01-20T22:29:21Z</time>
      </trkpt>
      <trkpt lat="17.130686750" lon="-96.426727740">
        <ele>2927.900</ele>
        <time>2020-01-20T22:29:23Z</time>
      </trkpt>
      <trkpt lat="17.130705050" lon="-96.426693380">
        <ele>2927.800</ele>
        <time>2020-01-20T22:29:24Z</time>
      </trkpt>
      <trkpt lat="17.130741650" lon="-96.426636370">
        <ele>2927.600</ele>
        <time>2020-01-20T22:29:26Z</time>
      </trkpt>
      <trkpt lat="17.130785150" lon="-96.426598320">
        <ele>2926.900</ele>
        <time>2020-01-20T22:29:28Z</time>
      </trkpt>
      <trkpt lat="17.130836210" lon="-96.426576030">
        <ele>2927.100</ele>
        <time>2020-01-20T22:29:30Z</time>
      </trkpt>
      <trkpt lat="17.130891860" lon="-96.426564950">
        <ele>2926.900</ele>
        <time>2020-01-20T22:29:32Z</time>
      </trkpt>
      <trkpt lat="17.130948040" lon="-96.426563770">
        <ele>2926.500</ele>
        <time>2020-01-20T22:29:34Z</time>
      </trkpt>
      <trkpt lat="17.130997940" lon="-96.426568010">
        <ele>2925.800</ele>
        <time>2020-01-20T22:29:36Z</time>
      </trkpt>
      <trkpt lat="17.131052600" lon="-96.426568260">
        <ele>2925.600</ele>
        <time>2020-01-20T22:29:38Z</time>
      </trkpt>
      <trkpt lat="17.131105230" lon="-96.426559180">
        <ele>2924.400</ele>
        <time>2020-01-20T22:29:40Z</time>
      </trkpt>
      <trkpt lat="17.131158950" lon="-96.426547340">
        <ele>2926.500</ele>
        <time>2020-01-20T22:29:42Z</time>
      </trkpt>
      <trkpt lat="17.131223440" lon="-96.426542850">
        <ele>2925.900</ele>
        <time>2020-01-20T22:29:44Z</time>
      </trkpt>
      <trkpt lat="17.131264760" lon="-96.426560930">
        <ele>2924.600</ele>
        <time>2020-01-20T22:29:46Z</time>
      </trkpt>
      <trkpt lat="17.131311520" lon="-96.426562440">
        <ele>2925.100</ele>
        <time>2020-01-20T22:29:48Z</time>
      </trkpt>
      <trkpt lat="17.131357840" lon="-96.426563200">
        <ele>2925.800</ele>
        <time>2020-01-20T22:29:50Z</time>
      </trkpt>
      <trkpt lat="17.131401990" lon="-96.426566720">
        <ele>2925.200</ele>
        <time>2020-01-20T22:29:52Z</time>
      </trkpt>
      <trkpt lat="17.131455350" lon="-96.426573360">
        <ele>2922.900</ele>
        <time>2020-01-20T22:29:54Z</time>
      </trkpt>
      <trkpt lat="17.131518090" lon="-96.426554950">
        <ele>2924.800</ele>
        <time>2020-01-20T22:29:56Z</time>
      </trkpt>
      <trkpt lat="17.131574470" lon="-96.426530860">
        <ele>2923.500</ele>
        <time>2020-01-20T22:29:58Z</time>
      </trkpt>
      <trkpt lat="17.131626530" lon="-96.426515770">
        <ele>2922.600</ele>
        <time>2020-01-20T22:30:00Z</time>
      </trkpt>
      <trkpt lat="17.131677280" lon="-96.426504940">
        <ele>2919.400</ele>
        <time>2020-01-20T22:30:02Z</time>
      </trkpt>
      <trkpt lat="17.131725000" lon="-96.426497370">
        <ele>2918.600</ele>
        <time>2020-01-20T22:30:04Z</time>
      </trkpt>
      <trkpt lat="17.131769430" lon="-96.426493500">
        <ele>2917.500</ele>
        <time>2020-01-20T22:30:06Z</time>
      </trkpt>
      <trkpt lat="17.131822900" lon="-96.426483160">
        <ele>2917.200</ele>
        <time>2020-01-20T22:30:08Z</time>
      </trkpt>
      <trkpt lat="17.131882790" lon="-96.426465020">
        <ele>2915.000</ele>
        <time>2020-01-20T22:30:10Z</time>
      </trkpt>
      <trkpt lat="17.131930690" lon="-96.426432860">
        <ele>2913.600</ele>
        <time>2020-01-20T22:30:12Z</time>
      </trkpt>
      <trkpt lat="17.131969460" lon="-96.426403000">
        <ele>2912.700</ele>
        <time>2020-01-20T22:30:14Z</time>
      </trkpt>
      <trkpt lat="17.131982530" lon="-96.426364040">
        <ele>2909.500</ele>
        <time>2020-01-20T22:30:16Z</time>
      </trkpt>
      <trkpt lat="17.131972970" lon="-96.426318290">
        <ele>2907.900</ele>
        <time>2020-01-20T22:30:18Z</time>
      </trkpt>
      <trkpt lat="17.131943750" lon="-96.426282780">
        <ele>2906.400</ele>
        <time>2020-01-20T22:30:20Z</time>
      </trkpt>
      <trkpt lat="17.131893980" lon="-96.426268830">
        <ele>2903.700</ele>
        <time>2020-01-20T22:30:22Z</time>
      </trkpt>
      <trkpt lat="17.131843840" lon="-96.426263260">
        <ele>2903.000</ele>
        <time>2020-01-20T22:30:24Z</time>
      </trkpt>
      <trkpt lat="17.131792190" lon="-96.426263630">
        <ele>2903.100</ele>
        <time>2020-01-20T22:30:26Z</time>
      </trkpt>
      <trkpt lat="17.131743790" lon="-96.426254080">
        <ele>2901.200</ele>
        <time>2020-01-20T22:30:28Z</time>
      </trkpt>
      <trkpt lat="17.131682270" lon="-96.426233570">
        <ele>2898.700</ele>
        <time>2020-01-20T22:30:30Z</time>
      </trkpt>
      <trkpt lat="17.131622890" lon="-96.426197610">
        <ele>2896.700</ele>
        <time>2020-01-20T22:30:32Z</time>
      </trkpt>
      <trkpt lat="17.131566340" lon="-96.426159330">
        <ele>2894.200</ele>
        <time>2020-01-20T22:30:34Z</time>
      </trkpt>
      <trkpt lat="17.131517800" lon="-96.426109810">
        <ele>2891.700</ele>
        <time>2020-01-20T22:30:36Z</time>
      </trkpt>
      <trkpt lat="17.131475390" lon="-96.426066520">
        <ele>2890.300</ele>
        <time>2020-01-20T22:30:38Z</time>
      </trkpt>
      <trkpt lat="17.131431820" lon="-96.426043320">
        <ele>2889.000</ele>
        <time>2020-01-20T22:30:40Z</time>
      </trkpt>
      <trkpt lat="17.131391490" lon="-96.426028100">
        <ele>2888.500</ele>
        <time>2020-01-20T22:30:42Z</time>
      </trkpt>
      <trkpt lat="17.131352130" lon="-96.426014030">
        <ele>2888.900</ele>
        <time>2020-01-20T22:30:44Z</time>
      </trkpt>
      <trkpt lat="17.131313880" lon="-96.426000310">
        <ele>2887.100</ele>
        <time>2020-01-20T22:30:46Z</time>
      </trkpt>
      <trkpt lat="17.131266850" lon="-96.425976780">
        <ele>2886.000</ele>
        <time>2020-01-20T22:30:48Z</time>
      </trkpt>
      <trkpt lat="17.131218000" lon="-96.425941580">
        <ele>2885.700</ele>
        <time>2020-01-20T22:30:50Z</time>
      </trkpt>
      <trkpt lat="17.131191260" lon="-96.425914370">
        <ele>2886.100</ele>
        <time>2020-01-20T22:30:51Z</time>
      </trkpt>
      <trkpt lat="17.131152560" lon="-96.425862380">
        <ele>2887.500</ele>
        <time>2020-01-20T22:30:53Z</time>
      </trkpt>
      <trkpt lat="17.131133760" lon="-96.425828920">
        <ele>2887.400</ele>
        <time>2020-01-20T22:30:54Z</time>
      </trkpt>
      <trkpt lat="17.131119280" lon="-96.425793130">
        <ele>2887.100</ele>
        <time>2020-01-20T22:30:55Z</time>
      </trkpt>
      <trkpt lat="17.131108500" lon="-96.425756640">
        <ele>2887.700</ele>
        <time>2020-01-20T22:30:56Z</time>
      </trkpt>
      <trkpt lat="17.131101140" lon="-96.425715760">
        <ele>2887.600</ele>
        <time>2020-01-20T22:30:57Z</time>
      </trkpt>
      <trkpt lat="17.131088780" lon="-96.425654750">
        <ele>2886.700</ele>
        <time>2020-01-20T22:30:59Z</time>
      </trkpt>
      <trkpt lat="17.131061800" lon="-96.425599370">
        <ele>2883.900</ele>
        <time>2020-01-20T22:31:01Z</time>
      </trkpt>
      <trkpt lat="17.131038030" lon="-96.425534170">
        <ele>2883.200</ele>
        <time>2020-01-20T22:31:03Z</time>
      </trkpt>
      <trkpt lat="17.131020250" lon="-96.425488400">
        <ele>2884.600</ele>
        <time>2020-01-20T22:31:05Z</time>
      </trkpt>
      <trkpt lat="17.130991720" lon="-96.425443940">
        <ele>2883.900</ele>
        <time>2020-01-20T22:31:07Z</time>
      </trkpt>
      <trkpt lat="17.130953280" lon="-96.425392600">
        <ele>2883.600</ele>
        <time>2020-01-20T22:31:09Z</time>
      </trkpt>
      <trkpt lat="17.130918930" lon="-96.425328800">
        <ele>2881.000</ele>
        <time>2020-01-20T22:31:11Z</time>
      </trkpt>
      <trkpt lat="17.130896320" lon="-96.425272220">
        <ele>2879.700</ele>
        <time>2020-01-20T22:31:13Z</time>
      </trkpt>
      <trkpt lat="17.130875590" lon="-96.425227290">
        <ele>2878.400</ele>
        <time>2020-01-20T22:31:15Z</time>
      </trkpt>
      <trkpt lat="17.130872910" lon="-96.425172620">
        <ele>2880.200</ele>
        <time>2020-01-20T22:31:17Z</time>
      </trkpt>
      <trkpt lat="17.130880720" lon="-96.425133180">
        <ele>2879.500</ele>
        <time>2020-01-20T22:31:18Z</time>
      </trkpt>
      <trkpt lat="17.130919970" lon="-96.425077120">
        <ele>2877.500</ele>
        <time>2020-01-20T22:31:20Z</time>
      </trkpt>
      <trkpt lat="17.130952270" lon="-96.425055300">
        <ele>2877.000</ele>
        <time>2020-01-20T22:31:21Z</time>
      </trkpt>
      <trkpt lat="17.131011750" lon="-96.425027480">
        <ele>2876.700</ele>
        <time>2020-01-20T22:31:23Z</time>
      </trkpt>
      <trkpt lat="17.131070660" lon="-96.425003930">
        <ele>2877.000</ele>
        <time>2020-01-20T22:31:25Z</time>
      </trkpt>
      <trkpt lat="17.131129920" lon="-96.424976880">
        <ele>2876.600</ele>
        <time>2020-01-20T22:31:27Z</time>
      </trkpt>
      <trkpt lat="17.131185180" lon="-96.424944250">
        <ele>2875.600</ele>
        <time>2020-01-20T22:31:29Z</time>
      </trkpt>
      <trkpt lat="17.131235570" lon="-96.424908250">
        <ele>2875.800</ele>
        <time>2020-01-20T22:31:31Z</time>
      </trkpt>
      <trkpt lat="17.131265770" lon="-96.424867870">
        <ele>2874.100</ele>
        <time>2020-01-20T22:31:33Z</time>
      </trkpt>
      <trkpt lat="17.131282920" lon="-96.424820340">
        <ele>2873.600</ele>
        <time>2020-01-20T22:31:35Z</time>
      </trkpt>
      <trkpt lat="17.131301070" lon="-96.424781820">
        <ele>2868.900</ele>
        <time>2020-01-20T22:31:37Z</time>
      </trkpt>
      <trkpt lat="17.131318670" lon="-96.424742530">
        <ele>2867.600</ele>
        <time>2020-01-20T22:31:39Z</time>
      </trkpt>
      <trkpt lat="17.131341240" lon="-96.424699400">
        <ele>2866.500</ele>
        <time>2020-01-20T22:31:41Z</time>
      </trkpt>
      <trkpt lat="17.131361860" lon="-96.424657210">
        <ele>2865.400</ele>
        <time>2020-01-20T22:31:43Z</time>
      </trkpt>
      <trkpt lat="17.131379820" lon="-96.424613660">
        <ele>2864.300</ele>
        <time>2020-01-20T22:31:45Z</time>
      </trkpt>
      <trkpt lat="17.131402860" lon="-96.424573090">
        <ele>2863.100</ele>
        <time>2020-01-20T22:31:47Z</time>
      </trkpt>
      <trkpt lat="17.131423700" lon="-96.424530110">
        <ele>2861.800</ele>
        <time>2020-01-20T22:31:49Z</time>
      </trkpt>
      <trkpt lat="17.131444290" lon="-96.424481220">
        <ele>2861.300</ele>
        <time>2020-01-20T22:31:51Z</time>
      </trkpt>
      <trkpt lat="17.131469870" lon="-96.424426190">
        <ele>2860.800</ele>
        <time>2020-01-20T22:31:53Z</time>
      </trkpt>
      <trkpt lat="17.131495650" lon="-96.424367090">
        <ele>2860.100</ele>
        <time>2020-01-20T22:31:55Z</time>
      </trkpt>
      <trkpt lat="17.131516560" lon="-96.424309800">
        <ele>2859.500</ele>
        <time>2020-01-20T22:31:57Z</time>
      </trkpt>
      <trkpt lat="17.131538370" lon="-96.424253250">
        <ele>2859.600</ele>
        <time>2020-01-20T22:31:59Z</time>
      </trkpt>
      <trkpt lat="17.131533510" lon="-96.424190430">
        <ele>2859.200</ele>
        <time>2020-01-20T22:32:01Z</time>
      </trkpt>
      <trkpt lat="17.131513970" lon="-96.424133210">
        <ele>2859.300</ele>
        <time>2020-01-20T22:32:03Z</time>
      </trkpt>
      <trkpt lat="17.131485560" lon="-96.424064300">
        <ele>2859.400</ele>
        <time>2020-01-20T22:32:05Z</time>
      </trkpt>
      <trkpt lat="17.131468890" lon="-96.424028190">
        <ele>2859.300</ele>
        <time>2020-01-20T22:32:06Z</time>
      </trkpt>
      <trkpt lat="17.131453240" lon="-96.423990980">
        <ele>2859.500</ele>
        <time>2020-01-20T22:32:07Z</time>
      </trkpt>
      <trkpt lat="17.131438280" lon="-96.423952940">
        <ele>2859.800</ele>
        <time>2020-01-20T22:32:08Z</time>
      </trkpt>
      <trkpt lat="17.131429420" lon="-96.423913530">
        <ele>2860.000</ele>
        <time>2020-01-20T22:32:09Z</time>
      </trkpt>
      <trkpt lat="17.131425230" lon="-96.423875600">
        <ele>2859.900</ele>
        <time>2020-01-20T22:32:10Z</time>
      </trkpt>
      <trkpt lat="17.131411520" lon="-96.423809670">
        <ele>2860.300</ele>
        <time>2020-01-20T22:32:12Z</time>
      </trkpt>
      <trkpt lat="17.131393020" lon="-96.423754160">
        <ele>2860.300</ele>
        <time>2020-01-20T22:32:14Z</time>
      </trkpt>
      <trkpt lat="17.131379580" lon="-96.423685200">
        <ele>2862.000</ele>
        <time>2020-01-20T22:32:16Z</time>
      </trkpt>
      <trkpt lat="17.131371820" lon="-96.423621480">
        <ele>2861.500</ele>
        <time>2020-01-20T22:32:18Z</time>
      </trkpt>
      <trkpt lat="17.131372860" lon="-96.423547580">
        <ele>2861.100</ele>
        <time>2020-01-20T22:32:20Z</time>
      </trkpt>
      <trkpt lat="17.131373180" lon="-96.423508950">
        <ele>2860.800</ele>
        <time>2020-01-20T22:32:21Z</time>
      </trkpt>
      <trkpt lat="17.131372790" lon="-96.423466130">
        <ele>2860.900</ele>
        <time>2020-01-20T22:32:22Z</time>
      </trkpt>
      <trkpt lat="17.131367610" lon="-96.423424870">
        <ele>2861.000</ele>
        <time>2020-01-20T22:32:23Z</time>
      </trkpt>
      <trkpt lat="17.131361080" lon="-96.423387130">
        <ele>2860.700</ele>
        <time>2020-01-20T22:32:24Z</time>
      </trkpt>
      <trkpt lat="17.131353990" lon="-96.423348480">
        <ele>2860.400</ele>
        <time>2020-01-20T22:32:25Z</time>
      </trkpt>
      <trkpt lat="17.131345860" lon="-96.423307540">
        <ele>2860.400</ele>
        <time>2020-01-20T22:32:26Z</time>
      </trkpt>
      <trkpt lat="17.131335900" lon="-96.423267340">
        <ele>2860.000</ele>
        <time>2020-01-20T22:32:27Z</time>
      </trkpt>
      <trkpt lat="17.131324540" lon="-96.423230000">
        <ele>2859.600</ele>
        <time>2020-01-20T22:32:28Z</time>
      </trkpt>
      <trkpt lat="17.131315660" lon="-96.423191650">
        <ele>2859.200</ele>
        <time>2020-01-20T22:32:29Z</time>
      </trkpt>
      <trkpt lat="17.131305180" lon="-96.423155090">
        <ele>2859.300</ele>
        <time>2020-01-20T22:32:30Z</time>
      </trkpt>
      <trkpt lat="17.131283170" lon="-96.423088470">
        <ele>2858.400</ele>
        <time>2020-01-20T22:32:32Z</time>
      </trkpt>
      <trkpt lat="17.131257080" lon="-96.423018950">
        <ele>2857.600</ele>
        <time>2020-01-20T22:32:34Z</time>
      </trkpt>
      <trkpt lat="17.131240870" lon="-96.422985170">
        <ele>2857.000</ele>
        <time>2020-01-20T22:32:35Z</time>
      </trkpt>
      <trkpt lat="17.131208910" lon="-96.422919780">
        <ele>2856.100</ele>
        <time>2020-01-20T22:32:37Z</time>
      </trkpt>
      <trkpt lat="17.131183490" lon="-96.422858600">
        <ele>2856.400</ele>
        <time>2020-01-20T22:32:39Z</time>
      </trkpt>
      <trkpt lat="17.131161990" lon="-96.422802040">
        <ele>2856.000</ele>
        <time>2020-01-20T22:32:41Z</time>
      </trkpt>
      <trkpt lat="17.131144030" lon="-96.422745150">
        <ele>2856.400</ele>
        <time>2020-01-20T22:32:43Z</time>
      </trkpt>
      <trkpt lat="17.131142830" lon="-96.422683430">
        <ele>2857.000</ele>
        <time>2020-01-20T22:32:45Z</time>
      </trkpt>
      <trkpt lat="17.131149160" lon="-96.422633510">
        <ele>2856.100</ele>
        <time>2020-01-20T22:32:47Z</time>
      </trkpt>
      <trkpt lat="17.131157710" lon="-96.422592520">
        <ele>2855.500</ele>
        <time>2020-01-20T22:32:49Z</time>
      </trkpt>
      <trkpt lat="17.131168700" lon="-96.422550630">
        <ele>2855.400</ele>
        <time>2020-01-20T22:32:51Z</time>
      </trkpt>
      <trkpt lat="17.131184810" lon="-96.422515280">
        <ele>2855.100</ele>
        <time>2020-01-20T22:32:53Z</time>
      </trkpt>
      <trkpt lat="17.131205500" lon="-96.422476970">
        <ele>2855.600</ele>
        <time>2020-01-20T22:32:55Z</time>
      </trkpt>
      <trkpt lat="17.131226000" lon="-96.422438560">
        <ele>2856.100</ele>
        <time>2020-01-20T22:32:57Z</time>
      </trkpt>
      <trkpt lat="17.131241770" lon="-96.422401970">
        <ele>2855.300</ele>
        <time>2020-01-20T22:32:59Z</time>
      </trkpt>
      <trkpt lat="17.131268960" lon="-96.422359820">
        <ele>2854.000</ele>
        <time>2020-01-20T22:33:02Z</time>
      </trkpt>
      <trkpt lat="17.131284120" lon="-96.422321910">
        <ele>2853.700</ele>
        <time>2020-01-20T22:33:07Z</time>
      </trkpt>
      <trkpt lat="17.131305140" lon="-96.422271340">
        <ele>2852.800</ele>
        <time>2020-01-20T22:33:11Z</time>
      </trkpt>
      <trkpt lat="17.131328890" lon="-96.422230470">
        <ele>2853.400</ele>
        <time>2020-01-20T22:33:13Z</time>
      </trkpt>
      <trkpt lat="17.131359250" lon="-96.422197020">
        <ele>2853.800</ele>
        <time>2020-01-20T22:33:15Z</time>
      </trkpt>
      <trkpt lat="17.131398600" lon="-96.422183070">
        <ele>2853.600</ele>
        <time>2020-01-20T22:33:17Z</time>
      </trkpt>
      <trkpt lat="17.131434090" lon="-96.422172450">
        <ele>2854.100</ele>
        <time>2020-01-20T22:33:19Z</time>
      </trkpt>
      <trkpt lat="17.131475970" lon="-96.422166760">
        <ele>2853.800</ele>
        <time>2020-01-20T22:33:21Z</time>
      </trkpt>
      <trkpt lat="17.131518180" lon="-96.422165680">
        <ele>2854.100</ele>
        <time>2020-01-20T22:33:24Z</time>
      </trkpt>
      <trkpt lat="17.131483530" lon="-96.422147840">
        <ele>2855.900</ele>
        <time>2020-01-20T22:35:33Z</time>
      </trkpt>
      <trkpt lat="17.131445320" lon="-96.422139720">
        <ele>2855.500</ele>
        <time>2020-01-20T22:35:41Z</time>
      </trkpt>
      <trkpt lat="17.131406490" lon="-96.422131200">
        <ele>2855.800</ele>
        <time>2020-01-20T22:35:49Z</time>
      </trkpt>
      <trkpt lat="17.131376490" lon="-96.422109180">
        <ele>2856.200</ele>
        <time>2020-01-20T22:35:56Z</time>
      </trkpt>
      <trkpt lat="17.131343010" lon="-96.422089390">
        <ele>2855.300</ele>
        <time>2020-01-20T22:36:02Z</time>
      </trkpt>
      <trkpt lat="17.131305550" lon="-96.422072150">
        <ele>2855.600</ele>
        <time>2020-01-20T22:36:08Z</time>
      </trkpt>
      <trkpt lat="17.131264050" lon="-96.422077270">
        <ele>2854.700</ele>
        <time>2020-01-20T22:36:14Z</time>
      </trkpt>
      <trkpt lat="17.131229940" lon="-96.422106280">
        <ele>2854.600</ele>
        <time>2020-01-20T22:36:19Z</time>
      </trkpt>
      <trkpt lat="17.131195340" lon="-96.422123860">
        <ele>2853.500</ele>
        <time>2020-01-20T22:36:25Z</time>
      </trkpt>
      <trkpt lat="17.131161960" lon="-96.422140830">
        <ele>2852.700</ele>
        <time>2020-01-20T22:37:05Z</time>
      </trkpt>
      <trkpt lat="17.131125020" lon="-96.422159580">
        <ele>2850.400</ele>
        <time>2020-01-20T22:37:12Z</time>
      </trkpt>
      <trkpt lat="17.131088100" lon="-96.422166420">
        <ele>2850.400</ele>
        <time>2020-01-20T22:37:20Z</time>
      </trkpt>
      <trkpt lat="17.131047730" lon="-96.422160060">
        <ele>2851.100</ele>
        <time>2020-01-20T22:37:28Z</time>
      </trkpt>
      <trkpt lat="17.131007640" lon="-96.422158840">
        <ele>2851.700</ele>
        <time>2020-01-20T22:37:36Z</time>
      </trkpt>
      <trkpt lat="17.130969800" lon="-96.422163290">
        <ele>2851.600</ele>
        <time>2020-01-20T22:37:41Z</time>
      </trkpt>
      <trkpt lat="17.130940920" lon="-96.422191740">
        <ele>2852.300</ele>
        <time>2020-01-20T22:37:45Z</time>
      </trkpt>
      <trkpt lat="17.130915780" lon="-96.422224550">
        <ele>2852.800</ele>
        <time>2020-01-20T22:37:49Z</time>
      </trkpt>
      <trkpt lat="17.130887340" lon="-96.422258220">
        <ele>2852.100</ele>
        <time>2020-01-20T22:37:53Z</time>
      </trkpt>
      <trkpt lat="17.130856730" lon="-96.422282210">
        <ele>2851.600</ele>
        <time>2020-01-20T22:37:57Z</time>
      </trkpt>
      <trkpt lat="17.130824350" lon="-96.422306560">
        <ele>2852.400</ele>
        <time>2020-01-20T22:38:02Z</time>
      </trkpt>
      <trkpt lat="17.130790210" lon="-96.422331760">
        <ele>2852.100</ele>
        <time>2020-01-20T22:38:07Z</time>
      </trkpt>
      <trkpt lat="17.130772850" lon="-96.422367190">
        <ele>2851.400</ele>
        <time>2020-01-20T22:38:11Z</time>
      </trkpt>
      <trkpt lat="17.130744150" lon="-96.422396500">
        <ele>2850.900</ele>
        <time>2020-01-20T22:38:16Z</time>
      </trkpt>
      <trkpt lat="17.130721880" lon="-96.422430970">
        <ele>2850.500</ele>
        <time>2020-01-20T22:38:21Z</time>
      </trkpt>
      <trkpt lat="17.130697150" lon="-96.422466270">
        <ele>2851.100</ele>
        <time>2020-01-20T22:38:27Z</time>
      </trkpt>
      <trkpt lat="17.130674740" lon="-96.422497390">
        <ele>2851.100</ele>
        <time>2020-01-20T22:38:32Z</time>
      </trkpt>
      <trkpt lat="17.130645150" lon="-96.422523510">
        <ele>2851.100</ele>
        <time>2020-01-20T22:38:39Z</time>
      </trkpt>
      <trkpt lat="17.130609100" lon="-96.422540440">
        <ele>2850.900</ele>
        <time>2020-01-20T22:38:45Z</time>
      </trkpt>
      <trkpt lat="17.130571020" lon="-96.422555240">
        <ele>2852.500</ele>
        <time>2020-01-20T22:38:53Z</time>
      </trkpt>
      <trkpt lat="17.130531340" lon="-96.422567370">
        <ele>2850.600</ele>
        <time>2020-01-20T22:39:04Z</time>
      </trkpt>
      <trkpt lat="17.130497290" lon="-96.422590600">
        <ele>2848.500</ele>
        <time>2020-01-20T22:39:31Z</time>
      </trkpt>
      <trkpt lat="17.130456570" lon="-96.422600140">
        <ele>2849.100</ele>
        <time>2020-01-20T22:39:37Z</time>
      </trkpt>
      <trkpt lat="17.130416620" lon="-96.422598010">
        <ele>2850.200</ele>
        <time>2020-01-20T22:39:43Z</time>
      </trkpt>
      <trkpt lat="17.130381110" lon="-96.422589750">
        <ele>2851.400</ele>
        <time>2020-01-20T22:39:48Z</time>
      </trkpt>
      <trkpt lat="17.130340980" lon="-96.422584260">
        <ele>2851.400</ele>
        <time>2020-01-20T22:39:54Z</time>
      </trkpt>
      <trkpt lat="17.130300630" lon="-96.422578700">
        <ele>2852.000</ele>
        <time>2020-01-20T22:39:59Z</time>
      </trkpt>
      <trkpt lat="17.130259170" lon="-96.422578510">
        <ele>2852.100</ele>
        <time>2020-01-20T22:40:04Z</time>
      </trkpt>
      <trkpt lat="17.130222520" lon="-96.422583290">
        <ele>2852.200</ele>
        <time>2020-01-20T22:40:13Z</time>
      </trkpt>
      <trkpt lat="17.130178660" lon="-96.422582880">
        <ele>2852.100</ele>
        <time>2020-01-20T22:40:18Z</time>
      </trkpt>
      <trkpt lat="17.130137440" lon="-96.422574680">
        <ele>2852.200</ele>
        <time>2020-01-20T22:40:23Z</time>
      </trkpt>
      <trkpt lat="17.130094660" lon="-96.422580530">
        <ele>2852.700</ele>
        <time>2020-01-20T22:40:28Z</time>
      </trkpt>
      <trkpt lat="17.130057060" lon="-96.422578660">
        <ele>2852.200</ele>
        <time>2020-01-20T22:40:33Z</time>
      </trkpt>
      <trkpt lat="17.130020730" lon="-96.422583060">
        <ele>2851.500</ele>
        <time>2020-01-20T22:40:38Z</time>
      </trkpt>
      <trkpt lat="17.129981900" lon="-96.422581100">
        <ele>2853.000</ele>
        <time>2020-01-20T22:40:44Z</time>
      </trkpt>
      <trkpt lat="17.129944410" lon="-96.422572050">
        <ele>2853.700</ele>
        <time>2020-01-20T22:40:49Z</time>
      </trkpt>
      <trkpt lat="17.129903990" lon="-96.422572420">
        <ele>2853.700</ele>
        <time>2020-01-20T22:40:54Z</time>
      </trkpt>
      <trkpt lat="17.129866910" lon="-96.422568980">
        <ele>2854.200</ele>
        <time>2020-01-20T22:40:59Z</time>
      </trkpt>
      <trkpt lat="17.129827610" lon="-96.422557640">
        <ele>2856.400</ele>
        <time>2020-01-20T22:41:05Z</time>
      </trkpt>
      <trkpt lat="17.129793910" lon="-96.422534410">
        <ele>2856.700</ele>
        <time>2020-01-20T22:41:12Z</time>
      </trkpt>
      <trkpt lat="17.129764480" lon="-96.422507360">
        <ele>2857.800</ele>
        <time>2020-01-20T22:41:21Z</time>
      </trkpt>
      <trkpt lat="17.129733390" lon="-96.422484180">
        <ele>2859.100</ele>
        <time>2020-01-20T22:41:32Z</time>
      </trkpt>
      <trkpt lat="17.129698060" lon="-96.422476180">
        <ele>2859.400</ele>
        <time>2020-01-20T22:41:47Z</time>
      </trkpt>
      <trkpt lat="17.129669640" lon="-96.422452390">
        <ele>2859.700</ele>
        <time>2020-01-20T22:41:53Z</time>
      </trkpt>
      <trkpt lat="17.129669870" lon="-96.422493820">
        <ele>2860.300</ele>
        <time>2020-01-20T22:44:41Z</time>
      </trkpt>
      <trkpt lat="17.129659310" lon="-96.422532110">
        <ele>2859.200</ele>
        <time>2020-01-20T22:44:48Z</time>
      </trkpt>
      <trkpt lat="17.129670850" lon="-96.422569950">
        <ele>2861.600</ele>
        <time>2020-01-20T22:44:56Z</time>
      </trkpt>
      <trkpt lat="17.129680430" lon="-96.422606270">
        <ele>2860.200</ele>
        <time>2020-01-20T22:45:01Z</time>
      </trkpt>
      <trkpt lat="17.129704030" lon="-96.422636340">
        <ele>2856.500</ele>
        <time>2020-01-20T22:45:06Z</time>
      </trkpt>
      <trkpt lat="17.129731350" lon="-96.422665360">
        <ele>2852.600</ele>
        <time>2020-01-20T22:45:11Z</time>
      </trkpt>
      <trkpt lat="17.129766980" lon="-96.422680990">
        <ele>2852.400</ele>
        <time>2020-01-20T22:45:17Z</time>
      </trkpt>
      <trkpt lat="17.129810900" lon="-96.422681790">
        <ele>2853.100</ele>
        <time>2020-01-20T22:45:22Z</time>
      </trkpt>
      <trkpt lat="17.129849310" lon="-96.422691910">
        <ele>2851.000</ele>
        <time>2020-01-20T22:45:27Z</time>
      </trkpt>
      <trkpt lat="17.129890110" lon="-96.422695710">
        <ele>2849.300</ele>
        <time>2020-01-20T22:45:31Z</time>
      </trkpt>
      <trkpt lat="17.129930250" lon="-96.422705230">
        <ele>2850.200</ele>
        <time>2020-01-20T22:45:36Z</time>
      </trkpt>
      <trkpt lat="17.129972320" lon="-96.422710310">
        <ele>2850.700</ele>
        <time>2020-01-20T22:45:42Z</time>
      </trkpt>
      <trkpt lat="17.130009860" lon="-96.422730260">
        <ele>2848.700</ele>
        <time>2020-01-20T22:45:48Z</time>
      </trkpt>
      <trkpt lat="17.130050250" lon="-96.422732310">
        <ele>2848.900</ele>
        <time>2020-01-20T22:45:53Z</time>
      </trkpt>
      <trkpt lat="17.130083450" lon="-96.422747980">
        <ele>2848.600</ele>
        <time>2020-01-20T22:45:59Z</time>
      </trkpt>
      <trkpt lat="17.130119850" lon="-96.422742450">
        <ele>2849.000</ele>
        <time>2020-01-20T22:46:03Z</time>
      </trkpt>
      <trkpt lat="17.130163310" lon="-96.422733810">
        <ele>2848.800</ele>
        <time>2020-01-20T22:46:07Z</time>
      </trkpt>
      <trkpt lat="17.130203830" lon="-96.422740230">
        <ele>2846.500</ele>
        <time>2020-01-20T22:46:12Z</time>
      </trkpt>
      <trkpt lat="17.130243150" lon="-96.422754300">
        <ele>2847.000</ele>
        <time>2020-01-20T22:46:19Z</time>
      </trkpt>
      <trkpt lat="17.130276030" lon="-96.422772170">
        <ele>2847.300</ele>
        <time>2020-01-20T22:46:24Z</time>
      </trkpt>
      <trkpt lat="17.130313690" lon="-96.422776660">
        <ele>2847.200</ele>
        <time>2020-01-20T22:46:30Z</time>
      </trkpt>
      <trkpt lat="17.130355180" lon="-96.422774960">
        <ele>2846.000</ele>
        <time>2020-01-20T22:46:36Z</time>
      </trkpt>
      <trkpt lat="17.130392780" lon="-96.422771780">
        <ele>2844.200</ele>
        <time>2020-01-20T22:46:40Z</time>
      </trkpt>
      <trkpt lat="17.130430160" lon="-96.422760120">
        <ele>2844.100</ele>
        <time>2020-01-20T22:46:44Z</time>
      </trkpt>
      <trkpt lat="17.130469870" lon="-96.422753040">
        <ele>2844.700</ele>
        <time>2020-01-20T22:46:50Z</time>
      </trkpt>
      <trkpt lat="17.130507490" lon="-96.422729880">
        <ele>2843.400</ele>
        <time>2020-01-20T22:46:54Z</time>
      </trkpt>
      <trkpt lat="17.130538910" lon="-96.422706600">
        <ele>2844.500</ele>
        <time>2020-01-20T22:46:58Z</time>
      </trkpt>
      <trkpt lat="17.130575830" lon="-96.422681020">
        <ele>2846.900</ele>
        <time>2020-01-20T22:47:02Z</time>
      </trkpt>
      <trkpt lat="17.130613020" lon="-96.422668250">
        <ele>2847.000</ele>
        <time>2020-01-20T22:47:06Z</time>
      </trkpt>
      <trkpt lat="17.130657430" lon="-96.422662720">
        <ele>2848.800</ele>
        <time>2020-01-20T22:47:11Z</time>
      </trkpt>
      <trkpt lat="17.130692430" lon="-96.422648010">
        <ele>2849.000</ele>
        <time>2020-01-20T22:47:15Z</time>
      </trkpt>
      <trkpt lat="17.130728910" lon="-96.422635170">
        <ele>2849.300</ele>
        <time>2020-01-20T22:47:19Z</time>
      </trkpt>
      <trkpt lat="17.130765840" lon="-96.422623250">
        <ele>2848.400</ele>
        <time>2020-01-20T22:47:24Z</time>
      </trkpt>
      <trkpt lat="17.130797880" lon="-96.422599480">
        <ele>2848.500</ele>
        <time>2020-01-20T22:47:28Z</time>
      </trkpt>
      <trkpt lat="17.130834990" lon="-96.422573010">
        <ele>2849.000</ele>
        <time>2020-01-20T22:47:32Z</time>
      </trkpt>
      <trkpt lat="17.130862730" lon="-96.422545750">
        <ele>2847.700</ele>
        <time>2020-01-20T22:47:36Z</time>
      </trkpt>
      <trkpt lat="17.130900790" lon="-96.422525320">
        <ele>2849.500</ele>
        <time>2020-01-20T22:47:41Z</time>
      </trkpt>
      <trkpt lat="17.130942530" lon="-96.422511200">
        <ele>2850.500</ele>
        <time>2020-01-20T22:47:46Z</time>
      </trkpt>
      <trkpt lat="17.130977250" lon="-96.422497730">
        <ele>2850.600</ele>
        <time>2020-01-20T22:47:50Z</time>
      </trkpt>
      <trkpt lat="17.131020360" lon="-96.422487020">
        <ele>2851.300</ele>
        <time>2020-01-20T22:47:55Z</time>
      </trkpt>
      <trkpt lat="17.131058830" lon="-96.422475410">
        <ele>2851.100</ele>
        <time>2020-01-20T22:48:00Z</time>
      </trkpt>
      <trkpt lat="17.131096560" lon="-96.422474710">
        <ele>2850.800</ele>
        <time>2020-01-20T22:48:05Z</time>
      </trkpt>
      <trkpt lat="17.131133580" lon="-96.422465510">
        <ele>2850.700</ele>
        <time>2020-01-20T22:48:10Z</time>
      </trkpt>
      <trkpt lat="17.131173660" lon="-96.422449820">
        <ele>2850.700</ele>
        <time>2020-01-20T22:48:15Z</time>
      </trkpt>
      <trkpt lat="17.131212680" lon="-96.422431540">
        <ele>2851.400</ele>
        <time>2020-01-20T22:48:20Z</time>
      </trkpt>
      <trkpt lat="17.131243650" lon="-96.422407720">
        <ele>2851.500</ele>
        <time>2020-01-20T22:48:25Z</time>
      </trkpt>
      <trkpt lat="17.131271160" lon="-96.422381620">
        <ele>2851.500</ele>
        <time>2020-01-20T22:48:29Z</time>
      </trkpt>
      <trkpt lat="17.131295830" lon="-96.422350200">
        <ele>2851.700</ele>
        <time>2020-01-20T22:48:34Z</time>
      </trkpt>
      <trkpt lat="17.131329720" lon="-96.422323640">
        <ele>2853.000</ele>
        <time>2020-01-20T22:48:39Z</time>
      </trkpt>
      <trkpt lat="17.131366270" lon="-96.422306030">
        <ele>2853.800</ele>
        <time>2020-01-20T22:48:44Z</time>
      </trkpt>
      <trkpt lat="17.131400320" lon="-96.422279200">
        <ele>2855.600</ele>
        <time>2020-01-20T22:48:49Z</time>
      </trkpt>
      <trkpt lat="17.131435430" lon="-96.422256950">
        <ele>2855.500</ele>
        <time>2020-01-20T22:48:54Z</time>
      </trkpt>
      <trkpt lat="17.131466660" lon="-96.422237460">
        <ele>2855.400</ele>
        <time>2020-01-20T22:49:01Z</time>
      </trkpt>
      <trkpt lat="17.131502740" lon="-96.422215050">
        <ele>2853.900</ele>
        <time>2020-01-20T22:49:32Z</time>
      </trkpt>
      <trkpt lat="17.131477390" lon="-96.422174290">
        <ele>2853.200</ele>
        <time>2020-01-20T22:50:31Z</time>
      </trkpt>
      <trkpt lat="17.131442230" lon="-96.422125890">
        <ele>2852.600</ele>
        <time>2020-01-20T22:50:34Z</time>
      </trkpt>
      <trkpt lat="17.131406740" lon="-96.422091040">
        <ele>2852.200</ele>
        <time>2020-01-20T22:50:36Z</time>
      </trkpt>
      <trkpt lat="17.131376530" lon="-96.422054620">
        <ele>2852.100</ele>
        <time>2020-01-20T22:50:38Z</time>
      </trkpt>
      <trkpt lat="17.131354180" lon="-96.422003340">
        <ele>2856.300</ele>
        <time>2020-01-20T22:50:40Z</time>
      </trkpt>
      <trkpt lat="17.131344230" lon="-96.421948090">
        <ele>2856.400</ele>
        <time>2020-01-20T22:50:43Z</time>
      </trkpt>
      <trkpt lat="17.131362090" lon="-96.421893640">
        <ele>2855.800</ele>
        <time>2020-01-20T22:50:45Z</time>
      </trkpt>
      <trkpt lat="17.131394250" lon="-96.421840320">
        <ele>2855.500</ele>
        <time>2020-01-20T22:50:47Z</time>
      </trkpt>
      <trkpt lat="17.131438360" lon="-96.421788590">
        <ele>2855.300</ele>
        <time>2020-01-20T22:50:49Z</time>
      </trkpt>
      <trkpt lat="17.131491550" lon="-96.421738960">
        <ele>2855.100</ele>
        <time>2020-01-20T22:50:51Z</time>
      </trkpt>
      <trkpt lat="17.131549440" lon="-96.421699820">
        <ele>2854.500</ele>
        <time>2020-01-20T22:50:53Z</time>
      </trkpt>
      <trkpt lat="17.131606530" lon="-96.421666570">
        <ele>2854.100</ele>
        <time>2020-01-20T22:50:55Z</time>
      </trkpt>
      <trkpt lat="17.131665660" lon="-96.421635630">
        <ele>2855.100</ele>
        <time>2020-01-20T22:50:57Z</time>
      </trkpt>
      <trkpt lat="17.131728280" lon="-96.421601750">
        <ele>2855.800</ele>
        <time>2020-01-20T22:50:59Z</time>
      </trkpt>
      <trkpt lat="17.131787120" lon="-96.421571170">
        <ele>2855.700</ele>
        <time>2020-01-20T22:51:01Z</time>
      </trkpt>
      <trkpt lat="17.131843400" lon="-96.421530710">
        <ele>2855.900</ele>
        <time>2020-01-20T22:51:03Z</time>
      </trkpt>
      <trkpt lat="17.131891850" lon="-96.421493230">
        <ele>2855.700</ele>
        <time>2020-01-20T22:51:05Z</time>
      </trkpt>
      <trkpt lat="17.131937980" lon="-96.421460830">
        <ele>2855.900</ele>
        <time>2020-01-20T22:51:07Z</time>
      </trkpt>
      <trkpt lat="17.131986440" lon="-96.421434610">
        <ele>2856.600</ele>
        <time>2020-01-20T22:51:09Z</time>
      </trkpt>
      <trkpt lat="17.132034330" lon="-96.421416820">
        <ele>2856.900</ele>
        <time>2020-01-20T22:51:11Z</time>
      </trkpt>
      <trkpt lat="17.132085230" lon="-96.421397290">
        <ele>2857.600</ele>
        <time>2020-01-20T22:51:13Z</time>
      </trkpt>
      <trkpt lat="17.132129620" lon="-96.421379300">
        <ele>2860.700</ele>
        <time>2020-01-20T22:51:15Z</time>
      </trkpt>
      <trkpt lat="17.132165540" lon="-96.421361720">
        <ele>2861.200</ele>
        <time>2020-01-20T22:51:17Z</time>
      </trkpt>
      <trkpt lat="17.132207960" lon="-96.421341800">
        <ele>2860.200</ele>
        <time>2020-01-20T22:51:20Z</time>
      </trkpt>
      <trkpt lat="17.132247450" lon="-96.421325450">
        <ele>2860.700</ele>
        <time>2020-01-20T22:51:22Z</time>
      </trkpt>
      <trkpt lat="17.132283350" lon="-96.421313080">
        <ele>2860.000</ele>
        <time>2020-01-20T22:51:24Z</time>
      </trkpt>
      <trkpt lat="17.132329160" lon="-96.421297980">
        <ele>2862.000</ele>
        <time>2020-01-20T22:51:26Z</time>
      </trkpt>
      <trkpt lat="17.132387350" lon="-96.421280760">
        <ele>2863.400</ele>
        <time>2020-01-20T22:51:28Z</time>
      </trkpt>
      <trkpt lat="17.132443990" lon="-96.421262740">
        <ele>2863.500</ele>
        <time>2020-01-20T22:51:30Z</time>
      </trkpt>
      <trkpt lat="17.132488000" lon="-96.421246170">
        <ele>2862.200</ele>
        <time>2020-01-20T22:51:32Z</time>
      </trkpt>
      <trkpt lat="17.132532300" lon="-96.421236410">
        <ele>2865.000</ele>
        <time>2020-01-20T22:51:34Z</time>
      </trkpt>
      <trkpt lat="17.132583070" lon="-96.421225320">
        <ele>2866.600</ele>
        <time>2020-01-20T22:51:36Z</time>
      </trkpt>
      <trkpt lat="17.132638770" lon="-96.421214940">
        <ele>2869.400</ele>
        <time>2020-01-20T22:51:38Z</time>
      </trkpt>
      <trkpt lat="17.132699110" lon="-96.421198470">
        <ele>2872.600</ele>
        <time>2020-01-20T22:51:40Z</time>
      </trkpt>
      <trkpt lat="17.132754250" lon="-96.421176320">
        <ele>2876.000</ele>
        <time>2020-01-20T22:51:42Z</time>
      </trkpt>
      <trkpt lat="17.132797350" lon="-96.421146940">
        <ele>2876.000</ele>
        <time>2020-01-20T22:51:44Z</time>
      </trkpt>
      <trkpt lat="17.132844730" lon="-96.421118360">
        <ele>2877.600</ele>
        <time>2020-01-20T22:51:46Z</time>
      </trkpt>
      <trkpt lat="17.132904850" lon="-96.421097350">
        <ele>2879.000</ele>
        <time>2020-01-20T22:51:48Z</time>
      </trkpt>
      <trkpt lat="17.132956680" lon="-96.421096170">
        <ele>2879.800</ele>
        <time>2020-01-20T22:51:50Z</time>
      </trkpt>
      <trkpt lat="17.132999590" lon="-96.421097750">
        <ele>2879.200</ele>
        <time>2020-01-20T22:51:52Z</time>
      </trkpt>
      <trkpt lat="17.133041890" lon="-96.421099140">
        <ele>2880.600</ele>
        <time>2020-01-20T22:51:54Z</time>
      </trkpt>
      <trkpt lat="17.133090790" lon="-96.421095820">
        <ele>2880.200</ele>
        <time>2020-01-20T22:51:56Z</time>
      </trkpt>
      <trkpt lat="17.133132680" lon="-96.421090580">
        <ele>2880.100</ele>
        <time>2020-01-20T22:51:58Z</time>
      </trkpt>
      <trkpt lat="17.133179880" lon="-96.421077540">
        <ele>2880.800</ele>
        <time>2020-01-20T22:52:00Z</time>
      </trkpt>
      <trkpt lat="17.133230290" lon="-96.421044470">
        <ele>2883.100</ele>
        <time>2020-01-20T22:52:02Z</time>
      </trkpt>
      <trkpt lat="17.133276880" lon="-96.421007010">
        <ele>2882.800</ele>
        <time>2020-01-20T22:52:04Z</time>
      </trkpt>
      <trkpt lat="17.133316300" lon="-96.420973350">
        <ele>2884.500</ele>
        <time>2020-01-20T22:52:06Z</time>
      </trkpt>
      <trkpt lat="17.133358560" lon="-96.420949940">
        <ele>2885.900</ele>
        <time>2020-01-20T22:52:08Z</time>
      </trkpt>
      <trkpt lat="17.133393730" lon="-96.420927980">
        <ele>2887.700</ele>
        <time>2020-01-20T22:52:10Z</time>
      </trkpt>
      <trkpt lat="17.133428850" lon="-96.420901660">
        <ele>2890.700</ele>
        <time>2020-01-20T22:52:12Z</time>
      </trkpt>
      <trkpt lat="17.133470860" lon="-96.420867030">
        <ele>2892.000</ele>
        <time>2020-01-20T22:52:14Z</time>
      </trkpt>
      <trkpt lat="17.133512850" lon="-96.420830750">
        <ele>2891.300</ele>
        <time>2020-01-20T22:52:16Z</time>
      </trkpt>
      <trkpt lat="17.133545960" lon="-96.420788040">
        <ele>2889.300</ele>
        <time>2020-01-20T22:52:18Z</time>
      </trkpt>
      <trkpt lat="17.133585390" lon="-96.420770410">
        <ele>2887.600</ele>
        <time>2020-01-20T22:52:20Z</time>
      </trkpt>
      <trkpt lat="17.133630590" lon="-96.420754610">
        <ele>2888.300</ele>
        <time>2020-01-20T22:52:22Z</time>
      </trkpt>
      <trkpt lat="17.133674300" lon="-96.420739340">
        <ele>2890.800</ele>
        <time>2020-01-20T22:52:24Z</time>
      </trkpt>
      <trkpt lat="17.133723610" lon="-96.420716320">
        <ele>2892.300</ele>
        <time>2020-01-20T22:52:26Z</time>
      </trkpt>
      <trkpt lat="17.133764620" lon="-96.420695450">
        <ele>2894.500</ele>
        <time>2020-01-20T22:52:28Z</time>
      </trkpt>
      <trkpt lat="17.133809450" lon="-96.420672460">
        <ele>2894.400</ele>
        <time>2020-01-20T22:52:30Z</time>
      </trkpt>
      <trkpt lat="17.133839460" lon="-96.420629950">
        <ele>2893.800</ele>
        <time>2020-01-20T22:52:32Z</time>
      </trkpt>
      <trkpt lat="17.133874210" lon="-96.420592340">
        <ele>2893.200</ele>
        <time>2020-01-20T22:52:34Z</time>
      </trkpt>
      <trkpt lat="17.133912500" lon="-96.420560120">
        <ele>2895.200</ele>
        <time>2020-01-20T22:52:36Z</time>
      </trkpt>
      <trkpt lat="17.133953000" lon="-96.420528660">
        <ele>2895.500</ele>
        <time>2020-01-20T22:52:38Z</time>
      </trkpt>
      <trkpt lat="17.134002610" lon="-96.420493970">
        <ele>2898.000</ele>
        <time>2020-01-20T22:52:40Z</time>
      </trkpt>
      <trkpt lat="17.134042940" lon="-96.420464430">
        <ele>2897.100</ele>
        <time>2020-01-20T22:52:42Z</time>
      </trkpt>
      <trkpt lat="17.134084940" lon="-96.420432020">
        <ele>2898.100</ele>
        <time>2020-01-20T22:52:45Z</time>
      </trkpt>
      <trkpt lat="17.134113930" lon="-96.420383190">
        <ele>2898.000</ele>
        <time>2020-01-20T22:52:47Z</time>
      </trkpt>
      <trkpt lat="17.134111850" lon="-96.420322120">
        <ele>2897.500</ele>
        <time>2020-01-20T22:52:49Z</time>
      </trkpt>
      <trkpt lat="17.134112590" lon="-96.420261040">
        <ele>2898.500</ele>
        <time>2020-01-20T22:52:51Z</time>
      </trkpt>
      <trkpt lat="17.134114110" lon="-96.420217260">
        <ele>2899.900</ele>
        <time>2020-01-20T22:52:53Z</time>
      </trkpt>
      <trkpt lat="17.134135270" lon="-96.420169350">
        <ele>2902.400</ele>
        <time>2020-01-20T22:52:55Z</time>
      </trkpt>
      <trkpt lat="17.134153480" lon="-96.420120560">
        <ele>2903.800</ele>
        <time>2020-01-20T22:52:57Z</time>
      </trkpt>
      <trkpt lat="17.134174030" lon="-96.420069740">
        <ele>2905.500</ele>
        <time>2020-01-20T22:52:59Z</time>
      </trkpt>
      <trkpt lat="17.134197150" lon="-96.420022650">
        <ele>2906.900</ele>
        <time>2020-01-20T22:53:01Z</time>
      </trkpt>
      <trkpt lat="17.134218000" lon="-96.419985900">
        <ele>2907.500</ele>
        <time>2020-01-20T22:53:03Z</time>
      </trkpt>
      <trkpt lat="17.134254250" lon="-96.419957380">
        <ele>2908.400</ele>
        <time>2020-01-20T22:53:06Z</time>
      </trkpt>
      <trkpt lat="17.134290450" lon="-96.419954040">
        <ele>2911.700</ele>
        <time>2020-01-20T22:53:08Z</time>
      </trkpt>
      <trkpt lat="17.134337770" lon="-96.419957930">
        <ele>2912.700</ele>
        <time>2020-01-20T22:53:11Z</time>
      </trkpt>
      <trkpt lat="17.134387850" lon="-96.419985270">
        <ele>2913.600</ele>
        <time>2020-01-20T22:53:13Z</time>
      </trkpt>
      <trkpt lat="17.134422150" lon="-96.420015600">
        <ele>2916.800</ele>
        <time>2020-01-20T22:53:15Z</time>
      </trkpt>
      <trkpt lat="17.134458730" lon="-96.420049130">
        <ele>2916.500</ele>
        <time>2020-01-20T22:53:17Z</time>
      </trkpt>
      <trkpt lat="17.134492230" lon="-96.420085800">
        <ele>2917.200</ele>
        <time>2020-01-20T22:53:19Z</time>
      </trkpt>
      <trkpt lat="17.134532180" lon="-96.420120560">
        <ele>2917.900</ele>
        <time>2020-01-20T22:53:21Z</time>
      </trkpt>
      <trkpt lat="17.134575610" lon="-96.420145460">
        <ele>2918.900</ele>
        <time>2020-01-20T22:53:23Z</time>
      </trkpt>
      <trkpt lat="17.134616860" lon="-96.420148460">
        <ele>2920.500</ele>
        <time>2020-01-20T22:53:25Z</time>
      </trkpt>
      <trkpt lat="17.134658970" lon="-96.420134920">
        <ele>2923.300</ele>
        <time>2020-01-20T22:53:27Z</time>
      </trkpt>
      <trkpt lat="17.134708020" lon="-96.420114000">
        <ele>2926.300</ele>
        <time>2020-01-20T22:53:29Z</time>
      </trkpt>
      <trkpt lat="17.134746000" lon="-96.420080000">
        <ele>2927.600</ele>
        <time>2020-01-20T22:53:31Z</time>
      </trkpt>
      <trkpt lat="17.134779850" lon="-96.420042210">
        <ele>2929.100</ele>
        <time>2020-01-20T22:53:33Z</time>
      </trkpt>
      <trkpt lat="17.134811990" lon="-96.420005180">
        <ele>2929.000</ele>
        <time>2020-01-20T22:53:35Z</time>
      </trkpt>
      <trkpt lat="17.134839590" lon="-96.419970910">
        <ele>2927.900</ele>
        <time>2020-01-20T22:53:37Z</time>
      </trkpt>
      <trkpt lat="17.134864560" lon="-96.419937380">
        <ele>2928.600</ele>
        <time>2020-01-20T22:53:38Z</time>
      </trkpt>
      <trkpt lat="17.134886950" lon="-96.419906520">
        <ele>2929.100</ele>
        <time>2020-01-20T22:53:39Z</time>
      </trkpt>
      <trkpt lat="17.134923710" lon="-96.419860850">
        <ele>2930.300</ele>
        <time>2020-01-20T22:53:41Z</time>
      </trkpt>
      <trkpt lat="17.134952570" lon="-96.419824290">
        <ele>2931.600</ele>
        <time>2020-01-20T22:53:43Z</time>
      </trkpt>
      <trkpt lat="17.134977530" lon="-96.419782070">
        <ele>2931.000</ele>
        <time>2020-01-20T22:53:45Z</time>
      </trkpt>
      <trkpt lat="17.135016790" lon="-96.419745770">
        <ele>2930.400</ele>
        <time>2020-01-20T22:53:47Z</time>
      </trkpt>
      <trkpt lat="17.135060440" lon="-96.419724260">
        <ele>2930.700</ele>
        <time>2020-01-20T22:53:49Z</time>
      </trkpt>
      <trkpt lat="17.135099120" lon="-96.419707230">
        <ele>2930.700</ele>
        <time>2020-01-20T22:53:51Z</time>
      </trkpt>
      <trkpt lat="17.135147530" lon="-96.419678440">
        <ele>2930.100</ele>
        <time>2020-01-20T22:53:53Z</time>
      </trkpt>
      <trkpt lat="17.135181490" lon="-96.419650860">
        <ele>2931.000</ele>
        <time>2020-01-20T22:53:55Z</time>
      </trkpt>
      <trkpt lat="17.135214110" lon="-96.419627690">
        <ele>2932.200</ele>
        <time>2020-01-20T22:53:57Z</time>
      </trkpt>
      <trkpt lat="17.135246550" lon="-96.419606240">
        <ele>2933.800</ele>
        <time>2020-01-20T22:53:59Z</time>
      </trkpt>
      <trkpt lat="17.135282630" lon="-96.419592600">
        <ele>2934.700</ele>
        <time>2020-01-20T22:54:01Z</time>
      </trkpt>
      <trkpt lat="17.135323690" lon="-96.419579040">
        <ele>2934.800</ele>
        <time>2020-01-20T22:54:03Z</time>
      </trkpt>
      <trkpt lat="17.135372250" lon="-96.419575030">
        <ele>2934.300</ele>
        <time>2020-01-20T22:54:06Z</time>
      </trkpt>
      <trkpt lat="17.135414470" lon="-96.419575320">
        <ele>2931.000</ele>
        <time>2020-01-20T22:54:09Z</time>
      </trkpt>
      <trkpt lat="17.135453530" lon="-96.419566280">
        <ele>2930.500</ele>
        <time>2020-01-20T22:54:11Z</time>
      </trkpt>
      <trkpt lat="17.135499150" lon="-96.419552620">
        <ele>2929.600</ele>
        <time>2020-01-20T22:54:13Z</time>
      </trkpt>
      <trkpt lat="17.135556300" lon="-96.419542910">
        <ele>2931.100</ele>
        <time>2020-01-20T22:54:15Z</time>
      </trkpt>
      <trkpt lat="17.135605780" lon="-96.419536340">
        <ele>2931.900</ele>
        <time>2020-01-20T22:54:17Z</time>
      </trkpt>
      <trkpt lat="17.135656560" lon="-96.419536800">
        <ele>2932.900</ele>
        <time>2020-01-20T22:54:19Z</time>
      </trkpt>
      <trkpt lat="17.135701970" lon="-96.419544430">
        <ele>2934.400</ele>
        <time>2020-01-20T22:54:21Z</time>
      </trkpt>
      <trkpt lat="17.135738610" lon="-96.419551220">
        <ele>2935.200</ele>
        <time>2020-01-20T22:54:23Z</time>
      </trkpt>
      <trkpt lat="17.135792740" lon="-96.419543220">
        <ele>2935.900</ele>
        <time>2020-01-20T22:54:26Z</time>
      </trkpt>
      <trkpt lat="17.135830940" lon="-96.419515980">
        <ele>2937.400</ele>
        <time>2020-01-20T22:54:28Z</time>
      </trkpt>
      <trkpt lat="17.135863950" lon="-96.419484120">
        <ele>2937.300</ele>
        <time>2020-01-20T22:54:30Z</time>
      </trkpt>
      <trkpt lat="17.135901130" lon="-96.419449900">
        <ele>2936.900</ele>
        <time>2020-01-20T22:54:32Z</time>
      </trkpt>
      <trkpt lat="17.135935440" lon="-96.419420850">
        <ele>2937.700</ele>
        <time>2020-01-20T22:54:34Z</time>
      </trkpt>
      <trkpt lat="17.135967870" lon="-96.419387530">
        <ele>2938.000</ele>
        <time>2020-01-20T22:54:36Z</time>
      </trkpt>
      <trkpt lat="17.136002960" lon="-96.419353900">
        <ele>2938.800</ele>
        <time>2020-01-20T22:54:38Z</time>
      </trkpt>
      <trkpt lat="17.136036900" lon="-96.419322720">
        <ele>2939.500</ele>
        <time>2020-01-20T22:54:40Z</time>
      </trkpt>
      <trkpt lat="17.136076390" lon="-96.419289210">
        <ele>2939.900</ele>
        <time>2020-01-20T22:54:42Z</time>
      </trkpt>
      <trkpt lat="17.136117100" lon="-96.419253140">
        <ele>2940.300</ele>
        <time>2020-01-20T22:54:44Z</time>
      </trkpt>
      <trkpt lat="17.136152810" lon="-96.419215990">
        <ele>2941.000</ele>
        <time>2020-01-20T22:54:46Z</time>
      </trkpt>
      <trkpt lat="17.136187160" lon="-96.419181320">
        <ele>2941.700</ele>
        <time>2020-01-20T22:54:48Z</time>
      </trkpt>
      <trkpt lat="17.136215800" lon="-96.419148840">
        <ele>2941.200</ele>
        <time>2020-01-20T22:54:50Z</time>
      </trkpt>
      <trkpt lat="17.136244890" lon="-96.419116280">
        <ele>2942.000</ele>
        <time>2020-01-20T22:54:52Z</time>
      </trkpt>
      <trkpt lat="17.136274490" lon="-96.419078960">
        <ele>2941.100</ele>
        <time>2020-01-20T22:54:54Z</time>
      </trkpt>
      <trkpt lat="17.136305360" lon="-96.419042800">
        <ele>2941.000</ele>
        <time>2020-01-20T22:54:56Z</time>
      </trkpt>
      <trkpt lat="17.136342540" lon="-96.419005370">
        <ele>2943.100</ele>
        <time>2020-01-20T22:54:58Z</time>
      </trkpt>
      <trkpt lat="17.136385790" lon="-96.418977430">
        <ele>2946.400</ele>
        <time>2020-01-20T22:55:00Z</time>
      </trkpt>
      <trkpt lat="17.136440760" lon="-96.418959000">
        <ele>2945.700</ele>
        <time>2020-01-20T22:55:02Z</time>
      </trkpt>
      <trkpt lat="17.136493840" lon="-96.418959360">
        <ele>2948.600</ele>
        <time>2020-01-20T22:55:04Z</time>
      </trkpt>
      <trkpt lat="17.136547430" lon="-96.418969670">
        <ele>2949.600</ele>
        <time>2020-01-20T22:55:06Z</time>
      </trkpt>
      <trkpt lat="17.136590800" lon="-96.418982620">
        <ele>2950.500</ele>
        <time>2020-01-20T22:55:08Z</time>
      </trkpt>
      <trkpt lat="17.136625240" lon="-96.419005090">
        <ele>2949.900</ele>
        <time>2020-01-20T22:55:10Z</time>
      </trkpt>
      <trkpt lat="17.136665320" lon="-96.419023150">
        <ele>2948.500</ele>
        <time>2020-01-20T22:55:12Z</time>
      </trkpt>
      <trkpt lat="17.136711650" lon="-96.419030100">
        <ele>2951.500</ele>
        <time>2020-01-20T22:55:14Z</time>
      </trkpt>
      <trkpt lat="17.136759540" lon="-96.419004440">
        <ele>2955.000</ele>
        <time>2020-01-20T22:55:16Z</time>
      </trkpt>
      <trkpt lat="17.136789670" lon="-96.418971360">
        <ele>2956.100</ele>
        <time>2020-01-20T22:55:18Z</time>
      </trkpt>
      <trkpt lat="17.136803360" lon="-96.418926250">
        <ele>2954.800</ele>
        <time>2020-01-20T22:55:20Z</time>
      </trkpt>
      <trkpt lat="17.136813080" lon="-96.418868470">
        <ele>2956.600</ele>
        <time>2020-01-20T22:55:22Z</time>
      </trkpt>
      <trkpt lat="17.136799880" lon="-96.418797510">
        <ele>2957.600</ele>
        <time>2020-01-20T22:55:24Z</time>
      </trkpt>
      <trkpt lat="17.136791410" lon="-96.418760250">
        <ele>2958.300</ele>
        <time>2020-01-20T22:55:26Z</time>
      </trkpt>
      <trkpt lat="17.136788310" lon="-96.418714740">
        <ele>2958.500</ele>
        <time>2020-01-20T22:55:28Z</time>
      </trkpt>
      <trkpt lat="17.136789420" lon="-96.418655060">
        <ele>2958.800</ele>
        <time>2020-01-20T22:55:30Z</time>
      </trkpt>
      <trkpt lat="17.136794940" lon="-96.418601250">
        <ele>2960.300</ele>
        <time>2020-01-20T22:55:32Z</time>
      </trkpt>
      <trkpt lat="17.136814890" lon="-96.418559890">
        <ele>2959.800</ele>
        <time>2020-01-20T22:55:34Z</time>
      </trkpt>
      <trkpt lat="17.136840650" lon="-96.418532780">
        <ele>2960.900</ele>
        <time>2020-01-20T22:55:36Z</time>
      </trkpt>
      <trkpt lat="17.136876190" lon="-96.418514170">
        <ele>2964.300</ele>
        <time>2020-01-20T22:55:39Z</time>
      </trkpt>
      <trkpt lat="17.136924890" lon="-96.418506220">
        <ele>2965.600</ele>
        <time>2020-01-20T22:55:41Z</time>
      </trkpt>
      <trkpt lat="17.136979570" lon="-96.418508370">
        <ele>2964.700</ele>
        <time>2020-01-20T22:55:43Z</time>
      </trkpt>
      <trkpt lat="17.137034840" lon="-96.418500750">
        <ele>2964.900</ele>
        <time>2020-01-20T22:55:45Z</time>
      </trkpt>
      <trkpt lat="17.137080880" lon="-96.418488840">
        <ele>2965.400</ele>
        <time>2020-01-20T22:55:47Z</time>
      </trkpt>
      <trkpt lat="17.137128770" lon="-96.418467250">
        <ele>2964.000</ele>
        <time>2020-01-20T22:55:49Z</time>
      </trkpt>
      <trkpt lat="17.137162820" lon="-96.418441060">
        <ele>2963.600</ele>
        <time>2020-01-20T22:55:51Z</time>
      </trkpt>
      <trkpt lat="17.137186420" lon="-96.418406650">
        <ele>2962.600</ele>
        <time>2020-01-20T22:55:53Z</time>
      </trkpt>
      <trkpt lat="17.137200730" lon="-96.418370150">
        <ele>2964.300</ele>
        <time>2020-01-20T22:55:55Z</time>
      </trkpt>
      <trkpt lat="17.137215870" lon="-96.418318730">
        <ele>2967.200</ele>
        <time>2020-01-20T22:55:57Z</time>
      </trkpt>
      <trkpt lat="17.137224180" lon="-96.418261030">
        <ele>2968.600</ele>
        <time>2020-01-20T22:55:59Z</time>
      </trkpt>
      <trkpt lat="17.137226680" lon="-96.418206650">
        <ele>2968.800</ele>
        <time>2020-01-20T22:56:01Z</time>
      </trkpt>
      <trkpt lat="17.137224690" lon="-96.418146150">
        <ele>2968.800</ele>
        <time>2020-01-20T22:56:03Z</time>
      </trkpt>
      <trkpt lat="17.137213100" lon="-96.418096910">
        <ele>2968.800</ele>
        <time>2020-01-20T22:56:05Z</time>
      </trkpt>
      <trkpt lat="17.137183420" lon="-96.418052710">
        <ele>2971.500</ele>
        <time>2020-01-20T22:56:07Z</time>
      </trkpt>
      <trkpt lat="17.137141880" lon="-96.418015820">
        <ele>2973.000</ele>
        <time>2020-01-20T22:56:09Z</time>
      </trkpt>
      <trkpt lat="17.137101620" lon="-96.417993110">
        <ele>2971.900</ele>
        <time>2020-01-20T22:56:11Z</time>
      </trkpt>
      <trkpt lat="17.137054710" lon="-96.417968620">
        <ele>2974.300</ele>
        <time>2020-01-20T22:56:13Z</time>
      </trkpt>
      <trkpt lat="17.137005950" lon="-96.417949610">
        <ele>2974.800</ele>
        <time>2020-01-20T22:56:15Z</time>
      </trkpt>
      <trkpt lat="17.136970230" lon="-96.417929610">
        <ele>2975.600</ele>
        <time>2020-01-20T22:56:17Z</time>
      </trkpt>
      <trkpt lat="17.136946710" lon="-96.417881510">
        <ele>2975.100</ele>
        <time>2020-01-20T22:56:20Z</time>
      </trkpt>
      <trkpt lat="17.136949740" lon="-96.417843190">
        <ele>2974.700</ele>
        <time>2020-01-20T22:56:22Z</time>
      </trkpt>
      <trkpt lat="17.136961610" lon="-96.417791770">
        <ele>2974.600</ele>
        <time>2020-01-20T22:56:24Z</time>
      </trkpt>
      <trkpt lat="17.136979650" lon="-96.417735950">
        <ele>2975.600</ele>
        <time>2020-01-20T22:56:26Z</time>
      </trkpt>
      <trkpt lat="17.136997180" lon="-96.417677750">
        <ele>2975.800</ele>
        <time>2020-01-20T22:56:28Z</time>
      </trkpt>
      <trkpt lat="17.137012680" lon="-96.417615390">
        <ele>2976.200</ele>
        <time>2020-01-20T22:56:30Z</time>
      </trkpt>
      <trkpt lat="17.137027160" lon="-96.417559820">
        <ele>2976.400</ele>
        <time>2020-01-20T22:56:32Z</time>
      </trkpt>
      <trkpt lat="17.137036740" lon="-96.417500870">
        <ele>2978.200</ele>
        <time>2020-01-20T22:56:34Z</time>
      </trkpt>
      <trkpt lat="17.137044420" lon="-96.417438490">
        <ele>2980.700</ele>
        <time>2020-01-20T22:56:36Z</time>
      </trkpt>
      <trkpt lat="17.137052830" lon="-96.417381870">
        <ele>2979.100</ele>
        <time>2020-01-20T22:56:38Z</time>
      </trkpt>
      <trkpt lat="17.137056870" lon="-96.417321290">
        <ele>2978.300</ele>
        <time>2020-01-20T22:56:40Z</time>
      </trkpt>
      <trkpt lat="17.137063330" lon="-96.417263150">
        <ele>2977.100</ele>
        <time>2020-01-20T22:56:42Z</time>
      </trkpt>
      <trkpt lat="17.137068210" lon="-96.417202720">
        <ele>2977.000</ele>
        <time>2020-01-20T22:56:44Z</time>
      </trkpt>
      <trkpt lat="17.137072280" lon="-96.417148150">
        <ele>2979.800</ele>
        <time>2020-01-20T22:56:46Z</time>
      </trkpt>
      <trkpt lat="17.137077150" lon="-96.417091120">
        <ele>2980.900</ele>
        <time>2020-01-20T22:56:48Z</time>
      </trkpt>
      <trkpt lat="17.137083500" lon="-96.417026970">
        <ele>2981.000</ele>
        <time>2020-01-20T22:56:50Z</time>
      </trkpt>
      <trkpt lat="17.137081530" lon="-96.416970220">
        <ele>2981.600</ele>
        <time>2020-01-20T22:56:52Z</time>
      </trkpt>
      <trkpt lat="17.137075470" lon="-96.416905980">
        <ele>2983.100</ele>
        <time>2020-01-20T22:56:54Z</time>
      </trkpt>
      <trkpt lat="17.137073580" lon="-96.416847890">
        <ele>2984.500</ele>
        <time>2020-01-20T22:56:56Z</time>
      </trkpt>
      <trkpt lat="17.137088150" lon="-96.416796330">
        <ele>2984.700</ele>
        <time>2020-01-20T22:56:58Z</time>
      </trkpt>
      <trkpt lat="17.137120510" lon="-96.416747870">
        <ele>2983.300</ele>
        <time>2020-01-20T22:57:00Z</time>
      </trkpt>
      <trkpt lat="17.137163740" lon="-96.416714160">
        <ele>2984.100</ele>
        <time>2020-01-20T22:57:02Z</time>
      </trkpt>
      <trkpt lat="17.137212020" lon="-96.416688230">
        <ele>2983.900</ele>
        <time>2020-01-20T22:57:04Z</time>
      </trkpt>
      <trkpt lat="17.137257030" lon="-96.416667550">
        <ele>2984.800</ele>
        <time>2020-01-20T22:57:06Z</time>
      </trkpt>
      <trkpt lat="17.137301360" lon="-96.416669240">
        <ele>2983.900</ele>
        <time>2020-01-20T22:57:08Z</time>
      </trkpt>
      <trkpt lat="17.137339510" lon="-96.416681610">
        <ele>2985.700</ele>
        <time>2020-01-20T22:57:10Z</time>
      </trkpt>
      <trkpt lat="17.137376200" lon="-96.416689160">
        <ele>2986.200</ele>
        <time>2020-01-20T22:57:12Z</time>
      </trkpt>
      <trkpt lat="17.137436290" lon="-96.416692210">
        <ele>2986.900</ele>
        <time>2020-01-20T22:57:14Z</time>
      </trkpt>
      <trkpt lat="17.137493820" lon="-96.416698140">
        <ele>2988.300</ele>
        <time>2020-01-20T22:57:16Z</time>
      </trkpt>
      <trkpt lat="17.137549070" lon="-96.416700140">
        <ele>2987.400</ele>
        <time>2020-01-20T22:57:18Z</time>
      </trkpt>
      <trkpt lat="17.137595100" lon="-96.416698380">
        <ele>2986.800</ele>
        <time>2020-01-20T22:57:20Z</time>
      </trkpt>
      <trkpt lat="17.137645870" lon="-96.416706540">
        <ele>2987.600</ele>
        <time>2020-01-20T22:57:22Z</time>
      </trkpt>
      <trkpt lat="17.137700440" lon="-96.416713890">
        <ele>2988.000</ele>
        <time>2020-01-20T22:57:24Z</time>
      </trkpt>
      <trkpt lat="17.137754920" lon="-96.416721150">
        <ele>2990.200</ele>
        <time>2020-01-20T22:57:26Z</time>
      </trkpt>
      <trkpt lat="17.137808640" lon="-96.416732840">
        <ele>2990.800</ele>
        <time>2020-01-20T22:57:28Z</time>
      </trkpt>
      <trkpt lat="17.137863240" lon="-96.416741360">
        <ele>2991.800</ele>
        <time>2020-01-20T22:57:30Z</time>
      </trkpt>
      <trkpt lat="17.137920180" lon="-96.416732520">
        <ele>2992.400</ele>
        <time>2020-01-20T22:57:32Z</time>
      </trkpt>
      <trkpt lat="17.137971150" lon="-96.416712330">
        <ele>2992.200</ele>
        <time>2020-01-20T22:57:34Z</time>
      </trkpt>
      <trkpt lat="17.138022570" lon="-96.416696620">
        <ele>2991.800</ele>
        <time>2020-01-20T22:57:36Z</time>
      </trkpt>
      <trkpt lat="17.138068880" lon="-96.416686770">
        <ele>2991.800</ele>
        <time>2020-01-20T22:57:38Z</time>
      </trkpt>
      <trkpt lat="17.138111380" lon="-96.416678550">
        <ele>2992.100</ele>
        <time>2020-01-20T22:57:40Z</time>
      </trkpt>
      <trkpt lat="17.138167420" lon="-96.416678250">
        <ele>2992.000</ele>
        <time>2020-01-20T22:57:42Z</time>
      </trkpt>
      <trkpt lat="17.138209700" lon="-96.416680020">
        <ele>2990.200</ele>
        <time>2020-01-20T22:57:44Z</time>
      </trkpt>
      <trkpt lat="17.138254680" lon="-96.416696280">
        <ele>2990.400</ele>
        <time>2020-01-20T22:57:46Z</time>
      </trkpt>
      <trkpt lat="17.138297200" lon="-96.416726700">
        <ele>2990.100</ele>
        <time>2020-01-20T22:57:48Z</time>
      </trkpt>
      <trkpt lat="17.138349200" lon="-96.416762030">
        <ele>2992.400</ele>
        <time>2020-01-20T22:57:50Z</time>
      </trkpt>
      <trkpt lat="17.138398610" lon="-96.416789090">
        <ele>2992.600</ele>
        <time>2020-01-20T22:57:52Z</time>
      </trkpt>
      <trkpt lat="17.138452510" lon="-96.416803220">
        <ele>2992.300</ele>
        <time>2020-01-20T22:57:54Z</time>
      </trkpt>
      <trkpt lat="17.138507680" lon="-96.416803670">
        <ele>2994.100</ele>
        <time>2020-01-20T22:57:56Z</time>
      </trkpt>
      <trkpt lat="17.138557150" lon="-96.416770560">
        <ele>2990.600</ele>
        <time>2020-01-20T22:57:58Z</time>
      </trkpt>
      <trkpt lat="17.138609660" lon="-96.416722370">
        <ele>2991.200</ele>
        <time>2020-01-20T22:58:00Z</time>
      </trkpt>
      <trkpt lat="17.138667430" lon="-96.416688750">
        <ele>2994.400</ele>
        <time>2020-01-20T22:58:02Z</time>
      </trkpt>
      <trkpt lat="17.138725490" lon="-96.416651240">
        <ele>2995.300</ele>
        <time>2020-01-20T22:58:04Z</time>
      </trkpt>
      <trkpt lat="17.138774290" lon="-96.416603030">
        <ele>2995.400</ele>
        <time>2020-01-20T22:58:06Z</time>
      </trkpt>
      <trkpt lat="17.138802970" lon="-96.416550120">
        <ele>2995.300</ele>
        <time>2020-01-20T22:58:08Z</time>
      </trkpt>
      <trkpt lat="17.138816690" lon="-96.416500790">
        <ele>2997.800</ele>
        <time>2020-01-20T22:58:10Z</time>
      </trkpt>
      <trkpt lat="17.138820660" lon="-96.416455650">
        <ele>2998.700</ele>
        <time>2020-01-20T22:58:12Z</time>
      </trkpt>
      <trkpt lat="17.138815690" lon="-96.416402640">
        <ele>2999.300</ele>
        <time>2020-01-20T22:58:14Z</time>
      </trkpt>
      <trkpt lat="17.138806670" lon="-96.416348490">
        <ele>3000.700</ele>
        <time>2020-01-20T22:58:16Z</time>
      </trkpt>
      <trkpt lat="17.138796550" lon="-96.416296670">
        <ele>3002.900</ele>
        <time>2020-01-20T22:58:18Z</time>
      </trkpt>
      <trkpt lat="17.138780140" lon="-96.416242260">
        <ele>3003.900</ele>
        <time>2020-01-20T22:58:20Z</time>
      </trkpt>
      <trkpt lat="17.138764140" lon="-96.416186610">
        <ele>3004.500</ele>
        <time>2020-01-20T22:58:22Z</time>
      </trkpt>
      <trkpt lat="17.138744430" lon="-96.416139090">
        <ele>3004.900</ele>
        <time>2020-01-20T22:58:24Z</time>
      </trkpt>
      <trkpt lat="17.138716520" lon="-96.416081410">
        <ele>3007.100</ele>
        <time>2020-01-20T22:58:26Z</time>
      </trkpt>
      <trkpt lat="17.138680540" lon="-96.416019730">
        <ele>3007.500</ele>
        <time>2020-01-20T22:58:28Z</time>
      </trkpt>
      <trkpt lat="17.138656390" lon="-96.415984060">
        <ele>3010.400</ele>
        <time>2020-01-20T22:58:29Z</time>
      </trkpt>
      <trkpt lat="17.138634350" lon="-96.415950400">
        <ele>3012.200</ele>
        <time>2020-01-20T22:58:30Z</time>
      </trkpt>
      <trkpt lat="17.138592950" lon="-96.415894220">
        <ele>3012.200</ele>
        <time>2020-01-20T22:58:32Z</time>
      </trkpt>
      <trkpt lat="17.138552760" lon="-96.415844020">
        <ele>3009.900</ele>
        <time>2020-01-20T22:58:34Z</time>
      </trkpt>
      <trkpt lat="17.138523850" lon="-96.415812730">
        <ele>3009.800</ele>
        <time>2020-01-20T22:58:35Z</time>
      </trkpt>
      <trkpt lat="17.138492930" lon="-96.415785550">
        <ele>3011.900</ele>
        <time>2020-01-20T22:58:36Z</time>
      </trkpt>
      <trkpt lat="17.138443960" lon="-96.415741930">
        <ele>3013.200</ele>
        <time>2020-01-20T22:58:38Z</time>
      </trkpt>
      <trkpt lat="17.138395980" lon="-96.415706910">
        <ele>3012.800</ele>
        <time>2020-01-20T22:58:40Z</time>
      </trkpt>
      <trkpt lat="17.138346700" lon="-96.415661780">
        <ele>3010.900</ele>
        <time>2020-01-20T22:58:42Z</time>
      </trkpt>
      <trkpt lat="17.138319750" lon="-96.415636140">
        <ele>3011.000</ele>
        <time>2020-01-20T22:58:43Z</time>
      </trkpt>
      <trkpt lat="17.138271120" lon="-96.415592560">
        <ele>3011.000</ele>
        <time>2020-01-20T22:58:45Z</time>
      </trkpt>
      <trkpt lat="17.138220800" lon="-96.415545890">
        <ele>3013.000</ele>
        <time>2020-01-20T22:58:47Z</time>
      </trkpt>
      <trkpt lat="17.138171900" lon="-96.415505240">
        <ele>3015.900</ele>
        <time>2020-01-20T22:58:49Z</time>
      </trkpt>
      <trkpt lat="17.138128430" lon="-96.415458490">
        <ele>3013.600</ele>
        <time>2020-01-20T22:58:51Z</time>
      </trkpt>
      <trkpt lat="17.138093030" lon="-96.415405230">
        <ele>3013.900</ele>
        <time>2020-01-20T22:58:53Z</time>
      </trkpt>
      <trkpt lat="17.138067530" lon="-96.415344130">
        <ele>3013.800</ele>
        <time>2020-01-20T22:58:55Z</time>
      </trkpt>
      <trkpt lat="17.138053190" lon="-96.415305980">
        <ele>3013.900</ele>
        <time>2020-01-20T22:58:56Z</time>
      </trkpt>
      <trkpt lat="17.138030240" lon="-96.415268840">
        <ele>3012.900</ele>
        <time>2020-01-20T22:58:57Z</time>
      </trkpt>
      <trkpt lat="17.138013890" lon="-96.415232170">
        <ele>3013.400</ele>
        <time>2020-01-20T22:58:58Z</time>
      </trkpt>
      <trkpt lat="17.138004300" lon="-96.415194410">
        <ele>3013.700</ele>
        <time>2020-01-20T22:58:59Z</time>
      </trkpt>
      <trkpt lat="17.137987640" lon="-96.415133960">
        <ele>3013.400</ele>
        <time>2020-01-20T22:59:01Z</time>
      </trkpt>
      <trkpt lat="17.137974060" lon="-96.415074310">
        <ele>3015.000</ele>
        <time>2020-01-20T22:59:03Z</time>
      </trkpt>
      <trkpt lat="17.137965290" lon="-96.415032320">
        <ele>3015.700</ele>
        <time>2020-01-20T22:59:04Z</time>
      </trkpt>
      <trkpt lat="17.137960920" lon="-96.414993500">
        <ele>3015.000</ele>
        <time>2020-01-20T22:59:05Z</time>
      </trkpt>
      <trkpt lat="17.137961830" lon="-96.414934670">
        <ele>3014.100</ele>
        <time>2020-01-20T22:59:07Z</time>
      </trkpt>
      <trkpt lat="17.137965360" lon="-96.414872930">
        <ele>3015.400</ele>
        <time>2020-01-20T22:59:09Z</time>
      </trkpt>
      <trkpt lat="17.137970620" lon="-96.414835070">
        <ele>3017.200</ele>
        <time>2020-01-20T22:59:10Z</time>
      </trkpt>
      <trkpt lat="17.137976870" lon="-96.414797490">
        <ele>3018.300</ele>
        <time>2020-01-20T22:59:11Z</time>
      </trkpt>
      <trkpt lat="17.137992750" lon="-96.414729410">
        <ele>3018.200</ele>
        <time>2020-01-20T22:59:13Z</time>
      </trkpt>
      <trkpt lat="17.138012870" lon="-96.414664750">
        <ele>3020.100</ele>
        <time>2020-01-20T22:59:15Z</time>
      </trkpt>
      <trkpt lat="17.138036920" lon="-96.414599210">
        <ele>3019.800</ele>
        <time>2020-01-20T22:59:17Z</time>
      </trkpt>
      <trkpt lat="17.138049010" lon="-96.414562570">
        <ele>3020.800</ele>
        <time>2020-01-20T22:59:18Z</time>
      </trkpt>
      <trkpt lat="17.138077200" lon="-96.414504470">
        <ele>3021.100</ele>
        <time>2020-01-20T22:59:20Z</time>
      </trkpt>
      <trkpt lat="17.138114410" lon="-96.414442300">
        <ele>3021.100</ele>
        <time>2020-01-20T22:59:22Z</time>
      </trkpt>
      <trkpt lat="17.138161340" lon="-96.414389220">
        <ele>3022.100</ele>
        <time>2020-01-20T22:59:24Z</time>
      </trkpt>
      <trkpt lat="17.138212080" lon="-96.414339080">
        <ele>3023.200</ele>
        <time>2020-01-20T22:59:26Z</time>
      </trkpt>
      <trkpt lat="17.138240040" lon="-96.414314570">
        <ele>3023.800</ele>
        <time>2020-01-20T22:59:27Z</time>
      </trkpt>
      <trkpt lat="17.138268320" lon="-96.414289680">
        <ele>3024.300</ele>
        <time>2020-01-20T22:59:28Z</time>
      </trkpt>
      <trkpt lat="17.138296420" lon="-96.414261610">
        <ele>3025.700</ele>
        <time>2020-01-20T22:59:29Z</time>
      </trkpt>
      <trkpt lat="17.138326710" lon="-96.414235310">
        <ele>3027.300</ele>
        <time>2020-01-20T22:59:30Z</time>
      </trkpt>
      <trkpt lat="17.138357790" lon="-96.414213400">
        <ele>3026.900</ele>
        <time>2020-01-20T22:59:31Z</time>
      </trkpt>
      <trkpt lat="17.138391230" lon="-96.414190070">
        <ele>3028.500</ele>
        <time>2020-01-20T22:59:32Z</time>
      </trkpt>
      <trkpt lat="17.138422830" lon="-96.414171620">
        <ele>3027.700</ele>
        <time>2020-01-20T22:59:33Z</time>
      </trkpt>
      <trkpt lat="17.138481040" lon="-96.414134980">
        <ele>3028.400</ele>
        <time>2020-01-20T22:59:35Z</time>
      </trkpt>
      <trkpt lat="17.138533480" lon="-96.414099390">
        <ele>3029.900</ele>
        <time>2020-01-20T22:59:37Z</time>
      </trkpt>
      <trkpt lat="17.138579760" lon="-96.414067350">
        <ele>3031.900</ele>
        <time>2020-01-20T22:59:39Z</time>
      </trkpt>
      <trkpt lat="17.138638360" lon="-96.414040470">
        <ele>3032.400</ele>
        <time>2020-01-20T22:59:41Z</time>
      </trkpt>
      <trkpt lat="17.138671360" lon="-96.414024340">
        <ele>3032.700</ele>
        <time>2020-01-20T22:59:42Z</time>
      </trkpt>
      <trkpt lat="17.138725920" lon="-96.413991310">
        <ele>3033.200</ele>
        <time>2020-01-20T22:59:44Z</time>
      </trkpt>
      <trkpt lat="17.138781770" lon="-96.413964150">
        <ele>3030.300</ele>
        <time>2020-01-20T22:59:46Z</time>
      </trkpt>
      <trkpt lat="17.138835570" lon="-96.413939690">
        <ele>3029.100</ele>
        <time>2020-01-20T22:59:48Z</time>
      </trkpt>
      <trkpt lat="17.138894860" lon="-96.413913960">
        <ele>3030.300</ele>
        <time>2020-01-20T22:59:50Z</time>
      </trkpt>
      <trkpt lat="17.138939760" lon="-96.413894820">
        <ele>3031.600</ele>
        <time>2020-01-20T22:59:52Z</time>
      </trkpt>
      <trkpt lat="17.139006920" lon="-96.413872440">
        <ele>3029.200</ele>
        <time>2020-01-20T22:59:54Z</time>
      </trkpt>
      <trkpt lat="17.139061120" lon="-96.413858680">
        <ele>3028.000</ele>
        <time>2020-01-20T22:59:56Z</time>
      </trkpt>
      <trkpt lat="17.139107850" lon="-96.413839990">
        <ele>3028.700</ele>
        <time>2020-01-20T22:59:58Z</time>
      </trkpt>
      <trkpt lat="17.139153990" lon="-96.413817780">
        <ele>3029.400</ele>
        <time>2020-01-20T23:00:00Z</time>
      </trkpt>
      <trkpt lat="17.139201890" lon="-96.413796070">
        <ele>3029.900</ele>
        <time>2020-01-20T23:00:02Z</time>
      </trkpt>
      <trkpt lat="17.139247950" lon="-96.413772820">
        <ele>3029.600</ele>
        <time>2020-01-20T23:00:04Z</time>
      </trkpt>
      <trkpt lat="17.139292980" lon="-96.413751270">
        <ele>3031.900</ele>
        <time>2020-01-20T23:00:06Z</time>
      </trkpt>
      <trkpt lat="17.139342630" lon="-96.413721970">
        <ele>3035.900</ele>
        <time>2020-01-20T23:00:08Z</time>
      </trkpt>
      <trkpt lat="17.139388570" lon="-96.413685650">
        <ele>3034.500</ele>
        <time>2020-01-20T23:00:10Z</time>
      </trkpt>
      <trkpt lat="17.139430200" lon="-96.413647350">
        <ele>3033.500</ele>
        <time>2020-01-20T23:00:12Z</time>
      </trkpt>
      <trkpt lat="17.139487950" lon="-96.413609540">
        <ele>3033.100</ele>
        <time>2020-01-20T23:00:14Z</time>
      </trkpt>
      <trkpt lat="17.139553440" lon="-96.413584170">
        <ele>3033.200</ele>
        <time>2020-01-20T23:00:16Z</time>
      </trkpt>
      <trkpt lat="17.139617470" lon="-96.413572740">
        <ele>3035.500</ele>
        <time>2020-01-20T23:00:18Z</time>
      </trkpt>
      <trkpt lat="17.139685000" lon="-96.413566910">
        <ele>3038.500</ele>
        <time>2020-01-20T23:00:20Z</time>
      </trkpt>
      <trkpt lat="17.139738660" lon="-96.413549710">
        <ele>3037.100</ele>
        <time>2020-01-20T23:00:22Z</time>
      </trkpt>
      <trkpt lat="17.139799490" lon="-96.413512910">
        <ele>3037.500</ele>
        <time>2020-01-20T23:00:24Z</time>
      </trkpt>
      <trkpt lat="17.139856010" lon="-96.413497320">
        <ele>3041.500</ele>
        <time>2020-01-20T23:00:26Z</time>
      </trkpt>
      <trkpt lat="17.139900980" lon="-96.413470320">
        <ele>3042.400</ele>
        <time>2020-01-20T23:00:28Z</time>
      </trkpt>
      <trkpt lat="17.139937460" lon="-96.413435010">
        <ele>3041.700</ele>
        <time>2020-01-20T23:00:31Z</time>
      </trkpt>
      <trkpt lat="17.139966800" lon="-96.413393530">
        <ele>3041.500</ele>
        <time>2020-01-20T23:00:34Z</time>
      </trkpt>
      <trkpt lat="17.139985640" lon="-96.413349060">
        <ele>3040.400</ele>
        <time>2020-01-20T23:00:37Z</time>
      </trkpt>
      <trkpt lat="17.140007850" lon="-96.413309750">
        <ele>3040.900</ele>
        <time>2020-01-20T23:00:39Z</time>
      </trkpt>
      <trkpt lat="17.140029710" lon="-96.413266690">
        <ele>3041.500</ele>
        <time>2020-01-20T23:00:41Z</time>
      </trkpt>
      <trkpt lat="17.140055530" lon="-96.413224400">
        <ele>3042.000</ele>
        <time>2020-01-20T23:00:43Z</time>
      </trkpt>
      <trkpt lat="17.140081340" lon="-96.413195230">
        <ele>3042.800</ele>
        <time>2020-01-20T23:00:45Z</time>
      </trkpt>
      <trkpt lat="17.140109260" lon="-96.413165090">
        <ele>3042.400</ele>
        <time>2020-01-20T23:00:47Z</time>
      </trkpt>
      <trkpt lat="17.140145430" lon="-96.413137340">
        <ele>3041.500</ele>
        <time>2020-01-20T23:00:49Z</time>
      </trkpt>
      <trkpt lat="17.140190600" lon="-96.413112170">
        <ele>3043.000</ele>
        <time>2020-01-20T23:00:51Z</time>
      </trkpt>
      <trkpt lat="17.140239750" lon="-96.413083070">
        <ele>3043.200</ele>
        <time>2020-01-20T23:00:53Z</time>
      </trkpt>
      <trkpt lat="17.140286610" lon="-96.413049300">
        <ele>3042.900</ele>
        <time>2020-01-20T23:00:55Z</time>
      </trkpt>
      <trkpt lat="17.140333090" lon="-96.413015440">
        <ele>3042.900</ele>
        <time>2020-01-20T23:00:57Z</time>
      </trkpt>
      <trkpt lat="17.140382750" lon="-96.412986130">
        <ele>3042.500</ele>
        <time>2020-01-20T23:00:59Z</time>
      </trkpt>
      <trkpt lat="17.140436520" lon="-96.412965850">
        <ele>3042.900</ele>
        <time>2020-01-20T23:01:01Z</time>
      </trkpt>
      <trkpt lat="17.140495890" lon="-96.412950440">
        <ele>3044.300</ele>
        <time>2020-01-20T23:01:03Z</time>
      </trkpt>
      <trkpt lat="17.140553450" lon="-96.412939490">
        <ele>3042.800</ele>
        <time>2020-01-20T23:01:05Z</time>
      </trkpt>
      <trkpt lat="17.140601310" lon="-96.412942510">
        <ele>3041.600</ele>
        <time>2020-01-20T23:01:08Z</time>
      </trkpt>
      <trkpt lat="17.140662570" lon="-96.412945300">
        <ele>3042.000</ele>
        <time>2020-01-20T23:01:10Z</time>
      </trkpt>
      <trkpt lat="17.140728160" lon="-96.412941680">
        <ele>3043.300</ele>
        <time>2020-01-20T23:01:12Z</time>
      </trkpt>
      <trkpt lat="17.140795300" lon="-96.412939910">
        <ele>3044.300</ele>
        <time>2020-01-20T23:01:14Z</time>
      </trkpt>
      <trkpt lat="17.140834760" lon="-96.412936390">
        <ele>3043.300</ele>
        <time>2020-01-20T23:01:15Z</time>
      </trkpt>
      <trkpt lat="17.140873640" lon="-96.412933500">
        <ele>3042.900</ele>
        <time>2020-01-20T23:01:16Z</time>
      </trkpt>
      <trkpt lat="17.140937880" lon="-96.412927360">
        <ele>3041.500</ele>
        <time>2020-01-20T23:01:18Z</time>
      </trkpt>
      <trkpt lat="17.140996720" lon="-96.412913240">
        <ele>3040.100</ele>
        <time>2020-01-20T23:01:20Z</time>
      </trkpt>
      <trkpt lat="17.141046480" lon="-96.412892470">
        <ele>3038.800</ele>
        <time>2020-01-20T23:01:22Z</time>
      </trkpt>
      <trkpt lat="17.141094910" lon="-96.412877560">
        <ele>3037.600</ele>
        <time>2020-01-20T23:01:24Z</time>
      </trkpt>
      <trkpt lat="17.141134180" lon="-96.412866070">
        <ele>3036.600</ele>
        <time>2020-01-20T23:01:26Z</time>
      </trkpt>
      <trkpt lat="17.141172100" lon="-96.412847170">
        <ele>3035.600</ele>
        <time>2020-01-20T23:01:28Z</time>
      </trkpt>
      <trkpt lat="17.141215350" lon="-96.412810170">
        <ele>3033.100</ele>
        <time>2020-01-20T23:01:30Z</time>
      </trkpt>
      <trkpt lat="17.141251610" lon="-96.412759230">
        <ele>3031.900</ele>
        <time>2020-01-20T23:01:32Z</time>
      </trkpt>
      <trkpt lat="17.141283400" lon="-96.412714430">
        <ele>3030.700</ele>
        <time>2020-01-20T23:01:34Z</time>
      </trkpt>
      <trkpt lat="17.141312230" lon="-96.412675920">
        <ele>3031.300</ele>
        <time>2020-01-20T23:01:36Z</time>
      </trkpt>
      <trkpt lat="17.141330550" lon="-96.412633070">
        <ele>3032.200</ele>
        <time>2020-01-20T23:01:39Z</time>
      </trkpt>
      <trkpt lat="17.141324170" lon="-96.412593560">
        <ele>3031.700</ele>
        <time>2020-01-20T23:01:58Z</time>
      </trkpt>
      <trkpt lat="17.141292890" lon="-96.412574670">
        <ele>3029.000</ele>
        <time>2020-01-20T23:02:31Z</time>
      </trkpt>
      <trkpt lat="17.141323090" lon="-96.412531220">
        <ele>3028.600</ele>
        <time>2020-01-20T23:02:35Z</time>
      </trkpt>
      <trkpt lat="17.141361950" lon="-96.412496820">
        <ele>3029.000</ele>
        <time>2020-01-20T23:02:37Z</time>
      </trkpt>
      <trkpt lat="17.141401650" lon="-96.412470390">
        <ele>3028.600</ele>
        <time>2020-01-20T23:02:39Z</time>
      </trkpt>
      <trkpt lat="17.141438290" lon="-96.412477980">
        <ele>3028.100</ele>
        <time>2020-01-20T23:03:10Z</time>
      </trkpt>
      <trkpt lat="17.141466200" lon="-96.412447500">
        <ele>3028.500</ele>
        <time>2020-01-20T23:03:24Z</time>
      </trkpt>
      <trkpt lat="17.141500510" lon="-96.412415330">
        <ele>3029.100</ele>
        <time>2020-01-20T23:03:26Z</time>
      </trkpt>
      <trkpt lat="17.141526020" lon="-96.412386570">
        <ele>3029.500</ele>
        <time>2020-01-20T23:03:28Z</time>
      </trkpt>
      <trkpt lat="17.141552430" lon="-96.412352770">
        <ele>3029.200</ele>
        <time>2020-01-20T23:03:30Z</time>
      </trkpt>
      <trkpt lat="17.141584760" lon="-96.412313630">
        <ele>3029.600</ele>
        <time>2020-01-20T23:03:32Z</time>
      </trkpt>
      <trkpt lat="17.141618580" lon="-96.412264320">
        <ele>3030.000</ele>
        <time>2020-01-20T23:03:34Z</time>
      </trkpt>
      <trkpt lat="17.141654540" lon="-96.412201260">
        <ele>3030.000</ele>
        <time>2020-01-20T23:03:36Z</time>
      </trkpt>
      <trkpt lat="17.141673740" lon="-96.412166620">
        <ele>3029.900</ele>
        <time>2020-01-20T23:03:37Z</time>
      </trkpt>
      <trkpt lat="17.141691530" lon="-96.412131590">
        <ele>3030.400</ele>
        <time>2020-01-20T23:03:38Z</time>
      </trkpt>
      <trkpt lat="17.141709750" lon="-96.412097850">
        <ele>3030.700</ele>
        <time>2020-01-20T23:03:39Z</time>
      </trkpt>
      <trkpt lat="17.141727170" lon="-96.412063240">
        <ele>3031.300</ele>
        <time>2020-01-20T23:03:40Z</time>
      </trkpt>
      <trkpt lat="17.141746190" lon="-96.412030920">
        <ele>3031.900</ele>
        <time>2020-01-20T23:03:41Z</time>
      </trkpt>
      <trkpt lat="17.141779990" lon="-96.411966060">
        <ele>3031.800</ele>
        <time>2020-01-20T23:03:43Z</time>
      </trkpt>
      <trkpt lat="17.141792050" lon="-96.411929700">
        <ele>3031.700</ele>
        <time>2020-01-20T23:03:44Z</time>
      </trkpt>
      <trkpt lat="17.141813540" lon="-96.411871910">
        <ele>3032.500</ele>
        <time>2020-01-20T23:03:46Z</time>
      </trkpt>
      <trkpt lat="17.141827560" lon="-96.411827730">
        <ele>3032.500</ele>
        <time>2020-01-20T23:03:48Z</time>
      </trkpt>
      <trkpt lat="17.141848100" lon="-96.411784850">
        <ele>3030.800</ele>
        <time>2020-01-20T23:03:50Z</time>
      </trkpt>
      <trkpt lat="17.141884380" lon="-96.411730760">
        <ele>3030.900</ele>
        <time>2020-01-20T23:03:52Z</time>
      </trkpt>
      <trkpt lat="17.141923640" lon="-96.411671330">
        <ele>3031.800</ele>
        <time>2020-01-20T23:03:54Z</time>
      </trkpt>
      <trkpt lat="17.141969840" lon="-96.411616310">
        <ele>3034.100</ele>
        <time>2020-01-20T23:03:56Z</time>
      </trkpt>
      <trkpt lat="17.142016050" lon="-96.411564030">
        <ele>3036.100</ele>
        <time>2020-01-20T23:03:58Z</time>
      </trkpt>
      <trkpt lat="17.142057060" lon="-96.411514000">
        <ele>3037.000</ele>
        <time>2020-01-20T23:04:00Z</time>
      </trkpt>
      <trkpt lat="17.142081290" lon="-96.411454760">
        <ele>3038.700</ele>
        <time>2020-01-20T23:04:02Z</time>
      </trkpt>
      <trkpt lat="17.142087290" lon="-96.411389570">
        <ele>3040.900</ele>
        <time>2020-01-20T23:04:04Z</time>
      </trkpt>
      <trkpt lat="17.142074320" lon="-96.411321830">
        <ele>3041.000</ele>
        <time>2020-01-20T23:04:06Z</time>
      </trkpt>
      <trkpt lat="17.142051370" lon="-96.411261600">
        <ele>3043.300</ele>
        <time>2020-01-20T23:04:08Z</time>
      </trkpt>
      <trkpt lat="17.142021380" lon="-96.411207160">
        <ele>3043.200</ele>
        <time>2020-01-20T23:04:10Z</time>
      </trkpt>
      <trkpt lat="17.141996250" lon="-96.411157170">
        <ele>3045.000</ele>
        <time>2020-01-20T23:04:12Z</time>
      </trkpt>
      <trkpt lat="17.141969980" lon="-96.411114440">
        <ele>3046.200</ele>
        <time>2020-01-20T23:04:14Z</time>
      </trkpt>
      <trkpt lat="17.141944120" lon="-96.411067030">
        <ele>3048.400</ele>
        <time>2020-01-20T23:04:17Z</time>
      </trkpt>
      <trkpt lat="17.141942330" lon="-96.411008650">
        <ele>3051.100</ele>
        <time>2020-01-20T23:04:20Z</time>
      </trkpt>
      <trkpt lat="17.141972510" lon="-96.410978500">
        <ele>3051.600</ele>
        <time>2020-01-20T23:04:22Z</time>
      </trkpt>
      <trkpt lat="17.142022170" lon="-96.410974360">
        <ele>3053.300</ele>
        <time>2020-01-20T23:04:24Z</time>
      </trkpt>
      <trkpt lat="17.142084350" lon="-96.410999660">
        <ele>3055.600</ele>
        <time>2020-01-20T23:04:26Z</time>
      </trkpt>
      <trkpt lat="17.142120630" lon="-96.411019250">
        <ele>3056.400</ele>
        <time>2020-01-20T23:04:27Z</time>
      </trkpt>
      <trkpt lat="17.142181010" lon="-96.411033500">
        <ele>3057.800</ele>
        <time>2020-01-20T23:04:29Z</time>
      </trkpt>
      <trkpt lat="17.142231860" lon="-96.411026710">
        <ele>3059.700</ele>
        <time>2020-01-20T23:04:31Z</time>
      </trkpt>
      <trkpt lat="17.142278680" lon="-96.411006590">
        <ele>3061.100</ele>
        <time>2020-01-20T23:04:33Z</time>
      </trkpt>
      <trkpt lat="17.142333090" lon="-96.410981190">
        <ele>3061.700</ele>
        <time>2020-01-20T23:04:35Z</time>
      </trkpt>
      <trkpt lat="17.142387970" lon="-96.410953870">
        <ele>3062.700</ele>
        <time>2020-01-20T23:04:37Z</time>
      </trkpt>
      <trkpt lat="17.142444940" lon="-96.410919640">
        <ele>3062.400</ele>
        <time>2020-01-20T23:04:39Z</time>
      </trkpt>
      <trkpt lat="17.142500070" lon="-96.410882230">
        <ele>3063.300</ele>
        <time>2020-01-20T23:04:41Z</time>
      </trkpt>
      <trkpt lat="17.142557650" lon="-96.410839910">
        <ele>3063.000</ele>
        <time>2020-01-20T23:04:43Z</time>
      </trkpt>
      <trkpt lat="17.142614130" lon="-96.410802480">
        <ele>3063.200</ele>
        <time>2020-01-20T23:04:45Z</time>
      </trkpt>
      <trkpt lat="17.142668920" lon="-96.410768440">
        <ele>3063.100</ele>
        <time>2020-01-20T23:04:47Z</time>
      </trkpt>
      <trkpt lat="17.142720430" lon="-96.410737710">
        <ele>3062.900</ele>
        <time>2020-01-20T23:04:49Z</time>
      </trkpt>
      <trkpt lat="17.142775310" lon="-96.410707000">
        <ele>3062.300</ele>
        <time>2020-01-20T23:04:51Z</time>
      </trkpt>
      <trkpt lat="17.142836370" lon="-96.410672290">
        <ele>3062.300</ele>
        <time>2020-01-20T23:04:53Z</time>
      </trkpt>
      <trkpt lat="17.142896300" lon="-96.410642770">
        <ele>3062.000</ele>
        <time>2020-01-20T23:04:55Z</time>
      </trkpt>
      <trkpt lat="17.142956720" lon="-96.410620140">
        <ele>3062.000</ele>
        <time>2020-01-20T23:04:57Z</time>
      </trkpt>
      <trkpt lat="17.143011330" lon="-96.410597220">
        <ele>3062.400</ele>
        <time>2020-01-20T23:04:59Z</time>
      </trkpt>
      <trkpt lat="17.143065730" lon="-96.410566990">
        <ele>3061.600</ele>
        <time>2020-01-20T23:05:01Z</time>
      </trkpt>
      <trkpt lat="17.143124650" lon="-96.410534620">
        <ele>3061.000</ele>
        <time>2020-01-20T23:05:03Z</time>
      </trkpt>
      <trkpt lat="17.143157070" lon="-96.410517230">
        <ele>3060.900</ele>
        <time>2020-01-20T23:05:04Z</time>
      </trkpt>
      <trkpt lat="17.143191550" lon="-96.410498840">
        <ele>3060.800</ele>
        <time>2020-01-20T23:05:05Z</time>
      </trkpt>
      <trkpt lat="17.143226750" lon="-96.410478960">
        <ele>3060.600</ele>
        <time>2020-01-20T23:05:06Z</time>
      </trkpt>
      <trkpt lat="17.143261840" lon="-96.410458470">
        <ele>3060.900</ele>
        <time>2020-01-20T23:05:07Z</time>
      </trkpt>
      <trkpt lat="17.143297780" lon="-96.410437770">
        <ele>3060.900</ele>
        <time>2020-01-20T23:05:08Z</time>
      </trkpt>
      <trkpt lat="17.143333120" lon="-96.410418650">
        <ele>3061.000</ele>
        <time>2020-01-20T23:05:09Z</time>
      </trkpt>
      <trkpt lat="17.143367200" lon="-96.410399100">
        <ele>3061.100</ele>
        <time>2020-01-20T23:05:10Z</time>
      </trkpt>
      <trkpt lat="17.143401770" lon="-96.410378220">
        <ele>3060.800</ele>
        <time>2020-01-20T23:05:11Z</time>
      </trkpt>
      <trkpt lat="17.143435540" lon="-96.410356440">
        <ele>3061.100</ele>
        <time>2020-01-20T23:05:12Z</time>
      </trkpt>
      <trkpt lat="17.143469330" lon="-96.410335790">
        <ele>3061.000</ele>
        <time>2020-01-20T23:05:13Z</time>
      </trkpt>
      <trkpt lat="17.143503290" lon="-96.410315540">
        <ele>3061.000</ele>
        <time>2020-01-20T23:05:14Z</time>
      </trkpt>
      <trkpt lat="17.143536900" lon="-96.410294820">
        <ele>3060.800</ele>
        <time>2020-01-20T23:05:15Z</time>
      </trkpt>
      <trkpt lat="17.143569640" lon="-96.410271760">
        <ele>3061.000</ele>
        <time>2020-01-20T23:05:16Z</time>
      </trkpt>
      <trkpt lat="17.143601710" lon="-96.410248660">
        <ele>3061.300</ele>
        <time>2020-01-20T23:05:17Z</time>
      </trkpt>
      <trkpt lat="17.143634560" lon="-96.410225890">
        <ele>3061.400</ele>
        <time>2020-01-20T23:05:18Z</time>
      </trkpt>
      <trkpt lat="17.143667890" lon="-96.410203820">
        <ele>3061.200</ele>
        <time>2020-01-20T23:05:19Z</time>
      </trkpt>
      <trkpt lat="17.143702090" lon="-96.410181780">
        <ele>3061.300</ele>
        <time>2020-01-20T23:05:20Z</time>
      </trkpt>
      <trkpt lat="17.143735460" lon="-96.410161010">
        <ele>3061.200</ele>
        <time>2020-01-20T23:05:21Z</time>
      </trkpt>
      <trkpt lat="17.143768580" lon="-96.410140080">
        <ele>3061.100</ele>
        <time>2020-01-20T23:05:22Z</time>
      </trkpt>
      <trkpt lat="17.143801740" lon="-96.410119390">
        <ele>3061.100</ele>
        <time>2020-01-20T23:05:23Z</time>
      </trkpt>
      <trkpt lat="17.143835720" lon="-96.410097940">
        <ele>3061.300</ele>
        <time>2020-01-20T23:05:24Z</time>
      </trkpt>
      <trkpt lat="17.143870660" lon="-96.410075920">
        <ele>3061.300</ele>
        <time>2020-01-20T23:05:25Z</time>
      </trkpt>
      <trkpt lat="17.143902110" lon="-96.410048430">
        <ele>3061.400</ele>
        <time>2020-01-20T23:05:26Z</time>
      </trkpt>
      <trkpt lat="17.143935290" lon="-96.410024860">
        <ele>3061.100</ele>
        <time>2020-01-20T23:05:27Z</time>
      </trkpt>
      <trkpt lat="17.143967790" lon="-96.410002230">
        <ele>3061.100</ele>
        <time>2020-01-20T23:05:28Z</time>
      </trkpt>
      <trkpt lat="17.143998410" lon="-96.409977850">
        <ele>3061.000</ele>
        <time>2020-01-20T23:05:29Z</time>
      </trkpt>
      <trkpt lat="17.144027540" lon="-96.409953860">
        <ele>3060.900</ele>
        <time>2020-01-20T23:05:30Z</time>
      </trkpt>
      <trkpt lat="17.144056290" lon="-96.409930490">
        <ele>3061.300</ele>
        <time>2020-01-20T23:05:31Z</time>
      </trkpt>
      <trkpt lat="17.144085100" lon="-96.409905980">
        <ele>3061.800</ele>
        <time>2020-01-20T23:05:32Z</time>
      </trkpt>
      <trkpt lat="17.144137690" lon="-96.409862920">
        <ele>3061.600</ele>
        <time>2020-01-20T23:05:34Z</time>
      </trkpt>
      <trkpt lat="17.144191870" lon="-96.409821500">
        <ele>3061.700</ele>
        <time>2020-01-20T23:05:36Z</time>
      </trkpt>
      <trkpt lat="17.144246660" lon="-96.409782440">
        <ele>3061.900</ele>
        <time>2020-01-20T23:05:38Z</time>
      </trkpt>
      <trkpt lat="17.144298170" lon="-96.409740900">
        <ele>3062.100</ele>
        <time>2020-01-20T23:05:40Z</time>
      </trkpt>
      <trkpt lat="17.144342120" lon="-96.409698980">
        <ele>3061.900</ele>
        <time>2020-01-20T23:05:42Z</time>
      </trkpt>
      <trkpt lat="17.144390550" lon="-96.409662230">
        <ele>3062.100</ele>
        <time>2020-01-20T23:05:44Z</time>
      </trkpt>
      <trkpt lat="17.144451450" lon="-96.409633530">
        <ele>3063.100</ele>
        <time>2020-01-20T23:05:46Z</time>
      </trkpt>
      <trkpt lat="17.144517030" lon="-96.409612590">
        <ele>3062.900</ele>
        <time>2020-01-20T23:05:48Z</time>
      </trkpt>
      <trkpt lat="17.144552540" lon="-96.409605520">
        <ele>3062.800</ele>
        <time>2020-01-20T23:05:49Z</time>
      </trkpt>
      <trkpt lat="17.144589320" lon="-96.409598640">
        <ele>3062.800</ele>
        <time>2020-01-20T23:05:50Z</time>
      </trkpt>
      <trkpt lat="17.144655700" lon="-96.409585500">
        <ele>3062.700</ele>
        <time>2020-01-20T23:05:52Z</time>
      </trkpt>
      <trkpt lat="17.144717690" lon="-96.409575190">
        <ele>3063.000</ele>
        <time>2020-01-20T23:05:54Z</time>
      </trkpt>
      <trkpt lat="17.144773280" lon="-96.409564410">
        <ele>3062.800</ele>
        <time>2020-01-20T23:05:56Z</time>
      </trkpt>
      <trkpt lat="17.144819610" lon="-96.409556690">
        <ele>3061.900</ele>
        <time>2020-01-20T23:05:58Z</time>
      </trkpt>
      <trkpt lat="17.144859820" lon="-96.409552430">
        <ele>3062.200</ele>
        <time>2020-01-20T23:06:00Z</time>
      </trkpt>
      <trkpt lat="17.144896440" lon="-96.409561650">
        <ele>3062.700</ele>
        <time>2020-01-20T23:06:02Z</time>
      </trkpt>
      <trkpt lat="17.144902330" lon="-96.409616050">
        <ele>3062.900</ele>
        <time>2020-01-20T23:06:04Z</time>
      </trkpt>
      <trkpt lat="17.144889360" lon="-96.409670750">
        <ele>3062.400</ele>
        <time>2020-01-20T23:06:06Z</time>
      </trkpt>
      <trkpt lat="17.144871620" lon="-96.409717690">
        <ele>3062.000</ele>
        <time>2020-01-20T23:06:08Z</time>
      </trkpt>
      <trkpt lat="17.144871770" lon="-96.409764600">
        <ele>3061.900</ele>
        <time>2020-01-20T23:06:11Z</time>
      </trkpt>
      <trkpt lat="17.144889310" lon="-96.409805020">
        <ele>3061.500</ele>
        <time>2020-01-20T23:06:14Z</time>
      </trkpt>
      <trkpt lat="17.144922210" lon="-96.409784300">
        <ele>3059.900</ele>
        <time>2020-01-20T23:06:47Z</time>
      </trkpt>
      <trkpt lat="17.144908640" lon="-96.409819530">
        <ele>3060.800</ele>
        <time>2020-01-20T23:07:34Z</time>
      </trkpt>
      <trkpt lat="17.144931080" lon="-96.409786890">
        <ele>3060.000</ele>
        <time>2020-01-20T23:07:53Z</time>
      </trkpt>
      <trkpt lat="17.144925510" lon="-96.409748750">
        <ele>3061.800</ele>
        <time>2020-01-20T23:08:04Z</time>
      </trkpt>
      <trkpt lat="17.144894070" lon="-96.409775890">
        <ele>3059.400</ele>
        <time>2020-01-20T23:08:46Z</time>
      </trkpt>
      <trkpt lat="17.144932630" lon="-96.409780840">
        <ele>3058.400</ele>
        <time>2020-01-20T23:09:30Z</time>
      </trkpt>
      <trkpt lat="17.144909200" lon="-96.409814160">
        <ele>3058.600</ele>
        <time>2020-01-20T23:11:01Z</time>
      </trkpt>
      <trkpt lat="17.144913930" lon="-96.409852580">
        <ele>3059.600</ele>
        <time>2020-01-20T23:11:08Z</time>
      </trkpt>
      <trkpt lat="17.144956920" lon="-96.409863870">
        <ele>3059.300</ele>
        <time>2020-01-20T23:11:13Z</time>
      </trkpt>
      <trkpt lat="17.144920180" lon="-96.409866500">
        <ele>3059.400</ele>
        <time>2020-01-20T23:11:25Z</time>
      </trkpt>
      <trkpt lat="17.144888530" lon="-96.409885360">
        <ele>3058.600</ele>
        <time>2020-01-20T23:11:30Z</time>
      </trkpt>
      <trkpt lat="17.144871740" lon="-96.409922220">
        <ele>3058.300</ele>
        <time>2020-01-20T23:11:39Z</time>
      </trkpt>
      <trkpt lat="17.144901250" lon="-96.409951760">
        <ele>3058.900</ele>
        <time>2020-01-20T23:11:47Z</time>
      </trkpt>
      <trkpt lat="17.144942310" lon="-96.409955090">
        <ele>3059.500</ele>
        <time>2020-01-20T23:11:53Z</time>
      </trkpt>
      <trkpt lat="17.144975800" lon="-96.409975140">
        <ele>3060.000</ele>
        <time>2020-01-20T23:12:00Z</time>
      </trkpt>
      <trkpt lat="17.144948480" lon="-96.410018070">
        <ele>3058.900</ele>
        <time>2020-01-20T23:12:14Z</time>
      </trkpt>
      <trkpt lat="17.144986760" lon="-96.410013880">
        <ele>3056.800</ele>
        <time>2020-01-20T23:12:22Z</time>
      </trkpt>
      <trkpt lat="17.145022720" lon="-96.410009200">
        <ele>3053.600</ele>
        <time>2020-01-20T23:17:24Z</time>
      </trkpt>
      <trkpt lat="17.145058620" lon="-96.410013720">
        <ele>3050.100</ele>
        <time>2020-01-20T23:36:11Z</time>
      </trkpt>
      <trkpt lat="17.145051710" lon="-96.409970410">
        <ele>3052.400</ele>
        <time>2020-01-20T23:37:38Z</time>
      </trkpt>
      <trkpt lat="17.145013640" lon="-96.409957780">
        <ele>3051.300</ele>
        <time>2020-01-20T23:37:43Z</time>
      </trkpt>
      <trkpt lat="17.144971250" lon="-96.409950750">
        <ele>3052.700</ele>
        <time>2020-01-20T23:37:51Z</time>
      </trkpt>
      <trkpt lat="17.144943740" lon="-96.409924310">
        <ele>3054.700</ele>
        <time>2020-01-20T23:37:55Z</time>
      </trkpt>
      <trkpt lat="17.144946990" lon="-96.409879210">
        <ele>3056.200</ele>
        <time>2020-01-20T23:38:01Z</time>
      </trkpt>
      <trkpt lat="17.144964040" lon="-96.409845060">
        <ele>3056.300</ele>
        <time>2020-01-20T23:38:06Z</time>
      </trkpt>
      <trkpt lat="17.144951460" lon="-96.409803980">
        <ele>3056.600</ele>
        <time>2020-01-20T23:38:11Z</time>
      </trkpt>
      <trkpt lat="17.144947030" lon="-96.409842980">
        <ele>3058.400</ele>
        <time>2020-01-20T23:38:42Z</time>
      </trkpt>
      <trkpt lat="17.144989720" lon="-96.409876940">
        <ele>3059.100</ele>
        <time>2020-01-20T23:38:45Z</time>
      </trkpt>
      <trkpt lat="17.145025230" lon="-96.409887770">
        <ele>3059.900</ele>
        <time>2020-01-20T23:38:47Z</time>
      </trkpt>
      <trkpt lat="17.145058840" lon="-96.409901770">
        <ele>3060.300</ele>
        <time>2020-01-20T23:38:50Z</time>
      </trkpt>
      <trkpt lat="17.145091980" lon="-96.409946010">
        <ele>3059.700</ele>
        <time>2020-01-20T23:38:53Z</time>
      </trkpt>
      <trkpt lat="17.145105130" lon="-96.410004470">
        <ele>3060.500</ele>
        <time>2020-01-20T23:38:55Z</time>
      </trkpt>
      <trkpt lat="17.145105980" lon="-96.410062150">
        <ele>3060.300</ele>
        <time>2020-01-20T23:38:57Z</time>
      </trkpt>
      <trkpt lat="17.145109570" lon="-96.410131790">
        <ele>3060.500</ele>
        <time>2020-01-20T23:38:59Z</time>
      </trkpt>
      <trkpt lat="17.145109640" lon="-96.410173840">
        <ele>3060.800</ele>
        <time>2020-01-20T23:39:00Z</time>
      </trkpt>
      <trkpt lat="17.145114280" lon="-96.410218340">
        <ele>3061.100</ele>
        <time>2020-01-20T23:39:01Z</time>
      </trkpt>
      <trkpt lat="17.145117660" lon="-96.410261490">
        <ele>3061.400</ele>
        <time>2020-01-20T23:39:02Z</time>
      </trkpt>
      <trkpt lat="17.145127250" lon="-96.410300220">
        <ele>3061.300</ele>
        <time>2020-01-20T23:39:03Z</time>
      </trkpt>
      <trkpt lat="17.145127020" lon="-96.410346310">
        <ele>3061.700</ele>
        <time>2020-01-20T23:39:05Z</time>
      </trkpt>
      <trkpt lat="17.145125610" lon="-96.410384630">
        <ele>3061.700</ele>
        <time>2020-01-20T23:39:08Z</time>
      </trkpt>
      <trkpt lat="17.145125290" lon="-96.410429440">
        <ele>3061.800</ele>
        <time>2020-01-20T23:39:10Z</time>
      </trkpt>
      <trkpt lat="17.145126370" lon="-96.410469950">
        <ele>3061.900</ele>
        <time>2020-01-20T23:39:11Z</time>
      </trkpt>
      <trkpt lat="17.145127070" lon="-96.410520440">
        <ele>3062.000</ele>
        <time>2020-01-20T23:39:12Z</time>
      </trkpt>
      <trkpt lat="17.145123720" lon="-96.410565970">
        <ele>3062.000</ele>
        <time>2020-01-20T23:39:13Z</time>
      </trkpt>
      <trkpt lat="17.145128640" lon="-96.410610940">
        <ele>3061.900</ele>
        <time>2020-01-20T23:39:14Z</time>
      </trkpt>
      <trkpt lat="17.145133520" lon="-96.410656510">
        <ele>3061.800</ele>
        <time>2020-01-20T23:39:15Z</time>
      </trkpt>
      <trkpt lat="17.145134900" lon="-96.410696430">
        <ele>3062.000</ele>
        <time>2020-01-20T23:39:16Z</time>
      </trkpt>
      <trkpt lat="17.145138800" lon="-96.410738850">
        <ele>3062.300</ele>
        <time>2020-01-20T23:39:17Z</time>
      </trkpt>
      <trkpt lat="17.145142930" lon="-96.410784830">
        <ele>3062.600</ele>
        <time>2020-01-20T23:39:18Z</time>
      </trkpt>
      <trkpt lat="17.145149070" lon="-96.410825990">
        <ele>3063.200</ele>
        <time>2020-01-20T23:39:19Z</time>
      </trkpt>
      <trkpt lat="17.145171320" lon="-96.410890760">
        <ele>3064.300</ele>
        <time>2020-01-20T23:39:21Z</time>
      </trkpt>
      <trkpt lat="17.145205410" lon="-96.410935740">
        <ele>3065.100</ele>
        <time>2020-01-20T23:39:23Z</time>
      </trkpt>
      <trkpt lat="17.145245810" lon="-96.410962890">
        <ele>3064.600</ele>
        <time>2020-01-20T23:39:25Z</time>
      </trkpt>
      <trkpt lat="17.145295140" lon="-96.410985500">
        <ele>3065.200</ele>
        <time>2020-01-20T23:39:27Z</time>
      </trkpt>
      <trkpt lat="17.145350900" lon="-96.411005430">
        <ele>3065.800</ele>
        <time>2020-01-20T23:39:29Z</time>
      </trkpt>
      <trkpt lat="17.145411960" lon="-96.411022520">
        <ele>3065.600</ele>
        <time>2020-01-20T23:39:31Z</time>
      </trkpt>
      <trkpt lat="17.145474340" lon="-96.411035840">
        <ele>3065.800</ele>
        <time>2020-01-20T23:39:33Z</time>
      </trkpt>
      <trkpt lat="17.145542910" lon="-96.411046860">
        <ele>3066.200</ele>
        <time>2020-01-20T23:39:35Z</time>
      </trkpt>
      <trkpt lat="17.145583590" lon="-96.411051290">
        <ele>3066.400</ele>
        <time>2020-01-20T23:39:36Z</time>
      </trkpt>
      <trkpt lat="17.145627230" lon="-96.411055800">
        <ele>3066.400</ele>
        <time>2020-01-20T23:39:37Z</time>
      </trkpt>
      <trkpt lat="17.145666200" lon="-96.411059330">
        <ele>3066.800</ele>
        <time>2020-01-20T23:39:38Z</time>
      </trkpt>
      <trkpt lat="17.145720990" lon="-96.411063040">
        <ele>3067.300</ele>
        <time>2020-01-20T23:39:40Z</time>
      </trkpt>
      <trkpt lat="17.145764620" lon="-96.411064570">
        <ele>3068.300</ele>
        <time>2020-01-20T23:39:43Z</time>
      </trkpt>
      <trkpt lat="17.145831240" lon="-96.411073960">
        <ele>3069.300</ele>
        <time>2020-01-20T23:39:45Z</time>
      </trkpt>
      <trkpt lat="17.145878830" lon="-96.411086300">
        <ele>3069.800</ele>
        <time>2020-01-20T23:39:46Z</time>
      </trkpt>
      <trkpt lat="17.145924820" lon="-96.411097160">
        <ele>3070.000</ele>
        <time>2020-01-20T23:39:47Z</time>
      </trkpt>
      <trkpt lat="17.145978030" lon="-96.411109300">
        <ele>3070.500</ele>
        <time>2020-01-20T23:39:48Z</time>
      </trkpt>
      <trkpt lat="17.146035990" lon="-96.411122460">
        <ele>3071.200</ele>
        <time>2020-01-20T23:39:49Z</time>
      </trkpt>
      <trkpt lat="17.146095210" lon="-96.411132540">
        <ele>3071.400</ele>
        <time>2020-01-20T23:39:50Z</time>
      </trkpt>
      <trkpt lat="17.146153600" lon="-96.411143790">
        <ele>3071.900</ele>
        <time>2020-01-20T23:39:51Z</time>
      </trkpt>
      <trkpt lat="17.146211260" lon="-96.411156680">
        <ele>3072.300</ele>
        <time>2020-01-20T23:39:52Z</time>
      </trkpt>
      <trkpt lat="17.146266580" lon="-96.411167850">
        <ele>3072.700</ele>
        <time>2020-01-20T23:39:53Z</time>
      </trkpt>
      <trkpt lat="17.146321790" lon="-96.411179200">
        <ele>3072.700</ele>
        <time>2020-01-20T23:39:54Z</time>
      </trkpt>
      <trkpt lat="17.146370450" lon="-96.411191190">
        <ele>3072.800</ele>
        <time>2020-01-20T23:39:55Z</time>
      </trkpt>
      <trkpt lat="17.146415960" lon="-96.411200750">
        <ele>3073.000</ele>
        <time>2020-01-20T23:39:56Z</time>
      </trkpt>
      <trkpt lat="17.146454470" lon="-96.411212140">
        <ele>3073.600</ele>
        <time>2020-01-20T23:39:57Z</time>
      </trkpt>
      <trkpt lat="17.146509700" lon="-96.411225880">
        <ele>3074.100</ele>
        <time>2020-01-20T23:39:59Z</time>
      </trkpt>
      <trkpt lat="17.146551050" lon="-96.411236050">
        <ele>3074.400</ele>
        <time>2020-01-20T23:40:02Z</time>
      </trkpt>
      <trkpt lat="17.146587430" lon="-96.411242830">
        <ele>3074.500</ele>
        <time>2020-01-20T23:40:04Z</time>
      </trkpt>
      <trkpt lat="17.146659910" lon="-96.411255340">
        <ele>3075.200</ele>
        <time>2020-01-20T23:40:06Z</time>
      </trkpt>
      <trkpt lat="17.146713820" lon="-96.411277590">
        <ele>3075.000</ele>
        <time>2020-01-20T23:40:07Z</time>
      </trkpt>
      <trkpt lat="17.146760250" lon="-96.411286940">
        <ele>3075.000</ele>
        <time>2020-01-20T23:40:08Z</time>
      </trkpt>
      <trkpt lat="17.146809870" lon="-96.411299720">
        <ele>3075.500</ele>
        <time>2020-01-20T23:40:09Z</time>
      </trkpt>
      <trkpt lat="17.146862100" lon="-96.411308150">
        <ele>3075.800</ele>
        <time>2020-01-20T23:40:10Z</time>
      </trkpt>
      <trkpt lat="17.146916480" lon="-96.411321720">
        <ele>3075.900</ele>
        <time>2020-01-20T23:40:11Z</time>
      </trkpt>
      <trkpt lat="17.146968950" lon="-96.411335560">
        <ele>3076.200</ele>
        <time>2020-01-20T23:40:12Z</time>
      </trkpt>
      <trkpt lat="17.147019420" lon="-96.411349470">
        <ele>3076.000</ele>
        <time>2020-01-20T23:40:13Z</time>
      </trkpt>
      <trkpt lat="17.147071940" lon="-96.411362090">
        <ele>3076.300</ele>
        <time>2020-01-20T23:40:14Z</time>
      </trkpt>
      <trkpt lat="17.147126010" lon="-96.411376810">
        <ele>3076.200</ele>
        <time>2020-01-20T23:40:15Z</time>
      </trkpt>
      <trkpt lat="17.147178250" lon="-96.411389880">
        <ele>3076.600</ele>
        <time>2020-01-20T23:40:16Z</time>
      </trkpt>
      <trkpt lat="17.147224460" lon="-96.411400130">
        <ele>3077.000</ele>
        <time>2020-01-20T23:40:17Z</time>
      </trkpt>
      <trkpt lat="17.147268690" lon="-96.411412840">
        <ele>3077.700</ele>
        <time>2020-01-20T23:40:18Z</time>
      </trkpt>
      <trkpt lat="17.147304470" lon="-96.411421510">
        <ele>3077.900</ele>
        <time>2020-01-20T23:40:19Z</time>
      </trkpt>
      <trkpt lat="17.147367400" lon="-96.411433760">
        <ele>3077.900</ele>
        <time>2020-01-20T23:40:21Z</time>
      </trkpt>
      <trkpt lat="17.147415980" lon="-96.411444240">
        <ele>3078.000</ele>
        <time>2020-01-20T23:40:24Z</time>
      </trkpt>
      <trkpt lat="17.147474060" lon="-96.411455030">
        <ele>3078.000</ele>
        <time>2020-01-20T23:40:27Z</time>
      </trkpt>
      <trkpt lat="17.147541680" lon="-96.411469560">
        <ele>3078.000</ele>
        <time>2020-01-20T23:40:29Z</time>
      </trkpt>
      <trkpt lat="17.147577960" lon="-96.411478970">
        <ele>3078.100</ele>
        <time>2020-01-20T23:40:30Z</time>
      </trkpt>
      <trkpt lat="17.147621390" lon="-96.411490040">
        <ele>3077.700</ele>
        <time>2020-01-20T23:40:31Z</time>
      </trkpt>
      <trkpt lat="17.147671150" lon="-96.411503240">
        <ele>3077.100</ele>
        <time>2020-01-20T23:40:32Z</time>
      </trkpt>
      <trkpt lat="17.147719080" lon="-96.411511480">
        <ele>3077.100</ele>
        <time>2020-01-20T23:40:33Z</time>
      </trkpt>
      <trkpt lat="17.147771280" lon="-96.411516700">
        <ele>3077.600</ele>
        <time>2020-01-20T23:40:34Z</time>
      </trkpt>
      <trkpt lat="17.147829010" lon="-96.411521050">
        <ele>3077.900</ele>
        <time>2020-01-20T23:40:35Z</time>
      </trkpt>
      <trkpt lat="17.147887280" lon="-96.411524630">
        <ele>3078.200</ele>
        <time>2020-01-20T23:40:36Z</time>
      </trkpt>
      <trkpt lat="17.147945680" lon="-96.411527800">
        <ele>3078.600</ele>
        <time>2020-01-20T23:40:37Z</time>
      </trkpt>
      <trkpt lat="17.148005440" lon="-96.411530300">
        <ele>3079.000</ele>
        <time>2020-01-20T23:40:38Z</time>
      </trkpt>
      <trkpt lat="17.148070610" lon="-96.411532240">
        <ele>3078.000</ele>
        <time>2020-01-20T23:40:39Z</time>
      </trkpt>
      <trkpt lat="17.148133910" lon="-96.411535010">
        <ele>3077.300</ele>
        <time>2020-01-20T23:40:40Z</time>
      </trkpt>
      <trkpt lat="17.148198090" lon="-96.411543420">
        <ele>3077.000</ele>
        <time>2020-01-20T23:40:41Z</time>
      </trkpt>
      <trkpt lat="17.148260050" lon="-96.411564230">
        <ele>3075.900</ele>
        <time>2020-01-20T23:40:42Z</time>
      </trkpt>
      <trkpt lat="17.148321030" lon="-96.411581850">
        <ele>3074.600</ele>
        <time>2020-01-20T23:40:43Z</time>
      </trkpt>
      <trkpt lat="17.148381000" lon="-96.411605260">
        <ele>3074.000</ele>
        <time>2020-01-20T23:40:44Z</time>
      </trkpt>
      <trkpt lat="17.148441760" lon="-96.411641420">
        <ele>3073.000</ele>
        <time>2020-01-20T23:40:45Z</time>
      </trkpt>
      <trkpt lat="17.148507480" lon="-96.411677660">
        <ele>3072.700</ele>
        <time>2020-01-20T23:40:46Z</time>
      </trkpt>
      <trkpt lat="17.148566100" lon="-96.411710400">
        <ele>3072.000</ele>
        <time>2020-01-20T23:40:47Z</time>
      </trkpt>
      <trkpt lat="17.148622000" lon="-96.411750860">
        <ele>3073.600</ele>
        <time>2020-01-20T23:40:48Z</time>
      </trkpt>
      <trkpt lat="17.148688980" lon="-96.411781920">
        <ele>3072.300</ele>
        <time>2020-01-20T23:40:49Z</time>
      </trkpt>
      <trkpt lat="17.148755400" lon="-96.411828810">
        <ele>3072.000</ele>
        <time>2020-01-20T23:40:50Z</time>
      </trkpt>
      <trkpt lat="17.148814760" lon="-96.411876420">
        <ele>3071.300</ele>
        <time>2020-01-20T23:40:51Z</time>
      </trkpt>
      <trkpt lat="17.148871780" lon="-96.411932290">
        <ele>3071.000</ele>
        <time>2020-01-20T23:40:52Z</time>
      </trkpt>
      <trkpt lat="17.148921150" lon="-96.411990720">
        <ele>3070.000</ele>
        <time>2020-01-20T23:40:53Z</time>
      </trkpt>
      <trkpt lat="17.148973710" lon="-96.412043890">
        <ele>3069.000</ele>
        <time>2020-01-20T23:40:54Z</time>
      </trkpt>
      <trkpt lat="17.149009890" lon="-96.412103420">
        <ele>3066.100</ele>
        <time>2020-01-20T23:40:55Z</time>
      </trkpt>
      <trkpt lat="17.149042570" lon="-96.412173490">
        <ele>3066.900</ele>
        <time>2020-01-20T23:40:56Z</time>
      </trkpt>
      <trkpt lat="17.149074110" lon="-96.412232700">
        <ele>3067.300</ele>
        <time>2020-01-20T23:40:57Z</time>
      </trkpt>
      <trkpt lat="17.149116080" lon="-96.412291820">
        <ele>3067.000</ele>
        <time>2020-01-20T23:40:58Z</time>
      </trkpt>
      <trkpt lat="17.149150520" lon="-96.412344460">
        <ele>3067.200</ele>
        <time>2020-01-20T23:40:59Z</time>
      </trkpt>
      <trkpt lat="17.149186460" lon="-96.412394170">
        <ele>3068.300</ele>
        <time>2020-01-20T23:41:00Z</time>
      </trkpt>
      <trkpt lat="17.149225670" lon="-96.412444940">
        <ele>3067.400</ele>
        <time>2020-01-20T23:41:01Z</time>
      </trkpt>
      <trkpt lat="17.149270760" lon="-96.412505640">
        <ele>3067.500</ele>
        <time>2020-01-20T23:41:02Z</time>
      </trkpt>
      <trkpt lat="17.149314170" lon="-96.412568260">
        <ele>3067.700</ele>
        <time>2020-01-20T23:41:03Z</time>
      </trkpt>
      <trkpt lat="17.149347070" lon="-96.412630210">
        <ele>3066.100</ele>
        <time>2020-01-20T23:41:04Z</time>
      </trkpt>
      <trkpt lat="17.149384530" lon="-96.412686260">
        <ele>3066.200</ele>
        <time>2020-01-20T23:41:05Z</time>
      </trkpt>
      <trkpt lat="17.149416200" lon="-96.412745970">
        <ele>3065.700</ele>
        <time>2020-01-20T23:41:06Z</time>
      </trkpt>
      <trkpt lat="17.149449820" lon="-96.412808680">
        <ele>3065.300</ele>
        <time>2020-01-20T23:41:07Z</time>
      </trkpt>
      <trkpt lat="17.149489930" lon="-96.412869220">
        <ele>3065.500</ele>
        <time>2020-01-20T23:41:08Z</time>
      </trkpt>
      <trkpt lat="17.149517010" lon="-96.412941230">
        <ele>3064.900</ele>
        <time>2020-01-20T23:41:09Z</time>
      </trkpt>
      <trkpt lat="17.149540060" lon="-96.413019080">
        <ele>3063.200</ele>
        <time>2020-01-20T23:41:10Z</time>
      </trkpt>
      <trkpt lat="17.149545250" lon="-96.413087890">
        <ele>3062.500</ele>
        <time>2020-01-20T23:41:11Z</time>
      </trkpt>
      <trkpt lat="17.149528280" lon="-96.413153500">
        <ele>3061.900</ele>
        <time>2020-01-20T23:41:12Z</time>
      </trkpt>
      <trkpt lat="17.149507430" lon="-96.413223880">
        <ele>3062.000</ele>
        <time>2020-01-20T23:41:13Z</time>
      </trkpt>
      <trkpt lat="17.149482450" lon="-96.413291620">
        <ele>3061.800</ele>
        <time>2020-01-20T23:41:14Z</time>
      </trkpt>
      <trkpt lat="17.149454270" lon="-96.413363080">
        <ele>3062.100</ele>
        <time>2020-01-20T23:41:15Z</time>
      </trkpt>
      <trkpt lat="17.149438330" lon="-96.413437490">
        <ele>3062.400</ele>
        <time>2020-01-20T23:41:16Z</time>
      </trkpt>
      <trkpt lat="17.149423810" lon="-96.413511680">
        <ele>3062.500</ele>
        <time>2020-01-20T23:41:17Z</time>
      </trkpt>
      <trkpt lat="17.149405900" lon="-96.413576120">
        <ele>3062.200</ele>
        <time>2020-01-20T23:41:18Z</time>
      </trkpt>
      <trkpt lat="17.149401410" lon="-96.413644860">
        <ele>3062.300</ele>
        <time>2020-01-20T23:41:19Z</time>
      </trkpt>
      <trkpt lat="17.149405570" lon="-96.413711970">
        <ele>3062.600</ele>
        <time>2020-01-20T23:41:20Z</time>
      </trkpt>
      <trkpt lat="17.149405430" lon="-96.413784240">
        <ele>3063.100</ele>
        <time>2020-01-20T23:41:21Z</time>
      </trkpt>
      <trkpt lat="17.149411800" lon="-96.413857250">
        <ele>3062.900</ele>
        <time>2020-01-20T23:41:22Z</time>
      </trkpt>
      <trkpt lat="17.149437980" lon="-96.413939960">
        <ele>3064.400</ele>
        <time>2020-01-20T23:41:23Z</time>
      </trkpt>
      <trkpt lat="17.149469980" lon="-96.414017520">
        <ele>3065.700</ele>
        <time>2020-01-20T23:41:24Z</time>
      </trkpt>
      <trkpt lat="17.149478180" lon="-96.414089480">
        <ele>3066.300</ele>
        <time>2020-01-20T23:41:25Z</time>
      </trkpt>
      <trkpt lat="17.149484800" lon="-96.414144390">
        <ele>3066.700</ele>
        <time>2020-01-20T23:41:26Z</time>
      </trkpt>
      <trkpt lat="17.149534900" lon="-96.414239790">
        <ele>3066.900</ele>
        <time>2020-01-20T23:41:27Z</time>
      </trkpt>
      <trkpt lat="17.149596360" lon="-96.414316920">
        <ele>3065.700</ele>
        <time>2020-01-20T23:41:28Z</time>
      </trkpt>
      <trkpt lat="17.149660530" lon="-96.414368950">
        <ele>3064.600</ele>
        <time>2020-01-20T23:41:29Z</time>
      </trkpt>
      <trkpt lat="17.149724760" lon="-96.414427260">
        <ele>3064.100</ele>
        <time>2020-01-20T23:41:30Z</time>
      </trkpt>
      <trkpt lat="17.149787780" lon="-96.414477190">
        <ele>3062.500</ele>
        <time>2020-01-20T23:41:31Z</time>
      </trkpt>
      <trkpt lat="17.149854920" lon="-96.414512940">
        <ele>3062.100</ele>
        <time>2020-01-20T23:41:32Z</time>
      </trkpt>
      <trkpt lat="17.149918330" lon="-96.414552070">
        <ele>3061.600</ele>
        <time>2020-01-20T23:41:33Z</time>
      </trkpt>
      <trkpt lat="17.149979000" lon="-96.414598630">
        <ele>3062.200</ele>
        <time>2020-01-20T23:41:34Z</time>
      </trkpt>
      <trkpt lat="17.150023070" lon="-96.414661280">
        <ele>3061.200</ele>
        <time>2020-01-20T23:41:35Z</time>
      </trkpt>
      <trkpt lat="17.150069850" lon="-96.414724270">
        <ele>3061.000</ele>
        <time>2020-01-20T23:41:36Z</time>
      </trkpt>
      <trkpt lat="17.150097400" lon="-96.414787470">
        <ele>3062.100</ele>
        <time>2020-01-20T23:41:37Z</time>
      </trkpt>
      <trkpt lat="17.150104800" lon="-96.414883560">
        <ele>3064.200</ele>
        <time>2020-01-20T23:41:38Z</time>
      </trkpt>
      <trkpt lat="17.150052760" lon="-96.414937930">
        <ele>3066.800</ele>
        <time>2020-01-20T23:41:39Z</time>
      </trkpt>
      <trkpt lat="17.150010450" lon="-96.414982240">
        <ele>3066.400</ele>
        <time>2020-01-20T23:41:40Z</time>
      </trkpt>
      <trkpt lat="17.149965220" lon="-96.415031600">
        <ele>3066.000</ele>
        <time>2020-01-20T23:41:41Z</time>
      </trkpt>
      <trkpt lat="17.149894090" lon="-96.415062810">
        <ele>3065.700</ele>
        <time>2020-01-20T23:41:42Z</time>
      </trkpt>
      <trkpt lat="17.149811090" lon="-96.415089440">
        <ele>3066.600</ele>
        <time>2020-01-20T23:41:43Z</time>
      </trkpt>
      <trkpt lat="17.149742350" lon="-96.415133780">
        <ele>3066.600</ele>
        <time>2020-01-20T23:41:44Z</time>
      </trkpt>
      <trkpt lat="17.149665900" lon="-96.415175310">
        <ele>3067.200</ele>
        <time>2020-01-20T23:41:45Z</time>
      </trkpt>
      <trkpt lat="17.149593730" lon="-96.415228960">
        <ele>3067.200</ele>
        <time>2020-01-20T23:41:46Z</time>
      </trkpt>
      <trkpt lat="17.149515430" lon="-96.415276760">
        <ele>3067.800</ele>
        <time>2020-01-20T23:41:47Z</time>
      </trkpt>
      <trkpt lat="17.149441600" lon="-96.415331840">
        <ele>3068.200</ele>
        <time>2020-01-20T23:41:48Z</time>
      </trkpt>
      <trkpt lat="17.149369300" lon="-96.415388840">
        <ele>3069.600</ele>
        <time>2020-01-20T23:41:49Z</time>
      </trkpt>
      <trkpt lat="17.149306870" lon="-96.415453670">
        <ele>3070.000</ele>
        <time>2020-01-20T23:41:50Z</time>
      </trkpt>
      <trkpt lat="17.149247340" lon="-96.415517530">
        <ele>3069.900</ele>
        <time>2020-01-20T23:41:51Z</time>
      </trkpt>
      <trkpt lat="17.149190460" lon="-96.415574280">
        <ele>3070.500</ele>
        <time>2020-01-20T23:41:52Z</time>
      </trkpt>
      <trkpt lat="17.149151990" lon="-96.415647300">
        <ele>3069.700</ele>
        <time>2020-01-20T23:41:53Z</time>
      </trkpt>
      <trkpt lat="17.149111860" lon="-96.415722640">
        <ele>3070.000</ele>
        <time>2020-01-20T23:41:54Z</time>
      </trkpt>
      <trkpt lat="17.149086200" lon="-96.415807610">
        <ele>3070.900</ele>
        <time>2020-01-20T23:41:55Z</time>
      </trkpt>
      <trkpt lat="17.149063400" lon="-96.415890100">
        <ele>3071.300</ele>
        <time>2020-01-20T23:41:56Z</time>
      </trkpt>
      <trkpt lat="17.149048370" lon="-96.415972860">
        <ele>3071.400</ele>
        <time>2020-01-20T23:41:57Z</time>
      </trkpt>
      <trkpt lat="17.149026920" lon="-96.416063160">
        <ele>3071.900</ele>
        <time>2020-01-20T23:41:58Z</time>
      </trkpt>
      <trkpt lat="17.149003430" lon="-96.416155480">
        <ele>3071.400</ele>
        <time>2020-01-20T23:41:59Z</time>
      </trkpt>
      <trkpt lat="17.148983520" lon="-96.416250750">
        <ele>3071.000</ele>
        <time>2020-01-20T23:42:00Z</time>
      </trkpt>
      <trkpt lat="17.148965930" lon="-96.416346610">
        <ele>3070.300</ele>
        <time>2020-01-20T23:42:01Z</time>
      </trkpt>
      <trkpt lat="17.148942060" lon="-96.416444290">
        <ele>3070.700</ele>
        <time>2020-01-20T23:42:02Z</time>
      </trkpt>
      <trkpt lat="17.148917830" lon="-96.416547990">
        <ele>3070.100</ele>
        <time>2020-01-20T23:42:03Z</time>
      </trkpt>
      <trkpt lat="17.148896560" lon="-96.416651060">
        <ele>3069.600</ele>
        <time>2020-01-20T23:42:04Z</time>
      </trkpt>
      <trkpt lat="17.148869870" lon="-96.416749010">
        <ele>3069.600</ele>
        <time>2020-01-20T23:42:05Z</time>
      </trkpt>
      <trkpt lat="17.148839640" lon="-96.416848600">
        <ele>3069.500</ele>
        <time>2020-01-20T23:42:06Z</time>
      </trkpt>
      <trkpt lat="17.148797810" lon="-96.416943830">
        <ele>3068.200</ele>
        <time>2020-01-20T23:42:07Z</time>
      </trkpt>
      <trkpt lat="17.148755700" lon="-96.417020220">
        <ele>3067.500</ele>
        <time>2020-01-20T23:42:08Z</time>
      </trkpt>
      <trkpt lat="17.148700260" lon="-96.417086600">
        <ele>3068.800</ele>
        <time>2020-01-20T23:42:09Z</time>
      </trkpt>
      <trkpt lat="17.148650920" lon="-96.417165160">
        <ele>3068.600</ele>
        <time>2020-01-20T23:42:10Z</time>
      </trkpt>
      <trkpt lat="17.148612770" lon="-96.417241050">
        <ele>3067.700</ele>
        <time>2020-01-20T23:42:11Z</time>
      </trkpt>
      <trkpt lat="17.148571850" lon="-96.417330310">
        <ele>3068.500</ele>
        <time>2020-01-20T23:42:12Z</time>
      </trkpt>
      <trkpt lat="17.148548470" lon="-96.417418460">
        <ele>3068.300</ele>
        <time>2020-01-20T23:42:13Z</time>
      </trkpt>
      <trkpt lat="17.148534510" lon="-96.417511890">
        <ele>3067.600</ele>
        <time>2020-01-20T23:42:14Z</time>
      </trkpt>
      <trkpt lat="17.148525130" lon="-96.417613220">
        <ele>3067.300</ele>
        <time>2020-01-20T23:42:15Z</time>
      </trkpt>
      <trkpt lat="17.148496690" lon="-96.417701330">
        <ele>3067.400</ele>
        <time>2020-01-20T23:42:16Z</time>
      </trkpt>
      <trkpt lat="17.148464590" lon="-96.417788320">
        <ele>3068.600</ele>
        <time>2020-01-20T23:42:17Z</time>
      </trkpt>
      <trkpt lat="17.148437620" lon="-96.417861370">
        <ele>3068.900</ele>
        <time>2020-01-20T23:42:18Z</time>
      </trkpt>
      <trkpt lat="17.148413000" lon="-96.417941150">
        <ele>3069.100</ele>
        <time>2020-01-20T23:42:19Z</time>
      </trkpt>
      <trkpt lat="17.148387680" lon="-96.418027200">
        <ele>3070.200</ele>
        <time>2020-01-20T23:42:20Z</time>
      </trkpt>
      <trkpt lat="17.148369100" lon="-96.418109860">
        <ele>3071.700</ele>
        <time>2020-01-20T23:42:21Z</time>
      </trkpt>
      <trkpt lat="17.148348910" lon="-96.418190140">
        <ele>3071.400</ele>
        <time>2020-01-20T23:42:22Z</time>
      </trkpt>
      <trkpt lat="17.148334750" lon="-96.418289490">
        <ele>3071.500</ele>
        <time>2020-01-20T23:42:23Z</time>
      </trkpt>
      <trkpt lat="17.148313900" lon="-96.418376470">
        <ele>3070.500</ele>
        <time>2020-01-20T23:42:24Z</time>
      </trkpt>
      <trkpt lat="17.148308720" lon="-96.418472820">
        <ele>3068.400</ele>
        <time>2020-01-20T23:42:25Z</time>
      </trkpt>
      <trkpt lat="17.148304040" lon="-96.418567420">
        <ele>3067.800</ele>
        <time>2020-01-20T23:42:26Z</time>
      </trkpt>
      <trkpt lat="17.148301470" lon="-96.418649910">
        <ele>3067.900</ele>
        <time>2020-01-20T23:42:27Z</time>
      </trkpt>
      <trkpt lat="17.148304360" lon="-96.418740150">
        <ele>3067.500</ele>
        <time>2020-01-20T23:42:28Z</time>
      </trkpt>
      <trkpt lat="17.148325250" lon="-96.418824620">
        <ele>3067.900</ele>
        <time>2020-01-20T23:42:29Z</time>
      </trkpt>
      <trkpt lat="17.148362720" lon="-96.418900920">
        <ele>3067.600</ele>
        <time>2020-01-20T23:42:30Z</time>
      </trkpt>
      <trkpt lat="17.148406380" lon="-96.418980180">
        <ele>3068.500</ele>
        <time>2020-01-20T23:42:31Z</time>
      </trkpt>
      <trkpt lat="17.148436880" lon="-96.419042660">
        <ele>3068.300</ele>
        <time>2020-01-20T23:42:32Z</time>
      </trkpt>
      <trkpt lat="17.148452390" lon="-96.419117520">
        <ele>3068.900</ele>
        <time>2020-01-20T23:42:33Z</time>
      </trkpt>
      <trkpt lat="17.148456280" lon="-96.419193040">
        <ele>3068.400</ele>
        <time>2020-01-20T23:42:34Z</time>
      </trkpt>
      <trkpt lat="17.148440430" lon="-96.419274650">
        <ele>3068.600</ele>
        <time>2020-01-20T23:42:35Z</time>
      </trkpt>
      <trkpt lat="17.148417580" lon="-96.419351600">
        <ele>3068.300</ele>
        <time>2020-01-20T23:42:36Z</time>
      </trkpt>
      <trkpt lat="17.148396640" lon="-96.419430970">
        <ele>3068.900</ele>
        <time>2020-01-20T23:42:37Z</time>
      </trkpt>
      <trkpt lat="17.148365860" lon="-96.419513770">
        <ele>3068.200</ele>
        <time>2020-01-20T23:42:38Z</time>
      </trkpt>
      <trkpt lat="17.148336850" lon="-96.419602730">
        <ele>3068.500</ele>
        <time>2020-01-20T23:42:39Z</time>
      </trkpt>
      <trkpt lat="17.148304230" lon="-96.419694030">
        <ele>3068.200</ele>
        <time>2020-01-20T23:42:40Z</time>
      </trkpt>
      <trkpt lat="17.148230120" lon="-96.419759620">
        <ele>3068.400</ele>
        <time>2020-01-20T23:42:41Z</time>
      </trkpt>
      <trkpt lat="17.148156600" lon="-96.419818240">
        <ele>3068.000</ele>
        <time>2020-01-20T23:42:42Z</time>
      </trkpt>
      <trkpt lat="17.148088210" lon="-96.419888070">
        <ele>3067.800</ele>
        <time>2020-01-20T23:42:43Z</time>
      </trkpt>
      <trkpt lat="17.148038890" lon="-96.419965090">
        <ele>3067.700</ele>
        <time>2020-01-20T23:42:44Z</time>
      </trkpt>
      <trkpt lat="17.147992230" lon="-96.420043310">
        <ele>3067.200</ele>
        <time>2020-01-20T23:42:45Z</time>
      </trkpt>
      <trkpt lat="17.147924570" lon="-96.420099360">
        <ele>3066.300</ele>
        <time>2020-01-20T23:42:46Z</time>
      </trkpt>
      <trkpt lat="17.147856080" lon="-96.420160850">
        <ele>3065.800</ele>
        <time>2020-01-20T23:42:47Z</time>
      </trkpt>
      <trkpt lat="17.147801490" lon="-96.420230840">
        <ele>3065.900</ele>
        <time>2020-01-20T23:42:48Z</time>
      </trkpt>
      <trkpt lat="17.147745930" lon="-96.420303150">
        <ele>3066.300</ele>
        <time>2020-01-20T23:42:49Z</time>
      </trkpt>
      <trkpt lat="17.147695120" lon="-96.420366810">
        <ele>3067.200</ele>
        <time>2020-01-20T23:42:50Z</time>
      </trkpt>
      <trkpt lat="17.147647300" lon="-96.420443720">
        <ele>3067.800</ele>
        <time>2020-01-20T23:42:51Z</time>
      </trkpt>
      <trkpt lat="17.147607750" lon="-96.420521860">
        <ele>3068.600</ele>
        <time>2020-01-20T23:42:52Z</time>
      </trkpt>
      <trkpt lat="17.147595180" lon="-96.420597490">
        <ele>3068.100</ele>
        <time>2020-01-20T23:42:53Z</time>
      </trkpt>
      <trkpt lat="17.147578800" lon="-96.420677210">
        <ele>3068.100</ele>
        <time>2020-01-20T23:42:54Z</time>
      </trkpt>
      <trkpt lat="17.147614280" lon="-96.420764910">
        <ele>3069.200</ele>
        <time>2020-01-20T23:42:55Z</time>
      </trkpt>
      <trkpt lat="17.147655700" lon="-96.420854690">
        <ele>3069.400</ele>
        <time>2020-01-20T23:42:56Z</time>
      </trkpt>
      <trkpt lat="17.147665860" lon="-96.420934660">
        <ele>3069.100</ele>
        <time>2020-01-20T23:42:57Z</time>
      </trkpt>
      <trkpt lat="17.147706700" lon="-96.421024090">
        <ele>3068.800</ele>
        <time>2020-01-20T23:42:58Z</time>
      </trkpt>
      <trkpt lat="17.147722820" lon="-96.421107000">
        <ele>3068.600</ele>
        <time>2020-01-20T23:42:59Z</time>
      </trkpt>
      <trkpt lat="17.147732460" lon="-96.421193390">
        <ele>3069.700</ele>
        <time>2020-01-20T23:43:00Z</time>
      </trkpt>
      <trkpt lat="17.147723170" lon="-96.421271860">
        <ele>3068.900</ele>
        <time>2020-01-20T23:43:01Z</time>
      </trkpt>
      <trkpt lat="17.147682730" lon="-96.421352010">
        <ele>3069.000</ele>
        <time>2020-01-20T23:43:02Z</time>
      </trkpt>
      <trkpt lat="17.147636190" lon="-96.421428820">
        <ele>3068.300</ele>
        <time>2020-01-20T23:43:03Z</time>
      </trkpt>
      <trkpt lat="17.147577700" lon="-96.421495430">
        <ele>3067.400</ele>
        <time>2020-01-20T23:43:04Z</time>
      </trkpt>
      <trkpt lat="17.147521670" lon="-96.421565030">
        <ele>3067.100</ele>
        <time>2020-01-20T23:43:05Z</time>
      </trkpt>
      <trkpt lat="17.147465620" lon="-96.421628570">
        <ele>3066.900</ele>
        <time>2020-01-20T23:43:06Z</time>
      </trkpt>
      <trkpt lat="17.147406070" lon="-96.421676810">
        <ele>3064.800</ele>
        <time>2020-01-20T23:43:07Z</time>
      </trkpt>
      <trkpt lat="17.147342690" lon="-96.421736140">
        <ele>3065.400</ele>
        <time>2020-01-20T23:43:08Z</time>
      </trkpt>
      <trkpt lat="17.147290930" lon="-96.421782380">
        <ele>3065.100</ele>
        <time>2020-01-20T23:43:09Z</time>
      </trkpt>
      <trkpt lat="17.147244290" lon="-96.421841630">
        <ele>3064.700</ele>
        <time>2020-01-20T23:43:10Z</time>
      </trkpt>
      <trkpt lat="17.147214480" lon="-96.421912620">
        <ele>3064.700</ele>
        <time>2020-01-20T23:43:11Z</time>
      </trkpt>
      <trkpt lat="17.147215950" lon="-96.421995170">
        <ele>3063.800</ele>
        <time>2020-01-20T23:43:12Z</time>
      </trkpt>
      <trkpt lat="17.147239310" lon="-96.422076710">
        <ele>3062.100</ele>
        <time>2020-01-20T23:43:13Z</time>
      </trkpt>
      <trkpt lat="17.147243060" lon="-96.422137470">
        <ele>3061.700</ele>
        <time>2020-01-20T23:43:14Z</time>
      </trkpt>
      <trkpt lat="17.147253100" lon="-96.422187350">
        <ele>3061.600</ele>
        <time>2020-01-20T23:43:15Z</time>
      </trkpt>
      <trkpt lat="17.147248400" lon="-96.422287790">
        <ele>3061.000</ele>
        <time>2020-01-20T23:43:16Z</time>
      </trkpt>
      <trkpt lat="17.147232360" lon="-96.422377640">
        <ele>3060.500</ele>
        <time>2020-01-20T23:43:17Z</time>
      </trkpt>
      <trkpt lat="17.147224720" lon="-96.422465810">
        <ele>3062.800</ele>
        <time>2020-01-20T23:43:18Z</time>
      </trkpt>
      <trkpt lat="17.147211570" lon="-96.422553900">
        <ele>3062.900</ele>
        <time>2020-01-20T23:43:19Z</time>
      </trkpt>
      <trkpt lat="17.147184070" lon="-96.422630770">
        <ele>3063.200</ele>
        <time>2020-01-20T23:43:20Z</time>
      </trkpt>
      <trkpt lat="17.147157850" lon="-96.422707010">
        <ele>3063.200</ele>
        <time>2020-01-20T23:43:21Z</time>
      </trkpt>
      <trkpt lat="17.147141820" lon="-96.422788620">
        <ele>3063.800</ele>
        <time>2020-01-20T23:43:22Z</time>
      </trkpt>
      <trkpt lat="17.147115610" lon="-96.422866560">
        <ele>3064.200</ele>
        <time>2020-01-20T23:43:23Z</time>
      </trkpt>
      <trkpt lat="17.147093300" lon="-96.422946750">
        <ele>3064.400</ele>
        <time>2020-01-20T23:43:24Z</time>
      </trkpt>
      <trkpt lat="17.147101080" lon="-96.423035690">
        <ele>3064.100</ele>
        <time>2020-01-20T23:43:25Z</time>
      </trkpt>
      <trkpt lat="17.147085610" lon="-96.423110630">
        <ele>3064.200</ele>
        <time>2020-01-20T23:43:26Z</time>
      </trkpt>
      <trkpt lat="17.147076260" lon="-96.423184780">
        <ele>3064.600</ele>
        <time>2020-01-20T23:43:27Z</time>
      </trkpt>
      <trkpt lat="17.147108580" lon="-96.423267920">
        <ele>3065.400</ele>
        <time>2020-01-20T23:43:28Z</time>
      </trkpt>
      <trkpt lat="17.147174760" lon="-96.423356660">
        <ele>3065.300</ele>
        <time>2020-01-20T23:43:29Z</time>
      </trkpt>
      <trkpt lat="17.147291390" lon="-96.423395770">
        <ele>3060.900</ele>
        <time>2020-01-20T23:43:30Z</time>
      </trkpt>
      <trkpt lat="17.147348440" lon="-96.423435040">
        <ele>3061.600</ele>
        <time>2020-01-20T23:43:31Z</time>
      </trkpt>
      <trkpt lat="17.147394140" lon="-96.423484370">
        <ele>3061.600</ele>
        <time>2020-01-20T23:43:32Z</time>
      </trkpt>
      <trkpt lat="17.147432970" lon="-96.423536680">
        <ele>3062.700</ele>
        <time>2020-01-20T23:43:33Z</time>
      </trkpt>
      <trkpt lat="17.147462660" lon="-96.423605620">
        <ele>3062.800</ele>
        <time>2020-01-20T23:43:34Z</time>
      </trkpt>
      <trkpt lat="17.147463780" lon="-96.423671790">
        <ele>3063.100</ele>
        <time>2020-01-20T23:43:35Z</time>
      </trkpt>
      <trkpt lat="17.147462610" lon="-96.423741300">
        <ele>3065.300</ele>
        <time>2020-01-20T23:43:36Z</time>
      </trkpt>
      <trkpt lat="17.147431480" lon="-96.423819180">
        <ele>3065.700</ele>
        <time>2020-01-20T23:43:37Z</time>
      </trkpt>
      <trkpt lat="17.147429950" lon="-96.423910390">
        <ele>3064.800</ele>
        <time>2020-01-20T23:43:38Z</time>
      </trkpt>
      <trkpt lat="17.147405080" lon="-96.423996720">
        <ele>3063.900</ele>
        <time>2020-01-20T23:43:39Z</time>
      </trkpt>
      <trkpt lat="17.147356230" lon="-96.424083080">
        <ele>3064.000</ele>
        <time>2020-01-20T23:43:40Z</time>
      </trkpt>
      <trkpt lat="17.147318060" lon="-96.424144700">
        <ele>3063.700</ele>
        <time>2020-01-20T23:43:41Z</time>
      </trkpt>
      <trkpt lat="17.147279340" lon="-96.424202910">
        <ele>3064.100</ele>
        <time>2020-01-20T23:43:42Z</time>
      </trkpt>
      <trkpt lat="17.147248160" lon="-96.424272200">
        <ele>3064.700</ele>
        <time>2020-01-20T23:43:43Z</time>
      </trkpt>
      <trkpt lat="17.147209310" lon="-96.424346790">
        <ele>3066.700</ele>
        <time>2020-01-20T23:43:44Z</time>
      </trkpt>
      <trkpt lat="17.147149970" lon="-96.424390400">
        <ele>3067.400</ele>
        <time>2020-01-20T23:43:45Z</time>
      </trkpt>
      <trkpt lat="17.147097540" lon="-96.424447220">
        <ele>3066.500</ele>
        <time>2020-01-20T23:43:46Z</time>
      </trkpt>
      <trkpt lat="17.147022640" lon="-96.424488610">
        <ele>3065.800</ele>
        <time>2020-01-20T23:43:47Z</time>
      </trkpt>
      <trkpt lat="17.146958590" lon="-96.424546110">
        <ele>3064.900</ele>
        <time>2020-01-20T23:43:48Z</time>
      </trkpt>
      <trkpt lat="17.146886490" lon="-96.424609320">
        <ele>3063.700</ele>
        <time>2020-01-20T23:43:49Z</time>
      </trkpt>
      <trkpt lat="17.146808110" lon="-96.424586520">
        <ele>3063.000</ele>
        <time>2020-01-20T23:43:50Z</time>
      </trkpt>
      <trkpt lat="17.146726720" lon="-96.424595380">
        <ele>3063.200</ele>
        <time>2020-01-20T23:43:51Z</time>
      </trkpt>
      <trkpt lat="17.146663330" lon="-96.424627500">
        <ele>3063.100</ele>
        <time>2020-01-20T23:43:52Z</time>
      </trkpt>
      <trkpt lat="17.146612330" lon="-96.424677560">
        <ele>3063.500</ele>
        <time>2020-01-20T23:43:53Z</time>
      </trkpt>
      <trkpt lat="17.146573800" lon="-96.424740890">
        <ele>3063.800</ele>
        <time>2020-01-20T23:43:54Z</time>
      </trkpt>
      <trkpt lat="17.146529830" lon="-96.424801740">
        <ele>3064.000</ele>
        <time>2020-01-20T23:43:55Z</time>
      </trkpt>
      <trkpt lat="17.146520010" lon="-96.424872760">
        <ele>3063.700</ele>
        <time>2020-01-20T23:43:56Z</time>
      </trkpt>
      <trkpt lat="17.146514550" lon="-96.424928610">
        <ele>3064.400</ele>
        <time>2020-01-20T23:43:57Z</time>
      </trkpt>
      <trkpt lat="17.146532830" lon="-96.424997370">
        <ele>3064.800</ele>
        <time>2020-01-20T23:43:58Z</time>
      </trkpt>
      <trkpt lat="17.146554680" lon="-96.425061180">
        <ele>3064.100</ele>
        <time>2020-01-20T23:43:59Z</time>
      </trkpt>
      <trkpt lat="17.146633770" lon="-96.425172930">
        <ele>3064.400</ele>
        <time>2020-01-20T23:44:00Z</time>
      </trkpt>
      <trkpt lat="17.146694930" lon="-96.425258620">
        <ele>3063.600</ele>
        <time>2020-01-20T23:44:01Z</time>
      </trkpt>
      <trkpt lat="17.146750570" lon="-96.425346900">
        <ele>3063.200</ele>
        <time>2020-01-20T23:44:02Z</time>
      </trkpt>
      <trkpt lat="17.146808350" lon="-96.425432290">
        <ele>3063.000</ele>
        <time>2020-01-20T23:44:03Z</time>
      </trkpt>
      <trkpt lat="17.146868130" lon="-96.425509700">
        <ele>3062.900</ele>
        <time>2020-01-20T23:44:04Z</time>
      </trkpt>
      <trkpt lat="17.146931560" lon="-96.425573660">
        <ele>3062.000</ele>
        <time>2020-01-20T23:44:05Z</time>
      </trkpt>
      <trkpt lat="17.146989820" lon="-96.425638870">
        <ele>3061.000</ele>
        <time>2020-01-20T23:44:06Z</time>
      </trkpt>
      <trkpt lat="17.147044320" lon="-96.425710220">
        <ele>3060.200</ele>
        <time>2020-01-20T23:44:07Z</time>
      </trkpt>
      <trkpt lat="17.147098210" lon="-96.425785550">
        <ele>3061.000</ele>
        <time>2020-01-20T23:44:08Z</time>
      </trkpt>
      <trkpt lat="17.147139180" lon="-96.425863660">
        <ele>3060.600</ele>
        <time>2020-01-20T23:44:09Z</time>
      </trkpt>
      <trkpt lat="17.147180490" lon="-96.425947200">
        <ele>3060.400</ele>
        <time>2020-01-20T23:44:10Z</time>
      </trkpt>
      <trkpt lat="17.147205260" lon="-96.426026220">
        <ele>3058.900</ele>
        <time>2020-01-20T23:44:11Z</time>
      </trkpt>
      <trkpt lat="17.147235350" lon="-96.426098080">
        <ele>3058.700</ele>
        <time>2020-01-20T23:44:12Z</time>
      </trkpt>
      <trkpt lat="17.147272660" lon="-96.426172740">
        <ele>3059.200</ele>
        <time>2020-01-20T23:44:13Z</time>
      </trkpt>
      <trkpt lat="17.147292000" lon="-96.426249230">
        <ele>3059.700</ele>
        <time>2020-01-20T23:44:14Z</time>
      </trkpt>
      <trkpt lat="17.147331100" lon="-96.426335250">
        <ele>3059.600</ele>
        <time>2020-01-20T23:44:15Z</time>
      </trkpt>
      <trkpt lat="17.147380250" lon="-96.426404390">
        <ele>3059.200</ele>
        <time>2020-01-20T23:44:16Z</time>
      </trkpt>
      <trkpt lat="17.147428880" lon="-96.426468670">
        <ele>3058.900</ele>
        <time>2020-01-20T23:44:17Z</time>
      </trkpt>
      <trkpt lat="17.147488300" lon="-96.426534020">
        <ele>3060.100</ele>
        <time>2020-01-20T23:44:18Z</time>
      </trkpt>
      <trkpt lat="17.147553190" lon="-96.426577010">
        <ele>3060.100</ele>
        <time>2020-01-20T23:44:19Z</time>
      </trkpt>
      <trkpt lat="17.147597550" lon="-96.426629400">
        <ele>3061.000</ele>
        <time>2020-01-20T23:44:20Z</time>
      </trkpt>
      <trkpt lat="17.147631410" lon="-96.426692630">
        <ele>3061.600</ele>
        <time>2020-01-20T23:44:21Z</time>
      </trkpt>
      <trkpt lat="17.147661530" lon="-96.426778070">
        <ele>3061.800</ele>
        <time>2020-01-20T23:44:22Z</time>
      </trkpt>
      <trkpt lat="17.147689190" lon="-96.426859290">
        <ele>3061.800</ele>
        <time>2020-01-20T23:44:23Z</time>
      </trkpt>
      <trkpt lat="17.147696180" lon="-96.426941300">
        <ele>3062.400</ele>
        <time>2020-01-20T23:44:24Z</time>
      </trkpt>
      <trkpt lat="17.147730450" lon="-96.427011290">
        <ele>3063.100</ele>
        <time>2020-01-20T23:44:25Z</time>
      </trkpt>
      <trkpt lat="17.147788680" lon="-96.427072960">
        <ele>3063.000</ele>
        <time>2020-01-20T23:44:26Z</time>
      </trkpt>
      <trkpt lat="17.147862780" lon="-96.427113830">
        <ele>3063.500</ele>
        <time>2020-01-20T23:44:27Z</time>
      </trkpt>
      <trkpt lat="17.147928960" lon="-96.427140040">
        <ele>3062.600</ele>
        <time>2020-01-20T23:44:28Z</time>
      </trkpt>
      <trkpt lat="17.147987350" lon="-96.427167750">
        <ele>3061.800</ele>
        <time>2020-01-20T23:44:29Z</time>
      </trkpt>
      <trkpt lat="17.148036030" lon="-96.427205950">
        <ele>3060.900</ele>
        <time>2020-01-20T23:44:30Z</time>
      </trkpt>
      <trkpt lat="17.148076690" lon="-96.427256150">
        <ele>3061.200</ele>
        <time>2020-01-20T23:44:31Z</time>
      </trkpt>
      <trkpt lat="17.148099220" lon="-96.427333450">
        <ele>3061.000</ele>
        <time>2020-01-20T23:44:32Z</time>
      </trkpt>
      <trkpt lat="17.148114420" lon="-96.427418480">
        <ele>3058.700</ele>
        <time>2020-01-20T23:44:33Z</time>
      </trkpt>
      <trkpt lat="17.148131680" lon="-96.427485400">
        <ele>3057.500</ele>
        <time>2020-01-20T23:44:34Z</time>
      </trkpt>
      <trkpt lat="17.148153810" lon="-96.427560770">
        <ele>3057.500</ele>
        <time>2020-01-20T23:44:35Z</time>
      </trkpt>
      <trkpt lat="17.148179590" lon="-96.427644600">
        <ele>3057.100</ele>
        <time>2020-01-20T23:44:36Z</time>
      </trkpt>
      <trkpt lat="17.148198770" lon="-96.427738020">
        <ele>3057.100</ele>
        <time>2020-01-20T23:44:37Z</time>
      </trkpt>
      <trkpt lat="17.148198770" lon="-96.427823360">
        <ele>3056.300</ele>
        <time>2020-01-20T23:44:38Z</time>
      </trkpt>
      <trkpt lat="17.148215850" lon="-96.427919850">
        <ele>3055.600</ele>
        <time>2020-01-20T23:44:39Z</time>
      </trkpt>
      <trkpt lat="17.148234010" lon="-96.428032000">
        <ele>3056.900</ele>
        <time>2020-01-20T23:44:40Z</time>
      </trkpt>
      <trkpt lat="17.148272420" lon="-96.428127000">
        <ele>3056.600</ele>
        <time>2020-01-20T23:44:41Z</time>
      </trkpt>
      <trkpt lat="17.148307190" lon="-96.428223600">
        <ele>3056.600</ele>
        <time>2020-01-20T23:44:42Z</time>
      </trkpt>
      <trkpt lat="17.148343390" lon="-96.428313870">
        <ele>3056.400</ele>
        <time>2020-01-20T23:44:43Z</time>
      </trkpt>
      <trkpt lat="17.148383860" lon="-96.428400110">
        <ele>3055.300</ele>
        <time>2020-01-20T23:44:44Z</time>
      </trkpt>
      <trkpt lat="17.148415840" lon="-96.428487080">
        <ele>3057.100</ele>
        <time>2020-01-20T23:44:45Z</time>
      </trkpt>
      <trkpt lat="17.148455400" lon="-96.428571400">
        <ele>3058.200</ele>
        <time>2020-01-20T23:44:46Z</time>
      </trkpt>
      <trkpt lat="17.148483880" lon="-96.428644770">
        <ele>3057.700</ele>
        <time>2020-01-20T23:44:47Z</time>
      </trkpt>
      <trkpt lat="17.148536750" lon="-96.428736030">
        <ele>3057.700</ele>
        <time>2020-01-20T23:44:48Z</time>
      </trkpt>
      <trkpt lat="17.148576710" lon="-96.428815110">
        <ele>3056.500</ele>
        <time>2020-01-20T23:44:49Z</time>
      </trkpt>
      <trkpt lat="17.148647720" lon="-96.428886610">
        <ele>3056.400</ele>
        <time>2020-01-20T23:44:50Z</time>
      </trkpt>
      <trkpt lat="17.148717180" lon="-96.428962930">
        <ele>3055.600</ele>
        <time>2020-01-20T23:44:51Z</time>
      </trkpt>
      <trkpt lat="17.148793930" lon="-96.429019380">
        <ele>3055.300</ele>
        <time>2020-01-20T23:44:52Z</time>
      </trkpt>
      <trkpt lat="17.148873070" lon="-96.429062400">
        <ele>3055.600</ele>
        <time>2020-01-20T23:44:53Z</time>
      </trkpt>
      <trkpt lat="17.148957860" lon="-96.429100950">
        <ele>3055.800</ele>
        <time>2020-01-20T23:44:54Z</time>
      </trkpt>
      <trkpt lat="17.149027260" lon="-96.429152260">
        <ele>3056.200</ele>
        <time>2020-01-20T23:44:55Z</time>
      </trkpt>
      <trkpt lat="17.149119360" lon="-96.429191090">
        <ele>3055.400</ele>
        <time>2020-01-20T23:44:56Z</time>
      </trkpt>
      <trkpt lat="17.149205890" lon="-96.429202980">
        <ele>3055.700</ele>
        <time>2020-01-20T23:44:57Z</time>
      </trkpt>
      <trkpt lat="17.149289650" lon="-96.429255340">
        <ele>3056.100</ele>
        <time>2020-01-20T23:44:58Z</time>
      </trkpt>
      <trkpt lat="17.149368660" lon="-96.429256990">
        <ele>3056.000</ele>
        <time>2020-01-20T23:44:59Z</time>
      </trkpt>
      <trkpt lat="17.149447490" lon="-96.429285810">
        <ele>3056.700</ele>
        <time>2020-01-20T23:45:00Z</time>
      </trkpt>
      <trkpt lat="17.149518240" lon="-96.429329340">
        <ele>3056.600</ele>
        <time>2020-01-20T23:45:01Z</time>
      </trkpt>
      <trkpt lat="17.149563850" lon="-96.429393710">
        <ele>3055.900</ele>
        <time>2020-01-20T23:45:02Z</time>
      </trkpt>
      <trkpt lat="17.149601670" lon="-96.429459980">
        <ele>3055.400</ele>
        <time>2020-01-20T23:45:03Z</time>
      </trkpt>
      <trkpt lat="17.149623520" lon="-96.429543330">
        <ele>3055.900</ele>
        <time>2020-01-20T23:45:04Z</time>
      </trkpt>
      <trkpt lat="17.149661560" lon="-96.429628560">
        <ele>3056.100</ele>
        <time>2020-01-20T23:45:05Z</time>
      </trkpt>
      <trkpt lat="17.149688780" lon="-96.429706280">
        <ele>3056.500</ele>
        <time>2020-01-20T23:45:06Z</time>
      </trkpt>
      <trkpt lat="17.149733310" lon="-96.429783290">
        <ele>3054.600</ele>
        <time>2020-01-20T23:45:07Z</time>
      </trkpt>
      <trkpt lat="17.149796020" lon="-96.429840160">
        <ele>3054.300</ele>
        <time>2020-01-20T23:45:08Z</time>
      </trkpt>
      <trkpt lat="17.149875800" lon="-96.429885610">
        <ele>3053.500</ele>
        <time>2020-01-20T23:45:09Z</time>
      </trkpt>
      <trkpt lat="17.149968690" lon="-96.429928180">
        <ele>3054.500</ele>
        <time>2020-01-20T23:45:10Z</time>
      </trkpt>
      <trkpt lat="17.150058120" lon="-96.429957280">
        <ele>3053.900</ele>
        <time>2020-01-20T23:45:11Z</time>
      </trkpt>
      <trkpt lat="17.150141160" lon="-96.429998100">
        <ele>3053.100</ele>
        <time>2020-01-20T23:45:12Z</time>
      </trkpt>
      <trkpt lat="17.150212500" lon="-96.430047980">
        <ele>3052.600</ele>
        <time>2020-01-20T23:45:13Z</time>
      </trkpt>
      <trkpt lat="17.150273050" lon="-96.430108950">
        <ele>3052.500</ele>
        <time>2020-01-20T23:45:14Z</time>
      </trkpt>
      <trkpt lat="17.150308500" lon="-96.430192200">
        <ele>3051.700</ele>
        <time>2020-01-20T23:45:15Z</time>
      </trkpt>
      <trkpt lat="17.150350590" lon="-96.430273220">
        <ele>3050.900</ele>
        <time>2020-01-20T23:45:16Z</time>
      </trkpt>
      <trkpt lat="17.150385300" lon="-96.430361310">
        <ele>3050.600</ele>
        <time>2020-01-20T23:45:17Z</time>
      </trkpt>
      <trkpt lat="17.150419830" lon="-96.430457120">
        <ele>3050.600</ele>
        <time>2020-01-20T23:45:18Z</time>
      </trkpt>
      <trkpt lat="17.150454790" lon="-96.430551290">
        <ele>3050.900</ele>
        <time>2020-01-20T23:45:19Z</time>
      </trkpt>
      <trkpt lat="17.150490150" lon="-96.430623660">
        <ele>3050.300</ele>
        <time>2020-01-20T23:45:20Z</time>
      </trkpt>
      <trkpt lat="17.150532720" lon="-96.430709500">
        <ele>3050.400</ele>
        <time>2020-01-20T23:45:21Z</time>
      </trkpt>
      <trkpt lat="17.150564510" lon="-96.430805020">
        <ele>3050.900</ele>
        <time>2020-01-20T23:45:22Z</time>
      </trkpt>
      <trkpt lat="17.150556010" lon="-96.430889850">
        <ele>3048.800</ele>
        <time>2020-01-20T23:45:23Z</time>
      </trkpt>
      <trkpt lat="17.150551840" lon="-96.430982210">
        <ele>3048.600</ele>
        <time>2020-01-20T23:45:24Z</time>
      </trkpt>
      <trkpt lat="17.150546850" lon="-96.431069170">
        <ele>3047.900</ele>
        <time>2020-01-20T23:45:25Z</time>
      </trkpt>
      <trkpt lat="17.150540900" lon="-96.431182290">
        <ele>3047.200</ele>
        <time>2020-01-20T23:45:26Z</time>
      </trkpt>
      <trkpt lat="17.150530130" lon="-96.431269600">
        <ele>3047.400</ele>
        <time>2020-01-20T23:45:27Z</time>
      </trkpt>
      <trkpt lat="17.150516010" lon="-96.431360790">
        <ele>3047.000</ele>
        <time>2020-01-20T23:45:28Z</time>
      </trkpt>
      <trkpt lat="17.150504720" lon="-96.431442350">
        <ele>3047.200</ele>
        <time>2020-01-20T23:45:29Z</time>
      </trkpt>
      <trkpt lat="17.150476920" lon="-96.431525520">
        <ele>3047.800</ele>
        <time>2020-01-20T23:45:30Z</time>
      </trkpt>
      <trkpt lat="17.150430140" lon="-96.431593610">
        <ele>3048.200</ele>
        <time>2020-01-20T23:45:31Z</time>
      </trkpt>
      <trkpt lat="17.150381810" lon="-96.431645610">
        <ele>3046.700</ele>
        <time>2020-01-20T23:45:32Z</time>
      </trkpt>
      <trkpt lat="17.150296280" lon="-96.431660860">
        <ele>3047.800</ele>
        <time>2020-01-20T23:45:33Z</time>
      </trkpt>
      <trkpt lat="17.150220440" lon="-96.431668360">
        <ele>3047.700</ele>
        <time>2020-01-20T23:45:34Z</time>
      </trkpt>
      <trkpt lat="17.150133660" lon="-96.431662250">
        <ele>3047.200</ele>
        <time>2020-01-20T23:45:35Z</time>
      </trkpt>
      <trkpt lat="17.150045320" lon="-96.431651930">
        <ele>3046.700</ele>
        <time>2020-01-20T23:45:36Z</time>
      </trkpt>
      <trkpt lat="17.149955440" lon="-96.431644330">
        <ele>3046.500</ele>
        <time>2020-01-20T23:45:37Z</time>
      </trkpt>
      <trkpt lat="17.149864490" lon="-96.431636950">
        <ele>3045.700</ele>
        <time>2020-01-20T23:45:38Z</time>
      </trkpt>
      <trkpt lat="17.149776580" lon="-96.431641200">
        <ele>3045.600</ele>
        <time>2020-01-20T23:45:39Z</time>
      </trkpt>
      <trkpt lat="17.149685750" lon="-96.431638750">
        <ele>3044.800</ele>
        <time>2020-01-20T23:45:40Z</time>
      </trkpt>
      <trkpt lat="17.149595240" lon="-96.431632410">
        <ele>3044.500</ele>
        <time>2020-01-20T23:45:41Z</time>
      </trkpt>
      <trkpt lat="17.149501800" lon="-96.431645990">
        <ele>3044.700</ele>
        <time>2020-01-20T23:45:42Z</time>
      </trkpt>
      <trkpt lat="17.149426710" lon="-96.431686400">
        <ele>3044.600</ele>
        <time>2020-01-20T23:45:43Z</time>
      </trkpt>
      <trkpt lat="17.149354780" lon="-96.431738080">
        <ele>3045.600</ele>
        <time>2020-01-20T23:45:44Z</time>
      </trkpt>
      <trkpt lat="17.149296070" lon="-96.431804130">
        <ele>3047.900</ele>
        <time>2020-01-20T23:45:45Z</time>
      </trkpt>
      <trkpt lat="17.149258290" lon="-96.431894580">
        <ele>3048.400</ele>
        <time>2020-01-20T23:45:46Z</time>
      </trkpt>
      <trkpt lat="17.149231060" lon="-96.431984050">
        <ele>3048.600</ele>
        <time>2020-01-20T23:45:47Z</time>
      </trkpt>
      <trkpt lat="17.149263420" lon="-96.432094460">
        <ele>3047.500</ele>
        <time>2020-01-20T23:45:48Z</time>
      </trkpt>
      <trkpt lat="17.149314750" lon="-96.432161080">
        <ele>3046.000</ele>
        <time>2020-01-20T23:45:49Z</time>
      </trkpt>
      <trkpt lat="17.149352920" lon="-96.432255260">
        <ele>3046.300</ele>
        <time>2020-01-20T23:45:50Z</time>
      </trkpt>
      <trkpt lat="17.149396030" lon="-96.432342900">
        <ele>3045.900</ele>
        <time>2020-01-20T23:45:51Z</time>
      </trkpt>
      <trkpt lat="17.149445130" lon="-96.432426930">
        <ele>3046.300</ele>
        <time>2020-01-20T23:45:52Z</time>
      </trkpt>
      <trkpt lat="17.149491390" lon="-96.432521100">
        <ele>3045.700</ele>
        <time>2020-01-20T23:45:53Z</time>
      </trkpt>
      <trkpt lat="17.149561350" lon="-96.432604170">
        <ele>3043.600</ele>
        <time>2020-01-20T23:45:54Z</time>
      </trkpt>
      <trkpt lat="17.149620300" lon="-96.432682530">
        <ele>3043.500</ele>
        <time>2020-01-20T23:45:55Z</time>
      </trkpt>
      <trkpt lat="17.149679300" lon="-96.432763500">
        <ele>3044.100</ele>
        <time>2020-01-20T23:45:56Z</time>
      </trkpt>
      <trkpt lat="17.149756160" lon="-96.432841180">
        <ele>3044.300</ele>
        <time>2020-01-20T23:45:57Z</time>
      </trkpt>
      <trkpt lat="17.149825680" lon="-96.432898360">
        <ele>3044.100</ele>
        <time>2020-01-20T23:45:58Z</time>
      </trkpt>
      <trkpt lat="17.149837900" lon="-96.432997960">
        <ele>3045.300</ele>
        <time>2020-01-20T23:45:59Z</time>
      </trkpt>
      <trkpt lat="17.149898550" lon="-96.433071710">
        <ele>3044.800</ele>
        <time>2020-01-20T23:46:00Z</time>
      </trkpt>
      <trkpt lat="17.149959000" lon="-96.433159840">
        <ele>3043.500</ele>
        <time>2020-01-20T23:46:01Z</time>
      </trkpt>
      <trkpt lat="17.149954880" lon="-96.433235770">
        <ele>3044.800</ele>
        <time>2020-01-20T23:46:02Z</time>
      </trkpt>
      <trkpt lat="17.149889170" lon="-96.433355800">
        <ele>3046.500</ele>
        <time>2020-01-20T23:46:03Z</time>
      </trkpt>
      <trkpt lat="17.149854940" lon="-96.433444510">
        <ele>3044.500</ele>
        <time>2020-01-20T23:46:04Z</time>
      </trkpt>
      <trkpt lat="17.149809590" lon="-96.433514240">
        <ele>3045.400</ele>
        <time>2020-01-20T23:46:05Z</time>
      </trkpt>
      <trkpt lat="17.149765650" lon="-96.433586110">
        <ele>3045.800</ele>
        <time>2020-01-20T23:46:06Z</time>
      </trkpt>
      <trkpt lat="17.149723920" lon="-96.433668190">
        <ele>3045.700</ele>
        <time>2020-01-20T23:46:07Z</time>
      </trkpt>
      <trkpt lat="17.149672000" lon="-96.433744650">
        <ele>3043.700</ele>
        <time>2020-01-20T23:46:08Z</time>
      </trkpt>
      <trkpt lat="17.149641640" lon="-96.433816080">
        <ele>3043.800</ele>
        <time>2020-01-20T23:46:09Z</time>
      </trkpt>
      <trkpt lat="17.149612000" lon="-96.433887930">
        <ele>3043.600</ele>
        <time>2020-01-20T23:46:10Z</time>
      </trkpt>
      <trkpt lat="17.149584750" lon="-96.433958960">
        <ele>3044.000</ele>
        <time>2020-01-20T23:46:11Z</time>
      </trkpt>
      <trkpt lat="17.149564660" lon="-96.434040930">
        <ele>3044.600</ele>
        <time>2020-01-20T23:46:12Z</time>
      </trkpt>
      <trkpt lat="17.149548940" lon="-96.434122940">
        <ele>3045.200</ele>
        <time>2020-01-20T23:46:13Z</time>
      </trkpt>
      <trkpt lat="17.149550620" lon="-96.434212170">
        <ele>3046.200</ele>
        <time>2020-01-20T23:46:14Z</time>
      </trkpt>
      <trkpt lat="17.149561630" lon="-96.434305880">
        <ele>3045.800</ele>
        <time>2020-01-20T23:46:15Z</time>
      </trkpt>
      <trkpt lat="17.149588630" lon="-96.434396090">
        <ele>3046.800</ele>
        <time>2020-01-20T23:46:16Z</time>
      </trkpt>
      <trkpt lat="17.149614670" lon="-96.434486870">
        <ele>3048.000</ele>
        <time>2020-01-20T23:46:17Z</time>
      </trkpt>
      <trkpt lat="17.149647970" lon="-96.434581460">
        <ele>3047.700</ele>
        <time>2020-01-20T23:46:18Z</time>
      </trkpt>
      <trkpt lat="17.149675020" lon="-96.434668730">
        <ele>3048.000</ele>
        <time>2020-01-20T23:46:19Z</time>
      </trkpt>
      <trkpt lat="17.149694720" lon="-96.434755190">
        <ele>3047.900</ele>
        <time>2020-01-20T23:46:20Z</time>
      </trkpt>
      <trkpt lat="17.149729380" lon="-96.434842500">
        <ele>3047.000</ele>
        <time>2020-01-20T23:46:21Z</time>
      </trkpt>
      <trkpt lat="17.149757900" lon="-96.434932530">
        <ele>3047.500</ele>
        <time>2020-01-20T23:46:22Z</time>
      </trkpt>
      <trkpt lat="17.149790900" lon="-96.435022500">
        <ele>3046.500</ele>
        <time>2020-01-20T23:46:23Z</time>
      </trkpt>
      <trkpt lat="17.149817530" lon="-96.435109100">
        <ele>3047.400</ele>
        <time>2020-01-20T23:46:24Z</time>
      </trkpt>
      <trkpt lat="17.149828470" lon="-96.435202410">
        <ele>3049.100</ele>
        <time>2020-01-20T23:46:25Z</time>
      </trkpt>
      <trkpt lat="17.149811340" lon="-96.435274680">
        <ele>3049.300</ele>
        <time>2020-01-20T23:46:26Z</time>
      </trkpt>
      <trkpt lat="17.149791210" lon="-96.435346230">
        <ele>3049.800</ele>
        <time>2020-01-20T23:46:27Z</time>
      </trkpt>
      <trkpt lat="17.149766800" lon="-96.435391520">
        <ele>3050.400</ele>
        <time>2020-01-20T23:46:28Z</time>
      </trkpt>
      <trkpt lat="17.149723500" lon="-96.435424920">
        <ele>3049.300</ele>
        <time>2020-01-20T23:46:29Z</time>
      </trkpt>
      <trkpt lat="17.149625540" lon="-96.435405210">
        <ele>3048.600</ele>
        <time>2020-01-20T23:46:30Z</time>
      </trkpt>
      <trkpt lat="17.149545890" lon="-96.435398220">
        <ele>3048.400</ele>
        <time>2020-01-20T23:46:31Z</time>
      </trkpt>
      <trkpt lat="17.149461430" lon="-96.435399870">
        <ele>3048.200</ele>
        <time>2020-01-20T23:46:32Z</time>
      </trkpt>
      <trkpt lat="17.149379000" lon="-96.435410280">
        <ele>3047.900</ele>
        <time>2020-01-20T23:46:33Z</time>
      </trkpt>
      <trkpt lat="17.149296710" lon="-96.435431250">
        <ele>3048.100</ele>
        <time>2020-01-20T23:46:34Z</time>
      </trkpt>
      <trkpt lat="17.149217260" lon="-96.435478200">
        <ele>3047.600</ele>
        <time>2020-01-20T23:46:35Z</time>
      </trkpt>
      <trkpt lat="17.149126930" lon="-96.435518730">
        <ele>3048.100</ele>
        <time>2020-01-20T23:46:36Z</time>
      </trkpt>
      <trkpt lat="17.149045110" lon="-96.435584010">
        <ele>3047.500</ele>
        <time>2020-01-20T23:46:37Z</time>
      </trkpt>
      <trkpt lat="17.148971140" lon="-96.435635150">
        <ele>3046.300</ele>
        <time>2020-01-20T23:46:38Z</time>
      </trkpt>
      <trkpt lat="17.148888570" lon="-96.435686520">
        <ele>3044.900</ele>
        <time>2020-01-20T23:46:39Z</time>
      </trkpt>
      <trkpt lat="17.148820590" lon="-96.435729510">
        <ele>3045.200</ele>
        <time>2020-01-20T23:46:40Z</time>
      </trkpt>
      <trkpt lat="17.148750840" lon="-96.435768510">
        <ele>3045.400</ele>
        <time>2020-01-20T23:46:41Z</time>
      </trkpt>
      <trkpt lat="17.148683230" lon="-96.435812930">
        <ele>3045.800</ele>
        <time>2020-01-20T23:46:42Z</time>
      </trkpt>
      <trkpt lat="17.148618910" lon="-96.435855930">
        <ele>3046.300</ele>
        <time>2020-01-20T23:46:43Z</time>
      </trkpt>
      <trkpt lat="17.148557200" lon="-96.435904410">
        <ele>3047.400</ele>
        <time>2020-01-20T23:46:44Z</time>
      </trkpt>
      <trkpt lat="17.148504970" lon="-96.435956650">
        <ele>3047.900</ele>
        <time>2020-01-20T23:46:45Z</time>
      </trkpt>
      <trkpt lat="17.148447530" lon="-96.436013200">
        <ele>3049.400</ele>
        <time>2020-01-20T23:46:46Z</time>
      </trkpt>
      <trkpt lat="17.148399190" lon="-96.436072890">
        <ele>3048.600</ele>
        <time>2020-01-20T23:46:47Z</time>
      </trkpt>
      <trkpt lat="17.148350720" lon="-96.436133160">
        <ele>3048.300</ele>
        <time>2020-01-20T23:46:48Z</time>
      </trkpt>
      <trkpt lat="17.148308260" lon="-96.436193460">
        <ele>3047.400</ele>
        <time>2020-01-20T23:46:49Z</time>
      </trkpt>
      <trkpt lat="17.148268360" lon="-96.436259860">
        <ele>3046.400</ele>
        <time>2020-01-20T23:46:50Z</time>
      </trkpt>
      <trkpt lat="17.148226320" lon="-96.436327440">
        <ele>3046.400</ele>
        <time>2020-01-20T23:46:51Z</time>
      </trkpt>
      <trkpt lat="17.148156740" lon="-96.436383920">
        <ele>3048.400</ele>
        <time>2020-01-20T23:46:52Z</time>
      </trkpt>
      <trkpt lat="17.148082420" lon="-96.436419830">
        <ele>3049.100</ele>
        <time>2020-01-20T23:46:53Z</time>
      </trkpt>
      <trkpt lat="17.148010230" lon="-96.436433010">
        <ele>3050.400</ele>
        <time>2020-01-20T23:46:54Z</time>
      </trkpt>
      <trkpt lat="17.147944200" lon="-96.436436850">
        <ele>3050.000</ele>
        <time>2020-01-20T23:46:55Z</time>
      </trkpt>
      <trkpt lat="17.147881180" lon="-96.436430180">
        <ele>3049.500</ele>
        <time>2020-01-20T23:46:56Z</time>
      </trkpt>
      <trkpt lat="17.147856550" lon="-96.436350320">
        <ele>3051.100</ele>
        <time>2020-01-20T23:46:57Z</time>
      </trkpt>
      <trkpt lat="17.147836530" lon="-96.436294410">
        <ele>3051.400</ele>
        <time>2020-01-20T23:46:58Z</time>
      </trkpt>
      <trkpt lat="17.147820170" lon="-96.436245210">
        <ele>3051.200</ele>
        <time>2020-01-20T23:46:59Z</time>
      </trkpt>
      <trkpt lat="17.147803830" lon="-96.436195750">
        <ele>3049.700</ele>
        <time>2020-01-20T23:47:00Z</time>
      </trkpt>
      <trkpt lat="17.147782990" lon="-96.436124680">
        <ele>3049.000</ele>
        <time>2020-01-20T23:47:01Z</time>
      </trkpt>
      <trkpt lat="17.147760170" lon="-96.436051730">
        <ele>3048.800</ele>
        <time>2020-01-20T23:47:02Z</time>
      </trkpt>
      <trkpt lat="17.147736300" lon="-96.435985190">
        <ele>3048.600</ele>
        <time>2020-01-20T23:47:03Z</time>
      </trkpt>
      <trkpt lat="17.147710230" lon="-96.435914760">
        <ele>3049.600</ele>
        <time>2020-01-20T23:47:04Z</time>
      </trkpt>
      <trkpt lat="17.147666750" lon="-96.435828050">
        <ele>3048.700</ele>
        <time>2020-01-20T23:47:05Z</time>
      </trkpt>
      <trkpt lat="17.147629390" lon="-96.435740190">
        <ele>3049.100</ele>
        <time>2020-01-20T23:47:06Z</time>
      </trkpt>
      <trkpt lat="17.147588190" lon="-96.435654520">
        <ele>3049.000</ele>
        <time>2020-01-20T23:47:07Z</time>
      </trkpt>
      <trkpt lat="17.147537450" lon="-96.435583550">
        <ele>3049.600</ele>
        <time>2020-01-20T23:47:08Z</time>
      </trkpt>
      <trkpt lat="17.147489580" lon="-96.435502680">
        <ele>3049.900</ele>
        <time>2020-01-20T23:47:09Z</time>
      </trkpt>
      <trkpt lat="17.147416310" lon="-96.435442020">
        <ele>3049.300</ele>
        <time>2020-01-20T23:47:10Z</time>
      </trkpt>
      <trkpt lat="17.147323900" lon="-96.435404460">
        <ele>3048.300</ele>
        <time>2020-01-20T23:47:11Z</time>
      </trkpt>
      <trkpt lat="17.147259700" lon="-96.435341170">
        <ele>3047.200</ele>
        <time>2020-01-20T23:47:12Z</time>
      </trkpt>
      <trkpt lat="17.147206540" lon="-96.435284400">
        <ele>3048.100</ele>
        <time>2020-01-20T23:47:13Z</time>
      </trkpt>
      <trkpt lat="17.147142430" lon="-96.435214360">
        <ele>3048.000</ele>
        <time>2020-01-20T23:47:14Z</time>
      </trkpt>
      <trkpt lat="17.147099500" lon="-96.435142780">
        <ele>3047.600</ele>
        <time>2020-01-20T23:47:15Z</time>
      </trkpt>
      <trkpt lat="17.147065730" lon="-96.435075180">
        <ele>3045.900</ele>
        <time>2020-01-20T23:47:16Z</time>
      </trkpt>
      <trkpt lat="17.147017380" lon="-96.435008690">
        <ele>3045.400</ele>
        <time>2020-01-20T23:47:17Z</time>
      </trkpt>
      <trkpt lat="17.146983420" lon="-96.434942450">
        <ele>3046.100</ele>
        <time>2020-01-20T23:47:18Z</time>
      </trkpt>
      <trkpt lat="17.146949810" lon="-96.434854250">
        <ele>3045.500</ele>
        <time>2020-01-20T23:47:19Z</time>
      </trkpt>
      <trkpt lat="17.146925940" lon="-96.434768090">
        <ele>3045.300</ele>
        <time>2020-01-20T23:47:20Z</time>
      </trkpt>
      <trkpt lat="17.146883680" lon="-96.434688010">
        <ele>3045.700</ele>
        <time>2020-01-20T23:47:21Z</time>
      </trkpt>
      <trkpt lat="17.146844830" lon="-96.434568990">
        <ele>3047.200</ele>
        <time>2020-01-20T23:47:22Z</time>
      </trkpt>
      <trkpt lat="17.146799850" lon="-96.434484430">
        <ele>3047.500</ele>
        <time>2020-01-20T23:47:23Z</time>
      </trkpt>
      <trkpt lat="17.146750580" lon="-96.434400980">
        <ele>3047.200</ele>
        <time>2020-01-20T23:47:24Z</time>
      </trkpt>
      <trkpt lat="17.146690040" lon="-96.434328160">
        <ele>3047.200</ele>
        <time>2020-01-20T23:47:25Z</time>
      </trkpt>
      <trkpt lat="17.146634610" lon="-96.434261850">
        <ele>3047.400</ele>
        <time>2020-01-20T23:47:26Z</time>
      </trkpt>
      <trkpt lat="17.146576030" lon="-96.434181300">
        <ele>3049.100</ele>
        <time>2020-01-20T23:47:27Z</time>
      </trkpt>
      <trkpt lat="17.146533780" lon="-96.434112740">
        <ele>3049.800</ele>
        <time>2020-01-20T23:47:28Z</time>
      </trkpt>
      <trkpt lat="17.146487870" lon="-96.434041650">
        <ele>3049.800</ele>
        <time>2020-01-20T23:47:29Z</time>
      </trkpt>
      <trkpt lat="17.146444500" lon="-96.433963240">
        <ele>3053.300</ele>
        <time>2020-01-20T23:47:30Z</time>
      </trkpt>
      <trkpt lat="17.146390920" lon="-96.433892830">
        <ele>3054.000</ele>
        <time>2020-01-20T23:47:31Z</time>
      </trkpt>
      <trkpt lat="17.146319760" lon="-96.433820680">
        <ele>3055.600</ele>
        <time>2020-01-20T23:47:32Z</time>
      </trkpt>
      <trkpt lat="17.146257800" lon="-96.433777110">
        <ele>3055.600</ele>
        <time>2020-01-20T23:47:33Z</time>
      </trkpt>
      <trkpt lat="17.146174600" lon="-96.433746680">
        <ele>3055.000</ele>
        <time>2020-01-20T23:47:34Z</time>
      </trkpt>
      <trkpt lat="17.146099760" lon="-96.433694110">
        <ele>3055.200</ele>
        <time>2020-01-20T23:47:35Z</time>
      </trkpt>
      <trkpt lat="17.146022140" lon="-96.433636080">
        <ele>3055.600</ele>
        <time>2020-01-20T23:47:36Z</time>
      </trkpt>
      <trkpt lat="17.145954750" lon="-96.433562010">
        <ele>3055.300</ele>
        <time>2020-01-20T23:47:37Z</time>
      </trkpt>
      <trkpt lat="17.145881980" lon="-96.433498420">
        <ele>3053.800</ele>
        <time>2020-01-20T23:47:38Z</time>
      </trkpt>
      <trkpt lat="17.145802390" lon="-96.433444690">
        <ele>3054.200</ele>
        <time>2020-01-20T23:47:39Z</time>
      </trkpt>
      <trkpt lat="17.145723990" lon="-96.433379020">
        <ele>3054.500</ele>
        <time>2020-01-20T23:47:40Z</time>
      </trkpt>
      <trkpt lat="17.145645970" lon="-96.433307860">
        <ele>3055.500</ele>
        <time>2020-01-20T23:47:41Z</time>
      </trkpt>
      <trkpt lat="17.145565160" lon="-96.433244450">
        <ele>3054.600</ele>
        <time>2020-01-20T23:47:42Z</time>
      </trkpt>
      <trkpt lat="17.145492520" lon="-96.433173400">
        <ele>3056.500</ele>
        <time>2020-01-20T23:47:43Z</time>
      </trkpt>
      <trkpt lat="17.145410440" lon="-96.433114740">
        <ele>3055.900</ele>
        <time>2020-01-20T23:47:44Z</time>
      </trkpt>
      <trkpt lat="17.145334400" lon="-96.433053170">
        <ele>3057.000</ele>
        <time>2020-01-20T23:47:45Z</time>
      </trkpt>
      <trkpt lat="17.145262630" lon="-96.432999140">
        <ele>3057.300</ele>
        <time>2020-01-20T23:47:46Z</time>
      </trkpt>
      <trkpt lat="17.145190830" lon="-96.432945390">
        <ele>3058.400</ele>
        <time>2020-01-20T23:47:47Z</time>
      </trkpt>
      <trkpt lat="17.145130730" lon="-96.432896070">
        <ele>3058.000</ele>
        <time>2020-01-20T23:47:48Z</time>
      </trkpt>
      <trkpt lat="17.145042950" lon="-96.432862470">
        <ele>3058.400</ele>
        <time>2020-01-20T23:47:49Z</time>
      </trkpt>
      <trkpt lat="17.144946240" lon="-96.432849810">
        <ele>3059.000</ele>
        <time>2020-01-20T23:47:50Z</time>
      </trkpt>
      <trkpt lat="17.144851010" lon="-96.432837310">
        <ele>3058.600</ele>
        <time>2020-01-20T23:47:51Z</time>
      </trkpt>
      <trkpt lat="17.144764370" lon="-96.432854420">
        <ele>3058.200</ele>
        <time>2020-01-20T23:47:52Z</time>
      </trkpt>
      <trkpt lat="17.144673130" lon="-96.432893300">
        <ele>3058.800</ele>
        <time>2020-01-20T23:47:53Z</time>
      </trkpt>
      <trkpt lat="17.144586390" lon="-96.432917500">
        <ele>3059.400</ele>
        <time>2020-01-20T23:47:54Z</time>
      </trkpt>
      <trkpt lat="17.144549420" lon="-96.432977780">
        <ele>3059.200</ele>
        <time>2020-01-20T23:47:55Z</time>
      </trkpt>
      <trkpt lat="17.144513750" lon="-96.433077770">
        <ele>3060.600</ele>
        <time>2020-01-20T23:47:56Z</time>
      </trkpt>
      <trkpt lat="17.144472640" lon="-96.433162530">
        <ele>3060.800</ele>
        <time>2020-01-20T23:47:57Z</time>
      </trkpt>
      <trkpt lat="17.144431740" lon="-96.433260420">
        <ele>3061.400</ele>
        <time>2020-01-20T23:47:58Z</time>
      </trkpt>
      <trkpt lat="17.144393600" lon="-96.433353340">
        <ele>3063.500</ele>
        <time>2020-01-20T23:47:59Z</time>
      </trkpt>
      <trkpt lat="17.144340260" lon="-96.433453940">
        <ele>3063.300</ele>
        <time>2020-01-20T23:48:00Z</time>
      </trkpt>
      <trkpt lat="17.144279320" lon="-96.433544930">
        <ele>3064.200</ele>
        <time>2020-01-20T23:48:01Z</time>
      </trkpt>
      <trkpt lat="17.144205890" lon="-96.433617660">
        <ele>3063.800</ele>
        <time>2020-01-20T23:48:02Z</time>
      </trkpt>
      <trkpt lat="17.144159750" lon="-96.433705210">
        <ele>3065.000</ele>
        <time>2020-01-20T23:48:03Z</time>
      </trkpt>
      <trkpt lat="17.144100090" lon="-96.433779980">
        <ele>3065.600</ele>
        <time>2020-01-20T23:48:04Z</time>
      </trkpt>
      <trkpt lat="17.144043990" lon="-96.433852620">
        <ele>3065.000</ele>
        <time>2020-01-20T23:48:05Z</time>
      </trkpt>
      <trkpt lat="17.143986140" lon="-96.433919070">
        <ele>3065.600</ele>
        <time>2020-01-20T23:48:06Z</time>
      </trkpt>
      <trkpt lat="17.143932140" lon="-96.433989080">
        <ele>3065.400</ele>
        <time>2020-01-20T23:48:07Z</time>
      </trkpt>
      <trkpt lat="17.143876500" lon="-96.434043420">
        <ele>3067.700</ele>
        <time>2020-01-20T23:48:08Z</time>
      </trkpt>
      <trkpt lat="17.143855460" lon="-96.434127670">
        <ele>3068.300</ele>
        <time>2020-01-20T23:48:09Z</time>
      </trkpt>
      <trkpt lat="17.143844110" lon="-96.434218180">
        <ele>3068.400</ele>
        <time>2020-01-20T23:48:10Z</time>
      </trkpt>
      <trkpt lat="17.143860140" lon="-96.434292690">
        <ele>3069.100</ele>
        <time>2020-01-20T23:48:11Z</time>
      </trkpt>
      <trkpt lat="17.143895830" lon="-96.434391390">
        <ele>3069.800</ele>
        <time>2020-01-20T23:48:12Z</time>
      </trkpt>
      <trkpt lat="17.143945280" lon="-96.434500820">
        <ele>3070.400</ele>
        <time>2020-01-20T23:48:13Z</time>
      </trkpt>
      <trkpt lat="17.143999450" lon="-96.434592360">
        <ele>3071.700</ele>
        <time>2020-01-20T23:48:14Z</time>
      </trkpt>
      <trkpt lat="17.144088150" lon="-96.434630760">
        <ele>3071.600</ele>
        <time>2020-01-20T23:48:15Z</time>
      </trkpt>
      <trkpt lat="17.144151740" lon="-96.434719730">
        <ele>3071.700</ele>
        <time>2020-01-20T23:48:16Z</time>
      </trkpt>
      <trkpt lat="17.144210570" lon="-96.434807690">
        <ele>3071.900</ele>
        <time>2020-01-20T23:48:17Z</time>
      </trkpt>
      <trkpt lat="17.144260500" lon="-96.434888350">
        <ele>3072.600</ele>
        <time>2020-01-20T23:48:18Z</time>
      </trkpt>
      <trkpt lat="17.144301870" lon="-96.434972380">
        <ele>3072.800</ele>
        <time>2020-01-20T23:48:19Z</time>
      </trkpt>
      <trkpt lat="17.144321880" lon="-96.435071650">
        <ele>3072.900</ele>
        <time>2020-01-20T23:48:20Z</time>
      </trkpt>
      <trkpt lat="17.144337220" lon="-96.435170010">
        <ele>3070.400</ele>
        <time>2020-01-20T23:48:21Z</time>
      </trkpt>
      <trkpt lat="17.144371490" lon="-96.435253120">
        <ele>3070.800</ele>
        <time>2020-01-20T23:48:22Z</time>
      </trkpt>
      <trkpt lat="17.144408590" lon="-96.435337820">
        <ele>3070.900</ele>
        <time>2020-01-20T23:48:23Z</time>
      </trkpt>
      <trkpt lat="17.144436640" lon="-96.435430010">
        <ele>3072.000</ele>
        <time>2020-01-20T23:48:24Z</time>
      </trkpt>
      <trkpt lat="17.144446500" lon="-96.435511700">
        <ele>3069.700</ele>
        <time>2020-01-20T23:48:25Z</time>
      </trkpt>
      <trkpt lat="17.144470360" lon="-96.435598950">
        <ele>3071.400</ele>
        <time>2020-01-20T23:48:26Z</time>
      </trkpt>
      <trkpt lat="17.144490740" lon="-96.435688940">
        <ele>3070.500</ele>
        <time>2020-01-20T23:48:27Z</time>
      </trkpt>
      <trkpt lat="17.144503920" lon="-96.435785230">
        <ele>3070.200</ele>
        <time>2020-01-20T23:48:28Z</time>
      </trkpt>
      <trkpt lat="17.144528460" lon="-96.435870930">
        <ele>3070.400</ele>
        <time>2020-01-20T23:48:29Z</time>
      </trkpt>
      <trkpt lat="17.144564660" lon="-96.435942580">
        <ele>3070.500</ele>
        <time>2020-01-20T23:48:30Z</time>
      </trkpt>
      <trkpt lat="17.144603040" lon="-96.436003970">
        <ele>3070.400</ele>
        <time>2020-01-20T23:48:31Z</time>
      </trkpt>
      <trkpt lat="17.144636050" lon="-96.436122360">
        <ele>3070.000</ele>
        <time>2020-01-20T23:48:32Z</time>
      </trkpt>
      <trkpt lat="17.144666660" lon="-96.436209870">
        <ele>3070.000</ele>
        <time>2020-01-20T23:48:33Z</time>
      </trkpt>
      <trkpt lat="17.144701330" lon="-96.436303270">
        <ele>3069.800</ele>
        <time>2020-01-20T23:48:34Z</time>
      </trkpt>
      <trkpt lat="17.144736550" lon="-96.436395010">
        <ele>3069.600</ele>
        <time>2020-01-20T23:48:35Z</time>
      </trkpt>
      <trkpt lat="17.144776840" lon="-96.436493760">
        <ele>3069.600</ele>
        <time>2020-01-20T23:48:36Z</time>
      </trkpt>
      <trkpt lat="17.144817920" lon="-96.436565270">
        <ele>3070.000</ele>
        <time>2020-01-20T23:48:37Z</time>
      </trkpt>
      <trkpt lat="17.144869130" lon="-96.436652350">
        <ele>3069.500</ele>
        <time>2020-01-20T23:48:38Z</time>
      </trkpt>
      <trkpt lat="17.144916770" lon="-96.436742000">
        <ele>3070.300</ele>
        <time>2020-01-20T23:48:39Z</time>
      </trkpt>
      <trkpt lat="17.144967140" lon="-96.436827310">
        <ele>3071.000</ele>
        <time>2020-01-20T23:48:40Z</time>
      </trkpt>
      <trkpt lat="17.145015290" lon="-96.436893690">
        <ele>3070.100</ele>
        <time>2020-01-20T23:48:41Z</time>
      </trkpt>
      <trkpt lat="17.145069830" lon="-96.436975430">
        <ele>3069.900</ele>
        <time>2020-01-20T23:48:42Z</time>
      </trkpt>
      <trkpt lat="17.145123120" lon="-96.437045460">
        <ele>3068.700</ele>
        <time>2020-01-20T23:48:43Z</time>
      </trkpt>
      <trkpt lat="17.145181240" lon="-96.437113780">
        <ele>3066.400</ele>
        <time>2020-01-20T23:48:44Z</time>
      </trkpt>
      <trkpt lat="17.145231250" lon="-96.437171150">
        <ele>3064.300</ele>
        <time>2020-01-20T23:48:45Z</time>
      </trkpt>
      <trkpt lat="17.145256750" lon="-96.437211740">
        <ele>3062.600</ele>
        <time>2020-01-20T23:48:46Z</time>
      </trkpt>
      <trkpt lat="17.145284610" lon="-96.437248870">
        <ele>3062.300</ele>
        <time>2020-01-20T23:48:47Z</time>
      </trkpt>
      <trkpt lat="17.145312110" lon="-96.437293780">
        <ele>3063.100</ele>
        <time>2020-01-20T23:48:48Z</time>
      </trkpt>
      <trkpt lat="17.145323050" lon="-96.437355420">
        <ele>3061.800</ele>
        <time>2020-01-20T23:48:49Z</time>
      </trkpt>
      <trkpt lat="17.145333680" lon="-96.437432220">
        <ele>3061.100</ele>
        <time>2020-01-20T23:48:50Z</time>
      </trkpt>
      <trkpt lat="17.145347100" lon="-96.437511040">
        <ele>3061.800</ele>
        <time>2020-01-20T23:48:51Z</time>
      </trkpt>
      <trkpt lat="17.145364900" lon="-96.437580640">
        <ele>3062.000</ele>
        <time>2020-01-20T23:48:52Z</time>
      </trkpt>
      <trkpt lat="17.145372150" lon="-96.437659280">
        <ele>3064.600</ele>
        <time>2020-01-20T23:48:53Z</time>
      </trkpt>
      <trkpt lat="17.145405350" lon="-96.437728260">
        <ele>3065.300</ele>
        <time>2020-01-20T23:48:54Z</time>
      </trkpt>
      <trkpt lat="17.145425930" lon="-96.437783950">
        <ele>3064.800</ele>
        <time>2020-01-20T23:48:55Z</time>
      </trkpt>
      <trkpt lat="17.145426730" lon="-96.437847780">
        <ele>3065.600</ele>
        <time>2020-01-20T23:48:56Z</time>
      </trkpt>
      <trkpt lat="17.145441390" lon="-96.437907070">
        <ele>3066.100</ele>
        <time>2020-01-20T23:48:57Z</time>
      </trkpt>
      <trkpt lat="17.145461090" lon="-96.438005240">
        <ele>3065.700</ele>
        <time>2020-01-20T23:48:58Z</time>
      </trkpt>
      <trkpt lat="17.145461730" lon="-96.438119000">
        <ele>3065.500</ele>
        <time>2020-01-20T23:48:59Z</time>
      </trkpt>
      <trkpt lat="17.145455040" lon="-96.438212260">
        <ele>3064.800</ele>
        <time>2020-01-20T23:49:00Z</time>
      </trkpt>
      <trkpt lat="17.145450920" lon="-96.438295460">
        <ele>3065.000</ele>
        <time>2020-01-20T23:49:01Z</time>
      </trkpt>
      <trkpt lat="17.145441050" lon="-96.438395410">
        <ele>3064.800</ele>
        <time>2020-01-20T23:49:02Z</time>
      </trkpt>
      <trkpt lat="17.145411120" lon="-96.438487540">
        <ele>3065.300</ele>
        <time>2020-01-20T23:49:03Z</time>
      </trkpt>
      <trkpt lat="17.145398330" lon="-96.438594440">
        <ele>3065.000</ele>
        <time>2020-01-20T23:49:04Z</time>
      </trkpt>
      <trkpt lat="17.145375630" lon="-96.438691690">
        <ele>3063.900</ele>
        <time>2020-01-20T23:49:05Z</time>
      </trkpt>
      <trkpt lat="17.145365710" lon="-96.438803710">
        <ele>3064.400</ele>
        <time>2020-01-20T23:49:06Z</time>
      </trkpt>
      <trkpt lat="17.145358240" lon="-96.438907640">
        <ele>3065.000</ele>
        <time>2020-01-20T23:49:07Z</time>
      </trkpt>
      <trkpt lat="17.145348410" lon="-96.439015950">
        <ele>3064.600</ele>
        <time>2020-01-20T23:49:08Z</time>
      </trkpt>
      <trkpt lat="17.145303990" lon="-96.439095170">
        <ele>3063.900</ele>
        <time>2020-01-20T23:49:09Z</time>
      </trkpt>
      <trkpt lat="17.145284870" lon="-96.439189530">
        <ele>3064.500</ele>
        <time>2020-01-20T23:49:10Z</time>
      </trkpt>
      <trkpt lat="17.145262180" lon="-96.439276830">
        <ele>3063.300</ele>
        <time>2020-01-20T23:49:11Z</time>
      </trkpt>
      <trkpt lat="17.145222110" lon="-96.439365270">
        <ele>3063.200</ele>
        <time>2020-01-20T23:49:12Z</time>
      </trkpt>
      <trkpt lat="17.145178920" lon="-96.439449530">
        <ele>3062.800</ele>
        <time>2020-01-20T23:49:13Z</time>
      </trkpt>
      <trkpt lat="17.145153080" lon="-96.439537210">
        <ele>3061.200</ele>
        <time>2020-01-20T23:49:14Z</time>
      </trkpt>
      <trkpt lat="17.145131860" lon="-96.439635260">
        <ele>3060.200</ele>
        <time>2020-01-20T23:49:15Z</time>
      </trkpt>
      <trkpt lat="17.145112890" lon="-96.439729640">
        <ele>3059.000</ele>
        <time>2020-01-20T23:49:16Z</time>
      </trkpt>
      <trkpt lat="17.145093830" lon="-96.439823140">
        <ele>3059.100</ele>
        <time>2020-01-20T23:49:17Z</time>
      </trkpt>
      <trkpt lat="17.145073410" lon="-96.439918930">
        <ele>3060.200</ele>
        <time>2020-01-20T23:49:18Z</time>
      </trkpt>
      <trkpt lat="17.145059640" lon="-96.440008970">
        <ele>3060.100</ele>
        <time>2020-01-20T23:49:19Z</time>
      </trkpt>
      <trkpt lat="17.145055430" lon="-96.440091830">
        <ele>3059.700</ele>
        <time>2020-01-20T23:49:20Z</time>
      </trkpt>
      <trkpt lat="17.145067260" lon="-96.440189380">
        <ele>3058.500</ele>
        <time>2020-01-20T23:49:21Z</time>
      </trkpt>
      <trkpt lat="17.145073850" lon="-96.440272640">
        <ele>3059.000</ele>
        <time>2020-01-20T23:49:22Z</time>
      </trkpt>
      <trkpt lat="17.145088750" lon="-96.440353020">
        <ele>3059.100</ele>
        <time>2020-01-20T23:49:23Z</time>
      </trkpt>
      <trkpt lat="17.145084440" lon="-96.440431240">
        <ele>3059.300</ele>
        <time>2020-01-20T23:49:24Z</time>
      </trkpt>
      <trkpt lat="17.145083790" lon="-96.440507680">
        <ele>3060.100</ele>
        <time>2020-01-20T23:49:25Z</time>
      </trkpt>
      <trkpt lat="17.145064340" lon="-96.440589820">
        <ele>3057.600</ele>
        <time>2020-01-20T23:49:26Z</time>
      </trkpt>
      <trkpt lat="17.145037600" lon="-96.440665700">
        <ele>3056.500</ele>
        <time>2020-01-20T23:49:27Z</time>
      </trkpt>
      <trkpt lat="17.145004190" lon="-96.440745030">
        <ele>3056.100</ele>
        <time>2020-01-20T23:49:28Z</time>
      </trkpt>
      <trkpt lat="17.144964640" lon="-96.440770310">
        <ele>3052.500</ele>
        <time>2020-01-20T23:49:29Z</time>
      </trkpt>
      <trkpt lat="17.144855550" lon="-96.440810060">
        <ele>3052.500</ele>
        <time>2020-01-20T23:49:30Z</time>
      </trkpt>
      <trkpt lat="17.144763850" lon="-96.440848940">
        <ele>3051.900</ele>
        <time>2020-01-20T23:49:31Z</time>
      </trkpt>
      <trkpt lat="17.144659950" lon="-96.440888610">
        <ele>3051.500</ele>
        <time>2020-01-20T23:49:32Z</time>
      </trkpt>
      <trkpt lat="17.144555350" lon="-96.440923690">
        <ele>3052.200</ele>
        <time>2020-01-20T23:49:33Z</time>
      </trkpt>
      <trkpt lat="17.144456440" lon="-96.440963910">
        <ele>3052.200</ele>
        <time>2020-01-20T23:49:34Z</time>
      </trkpt>
      <trkpt lat="17.144375260" lon="-96.440989990">
        <ele>3049.700</ele>
        <time>2020-01-20T23:49:35Z</time>
      </trkpt>
      <trkpt lat="17.144292300" lon="-96.441021960">
        <ele>3048.500</ele>
        <time>2020-01-20T23:49:36Z</time>
      </trkpt>
      <trkpt lat="17.144205570" lon="-96.441064930">
        <ele>3048.700</ele>
        <time>2020-01-20T23:49:37Z</time>
      </trkpt>
      <trkpt lat="17.144117670" lon="-96.441106310">
        <ele>3050.000</ele>
        <time>2020-01-20T23:49:38Z</time>
      </trkpt>
      <trkpt lat="17.144037220" lon="-96.441145600">
        <ele>3050.400</ele>
        <time>2020-01-20T23:49:39Z</time>
      </trkpt>
      <trkpt lat="17.143958620" lon="-96.441183960">
        <ele>3050.900</ele>
        <time>2020-01-20T23:49:40Z</time>
      </trkpt>
      <trkpt lat="17.143881380" lon="-96.441230280">
        <ele>3050.800</ele>
        <time>2020-01-20T23:49:41Z</time>
      </trkpt>
      <trkpt lat="17.143803720" lon="-96.441285880">
        <ele>3051.100</ele>
        <time>2020-01-20T23:49:42Z</time>
      </trkpt>
      <trkpt lat="17.143728400" lon="-96.441346880">
        <ele>3051.600</ele>
        <time>2020-01-20T23:49:43Z</time>
      </trkpt>
      <trkpt lat="17.143646380" lon="-96.441402010">
        <ele>3052.100</ele>
        <time>2020-01-20T23:49:44Z</time>
      </trkpt>
      <trkpt lat="17.143561820" lon="-96.441463040">
        <ele>3052.100</ele>
        <time>2020-01-20T23:49:45Z</time>
      </trkpt>
      <trkpt lat="17.143479580" lon="-96.441519760">
        <ele>3051.100</ele>
        <time>2020-01-20T23:49:46Z</time>
      </trkpt>
      <trkpt lat="17.143389520" lon="-96.441573760">
        <ele>3050.900</ele>
        <time>2020-01-20T23:49:47Z</time>
      </trkpt>
      <trkpt lat="17.143303050" lon="-96.441626150">
        <ele>3051.100</ele>
        <time>2020-01-20T23:49:48Z</time>
      </trkpt>
      <trkpt lat="17.143208320" lon="-96.441662330">
        <ele>3050.800</ele>
        <time>2020-01-20T23:49:49Z</time>
      </trkpt>
      <trkpt lat="17.143105060" lon="-96.441700440">
        <ele>3051.200</ele>
        <time>2020-01-20T23:49:50Z</time>
      </trkpt>
      <trkpt lat="17.143003970" lon="-96.441736600">
        <ele>3050.800</ele>
        <time>2020-01-20T23:49:51Z</time>
      </trkpt>
      <trkpt lat="17.142915210" lon="-96.441770490">
        <ele>3050.500</ele>
        <time>2020-01-20T23:49:52Z</time>
      </trkpt>
      <trkpt lat="17.142810320" lon="-96.441787110">
        <ele>3050.600</ele>
        <time>2020-01-20T23:49:53Z</time>
      </trkpt>
      <trkpt lat="17.142711260" lon="-96.441807530">
        <ele>3050.900</ele>
        <time>2020-01-20T23:49:54Z</time>
      </trkpt>
      <trkpt lat="17.142615460" lon="-96.441811190">
        <ele>3049.800</ele>
        <time>2020-01-20T23:49:55Z</time>
      </trkpt>
      <trkpt lat="17.142511620" lon="-96.441805930">
        <ele>3050.500</ele>
        <time>2020-01-20T23:49:56Z</time>
      </trkpt>
      <trkpt lat="17.142418920" lon="-96.441791430">
        <ele>3050.900</ele>
        <time>2020-01-20T23:49:57Z</time>
      </trkpt>
      <trkpt lat="17.142332080" lon="-96.441790630">
        <ele>3050.900</ele>
        <time>2020-01-20T23:49:58Z</time>
      </trkpt>
      <trkpt lat="17.142236830" lon="-96.441768690">
        <ele>3052.600</ele>
        <time>2020-01-20T23:49:59Z</time>
      </trkpt>
      <trkpt lat="17.142139820" lon="-96.441738030">
        <ele>3053.200</ele>
        <time>2020-01-20T23:50:00Z</time>
      </trkpt>
      <trkpt lat="17.142049390" lon="-96.441706310">
        <ele>3053.600</ele>
        <time>2020-01-20T23:50:01Z</time>
      </trkpt>
      <trkpt lat="17.141958490" lon="-96.441686230">
        <ele>3054.600</ele>
        <time>2020-01-20T23:50:02Z</time>
      </trkpt>
      <trkpt lat="17.141873120" lon="-96.441657610">
        <ele>3055.300</ele>
        <time>2020-01-20T23:50:03Z</time>
      </trkpt>
      <trkpt lat="17.141788020" lon="-96.441631740">
        <ele>3055.800</ele>
        <time>2020-01-20T23:50:04Z</time>
      </trkpt>
      <trkpt lat="17.141714710" lon="-96.441600510">
        <ele>3056.100</ele>
        <time>2020-01-20T23:50:05Z</time>
      </trkpt>
      <trkpt lat="17.141635080" lon="-96.441558600">
        <ele>3058.200</ele>
        <time>2020-01-20T23:50:06Z</time>
      </trkpt>
      <trkpt lat="17.141560850" lon="-96.441519570">
        <ele>3058.000</ele>
        <time>2020-01-20T23:50:07Z</time>
      </trkpt>
      <trkpt lat="17.141487000" lon="-96.441467550">
        <ele>3058.500</ele>
        <time>2020-01-20T23:50:08Z</time>
      </trkpt>
      <trkpt lat="17.141414990" lon="-96.441412800">
        <ele>3058.900</ele>
        <time>2020-01-20T23:50:09Z</time>
      </trkpt>
      <trkpt lat="17.141345390" lon="-96.441355280">
        <ele>3059.600</ele>
        <time>2020-01-20T23:50:10Z</time>
      </trkpt>
      <trkpt lat="17.141277790" lon="-96.441302590">
        <ele>3060.200</ele>
        <time>2020-01-20T23:50:11Z</time>
      </trkpt>
      <trkpt lat="17.141206900" lon="-96.441262970">
        <ele>3060.600</ele>
        <time>2020-01-20T23:50:12Z</time>
      </trkpt>
      <trkpt lat="17.141135600" lon="-96.441236190">
        <ele>3059.500</ele>
        <time>2020-01-20T23:50:13Z</time>
      </trkpt>
      <trkpt lat="17.141068350" lon="-96.441213240">
        <ele>3059.300</ele>
        <time>2020-01-20T23:50:14Z</time>
      </trkpt>
      <trkpt lat="17.140989870" lon="-96.441211710">
        <ele>3058.100</ele>
        <time>2020-01-20T23:50:15Z</time>
      </trkpt>
      <trkpt lat="17.140900800" lon="-96.441211180">
        <ele>3059.700</ele>
        <time>2020-01-20T23:50:16Z</time>
      </trkpt>
      <trkpt lat="17.140822820" lon="-96.441216810">
        <ele>3060.500</ele>
        <time>2020-01-20T23:50:17Z</time>
      </trkpt>
      <trkpt lat="17.140748430" lon="-96.441223360">
        <ele>3059.400</ele>
        <time>2020-01-20T23:50:18Z</time>
      </trkpt>
      <trkpt lat="17.140664550" lon="-96.441241040">
        <ele>3060.800</ele>
        <time>2020-01-20T23:50:19Z</time>
      </trkpt>
      <trkpt lat="17.140581300" lon="-96.441251220">
        <ele>3061.300</ele>
        <time>2020-01-20T23:50:20Z</time>
      </trkpt>
      <trkpt lat="17.140506310" lon="-96.441237740">
        <ele>3062.700</ele>
        <time>2020-01-20T23:50:21Z</time>
      </trkpt>
      <trkpt lat="17.140423720" lon="-96.441253330">
        <ele>3063.200</ele>
        <time>2020-01-20T23:50:22Z</time>
      </trkpt>
      <trkpt lat="17.140353700" lon="-96.441241090">
        <ele>3062.900</ele>
        <time>2020-01-20T23:50:23Z</time>
      </trkpt>
      <trkpt lat="17.140282310" lon="-96.441216430">
        <ele>3063.100</ele>
        <time>2020-01-20T23:50:24Z</time>
      </trkpt>
      <trkpt lat="17.140211270" lon="-96.441179360">
        <ele>3063.800</ele>
        <time>2020-01-20T23:50:25Z</time>
      </trkpt>
      <trkpt lat="17.140151530" lon="-96.441147680">
        <ele>3066.200</ele>
        <time>2020-01-20T23:50:26Z</time>
      </trkpt>
      <trkpt lat="17.140097890" lon="-96.441087110">
        <ele>3067.500</ele>
        <time>2020-01-20T23:50:27Z</time>
      </trkpt>
      <trkpt lat="17.140039360" lon="-96.441032070">
        <ele>3067.600</ele>
        <time>2020-01-20T23:50:28Z</time>
      </trkpt>
      <trkpt lat="17.139980350" lon="-96.440976010">
        <ele>3069.100</ele>
        <time>2020-01-20T23:50:29Z</time>
      </trkpt>
      <trkpt lat="17.139915060" lon="-96.440930810">
        <ele>3069.300</ele>
        <time>2020-01-20T23:50:30Z</time>
      </trkpt>
      <trkpt lat="17.139856580" lon="-96.440876020">
        <ele>3070.000</ele>
        <time>2020-01-20T23:50:31Z</time>
      </trkpt>
      <trkpt lat="17.139793880" lon="-96.440825390">
        <ele>3069.700</ele>
        <time>2020-01-20T23:50:32Z</time>
      </trkpt>
      <trkpt lat="17.139730180" lon="-96.440778480">
        <ele>3071.200</ele>
        <time>2020-01-20T23:50:33Z</time>
      </trkpt>
      <trkpt lat="17.139652150" lon="-96.440725940">
        <ele>3071.800</ele>
        <time>2020-01-20T23:50:34Z</time>
      </trkpt>
      <trkpt lat="17.139581900" lon="-96.440672310">
        <ele>3072.100</ele>
        <time>2020-01-20T23:50:35Z</time>
      </trkpt>
      <trkpt lat="17.139502620" lon="-96.440638540">
        <ele>3073.600</ele>
        <time>2020-01-20T23:50:36Z</time>
      </trkpt>
      <trkpt lat="17.139407450" lon="-96.440605210">
        <ele>3074.800</ele>
        <time>2020-01-20T23:50:37Z</time>
      </trkpt>
      <trkpt lat="17.139342500" lon="-96.440558680">
        <ele>3075.200</ele>
        <time>2020-01-20T23:50:38Z</time>
      </trkpt>
      <trkpt lat="17.139263220" lon="-96.440505210">
        <ele>3074.800</ele>
        <time>2020-01-20T23:50:39Z</time>
      </trkpt>
      <trkpt lat="17.139181090" lon="-96.440457330">
        <ele>3074.400</ele>
        <time>2020-01-20T23:50:40Z</time>
      </trkpt>
      <trkpt lat="17.139095010" lon="-96.440410400">
        <ele>3076.300</ele>
        <time>2020-01-20T23:50:41Z</time>
      </trkpt>
      <trkpt lat="17.138997260" lon="-96.440390360">
        <ele>3077.000</ele>
        <time>2020-01-20T23:50:42Z</time>
      </trkpt>
      <trkpt lat="17.138903800" lon="-96.440367280">
        <ele>3075.900</ele>
        <time>2020-01-20T23:50:43Z</time>
      </trkpt>
      <trkpt lat="17.138815670" lon="-96.440333940">
        <ele>3075.000</ele>
        <time>2020-01-20T23:50:44Z</time>
      </trkpt>
      <trkpt lat="17.138722320" lon="-96.440317090">
        <ele>3075.200</ele>
        <time>2020-01-20T23:50:45Z</time>
      </trkpt>
      <trkpt lat="17.138640240" lon="-96.440320130">
        <ele>3074.600</ele>
        <time>2020-01-20T23:50:46Z</time>
      </trkpt>
      <trkpt lat="17.138553690" lon="-96.440324370">
        <ele>3074.700</ele>
        <time>2020-01-20T23:50:47Z</time>
      </trkpt>
      <trkpt lat="17.138459940" lon="-96.440304650">
        <ele>3075.300</ele>
        <time>2020-01-20T23:50:48Z</time>
      </trkpt>
      <trkpt lat="17.138379110" lon="-96.440268450">
        <ele>3077.000</ele>
        <time>2020-01-20T23:50:49Z</time>
      </trkpt>
      <trkpt lat="17.138315090" lon="-96.440236700">
        <ele>3076.500</ele>
        <time>2020-01-20T23:50:50Z</time>
      </trkpt>
      <trkpt lat="17.138241680" lon="-96.440203240">
        <ele>3077.100</ele>
        <time>2020-01-20T23:50:51Z</time>
      </trkpt>
      <trkpt lat="17.138195080" lon="-96.440122520">
        <ele>3078.600</ele>
        <time>2020-01-20T23:50:52Z</time>
      </trkpt>
      <trkpt lat="17.138145790" lon="-96.440065540">
        <ele>3079.900</ele>
        <time>2020-01-20T23:50:53Z</time>
      </trkpt>
      <trkpt lat="17.138105160" lon="-96.440008670">
        <ele>3080.700</ele>
        <time>2020-01-20T23:50:54Z</time>
      </trkpt>
      <trkpt lat="17.138046450" lon="-96.439953150">
        <ele>3081.000</ele>
        <time>2020-01-20T23:50:55Z</time>
      </trkpt>
      <trkpt lat="17.137986460" lon="-96.439914970">
        <ele>3081.200</ele>
        <time>2020-01-20T23:50:56Z</time>
      </trkpt>
      <trkpt lat="17.137912020" lon="-96.439890760">
        <ele>3082.900</ele>
        <time>2020-01-20T23:50:57Z</time>
      </trkpt>
      <trkpt lat="17.137832770" lon="-96.439886950">
        <ele>3083.400</ele>
        <time>2020-01-20T23:50:58Z</time>
      </trkpt>
      <trkpt lat="17.137752960" lon="-96.439895860">
        <ele>3083.900</ele>
        <time>2020-01-20T23:50:59Z</time>
      </trkpt>
      <trkpt lat="17.137669380" lon="-96.439915860">
        <ele>3083.500</ele>
        <time>2020-01-20T23:51:00Z</time>
      </trkpt>
      <trkpt lat="17.137567850" lon="-96.439933280">
        <ele>3084.500</ele>
        <time>2020-01-20T23:51:01Z</time>
      </trkpt>
      <trkpt lat="17.137480560" lon="-96.439960240">
        <ele>3084.400</ele>
        <time>2020-01-20T23:51:02Z</time>
      </trkpt>
      <trkpt lat="17.137391600" lon="-96.439988690">
        <ele>3084.700</ele>
        <time>2020-01-20T23:51:03Z</time>
      </trkpt>
      <trkpt lat="17.137308190" lon="-96.439999450">
        <ele>3085.100</ele>
        <time>2020-01-20T23:51:04Z</time>
      </trkpt>
      <trkpt lat="17.137229880" lon="-96.440008890">
        <ele>3085.400</ele>
        <time>2020-01-20T23:51:05Z</time>
      </trkpt>
      <trkpt lat="17.137151050" lon="-96.439999470">
        <ele>3085.800</ele>
        <time>2020-01-20T23:51:06Z</time>
      </trkpt>
      <trkpt lat="17.137080540" lon="-96.439975970">
        <ele>3085.900</ele>
        <time>2020-01-20T23:51:07Z</time>
      </trkpt>
      <trkpt lat="17.137015820" lon="-96.439950790">
        <ele>3086.300</ele>
        <time>2020-01-20T23:51:08Z</time>
      </trkpt>
      <trkpt lat="17.136945820" lon="-96.439915340">
        <ele>3085.800</ele>
        <time>2020-01-20T23:51:09Z</time>
      </trkpt>
      <trkpt lat="17.136876230" lon="-96.439899040">
        <ele>3085.500</ele>
        <time>2020-01-20T23:51:10Z</time>
      </trkpt>
      <trkpt lat="17.136799840" lon="-96.439874220">
        <ele>3086.900</ele>
        <time>2020-01-20T23:51:11Z</time>
      </trkpt>
      <trkpt lat="17.136723460" lon="-96.439849100">
        <ele>3086.600</ele>
        <time>2020-01-20T23:51:12Z</time>
      </trkpt>
      <trkpt lat="17.136647180" lon="-96.439821950">
        <ele>3087.100</ele>
        <time>2020-01-20T23:51:13Z</time>
      </trkpt>
      <trkpt lat="17.136579290" lon="-96.439792140">
        <ele>3085.300</ele>
        <time>2020-01-20T23:51:14Z</time>
      </trkpt>
      <trkpt lat="17.136508060" lon="-96.439749560">
        <ele>3085.300</ele>
        <time>2020-01-20T23:51:15Z</time>
      </trkpt>
      <trkpt lat="17.136434630" lon="-96.439697440">
        <ele>3085.800</ele>
        <time>2020-01-20T23:51:16Z</time>
      </trkpt>
      <trkpt lat="17.136364110" lon="-96.439640570">
        <ele>3085.500</ele>
        <time>2020-01-20T23:51:17Z</time>
      </trkpt>
      <trkpt lat="17.136286810" lon="-96.439586860">
        <ele>3085.700</ele>
        <time>2020-01-20T23:51:18Z</time>
      </trkpt>
      <trkpt lat="17.136213700" lon="-96.439537510">
        <ele>3086.400</ele>
        <time>2020-01-20T23:51:19Z</time>
      </trkpt>
      <trkpt lat="17.136135700" lon="-96.439485100">
        <ele>3086.500</ele>
        <time>2020-01-20T23:51:20Z</time>
      </trkpt>
      <trkpt lat="17.136055620" lon="-96.439437300">
        <ele>3087.000</ele>
        <time>2020-01-20T23:51:21Z</time>
      </trkpt>
      <trkpt lat="17.135969870" lon="-96.439394460">
        <ele>3087.600</ele>
        <time>2020-01-20T23:51:22Z</time>
      </trkpt>
      <trkpt lat="17.135881420" lon="-96.439352250">
        <ele>3088.500</ele>
        <time>2020-01-20T23:51:23Z</time>
      </trkpt>
      <trkpt lat="17.135801000" lon="-96.439311940">
        <ele>3089.400</ele>
        <time>2020-01-20T23:51:24Z</time>
      </trkpt>
      <trkpt lat="17.135714370" lon="-96.439280900">
        <ele>3089.600</ele>
        <time>2020-01-20T23:51:25Z</time>
      </trkpt>
      <trkpt lat="17.135627480" lon="-96.439255160">
        <ele>3089.600</ele>
        <time>2020-01-20T23:51:26Z</time>
      </trkpt>
      <trkpt lat="17.135542340" lon="-96.439234710">
        <ele>3090.600</ele>
        <time>2020-01-20T23:51:27Z</time>
      </trkpt>
      <trkpt lat="17.135460830" lon="-96.439208950">
        <ele>3090.500</ele>
        <time>2020-01-20T23:51:28Z</time>
      </trkpt>
      <trkpt lat="17.135382630" lon="-96.439189840">
        <ele>3090.600</ele>
        <time>2020-01-20T23:51:29Z</time>
      </trkpt>
      <trkpt lat="17.135303610" lon="-96.439175880">
        <ele>3091.600</ele>
        <time>2020-01-20T23:51:30Z</time>
      </trkpt>
      <trkpt lat="17.135229670" lon="-96.439167950">
        <ele>3091.800</ele>
        <time>2020-01-20T23:51:31Z</time>
      </trkpt>
      <trkpt lat="17.135152750" lon="-96.439170040">
        <ele>3091.500</ele>
        <time>2020-01-20T23:51:32Z</time>
      </trkpt>
      <trkpt lat="17.135081420" lon="-96.439190950">
        <ele>3092.000</ele>
        <time>2020-01-20T23:51:33Z</time>
      </trkpt>
      <trkpt lat="17.135012210" lon="-96.439218310">
        <ele>3092.100</ele>
        <time>2020-01-20T23:51:34Z</time>
      </trkpt>
      <trkpt lat="17.134949150" lon="-96.439264020">
        <ele>3092.400</ele>
        <time>2020-01-20T23:51:35Z</time>
      </trkpt>
      <trkpt lat="17.134915890" lon="-96.439325360">
        <ele>3091.700</ele>
        <time>2020-01-20T23:51:36Z</time>
      </trkpt>
      <trkpt lat="17.134898990" lon="-96.439399120">
        <ele>3091.500</ele>
        <time>2020-01-20T23:51:37Z</time>
      </trkpt>
      <trkpt lat="17.134874000" lon="-96.439483940">
        <ele>3091.500</ele>
        <time>2020-01-20T23:51:38Z</time>
      </trkpt>
      <trkpt lat="17.134857510" lon="-96.439556810">
        <ele>3091.500</ele>
        <time>2020-01-20T23:51:39Z</time>
      </trkpt>
      <trkpt lat="17.134851320" lon="-96.439655980">
        <ele>3091.400</ele>
        <time>2020-01-20T23:51:40Z</time>
      </trkpt>
      <trkpt lat="17.134844500" lon="-96.439753320">
        <ele>3091.600</ele>
        <time>2020-01-20T23:51:41Z</time>
      </trkpt>
      <trkpt lat="17.134842090" lon="-96.439850350">
        <ele>3092.100</ele>
        <time>2020-01-20T23:51:42Z</time>
      </trkpt>
      <trkpt lat="17.134867740" lon="-96.439946050">
        <ele>3092.300</ele>
        <time>2020-01-20T23:51:43Z</time>
      </trkpt>
      <trkpt lat="17.134866000" lon="-96.440037780">
        <ele>3092.100</ele>
        <time>2020-01-20T23:51:44Z</time>
      </trkpt>
      <trkpt lat="17.134868040" lon="-96.440135120">
        <ele>3092.100</ele>
        <time>2020-01-20T23:51:45Z</time>
      </trkpt>
      <trkpt lat="17.134871350" lon="-96.440217160">
        <ele>3092.200</ele>
        <time>2020-01-20T23:51:46Z</time>
      </trkpt>
      <trkpt lat="17.134862660" lon="-96.440295220">
        <ele>3092.900</ele>
        <time>2020-01-20T23:51:47Z</time>
      </trkpt>
      <trkpt lat="17.134856520" lon="-96.440380310">
        <ele>3093.300</ele>
        <time>2020-01-20T23:51:48Z</time>
      </trkpt>
      <trkpt lat="17.134858210" lon="-96.440461720">
        <ele>3093.300</ele>
        <time>2020-01-20T23:51:49Z</time>
      </trkpt>
      <trkpt lat="17.134847300" lon="-96.440529530">
        <ele>3091.500</ele>
        <time>2020-01-20T23:51:50Z</time>
      </trkpt>
      <trkpt lat="17.134829680" lon="-96.440592030">
        <ele>3091.700</ele>
        <time>2020-01-20T23:51:51Z</time>
      </trkpt>
      <trkpt lat="17.134827280" lon="-96.440634970">
        <ele>3091.500</ele>
        <time>2020-01-20T23:51:52Z</time>
      </trkpt>
      <trkpt lat="17.134834420" lon="-96.440687140">
        <ele>3090.900</ele>
        <time>2020-01-20T23:51:53Z</time>
      </trkpt>
      <trkpt lat="17.134843530" lon="-96.440737350">
        <ele>3090.700</ele>
        <time>2020-01-20T23:51:54Z</time>
      </trkpt>
      <trkpt lat="17.134835640" lon="-96.440836830">
        <ele>3092.500</ele>
        <time>2020-01-20T23:51:55Z</time>
      </trkpt>
      <trkpt lat="17.134857050" lon="-96.440905640">
        <ele>3094.200</ele>
        <time>2020-01-20T23:51:56Z</time>
      </trkpt>
      <trkpt lat="17.134875570" lon="-96.440981740">
        <ele>3093.900</ele>
        <time>2020-01-20T23:51:57Z</time>
      </trkpt>
      <trkpt lat="17.134895050" lon="-96.441033150">
        <ele>3094.600</ele>
        <time>2020-01-20T23:51:58Z</time>
      </trkpt>
      <trkpt lat="17.134928560" lon="-96.441109180">
        <ele>3094.700</ele>
        <time>2020-01-20T23:51:59Z</time>
      </trkpt>
      <trkpt lat="17.134965760" lon="-96.441161810">
        <ele>3095.800</ele>
        <time>2020-01-20T23:52:00Z</time>
      </trkpt>
      <trkpt lat="17.135012400" lon="-96.441219040">
        <ele>3095.600</ele>
        <time>2020-01-20T23:52:01Z</time>
      </trkpt>
      <trkpt lat="17.135045710" lon="-96.441284830">
        <ele>3096.500</ele>
        <time>2020-01-20T23:52:02Z</time>
      </trkpt>
      <trkpt lat="17.135091240" lon="-96.441329190">
        <ele>3096.600</ele>
        <time>2020-01-20T23:52:03Z</time>
      </trkpt>
      <trkpt lat="17.135129750" lon="-96.441355000">
        <ele>3097.400</ele>
        <time>2020-01-20T23:52:04Z</time>
      </trkpt>
      <trkpt lat="17.135174040" lon="-96.441399300">
        <ele>3097.300</ele>
        <time>2020-01-20T23:52:05Z</time>
      </trkpt>
      <trkpt lat="17.135201170" lon="-96.441450910">
        <ele>3096.800</ele>
        <time>2020-01-20T23:52:06Z</time>
      </trkpt>
      <trkpt lat="17.135231860" lon="-96.441508090">
        <ele>3097.300</ele>
        <time>2020-01-20T23:52:07Z</time>
      </trkpt>
      <trkpt lat="17.135242560" lon="-96.441567770">
        <ele>3097.100</ele>
        <time>2020-01-20T23:52:08Z</time>
      </trkpt>
      <trkpt lat="17.135271710" lon="-96.441628410">
        <ele>3097.600</ele>
        <time>2020-01-20T23:52:09Z</time>
      </trkpt>
      <trkpt lat="17.135303320" lon="-96.441666240">
        <ele>3096.600</ele>
        <time>2020-01-20T23:52:10Z</time>
      </trkpt>
      <trkpt lat="17.135318040" lon="-96.441737830">
        <ele>3096.100</ele>
        <time>2020-01-20T23:52:11Z</time>
      </trkpt>
      <trkpt lat="17.135352880" lon="-96.441756110">
        <ele>3095.100</ele>
        <time>2020-01-20T23:52:12Z</time>
      </trkpt>
      <trkpt lat="17.135412680" lon="-96.441773640">
        <ele>3095.400</ele>
        <time>2020-01-20T23:52:13Z</time>
      </trkpt>
      <trkpt lat="17.135461980" lon="-96.441808610">
        <ele>3094.800</ele>
        <time>2020-01-20T23:52:14Z</time>
      </trkpt>
      <trkpt lat="17.135517560" lon="-96.441821550">
        <ele>3094.900</ele>
        <time>2020-01-20T23:52:15Z</time>
      </trkpt>
      <trkpt lat="17.135580770" lon="-96.441855690">
        <ele>3095.600</ele>
        <time>2020-01-20T23:52:16Z</time>
      </trkpt>
      <trkpt lat="17.135634070" lon="-96.441874640">
        <ele>3094.400</ele>
        <time>2020-01-20T23:52:17Z</time>
      </trkpt>
      <trkpt lat="17.135693060" lon="-96.441881690">
        <ele>3094.000</ele>
        <time>2020-01-20T23:52:18Z</time>
      </trkpt>
      <trkpt lat="17.135746930" lon="-96.441907200">
        <ele>3092.300</ele>
        <time>2020-01-20T23:52:19Z</time>
      </trkpt>
      <trkpt lat="17.135797010" lon="-96.441920010">
        <ele>3092.700</ele>
        <time>2020-01-20T23:52:20Z</time>
      </trkpt>
      <trkpt lat="17.135854310" lon="-96.441956460">
        <ele>3092.200</ele>
        <time>2020-01-20T23:52:21Z</time>
      </trkpt>
      <trkpt lat="17.135897940" lon="-96.442041730">
        <ele>3091.700</ele>
        <time>2020-01-20T23:52:22Z</time>
      </trkpt>
      <trkpt lat="17.135930770" lon="-96.442135270">
        <ele>3091.100</ele>
        <time>2020-01-20T23:52:23Z</time>
      </trkpt>
      <trkpt lat="17.135963210" lon="-96.442304260">
        <ele>3092.700</ele>
        <time>2020-01-20T23:52:24Z</time>
      </trkpt>
      <trkpt lat="17.135981250" lon="-96.442466890">
        <ele>3093.800</ele>
        <time>2020-01-20T23:52:25Z</time>
      </trkpt>
      <trkpt lat="17.136007660" lon="-96.442611930">
        <ele>3093.200</ele>
        <time>2020-01-20T23:52:26Z</time>
      </trkpt>
      <trkpt lat="17.136034620" lon="-96.442741130">
        <ele>3094.300</ele>
        <time>2020-01-20T23:52:27Z</time>
      </trkpt>
      <trkpt lat="17.136066140" lon="-96.442826290">
        <ele>3093.800</ele>
        <time>2020-01-20T23:52:28Z</time>
      </trkpt>
      <trkpt lat="17.136097610" lon="-96.442906940">
        <ele>3093.200</ele>
        <time>2020-01-20T23:52:29Z</time>
      </trkpt>
      <trkpt lat="17.136127000" lon="-96.442990440">
        <ele>3092.700</ele>
        <time>2020-01-20T23:52:30Z</time>
      </trkpt>
      <trkpt lat="17.136155990" lon="-96.443117810">
        <ele>3092.800</ele>
        <time>2020-01-20T23:52:31Z</time>
      </trkpt>
      <trkpt lat="17.136173120" lon="-96.443232280">
        <ele>3093.900</ele>
        <time>2020-01-20T23:52:32Z</time>
      </trkpt>
      <trkpt lat="17.136180690" lon="-96.443334760">
        <ele>3094.700</ele>
        <time>2020-01-20T23:52:33Z</time>
      </trkpt>
      <trkpt lat="17.136174300" lon="-96.443424780">
        <ele>3093.600</ele>
        <time>2020-01-20T23:52:34Z</time>
      </trkpt>
      <trkpt lat="17.136163940" lon="-96.443496080">
        <ele>3095.400</ele>
        <time>2020-01-20T23:52:35Z</time>
      </trkpt>
      <trkpt lat="17.136104670" lon="-96.443613040">
        <ele>3096.800</ele>
        <time>2020-01-20T23:52:36Z</time>
      </trkpt>
      <trkpt lat="17.136061520" lon="-96.443709940">
        <ele>3097.800</ele>
        <time>2020-01-20T23:52:37Z</time>
      </trkpt>
      <trkpt lat="17.136009380" lon="-96.443794310">
        <ele>3098.900</ele>
        <time>2020-01-20T23:52:38Z</time>
      </trkpt>
      <trkpt lat="17.135950160" lon="-96.443872690">
        <ele>3100.300</ele>
        <time>2020-01-20T23:52:39Z</time>
      </trkpt>
      <trkpt lat="17.135892560" lon="-96.443956050">
        <ele>3102.400</ele>
        <time>2020-01-20T23:52:40Z</time>
      </trkpt>
      <trkpt lat="17.135844950" lon="-96.444032930">
        <ele>3102.100</ele>
        <time>2020-01-20T23:52:41Z</time>
      </trkpt>
      <trkpt lat="17.135794800" lon="-96.444099390">
        <ele>3101.600</ele>
        <time>2020-01-20T23:52:42Z</time>
      </trkpt>
      <trkpt lat="17.135729290" lon="-96.444154030">
        <ele>3104.400</ele>
        <time>2020-01-20T23:52:43Z</time>
      </trkpt>
      <trkpt lat="17.135674230" lon="-96.444205060">
        <ele>3104.100</ele>
        <time>2020-01-20T23:52:44Z</time>
      </trkpt>
      <trkpt lat="17.135626800" lon="-96.444246920">
        <ele>3102.100</ele>
        <time>2020-01-20T23:52:45Z</time>
      </trkpt>
      <trkpt lat="17.135560130" lon="-96.444289190">
        <ele>3102.100</ele>
        <time>2020-01-20T23:52:46Z</time>
      </trkpt>
      <trkpt lat="17.135500450" lon="-96.444300170">
        <ele>3102.400</ele>
        <time>2020-01-20T23:52:47Z</time>
      </trkpt>
      <trkpt lat="17.135434870" lon="-96.444284900">
        <ele>3103.000</ele>
        <time>2020-01-20T23:52:48Z</time>
      </trkpt>
      <trkpt lat="17.135353020" lon="-96.444216290">
        <ele>3103.300</ele>
        <time>2020-01-20T23:52:49Z</time>
      </trkpt>
      <trkpt lat="17.135283020" lon="-96.444145540">
        <ele>3102.900</ele>
        <time>2020-01-20T23:52:50Z</time>
      </trkpt>
      <trkpt lat="17.135247700" lon="-96.444056440">
        <ele>3102.700</ele>
        <time>2020-01-20T23:52:51Z</time>
      </trkpt>
      <trkpt lat="17.135184170" lon="-96.443996100">
        <ele>3103.000</ele>
        <time>2020-01-20T23:52:52Z</time>
      </trkpt>
      <trkpt lat="17.135115860" lon="-96.443953030">
        <ele>3102.700</ele>
        <time>2020-01-20T23:52:53Z</time>
      </trkpt>
      <trkpt lat="17.135023650" lon="-96.443895210">
        <ele>3103.000</ele>
        <time>2020-01-20T23:52:54Z</time>
      </trkpt>
      <trkpt lat="17.134960260" lon="-96.443841330">
        <ele>3101.000</ele>
        <time>2020-01-20T23:52:55Z</time>
      </trkpt>
      <trkpt lat="17.134879820" lon="-96.443819940">
        <ele>3101.900</ele>
        <time>2020-01-20T23:52:56Z</time>
      </trkpt>
      <trkpt lat="17.134803990" lon="-96.443797170">
        <ele>3102.300</ele>
        <time>2020-01-20T23:52:57Z</time>
      </trkpt>
      <trkpt lat="17.134730120" lon="-96.443764310">
        <ele>3102.700</ele>
        <time>2020-01-20T23:52:58Z</time>
      </trkpt>
      <trkpt lat="17.134659890" lon="-96.443726890">
        <ele>3102.900</ele>
        <time>2020-01-20T23:52:59Z</time>
      </trkpt>
      <trkpt lat="17.134598580" lon="-96.443675280">
        <ele>3103.800</ele>
        <time>2020-01-20T23:53:00Z</time>
      </trkpt>
      <trkpt lat="17.134544050" lon="-96.443617400">
        <ele>3104.100</ele>
        <time>2020-01-20T23:53:01Z</time>
      </trkpt>
      <trkpt lat="17.134489870" lon="-96.443552480">
        <ele>3104.000</ele>
        <time>2020-01-20T23:53:02Z</time>
      </trkpt>
      <trkpt lat="17.134445170" lon="-96.443476640">
        <ele>3104.000</ele>
        <time>2020-01-20T23:53:03Z</time>
      </trkpt>
      <trkpt lat="17.134397670" lon="-96.443403340">
        <ele>3105.100</ele>
        <time>2020-01-20T23:53:04Z</time>
      </trkpt>
      <trkpt lat="17.134341820" lon="-96.443342730">
        <ele>3105.200</ele>
        <time>2020-01-20T23:53:05Z</time>
      </trkpt>
      <trkpt lat="17.134280400" lon="-96.443281720">
        <ele>3106.200</ele>
        <time>2020-01-20T23:53:06Z</time>
      </trkpt>
      <trkpt lat="17.134238380" lon="-96.443204940">
        <ele>3106.300</ele>
        <time>2020-01-20T23:53:07Z</time>
      </trkpt>
      <trkpt lat="17.134193610" lon="-96.443131110">
        <ele>3106.600</ele>
        <time>2020-01-20T23:53:08Z</time>
      </trkpt>
      <trkpt lat="17.134165560" lon="-96.443049440">
        <ele>3106.300</ele>
        <time>2020-01-20T23:53:09Z</time>
      </trkpt>
      <trkpt lat="17.134135920" lon="-96.442980910">
        <ele>3106.000</ele>
        <time>2020-01-20T23:53:10Z</time>
      </trkpt>
      <trkpt lat="17.134101160" lon="-96.442892230">
        <ele>3106.000</ele>
        <time>2020-01-20T23:53:11Z</time>
      </trkpt>
      <trkpt lat="17.134018010" lon="-96.442886870">
        <ele>3104.600</ele>
        <time>2020-01-20T23:53:12Z</time>
      </trkpt>
      <trkpt lat="17.133929690" lon="-96.442871400">
        <ele>3104.900</ele>
        <time>2020-01-20T23:53:13Z</time>
      </trkpt>
      <trkpt lat="17.133845400" lon="-96.442863380">
        <ele>3104.800</ele>
        <time>2020-01-20T23:53:14Z</time>
      </trkpt>
      <trkpt lat="17.133754040" lon="-96.442862540">
        <ele>3105.100</ele>
        <time>2020-01-20T23:53:15Z</time>
      </trkpt>
      <trkpt lat="17.133664180" lon="-96.442857360">
        <ele>3105.900</ele>
        <time>2020-01-20T23:53:16Z</time>
      </trkpt>
      <trkpt lat="17.133563780" lon="-96.442862390">
        <ele>3107.600</ele>
        <time>2020-01-20T23:53:17Z</time>
      </trkpt>
      <trkpt lat="17.133472750" lon="-96.442847790">
        <ele>3108.400</ele>
        <time>2020-01-20T23:53:18Z</time>
      </trkpt>
      <trkpt lat="17.133385530" lon="-96.442801710">
        <ele>3107.400</ele>
        <time>2020-01-20T23:53:19Z</time>
      </trkpt>
      <trkpt lat="17.133289570" lon="-96.442776880">
        <ele>3107.600</ele>
        <time>2020-01-20T23:53:20Z</time>
      </trkpt>
      <trkpt lat="17.133194700" lon="-96.442745670">
        <ele>3108.900</ele>
        <time>2020-01-20T23:53:21Z</time>
      </trkpt>
      <trkpt lat="17.133103230" lon="-96.442711630">
        <ele>3108.500</ele>
        <time>2020-01-20T23:53:22Z</time>
      </trkpt>
      <trkpt lat="17.133014070" lon="-96.442682990">
        <ele>3108.600</ele>
        <time>2020-01-20T23:53:23Z</time>
      </trkpt>
      <trkpt lat="17.132930390" lon="-96.442656810">
        <ele>3108.000</ele>
        <time>2020-01-20T23:53:24Z</time>
      </trkpt>
      <trkpt lat="17.132845170" lon="-96.442630820">
        <ele>3107.900</ele>
        <time>2020-01-20T23:53:25Z</time>
      </trkpt>
      <trkpt lat="17.132760740" lon="-96.442604160">
        <ele>3108.500</ele>
        <time>2020-01-20T23:53:26Z</time>
      </trkpt>
      <trkpt lat="17.132677980" lon="-96.442577000">
        <ele>3107.900</ele>
        <time>2020-01-20T23:53:27Z</time>
      </trkpt>
      <trkpt lat="17.132596210" lon="-96.442543120">
        <ele>3108.500</ele>
        <time>2020-01-20T23:53:28Z</time>
      </trkpt>
      <trkpt lat="17.132513010" lon="-96.442501170">
        <ele>3108.700</ele>
        <time>2020-01-20T23:53:29Z</time>
      </trkpt>
      <trkpt lat="17.132427310" lon="-96.442453600">
        <ele>3108.700</ele>
        <time>2020-01-20T23:53:30Z</time>
      </trkpt>
      <trkpt lat="17.132344720" lon="-96.442400840">
        <ele>3109.000</ele>
        <time>2020-01-20T23:53:31Z</time>
      </trkpt>
      <trkpt lat="17.132260510" lon="-96.442343030">
        <ele>3109.400</ele>
        <time>2020-01-20T23:53:32Z</time>
      </trkpt>
      <trkpt lat="17.132179570" lon="-96.442281630">
        <ele>3108.400</ele>
        <time>2020-01-20T23:53:33Z</time>
      </trkpt>
      <trkpt lat="17.132099650" lon="-96.442221560">
        <ele>3108.700</ele>
        <time>2020-01-20T23:53:34Z</time>
      </trkpt>
      <trkpt lat="17.132021230" lon="-96.442154530">
        <ele>3108.200</ele>
        <time>2020-01-20T23:53:35Z</time>
      </trkpt>
      <trkpt lat="17.131948180" lon="-96.442111790">
        <ele>3107.900</ele>
        <time>2020-01-20T23:53:36Z</time>
      </trkpt>
      <trkpt lat="17.131879640" lon="-96.442065950">
        <ele>3107.800</ele>
        <time>2020-01-20T23:53:37Z</time>
      </trkpt>
      <trkpt lat="17.131814200" lon="-96.442026240">
        <ele>3107.500</ele>
        <time>2020-01-20T23:53:38Z</time>
      </trkpt>
      <trkpt lat="17.131739220" lon="-96.441999700">
        <ele>3108.100</ele>
        <time>2020-01-20T23:53:39Z</time>
      </trkpt>
      <trkpt lat="17.131663400" lon="-96.441969900">
        <ele>3108.200</ele>
        <time>2020-01-20T23:53:40Z</time>
      </trkpt>
      <trkpt lat="17.131580450" lon="-96.441934940">
        <ele>3107.300</ele>
        <time>2020-01-20T23:53:41Z</time>
      </trkpt>
      <trkpt lat="17.131500260" lon="-96.441901220">
        <ele>3105.400</ele>
        <time>2020-01-20T23:53:42Z</time>
      </trkpt>
      <trkpt lat="17.131411140" lon="-96.441874400">
        <ele>3104.500</ele>
        <time>2020-01-20T23:53:43Z</time>
      </trkpt>
      <trkpt lat="17.131315140" lon="-96.441866320">
        <ele>3104.600</ele>
        <time>2020-01-20T23:53:44Z</time>
      </trkpt>
      <trkpt lat="17.131220920" lon="-96.441882370">
        <ele>3104.200</ele>
        <time>2020-01-20T23:53:45Z</time>
      </trkpt>
      <trkpt lat="17.131137930" lon="-96.441920330">
        <ele>3102.300</ele>
        <time>2020-01-20T23:53:46Z</time>
      </trkpt>
      <trkpt lat="17.131051320" lon="-96.441947920">
        <ele>3100.800</ele>
        <time>2020-01-20T23:53:47Z</time>
      </trkpt>
      <trkpt lat="17.130965560" lon="-96.442012580">
        <ele>3100.000</ele>
        <time>2020-01-20T23:53:48Z</time>
      </trkpt>
      <trkpt lat="17.130882940" lon="-96.442072350">
        <ele>3100.700</ele>
        <time>2020-01-20T23:53:49Z</time>
      </trkpt>
      <trkpt lat="17.130807720" lon="-96.442127300">
        <ele>3100.000</ele>
        <time>2020-01-20T23:53:50Z</time>
      </trkpt>
      <trkpt lat="17.130731330" lon="-96.442187440">
        <ele>3099.400</ele>
        <time>2020-01-20T23:53:51Z</time>
      </trkpt>
      <trkpt lat="17.130645130" lon="-96.442224970">
        <ele>3098.300</ele>
        <time>2020-01-20T23:53:52Z</time>
      </trkpt>
      <trkpt lat="17.130564260" lon="-96.442260880">
        <ele>3098.200</ele>
        <time>2020-01-20T23:53:53Z</time>
      </trkpt>
      <trkpt lat="17.130467310" lon="-96.442271680">
        <ele>3097.700</ele>
        <time>2020-01-20T23:53:54Z</time>
      </trkpt>
      <trkpt lat="17.130379030" lon="-96.442274180">
        <ele>3097.300</ele>
        <time>2020-01-20T23:53:55Z</time>
      </trkpt>
      <trkpt lat="17.130288530" lon="-96.442264650">
        <ele>3097.500</ele>
        <time>2020-01-20T23:53:56Z</time>
      </trkpt>
      <trkpt lat="17.130206710" lon="-96.442252420">
        <ele>3097.900</ele>
        <time>2020-01-20T23:53:57Z</time>
      </trkpt>
      <trkpt lat="17.130116640" lon="-96.442227870">
        <ele>3098.100</ele>
        <time>2020-01-20T23:53:58Z</time>
      </trkpt>
      <trkpt lat="17.130030060" lon="-96.442207410">
        <ele>3097.700</ele>
        <time>2020-01-20T23:53:59Z</time>
      </trkpt>
      <trkpt lat="17.129944630" lon="-96.442191570">
        <ele>3096.500</ele>
        <time>2020-01-20T23:54:00Z</time>
      </trkpt>
      <trkpt lat="17.129855330" lon="-96.442190080">
        <ele>3096.700</ele>
        <time>2020-01-20T23:54:01Z</time>
      </trkpt>
      <trkpt lat="17.129769780" lon="-96.442194100">
        <ele>3095.800</ele>
        <time>2020-01-20T23:54:02Z</time>
      </trkpt>
      <trkpt lat="17.129723600" lon="-96.442206220">
        <ele>3096.300</ele>
        <time>2020-01-20T23:54:03Z</time>
      </trkpt>
      <trkpt lat="17.129672860" lon="-96.442233150">
        <ele>3096.000</ele>
        <time>2020-01-20T23:54:04Z</time>
      </trkpt>
      <trkpt lat="17.129630960" lon="-96.442262290">
        <ele>3097.900</ele>
        <time>2020-01-20T23:54:05Z</time>
      </trkpt>
      <trkpt lat="17.129596930" lon="-96.442310640">
        <ele>3096.500</ele>
        <time>2020-01-20T23:54:06Z</time>
      </trkpt>
      <trkpt lat="17.129564650" lon="-96.442355680">
        <ele>3096.900</ele>
        <time>2020-01-20T23:54:07Z</time>
      </trkpt>
      <trkpt lat="17.129538620" lon="-96.442415790">
        <ele>3096.900</ele>
        <time>2020-01-20T23:54:08Z</time>
      </trkpt>
      <trkpt lat="17.129526450" lon="-96.442482340">
        <ele>3097.200</ele>
        <time>2020-01-20T23:54:09Z</time>
      </trkpt>
      <trkpt lat="17.129518570" lon="-96.442552550">
        <ele>3098.000</ele>
        <time>2020-01-20T23:54:10Z</time>
      </trkpt>
      <trkpt lat="17.129519500" lon="-96.442625490">
        <ele>3098.700</ele>
        <time>2020-01-20T23:54:11Z</time>
      </trkpt>
      <trkpt lat="17.129517910" lon="-96.442685970">
        <ele>3099.100</ele>
        <time>2020-01-20T23:54:12Z</time>
      </trkpt>
      <trkpt lat="17.129523890" lon="-96.442737010">
        <ele>3099.300</ele>
        <time>2020-01-20T23:54:13Z</time>
      </trkpt>
      <trkpt lat="17.129536890" lon="-96.442806840">
        <ele>3100.600</ele>
        <time>2020-01-20T23:54:14Z</time>
      </trkpt>
      <trkpt lat="17.129544620" lon="-96.442891800">
        <ele>3100.700</ele>
        <time>2020-01-20T23:54:15Z</time>
      </trkpt>
      <trkpt lat="17.129565230" lon="-96.442955330">
        <ele>3100.300</ele>
        <time>2020-01-20T23:54:16Z</time>
      </trkpt>
      <trkpt lat="17.129577860" lon="-96.443026790">
        <ele>3100.800</ele>
        <time>2020-01-20T23:54:17Z</time>
      </trkpt>
      <trkpt lat="17.129603870" lon="-96.443087440">
        <ele>3100.400</ele>
        <time>2020-01-20T23:54:18Z</time>
      </trkpt>
      <trkpt lat="17.129628880" lon="-96.443172920">
        <ele>3100.000</ele>
        <time>2020-01-20T23:54:19Z</time>
      </trkpt>
      <trkpt lat="17.129646780" lon="-96.443248370">
        <ele>3099.700</ele>
        <time>2020-01-20T23:54:20Z</time>
      </trkpt>
      <trkpt lat="17.129684100" lon="-96.443311370">
        <ele>3100.100</ele>
        <time>2020-01-20T23:54:21Z</time>
      </trkpt>
      <trkpt lat="17.129711430" lon="-96.443363690">
        <ele>3100.700</ele>
        <time>2020-01-20T23:54:22Z</time>
      </trkpt>
      <trkpt lat="17.129748870" lon="-96.443421020">
        <ele>3101.300</ele>
        <time>2020-01-20T23:54:23Z</time>
      </trkpt>
      <trkpt lat="17.129782170" lon="-96.443527050">
        <ele>3101.500</ele>
        <time>2020-01-20T23:54:24Z</time>
      </trkpt>
      <trkpt lat="17.129799200" lon="-96.443607110">
        <ele>3101.600</ele>
        <time>2020-01-20T23:54:25Z</time>
      </trkpt>
      <trkpt lat="17.129836050" lon="-96.443710830">
        <ele>3102.000</ele>
        <time>2020-01-20T23:54:26Z</time>
      </trkpt>
      <trkpt lat="17.129866290" lon="-96.443794150">
        <ele>3102.600</ele>
        <time>2020-01-20T23:54:27Z</time>
      </trkpt>
      <trkpt lat="17.129904960" lon="-96.443871450">
        <ele>3104.100</ele>
        <time>2020-01-20T23:54:28Z</time>
      </trkpt>
      <trkpt lat="17.129949290" lon="-96.443955500">
        <ele>3104.800</ele>
        <time>2020-01-20T23:54:29Z</time>
      </trkpt>
      <trkpt lat="17.129999710" lon="-96.444041850">
        <ele>3104.900</ele>
        <time>2020-01-20T23:54:30Z</time>
      </trkpt>
      <trkpt lat="17.130056480" lon="-96.444127060">
        <ele>3103.800</ele>
        <time>2020-01-20T23:54:31Z</time>
      </trkpt>
      <trkpt lat="17.130101350" lon="-96.444200160">
        <ele>3104.400</ele>
        <time>2020-01-20T23:54:32Z</time>
      </trkpt>
      <trkpt lat="17.130137760" lon="-96.444268750">
        <ele>3104.800</ele>
        <time>2020-01-20T23:54:33Z</time>
      </trkpt>
      <trkpt lat="17.130176190" lon="-96.444323120">
        <ele>3104.500</ele>
        <time>2020-01-20T23:54:34Z</time>
      </trkpt>
      <trkpt lat="17.130202510" lon="-96.444385750">
        <ele>3104.600</ele>
        <time>2020-01-20T23:54:35Z</time>
      </trkpt>
      <trkpt lat="17.130223020" lon="-96.444443350">
        <ele>3104.900</ele>
        <time>2020-01-20T23:54:36Z</time>
      </trkpt>
      <trkpt lat="17.130223780" lon="-96.444508330">
        <ele>3105.100</ele>
        <time>2020-01-20T23:54:37Z</time>
      </trkpt>
      <trkpt lat="17.130223130" lon="-96.444571090">
        <ele>3105.400</ele>
        <time>2020-01-20T23:54:38Z</time>
      </trkpt>
      <trkpt lat="17.130198390" lon="-96.444627710">
        <ele>3104.200</ele>
        <time>2020-01-20T23:54:39Z</time>
      </trkpt>
      <trkpt lat="17.130156170" lon="-96.444660180">
        <ele>3103.200</ele>
        <time>2020-01-20T23:54:40Z</time>
      </trkpt>
      <trkpt lat="17.130098660" lon="-96.444684930">
        <ele>3103.300</ele>
        <time>2020-01-20T23:54:41Z</time>
      </trkpt>
      <trkpt lat="17.130025210" lon="-96.444713160">
        <ele>3104.200</ele>
        <time>2020-01-20T23:54:42Z</time>
      </trkpt>
      <trkpt lat="17.129962450" lon="-96.444718730">
        <ele>3104.100</ele>
        <time>2020-01-20T23:54:43Z</time>
      </trkpt>
      <trkpt lat="17.129897600" lon="-96.444726490">
        <ele>3104.000</ele>
        <time>2020-01-20T23:54:44Z</time>
      </trkpt>
      <trkpt lat="17.129807430" lon="-96.444690000">
        <ele>3105.200</ele>
        <time>2020-01-20T23:54:45Z</time>
      </trkpt>
      <trkpt lat="17.129738420" lon="-96.444623190">
        <ele>3103.400</ele>
        <time>2020-01-20T23:54:46Z</time>
      </trkpt>
      <trkpt lat="17.129684510" lon="-96.444585620">
        <ele>3103.000</ele>
        <time>2020-01-20T23:54:47Z</time>
      </trkpt>
      <trkpt lat="17.129604840" lon="-96.444567100">
        <ele>3103.300</ele>
        <time>2020-01-20T23:54:48Z</time>
      </trkpt>
      <trkpt lat="17.129535700" lon="-96.444504960">
        <ele>3102.800</ele>
        <time>2020-01-20T23:54:49Z</time>
      </trkpt>
      <trkpt lat="17.129483970" lon="-96.444454800">
        <ele>3102.300</ele>
        <time>2020-01-20T23:54:50Z</time>
      </trkpt>
      <trkpt lat="17.129445750" lon="-96.444422700">
        <ele>3101.800</ele>
        <time>2020-01-20T23:54:51Z</time>
      </trkpt>
      <trkpt lat="17.129403870" lon="-96.444392910">
        <ele>3101.600</ele>
        <time>2020-01-20T23:54:52Z</time>
      </trkpt>
      <trkpt lat="17.129372230" lon="-96.444369870">
        <ele>3101.500</ele>
        <time>2020-01-20T23:54:53Z</time>
      </trkpt>
      <trkpt lat="17.129324070" lon="-96.444332330">
        <ele>3102.900</ele>
        <time>2020-01-20T23:54:54Z</time>
      </trkpt>
      <trkpt lat="17.129278780" lon="-96.444300450">
        <ele>3100.700</ele>
        <time>2020-01-20T23:54:55Z</time>
      </trkpt>
      <trkpt lat="17.129241630" lon="-96.444266100">
        <ele>3101.900</ele>
        <time>2020-01-20T23:54:56Z</time>
      </trkpt>
      <trkpt lat="17.129196020" lon="-96.444233450">
        <ele>3101.600</ele>
        <time>2020-01-20T23:54:57Z</time>
      </trkpt>
      <trkpt lat="17.129104500" lon="-96.444213120">
        <ele>3099.400</ele>
        <time>2020-01-20T23:54:58Z</time>
      </trkpt>
      <trkpt lat="17.129052110" lon="-96.444167420">
        <ele>3100.000</ele>
        <time>2020-01-20T23:54:59Z</time>
      </trkpt>
      <trkpt lat="17.129013330" lon="-96.444145290">
        <ele>3099.700</ele>
        <time>2020-01-20T23:55:00Z</time>
      </trkpt>
      <trkpt lat="17.128924610" lon="-96.444080150">
        <ele>3100.000</ele>
        <time>2020-01-20T23:55:01Z</time>
      </trkpt>
      <trkpt lat="17.128847020" lon="-96.444026800">
        <ele>3098.500</ele>
        <time>2020-01-20T23:55:02Z</time>
      </trkpt>
      <trkpt lat="17.128742710" lon="-96.443983140">
        <ele>3096.800</ele>
        <time>2020-01-20T23:55:03Z</time>
      </trkpt>
      <trkpt lat="17.128648450" lon="-96.443953840">
        <ele>3095.600</ele>
        <time>2020-01-20T23:55:04Z</time>
      </trkpt>
      <trkpt lat="17.128561100" lon="-96.443884260">
        <ele>3095.600</ele>
        <time>2020-01-20T23:55:05Z</time>
      </trkpt>
      <trkpt lat="17.128484680" lon="-96.443857030">
        <ele>3095.400</ele>
        <time>2020-01-20T23:55:06Z</time>
      </trkpt>
      <trkpt lat="17.128406130" lon="-96.443826270">
        <ele>3097.300</ele>
        <time>2020-01-20T23:55:07Z</time>
      </trkpt>
      <trkpt lat="17.128335450" lon="-96.443792700">
        <ele>3099.400</ele>
        <time>2020-01-20T23:55:08Z</time>
      </trkpt>
      <trkpt lat="17.128265300" lon="-96.443774590">
        <ele>3100.500</ele>
        <time>2020-01-20T23:55:09Z</time>
      </trkpt>
      <trkpt lat="17.128187120" lon="-96.443781690">
        <ele>3102.800</ele>
        <time>2020-01-20T23:55:10Z</time>
      </trkpt>
      <trkpt lat="17.128112440" lon="-96.443786180">
        <ele>3104.700</ele>
        <time>2020-01-20T23:55:11Z</time>
      </trkpt>
      <trkpt lat="17.128036510" lon="-96.443835980">
        <ele>3104.900</ele>
        <time>2020-01-20T23:55:12Z</time>
      </trkpt>
      <trkpt lat="17.127979930" lon="-96.443879740">
        <ele>3105.200</ele>
        <time>2020-01-20T23:55:13Z</time>
      </trkpt>
      <trkpt lat="17.127926660" lon="-96.443932190">
        <ele>3106.100</ele>
        <time>2020-01-20T23:55:14Z</time>
      </trkpt>
      <trkpt lat="17.127873900" lon="-96.443980200">
        <ele>3106.700</ele>
        <time>2020-01-20T23:55:15Z</time>
      </trkpt>
      <trkpt lat="17.127813760" lon="-96.444038900">
        <ele>3107.200</ele>
        <time>2020-01-20T23:55:16Z</time>
      </trkpt>
      <trkpt lat="17.127754430" lon="-96.444085120">
        <ele>3107.600</ele>
        <time>2020-01-20T23:55:17Z</time>
      </trkpt>
      <trkpt lat="17.127703640" lon="-96.444147590">
        <ele>3109.600</ele>
        <time>2020-01-20T23:55:18Z</time>
      </trkpt>
      <trkpt lat="17.127650870" lon="-96.444203180">
        <ele>3110.100</ele>
        <time>2020-01-20T23:55:19Z</time>
      </trkpt>
      <trkpt lat="17.127604050" lon="-96.444263060">
        <ele>3111.300</ele>
        <time>2020-01-20T23:55:20Z</time>
      </trkpt>
      <trkpt lat="17.127558270" lon="-96.444322020">
        <ele>3112.100</ele>
        <time>2020-01-20T23:55:21Z</time>
      </trkpt>
      <trkpt lat="17.127512040" lon="-96.444380980">
        <ele>3112.400</ele>
        <time>2020-01-20T23:55:22Z</time>
      </trkpt>
      <trkpt lat="17.127466330" lon="-96.444444350">
        <ele>3111.900</ele>
        <time>2020-01-20T23:55:23Z</time>
      </trkpt>
      <trkpt lat="17.127425460" lon="-96.444507360">
        <ele>3111.700</ele>
        <time>2020-01-20T23:55:24Z</time>
      </trkpt>
      <trkpt lat="17.127378080" lon="-96.444565850">
        <ele>3111.400</ele>
        <time>2020-01-20T23:55:25Z</time>
      </trkpt>
      <trkpt lat="17.127330850" lon="-96.444639670">
        <ele>3111.300</ele>
        <time>2020-01-20T23:55:26Z</time>
      </trkpt>
      <trkpt lat="17.127279840" lon="-96.444704940">
        <ele>3112.700</ele>
        <time>2020-01-20T23:55:27Z</time>
      </trkpt>
      <trkpt lat="17.127224850" lon="-96.444763700">
        <ele>3113.300</ele>
        <time>2020-01-20T23:55:28Z</time>
      </trkpt>
      <trkpt lat="17.127176860" lon="-96.444807610">
        <ele>3114.800</ele>
        <time>2020-01-20T23:55:29Z</time>
      </trkpt>
      <trkpt lat="17.127110930" lon="-96.444839400">
        <ele>3114.900</ele>
        <time>2020-01-20T23:55:30Z</time>
      </trkpt>
      <trkpt lat="17.127044090" lon="-96.444854600">
        <ele>3117.200</ele>
        <time>2020-01-20T23:55:31Z</time>
      </trkpt>
      <trkpt lat="17.126974380" lon="-96.444858350">
        <ele>3117.800</ele>
        <time>2020-01-20T23:55:32Z</time>
      </trkpt>
      <trkpt lat="17.126898680" lon="-96.444852380">
        <ele>3118.300</ele>
        <time>2020-01-20T23:55:33Z</time>
      </trkpt>
      <trkpt lat="17.126816620" lon="-96.444821300">
        <ele>3119.500</ele>
        <time>2020-01-20T23:55:34Z</time>
      </trkpt>
      <trkpt lat="17.126753650" lon="-96.444755600">
        <ele>3119.600</ele>
        <time>2020-01-20T23:55:35Z</time>
      </trkpt>
      <trkpt lat="17.126693720" lon="-96.444711570">
        <ele>3119.700</ele>
        <time>2020-01-20T23:55:36Z</time>
      </trkpt>
      <trkpt lat="17.126635000" lon="-96.444659290">
        <ele>3119.600</ele>
        <time>2020-01-20T23:55:37Z</time>
      </trkpt>
      <trkpt lat="17.126570260" lon="-96.444586550">
        <ele>3118.500</ele>
        <time>2020-01-20T23:55:38Z</time>
      </trkpt>
      <trkpt lat="17.126495440" lon="-96.444495750">
        <ele>3119.100</ele>
        <time>2020-01-20T23:55:39Z</time>
      </trkpt>
      <trkpt lat="17.126441130" lon="-96.444436780">
        <ele>3121.300</ele>
        <time>2020-01-20T23:55:40Z</time>
      </trkpt>
      <trkpt lat="17.126385290" lon="-96.444385920">
        <ele>3122.600</ele>
        <time>2020-01-20T23:55:41Z</time>
      </trkpt>
      <trkpt lat="17.126320960" lon="-96.444339850">
        <ele>3124.800</ele>
        <time>2020-01-20T23:55:42Z</time>
      </trkpt>
      <trkpt lat="17.126279360" lon="-96.444307850">
        <ele>3126.100</ele>
        <time>2020-01-20T23:55:43Z</time>
      </trkpt>
      <trkpt lat="17.126200000" lon="-96.444288360">
        <ele>3127.400</ele>
        <time>2020-01-20T23:55:44Z</time>
      </trkpt>
      <trkpt lat="17.126137440" lon="-96.444285350">
        <ele>3127.000</ele>
        <time>2020-01-20T23:55:45Z</time>
      </trkpt>
      <trkpt lat="17.126079310" lon="-96.444283590">
        <ele>3128.500</ele>
        <time>2020-01-20T23:55:46Z</time>
      </trkpt>
      <trkpt lat="17.126000480" lon="-96.444293140">
        <ele>3130.000</ele>
        <time>2020-01-20T23:55:47Z</time>
      </trkpt>
      <trkpt lat="17.125918090" lon="-96.444311290">
        <ele>3130.100</ele>
        <time>2020-01-20T23:55:48Z</time>
      </trkpt>
      <trkpt lat="17.125837660" lon="-96.444322410">
        <ele>3131.500</ele>
        <time>2020-01-20T23:55:49Z</time>
      </trkpt>
      <trkpt lat="17.125758760" lon="-96.444342980">
        <ele>3133.200</ele>
        <time>2020-01-20T23:55:50Z</time>
      </trkpt>
      <trkpt lat="17.125685130" lon="-96.444346420">
        <ele>3132.900</ele>
        <time>2020-01-20T23:55:51Z</time>
      </trkpt>
      <trkpt lat="17.125616610" lon="-96.444359510">
        <ele>3132.900</ele>
        <time>2020-01-20T23:55:52Z</time>
      </trkpt>
      <trkpt lat="17.125553260" lon="-96.444386470">
        <ele>3131.900</ele>
        <time>2020-01-20T23:55:53Z</time>
      </trkpt>
      <trkpt lat="17.125492310" lon="-96.444410250">
        <ele>3130.700</ele>
        <time>2020-01-20T23:55:54Z</time>
      </trkpt>
      <trkpt lat="17.125405100" lon="-96.444438350">
        <ele>3130.300</ele>
        <time>2020-01-20T23:55:55Z</time>
      </trkpt>
      <trkpt lat="17.125325950" lon="-96.444471350">
        <ele>3130.400</ele>
        <time>2020-01-20T23:55:56Z</time>
      </trkpt>
      <trkpt lat="17.125255370" lon="-96.444498270">
        <ele>3130.600</ele>
        <time>2020-01-20T23:55:57Z</time>
      </trkpt>
      <trkpt lat="17.125160210" lon="-96.444547410">
        <ele>3132.100</ele>
        <time>2020-01-20T23:55:58Z</time>
      </trkpt>
      <trkpt lat="17.125078240" lon="-96.444595230">
        <ele>3133.000</ele>
        <time>2020-01-20T23:55:59Z</time>
      </trkpt>
      <trkpt lat="17.124991930" lon="-96.444632410">
        <ele>3133.300</ele>
        <time>2020-01-20T23:56:00Z</time>
      </trkpt>
      <trkpt lat="17.124910080" lon="-96.444674620">
        <ele>3134.300</ele>
        <time>2020-01-20T23:56:01Z</time>
      </trkpt>
      <trkpt lat="17.124829510" lon="-96.444706030">
        <ele>3134.200</ele>
        <time>2020-01-20T23:56:02Z</time>
      </trkpt>
      <trkpt lat="17.124746880" lon="-96.444741360">
        <ele>3134.400</ele>
        <time>2020-01-20T23:56:03Z</time>
      </trkpt>
      <trkpt lat="17.124668490" lon="-96.444776410">
        <ele>3135.000</ele>
        <time>2020-01-20T23:56:04Z</time>
      </trkpt>
      <trkpt lat="17.124590610" lon="-96.444805180">
        <ele>3135.600</ele>
        <time>2020-01-20T23:56:05Z</time>
      </trkpt>
      <trkpt lat="17.124515380" lon="-96.444836810">
        <ele>3135.000</ele>
        <time>2020-01-20T23:56:06Z</time>
      </trkpt>
      <trkpt lat="17.124446990" lon="-96.444864930">
        <ele>3135.400</ele>
        <time>2020-01-20T23:56:07Z</time>
      </trkpt>
      <trkpt lat="17.124376280" lon="-96.444886550">
        <ele>3135.600</ele>
        <time>2020-01-20T23:56:08Z</time>
      </trkpt>
      <trkpt lat="17.124304680" lon="-96.444920170">
        <ele>3136.200</ele>
        <time>2020-01-20T23:56:09Z</time>
      </trkpt>
      <trkpt lat="17.124233840" lon="-96.444956460">
        <ele>3135.800</ele>
        <time>2020-01-20T23:56:10Z</time>
      </trkpt>
      <trkpt lat="17.124161970" lon="-96.444990750">
        <ele>3135.300</ele>
        <time>2020-01-20T23:56:11Z</time>
      </trkpt>
      <trkpt lat="17.124081820" lon="-96.445025590">
        <ele>3134.500</ele>
        <time>2020-01-20T23:56:12Z</time>
      </trkpt>
      <trkpt lat="17.124011520" lon="-96.445053070">
        <ele>3134.700</ele>
        <time>2020-01-20T23:56:13Z</time>
      </trkpt>
      <trkpt lat="17.123940470" lon="-96.445083340">
        <ele>3135.000</ele>
        <time>2020-01-20T23:56:14Z</time>
      </trkpt>
      <trkpt lat="17.123872540" lon="-96.445111670">
        <ele>3135.300</ele>
        <time>2020-01-20T23:56:15Z</time>
      </trkpt>
      <trkpt lat="17.123805200" lon="-96.445142600">
        <ele>3135.800</ele>
        <time>2020-01-20T23:56:16Z</time>
      </trkpt>
      <trkpt lat="17.123733600" lon="-96.445176960">
        <ele>3135.900</ele>
        <time>2020-01-20T23:56:17Z</time>
      </trkpt>
      <trkpt lat="17.123655650" lon="-96.445208100">
        <ele>3134.400</ele>
        <time>2020-01-20T23:56:18Z</time>
      </trkpt>
      <trkpt lat="17.123581410" lon="-96.445242020">
        <ele>3133.900</ele>
        <time>2020-01-20T23:56:19Z</time>
      </trkpt>
      <trkpt lat="17.123504800" lon="-96.445283280">
        <ele>3133.700</ele>
        <time>2020-01-20T23:56:20Z</time>
      </trkpt>
      <trkpt lat="17.123425390" lon="-96.445323630">
        <ele>3133.300</ele>
        <time>2020-01-20T23:56:21Z</time>
      </trkpt>
      <trkpt lat="17.123340750" lon="-96.445364180">
        <ele>3133.700</ele>
        <time>2020-01-20T23:56:22Z</time>
      </trkpt>
      <trkpt lat="17.123259450" lon="-96.445415620">
        <ele>3134.900</ele>
        <time>2020-01-20T23:56:23Z</time>
      </trkpt>
      <trkpt lat="17.123184740" lon="-96.445458940">
        <ele>3136.500</ele>
        <time>2020-01-20T23:56:24Z</time>
      </trkpt>
      <trkpt lat="17.123114380" lon="-96.445495180">
        <ele>3135.700</ele>
        <time>2020-01-20T23:56:25Z</time>
      </trkpt>
      <trkpt lat="17.123042930" lon="-96.445529220">
        <ele>3135.600</ele>
        <time>2020-01-20T23:56:26Z</time>
      </trkpt>
      <trkpt lat="17.122967100" lon="-96.445553460">
        <ele>3135.600</ele>
        <time>2020-01-20T23:56:27Z</time>
      </trkpt>
      <trkpt lat="17.122897210" lon="-96.445590030">
        <ele>3135.800</ele>
        <time>2020-01-20T23:56:28Z</time>
      </trkpt>
      <trkpt lat="17.122820680" lon="-96.445623570">
        <ele>3137.300</ele>
        <time>2020-01-20T23:56:29Z</time>
      </trkpt>
      <trkpt lat="17.122746760" lon="-96.445656260">
        <ele>3136.700</ele>
        <time>2020-01-20T23:56:30Z</time>
      </trkpt>
      <trkpt lat="17.122679860" lon="-96.445687900">
        <ele>3136.800</ele>
        <time>2020-01-20T23:56:31Z</time>
      </trkpt>
      <trkpt lat="17.122617910" lon="-96.445713740">
        <ele>3137.700</ele>
        <time>2020-01-20T23:56:32Z</time>
      </trkpt>
      <trkpt lat="17.122546700" lon="-96.445743990">
        <ele>3138.600</ele>
        <time>2020-01-20T23:56:33Z</time>
      </trkpt>
      <trkpt lat="17.122480300" lon="-96.445767800">
        <ele>3139.700</ele>
        <time>2020-01-20T23:56:34Z</time>
      </trkpt>
      <trkpt lat="17.122402410" lon="-96.445793180">
        <ele>3139.600</ele>
        <time>2020-01-20T23:56:35Z</time>
      </trkpt>
      <trkpt lat="17.122316410" lon="-96.445819580">
        <ele>3139.200</ele>
        <time>2020-01-20T23:56:36Z</time>
      </trkpt>
      <trkpt lat="17.122233570" lon="-96.445844400">
        <ele>3139.200</ele>
        <time>2020-01-20T23:56:37Z</time>
      </trkpt>
      <trkpt lat="17.122147200" lon="-96.445859850">
        <ele>3139.900</ele>
        <time>2020-01-20T23:56:38Z</time>
      </trkpt>
      <trkpt lat="17.122062210" lon="-96.445869250">
        <ele>3141.500</ele>
        <time>2020-01-20T23:56:39Z</time>
      </trkpt>
      <trkpt lat="17.121982410" lon="-96.445883320">
        <ele>3142.500</ele>
        <time>2020-01-20T23:56:40Z</time>
      </trkpt>
      <trkpt lat="17.121892320" lon="-96.445904040">
        <ele>3143.000</ele>
        <time>2020-01-20T23:56:41Z</time>
      </trkpt>
      <trkpt lat="17.121821190" lon="-96.445928090">
        <ele>3143.600</ele>
        <time>2020-01-20T23:56:42Z</time>
      </trkpt>
      <trkpt lat="17.121733200" lon="-96.445965430">
        <ele>3145.700</ele>
        <time>2020-01-20T23:56:43Z</time>
      </trkpt>
      <trkpt lat="17.121659530" lon="-96.446005890">
        <ele>3146.600</ele>
        <time>2020-01-20T23:56:44Z</time>
      </trkpt>
      <trkpt lat="17.121588950" lon="-96.446048170">
        <ele>3147.900</ele>
        <time>2020-01-20T23:56:45Z</time>
      </trkpt>
      <trkpt lat="17.121524110" lon="-96.446094230">
        <ele>3149.300</ele>
        <time>2020-01-20T23:56:46Z</time>
      </trkpt>
      <trkpt lat="17.121453960" lon="-96.446134150">
        <ele>3148.400</ele>
        <time>2020-01-20T23:56:47Z</time>
      </trkpt>
      <trkpt lat="17.121396460" lon="-96.446180100">
        <ele>3148.700</ele>
        <time>2020-01-20T23:56:48Z</time>
      </trkpt>
      <trkpt lat="17.121332800" lon="-96.446228740">
        <ele>3148.400</ele>
        <time>2020-01-20T23:56:49Z</time>
      </trkpt>
      <trkpt lat="17.121270390" lon="-96.446274880">
        <ele>3149.000</ele>
        <time>2020-01-20T23:56:50Z</time>
      </trkpt>
      <trkpt lat="17.121207820" lon="-96.446321870">
        <ele>3149.400</ele>
        <time>2020-01-20T23:56:51Z</time>
      </trkpt>
      <trkpt lat="17.121143390" lon="-96.446366400">
        <ele>3150.000</ele>
        <time>2020-01-20T23:56:52Z</time>
      </trkpt>
      <trkpt lat="17.121080670" lon="-96.446413250">
        <ele>3150.500</ele>
        <time>2020-01-20T23:56:53Z</time>
      </trkpt>
      <trkpt lat="17.121014550" lon="-96.446460530">
        <ele>3150.400</ele>
        <time>2020-01-20T23:56:54Z</time>
      </trkpt>
      <trkpt lat="17.120945850" lon="-96.446509240">
        <ele>3150.100</ele>
        <time>2020-01-20T23:56:55Z</time>
      </trkpt>
      <trkpt lat="17.120885380" lon="-96.446555280">
        <ele>3150.400</ele>
        <time>2020-01-20T23:56:56Z</time>
      </trkpt>
      <trkpt lat="17.120828950" lon="-96.446604050">
        <ele>3149.000</ele>
        <time>2020-01-20T23:56:57Z</time>
      </trkpt>
      <trkpt lat="17.120763550" lon="-96.446641820">
        <ele>3150.000</ele>
        <time>2020-01-20T23:56:58Z</time>
      </trkpt>
      <trkpt lat="17.120715440" lon="-96.446700690">
        <ele>3150.500</ele>
        <time>2020-01-20T23:56:59Z</time>
      </trkpt>
      <trkpt lat="17.120675040" lon="-96.446763170">
        <ele>3150.500</ele>
        <time>2020-01-20T23:57:00Z</time>
      </trkpt>
      <trkpt lat="17.120628980" lon="-96.446821440">
        <ele>3149.300</ele>
        <time>2020-01-20T23:57:01Z</time>
      </trkpt>
      <trkpt lat="17.120609100" lon="-96.446899430">
        <ele>3149.500</ele>
        <time>2020-01-20T23:57:02Z</time>
      </trkpt>
      <trkpt lat="17.120585330" lon="-96.446972090">
        <ele>3149.600</ele>
        <time>2020-01-20T23:57:03Z</time>
      </trkpt>
      <trkpt lat="17.120569560" lon="-96.447039490">
        <ele>3150.100</ele>
        <time>2020-01-20T23:57:04Z</time>
      </trkpt>
      <trkpt lat="17.120545520" lon="-96.447093200">
        <ele>3150.100</ele>
        <time>2020-01-20T23:57:05Z</time>
      </trkpt>
      <trkpt lat="17.120562400" lon="-96.447200950">
        <ele>3150.000</ele>
        <time>2020-01-20T23:57:06Z</time>
      </trkpt>
      <trkpt lat="17.120575830" lon="-96.447291480">
        <ele>3149.500</ele>
        <time>2020-01-20T23:57:07Z</time>
      </trkpt>
      <trkpt lat="17.120593330" lon="-96.447373810">
        <ele>3149.700</ele>
        <time>2020-01-20T23:57:08Z</time>
      </trkpt>
      <trkpt lat="17.120611400" lon="-96.447449350">
        <ele>3149.000</ele>
        <time>2020-01-20T23:57:09Z</time>
      </trkpt>
      <trkpt lat="17.120624750" lon="-96.447521340">
        <ele>3148.600</ele>
        <time>2020-01-20T23:57:10Z</time>
      </trkpt>
      <trkpt lat="17.120638170" lon="-96.447586190">
        <ele>3147.800</ele>
        <time>2020-01-20T23:57:11Z</time>
      </trkpt>
      <trkpt lat="17.120643530" lon="-96.447654510">
        <ele>3147.900</ele>
        <time>2020-01-20T23:57:12Z</time>
      </trkpt>
      <trkpt lat="17.120638890" lon="-96.447720460">
        <ele>3146.400</ele>
        <time>2020-01-20T23:57:13Z</time>
      </trkpt>
      <trkpt lat="17.120625990" lon="-96.447781690">
        <ele>3146.600</ele>
        <time>2020-01-20T23:57:14Z</time>
      </trkpt>
      <trkpt lat="17.120602930" lon="-96.447842670">
        <ele>3147.200</ele>
        <time>2020-01-20T23:57:15Z</time>
      </trkpt>
      <trkpt lat="17.120573400" lon="-96.447895260">
        <ele>3147.100</ele>
        <time>2020-01-20T23:57:16Z</time>
      </trkpt>
      <trkpt lat="17.120536890" lon="-96.447943900">
        <ele>3147.900</ele>
        <time>2020-01-20T23:57:17Z</time>
      </trkpt>
      <trkpt lat="17.120499950" lon="-96.447982330">
        <ele>3148.400</ele>
        <time>2020-01-20T23:57:18Z</time>
      </trkpt>
      <trkpt lat="17.120453160" lon="-96.448018190">
        <ele>3149.700</ele>
        <time>2020-01-20T23:57:19Z</time>
      </trkpt>
      <trkpt lat="17.120415350" lon="-96.448053210">
        <ele>3149.800</ele>
        <time>2020-01-20T23:57:20Z</time>
      </trkpt>
      <trkpt lat="17.120366950" lon="-96.448088660">
        <ele>3151.000</ele>
        <time>2020-01-20T23:57:21Z</time>
      </trkpt>
      <trkpt lat="17.120323110" lon="-96.448128140">
        <ele>3151.400</ele>
        <time>2020-01-20T23:57:22Z</time>
      </trkpt>
      <trkpt lat="17.120284310" lon="-96.448172610">
        <ele>3151.400</ele>
        <time>2020-01-20T23:57:23Z</time>
      </trkpt>
      <trkpt lat="17.120251460" lon="-96.448215790">
        <ele>3151.400</ele>
        <time>2020-01-20T23:57:24Z</time>
      </trkpt>
      <trkpt lat="17.120212400" lon="-96.448258900">
        <ele>3152.000</ele>
        <time>2020-01-20T23:57:25Z</time>
      </trkpt>
      <trkpt lat="17.120179720" lon="-96.448292590">
        <ele>3152.700</ele>
        <time>2020-01-20T23:57:26Z</time>
      </trkpt>
      <trkpt lat="17.120145210" lon="-96.448363510">
        <ele>3153.900</ele>
        <time>2020-01-20T23:57:27Z</time>
      </trkpt>
      <trkpt lat="17.120116350" lon="-96.448428870">
        <ele>3153.600</ele>
        <time>2020-01-20T23:57:28Z</time>
      </trkpt>
      <trkpt lat="17.120100690" lon="-96.448491500">
        <ele>3154.300</ele>
        <time>2020-01-20T23:57:29Z</time>
      </trkpt>
      <trkpt lat="17.120078610" lon="-96.448554690">
        <ele>3154.300</ele>
        <time>2020-01-20T23:57:30Z</time>
      </trkpt>
      <trkpt lat="17.120063470" lon="-96.448619720">
        <ele>3154.100</ele>
        <time>2020-01-20T23:57:31Z</time>
      </trkpt>
      <trkpt lat="17.120045500" lon="-96.448682600">
        <ele>3153.900</ele>
        <time>2020-01-20T23:57:32Z</time>
      </trkpt>
      <trkpt lat="17.120044960" lon="-96.448746970">
        <ele>3153.300</ele>
        <time>2020-01-20T23:57:33Z</time>
      </trkpt>
      <trkpt lat="17.120040430" lon="-96.448810250">
        <ele>3153.500</ele>
        <time>2020-01-20T23:57:34Z</time>
      </trkpt>
      <trkpt lat="17.120038070" lon="-96.448879960">
        <ele>3153.700</ele>
        <time>2020-01-20T23:57:35Z</time>
      </trkpt>
      <trkpt lat="17.120034970" lon="-96.448943660">
        <ele>3153.000</ele>
        <time>2020-01-20T23:57:36Z</time>
      </trkpt>
      <trkpt lat="17.120034950" lon="-96.448987890">
        <ele>3152.700</ele>
        <time>2020-01-20T23:57:37Z</time>
      </trkpt>
      <trkpt lat="17.120032930" lon="-96.449035180">
        <ele>3153.000</ele>
        <time>2020-01-20T23:57:38Z</time>
      </trkpt>
      <trkpt lat="17.120035980" lon="-96.449101470">
        <ele>3152.300</ele>
        <time>2020-01-20T23:57:40Z</time>
      </trkpt>
      <trkpt lat="17.120042520" lon="-96.449155210">
        <ele>3151.300</ele>
        <time>2020-01-20T23:57:43Z</time>
      </trkpt>
      <trkpt lat="17.120048380" lon="-96.449239140">
        <ele>3151.300</ele>
        <time>2020-01-20T23:57:45Z</time>
      </trkpt>
      <trkpt lat="17.120058240" lon="-96.449289690">
        <ele>3151.700</ele>
        <time>2020-01-20T23:57:46Z</time>
      </trkpt>
      <trkpt lat="17.120073800" lon="-96.449345980">
        <ele>3151.400</ele>
        <time>2020-01-20T23:57:47Z</time>
      </trkpt>
      <trkpt lat="17.120093520" lon="-96.449413050">
        <ele>3151.500</ele>
        <time>2020-01-20T23:57:48Z</time>
      </trkpt>
      <trkpt lat="17.120112680" lon="-96.449485490">
        <ele>3152.000</ele>
        <time>2020-01-20T23:57:49Z</time>
      </trkpt>
      <trkpt lat="17.120141490" lon="-96.449553740">
        <ele>3151.200</ele>
        <time>2020-01-20T23:57:50Z</time>
      </trkpt>
      <trkpt lat="17.120171270" lon="-96.449626520">
        <ele>3150.800</ele>
        <time>2020-01-20T23:57:51Z</time>
      </trkpt>
      <trkpt lat="17.120204380" lon="-96.449693720">
        <ele>3151.000</ele>
        <time>2020-01-20T23:57:52Z</time>
      </trkpt>
      <trkpt lat="17.120240930" lon="-96.449763310">
        <ele>3151.700</ele>
        <time>2020-01-20T23:57:53Z</time>
      </trkpt>
      <trkpt lat="17.120281090" lon="-96.449834360">
        <ele>3151.500</ele>
        <time>2020-01-20T23:57:54Z</time>
      </trkpt>
      <trkpt lat="17.120320080" lon="-96.449902040">
        <ele>3151.600</ele>
        <time>2020-01-20T23:57:55Z</time>
      </trkpt>
      <trkpt lat="17.120336780" lon="-96.449971200">
        <ele>3152.100</ele>
        <time>2020-01-20T23:57:56Z</time>
      </trkpt>
      <trkpt lat="17.120352580" lon="-96.450035480">
        <ele>3152.500</ele>
        <time>2020-01-20T23:57:57Z</time>
      </trkpt>
      <trkpt lat="17.120366480" lon="-96.450087310">
        <ele>3151.600</ele>
        <time>2020-01-20T23:57:58Z</time>
      </trkpt>
      <trkpt lat="17.120376160" lon="-96.450128740">
        <ele>3151.900</ele>
        <time>2020-01-20T23:57:59Z</time>
      </trkpt>
      <trkpt lat="17.120379960" lon="-96.450172700">
        <ele>3152.500</ele>
        <time>2020-01-20T23:58:01Z</time>
      </trkpt>
      <trkpt lat="17.120383980" lon="-96.450224900">
        <ele>3152.600</ele>
        <time>2020-01-20T23:58:03Z</time>
      </trkpt>
      <trkpt lat="17.120392130" lon="-96.450268690">
        <ele>3151.800</ele>
        <time>2020-01-20T23:58:04Z</time>
      </trkpt>
      <trkpt lat="17.120395610" lon="-96.450324160">
        <ele>3151.600</ele>
        <time>2020-01-20T23:58:05Z</time>
      </trkpt>
      <trkpt lat="17.120401370" lon="-96.450378010">
        <ele>3152.000</ele>
        <time>2020-01-20T23:58:06Z</time>
      </trkpt>
      <trkpt lat="17.120403500" lon="-96.450434130">
        <ele>3151.700</ele>
        <time>2020-01-20T23:58:07Z</time>
      </trkpt>
      <trkpt lat="17.120403360" lon="-96.450492550">
        <ele>3152.400</ele>
        <time>2020-01-20T23:58:08Z</time>
      </trkpt>
      <trkpt lat="17.120404820" lon="-96.450545360">
        <ele>3152.700</ele>
        <time>2020-01-20T23:58:09Z</time>
      </trkpt>
      <trkpt lat="17.120406680" lon="-96.450598780">
        <ele>3153.100</ele>
        <time>2020-01-20T23:58:10Z</time>
      </trkpt>
      <trkpt lat="17.120402910" lon="-96.450652210">
        <ele>3153.200</ele>
        <time>2020-01-20T23:58:11Z</time>
      </trkpt>
      <trkpt lat="17.120378360" lon="-96.450692450">
        <ele>3153.100</ele>
        <time>2020-01-20T23:58:12Z</time>
      </trkpt>
      <trkpt lat="17.120341600" lon="-96.450731000">
        <ele>3153.800</ele>
        <time>2020-01-20T23:58:13Z</time>
      </trkpt>
      <trkpt lat="17.120293940" lon="-96.450773810">
        <ele>3153.400</ele>
        <time>2020-01-20T23:58:14Z</time>
      </trkpt>
      <trkpt lat="17.120243920" lon="-96.450814940">
        <ele>3153.500</ele>
        <time>2020-01-20T23:58:15Z</time>
      </trkpt>
      <trkpt lat="17.120191830" lon="-96.450859690">
        <ele>3154.300</ele>
        <time>2020-01-20T23:58:16Z</time>
      </trkpt>
      <trkpt lat="17.120141670" lon="-96.450901000">
        <ele>3154.700</ele>
        <time>2020-01-20T23:58:17Z</time>
      </trkpt>
      <trkpt lat="17.120097490" lon="-96.450951860">
        <ele>3155.600</ele>
        <time>2020-01-20T23:58:18Z</time>
      </trkpt>
      <trkpt lat="17.120066350" lon="-96.451000030">
        <ele>3156.300</ele>
        <time>2020-01-20T23:58:19Z</time>
      </trkpt>
      <trkpt lat="17.120045030" lon="-96.451060120">
        <ele>3156.200</ele>
        <time>2020-01-20T23:58:20Z</time>
      </trkpt>
      <trkpt lat="17.120027910" lon="-96.451123420">
        <ele>3156.600</ele>
        <time>2020-01-20T23:58:21Z</time>
      </trkpt>
      <trkpt lat="17.120018070" lon="-96.451182050">
        <ele>3156.600</ele>
        <time>2020-01-20T23:58:22Z</time>
      </trkpt>
      <trkpt lat="17.120010430" lon="-96.451238660">
        <ele>3156.700</ele>
        <time>2020-01-20T23:58:23Z</time>
      </trkpt>
      <trkpt lat="17.119995500" lon="-96.451302870">
        <ele>3157.700</ele>
        <time>2020-01-20T23:58:24Z</time>
      </trkpt>
      <trkpt lat="17.119972780" lon="-96.451356950">
        <ele>3157.500</ele>
        <time>2020-01-20T23:58:25Z</time>
      </trkpt>
      <trkpt lat="17.119953310" lon="-96.451421080">
        <ele>3157.800</ele>
        <time>2020-01-20T23:58:26Z</time>
      </trkpt>
      <trkpt lat="17.119932640" lon="-96.451481110">
        <ele>3157.700</ele>
        <time>2020-01-20T23:58:27Z</time>
      </trkpt>
      <trkpt lat="17.119911660" lon="-96.451542000">
        <ele>3157.800</ele>
        <time>2020-01-20T23:58:28Z</time>
      </trkpt>
      <trkpt lat="17.119893410" lon="-96.451598300">
        <ele>3157.500</ele>
        <time>2020-01-20T23:58:29Z</time>
      </trkpt>
      <trkpt lat="17.119875540" lon="-96.451650740">
        <ele>3157.400</ele>
        <time>2020-01-20T23:58:30Z</time>
      </trkpt>
      <trkpt lat="17.119859090" lon="-96.451698000">
        <ele>3156.600</ele>
        <time>2020-01-20T23:58:31Z</time>
      </trkpt>
      <trkpt lat="17.119840590" lon="-96.451748380">
        <ele>3156.700</ele>
        <time>2020-01-20T23:58:32Z</time>
      </trkpt>
      <trkpt lat="17.119820240" lon="-96.451804620">
        <ele>3156.300</ele>
        <time>2020-01-20T23:58:33Z</time>
      </trkpt>
      <trkpt lat="17.119800110" lon="-96.451863850">
        <ele>3156.300</ele>
        <time>2020-01-20T23:58:34Z</time>
      </trkpt>
      <trkpt lat="17.119778950" lon="-96.451926460">
        <ele>3156.300</ele>
        <time>2020-01-20T23:58:35Z</time>
      </trkpt>
      <trkpt lat="17.119756110" lon="-96.451993500">
        <ele>3156.800</ele>
        <time>2020-01-20T23:58:36Z</time>
      </trkpt>
      <trkpt lat="17.119731930" lon="-96.452054150">
        <ele>3157.400</ele>
        <time>2020-01-20T23:58:37Z</time>
      </trkpt>
      <trkpt lat="17.119710540" lon="-96.452114560">
        <ele>3157.200</ele>
        <time>2020-01-20T23:58:38Z</time>
      </trkpt>
      <trkpt lat="17.119686450" lon="-96.452172290">
        <ele>3157.200</ele>
        <time>2020-01-20T23:58:39Z</time>
      </trkpt>
      <trkpt lat="17.119664770" lon="-96.452229230">
        <ele>3157.500</ele>
        <time>2020-01-20T23:58:40Z</time>
      </trkpt>
      <trkpt lat="17.119643150" lon="-96.452281430">
        <ele>3157.700</ele>
        <time>2020-01-20T23:58:41Z</time>
      </trkpt>
      <trkpt lat="17.119620560" lon="-96.452334270">
        <ele>3158.000</ele>
        <time>2020-01-20T23:58:42Z</time>
      </trkpt>
      <trkpt lat="17.119600560" lon="-96.452380350">
        <ele>3158.200</ele>
        <time>2020-01-20T23:58:43Z</time>
      </trkpt>
      <trkpt lat="17.119586370" lon="-96.452424340">
        <ele>3158.000</ele>
        <time>2020-01-20T23:58:44Z</time>
      </trkpt>
      <trkpt lat="17.119570660" lon="-96.452464560">
        <ele>3158.500</ele>
        <time>2020-01-20T23:58:45Z</time>
      </trkpt>
      <trkpt lat="17.119551000" lon="-96.452520640">
        <ele>3158.500</ele>
        <time>2020-01-20T23:58:47Z</time>
      </trkpt>
      <trkpt lat="17.119536030" lon="-96.452577030">
        <ele>3158.500</ele>
        <time>2020-01-20T23:58:50Z</time>
      </trkpt>
      <trkpt lat="17.119521180" lon="-96.452644100">
        <ele>3158.600</ele>
        <time>2020-01-20T23:58:52Z</time>
      </trkpt>
      <trkpt lat="17.119514790" lon="-96.452683320">
        <ele>3159.000</ele>
        <time>2020-01-20T23:58:53Z</time>
      </trkpt>
      <trkpt lat="17.119509480" lon="-96.452724630">
        <ele>3159.400</ele>
        <time>2020-01-20T23:58:54Z</time>
      </trkpt>
      <trkpt lat="17.119505170" lon="-96.452769070">
        <ele>3159.500</ele>
        <time>2020-01-20T23:58:55Z</time>
      </trkpt>
      <trkpt lat="17.119504710" lon="-96.452817960">
        <ele>3160.100</ele>
        <time>2020-01-20T23:58:56Z</time>
      </trkpt>
      <trkpt lat="17.119506600" lon="-96.452865470">
        <ele>3160.200</ele>
        <time>2020-01-20T23:58:57Z</time>
      </trkpt>
      <trkpt lat="17.119503810" lon="-96.452911990">
        <ele>3159.900</ele>
        <time>2020-01-20T23:58:58Z</time>
      </trkpt>
      <trkpt lat="17.119495540" lon="-96.452961740">
        <ele>3160.200</ele>
        <time>2020-01-20T23:58:59Z</time>
      </trkpt>
      <trkpt lat="17.119488010" lon="-96.453009360">
        <ele>3160.200</ele>
        <time>2020-01-20T23:59:00Z</time>
      </trkpt>
      <trkpt lat="17.119480010" lon="-96.453057760">
        <ele>3160.100</ele>
        <time>2020-01-20T23:59:01Z</time>
      </trkpt>
      <trkpt lat="17.119464530" lon="-96.453101780">
        <ele>3160.300</ele>
        <time>2020-01-20T23:59:02Z</time>
      </trkpt>
      <trkpt lat="17.119439030" lon="-96.453142000">
        <ele>3160.400</ele>
        <time>2020-01-20T23:59:03Z</time>
      </trkpt>
      <trkpt lat="17.119407570" lon="-96.453185540">
        <ele>3160.600</ele>
        <time>2020-01-20T23:59:04Z</time>
      </trkpt>
      <trkpt lat="17.119374550" lon="-96.453227840">
        <ele>3160.900</ele>
        <time>2020-01-20T23:59:05Z</time>
      </trkpt>
      <trkpt lat="17.119336030" lon="-96.453267450">
        <ele>3161.700</ele>
        <time>2020-01-20T23:59:06Z</time>
      </trkpt>
      <trkpt lat="17.119297780" lon="-96.453308280">
        <ele>3162.400</ele>
        <time>2020-01-20T23:59:07Z</time>
      </trkpt>
      <trkpt lat="17.119261530" lon="-96.453349390">
        <ele>3163.100</ele>
        <time>2020-01-20T23:59:08Z</time>
      </trkpt>
      <trkpt lat="17.119229600" lon="-96.453388110">
        <ele>3164.100</ele>
        <time>2020-01-20T23:59:09Z</time>
      </trkpt>
      <trkpt lat="17.119204470" lon="-96.453429190">
        <ele>3164.600</ele>
        <time>2020-01-20T23:59:10Z</time>
      </trkpt>
      <trkpt lat="17.119184280" lon="-96.453468370">
        <ele>3165.400</ele>
        <time>2020-01-20T23:59:11Z</time>
      </trkpt>
      <trkpt lat="17.119167490" lon="-96.453508340">
        <ele>3165.700</ele>
        <time>2020-01-20T23:59:12Z</time>
      </trkpt>
      <trkpt lat="17.119148320" lon="-96.453571710">
        <ele>3164.800</ele>
        <time>2020-01-20T23:59:14Z</time>
      </trkpt>
      <trkpt lat="17.119135960" lon="-96.453611520">
        <ele>3164.900</ele>
        <time>2020-01-20T23:59:16Z</time>
      </trkpt>
      <trkpt lat="17.119112720" lon="-96.453666300">
        <ele>3164.500</ele>
        <time>2020-01-20T23:59:18Z</time>
      </trkpt>
      <trkpt lat="17.119098910" lon="-96.453704050">
        <ele>3164.200</ele>
        <time>2020-01-20T23:59:19Z</time>
      </trkpt>
      <trkpt lat="17.119088090" lon="-96.453752810">
        <ele>3163.400</ele>
        <time>2020-01-20T23:59:20Z</time>
      </trkpt>
      <trkpt lat="17.119077820" lon="-96.453804000">
        <ele>3162.800</ele>
        <time>2020-01-20T23:59:21Z</time>
      </trkpt>
      <trkpt lat="17.119065870" lon="-96.453854520">
        <ele>3162.500</ele>
        <time>2020-01-20T23:59:22Z</time>
      </trkpt>
      <trkpt lat="17.119060290" lon="-96.453913350">
        <ele>3161.800</ele>
        <time>2020-01-20T23:59:23Z</time>
      </trkpt>
      <trkpt lat="17.119051550" lon="-96.453975420">
        <ele>3161.800</ele>
        <time>2020-01-20T23:59:24Z</time>
      </trkpt>
      <trkpt lat="17.119044330" lon="-96.454039370">
        <ele>3161.300</ele>
        <time>2020-01-20T23:59:25Z</time>
      </trkpt>
      <trkpt lat="17.119036700" lon="-96.454101710">
        <ele>3160.700</ele>
        <time>2020-01-20T23:59:26Z</time>
      </trkpt>
      <trkpt lat="17.119031050" lon="-96.454163470">
        <ele>3160.800</ele>
        <time>2020-01-20T23:59:27Z</time>
      </trkpt>
      <trkpt lat="17.119021080" lon="-96.454226310">
        <ele>3161.000</ele>
        <time>2020-01-20T23:59:28Z</time>
      </trkpt>
      <trkpt lat="17.119012090" lon="-96.454280990">
        <ele>3161.400</ele>
        <time>2020-01-20T23:59:29Z</time>
      </trkpt>
      <trkpt lat="17.119003140" lon="-96.454327750">
        <ele>3161.500</ele>
        <time>2020-01-20T23:59:30Z</time>
      </trkpt>
      <trkpt lat="17.118994710" lon="-96.454375980">
        <ele>3160.400</ele>
        <time>2020-01-20T23:59:31Z</time>
      </trkpt>
      <trkpt lat="17.118985450" lon="-96.454424320">
        <ele>3160.000</ele>
        <time>2020-01-20T23:59:32Z</time>
      </trkpt>
      <trkpt lat="17.118974830" lon="-96.454475890">
        <ele>3159.600</ele>
        <time>2020-01-20T23:59:33Z</time>
      </trkpt>
      <trkpt lat="17.118961370" lon="-96.454528580">
        <ele>3159.500</ele>
        <time>2020-01-20T23:59:34Z</time>
      </trkpt>
      <trkpt lat="17.118951080" lon="-96.454579510">
        <ele>3158.600</ele>
        <time>2020-01-20T23:59:35Z</time>
      </trkpt>
      <trkpt lat="17.118929060" lon="-96.454632430">
        <ele>3157.900</ele>
        <time>2020-01-20T23:59:36Z</time>
      </trkpt>
      <trkpt lat="17.118897770" lon="-96.454676720">
        <ele>3157.500</ele>
        <time>2020-01-20T23:59:37Z</time>
      </trkpt>
      <trkpt lat="17.118849270" lon="-96.454706290">
        <ele>3157.400</ele>
        <time>2020-01-20T23:59:38Z</time>
      </trkpt>
      <trkpt lat="17.118799380" lon="-96.454723400">
        <ele>3157.200</ele>
        <time>2020-01-20T23:59:39Z</time>
      </trkpt>
      <trkpt lat="17.118746710" lon="-96.454725090">
        <ele>3156.500</ele>
        <time>2020-01-20T23:59:40Z</time>
      </trkpt>
      <trkpt lat="17.118695450" lon="-96.454715660">
        <ele>3156.400</ele>
        <time>2020-01-20T23:59:41Z</time>
      </trkpt>
      <trkpt lat="17.118657310" lon="-96.454708780">
        <ele>3156.100</ele>
        <time>2020-01-20T23:59:42Z</time>
      </trkpt>
      <trkpt lat="17.118611520" lon="-96.454693830">
        <ele>3156.400</ele>
        <time>2020-01-20T23:59:44Z</time>
      </trkpt>
      <trkpt lat="17.118561160" lon="-96.454682650">
        <ele>3156.400</ele>
        <time>2020-01-20T23:59:46Z</time>
      </trkpt>
      <trkpt lat="17.118519760" lon="-96.454674430">
        <ele>3156.300</ele>
        <time>2020-01-20T23:59:47Z</time>
      </trkpt>
      <trkpt lat="17.118466160" lon="-96.454656580">
        <ele>3157.300</ele>
        <time>2020-01-20T23:59:48Z</time>
      </trkpt>
      <trkpt lat="17.118415370" lon="-96.454637670">
        <ele>3157.800</ele>
        <time>2020-01-20T23:59:49Z</time>
      </trkpt>
      <trkpt lat="17.118366910" lon="-96.454623080">
        <ele>3158.000</ele>
        <time>2020-01-20T23:59:50Z</time>
      </trkpt>
      <trkpt lat="17.118313980" lon="-96.454608330">
        <ele>3158.800</ele>
        <time>2020-01-20T23:59:51Z</time>
      </trkpt>
      <trkpt lat="17.118261810" lon="-96.454594620">
        <ele>3159.400</ele>
        <time>2020-01-20T23:59:52Z</time>
      </trkpt>
      <trkpt lat="17.118208960" lon="-96.454583690">
        <ele>3160.000</ele>
        <time>2020-01-20T23:59:53Z</time>
      </trkpt>
      <trkpt lat="17.118159660" lon="-96.454572540">
        <ele>3160.500</ele>
        <time>2020-01-20T23:59:54Z</time>
      </trkpt>
      <trkpt lat="17.118108230" lon="-96.454561990">
        <ele>3160.900</ele>
        <time>2020-01-20T23:59:55Z</time>
      </trkpt>
      <trkpt lat="17.118054290" lon="-96.454555570">
        <ele>3161.000</ele>
        <time>2020-01-20T23:59:56Z</time>
      </trkpt>
      <trkpt lat="17.118004540" lon="-96.454548510">
        <ele>3160.500</ele>
        <time>2020-01-20T23:59:57Z</time>
      </trkpt>
      <trkpt lat="17.117958950" lon="-96.454542870">
        <ele>3160.500</ele>
        <time>2020-01-20T23:59:58Z</time>
      </trkpt>
      <trkpt lat="17.117908550" lon="-96.454543040">
        <ele>3160.100</ele>
        <time>2020-01-20T23:59:59Z</time>
      </trkpt>
      <trkpt lat="17.117868520" lon="-96.454542160">
        <ele>3159.600</ele>
        <time>2020-01-21T00:00:00Z</time>
      </trkpt>
      <trkpt lat="17.117810980" lon="-96.454547270">
        <ele>3158.800</ele>
        <time>2020-01-21T00:00:02Z</time>
      </trkpt>
      <trkpt lat="17.117759510" lon="-96.454549670">
        <ele>3158.700</ele>
        <time>2020-01-21T00:00:04Z</time>
      </trkpt>
      <trkpt lat="17.117698410" lon="-96.454573050">
        <ele>3158.000</ele>
        <time>2020-01-21T00:00:06Z</time>
      </trkpt>
      <trkpt lat="17.117657110" lon="-96.454592570">
        <ele>3158.800</ele>
        <time>2020-01-21T00:00:07Z</time>
      </trkpt>
      <trkpt lat="17.117615650" lon="-96.454614120">
        <ele>3158.800</ele>
        <time>2020-01-21T00:00:08Z</time>
      </trkpt>
      <trkpt lat="17.117574790" lon="-96.454636090">
        <ele>3159.100</ele>
        <time>2020-01-21T00:00:09Z</time>
      </trkpt>
      <trkpt lat="17.117535630" lon="-96.454658560">
        <ele>3158.700</ele>
        <time>2020-01-21T00:00:10Z</time>
      </trkpt>
      <trkpt lat="17.117498540" lon="-96.454679160">
        <ele>3158.200</ele>
        <time>2020-01-21T00:00:11Z</time>
      </trkpt>
      <trkpt lat="17.117460780" lon="-96.454700690">
        <ele>3157.900</ele>
        <time>2020-01-21T00:00:12Z</time>
      </trkpt>
      <trkpt lat="17.117421390" lon="-96.454721010">
        <ele>3157.500</ele>
        <time>2020-01-21T00:00:13Z</time>
      </trkpt>
      <trkpt lat="17.117384530" lon="-96.454738020">
        <ele>3157.400</ele>
        <time>2020-01-21T00:00:14Z</time>
      </trkpt>
      <trkpt lat="17.117348850" lon="-96.454755470">
        <ele>3157.200</ele>
        <time>2020-01-21T00:00:15Z</time>
      </trkpt>
      <trkpt lat="17.117309580" lon="-96.454774460">
        <ele>3157.100</ele>
        <time>2020-01-21T00:00:16Z</time>
      </trkpt>
      <trkpt lat="17.117268490" lon="-96.454792310">
        <ele>3157.300</ele>
        <time>2020-01-21T00:00:17Z</time>
      </trkpt>
      <trkpt lat="17.117230710" lon="-96.454807470">
        <ele>3157.000</ele>
        <time>2020-01-21T00:00:18Z</time>
      </trkpt>
      <trkpt lat="17.117185830" lon="-96.454823740">
        <ele>3157.200</ele>
        <time>2020-01-21T00:00:19Z</time>
      </trkpt>
      <trkpt lat="17.117138140" lon="-96.454840660">
        <ele>3157.700</ele>
        <time>2020-01-21T00:00:20Z</time>
      </trkpt>
      <trkpt lat="17.117094260" lon="-96.454858210">
        <ele>3157.900</ele>
        <time>2020-01-21T00:00:21Z</time>
      </trkpt>
      <trkpt lat="17.117048680" lon="-96.454882820">
        <ele>3157.800</ele>
        <time>2020-01-21T00:00:22Z</time>
      </trkpt>
      <trkpt lat="17.117005450" lon="-96.454904170">
        <ele>3158.100</ele>
        <time>2020-01-21T00:00:23Z</time>
      </trkpt>
      <trkpt lat="17.116964130" lon="-96.454918930">
        <ele>3158.000</ele>
        <time>2020-01-21T00:00:24Z</time>
      </trkpt>
      <trkpt lat="17.116905380" lon="-96.454955830">
        <ele>3157.900</ele>
        <time>2020-01-21T00:00:26Z</time>
      </trkpt>
      <trkpt lat="17.116865770" lon="-96.454985490">
        <ele>3157.700</ele>
        <time>2020-01-21T00:00:28Z</time>
      </trkpt>
      <trkpt lat="17.116825340" lon="-96.455022840">
        <ele>3158.200</ele>
        <time>2020-01-21T00:00:30Z</time>
      </trkpt>
      <trkpt lat="17.116760700" lon="-96.455081440">
        <ele>3158.000</ele>
        <time>2020-01-21T00:00:32Z</time>
      </trkpt>
      <trkpt lat="17.116719650" lon="-96.455115090">
        <ele>3157.500</ele>
        <time>2020-01-21T00:00:33Z</time>
      </trkpt>
      <trkpt lat="17.116674080" lon="-96.455155770">
        <ele>3157.200</ele>
        <time>2020-01-21T00:00:34Z</time>
      </trkpt>
      <trkpt lat="17.116630870" lon="-96.455196350">
        <ele>3157.200</ele>
        <time>2020-01-21T00:00:35Z</time>
      </trkpt>
      <trkpt lat="17.116589210" lon="-96.455241170">
        <ele>3156.700</ele>
        <time>2020-01-21T00:00:36Z</time>
      </trkpt>
      <trkpt lat="17.116546720" lon="-96.455280750">
        <ele>3156.700</ele>
        <time>2020-01-21T00:00:37Z</time>
      </trkpt>
      <trkpt lat="17.116508970" lon="-96.455327030">
        <ele>3156.800</ele>
        <time>2020-01-21T00:00:38Z</time>
      </trkpt>
      <trkpt lat="17.116469020" lon="-96.455375540">
        <ele>3157.300</ele>
        <time>2020-01-21T00:00:39Z</time>
      </trkpt>
      <trkpt lat="17.116434220" lon="-96.455427310">
        <ele>3156.700</ele>
        <time>2020-01-21T00:00:40Z</time>
      </trkpt>
      <trkpt lat="17.116394850" lon="-96.455476660">
        <ele>3156.600</ele>
        <time>2020-01-21T00:00:41Z</time>
      </trkpt>
      <trkpt lat="17.116359330" lon="-96.455527780">
        <ele>3156.500</ele>
        <time>2020-01-21T00:00:42Z</time>
      </trkpt>
      <trkpt lat="17.116326820" lon="-96.455575380">
        <ele>3155.500</ele>
        <time>2020-01-21T00:00:43Z</time>
      </trkpt>
      <trkpt lat="17.116291010" lon="-96.455626730">
        <ele>3155.100</ele>
        <time>2020-01-21T00:00:44Z</time>
      </trkpt>
      <trkpt lat="17.116252750" lon="-96.455682040">
        <ele>3155.200</ele>
        <time>2020-01-21T00:00:45Z</time>
      </trkpt>
      <trkpt lat="17.116212500" lon="-96.455738350">
        <ele>3155.600</ele>
        <time>2020-01-21T00:00:46Z</time>
      </trkpt>
      <trkpt lat="17.116170900" lon="-96.455796870">
        <ele>3155.800</ele>
        <time>2020-01-21T00:00:47Z</time>
      </trkpt>
      <trkpt lat="17.116131250" lon="-96.455853750">
        <ele>3156.100</ele>
        <time>2020-01-21T00:00:48Z</time>
      </trkpt>
      <trkpt lat="17.116096850" lon="-96.455901260">
        <ele>3155.600</ele>
        <time>2020-01-21T00:00:49Z</time>
      </trkpt>
      <trkpt lat="17.116067650" lon="-96.455949610">
        <ele>3155.400</ele>
        <time>2020-01-21T00:00:50Z</time>
      </trkpt>
      <trkpt lat="17.116040290" lon="-96.455993570">
        <ele>3155.300</ele>
        <time>2020-01-21T00:00:51Z</time>
      </trkpt>
      <trkpt lat="17.116016780" lon="-96.456029100">
        <ele>3155.600</ele>
        <time>2020-01-21T00:00:52Z</time>
      </trkpt>
      <trkpt lat="17.115991580" lon="-96.456071400">
        <ele>3155.900</ele>
        <time>2020-01-21T00:00:54Z</time>
      </trkpt>
      <trkpt lat="17.115956640" lon="-96.456117830">
        <ele>3155.500</ele>
        <time>2020-01-21T00:00:56Z</time>
      </trkpt>
      <trkpt lat="17.115928830" lon="-96.456158400">
        <ele>3155.700</ele>
        <time>2020-01-21T00:00:57Z</time>
      </trkpt>
      <trkpt lat="17.115894050" lon="-96.456209690">
        <ele>3155.500</ele>
        <time>2020-01-21T00:00:58Z</time>
      </trkpt>
      <trkpt lat="17.115861920" lon="-96.456257660">
        <ele>3155.400</ele>
        <time>2020-01-21T00:00:59Z</time>
      </trkpt>
      <trkpt lat="17.115822340" lon="-96.456312090">
        <ele>3155.800</ele>
        <time>2020-01-21T00:01:00Z</time>
      </trkpt>
      <trkpt lat="17.115780350" lon="-96.456371230">
        <ele>3155.700</ele>
        <time>2020-01-21T00:01:01Z</time>
      </trkpt>
      <trkpt lat="17.115733820" lon="-96.456432640">
        <ele>3155.500</ele>
        <time>2020-01-21T00:01:02Z</time>
      </trkpt>
      <trkpt lat="17.115684110" lon="-96.456491660">
        <ele>3155.600</ele>
        <time>2020-01-21T00:01:03Z</time>
      </trkpt>
      <trkpt lat="17.115630300" lon="-96.456556790">
        <ele>3155.500</ele>
        <time>2020-01-21T00:01:04Z</time>
      </trkpt>
      <trkpt lat="17.115578580" lon="-96.456623750">
        <ele>3155.800</ele>
        <time>2020-01-21T00:01:05Z</time>
      </trkpt>
      <trkpt lat="17.115528310" lon="-96.456691820">
        <ele>3155.100</ele>
        <time>2020-01-21T00:01:06Z</time>
      </trkpt>
      <trkpt lat="17.115479550" lon="-96.456761560">
        <ele>3155.200</ele>
        <time>2020-01-21T00:01:07Z</time>
      </trkpt>
      <trkpt lat="17.115431990" lon="-96.456833610">
        <ele>3155.700</ele>
        <time>2020-01-21T00:01:08Z</time>
      </trkpt>
      <trkpt lat="17.115385190" lon="-96.456904420">
        <ele>3155.500</ele>
        <time>2020-01-21T00:01:09Z</time>
      </trkpt>
      <trkpt lat="17.115339620" lon="-96.456973940">
        <ele>3155.800</ele>
        <time>2020-01-21T00:01:10Z</time>
      </trkpt>
      <trkpt lat="17.115297400" lon="-96.457036250">
        <ele>3156.000</ele>
        <time>2020-01-21T00:01:11Z</time>
      </trkpt>
      <trkpt lat="17.115260390" lon="-96.457091510">
        <ele>3156.100</ele>
        <time>2020-01-21T00:01:12Z</time>
      </trkpt>
      <trkpt lat="17.115230380" lon="-96.457138620">
        <ele>3156.400</ele>
        <time>2020-01-21T00:01:13Z</time>
      </trkpt>
      <trkpt lat="17.115210300" lon="-96.457171800">
        <ele>3156.400</ele>
        <time>2020-01-21T00:01:14Z</time>
      </trkpt>
      <trkpt lat="17.115178270" lon="-96.457209720">
        <ele>3157.300</ele>
        <time>2020-01-21T00:01:16Z</time>
      </trkpt>
      <trkpt lat="17.115145120" lon="-96.457263810">
        <ele>3156.700</ele>
        <time>2020-01-21T00:01:18Z</time>
      </trkpt>
      <trkpt lat="17.115116170" lon="-96.457307650">
        <ele>3156.600</ele>
        <time>2020-01-21T00:01:19Z</time>
      </trkpt>
      <trkpt lat="17.115080590" lon="-96.457353680">
        <ele>3156.800</ele>
        <time>2020-01-21T00:01:20Z</time>
      </trkpt>
      <trkpt lat="17.115053190" lon="-96.457398290">
        <ele>3158.000</ele>
        <time>2020-01-21T00:01:21Z</time>
      </trkpt>
      <trkpt lat="17.115016960" lon="-96.457446370">
        <ele>3158.100</ele>
        <time>2020-01-21T00:01:22Z</time>
      </trkpt>
      <trkpt lat="17.114981300" lon="-96.457495150">
        <ele>3157.600</ele>
        <time>2020-01-21T00:01:23Z</time>
      </trkpt>
      <trkpt lat="17.114942850" lon="-96.457550840">
        <ele>3157.200</ele>
        <time>2020-01-21T00:01:24Z</time>
      </trkpt>
      <trkpt lat="17.114901310" lon="-96.457612200">
        <ele>3157.400</ele>
        <time>2020-01-21T00:01:25Z</time>
      </trkpt>
      <trkpt lat="17.114854190" lon="-96.457680130">
        <ele>3158.300</ele>
        <time>2020-01-21T00:01:26Z</time>
      </trkpt>
      <trkpt lat="17.114798350" lon="-96.457741010">
        <ele>3158.300</ele>
        <time>2020-01-21T00:01:27Z</time>
      </trkpt>
      <trkpt lat="17.114736320" lon="-96.457803490">
        <ele>3159.100</ele>
        <time>2020-01-21T00:01:28Z</time>
      </trkpt>
      <trkpt lat="17.114677270" lon="-96.457859390">
        <ele>3158.400</ele>
        <time>2020-01-21T00:01:29Z</time>
      </trkpt>
      <trkpt lat="17.114615000" lon="-96.457916820">
        <ele>3159.000</ele>
        <time>2020-01-21T00:01:30Z</time>
      </trkpt>
      <trkpt lat="17.114552450" lon="-96.457979230">
        <ele>3160.600</ele>
        <time>2020-01-21T00:01:31Z</time>
      </trkpt>
      <trkpt lat="17.114488600" lon="-96.458042690">
        <ele>3161.800</ele>
        <time>2020-01-21T00:01:32Z</time>
      </trkpt>
      <trkpt lat="17.114425200" lon="-96.458107040">
        <ele>3162.500</ele>
        <time>2020-01-21T00:01:33Z</time>
      </trkpt>
      <trkpt lat="17.114358040" lon="-96.458166780">
        <ele>3163.600</ele>
        <time>2020-01-21T00:01:34Z</time>
      </trkpt>
      <trkpt lat="17.114291120" lon="-96.458228680">
        <ele>3164.300</ele>
        <time>2020-01-21T00:01:35Z</time>
      </trkpt>
      <trkpt lat="17.114227410" lon="-96.458284600">
        <ele>3165.000</ele>
        <time>2020-01-21T00:01:36Z</time>
      </trkpt>
      <trkpt lat="17.114161670" lon="-96.458336260">
        <ele>3166.300</ele>
        <time>2020-01-21T00:01:37Z</time>
      </trkpt>
      <trkpt lat="17.114095460" lon="-96.458378140">
        <ele>3166.600</ele>
        <time>2020-01-21T00:01:38Z</time>
      </trkpt>
      <trkpt lat="17.114039000" lon="-96.458414060">
        <ele>3167.700</ele>
        <time>2020-01-21T00:01:39Z</time>
      </trkpt>
      <trkpt lat="17.113990500" lon="-96.458446890">
        <ele>3169.000</ele>
        <time>2020-01-21T00:01:40Z</time>
      </trkpt>
      <trkpt lat="17.113949800" lon="-96.458480590">
        <ele>3169.900</ele>
        <time>2020-01-21T00:01:41Z</time>
      </trkpt>
      <trkpt lat="17.113915440" lon="-96.458512490">
        <ele>3170.600</ele>
        <time>2020-01-21T00:01:42Z</time>
      </trkpt>
      <trkpt lat="17.113877480" lon="-96.458547190">
        <ele>3169.400</ele>
        <time>2020-01-21T00:01:44Z</time>
      </trkpt>
      <trkpt lat="17.113832990" lon="-96.458593690">
        <ele>3170.000</ele>
        <time>2020-01-21T00:01:47Z</time>
      </trkpt>
      <trkpt lat="17.113806240" lon="-96.458627590">
        <ele>3171.200</ele>
        <time>2020-01-21T00:01:48Z</time>
      </trkpt>
      <trkpt lat="17.113768070" lon="-96.458668900">
        <ele>3171.900</ele>
        <time>2020-01-21T00:01:49Z</time>
      </trkpt>
      <trkpt lat="17.113720860" lon="-96.458706600">
        <ele>3172.600</ele>
        <time>2020-01-21T00:01:50Z</time>
      </trkpt>
      <trkpt lat="17.113672710" lon="-96.458732850">
        <ele>3173.600</ele>
        <time>2020-01-21T00:01:51Z</time>
      </trkpt>
      <trkpt lat="17.113621270" lon="-96.458752410">
        <ele>3173.300</ele>
        <time>2020-01-21T00:01:52Z</time>
      </trkpt>
      <trkpt lat="17.113566090" lon="-96.458755380">
        <ele>3173.800</ele>
        <time>2020-01-21T00:01:53Z</time>
      </trkpt>
      <trkpt lat="17.113512340" lon="-96.458749780">
        <ele>3173.600</ele>
        <time>2020-01-21T00:01:54Z</time>
      </trkpt>
      <trkpt lat="17.113467960" lon="-96.458746840">
        <ele>3174.100</ele>
        <time>2020-01-21T00:01:55Z</time>
      </trkpt>
      <trkpt lat="17.113412490" lon="-96.458739680">
        <ele>3174.200</ele>
        <time>2020-01-21T00:01:57Z</time>
      </trkpt>
      <trkpt lat="17.113370520" lon="-96.458733190">
        <ele>3175.300</ele>
        <time>2020-01-21T00:01:59Z</time>
      </trkpt>
      <trkpt lat="17.113283310" lon="-96.458728140">
        <ele>3176.000</ele>
        <time>2020-01-21T00:02:01Z</time>
      </trkpt>
      <trkpt lat="17.113231000" lon="-96.458724920">
        <ele>3175.900</ele>
        <time>2020-01-21T00:02:02Z</time>
      </trkpt>
      <trkpt lat="17.113175990" lon="-96.458721250">
        <ele>3175.800</ele>
        <time>2020-01-21T00:02:03Z</time>
      </trkpt>
      <trkpt lat="17.113112890" lon="-96.458716140">
        <ele>3176.000</ele>
        <time>2020-01-21T00:02:04Z</time>
      </trkpt>
      <trkpt lat="17.113045600" lon="-96.458713420">
        <ele>3176.400</ele>
        <time>2020-01-21T00:02:05Z</time>
      </trkpt>
      <trkpt lat="17.112968580" lon="-96.458709600">
        <ele>3176.900</ele>
        <time>2020-01-21T00:02:06Z</time>
      </trkpt>
      <trkpt lat="17.112890060" lon="-96.458701460">
        <ele>3176.700</ele>
        <time>2020-01-21T00:02:07Z</time>
      </trkpt>
      <trkpt lat="17.112809160" lon="-96.458683570">
        <ele>3176.500</ele>
        <time>2020-01-21T00:02:08Z</time>
      </trkpt>
      <trkpt lat="17.112723970" lon="-96.458659510">
        <ele>3176.600</ele>
        <time>2020-01-21T00:02:09Z</time>
      </trkpt>
      <trkpt lat="17.112641120" lon="-96.458630990">
        <ele>3177.000</ele>
        <time>2020-01-21T00:02:10Z</time>
      </trkpt>
      <trkpt lat="17.112558890" lon="-96.458596740">
        <ele>3177.100</ele>
        <time>2020-01-21T00:02:11Z</time>
      </trkpt>
      <trkpt lat="17.112474810" lon="-96.458553870">
        <ele>3177.700</ele>
        <time>2020-01-21T00:02:12Z</time>
      </trkpt>
      <trkpt lat="17.112397550" lon="-96.458508690">
        <ele>3177.800</ele>
        <time>2020-01-21T00:02:13Z</time>
      </trkpt>
      <trkpt lat="17.112318620" lon="-96.458462450">
        <ele>3178.000</ele>
        <time>2020-01-21T00:02:14Z</time>
      </trkpt>
      <trkpt lat="17.112240660" lon="-96.458417620">
        <ele>3178.200</ele>
        <time>2020-01-21T00:02:15Z</time>
      </trkpt>
      <trkpt lat="17.112163130" lon="-96.458376180">
        <ele>3177.700</ele>
        <time>2020-01-21T00:02:16Z</time>
      </trkpt>
      <trkpt lat="17.112086430" lon="-96.458333340">
        <ele>3177.000</ele>
        <time>2020-01-21T00:02:17Z</time>
      </trkpt>
      <trkpt lat="17.112015200" lon="-96.458289970">
        <ele>3176.700</ele>
        <time>2020-01-21T00:02:18Z</time>
      </trkpt>
      <trkpt lat="17.111946200" lon="-96.458242620">
        <ele>3176.300</ele>
        <time>2020-01-21T00:02:19Z</time>
      </trkpt>
      <trkpt lat="17.111884060" lon="-96.458196500">
        <ele>3175.900</ele>
        <time>2020-01-21T00:02:20Z</time>
      </trkpt>
      <trkpt lat="17.111827960" lon="-96.458142370">
        <ele>3176.100</ele>
        <time>2020-01-21T00:02:21Z</time>
      </trkpt>
      <trkpt lat="17.111784350" lon="-96.458080090">
        <ele>3175.100</ele>
        <time>2020-01-21T00:02:22Z</time>
      </trkpt>
      <trkpt lat="17.111745410" lon="-96.458010110">
        <ele>3174.500</ele>
        <time>2020-01-21T00:02:23Z</time>
      </trkpt>
      <trkpt lat="17.111708910" lon="-96.457944290">
        <ele>3174.900</ele>
        <time>2020-01-21T00:02:24Z</time>
      </trkpt>
      <trkpt lat="17.111677770" lon="-96.457870890">
        <ele>3174.700</ele>
        <time>2020-01-21T00:02:25Z</time>
      </trkpt>
      <trkpt lat="17.111648770" lon="-96.457795510">
        <ele>3174.100</ele>
        <time>2020-01-21T00:02:26Z</time>
      </trkpt>
      <trkpt lat="17.111612590" lon="-96.457723390">
        <ele>3173.800</ele>
        <time>2020-01-21T00:02:27Z</time>
      </trkpt>
      <trkpt lat="17.111574960" lon="-96.457656550">
        <ele>3173.600</ele>
        <time>2020-01-21T00:02:28Z</time>
      </trkpt>
      <trkpt lat="17.111534480" lon="-96.457593470">
        <ele>3172.600</ele>
        <time>2020-01-21T00:02:29Z</time>
      </trkpt>
      <trkpt lat="17.111488000" lon="-96.457550450">
        <ele>3171.200</ele>
        <time>2020-01-21T00:02:30Z</time>
      </trkpt>
      <trkpt lat="17.111437400" lon="-96.457536590">
        <ele>3169.900</ele>
        <time>2020-01-21T00:02:31Z</time>
      </trkpt>
      <trkpt lat="17.111392900" lon="-96.457536960">
        <ele>3169.400</ele>
        <time>2020-01-21T00:02:32Z</time>
      </trkpt>
      <trkpt lat="17.111359610" lon="-96.457570100">
        <ele>3168.800</ele>
        <time>2020-01-21T00:02:33Z</time>
      </trkpt>
      <trkpt lat="17.111340670" lon="-96.457623890">
        <ele>3168.500</ele>
        <time>2020-01-21T00:02:34Z</time>
      </trkpt>
      <trkpt lat="17.111351130" lon="-96.457688250">
        <ele>3166.700</ele>
        <time>2020-01-21T00:02:35Z</time>
      </trkpt>
      <trkpt lat="17.111371300" lon="-96.457755140">
        <ele>3165.900</ele>
        <time>2020-01-21T00:02:36Z</time>
      </trkpt>
      <trkpt lat="17.111391500" lon="-96.457828180">
        <ele>3165.500</ele>
        <time>2020-01-21T00:02:37Z</time>
      </trkpt>
      <trkpt lat="17.111415170" lon="-96.457909030">
        <ele>3165.100</ele>
        <time>2020-01-21T00:02:38Z</time>
      </trkpt>
      <trkpt lat="17.111438040" lon="-96.457991390">
        <ele>3164.900</ele>
        <time>2020-01-21T00:02:39Z</time>
      </trkpt>
      <trkpt lat="17.111459170" lon="-96.458074620">
        <ele>3164.000</ele>
        <time>2020-01-21T00:02:40Z</time>
      </trkpt>
      <trkpt lat="17.111476390" lon="-96.458153480">
        <ele>3163.500</ele>
        <time>2020-01-21T00:02:41Z</time>
      </trkpt>
      <trkpt lat="17.111491870" lon="-96.458231490">
        <ele>3163.600</ele>
        <time>2020-01-21T00:02:42Z</time>
      </trkpt>
      <trkpt lat="17.111515740" lon="-96.458309590">
        <ele>3162.700</ele>
        <time>2020-01-21T00:02:43Z</time>
      </trkpt>
      <trkpt lat="17.111540220" lon="-96.458381290">
        <ele>3162.400</ele>
        <time>2020-01-21T00:02:44Z</time>
      </trkpt>
      <trkpt lat="17.111574370" lon="-96.458455800">
        <ele>3161.500</ele>
        <time>2020-01-21T00:02:45Z</time>
      </trkpt>
      <trkpt lat="17.111616650" lon="-96.458529190">
        <ele>3161.200</ele>
        <time>2020-01-21T00:02:46Z</time>
      </trkpt>
      <trkpt lat="17.111663060" lon="-96.458594780">
        <ele>3160.800</ele>
        <time>2020-01-21T00:02:47Z</time>
      </trkpt>
      <trkpt lat="17.111721410" lon="-96.458655300">
        <ele>3160.600</ele>
        <time>2020-01-21T00:02:48Z</time>
      </trkpt>
      <trkpt lat="17.111782270" lon="-96.458713970">
        <ele>3160.400</ele>
        <time>2020-01-21T00:02:49Z</time>
      </trkpt>
      <trkpt lat="17.111847010" lon="-96.458769880">
        <ele>3160.000</ele>
        <time>2020-01-21T00:02:50Z</time>
      </trkpt>
      <trkpt lat="17.111914100" lon="-96.458824820">
        <ele>3159.800</ele>
        <time>2020-01-21T00:02:51Z</time>
      </trkpt>
      <trkpt lat="17.111977610" lon="-96.458877860">
        <ele>3159.200</ele>
        <time>2020-01-21T00:02:52Z</time>
      </trkpt>
      <trkpt lat="17.112041920" lon="-96.458931940">
        <ele>3158.800</ele>
        <time>2020-01-21T00:02:53Z</time>
      </trkpt>
      <trkpt lat="17.112104580" lon="-96.458985570">
        <ele>3157.600</ele>
        <time>2020-01-21T00:02:54Z</time>
      </trkpt>
      <trkpt lat="17.112166120" lon="-96.459035960">
        <ele>3157.100</ele>
        <time>2020-01-21T00:02:55Z</time>
      </trkpt>
      <trkpt lat="17.112226120" lon="-96.459088410">
        <ele>3156.200</ele>
        <time>2020-01-21T00:02:56Z</time>
      </trkpt>
      <trkpt lat="17.112276920" lon="-96.459148080">
        <ele>3156.100</ele>
        <time>2020-01-21T00:02:57Z</time>
      </trkpt>
      <trkpt lat="17.112320820" lon="-96.459219900">
        <ele>3155.200</ele>
        <time>2020-01-21T00:02:58Z</time>
      </trkpt>
      <trkpt lat="17.112357970" lon="-96.459292000">
        <ele>3154.400</ele>
        <time>2020-01-21T00:02:59Z</time>
      </trkpt>
      <trkpt lat="17.112382320" lon="-96.459370770">
        <ele>3152.600</ele>
        <time>2020-01-21T00:03:00Z</time>
      </trkpt>
      <trkpt lat="17.112404510" lon="-96.459457710">
        <ele>3151.700</ele>
        <time>2020-01-21T00:03:01Z</time>
      </trkpt>
      <trkpt lat="17.112429530" lon="-96.459544630">
        <ele>3150.800</ele>
        <time>2020-01-21T00:03:02Z</time>
      </trkpt>
      <trkpt lat="17.112453160" lon="-96.459640240">
        <ele>3150.000</ele>
        <time>2020-01-21T00:03:03Z</time>
      </trkpt>
      <trkpt lat="17.112477640" lon="-96.459736360">
        <ele>3149.100</ele>
        <time>2020-01-21T00:03:04Z</time>
      </trkpt>
      <trkpt lat="17.112501080" lon="-96.459829120">
        <ele>3148.600</ele>
        <time>2020-01-21T00:03:05Z</time>
      </trkpt>
      <trkpt lat="17.112522500" lon="-96.459919590">
        <ele>3146.500</ele>
        <time>2020-01-21T00:03:06Z</time>
      </trkpt>
      <trkpt lat="17.112546610" lon="-96.460014990">
        <ele>3144.900</ele>
        <time>2020-01-21T00:03:07Z</time>
      </trkpt>
      <trkpt lat="17.112570050" lon="-96.460107830">
        <ele>3143.500</ele>
        <time>2020-01-21T00:03:08Z</time>
      </trkpt>
      <trkpt lat="17.112595050" lon="-96.460204950">
        <ele>3142.200</ele>
        <time>2020-01-21T00:03:09Z</time>
      </trkpt>
      <trkpt lat="17.112620920" lon="-96.460300190">
        <ele>3141.500</ele>
        <time>2020-01-21T00:03:10Z</time>
      </trkpt>
      <trkpt lat="17.112642250" lon="-96.460394380">
        <ele>3140.700</ele>
        <time>2020-01-21T00:03:11Z</time>
      </trkpt>
      <trkpt lat="17.112659230" lon="-96.460491110">
        <ele>3140.500</ele>
        <time>2020-01-21T00:03:12Z</time>
      </trkpt>
      <trkpt lat="17.112668220" lon="-96.460584680">
        <ele>3139.700</ele>
        <time>2020-01-21T00:03:13Z</time>
      </trkpt>
      <trkpt lat="17.112677480" lon="-96.460673690">
        <ele>3139.400</ele>
        <time>2020-01-21T00:03:14Z</time>
      </trkpt>
      <trkpt lat="17.112660190" lon="-96.460760270">
        <ele>3139.000</ele>
        <time>2020-01-21T00:03:15Z</time>
      </trkpt>
      <trkpt lat="17.112626350" lon="-96.460839050">
        <ele>3138.300</ele>
        <time>2020-01-21T00:03:16Z</time>
      </trkpt>
      <trkpt lat="17.112581600" lon="-96.460910870">
        <ele>3138.300</ele>
        <time>2020-01-21T00:03:17Z</time>
      </trkpt>
      <trkpt lat="17.112516210" lon="-96.460971190">
        <ele>3137.400</ele>
        <time>2020-01-21T00:03:18Z</time>
      </trkpt>
      <trkpt lat="17.112442270" lon="-96.461018580">
        <ele>3137.400</ele>
        <time>2020-01-21T00:03:19Z</time>
      </trkpt>
      <trkpt lat="17.112365630" lon="-96.461059580">
        <ele>3137.400</ele>
        <time>2020-01-21T00:03:20Z</time>
      </trkpt>
      <trkpt lat="17.112283780" lon="-96.461094010">
        <ele>3136.700</ele>
        <time>2020-01-21T00:03:21Z</time>
      </trkpt>
      <trkpt lat="17.112205930" lon="-96.461126400">
        <ele>3136.200</ele>
        <time>2020-01-21T00:03:22Z</time>
      </trkpt>
      <trkpt lat="17.112127680" lon="-96.461161120">
        <ele>3135.900</ele>
        <time>2020-01-21T00:03:23Z</time>
      </trkpt>
      <trkpt lat="17.112045870" lon="-96.461193830">
        <ele>3135.900</ele>
        <time>2020-01-21T00:03:24Z</time>
      </trkpt>
      <trkpt lat="17.111963380" lon="-96.461228690">
        <ele>3136.400</ele>
        <time>2020-01-21T00:03:25Z</time>
      </trkpt>
      <trkpt lat="17.111881900" lon="-96.461265510">
        <ele>3135.600</ele>
        <time>2020-01-21T00:03:26Z</time>
      </trkpt>
      <trkpt lat="17.111801150" lon="-96.461297230">
        <ele>3135.400</ele>
        <time>2020-01-21T00:03:27Z</time>
      </trkpt>
      <trkpt lat="17.111717980" lon="-96.461334650">
        <ele>3135.900</ele>
        <time>2020-01-21T00:03:28Z</time>
      </trkpt>
      <trkpt lat="17.111637380" lon="-96.461376830">
        <ele>3134.800</ele>
        <time>2020-01-21T00:03:29Z</time>
      </trkpt>
      <trkpt lat="17.111551750" lon="-96.461415790">
        <ele>3134.900</ele>
        <time>2020-01-21T00:03:30Z</time>
      </trkpt>
      <trkpt lat="17.111469630" lon="-96.461443210">
        <ele>3132.900</ele>
        <time>2020-01-21T00:03:31Z</time>
      </trkpt>
      <trkpt lat="17.111390760" lon="-96.461473950">
        <ele>3132.000</ele>
        <time>2020-01-21T00:03:32Z</time>
      </trkpt>
      <trkpt lat="17.111319080" lon="-96.461504830">
        <ele>3130.800</ele>
        <time>2020-01-21T00:03:33Z</time>
      </trkpt>
      <trkpt lat="17.111244440" lon="-96.461540420">
        <ele>3129.900</ele>
        <time>2020-01-21T00:03:34Z</time>
      </trkpt>
      <trkpt lat="17.111176380" lon="-96.461576400">
        <ele>3130.000</ele>
        <time>2020-01-21T00:03:35Z</time>
      </trkpt>
      <trkpt lat="17.111113630" lon="-96.461613420">
        <ele>3129.300</ele>
        <time>2020-01-21T00:03:36Z</time>
      </trkpt>
      <trkpt lat="17.111057620" lon="-96.461659870">
        <ele>3128.900</ele>
        <time>2020-01-21T00:03:37Z</time>
      </trkpt>
      <trkpt lat="17.111003340" lon="-96.461714980">
        <ele>3128.500</ele>
        <time>2020-01-21T00:03:38Z</time>
      </trkpt>
      <trkpt lat="17.110957510" lon="-96.461774040">
        <ele>3127.300</ele>
        <time>2020-01-21T00:03:39Z</time>
      </trkpt>
      <trkpt lat="17.110906630" lon="-96.461837710">
        <ele>3126.400</ele>
        <time>2020-01-21T00:03:40Z</time>
      </trkpt>
      <trkpt lat="17.110857430" lon="-96.461898420">
        <ele>3125.000</ele>
        <time>2020-01-21T00:03:41Z</time>
      </trkpt>
      <trkpt lat="17.110802740" lon="-96.461966480">
        <ele>3124.500</ele>
        <time>2020-01-21T00:03:42Z</time>
      </trkpt>
      <trkpt lat="17.110750060" lon="-96.462032160">
        <ele>3123.800</ele>
        <time>2020-01-21T00:03:43Z</time>
      </trkpt>
      <trkpt lat="17.110696980" lon="-96.462094470">
        <ele>3122.500</ele>
        <time>2020-01-21T00:03:44Z</time>
      </trkpt>
      <trkpt lat="17.110639210" lon="-96.462157000">
        <ele>3122.500</ele>
        <time>2020-01-21T00:03:45Z</time>
      </trkpt>
      <trkpt lat="17.110569750" lon="-96.462209480">
        <ele>3120.900</ele>
        <time>2020-01-21T00:03:46Z</time>
      </trkpt>
      <trkpt lat="17.110498120" lon="-96.462254490">
        <ele>3120.100</ele>
        <time>2020-01-21T00:03:47Z</time>
      </trkpt>
      <trkpt lat="17.110417540" lon="-96.462283760">
        <ele>3119.000</ele>
        <time>2020-01-21T00:03:48Z</time>
      </trkpt>
      <trkpt lat="17.110336130" lon="-96.462308880">
        <ele>3118.000</ele>
        <time>2020-01-21T00:03:49Z</time>
      </trkpt>
      <trkpt lat="17.110250340" lon="-96.462327010">
        <ele>3117.600</ele>
        <time>2020-01-21T00:03:50Z</time>
      </trkpt>
      <trkpt lat="17.110157940" lon="-96.462347090">
        <ele>3115.000</ele>
        <time>2020-01-21T00:03:51Z</time>
      </trkpt>
      <trkpt lat="17.110065840" lon="-96.462357440">
        <ele>3113.900</ele>
        <time>2020-01-21T00:03:52Z</time>
      </trkpt>
      <trkpt lat="17.109975470" lon="-96.462373020">
        <ele>3113.600</ele>
        <time>2020-01-21T00:03:53Z</time>
      </trkpt>
      <trkpt lat="17.109890160" lon="-96.462389760">
        <ele>3113.100</ele>
        <time>2020-01-21T00:03:54Z</time>
      </trkpt>
      <trkpt lat="17.109806930" lon="-96.462412510">
        <ele>3112.800</ele>
        <time>2020-01-21T00:03:55Z</time>
      </trkpt>
      <trkpt lat="17.109719160" lon="-96.462435810">
        <ele>3113.100</ele>
        <time>2020-01-21T00:03:56Z</time>
      </trkpt>
      <trkpt lat="17.109636280" lon="-96.462467770">
        <ele>3112.700</ele>
        <time>2020-01-21T00:03:57Z</time>
      </trkpt>
      <trkpt lat="17.109555800" lon="-96.462499500">
        <ele>3111.000</ele>
        <time>2020-01-21T00:03:58Z</time>
      </trkpt>
      <trkpt lat="17.109482300" lon="-96.462536100">
        <ele>3110.000</ele>
        <time>2020-01-21T00:03:59Z</time>
      </trkpt>
      <trkpt lat="17.109413720" lon="-96.462573730">
        <ele>3109.800</ele>
        <time>2020-01-21T00:04:00Z</time>
      </trkpt>
      <trkpt lat="17.109347950" lon="-96.462596590">
        <ele>3107.700</ele>
        <time>2020-01-21T00:04:01Z</time>
      </trkpt>
      <trkpt lat="17.109284720" lon="-96.462630180">
        <ele>3107.500</ele>
        <time>2020-01-21T00:04:02Z</time>
      </trkpt>
      <trkpt lat="17.109216780" lon="-96.462658900">
        <ele>3107.500</ele>
        <time>2020-01-21T00:04:03Z</time>
      </trkpt>
      <trkpt lat="17.109141990" lon="-96.462673590">
        <ele>3107.800</ele>
        <time>2020-01-21T00:04:04Z</time>
      </trkpt>
      <trkpt lat="17.109066160" lon="-96.462675130">
        <ele>3105.800</ele>
        <time>2020-01-21T00:04:05Z</time>
      </trkpt>
      <trkpt lat="17.108995160" lon="-96.462662300">
        <ele>3104.600</ele>
        <time>2020-01-21T00:04:06Z</time>
      </trkpt>
      <trkpt lat="17.108926610" lon="-96.462627570">
        <ele>3103.700</ele>
        <time>2020-01-21T00:04:07Z</time>
      </trkpt>
      <trkpt lat="17.108855530" lon="-96.462605140">
        <ele>3103.200</ele>
        <time>2020-01-21T00:04:08Z</time>
      </trkpt>
      <trkpt lat="17.108779420" lon="-96.462579480">
        <ele>3102.000</ele>
        <time>2020-01-21T00:04:09Z</time>
      </trkpt>
      <trkpt lat="17.108706030" lon="-96.462558700">
        <ele>3101.400</ele>
        <time>2020-01-21T00:04:10Z</time>
      </trkpt>
      <trkpt lat="17.108631820" lon="-96.462533930">
        <ele>3100.600</ele>
        <time>2020-01-21T00:04:11Z</time>
      </trkpt>
      <trkpt lat="17.108555250" lon="-96.462508080">
        <ele>3100.200</ele>
        <time>2020-01-21T00:04:12Z</time>
      </trkpt>
      <trkpt lat="17.108482860" lon="-96.462489150">
        <ele>3099.500</ele>
        <time>2020-01-21T00:04:13Z</time>
      </trkpt>
      <trkpt lat="17.108411890" lon="-96.462471210">
        <ele>3099.200</ele>
        <time>2020-01-21T00:04:14Z</time>
      </trkpt>
      <trkpt lat="17.108340610" lon="-96.462460210">
        <ele>3098.500</ele>
        <time>2020-01-21T00:04:15Z</time>
      </trkpt>
      <trkpt lat="17.108270840" lon="-96.462453730">
        <ele>3098.700</ele>
        <time>2020-01-21T00:04:16Z</time>
      </trkpt>
      <trkpt lat="17.108201800" lon="-96.462469340">
        <ele>3097.600</ele>
        <time>2020-01-21T00:04:17Z</time>
      </trkpt>
      <trkpt lat="17.108140200" lon="-96.462500350">
        <ele>3096.900</ele>
        <time>2020-01-21T00:04:18Z</time>
      </trkpt>
      <trkpt lat="17.108078990" lon="-96.462543190">
        <ele>3096.800</ele>
        <time>2020-01-21T00:04:19Z</time>
      </trkpt>
      <trkpt lat="17.108033480" lon="-96.462589310">
        <ele>3094.200</ele>
        <time>2020-01-21T00:04:20Z</time>
      </trkpt>
      <trkpt lat="17.107990380" lon="-96.462636790">
        <ele>3093.800</ele>
        <time>2020-01-21T00:04:21Z</time>
      </trkpt>
      <trkpt lat="17.107943420" lon="-96.462702730">
        <ele>3093.700</ele>
        <time>2020-01-21T00:04:22Z</time>
      </trkpt>
      <trkpt lat="17.107911660" lon="-96.462759390">
        <ele>3092.600</ele>
        <time>2020-01-21T00:04:23Z</time>
      </trkpt>
      <trkpt lat="17.107869930" lon="-96.462823150">
        <ele>3092.400</ele>
        <time>2020-01-21T00:04:24Z</time>
      </trkpt>
      <trkpt lat="17.107823510" lon="-96.462867840">
        <ele>3090.800</ele>
        <time>2020-01-21T00:04:25Z</time>
      </trkpt>
      <trkpt lat="17.107757760" lon="-96.462903370">
        <ele>3090.000</ele>
        <time>2020-01-21T00:04:26Z</time>
      </trkpt>
      <trkpt lat="17.107689390" lon="-96.462931840">
        <ele>3089.000</ele>
        <time>2020-01-21T00:04:27Z</time>
      </trkpt>
      <trkpt lat="17.107621840" lon="-96.462957480">
        <ele>3088.100</ele>
        <time>2020-01-21T00:04:28Z</time>
      </trkpt>
      <trkpt lat="17.107545650" lon="-96.462976070">
        <ele>3087.300</ele>
        <time>2020-01-21T00:04:29Z</time>
      </trkpt>
      <trkpt lat="17.107470640" lon="-96.462993490">
        <ele>3086.600</ele>
        <time>2020-01-21T00:04:30Z</time>
      </trkpt>
      <trkpt lat="17.107394200" lon="-96.463010770">
        <ele>3085.700</ele>
        <time>2020-01-21T00:04:31Z</time>
      </trkpt>
      <trkpt lat="17.107314610" lon="-96.463032230">
        <ele>3085.000</ele>
        <time>2020-01-21T00:04:32Z</time>
      </trkpt>
      <trkpt lat="17.107236250" lon="-96.463056830">
        <ele>3084.400</ele>
        <time>2020-01-21T00:04:33Z</time>
      </trkpt>
      <trkpt lat="17.107158320" lon="-96.463089870">
        <ele>3083.400</ele>
        <time>2020-01-21T00:04:34Z</time>
      </trkpt>
      <trkpt lat="17.107084570" lon="-96.463134480">
        <ele>3082.700</ele>
        <time>2020-01-21T00:04:35Z</time>
      </trkpt>
      <trkpt lat="17.107019040" lon="-96.463186100">
        <ele>3081.000</ele>
        <time>2020-01-21T00:04:36Z</time>
      </trkpt>
      <trkpt lat="17.106960640" lon="-96.463244150">
        <ele>3079.700</ele>
        <time>2020-01-21T00:04:37Z</time>
      </trkpt>
      <trkpt lat="17.106905950" lon="-96.463302010">
        <ele>3077.700</ele>
        <time>2020-01-21T00:04:38Z</time>
      </trkpt>
      <trkpt lat="17.106858060" lon="-96.463373860">
        <ele>3076.800</ele>
        <time>2020-01-21T00:04:39Z</time>
      </trkpt>
      <trkpt lat="17.106811280" lon="-96.463441940">
        <ele>3076.000</ele>
        <time>2020-01-21T00:04:40Z</time>
      </trkpt>
      <trkpt lat="17.106761250" lon="-96.463509380">
        <ele>3075.300</ele>
        <time>2020-01-21T00:04:41Z</time>
      </trkpt>
      <trkpt lat="17.106707160" lon="-96.463578950">
        <ele>3074.100</ele>
        <time>2020-01-21T00:04:42Z</time>
      </trkpt>
      <trkpt lat="17.106657770" lon="-96.463651950">
        <ele>3073.600</ele>
        <time>2020-01-21T00:04:43Z</time>
      </trkpt>
      <trkpt lat="17.106604540" lon="-96.463724310">
        <ele>3072.900</ele>
        <time>2020-01-21T00:04:44Z</time>
      </trkpt>
      <trkpt lat="17.106546380" lon="-96.463797670">
        <ele>3072.300</ele>
        <time>2020-01-21T00:04:45Z</time>
      </trkpt>
      <trkpt lat="17.106491370" lon="-96.463868330">
        <ele>3071.600</ele>
        <time>2020-01-21T00:04:46Z</time>
      </trkpt>
      <trkpt lat="17.106434910" lon="-96.463941980">
        <ele>3071.000</ele>
        <time>2020-01-21T00:04:47Z</time>
      </trkpt>
      <trkpt lat="17.106383680" lon="-96.464011090">
        <ele>3070.000</ele>
        <time>2020-01-21T00:04:48Z</time>
      </trkpt>
      <trkpt lat="17.106330400" lon="-96.464083510">
        <ele>3069.000</ele>
        <time>2020-01-21T00:04:49Z</time>
      </trkpt>
      <trkpt lat="17.106275550" lon="-96.464151390">
        <ele>3067.700</ele>
        <time>2020-01-21T00:04:50Z</time>
      </trkpt>
      <trkpt lat="17.106223750" lon="-96.464215300">
        <ele>3066.200</ele>
        <time>2020-01-21T00:04:51Z</time>
      </trkpt>
      <trkpt lat="17.106175520" lon="-96.464276490">
        <ele>3064.900</ele>
        <time>2020-01-21T00:04:52Z</time>
      </trkpt>
      <trkpt lat="17.106123090" lon="-96.464334710">
        <ele>3063.700</ele>
        <time>2020-01-21T00:04:53Z</time>
      </trkpt>
      <trkpt lat="17.106072710" lon="-96.464391780">
        <ele>3061.800</ele>
        <time>2020-01-21T00:04:54Z</time>
      </trkpt>
      <trkpt lat="17.106017480" lon="-96.464451550">
        <ele>3061.100</ele>
        <time>2020-01-21T00:04:55Z</time>
      </trkpt>
      <trkpt lat="17.105966420" lon="-96.464512130">
        <ele>3060.100</ele>
        <time>2020-01-21T00:04:56Z</time>
      </trkpt>
      <trkpt lat="17.105919040" lon="-96.464573440">
        <ele>3059.300</ele>
        <time>2020-01-21T00:04:57Z</time>
      </trkpt>
      <trkpt lat="17.105874250" lon="-96.464634420">
        <ele>3058.100</ele>
        <time>2020-01-21T00:04:58Z</time>
      </trkpt>
      <trkpt lat="17.105838490" lon="-96.464697860">
        <ele>3058.200</ele>
        <time>2020-01-21T00:04:59Z</time>
      </trkpt>
      <trkpt lat="17.105814840" lon="-96.464775240">
        <ele>3057.800</ele>
        <time>2020-01-21T00:05:00Z</time>
      </trkpt>
      <trkpt lat="17.105804590" lon="-96.464849510">
        <ele>3056.600</ele>
        <time>2020-01-21T00:05:01Z</time>
      </trkpt>
      <trkpt lat="17.105805850" lon="-96.464918340">
        <ele>3055.600</ele>
        <time>2020-01-21T00:05:02Z</time>
      </trkpt>
      <trkpt lat="17.105816730" lon="-96.465006860">
        <ele>3055.300</ele>
        <time>2020-01-21T00:05:03Z</time>
      </trkpt>
      <trkpt lat="17.105861470" lon="-96.465077320">
        <ele>3054.200</ele>
        <time>2020-01-21T00:05:04Z</time>
      </trkpt>
      <trkpt lat="17.105892380" lon="-96.465157310">
        <ele>3052.100</ele>
        <time>2020-01-21T00:05:05Z</time>
      </trkpt>
      <trkpt lat="17.105935510" lon="-96.465239400">
        <ele>3051.600</ele>
        <time>2020-01-21T00:05:06Z</time>
      </trkpt>
      <trkpt lat="17.105975910" lon="-96.465318980">
        <ele>3050.400</ele>
        <time>2020-01-21T00:05:07Z</time>
      </trkpt>
      <trkpt lat="17.106017050" lon="-96.465391350">
        <ele>3048.000</ele>
        <time>2020-01-21T00:05:08Z</time>
      </trkpt>
      <trkpt lat="17.106049040" lon="-96.465468390">
        <ele>3046.800</ele>
        <time>2020-01-21T00:05:09Z</time>
      </trkpt>
      <trkpt lat="17.106083610" lon="-96.465535620">
        <ele>3046.400</ele>
        <time>2020-01-21T00:05:10Z</time>
      </trkpt>
      <trkpt lat="17.106110800" lon="-96.465597670">
        <ele>3045.800</ele>
        <time>2020-01-21T00:05:11Z</time>
      </trkpt>
      <trkpt lat="17.106131040" lon="-96.465662490">
        <ele>3045.600</ele>
        <time>2020-01-21T00:05:12Z</time>
      </trkpt>
      <trkpt lat="17.106135770" lon="-96.465727570">
        <ele>3044.000</ele>
        <time>2020-01-21T00:05:13Z</time>
      </trkpt>
      <trkpt lat="17.106131970" lon="-96.465795660">
        <ele>3042.900</ele>
        <time>2020-01-21T00:05:14Z</time>
      </trkpt>
      <trkpt lat="17.106112030" lon="-96.465858270">
        <ele>3042.200</ele>
        <time>2020-01-21T00:05:15Z</time>
      </trkpt>
      <trkpt lat="17.106080220" lon="-96.465916080">
        <ele>3042.100</ele>
        <time>2020-01-21T00:05:16Z</time>
      </trkpt>
      <trkpt lat="17.106039290" lon="-96.465963520">
        <ele>3041.100</ele>
        <time>2020-01-21T00:05:17Z</time>
      </trkpt>
      <trkpt lat="17.105990310" lon="-96.465997590">
        <ele>3040.100</ele>
        <time>2020-01-21T00:05:18Z</time>
      </trkpt>
      <trkpt lat="17.105934010" lon="-96.466018860">
        <ele>3040.000</ele>
        <time>2020-01-21T00:05:19Z</time>
      </trkpt>
      <trkpt lat="17.105869790" lon="-96.466031370">
        <ele>3040.900</ele>
        <time>2020-01-21T00:05:20Z</time>
      </trkpt>
      <trkpt lat="17.105809850" lon="-96.466040030">
        <ele>3040.100</ele>
        <time>2020-01-21T00:05:21Z</time>
      </trkpt>
      <trkpt lat="17.105746710" lon="-96.466052470">
        <ele>3040.000</ele>
        <time>2020-01-21T00:05:22Z</time>
      </trkpt>
      <trkpt lat="17.105686750" lon="-96.466068130">
        <ele>3039.000</ele>
        <time>2020-01-21T00:05:23Z</time>
      </trkpt>
      <trkpt lat="17.105617220" lon="-96.466076000">
        <ele>3039.100</ele>
        <time>2020-01-21T00:05:24Z</time>
      </trkpt>
      <trkpt lat="17.105557790" lon="-96.466098820">
        <ele>3036.900</ele>
        <time>2020-01-21T00:05:25Z</time>
      </trkpt>
      <trkpt lat="17.105481820" lon="-96.466114920">
        <ele>3036.100</ele>
        <time>2020-01-21T00:05:26Z</time>
      </trkpt>
      <trkpt lat="17.105408750" lon="-96.466135520">
        <ele>3034.800</ele>
        <time>2020-01-21T00:05:27Z</time>
      </trkpt>
      <trkpt lat="17.105340340" lon="-96.466162560">
        <ele>3033.800</ele>
        <time>2020-01-21T00:05:28Z</time>
      </trkpt>
      <trkpt lat="17.105272650" lon="-96.466191930">
        <ele>3032.800</ele>
        <time>2020-01-21T00:05:29Z</time>
      </trkpt>
      <trkpt lat="17.105201800" lon="-96.466229610">
        <ele>3031.200</ele>
        <time>2020-01-21T00:05:30Z</time>
      </trkpt>
      <trkpt lat="17.105140040" lon="-96.466265030">
        <ele>3030.600</ele>
        <time>2020-01-21T00:05:31Z</time>
      </trkpt>
      <trkpt lat="17.105082100" lon="-96.466297490">
        <ele>3029.300</ele>
        <time>2020-01-21T00:05:32Z</time>
      </trkpt>
      <trkpt lat="17.105021170" lon="-96.466335210">
        <ele>3029.100</ele>
        <time>2020-01-21T00:05:33Z</time>
      </trkpt>
      <trkpt lat="17.104968840" lon="-96.466378990">
        <ele>3028.700</ele>
        <time>2020-01-21T00:05:34Z</time>
      </trkpt>
      <trkpt lat="17.104937210" lon="-96.466432950">
        <ele>3028.400</ele>
        <time>2020-01-21T00:05:35Z</time>
      </trkpt>
      <trkpt lat="17.104916170" lon="-96.466496910">
        <ele>3027.900</ele>
        <time>2020-01-21T00:05:36Z</time>
      </trkpt>
      <trkpt lat="17.104902780" lon="-96.466563610">
        <ele>3027.000</ele>
        <time>2020-01-21T00:05:37Z</time>
      </trkpt>
      <trkpt lat="17.104894360" lon="-96.466634640">
        <ele>3025.900</ele>
        <time>2020-01-21T00:05:38Z</time>
      </trkpt>
      <trkpt lat="17.104878940" lon="-96.466703040">
        <ele>3025.300</ele>
        <time>2020-01-21T00:05:39Z</time>
      </trkpt>
      <trkpt lat="17.104852660" lon="-96.466763540">
        <ele>3024.700</ele>
        <time>2020-01-21T00:05:40Z</time>
      </trkpt>
      <trkpt lat="17.104804540" lon="-96.466817130">
        <ele>3023.500</ele>
        <time>2020-01-21T00:05:41Z</time>
      </trkpt>
      <trkpt lat="17.104754850" lon="-96.466855630">
        <ele>3022.400</ele>
        <time>2020-01-21T00:05:42Z</time>
      </trkpt>
      <trkpt lat="17.104681430" lon="-96.466864870">
        <ele>3021.000</ele>
        <time>2020-01-21T00:05:43Z</time>
      </trkpt>
      <trkpt lat="17.104613300" lon="-96.466876120">
        <ele>3019.000</ele>
        <time>2020-01-21T00:05:44Z</time>
      </trkpt>
      <trkpt lat="17.104544240" lon="-96.466887100">
        <ele>3018.400</ele>
        <time>2020-01-21T00:05:45Z</time>
      </trkpt>
      <trkpt lat="17.104473290" lon="-96.466887270">
        <ele>3018.000</ele>
        <time>2020-01-21T00:05:46Z</time>
      </trkpt>
      <trkpt lat="17.104403960" lon="-96.466892800">
        <ele>3017.200</ele>
        <time>2020-01-21T00:05:47Z</time>
      </trkpt>
      <trkpt lat="17.104332480" lon="-96.466898860">
        <ele>3016.100</ele>
        <time>2020-01-21T00:05:48Z</time>
      </trkpt>
      <trkpt lat="17.104253720" lon="-96.466902910">
        <ele>3015.200</ele>
        <time>2020-01-21T00:05:49Z</time>
      </trkpt>
      <trkpt lat="17.104178060" lon="-96.466911580">
        <ele>3014.400</ele>
        <time>2020-01-21T00:05:50Z</time>
      </trkpt>
      <trkpt lat="17.104099870" lon="-96.466928320">
        <ele>3014.100</ele>
        <time>2020-01-21T00:05:51Z</time>
      </trkpt>
      <trkpt lat="17.104024110" lon="-96.466953910">
        <ele>3012.200</ele>
        <time>2020-01-21T00:05:52Z</time>
      </trkpt>
      <trkpt lat="17.103944840" lon="-96.466981590">
        <ele>3011.700</ele>
        <time>2020-01-21T00:05:53Z</time>
      </trkpt>
      <trkpt lat="17.103867220" lon="-96.467022730">
        <ele>3011.200</ele>
        <time>2020-01-21T00:05:54Z</time>
      </trkpt>
      <trkpt lat="17.103798970" lon="-96.467072260">
        <ele>3009.900</ele>
        <time>2020-01-21T00:05:55Z</time>
      </trkpt>
      <trkpt lat="17.103732030" lon="-96.467125020">
        <ele>3008.900</ele>
        <time>2020-01-21T00:05:56Z</time>
      </trkpt>
      <trkpt lat="17.103665600" lon="-96.467174320">
        <ele>3008.400</ele>
        <time>2020-01-21T00:05:57Z</time>
      </trkpt>
      <trkpt lat="17.103598890" lon="-96.467218050">
        <ele>3007.400</ele>
        <time>2020-01-21T00:05:58Z</time>
      </trkpt>
      <trkpt lat="17.103516200" lon="-96.467249480">
        <ele>3005.800</ele>
        <time>2020-01-21T00:05:59Z</time>
      </trkpt>
      <trkpt lat="17.103443920" lon="-96.467269080">
        <ele>3004.400</ele>
        <time>2020-01-21T00:06:00Z</time>
      </trkpt>
      <trkpt lat="17.103366110" lon="-96.467283610">
        <ele>3002.500</ele>
        <time>2020-01-21T00:06:01Z</time>
      </trkpt>
      <trkpt lat="17.103292420" lon="-96.467297100">
        <ele>3001.500</ele>
        <time>2020-01-21T00:06:02Z</time>
      </trkpt>
      <trkpt lat="17.103215420" lon="-96.467313870">
        <ele>3000.300</ele>
        <time>2020-01-21T00:06:03Z</time>
      </trkpt>
      <trkpt lat="17.103144510" lon="-96.467341910">
        <ele>2999.800</ele>
        <time>2020-01-21T00:06:04Z</time>
      </trkpt>
      <trkpt lat="17.103071240" lon="-96.467370320">
        <ele>2998.600</ele>
        <time>2020-01-21T00:06:05Z</time>
      </trkpt>
      <trkpt lat="17.102997890" lon="-96.467403840">
        <ele>2998.500</ele>
        <time>2020-01-21T00:06:06Z</time>
      </trkpt>
      <trkpt lat="17.102922790" lon="-96.467433790">
        <ele>2997.200</ele>
        <time>2020-01-21T00:06:07Z</time>
      </trkpt>
      <trkpt lat="17.102842310" lon="-96.467461560">
        <ele>2996.100</ele>
        <time>2020-01-21T00:06:08Z</time>
      </trkpt>
      <trkpt lat="17.102753160" lon="-96.467484640">
        <ele>2995.800</ele>
        <time>2020-01-21T00:06:09Z</time>
      </trkpt>
      <trkpt lat="17.102671150" lon="-96.467508190">
        <ele>2994.700</ele>
        <time>2020-01-21T00:06:10Z</time>
      </trkpt>
      <trkpt lat="17.102590610" lon="-96.467542320">
        <ele>2992.900</ele>
        <time>2020-01-21T00:06:11Z</time>
      </trkpt>
      <trkpt lat="17.102517890" lon="-96.467593800">
        <ele>2992.300</ele>
        <time>2020-01-21T00:06:12Z</time>
      </trkpt>
      <trkpt lat="17.102445490" lon="-96.467643320">
        <ele>2991.900</ele>
        <time>2020-01-21T00:06:13Z</time>
      </trkpt>
      <trkpt lat="17.102388510" lon="-96.467704300">
        <ele>2991.000</ele>
        <time>2020-01-21T00:06:14Z</time>
      </trkpt>
      <trkpt lat="17.102337800" lon="-96.467767660">
        <ele>2991.200</ele>
        <time>2020-01-21T00:06:15Z</time>
      </trkpt>
      <trkpt lat="17.102298270" lon="-96.467831800">
        <ele>2990.100</ele>
        <time>2020-01-21T00:06:16Z</time>
      </trkpt>
      <trkpt lat="17.102267690" lon="-96.467899070">
        <ele>2989.400</ele>
        <time>2020-01-21T00:06:17Z</time>
      </trkpt>
      <trkpt lat="17.102251480" lon="-96.467970570">
        <ele>2989.400</ele>
        <time>2020-01-21T00:06:18Z</time>
      </trkpt>
      <trkpt lat="17.102265360" lon="-96.468046390">
        <ele>2988.000</ele>
        <time>2020-01-21T00:06:19Z</time>
      </trkpt>
      <trkpt lat="17.102291530" lon="-96.468122890">
        <ele>2987.100</ele>
        <time>2020-01-21T00:06:20Z</time>
      </trkpt>
      <trkpt lat="17.102324180" lon="-96.468187390">
        <ele>2987.200</ele>
        <time>2020-01-21T00:06:21Z</time>
      </trkpt>
      <trkpt lat="17.102350290" lon="-96.468249080">
        <ele>2987.300</ele>
        <time>2020-01-21T00:06:22Z</time>
      </trkpt>
      <trkpt lat="17.102362070" lon="-96.468317190">
        <ele>2986.900</ele>
        <time>2020-01-21T00:06:23Z</time>
      </trkpt>
      <trkpt lat="17.102361180" lon="-96.468380810">
        <ele>2985.900</ele>
        <time>2020-01-21T00:06:24Z</time>
      </trkpt>
      <trkpt lat="17.102346920" lon="-96.468445870">
        <ele>2985.200</ele>
        <time>2020-01-21T00:06:25Z</time>
      </trkpt>
      <trkpt lat="17.102322760" lon="-96.468503780">
        <ele>2984.500</ele>
        <time>2020-01-21T00:06:26Z</time>
      </trkpt>
      <trkpt lat="17.102273580" lon="-96.468551150">
        <ele>2983.000</ele>
        <time>2020-01-21T00:06:27Z</time>
      </trkpt>
      <trkpt lat="17.102215960" lon="-96.468593370">
        <ele>2982.700</ele>
        <time>2020-01-21T00:06:28Z</time>
      </trkpt>
      <trkpt lat="17.102153900" lon="-96.468624230">
        <ele>2982.300</ele>
        <time>2020-01-21T00:06:29Z</time>
      </trkpt>
      <trkpt lat="17.102086540" lon="-96.468651240">
        <ele>2981.900</ele>
        <time>2020-01-21T00:06:30Z</time>
      </trkpt>
      <trkpt lat="17.102017490" lon="-96.468673380">
        <ele>2981.500</ele>
        <time>2020-01-21T00:06:31Z</time>
      </trkpt>
      <trkpt lat="17.101944870" lon="-96.468691310">
        <ele>2979.500</ele>
        <time>2020-01-21T00:06:32Z</time>
      </trkpt>
      <trkpt lat="17.101869270" lon="-96.468712120">
        <ele>2978.600</ele>
        <time>2020-01-21T00:06:33Z</time>
      </trkpt>
      <trkpt lat="17.101793630" lon="-96.468730230">
        <ele>2976.900</ele>
        <time>2020-01-21T00:06:34Z</time>
      </trkpt>
      <trkpt lat="17.101716490" lon="-96.468747160">
        <ele>2976.700</ele>
        <time>2020-01-21T00:06:35Z</time>
      </trkpt>
      <trkpt lat="17.101636410" lon="-96.468767070">
        <ele>2976.700</ele>
        <time>2020-01-21T00:06:36Z</time>
      </trkpt>
      <trkpt lat="17.101561060" lon="-96.468792170">
        <ele>2975.500</ele>
        <time>2020-01-21T00:06:37Z</time>
      </trkpt>
      <trkpt lat="17.101487740" lon="-96.468812080">
        <ele>2974.700</ele>
        <time>2020-01-21T00:06:38Z</time>
      </trkpt>
      <trkpt lat="17.101405890" lon="-96.468827600">
        <ele>2973.400</ele>
        <time>2020-01-21T00:06:39Z</time>
      </trkpt>
      <trkpt lat="17.101328210" lon="-96.468850420">
        <ele>2973.500</ele>
        <time>2020-01-21T00:06:40Z</time>
      </trkpt>
      <trkpt lat="17.101251080" lon="-96.468872790">
        <ele>2973.300</ele>
        <time>2020-01-21T00:06:41Z</time>
      </trkpt>
      <trkpt lat="17.101173470" lon="-96.468897830">
        <ele>2972.800</ele>
        <time>2020-01-21T00:06:42Z</time>
      </trkpt>
      <trkpt lat="17.101097750" lon="-96.468920120">
        <ele>2972.100</ele>
        <time>2020-01-21T00:06:43Z</time>
      </trkpt>
      <trkpt lat="17.101020230" lon="-96.468942080">
        <ele>2971.100</ele>
        <time>2020-01-21T00:06:44Z</time>
      </trkpt>
      <trkpt lat="17.100932640" lon="-96.468955860">
        <ele>2971.000</ele>
        <time>2020-01-21T00:06:45Z</time>
      </trkpt>
      <trkpt lat="17.100848650" lon="-96.468962010">
        <ele>2969.600</ele>
        <time>2020-01-21T00:06:46Z</time>
      </trkpt>
      <trkpt lat="17.100768430" lon="-96.468969610">
        <ele>2968.600</ele>
        <time>2020-01-21T00:06:47Z</time>
      </trkpt>
      <trkpt lat="17.100686700" lon="-96.468959500">
        <ele>2966.300</ele>
        <time>2020-01-21T00:06:48Z</time>
      </trkpt>
      <trkpt lat="17.100597980" lon="-96.468939990">
        <ele>2964.800</ele>
        <time>2020-01-21T00:06:49Z</time>
      </trkpt>
      <trkpt lat="17.100510150" lon="-96.468916620">
        <ele>2964.400</ele>
        <time>2020-01-21T00:06:50Z</time>
      </trkpt>
      <trkpt lat="17.100429550" lon="-96.468880290">
        <ele>2962.800</ele>
        <time>2020-01-21T00:06:51Z</time>
      </trkpt>
      <trkpt lat="17.100357640" lon="-96.468836120">
        <ele>2962.500</ele>
        <time>2020-01-21T00:06:52Z</time>
      </trkpt>
      <trkpt lat="17.100293600" lon="-96.468796040">
        <ele>2960.800</ele>
        <time>2020-01-21T00:06:53Z</time>
      </trkpt>
      <trkpt lat="17.100231590" lon="-96.468752410">
        <ele>2959.800</ele>
        <time>2020-01-21T00:06:54Z</time>
      </trkpt>
      <trkpt lat="17.100166640" lon="-96.468721560">
        <ele>2958.400</ele>
        <time>2020-01-21T00:06:55Z</time>
      </trkpt>
      <trkpt lat="17.100090830" lon="-96.468693000">
        <ele>2957.100</ele>
        <time>2020-01-21T00:06:56Z</time>
      </trkpt>
      <trkpt lat="17.100021100" lon="-96.468675030">
        <ele>2956.700</ele>
        <time>2020-01-21T00:06:57Z</time>
      </trkpt>
      <trkpt lat="17.099954250" lon="-96.468666410">
        <ele>2956.200</ele>
        <time>2020-01-21T00:06:58Z</time>
      </trkpt>
      <trkpt lat="17.099879590" lon="-96.468667830">
        <ele>2955.400</ele>
        <time>2020-01-21T00:06:59Z</time>
      </trkpt>
      <trkpt lat="17.099797830" lon="-96.468677810">
        <ele>2954.700</ele>
        <time>2020-01-21T00:07:00Z</time>
      </trkpt>
      <trkpt lat="17.099712810" lon="-96.468690870">
        <ele>2953.200</ele>
        <time>2020-01-21T00:07:01Z</time>
      </trkpt>
      <trkpt lat="17.099628950" lon="-96.468708120">
        <ele>2952.100</ele>
        <time>2020-01-21T00:07:02Z</time>
      </trkpt>
      <trkpt lat="17.099541860" lon="-96.468726160">
        <ele>2951.200</ele>
        <time>2020-01-21T00:07:03Z</time>
      </trkpt>
      <trkpt lat="17.099450770" lon="-96.468744370">
        <ele>2950.300</ele>
        <time>2020-01-21T00:07:04Z</time>
      </trkpt>
      <trkpt lat="17.099360790" lon="-96.468761210">
        <ele>2949.300</ele>
        <time>2020-01-21T00:07:05Z</time>
      </trkpt>
      <trkpt lat="17.099276560" lon="-96.468775300">
        <ele>2948.200</ele>
        <time>2020-01-21T00:07:06Z</time>
      </trkpt>
      <trkpt lat="17.099190530" lon="-96.468782840">
        <ele>2948.000</ele>
        <time>2020-01-21T00:07:07Z</time>
      </trkpt>
      <trkpt lat="17.099103570" lon="-96.468787980">
        <ele>2947.900</ele>
        <time>2020-01-21T00:07:08Z</time>
      </trkpt>
      <trkpt lat="17.099018880" lon="-96.468794670">
        <ele>2947.300</ele>
        <time>2020-01-21T00:07:09Z</time>
      </trkpt>
      <trkpt lat="17.098938080" lon="-96.468801070">
        <ele>2946.600</ele>
        <time>2020-01-21T00:07:10Z</time>
      </trkpt>
      <trkpt lat="17.098848770" lon="-96.468791830">
        <ele>2946.500</ele>
        <time>2020-01-21T00:07:11Z</time>
      </trkpt>
      <trkpt lat="17.098767180" lon="-96.468792650">
        <ele>2944.800</ele>
        <time>2020-01-21T00:07:12Z</time>
      </trkpt>
      <trkpt lat="17.098695510" lon="-96.468797210">
        <ele>2943.500</ele>
        <time>2020-01-21T00:07:13Z</time>
      </trkpt>
      <trkpt lat="17.098624590" lon="-96.468800480">
        <ele>2943.300</ele>
        <time>2020-01-21T00:07:14Z</time>
      </trkpt>
      <trkpt lat="17.098550540" lon="-96.468806330">
        <ele>2944.100</ele>
        <time>2020-01-21T00:07:15Z</time>
      </trkpt>
      <trkpt lat="17.098480720" lon="-96.468823100">
        <ele>2943.800</ele>
        <time>2020-01-21T00:07:16Z</time>
      </trkpt>
      <trkpt lat="17.098407020" lon="-96.468860040">
        <ele>2941.400</ele>
        <time>2020-01-21T00:07:17Z</time>
      </trkpt>
      <trkpt lat="17.098349700" lon="-96.468885660">
        <ele>2939.700</ele>
        <time>2020-01-21T00:07:18Z</time>
      </trkpt>
      <trkpt lat="17.098291120" lon="-96.468942200">
        <ele>2941.100</ele>
        <time>2020-01-21T00:07:19Z</time>
      </trkpt>
      <trkpt lat="17.098240830" lon="-96.468999760">
        <ele>2940.800</ele>
        <time>2020-01-21T00:07:20Z</time>
      </trkpt>
      <trkpt lat="17.098206510" lon="-96.469075230">
        <ele>2940.700</ele>
        <time>2020-01-21T00:07:21Z</time>
      </trkpt>
      <trkpt lat="17.098167870" lon="-96.469132670">
        <ele>2941.300</ele>
        <time>2020-01-21T00:07:22Z</time>
      </trkpt>
      <trkpt lat="17.098141810" lon="-96.469191850">
        <ele>2940.400</ele>
        <time>2020-01-21T00:07:23Z</time>
      </trkpt>
      <trkpt lat="17.098123630" lon="-96.469261890">
        <ele>2940.500</ele>
        <time>2020-01-21T00:07:24Z</time>
      </trkpt>
      <trkpt lat="17.098120370" lon="-96.469338060">
        <ele>2940.500</ele>
        <time>2020-01-21T00:07:25Z</time>
      </trkpt>
      <trkpt lat="17.098146450" lon="-96.469407210">
        <ele>2939.900</ele>
        <time>2020-01-21T00:07:26Z</time>
      </trkpt>
      <trkpt lat="17.098192540" lon="-96.469463990">
        <ele>2937.900</ele>
        <time>2020-01-21T00:07:27Z</time>
      </trkpt>
      <trkpt lat="17.098265680" lon="-96.469509890">
        <ele>2934.900</ele>
        <time>2020-01-21T00:07:28Z</time>
      </trkpt>
      <trkpt lat="17.098336410" lon="-96.469535820">
        <ele>2934.800</ele>
        <time>2020-01-21T00:07:29Z</time>
      </trkpt>
      <trkpt lat="17.098409530" lon="-96.469559800">
        <ele>2934.500</ele>
        <time>2020-01-21T00:07:30Z</time>
      </trkpt>
      <trkpt lat="17.098485430" lon="-96.469574460">
        <ele>2933.400</ele>
        <time>2020-01-21T00:07:31Z</time>
      </trkpt>
      <trkpt lat="17.098564590" lon="-96.469588400">
        <ele>2932.700</ele>
        <time>2020-01-21T00:07:32Z</time>
      </trkpt>
      <trkpt lat="17.098646590" lon="-96.469609210">
        <ele>2932.300</ele>
        <time>2020-01-21T00:07:33Z</time>
      </trkpt>
      <trkpt lat="17.098723980" lon="-96.469626940">
        <ele>2931.800</ele>
        <time>2020-01-21T00:07:34Z</time>
      </trkpt>
      <trkpt lat="17.098796280" lon="-96.469648830">
        <ele>2931.800</ele>
        <time>2020-01-21T00:07:35Z</time>
      </trkpt>
      <trkpt lat="17.098861730" lon="-96.469664970">
        <ele>2932.000</ele>
        <time>2020-01-21T00:07:36Z</time>
      </trkpt>
      <trkpt lat="17.098936570" lon="-96.469690550">
        <ele>2931.900</ele>
        <time>2020-01-21T00:07:37Z</time>
      </trkpt>
      <trkpt lat="17.098996710" lon="-96.469718480">
        <ele>2931.600</ele>
        <time>2020-01-21T00:07:38Z</time>
      </trkpt>
      <trkpt lat="17.099065970" lon="-96.469752630">
        <ele>2931.000</ele>
        <time>2020-01-21T00:07:39Z</time>
      </trkpt>
      <trkpt lat="17.099128630" lon="-96.469789860">
        <ele>2930.700</ele>
        <time>2020-01-21T00:07:40Z</time>
      </trkpt>
      <trkpt lat="17.099203470" lon="-96.469838330">
        <ele>2929.300</ele>
        <time>2020-01-21T00:07:41Z</time>
      </trkpt>
      <trkpt lat="17.099263980" lon="-96.469880070">
        <ele>2926.700</ele>
        <time>2020-01-21T00:07:42Z</time>
      </trkpt>
      <trkpt lat="17.099334510" lon="-96.469923190">
        <ele>2924.400</ele>
        <time>2020-01-21T00:07:43Z</time>
      </trkpt>
      <trkpt lat="17.099392710" lon="-96.469960250">
        <ele>2924.500</ele>
        <time>2020-01-21T00:07:44Z</time>
      </trkpt>
      <trkpt lat="17.099445870" lon="-96.469998870">
        <ele>2924.400</ele>
        <time>2020-01-21T00:07:45Z</time>
      </trkpt>
      <trkpt lat="17.099502180" lon="-96.470043800">
        <ele>2924.900</ele>
        <time>2020-01-21T00:07:46Z</time>
      </trkpt>
      <trkpt lat="17.099545250" lon="-96.470089380">
        <ele>2924.700</ele>
        <time>2020-01-21T00:07:47Z</time>
      </trkpt>
      <trkpt lat="17.099588820" lon="-96.470132350">
        <ele>2925.400</ele>
        <time>2020-01-21T00:07:48Z</time>
      </trkpt>
      <trkpt lat="17.099632320" lon="-96.470177770">
        <ele>2925.700</ele>
        <time>2020-01-21T00:07:49Z</time>
      </trkpt>
      <trkpt lat="17.099667230" lon="-96.470221050">
        <ele>2925.900</ele>
        <time>2020-01-21T00:07:50Z</time>
      </trkpt>
      <trkpt lat="17.099700310" lon="-96.470264340">
        <ele>2925.400</ele>
        <time>2020-01-21T00:07:51Z</time>
      </trkpt>
      <trkpt lat="17.099730910" lon="-96.470312150">
        <ele>2925.000</ele>
        <time>2020-01-21T00:07:52Z</time>
      </trkpt>
      <trkpt lat="17.099756680" lon="-96.470360040">
        <ele>2924.700</ele>
        <time>2020-01-21T00:07:53Z</time>
      </trkpt>
      <trkpt lat="17.099785720" lon="-96.470407510">
        <ele>2924.200</ele>
        <time>2020-01-21T00:07:54Z</time>
      </trkpt>
      <trkpt lat="17.099811420" lon="-96.470458700">
        <ele>2924.000</ele>
        <time>2020-01-21T00:07:55Z</time>
      </trkpt>
      <trkpt lat="17.099834140" lon="-96.470505940">
        <ele>2923.900</ele>
        <time>2020-01-21T00:07:56Z</time>
      </trkpt>
      <trkpt lat="17.099845870" lon="-96.470550730">
        <ele>2922.400</ele>
        <time>2020-01-21T00:07:57Z</time>
      </trkpt>
      <trkpt lat="17.099842800" lon="-96.470604560">
        <ele>2921.300</ele>
        <time>2020-01-21T00:07:58Z</time>
      </trkpt>
      <trkpt lat="17.099831490" lon="-96.470652430">
        <ele>2920.600</ele>
        <time>2020-01-21T00:07:59Z</time>
      </trkpt>
      <trkpt lat="17.099803770" lon="-96.470693170">
        <ele>2920.000</ele>
        <time>2020-01-21T00:08:00Z</time>
      </trkpt>
      <trkpt lat="17.099761270" lon="-96.470722770">
        <ele>2919.900</ele>
        <time>2020-01-21T00:08:01Z</time>
      </trkpt>
      <trkpt lat="17.099705140" lon="-96.470727760">
        <ele>2918.600</ele>
        <time>2020-01-21T00:08:02Z</time>
      </trkpt>
      <trkpt lat="17.099648250" lon="-96.470715390">
        <ele>2918.800</ele>
        <time>2020-01-21T00:08:03Z</time>
      </trkpt>
      <trkpt lat="17.099590170" lon="-96.470684660">
        <ele>2918.600</ele>
        <time>2020-01-21T00:08:04Z</time>
      </trkpt>
      <trkpt lat="17.099545450" lon="-96.470640100">
        <ele>2917.300</ele>
        <time>2020-01-21T00:08:05Z</time>
      </trkpt>
      <trkpt lat="17.099496370" lon="-96.470590740">
        <ele>2916.900</ele>
        <time>2020-01-21T00:08:06Z</time>
      </trkpt>
      <trkpt lat="17.099445790" lon="-96.470534420">
        <ele>2915.800</ele>
        <time>2020-01-21T00:08:07Z</time>
      </trkpt>
      <trkpt lat="17.099395550" lon="-96.470477030">
        <ele>2916.000</ele>
        <time>2020-01-21T00:08:08Z</time>
      </trkpt>
      <trkpt lat="17.099349280" lon="-96.470422700">
        <ele>2914.500</ele>
        <time>2020-01-21T00:08:09Z</time>
      </trkpt>
      <trkpt lat="17.099302870" lon="-96.470360610">
        <ele>2914.300</ele>
        <time>2020-01-21T00:08:10Z</time>
      </trkpt>
      <trkpt lat="17.099257320" lon="-96.470300590">
        <ele>2914.100</ele>
        <time>2020-01-21T00:08:11Z</time>
      </trkpt>
      <trkpt lat="17.099211220" lon="-96.470241830">
        <ele>2913.800</ele>
        <time>2020-01-21T00:08:12Z</time>
      </trkpt>
      <trkpt lat="17.099155610" lon="-96.470182750">
        <ele>2914.100</ele>
        <time>2020-01-21T00:08:13Z</time>
      </trkpt>
      <trkpt lat="17.099097450" lon="-96.470122450">
        <ele>2912.100</ele>
        <time>2020-01-21T00:08:14Z</time>
      </trkpt>
      <trkpt lat="17.099036180" lon="-96.470083330">
        <ele>2911.100</ele>
        <time>2020-01-21T00:08:15Z</time>
      </trkpt>
      <trkpt lat="17.098971860" lon="-96.470052980">
        <ele>2911.000</ele>
        <time>2020-01-21T00:08:16Z</time>
      </trkpt>
      <trkpt lat="17.098904600" lon="-96.470029950">
        <ele>2911.000</ele>
        <time>2020-01-21T00:08:17Z</time>
      </trkpt>
      <trkpt lat="17.098837150" lon="-96.470022290">
        <ele>2909.800</ele>
        <time>2020-01-21T00:08:18Z</time>
      </trkpt>
      <trkpt lat="17.098759020" lon="-96.470018470">
        <ele>2909.900</ele>
        <time>2020-01-21T00:08:19Z</time>
      </trkpt>
      <trkpt lat="17.098682370" lon="-96.470017750">
        <ele>2907.400</ele>
        <time>2020-01-21T00:08:20Z</time>
      </trkpt>
      <trkpt lat="17.098599920" lon="-96.470018840">
        <ele>2906.900</ele>
        <time>2020-01-21T00:08:21Z</time>
      </trkpt>
      <trkpt lat="17.098521820" lon="-96.470016710">
        <ele>2907.300</ele>
        <time>2020-01-21T00:08:22Z</time>
      </trkpt>
      <trkpt lat="17.098440940" lon="-96.470018930">
        <ele>2908.100</ele>
        <time>2020-01-21T00:08:23Z</time>
      </trkpt>
      <trkpt lat="17.098362310" lon="-96.470016210">
        <ele>2907.600</ele>
        <time>2020-01-21T00:08:24Z</time>
      </trkpt>
      <trkpt lat="17.098282070" lon="-96.470019650">
        <ele>2907.100</ele>
        <time>2020-01-21T00:08:25Z</time>
      </trkpt>
      <trkpt lat="17.098203680" lon="-96.470018440">
        <ele>2906.400</ele>
        <time>2020-01-21T00:08:26Z</time>
      </trkpt>
      <trkpt lat="17.098129740" lon="-96.470016480">
        <ele>2904.700</ele>
        <time>2020-01-21T00:08:27Z</time>
      </trkpt>
      <trkpt lat="17.098054800" lon="-96.470012850">
        <ele>2903.800</ele>
        <time>2020-01-21T00:08:28Z</time>
      </trkpt>
      <trkpt lat="17.097979150" lon="-96.470009160">
        <ele>2902.900</ele>
        <time>2020-01-21T00:08:29Z</time>
      </trkpt>
      <trkpt lat="17.097901850" lon="-96.470010830">
        <ele>2901.200</ele>
        <time>2020-01-21T00:08:30Z</time>
      </trkpt>
      <trkpt lat="17.097838850" lon="-96.470007890">
        <ele>2899.000</ele>
        <time>2020-01-21T00:08:31Z</time>
      </trkpt>
      <trkpt lat="17.097763620" lon="-96.470010280">
        <ele>2898.800</ele>
        <time>2020-01-21T00:08:32Z</time>
      </trkpt>
      <trkpt lat="17.097689510" lon="-96.470006260">
        <ele>2898.000</ele>
        <time>2020-01-21T00:08:33Z</time>
      </trkpt>
      <trkpt lat="17.097631920" lon="-96.470002140">
        <ele>2895.700</ele>
        <time>2020-01-21T00:08:34Z</time>
      </trkpt>
      <trkpt lat="17.097564220" lon="-96.469987330">
        <ele>2894.400</ele>
        <time>2020-01-21T00:08:35Z</time>
      </trkpt>
      <trkpt lat="17.097503700" lon="-96.469959110">
        <ele>2893.300</ele>
        <time>2020-01-21T00:08:36Z</time>
      </trkpt>
      <trkpt lat="17.097443140" lon="-96.469921780">
        <ele>2893.400</ele>
        <time>2020-01-21T00:08:37Z</time>
      </trkpt>
      <trkpt lat="17.097391550" lon="-96.469878520">
        <ele>2893.700</ele>
        <time>2020-01-21T00:08:38Z</time>
      </trkpt>
      <trkpt lat="17.097345150" lon="-96.469814400">
        <ele>2894.200</ele>
        <time>2020-01-21T00:08:39Z</time>
      </trkpt>
      <trkpt lat="17.097309330" lon="-96.469755340">
        <ele>2892.600</ele>
        <time>2020-01-21T00:08:40Z</time>
      </trkpt>
      <trkpt lat="17.097265230" lon="-96.469698750">
        <ele>2892.300</ele>
        <time>2020-01-21T00:08:41Z</time>
      </trkpt>
      <trkpt lat="17.097209350" lon="-96.469654130">
        <ele>2892.000</ele>
        <time>2020-01-21T00:08:42Z</time>
      </trkpt>
      <trkpt lat="17.097132780" lon="-96.469618610">
        <ele>2890.700</ele>
        <time>2020-01-21T00:08:43Z</time>
      </trkpt>
      <trkpt lat="17.097059430" lon="-96.469612020">
        <ele>2890.200</ele>
        <time>2020-01-21T00:08:44Z</time>
      </trkpt>
      <trkpt lat="17.096975350" lon="-96.469618920">
        <ele>2890.600</ele>
        <time>2020-01-21T00:08:45Z</time>
      </trkpt>
      <trkpt lat="17.096902720" lon="-96.469659650">
        <ele>2892.300</ele>
        <time>2020-01-21T00:08:46Z</time>
      </trkpt>
      <trkpt lat="17.096828460" lon="-96.469710760">
        <ele>2891.900</ele>
        <time>2020-01-21T00:08:47Z</time>
      </trkpt>
      <trkpt lat="17.096756820" lon="-96.469766430">
        <ele>2891.100</ele>
        <time>2020-01-21T00:08:48Z</time>
      </trkpt>
      <trkpt lat="17.096693780" lon="-96.469816350">
        <ele>2890.000</ele>
        <time>2020-01-21T00:08:49Z</time>
      </trkpt>
      <trkpt lat="17.096624760" lon="-96.469877580">
        <ele>2887.900</ele>
        <time>2020-01-21T00:08:50Z</time>
      </trkpt>
      <trkpt lat="17.096555870" lon="-96.469937710">
        <ele>2887.200</ele>
        <time>2020-01-21T00:08:51Z</time>
      </trkpt>
      <trkpt lat="17.096483040" lon="-96.469994860">
        <ele>2885.400</ele>
        <time>2020-01-21T00:08:52Z</time>
      </trkpt>
      <trkpt lat="17.096417990" lon="-96.470046150">
        <ele>2882.300</ele>
        <time>2020-01-21T00:08:53Z</time>
      </trkpt>
      <trkpt lat="17.096353630" lon="-96.470093980">
        <ele>2882.000</ele>
        <time>2020-01-21T00:08:54Z</time>
      </trkpt>
      <trkpt lat="17.096275130" lon="-96.470131590">
        <ele>2880.300</ele>
        <time>2020-01-21T00:08:55Z</time>
      </trkpt>
      <trkpt lat="17.096188830" lon="-96.470160670">
        <ele>2880.800</ele>
        <time>2020-01-21T00:08:56Z</time>
      </trkpt>
      <trkpt lat="17.096092770" lon="-96.470189740">
        <ele>2880.400</ele>
        <time>2020-01-21T00:08:57Z</time>
      </trkpt>
      <trkpt lat="17.096010020" lon="-96.470174750">
        <ele>2876.600</ele>
        <time>2020-01-21T00:08:58Z</time>
      </trkpt>
      <trkpt lat="17.095928070" lon="-96.470176430">
        <ele>2875.500</ele>
        <time>2020-01-21T00:08:59Z</time>
      </trkpt>
      <trkpt lat="17.095851360" lon="-96.470175500">
        <ele>2874.100</ele>
        <time>2020-01-21T00:09:00Z</time>
      </trkpt>
      <trkpt lat="17.095778930" lon="-96.470159930">
        <ele>2873.100</ele>
        <time>2020-01-21T00:09:01Z</time>
      </trkpt>
      <trkpt lat="17.095717730" lon="-96.470135340">
        <ele>2872.000</ele>
        <time>2020-01-21T00:09:02Z</time>
      </trkpt>
      <trkpt lat="17.095669440" lon="-96.470102390">
        <ele>2872.200</ele>
        <time>2020-01-21T00:09:03Z</time>
      </trkpt>
      <trkpt lat="17.095632390" lon="-96.470057390">
        <ele>2871.900</ele>
        <time>2020-01-21T00:09:04Z</time>
      </trkpt>
      <trkpt lat="17.095603190" lon="-96.469995750">
        <ele>2871.600</ele>
        <time>2020-01-21T00:09:05Z</time>
      </trkpt>
      <trkpt lat="17.095580270" lon="-96.469940360">
        <ele>2871.000</ele>
        <time>2020-01-21T00:09:06Z</time>
      </trkpt>
      <trkpt lat="17.095552510" lon="-96.469885950">
        <ele>2871.000</ele>
        <time>2020-01-21T00:09:07Z</time>
      </trkpt>
      <trkpt lat="17.095523390" lon="-96.469829070">
        <ele>2870.400</ele>
        <time>2020-01-21T00:09:08Z</time>
      </trkpt>
      <trkpt lat="17.095494160" lon="-96.469772600">
        <ele>2870.700</ele>
        <time>2020-01-21T00:09:09Z</time>
      </trkpt>
      <trkpt lat="17.095455620" lon="-96.469719650">
        <ele>2869.800</ele>
        <time>2020-01-21T00:09:10Z</time>
      </trkpt>
      <trkpt lat="17.095407810" lon="-96.469683520">
        <ele>2870.000</ele>
        <time>2020-01-21T00:09:11Z</time>
      </trkpt>
      <trkpt lat="17.095360820" lon="-96.469643730">
        <ele>2869.400</ele>
        <time>2020-01-21T00:09:12Z</time>
      </trkpt>
      <trkpt lat="17.095302260" lon="-96.469635310">
        <ele>2869.200</ele>
        <time>2020-01-21T00:09:13Z</time>
      </trkpt>
      <trkpt lat="17.095241470" lon="-96.469643020">
        <ele>2865.800</ele>
        <time>2020-01-21T00:09:14Z</time>
      </trkpt>
      <trkpt lat="17.095182800" lon="-96.469679600">
        <ele>2864.600</ele>
        <time>2020-01-21T00:09:15Z</time>
      </trkpt>
      <trkpt lat="17.095118690" lon="-96.469723580">
        <ele>2861.400</ele>
        <time>2020-01-21T00:09:16Z</time>
      </trkpt>
      <trkpt lat="17.095060260" lon="-96.469779830">
        <ele>2858.200</ele>
        <time>2020-01-21T00:09:17Z</time>
      </trkpt>
      <trkpt lat="17.095002150" lon="-96.469841770">
        <ele>2857.200</ele>
        <time>2020-01-21T00:09:18Z</time>
      </trkpt>
      <trkpt lat="17.094951100" lon="-96.469911230">
        <ele>2855.600</ele>
        <time>2020-01-21T00:09:19Z</time>
      </trkpt>
      <trkpt lat="17.094901370" lon="-96.469987010">
        <ele>2854.700</ele>
        <time>2020-01-21T00:09:20Z</time>
      </trkpt>
      <trkpt lat="17.094857860" lon="-96.470061790">
        <ele>2853.300</ele>
        <time>2020-01-21T00:09:21Z</time>
      </trkpt>
      <trkpt lat="17.094814940" lon="-96.470135040">
        <ele>2852.900</ele>
        <time>2020-01-21T00:09:22Z</time>
      </trkpt>
      <trkpt lat="17.094764720" lon="-96.470195900">
        <ele>2852.200</ele>
        <time>2020-01-21T00:09:23Z</time>
      </trkpt>
      <trkpt lat="17.094699730" lon="-96.470247310">
        <ele>2850.900</ele>
        <time>2020-01-21T00:09:24Z</time>
      </trkpt>
      <trkpt lat="17.094626790" lon="-96.470294320">
        <ele>2849.000</ele>
        <time>2020-01-21T00:09:25Z</time>
      </trkpt>
      <trkpt lat="17.094552960" lon="-96.470323670">
        <ele>2847.500</ele>
        <time>2020-01-21T00:09:26Z</time>
      </trkpt>
      <trkpt lat="17.094475140" lon="-96.470345890">
        <ele>2845.500</ele>
        <time>2020-01-21T00:09:27Z</time>
      </trkpt>
      <trkpt lat="17.094395020" lon="-96.470360360">
        <ele>2844.700</ele>
        <time>2020-01-21T00:09:28Z</time>
      </trkpt>
      <trkpt lat="17.094310050" lon="-96.470370890">
        <ele>2843.800</ele>
        <time>2020-01-21T00:09:29Z</time>
      </trkpt>
      <trkpt lat="17.094233670" lon="-96.470377960">
        <ele>2843.300</ele>
        <time>2020-01-21T00:09:30Z</time>
      </trkpt>
      <trkpt lat="17.094156420" lon="-96.470386910">
        <ele>2843.400</ele>
        <time>2020-01-21T00:09:31Z</time>
      </trkpt>
      <trkpt lat="17.094080670" lon="-96.470401050">
        <ele>2842.600</ele>
        <time>2020-01-21T00:09:32Z</time>
      </trkpt>
      <trkpt lat="17.094005160" lon="-96.470420440">
        <ele>2842.200</ele>
        <time>2020-01-21T00:09:33Z</time>
      </trkpt>
      <trkpt lat="17.093931210" lon="-96.470443950">
        <ele>2842.400</ele>
        <time>2020-01-21T00:09:34Z</time>
      </trkpt>
      <trkpt lat="17.093859680" lon="-96.470475790">
        <ele>2842.100</ele>
        <time>2020-01-21T00:09:35Z</time>
      </trkpt>
      <trkpt lat="17.093798630" lon="-96.470515340">
        <ele>2840.400</ele>
        <time>2020-01-21T00:09:36Z</time>
      </trkpt>
      <trkpt lat="17.093727370" lon="-96.470564820">
        <ele>2838.700</ele>
        <time>2020-01-21T00:09:37Z</time>
      </trkpt>
      <trkpt lat="17.093660900" lon="-96.470610480">
        <ele>2838.000</ele>
        <time>2020-01-21T00:09:38Z</time>
      </trkpt>
      <trkpt lat="17.093591250" lon="-96.470658830">
        <ele>2838.200</ele>
        <time>2020-01-21T00:09:39Z</time>
      </trkpt>
      <trkpt lat="17.093525450" lon="-96.470706500">
        <ele>2837.600</ele>
        <time>2020-01-21T00:09:40Z</time>
      </trkpt>
      <trkpt lat="17.093456380" lon="-96.470750940">
        <ele>2837.500</ele>
        <time>2020-01-21T00:09:41Z</time>
      </trkpt>
      <trkpt lat="17.093382210" lon="-96.470795310">
        <ele>2835.600</ele>
        <time>2020-01-21T00:09:42Z</time>
      </trkpt>
      <trkpt lat="17.093303720" lon="-96.470841530">
        <ele>2836.100</ele>
        <time>2020-01-21T00:09:43Z</time>
      </trkpt>
      <trkpt lat="17.093224630" lon="-96.470875180">
        <ele>2834.500</ele>
        <time>2020-01-21T00:09:44Z</time>
      </trkpt>
      <trkpt lat="17.093135910" lon="-96.470912030">
        <ele>2833.300</ele>
        <time>2020-01-21T00:09:45Z</time>
      </trkpt>
      <trkpt lat="17.093045360" lon="-96.470937150">
        <ele>2832.400</ele>
        <time>2020-01-21T00:09:46Z</time>
      </trkpt>
      <trkpt lat="17.092950770" lon="-96.470936300">
        <ele>2830.300</ele>
        <time>2020-01-21T00:09:47Z</time>
      </trkpt>
      <trkpt lat="17.092851610" lon="-96.470943690">
        <ele>2829.000</ele>
        <time>2020-01-21T00:09:48Z</time>
      </trkpt>
      <trkpt lat="17.092753510" lon="-96.470944200">
        <ele>2828.600</ele>
        <time>2020-01-21T00:09:49Z</time>
      </trkpt>
      <trkpt lat="17.092652150" lon="-96.470950920">
        <ele>2828.300</ele>
        <time>2020-01-21T00:09:50Z</time>
      </trkpt>
      <trkpt lat="17.092542740" lon="-96.470965940">
        <ele>2828.000</ele>
        <time>2020-01-21T00:09:51Z</time>
      </trkpt>
      <trkpt lat="17.092438590" lon="-96.470982800">
        <ele>2827.900</ele>
        <time>2020-01-21T00:09:52Z</time>
      </trkpt>
      <trkpt lat="17.092337280" lon="-96.471000490">
        <ele>2827.200</ele>
        <time>2020-01-21T00:09:53Z</time>
      </trkpt>
      <trkpt lat="17.092235460" lon="-96.470998080">
        <ele>2824.000</ele>
        <time>2020-01-21T00:09:54Z</time>
      </trkpt>
      <trkpt lat="17.092134330" lon="-96.471000660">
        <ele>2822.700</ele>
        <time>2020-01-21T00:09:55Z</time>
      </trkpt>
      <trkpt lat="17.092045870" lon="-96.470994580">
        <ele>2821.200</ele>
        <time>2020-01-21T00:09:56Z</time>
      </trkpt>
      <trkpt lat="17.091957390" lon="-96.470973420">
        <ele>2820.700</ele>
        <time>2020-01-21T00:09:57Z</time>
      </trkpt>
      <trkpt lat="17.091868250" lon="-96.470942530">
        <ele>2821.600</ele>
        <time>2020-01-21T00:09:58Z</time>
      </trkpt>
      <trkpt lat="17.091787540" lon="-96.470906290">
        <ele>2821.500</ele>
        <time>2020-01-21T00:09:59Z</time>
      </trkpt>
      <trkpt lat="17.091704760" lon="-96.470843550">
        <ele>2822.900</ele>
        <time>2020-01-21T00:10:00Z</time>
      </trkpt>
      <trkpt lat="17.091623890" lon="-96.470784290">
        <ele>2823.300</ele>
        <time>2020-01-21T00:10:01Z</time>
      </trkpt>
      <trkpt lat="17.091550360" lon="-96.470717110">
        <ele>2822.200</ele>
        <time>2020-01-21T00:10:02Z</time>
      </trkpt>
      <trkpt lat="17.091489550" lon="-96.470642160">
        <ele>2822.700</ele>
        <time>2020-01-21T00:10:03Z</time>
      </trkpt>
      <trkpt lat="17.091438170" lon="-96.470555660">
        <ele>2823.000</ele>
        <time>2020-01-21T00:10:04Z</time>
      </trkpt>
      <trkpt lat="17.091381930" lon="-96.470475540">
        <ele>2822.500</ele>
        <time>2020-01-21T00:10:05Z</time>
      </trkpt>
      <trkpt lat="17.091322910" lon="-96.470394750">
        <ele>2822.100</ele>
        <time>2020-01-21T00:10:06Z</time>
      </trkpt>
      <trkpt lat="17.091261400" lon="-96.470319600">
        <ele>2821.700</ele>
        <time>2020-01-21T00:10:07Z</time>
      </trkpt>
      <trkpt lat="17.091192070" lon="-96.470250200">
        <ele>2821.300</ele>
        <time>2020-01-21T00:10:08Z</time>
      </trkpt>
      <trkpt lat="17.091079550" lon="-96.470185070">
        <ele>2818.300</ele>
        <time>2020-01-21T00:10:09Z</time>
      </trkpt>
      <trkpt lat="17.090998440" lon="-96.470146940">
        <ele>2817.800</ele>
        <time>2020-01-21T00:10:10Z</time>
      </trkpt>
      <trkpt lat="17.090907390" lon="-96.470099180">
        <ele>2818.100</ele>
        <time>2020-01-21T00:10:11Z</time>
      </trkpt>
      <trkpt lat="17.090824060" lon="-96.470066150">
        <ele>2816.000</ele>
        <time>2020-01-21T00:10:12Z</time>
      </trkpt>
      <trkpt lat="17.090732410" lon="-96.470029900">
        <ele>2815.900</ele>
        <time>2020-01-21T00:10:13Z</time>
      </trkpt>
      <trkpt lat="17.090644720" lon="-96.469990850">
        <ele>2815.900</ele>
        <time>2020-01-21T00:10:14Z</time>
      </trkpt>
      <trkpt lat="17.090563900" lon="-96.469953700">
        <ele>2815.500</ele>
        <time>2020-01-21T00:10:15Z</time>
      </trkpt>
      <trkpt lat="17.090477720" lon="-96.469910760">
        <ele>2815.600</ele>
        <time>2020-01-21T00:10:16Z</time>
      </trkpt>
      <trkpt lat="17.090397070" lon="-96.469865690">
        <ele>2814.300</ele>
        <time>2020-01-21T00:10:17Z</time>
      </trkpt>
      <trkpt lat="17.090308730" lon="-96.469830670">
        <ele>2951.800</ele>
        <time>2020-01-21T00:10:18Z</time>
      </trkpt>
      <trkpt lat="17.090233120" lon="-96.469793140">
        <ele>2914.900</ele>
        <time>2020-01-21T00:10:19Z</time>
      </trkpt>
      <trkpt lat="17.090148520" lon="-96.469745230">
        <ele>2895.900</ele>
        <time>2020-01-21T00:10:20Z</time>
      </trkpt>
      <trkpt lat="17.090071070" lon="-96.469696300">
        <ele>2867.700</ele>
        <time>2020-01-21T00:10:21Z</time>
      </trkpt>
      <trkpt lat="17.089987840" lon="-96.469649100">
        <ele>2853.800</ele>
        <time>2020-01-21T00:10:22Z</time>
      </trkpt>
      <trkpt lat="17.089903790" lon="-96.469614290">
        <ele>2847.100</ele>
        <time>2020-01-21T00:10:23Z</time>
      </trkpt>
      <trkpt lat="17.089821950" lon="-96.469562880">
        <ele>2838.700</ele>
        <time>2020-01-21T00:10:24Z</time>
      </trkpt>
      <trkpt lat="17.089730170" lon="-96.469513110">
        <ele>2832.600</ele>
        <time>2020-01-21T00:10:25Z</time>
      </trkpt>
      <trkpt lat="17.089632570" lon="-96.469458630">
        <ele>2826.900</ele>
        <time>2020-01-21T00:10:26Z</time>
      </trkpt>
      <trkpt lat="17.089545610" lon="-96.469411210">
        <ele>2824.400</ele>
        <time>2020-01-21T00:10:27Z</time>
      </trkpt>
      <trkpt lat="17.089459900" lon="-96.469358760">
        <ele>2819.700</ele>
        <time>2020-01-21T00:10:28Z</time>
      </trkpt>
      <trkpt lat="17.089370960" lon="-96.469304450">
        <ele>2814.000</ele>
        <time>2020-01-21T00:10:29Z</time>
      </trkpt>
      <trkpt lat="17.089277570" lon="-96.469263960">
        <ele>2810.400</ele>
        <time>2020-01-21T00:10:30Z</time>
      </trkpt>
      <trkpt lat="17.089179840" lon="-96.469224160">
        <ele>2808.000</ele>
        <time>2020-01-21T00:10:31Z</time>
      </trkpt>
      <trkpt lat="17.089077030" lon="-96.469185140">
        <ele>2806.600</ele>
        <time>2020-01-21T00:10:32Z</time>
      </trkpt>
      <trkpt lat="17.088982060" lon="-96.469148490">
        <ele>2805.300</ele>
        <time>2020-01-21T00:10:33Z</time>
      </trkpt>
      <trkpt lat="17.088889620" lon="-96.469120740">
        <ele>2805.100</ele>
        <time>2020-01-21T00:10:34Z</time>
      </trkpt>
      <trkpt lat="17.088794270" lon="-96.469090200">
        <ele>2803.100</ele>
        <time>2020-01-21T00:10:35Z</time>
      </trkpt>
      <trkpt lat="17.088705730" lon="-96.469058440">
        <ele>2802.000</ele>
        <time>2020-01-21T00:10:36Z</time>
      </trkpt>
      <trkpt lat="17.088607000" lon="-96.469022450">
        <ele>2801.600</ele>
        <time>2020-01-21T00:10:37Z</time>
      </trkpt>
      <trkpt lat="17.088511130" lon="-96.468983470">
        <ele>2801.600</ele>
        <time>2020-01-21T00:10:38Z</time>
      </trkpt>
      <trkpt lat="17.088407990" lon="-96.468955330">
        <ele>2800.800</ele>
        <time>2020-01-21T00:10:39Z</time>
      </trkpt>
      <trkpt lat="17.088303260" lon="-96.468937830">
        <ele>2799.200</ele>
        <time>2020-01-21T00:10:40Z</time>
      </trkpt>
      <trkpt lat="17.088198050" lon="-96.468922820">
        <ele>2797.500</ele>
        <time>2020-01-21T00:10:41Z</time>
      </trkpt>
      <trkpt lat="17.088094000" lon="-96.468904460">
        <ele>2796.800</ele>
        <time>2020-01-21T00:10:42Z</time>
      </trkpt>
      <trkpt lat="17.087989610" lon="-96.468902790">
        <ele>2793.600</ele>
        <time>2020-01-21T00:10:43Z</time>
      </trkpt>
      <trkpt lat="17.087876570" lon="-96.468880040">
        <ele>2793.700</ele>
        <time>2020-01-21T00:10:44Z</time>
      </trkpt>
      <trkpt lat="17.087772930" lon="-96.468864150">
        <ele>2791.300</ele>
        <time>2020-01-21T00:10:45Z</time>
      </trkpt>
      <trkpt lat="17.087666900" lon="-96.468837950">
        <ele>2790.400</ele>
        <time>2020-01-21T00:10:46Z</time>
      </trkpt>
      <trkpt lat="17.087558710" lon="-96.468809190">
        <ele>2790.700</ele>
        <time>2020-01-21T00:10:47Z</time>
      </trkpt>
      <trkpt lat="17.087454290" lon="-96.468781920">
        <ele>2787.700</ele>
        <time>2020-01-21T00:10:48Z</time>
      </trkpt>
      <trkpt lat="17.087348110" lon="-96.468744300">
        <ele>2786.200</ele>
        <time>2020-01-21T00:10:49Z</time>
      </trkpt>
      <trkpt lat="17.087239690" lon="-96.468714070">
        <ele>2783.900</ele>
        <time>2020-01-21T00:10:50Z</time>
      </trkpt>
      <trkpt lat="17.087134640" lon="-96.468680690">
        <ele>2782.500</ele>
        <time>2020-01-21T00:10:51Z</time>
      </trkpt>
      <trkpt lat="17.087034950" lon="-96.468648090">
        <ele>2780.600</ele>
        <time>2020-01-21T00:10:52Z</time>
      </trkpt>
      <trkpt lat="17.086931740" lon="-96.468611870">
        <ele>2780.200</ele>
        <time>2020-01-21T00:10:53Z</time>
      </trkpt>
      <trkpt lat="17.086839940" lon="-96.468571900">
        <ele>2779.800</ele>
        <time>2020-01-21T00:10:54Z</time>
      </trkpt>
      <trkpt lat="17.086739380" lon="-96.468524600">
        <ele>2779.200</ele>
        <time>2020-01-21T00:10:55Z</time>
      </trkpt>
      <trkpt lat="17.086647300" lon="-96.468482010">
        <ele>2778.800</ele>
        <time>2020-01-21T00:10:56Z</time>
      </trkpt>
      <trkpt lat="17.086576350" lon="-96.468404730">
        <ele>2778.000</ele>
        <time>2020-01-21T00:10:57Z</time>
      </trkpt>
      <trkpt lat="17.086505210" lon="-96.468337830">
        <ele>2777.600</ele>
        <time>2020-01-21T00:10:58Z</time>
      </trkpt>
      <trkpt lat="17.086427620" lon="-96.468264190">
        <ele>2777.200</ele>
        <time>2020-01-21T00:10:59Z</time>
      </trkpt>
      <trkpt lat="17.086360570" lon="-96.468162160">
        <ele>2776.400</ele>
        <time>2020-01-21T00:11:00Z</time>
      </trkpt>
      <trkpt lat="17.086299550" lon="-96.468076430">
        <ele>2776.100</ele>
        <time>2020-01-21T00:11:01Z</time>
      </trkpt>
      <trkpt lat="17.086243370" lon="-96.467975600">
        <ele>2775.100</ele>
        <time>2020-01-21T00:11:02Z</time>
      </trkpt>
      <trkpt lat="17.086197130" lon="-96.467884620">
        <ele>2772.900</ele>
        <time>2020-01-21T00:11:03Z</time>
      </trkpt>
      <trkpt lat="17.086151090" lon="-96.467793300">
        <ele>2771.800</ele>
        <time>2020-01-21T00:11:04Z</time>
      </trkpt>
      <trkpt lat="17.086112220" lon="-96.467695190">
        <ele>2770.100</ele>
        <time>2020-01-21T00:11:05Z</time>
      </trkpt>
      <trkpt lat="17.086078570" lon="-96.467607210">
        <ele>2768.400</ele>
        <time>2020-01-21T00:11:06Z</time>
      </trkpt>
      <trkpt lat="17.086032320" lon="-96.467515610">
        <ele>2767.900</ele>
        <time>2020-01-21T00:11:07Z</time>
      </trkpt>
      <trkpt lat="17.085981800" lon="-96.467436370">
        <ele>2767.700</ele>
        <time>2020-01-21T00:11:08Z</time>
      </trkpt>
      <trkpt lat="17.085913100" lon="-96.467366720">
        <ele>2767.100</ele>
        <time>2020-01-21T00:11:09Z</time>
      </trkpt>
      <trkpt lat="17.085839980" lon="-96.467313770">
        <ele>2766.700</ele>
        <time>2020-01-21T00:11:10Z</time>
      </trkpt>
      <trkpt lat="17.085756090" lon="-96.467252080">
        <ele>2766.300</ele>
        <time>2020-01-21T00:11:11Z</time>
      </trkpt>
      <trkpt lat="17.085688940" lon="-96.467193040">
        <ele>2766.100</ele>
        <time>2020-01-21T00:11:12Z</time>
      </trkpt>
      <trkpt lat="17.085601500" lon="-96.467113660">
        <ele>2763.800</ele>
        <time>2020-01-21T00:11:13Z</time>
      </trkpt>
      <trkpt lat="17.085528460" lon="-96.467044220">
        <ele>2763.600</ele>
        <time>2020-01-21T00:11:14Z</time>
      </trkpt>
      <trkpt lat="17.085459290" lon="-96.466973760">
        <ele>2763.300</ele>
        <time>2020-01-21T00:11:15Z</time>
      </trkpt>
      <trkpt lat="17.085388340" lon="-96.466897170">
        <ele>2763.700</ele>
        <time>2020-01-21T00:11:16Z</time>
      </trkpt>
      <trkpt lat="17.085323710" lon="-96.466818220">
        <ele>2762.400</ele>
        <time>2020-01-21T00:11:17Z</time>
      </trkpt>
      <trkpt lat="17.085243060" lon="-96.466746710">
        <ele>2759.200</ele>
        <time>2020-01-21T00:11:18Z</time>
      </trkpt>
      <trkpt lat="17.085159150" lon="-96.466684060">
        <ele>2758.900</ele>
        <time>2020-01-21T00:11:19Z</time>
      </trkpt>
      <trkpt lat="17.085080170" lon="-96.466629660">
        <ele>2757.300</ele>
        <time>2020-01-21T00:11:20Z</time>
      </trkpt>
      <trkpt lat="17.084997070" lon="-96.466580540">
        <ele>2756.300</ele>
        <time>2020-01-21T00:11:21Z</time>
      </trkpt>
      <trkpt lat="17.084917160" lon="-96.466537020">
        <ele>2756.100</ele>
        <time>2020-01-21T00:11:22Z</time>
      </trkpt>
      <trkpt lat="17.084833900" lon="-96.466483670">
        <ele>2756.700</ele>
        <time>2020-01-21T00:11:23Z</time>
      </trkpt>
      <trkpt lat="17.084745690" lon="-96.466428580">
        <ele>2755.000</ele>
        <time>2020-01-21T00:11:24Z</time>
      </trkpt>
      <trkpt lat="17.084667190" lon="-96.466382700">
        <ele>2752.600</ele>
        <time>2020-01-21T00:11:25Z</time>
      </trkpt>
      <trkpt lat="17.084583810" lon="-96.466329700">
        <ele>2752.100</ele>
        <time>2020-01-21T00:11:26Z</time>
      </trkpt>
      <trkpt lat="17.084502020" lon="-96.466269300">
        <ele>2751.000</ele>
        <time>2020-01-21T00:11:27Z</time>
      </trkpt>
      <trkpt lat="17.084423580" lon="-96.466198280">
        <ele>2749.900</ele>
        <time>2020-01-21T00:11:28Z</time>
      </trkpt>
      <trkpt lat="17.084348000" lon="-96.466113320">
        <ele>2749.700</ele>
        <time>2020-01-21T00:11:29Z</time>
      </trkpt>
      <trkpt lat="17.084278100" lon="-96.466024100">
        <ele>2749.700</ele>
        <time>2020-01-21T00:11:30Z</time>
      </trkpt>
      <trkpt lat="17.084199980" lon="-96.465932300">
        <ele>2749.200</ele>
        <time>2020-01-21T00:11:31Z</time>
      </trkpt>
      <trkpt lat="17.084124650" lon="-96.465830580">
        <ele>2748.200</ele>
        <time>2020-01-21T00:11:32Z</time>
      </trkpt>
      <trkpt lat="17.084058680" lon="-96.465730850">
        <ele>2745.000</ele>
        <time>2020-01-21T00:11:33Z</time>
      </trkpt>
      <trkpt lat="17.083983910" lon="-96.465630930">
        <ele>2746.800</ele>
        <time>2020-01-21T00:11:34Z</time>
      </trkpt>
      <trkpt lat="17.083919810" lon="-96.465527090">
        <ele>2746.200</ele>
        <time>2020-01-21T00:11:35Z</time>
      </trkpt>
      <trkpt lat="17.083854570" lon="-96.465417850">
        <ele>2744.300</ele>
        <time>2020-01-21T00:11:36Z</time>
      </trkpt>
      <trkpt lat="17.083794250" lon="-96.465312890">
        <ele>2743.700</ele>
        <time>2020-01-21T00:11:37Z</time>
      </trkpt>
      <trkpt lat="17.083730100" lon="-96.465214060">
        <ele>2742.300</ele>
        <time>2020-01-21T00:11:38Z</time>
      </trkpt>
      <trkpt lat="17.083668730" lon="-96.465119270">
        <ele>2740.900</ele>
        <time>2020-01-21T00:11:39Z</time>
      </trkpt>
      <trkpt lat="17.083600590" lon="-96.465027090">
        <ele>2739.700</ele>
        <time>2020-01-21T00:11:40Z</time>
      </trkpt>
      <trkpt lat="17.083532430" lon="-96.464942220">
        <ele>2738.800</ele>
        <time>2020-01-21T00:11:41Z</time>
      </trkpt>
      <trkpt lat="17.083462660" lon="-96.464864490">
        <ele>2737.900</ele>
        <time>2020-01-21T00:11:42Z</time>
      </trkpt>
      <trkpt lat="17.083379420" lon="-96.464785780">
        <ele>2737.700</ele>
        <time>2020-01-21T00:11:43Z</time>
      </trkpt>
      <trkpt lat="17.083296700" lon="-96.464714490">
        <ele>2737.000</ele>
        <time>2020-01-21T00:11:44Z</time>
      </trkpt>
      <trkpt lat="17.083216370" lon="-96.464649420">
        <ele>2736.800</ele>
        <time>2020-01-21T00:11:45Z</time>
      </trkpt>
      <trkpt lat="17.083139900" lon="-96.464574280">
        <ele>2738.500</ele>
        <time>2020-01-21T00:11:46Z</time>
      </trkpt>
      <trkpt lat="17.083048240" lon="-96.464527970">
        <ele>2736.900</ele>
        <time>2020-01-21T00:11:47Z</time>
      </trkpt>
      <trkpt lat="17.082963100" lon="-96.464474230">
        <ele>2737.600</ele>
        <time>2020-01-21T00:11:48Z</time>
      </trkpt>
      <trkpt lat="17.082869770" lon="-96.464434960">
        <ele>2736.900</ele>
        <time>2020-01-21T00:11:49Z</time>
      </trkpt>
      <trkpt lat="17.082777460" lon="-96.464394620">
        <ele>2736.400</ele>
        <time>2020-01-21T00:11:50Z</time>
      </trkpt>
      <trkpt lat="17.082683600" lon="-96.464345680">
        <ele>2735.800</ele>
        <time>2020-01-21T00:11:51Z</time>
      </trkpt>
      <trkpt lat="17.082591750" lon="-96.464300840">
        <ele>2735.000</ele>
        <time>2020-01-21T00:11:52Z</time>
      </trkpt>
      <trkpt lat="17.082508260" lon="-96.464258520">
        <ele>2735.100</ele>
        <time>2020-01-21T00:11:53Z</time>
      </trkpt>
      <trkpt lat="17.082415900" lon="-96.464210140">
        <ele>2735.000</ele>
        <time>2020-01-21T00:11:54Z</time>
      </trkpt>
      <trkpt lat="17.082317870" lon="-96.464166740">
        <ele>2734.500</ele>
        <time>2020-01-21T00:11:55Z</time>
      </trkpt>
      <trkpt lat="17.082227530" lon="-96.464124240">
        <ele>2734.500</ele>
        <time>2020-01-21T00:11:56Z</time>
      </trkpt>
      <trkpt lat="17.082159930" lon="-96.464077870">
        <ele>2733.600</ele>
        <time>2020-01-21T00:11:57Z</time>
      </trkpt>
      <trkpt lat="17.082079800" lon="-96.464021250">
        <ele>2730.900</ele>
        <time>2020-01-21T00:11:58Z</time>
      </trkpt>
      <trkpt lat="17.081990960" lon="-96.463979930">
        <ele>2730.800</ele>
        <time>2020-01-21T00:11:59Z</time>
      </trkpt>
      <trkpt lat="17.081907890" lon="-96.463934150">
        <ele>2730.100</ele>
        <time>2020-01-21T00:12:00Z</time>
      </trkpt>
      <trkpt lat="17.081820610" lon="-96.463887590">
        <ele>2730.400</ele>
        <time>2020-01-21T00:12:01Z</time>
      </trkpt>
      <trkpt lat="17.081738350" lon="-96.463838640">
        <ele>2729.600</ele>
        <time>2020-01-21T00:12:02Z</time>
      </trkpt>
      <trkpt lat="17.081651300" lon="-96.463795750">
        <ele>2729.100</ele>
        <time>2020-01-21T00:12:03Z</time>
      </trkpt>
      <trkpt lat="17.081569570" lon="-96.463753810">
        <ele>2728.800</ele>
        <time>2020-01-21T00:12:04Z</time>
      </trkpt>
      <trkpt lat="17.081476180" lon="-96.463703860">
        <ele>2728.900</ele>
        <time>2020-01-21T00:12:05Z</time>
      </trkpt>
      <trkpt lat="17.081395550" lon="-96.463658580">
        <ele>2729.000</ele>
        <time>2020-01-21T00:12:06Z</time>
      </trkpt>
      <trkpt lat="17.081296200" lon="-96.463603210">
        <ele>2727.300</ele>
        <time>2020-01-21T00:12:07Z</time>
      </trkpt>
      <trkpt lat="17.081218610" lon="-96.463569530">
        <ele>2725.400</ele>
        <time>2020-01-21T00:12:08Z</time>
      </trkpt>
      <trkpt lat="17.081119910" lon="-96.463514370">
        <ele>2725.600</ele>
        <time>2020-01-21T00:12:09Z</time>
      </trkpt>
      <trkpt lat="17.081028840" lon="-96.463470040">
        <ele>2725.400</ele>
        <time>2020-01-21T00:12:10Z</time>
      </trkpt>
      <trkpt lat="17.080941720" lon="-96.463420880">
        <ele>2725.900</ele>
        <time>2020-01-21T00:12:11Z</time>
      </trkpt>
      <trkpt lat="17.080858260" lon="-96.463390640">
        <ele>2726.600</ele>
        <time>2020-01-21T00:12:12Z</time>
      </trkpt>
      <trkpt lat="17.080780700" lon="-96.463359590">
        <ele>2726.800</ele>
        <time>2020-01-21T00:12:13Z</time>
      </trkpt>
      <trkpt lat="17.080699450" lon="-96.463338760">
        <ele>2727.000</ele>
        <time>2020-01-21T00:12:14Z</time>
      </trkpt>
      <trkpt lat="17.080615210" lon="-96.463323800">
        <ele>2727.800</ele>
        <time>2020-01-21T00:12:15Z</time>
      </trkpt>
      <trkpt lat="17.080539800" lon="-96.463309500">
        <ele>2728.700</ele>
        <time>2020-01-21T00:12:16Z</time>
      </trkpt>
      <trkpt lat="17.080462100" lon="-96.463307490">
        <ele>2728.600</ele>
        <time>2020-01-21T00:12:17Z</time>
      </trkpt>
      <trkpt lat="17.080384030" lon="-96.463297310">
        <ele>2727.400</ele>
        <time>2020-01-21T00:12:18Z</time>
      </trkpt>
      <trkpt lat="17.080313070" lon="-96.463301120">
        <ele>2726.600</ele>
        <time>2020-01-21T00:12:19Z</time>
      </trkpt>
      <trkpt lat="17.080234120" lon="-96.463310680">
        <ele>2725.800</ele>
        <time>2020-01-21T00:12:20Z</time>
      </trkpt>
      <trkpt lat="17.080161470" lon="-96.463329610">
        <ele>2724.400</ele>
        <time>2020-01-21T00:12:21Z</time>
      </trkpt>
      <trkpt lat="17.080086970" lon="-96.463348170">
        <ele>2724.000</ele>
        <time>2020-01-21T00:12:22Z</time>
      </trkpt>
      <trkpt lat="17.080013320" lon="-96.463374060">
        <ele>2723.900</ele>
        <time>2020-01-21T00:12:23Z</time>
      </trkpt>
      <trkpt lat="17.079939600" lon="-96.463400160">
        <ele>2724.400</ele>
        <time>2020-01-21T00:12:24Z</time>
      </trkpt>
      <trkpt lat="17.079865910" lon="-96.463426340">
        <ele>2723.800</ele>
        <time>2020-01-21T00:12:25Z</time>
      </trkpt>
      <trkpt lat="17.079785370" lon="-96.463452780">
        <ele>2724.100</ele>
        <time>2020-01-21T00:12:26Z</time>
      </trkpt>
      <trkpt lat="17.079708550" lon="-96.463483670">
        <ele>2723.600</ele>
        <time>2020-01-21T00:12:27Z</time>
      </trkpt>
      <trkpt lat="17.079634570" lon="-96.463516570">
        <ele>2723.000</ele>
        <time>2020-01-21T00:12:28Z</time>
      </trkpt>
      <trkpt lat="17.079559050" lon="-96.463549070">
        <ele>2722.200</ele>
        <time>2020-01-21T00:12:29Z</time>
      </trkpt>
      <trkpt lat="17.079479920" lon="-96.463584970">
        <ele>2721.400</ele>
        <time>2020-01-21T00:12:30Z</time>
      </trkpt>
      <trkpt lat="17.079412250" lon="-96.463619480">
        <ele>2720.400</ele>
        <time>2020-01-21T00:12:31Z</time>
      </trkpt>
      <trkpt lat="17.079332150" lon="-96.463659220">
        <ele>2720.200</ele>
        <time>2020-01-21T00:12:32Z</time>
      </trkpt>
      <trkpt lat="17.079258500" lon="-96.463697570">
        <ele>2720.100</ele>
        <time>2020-01-21T00:12:33Z</time>
      </trkpt>
      <trkpt lat="17.079192820" lon="-96.463740520">
        <ele>2717.600</ele>
        <time>2020-01-21T00:12:34Z</time>
      </trkpt>
      <trkpt lat="17.079128400" lon="-96.463766420">
        <ele>2718.000</ele>
        <time>2020-01-21T00:12:35Z</time>
      </trkpt>
      <trkpt lat="17.079066260" lon="-96.463805480">
        <ele>2717.800</ele>
        <time>2020-01-21T00:12:36Z</time>
      </trkpt>
      <trkpt lat="17.079011450" lon="-96.463855440">
        <ele>2717.700</ele>
        <time>2020-01-21T00:12:37Z</time>
      </trkpt>
      <trkpt lat="17.078963270" lon="-96.463916560">
        <ele>2718.000</ele>
        <time>2020-01-21T00:12:38Z</time>
      </trkpt>
      <trkpt lat="17.078927430" lon="-96.463987290">
        <ele>2717.500</ele>
        <time>2020-01-21T00:12:39Z</time>
      </trkpt>
      <trkpt lat="17.078895300" lon="-96.464060680">
        <ele>2716.900</ele>
        <time>2020-01-21T00:12:40Z</time>
      </trkpt>
      <trkpt lat="17.078866760" lon="-96.464140730">
        <ele>2716.300</ele>
        <time>2020-01-21T00:12:41Z</time>
      </trkpt>
      <trkpt lat="17.078840760" lon="-96.464215630">
        <ele>2715.400</ele>
        <time>2020-01-21T00:12:42Z</time>
      </trkpt>
      <trkpt lat="17.078810920" lon="-96.464292770">
        <ele>2715.400</ele>
        <time>2020-01-21T00:12:43Z</time>
      </trkpt>
      <trkpt lat="17.078774250" lon="-96.464367510">
        <ele>2715.300</ele>
        <time>2020-01-21T00:12:44Z</time>
      </trkpt>
      <trkpt lat="17.078729440" lon="-96.464434460">
        <ele>2715.300</ele>
        <time>2020-01-21T00:12:45Z</time>
      </trkpt>
      <trkpt lat="17.078675240" lon="-96.464488660">
        <ele>2715.100</ele>
        <time>2020-01-21T00:12:46Z</time>
      </trkpt>
      <trkpt lat="17.078617710" lon="-96.464538130">
        <ele>2713.200</ele>
        <time>2020-01-21T00:12:47Z</time>
      </trkpt>
      <trkpt lat="17.078553490" lon="-96.464560620">
        <ele>2711.700</ele>
        <time>2020-01-21T00:12:48Z</time>
      </trkpt>
      <trkpt lat="17.078480040" lon="-96.464573650">
        <ele>2711.100</ele>
        <time>2020-01-21T00:12:49Z</time>
      </trkpt>
      <trkpt lat="17.078403450" lon="-96.464582180">
        <ele>2710.000</ele>
        <time>2020-01-21T00:12:50Z</time>
      </trkpt>
      <trkpt lat="17.078328130" lon="-96.464590870">
        <ele>2709.400</ele>
        <time>2020-01-21T00:12:51Z</time>
      </trkpt>
      <trkpt lat="17.078257210" lon="-96.464607920">
        <ele>2708.500</ele>
        <time>2020-01-21T00:12:52Z</time>
      </trkpt>
      <trkpt lat="17.078189100" lon="-96.464626990">
        <ele>2707.800</ele>
        <time>2020-01-21T00:12:53Z</time>
      </trkpt>
      <trkpt lat="17.078126860" lon="-96.464663940">
        <ele>2707.200</ele>
        <time>2020-01-21T00:12:54Z</time>
      </trkpt>
      <trkpt lat="17.078074860" lon="-96.464713990">
        <ele>2707.200</ele>
        <time>2020-01-21T00:12:55Z</time>
      </trkpt>
      <trkpt lat="17.078033840" lon="-96.464777620">
        <ele>2706.900</ele>
        <time>2020-01-21T00:12:56Z</time>
      </trkpt>
      <trkpt lat="17.078000110" lon="-96.464848590">
        <ele>2706.000</ele>
        <time>2020-01-21T00:12:57Z</time>
      </trkpt>
      <trkpt lat="17.077969450" lon="-96.464923220">
        <ele>2704.800</ele>
        <time>2020-01-21T00:12:58Z</time>
      </trkpt>
      <trkpt lat="17.077936070" lon="-96.464993060">
        <ele>2704.100</ele>
        <time>2020-01-21T00:12:59Z</time>
      </trkpt>
      <trkpt lat="17.077898740" lon="-96.465049860">
        <ele>2702.900</ele>
        <time>2020-01-21T00:13:00Z</time>
      </trkpt>
      <trkpt lat="17.077853810" lon="-96.465101390">
        <ele>2701.700</ele>
        <time>2020-01-21T00:13:01Z</time>
      </trkpt>
      <trkpt lat="17.077797130" lon="-96.465153350">
        <ele>2702.000</ele>
        <time>2020-01-21T00:13:02Z</time>
      </trkpt>
      <trkpt lat="17.077719340" lon="-96.465183290">
        <ele>2699.600</ele>
        <time>2020-01-21T00:13:03Z</time>
      </trkpt>
      <trkpt lat="17.077647980" lon="-96.465199150">
        <ele>2698.500</ele>
        <time>2020-01-21T00:13:04Z</time>
      </trkpt>
      <trkpt lat="17.077579250" lon="-96.465220400">
        <ele>2697.500</ele>
        <time>2020-01-21T00:13:05Z</time>
      </trkpt>
      <trkpt lat="17.077507660" lon="-96.465244740">
        <ele>2696.800</ele>
        <time>2020-01-21T00:13:06Z</time>
      </trkpt>
      <trkpt lat="17.077446960" lon="-96.465279310">
        <ele>2696.100</ele>
        <time>2020-01-21T00:13:07Z</time>
      </trkpt>
      <trkpt lat="17.077395360" lon="-96.465329730">
        <ele>2695.700</ele>
        <time>2020-01-21T00:13:08Z</time>
      </trkpt>
      <trkpt lat="17.077349890" lon="-96.465389500">
        <ele>2695.200</ele>
        <time>2020-01-21T00:13:09Z</time>
      </trkpt>
      <trkpt lat="17.077325330" lon="-96.465468070">
        <ele>2695.800</ele>
        <time>2020-01-21T00:13:10Z</time>
      </trkpt>
      <trkpt lat="17.077303890" lon="-96.465535970">
        <ele>2695.000</ele>
        <time>2020-01-21T00:13:11Z</time>
      </trkpt>
      <trkpt lat="17.077283900" lon="-96.465608470">
        <ele>2694.800</ele>
        <time>2020-01-21T00:13:12Z</time>
      </trkpt>
      <trkpt lat="17.077257450" lon="-96.465670430">
        <ele>2694.000</ele>
        <time>2020-01-21T00:13:13Z</time>
      </trkpt>
      <trkpt lat="17.077216860" lon="-96.465723090">
        <ele>2693.500</ele>
        <time>2020-01-21T00:13:14Z</time>
      </trkpt>
      <trkpt lat="17.077166140" lon="-96.465757750">
        <ele>2693.000</ele>
        <time>2020-01-21T00:13:15Z</time>
      </trkpt>
      <trkpt lat="17.077096620" lon="-96.465768190">
        <ele>2690.800</ele>
        <time>2020-01-21T00:13:16Z</time>
      </trkpt>
      <trkpt lat="17.077029270" lon="-96.465777160">
        <ele>2690.200</ele>
        <time>2020-01-21T00:13:17Z</time>
      </trkpt>
      <trkpt lat="17.076955570" lon="-96.465763000">
        <ele>2690.200</ele>
        <time>2020-01-21T00:13:18Z</time>
      </trkpt>
      <trkpt lat="17.076877560" lon="-96.465745390">
        <ele>2689.400</ele>
        <time>2020-01-21T00:13:19Z</time>
      </trkpt>
      <trkpt lat="17.076803550" lon="-96.465733470">
        <ele>2689.300</ele>
        <time>2020-01-21T00:13:20Z</time>
      </trkpt>
      <trkpt lat="17.076728200" lon="-96.465732600">
        <ele>2688.700</ele>
        <time>2020-01-21T00:13:21Z</time>
      </trkpt>
      <trkpt lat="17.076650160" lon="-96.465740280">
        <ele>2688.700</ele>
        <time>2020-01-21T00:13:22Z</time>
      </trkpt>
      <trkpt lat="17.076583100" lon="-96.465778610">
        <ele>2687.500</ele>
        <time>2020-01-21T00:13:23Z</time>
      </trkpt>
      <trkpt lat="17.076531030" lon="-96.465820830">
        <ele>2685.400</ele>
        <time>2020-01-21T00:13:24Z</time>
      </trkpt>
      <trkpt lat="17.076488560" lon="-96.465892710">
        <ele>2685.100</ele>
        <time>2020-01-21T00:13:25Z</time>
      </trkpt>
      <trkpt lat="17.076480370" lon="-96.465969890">
        <ele>2684.400</ele>
        <time>2020-01-21T00:13:26Z</time>
      </trkpt>
      <trkpt lat="17.076475820" lon="-96.466051380">
        <ele>2683.000</ele>
        <time>2020-01-21T00:13:27Z</time>
      </trkpt>
      <trkpt lat="17.076499310" lon="-96.466125050">
        <ele>2682.700</ele>
        <time>2020-01-21T00:13:28Z</time>
      </trkpt>
      <trkpt lat="17.076527590" lon="-96.466196450">
        <ele>2681.400</ele>
        <time>2020-01-21T00:13:29Z</time>
      </trkpt>
      <trkpt lat="17.076557400" lon="-96.466272060">
        <ele>2680.800</ele>
        <time>2020-01-21T00:13:30Z</time>
      </trkpt>
      <trkpt lat="17.076585290" lon="-96.466347070">
        <ele>2680.300</ele>
        <time>2020-01-21T00:13:31Z</time>
      </trkpt>
      <trkpt lat="17.076609810" lon="-96.466422540">
        <ele>2679.600</ele>
        <time>2020-01-21T00:13:32Z</time>
      </trkpt>
      <trkpt lat="17.076635080" lon="-96.466501480">
        <ele>2678.600</ele>
        <time>2020-01-21T00:13:33Z</time>
      </trkpt>
      <trkpt lat="17.076653780" lon="-96.466579910">
        <ele>2677.900</ele>
        <time>2020-01-21T00:13:34Z</time>
      </trkpt>
      <trkpt lat="17.076667280" lon="-96.466656830">
        <ele>2676.600</ele>
        <time>2020-01-21T00:13:35Z</time>
      </trkpt>
      <trkpt lat="17.076676900" lon="-96.466738170">
        <ele>2675.300</ele>
        <time>2020-01-21T00:13:36Z</time>
      </trkpt>
      <trkpt lat="17.076688540" lon="-96.466822910">
        <ele>2674.900</ele>
        <time>2020-01-21T00:13:37Z</time>
      </trkpt>
      <trkpt lat="17.076688800" lon="-96.466913010">
        <ele>2674.400</ele>
        <time>2020-01-21T00:13:38Z</time>
      </trkpt>
      <trkpt lat="17.076697530" lon="-96.466995050">
        <ele>2674.200</ele>
        <time>2020-01-21T00:13:39Z</time>
      </trkpt>
      <trkpt lat="17.076699070" lon="-96.467069990">
        <ele>2675.100</ele>
        <time>2020-01-21T00:13:40Z</time>
      </trkpt>
      <trkpt lat="17.076701040" lon="-96.467136250">
        <ele>2671.900</ele>
        <time>2020-01-21T00:13:41Z</time>
      </trkpt>
      <trkpt lat="17.076693510" lon="-96.467208420">
        <ele>2671.400</ele>
        <time>2020-01-21T00:13:42Z</time>
      </trkpt>
      <trkpt lat="17.076672970" lon="-96.467270500">
        <ele>2670.900</ele>
        <time>2020-01-21T00:13:43Z</time>
      </trkpt>
      <trkpt lat="17.076635730" lon="-96.467330320">
        <ele>2669.700</ele>
        <time>2020-01-21T00:13:44Z</time>
      </trkpt>
      <trkpt lat="17.076581480" lon="-96.467371860">
        <ele>2668.300</ele>
        <time>2020-01-21T00:13:45Z</time>
      </trkpt>
      <trkpt lat="17.076518200" lon="-96.467388780">
        <ele>2666.700</ele>
        <time>2020-01-21T00:13:46Z</time>
      </trkpt>
      <trkpt lat="17.076459760" lon="-96.467397140">
        <ele>2666.400</ele>
        <time>2020-01-21T00:13:47Z</time>
      </trkpt>
      <trkpt lat="17.076392780" lon="-96.467383910">
        <ele>2665.700</ele>
        <time>2020-01-21T00:13:48Z</time>
      </trkpt>
      <trkpt lat="17.076338610" lon="-96.467359300">
        <ele>2665.400</ele>
        <time>2020-01-21T00:13:49Z</time>
      </trkpt>
      <trkpt lat="17.076282410" lon="-96.467331430">
        <ele>2664.900</ele>
        <time>2020-01-21T00:13:50Z</time>
      </trkpt>
      <trkpt lat="17.076228380" lon="-96.467294780">
        <ele>2664.600</ele>
        <time>2020-01-21T00:13:51Z</time>
      </trkpt>
      <trkpt lat="17.076166880" lon="-96.467246850">
        <ele>2665.600</ele>
        <time>2020-01-21T00:13:52Z</time>
      </trkpt>
      <trkpt lat="17.076109040" lon="-96.467197180">
        <ele>2665.700</ele>
        <time>2020-01-21T00:13:53Z</time>
      </trkpt>
      <trkpt lat="17.076050070" lon="-96.467143750">
        <ele>2666.300</ele>
        <time>2020-01-21T00:13:54Z</time>
      </trkpt>
      <trkpt lat="17.075995070" lon="-96.467084060">
        <ele>2666.200</ele>
        <time>2020-01-21T00:13:55Z</time>
      </trkpt>
      <trkpt lat="17.075936420" lon="-96.467030710">
        <ele>2666.200</ele>
        <time>2020-01-21T00:13:56Z</time>
      </trkpt>
      <trkpt lat="17.075883930" lon="-96.466981320">
        <ele>2665.700</ele>
        <time>2020-01-21T00:13:57Z</time>
      </trkpt>
      <trkpt lat="17.075830460" lon="-96.466927820">
        <ele>2664.900</ele>
        <time>2020-01-21T00:13:58Z</time>
      </trkpt>
      <trkpt lat="17.075782250" lon="-96.466877720">
        <ele>2665.000</ele>
        <time>2020-01-21T00:13:59Z</time>
      </trkpt>
      <trkpt lat="17.075731570" lon="-96.466835100">
        <ele>2664.800</ele>
        <time>2020-01-21T00:14:00Z</time>
      </trkpt>
      <trkpt lat="17.075679170" lon="-96.466791410">
        <ele>2664.000</ele>
        <time>2020-01-21T00:14:01Z</time>
      </trkpt>
      <trkpt lat="17.075624710" lon="-96.466753700">
        <ele>2663.600</ele>
        <time>2020-01-21T00:14:02Z</time>
      </trkpt>
      <trkpt lat="17.075572230" lon="-96.466716000">
        <ele>2663.200</ele>
        <time>2020-01-21T00:14:03Z</time>
      </trkpt>
      <trkpt lat="17.075511360" lon="-96.466701730">
        <ele>2662.500</ele>
        <time>2020-01-21T00:14:04Z</time>
      </trkpt>
      <trkpt lat="17.075454300" lon="-96.466687690">
        <ele>2662.100</ele>
        <time>2020-01-21T00:14:05Z</time>
      </trkpt>
      <trkpt lat="17.075397160" lon="-96.466686120">
        <ele>2660.900</ele>
        <time>2020-01-21T00:14:06Z</time>
      </trkpt>
      <trkpt lat="17.075335210" lon="-96.466686820">
        <ele>2660.600</ele>
        <time>2020-01-21T00:14:07Z</time>
      </trkpt>
      <trkpt lat="17.075270550" lon="-96.466692710">
        <ele>2660.400</ele>
        <time>2020-01-21T00:14:08Z</time>
      </trkpt>
      <trkpt lat="17.075216380" lon="-96.466722720">
        <ele>2660.000</ele>
        <time>2020-01-21T00:14:09Z</time>
      </trkpt>
      <trkpt lat="17.075168390" lon="-96.466760130">
        <ele>2658.800</ele>
        <time>2020-01-21T00:14:10Z</time>
      </trkpt>
      <trkpt lat="17.075121190" lon="-96.466811760">
        <ele>2658.500</ele>
        <time>2020-01-21T00:14:11Z</time>
      </trkpt>
      <trkpt lat="17.075075370" lon="-96.466865580">
        <ele>2658.700</ele>
        <time>2020-01-21T00:14:12Z</time>
      </trkpt>
      <trkpt lat="17.075029910" lon="-96.466910250">
        <ele>2657.600</ele>
        <time>2020-01-21T00:14:13Z</time>
      </trkpt>
      <trkpt lat="17.074979540" lon="-96.466961630">
        <ele>2656.700</ele>
        <time>2020-01-21T00:14:14Z</time>
      </trkpt>
      <trkpt lat="17.074929790" lon="-96.467011930">
        <ele>2655.300</ele>
        <time>2020-01-21T00:14:15Z</time>
      </trkpt>
      <trkpt lat="17.074879360" lon="-96.467062780">
        <ele>2654.300</ele>
        <time>2020-01-21T00:14:16Z</time>
      </trkpt>
      <trkpt lat="17.074830870" lon="-96.467110470">
        <ele>2652.800</ele>
        <time>2020-01-21T00:14:17Z</time>
      </trkpt>
      <trkpt lat="17.074780750" lon="-96.467158240">
        <ele>2651.400</ele>
        <time>2020-01-21T00:14:18Z</time>
      </trkpt>
      <trkpt lat="17.074733580" lon="-96.467201140">
        <ele>2648.900</ele>
        <time>2020-01-21T00:14:19Z</time>
      </trkpt>
      <trkpt lat="17.074680080" lon="-96.467246160">
        <ele>2647.100</ele>
        <time>2020-01-21T00:14:20Z</time>
      </trkpt>
      <trkpt lat="17.074625060" lon="-96.467292170">
        <ele>2646.400</ele>
        <time>2020-01-21T00:14:21Z</time>
      </trkpt>
      <trkpt lat="17.074570350" lon="-96.467337140">
        <ele>2646.300</ele>
        <time>2020-01-21T00:14:22Z</time>
      </trkpt>
      <trkpt lat="17.074516510" lon="-96.467378480">
        <ele>2645.500</ele>
        <time>2020-01-21T00:14:23Z</time>
      </trkpt>
      <trkpt lat="17.074462240" lon="-96.467420810">
        <ele>2644.700</ele>
        <time>2020-01-21T00:14:24Z</time>
      </trkpt>
      <trkpt lat="17.074407550" lon="-96.467467020">
        <ele>2644.000</ele>
        <time>2020-01-21T00:14:25Z</time>
      </trkpt>
      <trkpt lat="17.074348280" lon="-96.467510640">
        <ele>2642.800</ele>
        <time>2020-01-21T00:14:26Z</time>
      </trkpt>
      <trkpt lat="17.074290960" lon="-96.467559430">
        <ele>2642.200</ele>
        <time>2020-01-21T00:14:27Z</time>
      </trkpt>
      <trkpt lat="17.074243490" lon="-96.467617240">
        <ele>2641.500</ele>
        <time>2020-01-21T00:14:28Z</time>
      </trkpt>
      <trkpt lat="17.074200810" lon="-96.467681320">
        <ele>2640.900</ele>
        <time>2020-01-21T00:14:29Z</time>
      </trkpt>
      <trkpt lat="17.074164540" lon="-96.467746880">
        <ele>2639.200</ele>
        <time>2020-01-21T00:14:30Z</time>
      </trkpt>
      <trkpt lat="17.074127310" lon="-96.467813250">
        <ele>2638.400</ele>
        <time>2020-01-21T00:14:31Z</time>
      </trkpt>
      <trkpt lat="17.074084710" lon="-96.467877060">
        <ele>2637.200</ele>
        <time>2020-01-21T00:14:32Z</time>
      </trkpt>
      <trkpt lat="17.074031270" lon="-96.467932410">
        <ele>2636.000</ele>
        <time>2020-01-21T00:14:33Z</time>
      </trkpt>
      <trkpt lat="17.073973240" lon="-96.467979990">
        <ele>2635.100</ele>
        <time>2020-01-21T00:14:34Z</time>
      </trkpt>
      <trkpt lat="17.073908690" lon="-96.468024030">
        <ele>2634.300</ele>
        <time>2020-01-21T00:14:35Z</time>
      </trkpt>
      <trkpt lat="17.073839120" lon="-96.468056730">
        <ele>2633.700</ele>
        <time>2020-01-21T00:14:36Z</time>
      </trkpt>
      <trkpt lat="17.073768400" lon="-96.468072140">
        <ele>2633.700</ele>
        <time>2020-01-21T00:14:37Z</time>
      </trkpt>
      <trkpt lat="17.073708900" lon="-96.468107000">
        <ele>2634.200</ele>
        <time>2020-01-21T00:14:38Z</time>
      </trkpt>
      <trkpt lat="17.073650400" lon="-96.468135800">
        <ele>2634.700</ele>
        <time>2020-01-21T00:14:39Z</time>
      </trkpt>
      <trkpt lat="17.073593990" lon="-96.468182270">
        <ele>2634.400</ele>
        <time>2020-01-21T00:14:40Z</time>
      </trkpt>
      <trkpt lat="17.073546200" lon="-96.468228160">
        <ele>2632.600</ele>
        <time>2020-01-21T00:14:41Z</time>
      </trkpt>
      <trkpt lat="17.073500770" lon="-96.468289970">
        <ele>2632.300</ele>
        <time>2020-01-21T00:14:42Z</time>
      </trkpt>
      <trkpt lat="17.073459090" lon="-96.468350630">
        <ele>2632.200</ele>
        <time>2020-01-21T00:14:43Z</time>
      </trkpt>
      <trkpt lat="17.073428770" lon="-96.468431990">
        <ele>2631.600</ele>
        <time>2020-01-21T00:14:44Z</time>
      </trkpt>
      <trkpt lat="17.073402100" lon="-96.468514860">
        <ele>2632.200</ele>
        <time>2020-01-21T00:14:45Z</time>
      </trkpt>
      <trkpt lat="17.073364080" lon="-96.468595350">
        <ele>2633.000</ele>
        <time>2020-01-21T00:14:46Z</time>
      </trkpt>
      <trkpt lat="17.073315580" lon="-96.468669660">
        <ele>2632.300</ele>
        <time>2020-01-21T00:14:47Z</time>
      </trkpt>
      <trkpt lat="17.073254470" lon="-96.468733210">
        <ele>2632.600</ele>
        <time>2020-01-21T00:14:48Z</time>
      </trkpt>
      <trkpt lat="17.073183490" lon="-96.468788520">
        <ele>2631.700</ele>
        <time>2020-01-21T00:14:49Z</time>
      </trkpt>
      <trkpt lat="17.073111760" lon="-96.468826880">
        <ele>2631.800</ele>
        <time>2020-01-21T00:14:50Z</time>
      </trkpt>
      <trkpt lat="17.073036160" lon="-96.468856110">
        <ele>2632.800</ele>
        <time>2020-01-21T00:14:51Z</time>
      </trkpt>
      <trkpt lat="17.072958520" lon="-96.468873450">
        <ele>2632.600</ele>
        <time>2020-01-21T00:14:52Z</time>
      </trkpt>
      <trkpt lat="17.072884490" lon="-96.468888150">
        <ele>2633.100</ele>
        <time>2020-01-21T00:14:53Z</time>
      </trkpt>
      <trkpt lat="17.072804230" lon="-96.468894600">
        <ele>2632.600</ele>
        <time>2020-01-21T00:14:54Z</time>
      </trkpt>
      <trkpt lat="17.072721320" lon="-96.468905110">
        <ele>2632.700</ele>
        <time>2020-01-21T00:14:55Z</time>
      </trkpt>
      <trkpt lat="17.072636220" lon="-96.468914470">
        <ele>2632.000</ele>
        <time>2020-01-21T00:14:56Z</time>
      </trkpt>
      <trkpt lat="17.072544380" lon="-96.468916950">
        <ele>2632.600</ele>
        <time>2020-01-21T00:14:57Z</time>
      </trkpt>
      <trkpt lat="17.072459200" lon="-96.468927410">
        <ele>2632.000</ele>
        <time>2020-01-21T00:14:58Z</time>
      </trkpt>
      <trkpt lat="17.072373730" lon="-96.468938890">
        <ele>2631.400</ele>
        <time>2020-01-21T00:14:59Z</time>
      </trkpt>
      <trkpt lat="17.072289990" lon="-96.468950690">
        <ele>2631.100</ele>
        <time>2020-01-21T00:15:00Z</time>
      </trkpt>
      <trkpt lat="17.072191440" lon="-96.468963340">
        <ele>2631.100</ele>
        <time>2020-01-21T00:15:01Z</time>
      </trkpt>
      <trkpt lat="17.072101390" lon="-96.468978150">
        <ele>2632.300</ele>
        <time>2020-01-21T00:15:02Z</time>
      </trkpt>
      <trkpt lat="17.072014050" lon="-96.468985360">
        <ele>2632.900</ele>
        <time>2020-01-21T00:15:03Z</time>
      </trkpt>
      <trkpt lat="17.071930270" lon="-96.468993910">
        <ele>2633.300</ele>
        <time>2020-01-21T00:15:04Z</time>
      </trkpt>
      <trkpt lat="17.071854150" lon="-96.468992890">
        <ele>2649.300</ele>
        <time>2020-01-21T00:15:05Z</time>
      </trkpt>
      <trkpt lat="17.071784880" lon="-96.468977570">
        <ele>2646.000</ele>
        <time>2020-01-21T00:15:06Z</time>
      </trkpt>
      <trkpt lat="17.071711210" lon="-96.468952460">
        <ele>2644.200</ele>
        <time>2020-01-21T00:15:07Z</time>
      </trkpt>
      <trkpt lat="17.071649430" lon="-96.468892440">
        <ele>2639.900</ele>
        <time>2020-01-21T00:15:08Z</time>
      </trkpt>
      <trkpt lat="17.071583740" lon="-96.468835980">
        <ele>2637.600</ele>
        <time>2020-01-21T00:15:09Z</time>
      </trkpt>
      <trkpt lat="17.071523940" lon="-96.468787830">
        <ele>2635.900</ele>
        <time>2020-01-21T00:15:10Z</time>
      </trkpt>
      <trkpt lat="17.071477950" lon="-96.468717810">
        <ele>2636.400</ele>
        <time>2020-01-21T00:15:11Z</time>
      </trkpt>
      <trkpt lat="17.071426350" lon="-96.468659300">
        <ele>2635.900</ele>
        <time>2020-01-21T00:15:12Z</time>
      </trkpt>
      <trkpt lat="17.071355340" lon="-96.468623650">
        <ele>2636.000</ele>
        <time>2020-01-21T00:15:13Z</time>
      </trkpt>
      <trkpt lat="17.071279230" lon="-96.468604120">
        <ele>2636.300</ele>
        <time>2020-01-21T00:15:14Z</time>
      </trkpt>
      <trkpt lat="17.071202870" lon="-96.468602470">
        <ele>2637.100</ele>
        <time>2020-01-21T00:15:15Z</time>
      </trkpt>
      <trkpt lat="17.071122740" lon="-96.468612130">
        <ele>2637.200</ele>
        <time>2020-01-21T00:15:16Z</time>
      </trkpt>
      <trkpt lat="17.071039740" lon="-96.468623870">
        <ele>2637.400</ele>
        <time>2020-01-21T00:15:17Z</time>
      </trkpt>
      <trkpt lat="17.070953050" lon="-96.468643530">
        <ele>2637.100</ele>
        <time>2020-01-21T00:15:18Z</time>
      </trkpt>
      <trkpt lat="17.070865840" lon="-96.468664630">
        <ele>2637.200</ele>
        <time>2020-01-21T00:15:19Z</time>
      </trkpt>
      <trkpt lat="17.070778550" lon="-96.468681210">
        <ele>2637.500</ele>
        <time>2020-01-21T00:15:20Z</time>
      </trkpt>
      <trkpt lat="17.070689300" lon="-96.468700080">
        <ele>2637.700</ele>
        <time>2020-01-21T00:15:21Z</time>
      </trkpt>
      <trkpt lat="17.070602730" lon="-96.468721690">
        <ele>2637.900</ele>
        <time>2020-01-21T00:15:22Z</time>
      </trkpt>
      <trkpt lat="17.070509710" lon="-96.468743900">
        <ele>2637.500</ele>
        <time>2020-01-21T00:15:23Z</time>
      </trkpt>
      <trkpt lat="17.070417400" lon="-96.468769270">
        <ele>2638.500</ele>
        <time>2020-01-21T00:15:24Z</time>
      </trkpt>
      <trkpt lat="17.070330960" lon="-96.468792680">
        <ele>2638.700</ele>
        <time>2020-01-21T00:15:25Z</time>
      </trkpt>
      <trkpt lat="17.070247270" lon="-96.468815280">
        <ele>2638.900</ele>
        <time>2020-01-21T00:15:26Z</time>
      </trkpt>
      <trkpt lat="17.070165160" lon="-96.468832660">
        <ele>2639.100</ele>
        <time>2020-01-21T00:15:27Z</time>
      </trkpt>
      <trkpt lat="17.070085380" lon="-96.468838020">
        <ele>2639.200</ele>
        <time>2020-01-21T00:15:28Z</time>
      </trkpt>
      <trkpt lat="17.070009160" lon="-96.468832890">
        <ele>2638.800</ele>
        <time>2020-01-21T00:15:29Z</time>
      </trkpt>
      <trkpt lat="17.069931190" lon="-96.468808770">
        <ele>2638.700</ele>
        <time>2020-01-21T00:15:30Z</time>
      </trkpt>
      <trkpt lat="17.069859330" lon="-96.468783920">
        <ele>2638.600</ele>
        <time>2020-01-21T00:15:31Z</time>
      </trkpt>
      <trkpt lat="17.069790480" lon="-96.468741670">
        <ele>2638.000</ele>
        <time>2020-01-21T00:15:32Z</time>
      </trkpt>
      <trkpt lat="17.069718760" lon="-96.468695360">
        <ele>2638.600</ele>
        <time>2020-01-21T00:15:33Z</time>
      </trkpt>
      <trkpt lat="17.069652680" lon="-96.468653770">
        <ele>2638.500</ele>
        <time>2020-01-21T00:15:34Z</time>
      </trkpt>
      <trkpt lat="17.069584900" lon="-96.468607380">
        <ele>2639.000</ele>
        <time>2020-01-21T00:15:35Z</time>
      </trkpt>
      <trkpt lat="17.069523150" lon="-96.468564340">
        <ele>2639.100</ele>
        <time>2020-01-21T00:15:36Z</time>
      </trkpt>
      <trkpt lat="17.069457190" lon="-96.468522290">
        <ele>2638.900</ele>
        <time>2020-01-21T00:15:37Z</time>
      </trkpt>
      <trkpt lat="17.069392460" lon="-96.468486550">
        <ele>2639.500</ele>
        <time>2020-01-21T00:15:38Z</time>
      </trkpt>
      <trkpt lat="17.069328160" lon="-96.468446050">
        <ele>2638.800</ele>
        <time>2020-01-21T00:15:39Z</time>
      </trkpt>
      <trkpt lat="17.069268280" lon="-96.468411020">
        <ele>2637.800</ele>
        <time>2020-01-21T00:15:40Z</time>
      </trkpt>
      <trkpt lat="17.069207230" lon="-96.468382290">
        <ele>2637.500</ele>
        <time>2020-01-21T00:15:41Z</time>
      </trkpt>
      <trkpt lat="17.069141810" lon="-96.468358560">
        <ele>2636.500</ele>
        <time>2020-01-21T00:15:42Z</time>
      </trkpt>
      <trkpt lat="17.069073970" lon="-96.468337800">
        <ele>2636.600</ele>
        <time>2020-01-21T00:15:43Z</time>
      </trkpt>
      <trkpt lat="17.069005420" lon="-96.468335980">
        <ele>2635.800</ele>
        <time>2020-01-21T00:15:44Z</time>
      </trkpt>
      <trkpt lat="17.068931300" lon="-96.468353560">
        <ele>2634.800</ele>
        <time>2020-01-21T00:15:45Z</time>
      </trkpt>
      <trkpt lat="17.068863520" lon="-96.468380380">
        <ele>2634.300</ele>
        <time>2020-01-21T00:15:46Z</time>
      </trkpt>
      <trkpt lat="17.068791850" lon="-96.468416370">
        <ele>2633.000</ele>
        <time>2020-01-21T00:15:47Z</time>
      </trkpt>
      <trkpt lat="17.068716440" lon="-96.468456020">
        <ele>2632.100</ele>
        <time>2020-01-21T00:15:48Z</time>
      </trkpt>
      <trkpt lat="17.068637810" lon="-96.468491660">
        <ele>2631.500</ele>
        <time>2020-01-21T00:15:49Z</time>
      </trkpt>
      <trkpt lat="17.068555910" lon="-96.468516450">
        <ele>2631.600</ele>
        <time>2020-01-21T00:15:50Z</time>
      </trkpt>
      <trkpt lat="17.068472250" lon="-96.468537710">
        <ele>2631.100</ele>
        <time>2020-01-21T00:15:51Z</time>
      </trkpt>
      <trkpt lat="17.068387870" lon="-96.468549020">
        <ele>2630.400</ele>
        <time>2020-01-21T00:15:52Z</time>
      </trkpt>
      <trkpt lat="17.068306690" lon="-96.468548940">
        <ele>2630.100</ele>
        <time>2020-01-21T00:15:53Z</time>
      </trkpt>
      <trkpt lat="17.068228620" lon="-96.468542490">
        <ele>2629.200</ele>
        <time>2020-01-21T00:15:54Z</time>
      </trkpt>
      <trkpt lat="17.068147920" lon="-96.468538520">
        <ele>2628.500</ele>
        <time>2020-01-21T00:15:55Z</time>
      </trkpt>
      <trkpt lat="17.068059590" lon="-96.468527620">
        <ele>2628.400</ele>
        <time>2020-01-21T00:15:56Z</time>
      </trkpt>
      <trkpt lat="17.067970110" lon="-96.468512210">
        <ele>2627.900</ele>
        <time>2020-01-21T00:15:57Z</time>
      </trkpt>
      <trkpt lat="17.067873510" lon="-96.468496380">
        <ele>2628.000</ele>
        <time>2020-01-21T00:15:58Z</time>
      </trkpt>
      <trkpt lat="17.067785240" lon="-96.468487260">
        <ele>2627.100</ele>
        <time>2020-01-21T00:15:59Z</time>
      </trkpt>
      <trkpt lat="17.067690140" lon="-96.468478060">
        <ele>2626.300</ele>
        <time>2020-01-21T00:16:00Z</time>
      </trkpt>
      <trkpt lat="17.067597520" lon="-96.468468130">
        <ele>2625.700</ele>
        <time>2020-01-21T00:16:01Z</time>
      </trkpt>
      <trkpt lat="17.067500080" lon="-96.468455940">
        <ele>2626.200</ele>
        <time>2020-01-21T00:16:02Z</time>
      </trkpt>
      <trkpt lat="17.067410930" lon="-96.468438650">
        <ele>2625.700</ele>
        <time>2020-01-21T00:16:03Z</time>
      </trkpt>
      <trkpt lat="17.067316790" lon="-96.468430910">
        <ele>2625.500</ele>
        <time>2020-01-21T00:16:04Z</time>
      </trkpt>
      <trkpt lat="17.067221710" lon="-96.468423450">
        <ele>2624.800</ele>
        <time>2020-01-21T00:16:05Z</time>
      </trkpt>
      <trkpt lat="17.067126390" lon="-96.468414570">
        <ele>2624.100</ele>
        <time>2020-01-21T00:16:06Z</time>
      </trkpt>
      <trkpt lat="17.067032800" lon="-96.468410350">
        <ele>2623.400</ele>
        <time>2020-01-21T00:16:07Z</time>
      </trkpt>
      <trkpt lat="17.066938560" lon="-96.468399360">
        <ele>2622.900</ele>
        <time>2020-01-21T00:16:08Z</time>
      </trkpt>
      <trkpt lat="17.066843350" lon="-96.468389540">
        <ele>2622.400</ele>
        <time>2020-01-21T00:16:09Z</time>
      </trkpt>
      <trkpt lat="17.066752840" lon="-96.468377350">
        <ele>2621.300</ele>
        <time>2020-01-21T00:16:10Z</time>
      </trkpt>
      <trkpt lat="17.066659350" lon="-96.468368250">
        <ele>2620.200</ele>
        <time>2020-01-21T00:16:11Z</time>
      </trkpt>
      <trkpt lat="17.066565040" lon="-96.468359600">
        <ele>2619.000</ele>
        <time>2020-01-21T00:16:12Z</time>
      </trkpt>
      <trkpt lat="17.066467520" lon="-96.468349720">
        <ele>2617.700</ele>
        <time>2020-01-21T00:16:13Z</time>
      </trkpt>
      <trkpt lat="17.066372750" lon="-96.468342170">
        <ele>2616.800</ele>
        <time>2020-01-21T00:16:14Z</time>
      </trkpt>
      <trkpt lat="17.066280120" lon="-96.468334150">
        <ele>2616.200</ele>
        <time>2020-01-21T00:16:15Z</time>
      </trkpt>
      <trkpt lat="17.066188340" lon="-96.468330120">
        <ele>2615.400</ele>
        <time>2020-01-21T00:16:16Z</time>
      </trkpt>
      <trkpt lat="17.066106870" lon="-96.468322530">
        <ele>2613.900</ele>
        <time>2020-01-21T00:16:17Z</time>
      </trkpt>
      <trkpt lat="17.066017410" lon="-96.468320030">
        <ele>2613.400</ele>
        <time>2020-01-21T00:16:18Z</time>
      </trkpt>
      <trkpt lat="17.065928940" lon="-96.468318530">
        <ele>2612.900</ele>
        <time>2020-01-21T00:16:19Z</time>
      </trkpt>
      <trkpt lat="17.065842900" lon="-96.468314770">
        <ele>2612.200</ele>
        <time>2020-01-21T00:16:20Z</time>
      </trkpt>
      <trkpt lat="17.065758570" lon="-96.468321220">
        <ele>2611.700</ele>
        <time>2020-01-21T00:16:21Z</time>
      </trkpt>
      <trkpt lat="17.065669580" lon="-96.468335110">
        <ele>2611.900</ele>
        <time>2020-01-21T00:16:22Z</time>
      </trkpt>
      <trkpt lat="17.065574910" lon="-96.468355810">
        <ele>2611.400</ele>
        <time>2020-01-21T00:16:23Z</time>
      </trkpt>
      <trkpt lat="17.065486870" lon="-96.468382590">
        <ele>2611.000</ele>
        <time>2020-01-21T00:16:24Z</time>
      </trkpt>
      <trkpt lat="17.065400680" lon="-96.468405410">
        <ele>2610.100</ele>
        <time>2020-01-21T00:16:25Z</time>
      </trkpt>
      <trkpt lat="17.065314640" lon="-96.468425850">
        <ele>2609.700</ele>
        <time>2020-01-21T00:16:26Z</time>
      </trkpt>
      <trkpt lat="17.065230170" lon="-96.468447340">
        <ele>2609.200</ele>
        <time>2020-01-21T00:16:27Z</time>
      </trkpt>
      <trkpt lat="17.065144220" lon="-96.468470710">
        <ele>2609.100</ele>
        <time>2020-01-21T00:16:28Z</time>
      </trkpt>
      <trkpt lat="17.065065350" lon="-96.468501590">
        <ele>2607.900</ele>
        <time>2020-01-21T00:16:29Z</time>
      </trkpt>
      <trkpt lat="17.064985490" lon="-96.468539510">
        <ele>2607.600</ele>
        <time>2020-01-21T00:16:30Z</time>
      </trkpt>
      <trkpt lat="17.064908010" lon="-96.468587380">
        <ele>2607.700</ele>
        <time>2020-01-21T00:16:31Z</time>
      </trkpt>
      <trkpt lat="17.064835310" lon="-96.468640030">
        <ele>2608.900</ele>
        <time>2020-01-21T00:16:32Z</time>
      </trkpt>
      <trkpt lat="17.064765610" lon="-96.468695290">
        <ele>2608.900</ele>
        <time>2020-01-21T00:16:33Z</time>
      </trkpt>
      <trkpt lat="17.064695460" lon="-96.468752650">
        <ele>2608.800</ele>
        <time>2020-01-21T00:16:34Z</time>
      </trkpt>
      <trkpt lat="17.064625980" lon="-96.468802970">
        <ele>2608.700</ele>
        <time>2020-01-21T00:16:35Z</time>
      </trkpt>
      <trkpt lat="17.064549680" lon="-96.468857330">
        <ele>2608.100</ele>
        <time>2020-01-21T00:16:36Z</time>
      </trkpt>
      <trkpt lat="17.064471840" lon="-96.468908490">
        <ele>2608.300</ele>
        <time>2020-01-21T00:16:37Z</time>
      </trkpt>
      <trkpt lat="17.064393750" lon="-96.468953480">
        <ele>2608.000</ele>
        <time>2020-01-21T00:16:38Z</time>
      </trkpt>
      <trkpt lat="17.064313260" lon="-96.468995520">
        <ele>2607.900</ele>
        <time>2020-01-21T00:16:39Z</time>
      </trkpt>
      <trkpt lat="17.064232290" lon="-96.469039520">
        <ele>2608.600</ele>
        <time>2020-01-21T00:16:40Z</time>
      </trkpt>
      <trkpt lat="17.064147310" lon="-96.469077360">
        <ele>2607.900</ele>
        <time>2020-01-21T00:16:41Z</time>
      </trkpt>
      <trkpt lat="17.064058110" lon="-96.469111930">
        <ele>2607.700</ele>
        <time>2020-01-21T00:16:42Z</time>
      </trkpt>
      <trkpt lat="17.063971220" lon="-96.469138240">
        <ele>2607.700</ele>
        <time>2020-01-21T00:16:43Z</time>
      </trkpt>
      <trkpt lat="17.063882620" lon="-96.469153740">
        <ele>2607.300</ele>
        <time>2020-01-21T00:16:44Z</time>
      </trkpt>
      <trkpt lat="17.063796030" lon="-96.469166410">
        <ele>2606.500</ele>
        <time>2020-01-21T00:16:45Z</time>
      </trkpt>
      <trkpt lat="17.063717620" lon="-96.469171900">
        <ele>2606.300</ele>
        <time>2020-01-21T00:16:46Z</time>
      </trkpt>
      <trkpt lat="17.063656930" lon="-96.469166210">
        <ele>2605.200</ele>
        <time>2020-01-21T00:16:47Z</time>
      </trkpt>
      <trkpt lat="17.063600700" lon="-96.469154330">
        <ele>2605.000</ele>
        <time>2020-01-21T00:16:48Z</time>
      </trkpt>
      <trkpt lat="17.063553380" lon="-96.469139450">
        <ele>2604.600</ele>
        <time>2020-01-21T00:16:49Z</time>
      </trkpt>
      <trkpt lat="17.063511230" lon="-96.469124760">
        <ele>2604.500</ele>
        <time>2020-01-21T00:16:50Z</time>
      </trkpt>
      <trkpt lat="17.063468090" lon="-96.469114740">
        <ele>2603.900</ele>
        <time>2020-01-21T00:16:51Z</time>
      </trkpt>
      <trkpt lat="17.063422720" lon="-96.469105890">
        <ele>2604.100</ele>
        <time>2020-01-21T00:16:52Z</time>
      </trkpt>
      <trkpt lat="17.063380660" lon="-96.469098740">
        <ele>2604.400</ele>
        <time>2020-01-21T00:16:53Z</time>
      </trkpt>
      <trkpt lat="17.063341000" lon="-96.469079190">
        <ele>2604.600</ele>
        <time>2020-01-21T00:16:54Z</time>
      </trkpt>
      <trkpt lat="17.063302260" lon="-96.469073650">
        <ele>2605.000</ele>
        <time>2020-01-21T00:16:55Z</time>
      </trkpt>
      <trkpt lat="17.063244350" lon="-96.469071490">
        <ele>2605.900</ele>
        <time>2020-01-21T00:16:57Z</time>
      </trkpt>
      <trkpt lat="17.063201580" lon="-96.469068510">
        <ele>2603.200</ele>
        <time>2020-01-21T00:18:11Z</time>
      </trkpt>
      <trkpt lat="17.063145940" lon="-96.469069980">
        <ele>2603.500</ele>
        <time>2020-01-21T00:18:13Z</time>
      </trkpt>
      <trkpt lat="17.063106910" lon="-96.469077450">
        <ele>2603.100</ele>
        <time>2020-01-21T00:18:15Z</time>
      </trkpt>
      <trkpt lat="17.063070740" lon="-96.469087160">
        <ele>2602.200</ele>
        <time>2020-01-21T00:18:23Z</time>
      </trkpt>
      <trkpt lat="17.063035210" lon="-96.469096470">
        <ele>2601.700</ele>
        <time>2020-01-21T00:18:25Z</time>
      </trkpt>
      <trkpt lat="17.062963810" lon="-96.469123010">
        <ele>2601.400</ele>
        <time>2020-01-21T00:18:27Z</time>
      </trkpt>
      <trkpt lat="17.062915590" lon="-96.469148760">
        <ele>2601.700</ele>
        <time>2020-01-21T00:18:28Z</time>
      </trkpt>
      <trkpt lat="17.062863700" lon="-96.469158990">
        <ele>2601.400</ele>
        <time>2020-01-21T00:18:29Z</time>
      </trkpt>
      <trkpt lat="17.062808320" lon="-96.469164680">
        <ele>2601.600</ele>
        <time>2020-01-21T00:18:30Z</time>
      </trkpt>
      <trkpt lat="17.062749490" lon="-96.469161480">
        <ele>2601.400</ele>
        <time>2020-01-21T00:18:31Z</time>
      </trkpt>
      <trkpt lat="17.062687800" lon="-96.469157410">
        <ele>2601.200</ele>
        <time>2020-01-21T00:18:32Z</time>
      </trkpt>
      <trkpt lat="17.062627870" lon="-96.469148130">
        <ele>2600.800</ele>
        <time>2020-01-21T00:18:33Z</time>
      </trkpt>
      <trkpt lat="17.062566390" lon="-96.469137910">
        <ele>2600.400</ele>
        <time>2020-01-21T00:18:34Z</time>
      </trkpt>
      <trkpt lat="17.062503360" lon="-96.469128230">
        <ele>2599.800</ele>
        <time>2020-01-21T00:18:35Z</time>
      </trkpt>
      <trkpt lat="17.062438060" lon="-96.469118390">
        <ele>2599.400</ele>
        <time>2020-01-21T00:18:36Z</time>
      </trkpt>
      <trkpt lat="17.062370630" lon="-96.469109400">
        <ele>2598.600</ele>
        <time>2020-01-21T00:18:37Z</time>
      </trkpt>
      <trkpt lat="17.062294020" lon="-96.469103130">
        <ele>2597.800</ele>
        <time>2020-01-21T00:18:38Z</time>
      </trkpt>
      <trkpt lat="17.062218780" lon="-96.469102320">
        <ele>2597.300</ele>
        <time>2020-01-21T00:18:39Z</time>
      </trkpt>
      <trkpt lat="17.062140130" lon="-96.469107250">
        <ele>2596.300</ele>
        <time>2020-01-21T00:18:40Z</time>
      </trkpt>
      <trkpt lat="17.062063750" lon="-96.469111860">
        <ele>2595.400</ele>
        <time>2020-01-21T00:18:41Z</time>
      </trkpt>
      <trkpt lat="17.061985180" lon="-96.469119800">
        <ele>2594.600</ele>
        <time>2020-01-21T00:18:42Z</time>
      </trkpt>
      <trkpt lat="17.061903840" lon="-96.469133220">
        <ele>2593.900</ele>
        <time>2020-01-21T00:18:43Z</time>
      </trkpt>
      <trkpt lat="17.061820920" lon="-96.469147690">
        <ele>2593.200</ele>
        <time>2020-01-21T00:18:44Z</time>
      </trkpt>
      <trkpt lat="17.061736980" lon="-96.469166250">
        <ele>2592.500</ele>
        <time>2020-01-21T00:18:45Z</time>
      </trkpt>
      <trkpt lat="17.061648060" lon="-96.469193330">
        <ele>2592.200</ele>
        <time>2020-01-21T00:18:46Z</time>
      </trkpt>
      <trkpt lat="17.061565260" lon="-96.469225250">
        <ele>2591.000</ele>
        <time>2020-01-21T00:18:47Z</time>
      </trkpt>
      <trkpt lat="17.061482300" lon="-96.469266980">
        <ele>2589.700</ele>
        <time>2020-01-21T00:18:48Z</time>
      </trkpt>
      <trkpt lat="17.061406240" lon="-96.469318500">
        <ele>2588.500</ele>
        <time>2020-01-21T00:18:49Z</time>
      </trkpt>
      <trkpt lat="17.061326190" lon="-96.469377680">
        <ele>2587.000</ele>
        <time>2020-01-21T00:18:50Z</time>
      </trkpt>
      <trkpt lat="17.061246930" lon="-96.469440950">
        <ele>2585.800</ele>
        <time>2020-01-21T00:18:51Z</time>
      </trkpt>
      <trkpt lat="17.061163800" lon="-96.469498990">
        <ele>2584.600</ele>
        <time>2020-01-21T00:18:52Z</time>
      </trkpt>
      <trkpt lat="17.061075300" lon="-96.469556560">
        <ele>2583.400</ele>
        <time>2020-01-21T00:18:53Z</time>
      </trkpt>
      <trkpt lat="17.060984420" lon="-96.469607140">
        <ele>2582.300</ele>
        <time>2020-01-21T00:18:54Z</time>
      </trkpt>
      <trkpt lat="17.060889700" lon="-96.469653010">
        <ele>2581.500</ele>
        <time>2020-01-21T00:18:55Z</time>
      </trkpt>
      <trkpt lat="17.060797870" lon="-96.469695040">
        <ele>2581.100</ele>
        <time>2020-01-21T00:18:56Z</time>
      </trkpt>
      <trkpt lat="17.060707170" lon="-96.469731060">
        <ele>2580.500</ele>
        <time>2020-01-21T00:18:57Z</time>
      </trkpt>
      <trkpt lat="17.060617460" lon="-96.469765680">
        <ele>2580.300</ele>
        <time>2020-01-21T00:18:58Z</time>
      </trkpt>
      <trkpt lat="17.060529510" lon="-96.469800870">
        <ele>2579.800</ele>
        <time>2020-01-21T00:18:59Z</time>
      </trkpt>
      <trkpt lat="17.060449490" lon="-96.469843200">
        <ele>2579.300</ele>
        <time>2020-01-21T00:19:00Z</time>
      </trkpt>
      <trkpt lat="17.060377340" lon="-96.469891590">
        <ele>2578.100</ele>
        <time>2020-01-21T00:19:01Z</time>
      </trkpt>
      <trkpt lat="17.060303060" lon="-96.469952850">
        <ele>2577.900</ele>
        <time>2020-01-21T00:19:02Z</time>
      </trkpt>
      <trkpt lat="17.060237290" lon="-96.470025840">
        <ele>2577.300</ele>
        <time>2020-01-21T00:19:03Z</time>
      </trkpt>
      <trkpt lat="17.060176490" lon="-96.470108130">
        <ele>2577.200</ele>
        <time>2020-01-21T00:19:04Z</time>
      </trkpt>
      <trkpt lat="17.060122190" lon="-96.470186440">
        <ele>2576.900</ele>
        <time>2020-01-21T00:19:05Z</time>
      </trkpt>
      <trkpt lat="17.060060440" lon="-96.470268290">
        <ele>2576.400</ele>
        <time>2020-01-21T00:19:06Z</time>
      </trkpt>
      <trkpt lat="17.060001510" lon="-96.470342050">
        <ele>2576.200</ele>
        <time>2020-01-21T00:19:07Z</time>
      </trkpt>
      <trkpt lat="17.059936010" lon="-96.470412330">
        <ele>2575.900</ele>
        <time>2020-01-21T00:19:08Z</time>
      </trkpt>
      <trkpt lat="17.059869570" lon="-96.470475430">
        <ele>2575.700</ele>
        <time>2020-01-21T00:19:09Z</time>
      </trkpt>
      <trkpt lat="17.059804280" lon="-96.470533930">
        <ele>2575.200</ele>
        <time>2020-01-21T00:19:10Z</time>
      </trkpt>
      <trkpt lat="17.059737870" lon="-96.470591200">
        <ele>2574.500</ele>
        <time>2020-01-21T00:19:11Z</time>
      </trkpt>
      <trkpt lat="17.059667830" lon="-96.470646300">
        <ele>2574.400</ele>
        <time>2020-01-21T00:19:12Z</time>
      </trkpt>
      <trkpt lat="17.059603720" lon="-96.470703580">
        <ele>2575.400</ele>
        <time>2020-01-21T00:19:13Z</time>
      </trkpt>
      <trkpt lat="17.059546010" lon="-96.470761630">
        <ele>2574.400</ele>
        <time>2020-01-21T00:19:14Z</time>
      </trkpt>
      <trkpt lat="17.059488730" lon="-96.470827730">
        <ele>2573.800</ele>
        <time>2020-01-21T00:19:15Z</time>
      </trkpt>
      <trkpt lat="17.059444030" lon="-96.470891940">
        <ele>2573.000</ele>
        <time>2020-01-21T00:19:16Z</time>
      </trkpt>
      <trkpt lat="17.059404140" lon="-96.470960440">
        <ele>2572.400</ele>
        <time>2020-01-21T00:19:17Z</time>
      </trkpt>
      <trkpt lat="17.059364260" lon="-96.471031730">
        <ele>2572.600</ele>
        <time>2020-01-21T00:19:18Z</time>
      </trkpt>
      <trkpt lat="17.059330670" lon="-96.471107050">
        <ele>2571.900</ele>
        <time>2020-01-21T00:19:19Z</time>
      </trkpt>
      <trkpt lat="17.059297090" lon="-96.471181100">
        <ele>2571.100</ele>
        <time>2020-01-21T00:19:20Z</time>
      </trkpt>
      <trkpt lat="17.059264620" lon="-96.471252620">
        <ele>2570.400</ele>
        <time>2020-01-21T00:19:21Z</time>
      </trkpt>
      <trkpt lat="17.059226250" lon="-96.471317760">
        <ele>2570.000</ele>
        <time>2020-01-21T00:19:22Z</time>
      </trkpt>
      <trkpt lat="17.059186190" lon="-96.471381730">
        <ele>2569.300</ele>
        <time>2020-01-21T00:19:23Z</time>
      </trkpt>
      <trkpt lat="17.059131330" lon="-96.471427560">
        <ele>2568.700</ele>
        <time>2020-01-21T00:19:24Z</time>
      </trkpt>
      <trkpt lat="17.059070530" lon="-96.471458970">
        <ele>2568.900</ele>
        <time>2020-01-21T00:19:25Z</time>
      </trkpt>
      <trkpt lat="17.058996800" lon="-96.471477020">
        <ele>2568.300</ele>
        <time>2020-01-21T00:19:26Z</time>
      </trkpt>
      <trkpt lat="17.058927830" lon="-96.471466920">
        <ele>2567.500</ele>
        <time>2020-01-21T00:19:27Z</time>
      </trkpt>
      <trkpt lat="17.058858740" lon="-96.471435520">
        <ele>2566.700</ele>
        <time>2020-01-21T00:19:28Z</time>
      </trkpt>
      <trkpt lat="17.058794880" lon="-96.471388090">
        <ele>2565.700</ele>
        <time>2020-01-21T00:19:29Z</time>
      </trkpt>
      <trkpt lat="17.058735490" lon="-96.471335500">
        <ele>2565.400</ele>
        <time>2020-01-21T00:19:30Z</time>
      </trkpt>
      <trkpt lat="17.058680340" lon="-96.471279200">
        <ele>2565.100</ele>
        <time>2020-01-21T00:19:31Z</time>
      </trkpt>
      <trkpt lat="17.058624470" lon="-96.471220630">
        <ele>2564.500</ele>
        <time>2020-01-21T00:19:32Z</time>
      </trkpt>
      <trkpt lat="17.058570740" lon="-96.471164620">
        <ele>2564.100</ele>
        <time>2020-01-21T00:19:33Z</time>
      </trkpt>
      <trkpt lat="17.058511970" lon="-96.471106060">
        <ele>2563.600</ele>
        <time>2020-01-21T00:19:34Z</time>
      </trkpt>
      <trkpt lat="17.058447450" lon="-96.471045400">
        <ele>2563.500</ele>
        <time>2020-01-21T00:19:35Z</time>
      </trkpt>
      <trkpt lat="17.058386310" lon="-96.470991760">
        <ele>2563.000</ele>
        <time>2020-01-21T00:19:36Z</time>
      </trkpt>
      <trkpt lat="17.058318670" lon="-96.470938520">
        <ele>2562.800</ele>
        <time>2020-01-21T00:19:37Z</time>
      </trkpt>
      <trkpt lat="17.058251690" lon="-96.470883270">
        <ele>2562.900</ele>
        <time>2020-01-21T00:19:38Z</time>
      </trkpt>
      <trkpt lat="17.058185060" lon="-96.470827760">
        <ele>2562.400</ele>
        <time>2020-01-21T00:19:39Z</time>
      </trkpt>
      <trkpt lat="17.058121820" lon="-96.470770570">
        <ele>2562.300</ele>
        <time>2020-01-21T00:19:40Z</time>
      </trkpt>
      <trkpt lat="17.058060160" lon="-96.470709850">
        <ele>2561.400</ele>
        <time>2020-01-21T00:19:41Z</time>
      </trkpt>
      <trkpt lat="17.058003420" lon="-96.470644590">
        <ele>2560.500</ele>
        <time>2020-01-21T00:19:42Z</time>
      </trkpt>
      <trkpt lat="17.057945210" lon="-96.470582890">
        <ele>2560.000</ele>
        <time>2020-01-21T00:19:43Z</time>
      </trkpt>
      <trkpt lat="17.057893590" lon="-96.470520650">
        <ele>2559.400</ele>
        <time>2020-01-21T00:19:44Z</time>
      </trkpt>
      <trkpt lat="17.057840250" lon="-96.470457400">
        <ele>2558.900</ele>
        <time>2020-01-21T00:19:45Z</time>
      </trkpt>
      <trkpt lat="17.057781520" lon="-96.470398820">
        <ele>2558.400</ele>
        <time>2020-01-21T00:19:46Z</time>
      </trkpt>
      <trkpt lat="17.057717170" lon="-96.470342150">
        <ele>2557.900</ele>
        <time>2020-01-21T00:19:47Z</time>
      </trkpt>
      <trkpt lat="17.057651130" lon="-96.470297890">
        <ele>2557.300</ele>
        <time>2020-01-21T00:19:48Z</time>
      </trkpt>
      <trkpt lat="17.057577900" lon="-96.470268540">
        <ele>2556.100</ele>
        <time>2020-01-21T00:19:49Z</time>
      </trkpt>
      <trkpt lat="17.057499140" lon="-96.470248160">
        <ele>2555.800</ele>
        <time>2020-01-21T00:19:50Z</time>
      </trkpt>
      <trkpt lat="17.057415030" lon="-96.470237320">
        <ele>2555.200</ele>
        <time>2020-01-21T00:19:51Z</time>
      </trkpt>
      <trkpt lat="17.057338430" lon="-96.470233470">
        <ele>2554.500</ele>
        <time>2020-01-21T00:19:52Z</time>
      </trkpt>
      <trkpt lat="17.057258510" lon="-96.470227270">
        <ele>2554.000</ele>
        <time>2020-01-21T00:19:53Z</time>
      </trkpt>
      <trkpt lat="17.057183270" lon="-96.470212680">
        <ele>2553.300</ele>
        <time>2020-01-21T00:19:54Z</time>
      </trkpt>
      <trkpt lat="17.057108400" lon="-96.470181170">
        <ele>2552.800</ele>
        <time>2020-01-21T00:19:55Z</time>
      </trkpt>
      <trkpt lat="17.057044890" lon="-96.470134420">
        <ele>2552.800</ele>
        <time>2020-01-21T00:19:56Z</time>
      </trkpt>
      <trkpt lat="17.056986880" lon="-96.470080880">
        <ele>2552.200</ele>
        <time>2020-01-21T00:19:57Z</time>
      </trkpt>
      <trkpt lat="17.056935160" lon="-96.470021500">
        <ele>2552.700</ele>
        <time>2020-01-21T00:19:58Z</time>
      </trkpt>
      <trkpt lat="17.056887610" lon="-96.469961180">
        <ele>2552.600</ele>
        <time>2020-01-21T00:19:59Z</time>
      </trkpt>
      <trkpt lat="17.056847270" lon="-96.469909710">
        <ele>2552.700</ele>
        <time>2020-01-21T00:20:00Z</time>
      </trkpt>
      <trkpt lat="17.056800000" lon="-96.469850060">
        <ele>2552.800</ele>
        <time>2020-01-21T00:20:01Z</time>
      </trkpt>
      <trkpt lat="17.056747430" lon="-96.469809320">
        <ele>2553.100</ele>
        <time>2020-01-21T00:20:02Z</time>
      </trkpt>
      <trkpt lat="17.056687540" lon="-96.469788400">
        <ele>2553.000</ele>
        <time>2020-01-21T00:20:03Z</time>
      </trkpt>
      <trkpt lat="17.056629350" lon="-96.469778020">
        <ele>2551.900</ele>
        <time>2020-01-21T00:20:04Z</time>
      </trkpt>
      <trkpt lat="17.056547200" lon="-96.469805530">
        <ele>2551.700</ele>
        <time>2020-01-21T00:20:05Z</time>
      </trkpt>
      <trkpt lat="17.056464650" lon="-96.469829910">
        <ele>2550.900</ele>
        <time>2020-01-21T00:20:06Z</time>
      </trkpt>
      <trkpt lat="17.056378560" lon="-96.469853820">
        <ele>2550.000</ele>
        <time>2020-01-21T00:20:07Z</time>
      </trkpt>
      <trkpt lat="17.056290120" lon="-96.469874850">
        <ele>2549.600</ele>
        <time>2020-01-21T00:20:08Z</time>
      </trkpt>
      <trkpt lat="17.056202210" lon="-96.469896290">
        <ele>2549.700</ele>
        <time>2020-01-21T00:20:09Z</time>
      </trkpt>
      <trkpt lat="17.056114140" lon="-96.469912080">
        <ele>2549.100</ele>
        <time>2020-01-21T00:20:10Z</time>
      </trkpt>
      <trkpt lat="17.056033630" lon="-96.469925320">
        <ele>2548.000</ele>
        <time>2020-01-21T00:20:11Z</time>
      </trkpt>
      <trkpt lat="17.055941770" lon="-96.469929620">
        <ele>2547.000</ele>
        <time>2020-01-21T00:20:12Z</time>
      </trkpt>
      <trkpt lat="17.055852850" lon="-96.469927870">
        <ele>2546.400</ele>
        <time>2020-01-21T00:20:13Z</time>
      </trkpt>
      <trkpt lat="17.055756610" lon="-96.469916040">
        <ele>2545.500</ele>
        <time>2020-01-21T00:20:14Z</time>
      </trkpt>
      <trkpt lat="17.055672760" lon="-96.469903120">
        <ele>2544.900</ele>
        <time>2020-01-21T00:20:15Z</time>
      </trkpt>
      <trkpt lat="17.055588520" lon="-96.469885320">
        <ele>2544.500</ele>
        <time>2020-01-21T00:20:16Z</time>
      </trkpt>
      <trkpt lat="17.055509090" lon="-96.469864330">
        <ele>2544.400</ele>
        <time>2020-01-21T00:20:17Z</time>
      </trkpt>
      <trkpt lat="17.055439900" lon="-96.469844480">
        <ele>2544.200</ele>
        <time>2020-01-21T00:20:18Z</time>
      </trkpt>
      <trkpt lat="17.055374290" lon="-96.469822340">
        <ele>2543.700</ele>
        <time>2020-01-21T00:20:19Z</time>
      </trkpt>
      <trkpt lat="17.055310300" lon="-96.469802360">
        <ele>2542.300</ele>
        <time>2020-01-21T00:20:20Z</time>
      </trkpt>
      <trkpt lat="17.055245050" lon="-96.469786540">
        <ele>2542.100</ele>
        <time>2020-01-21T00:20:21Z</time>
      </trkpt>
      <trkpt lat="17.055179340" lon="-96.469781100">
        <ele>2542.100</ele>
        <time>2020-01-21T00:20:22Z</time>
      </trkpt>
      <trkpt lat="17.055113690" lon="-96.469791330">
        <ele>2542.400</ele>
        <time>2020-01-21T00:20:23Z</time>
      </trkpt>
      <trkpt lat="17.055049160" lon="-96.469814370">
        <ele>2542.100</ele>
        <time>2020-01-21T00:20:24Z</time>
      </trkpt>
      <trkpt lat="17.054984120" lon="-96.469840400">
        <ele>2540.600</ele>
        <time>2020-01-21T00:20:25Z</time>
      </trkpt>
      <trkpt lat="17.054914520" lon="-96.469872230">
        <ele>2539.700</ele>
        <time>2020-01-21T00:20:26Z</time>
      </trkpt>
      <trkpt lat="17.054844790" lon="-96.469901970">
        <ele>2538.600</ele>
        <time>2020-01-21T00:20:27Z</time>
      </trkpt>
      <trkpt lat="17.054779040" lon="-96.469934900">
        <ele>2537.500</ele>
        <time>2020-01-21T00:20:28Z</time>
      </trkpt>
      <trkpt lat="17.054714500" lon="-96.469966200">
        <ele>2536.000</ele>
        <time>2020-01-21T00:20:29Z</time>
      </trkpt>
      <trkpt lat="17.054650170" lon="-96.469997370">
        <ele>2535.100</ele>
        <time>2020-01-21T00:20:30Z</time>
      </trkpt>
      <trkpt lat="17.054585340" lon="-96.470022480">
        <ele>2533.900</ele>
        <time>2020-01-21T00:20:31Z</time>
      </trkpt>
      <trkpt lat="17.054522550" lon="-96.470040140">
        <ele>2532.300</ele>
        <time>2020-01-21T00:20:32Z</time>
      </trkpt>
      <trkpt lat="17.054457560" lon="-96.470051820">
        <ele>2531.800</ele>
        <time>2020-01-21T00:20:33Z</time>
      </trkpt>
      <trkpt lat="17.054399540" lon="-96.470060010">
        <ele>2530.600</ele>
        <time>2020-01-21T00:20:34Z</time>
      </trkpt>
      <trkpt lat="17.054329380" lon="-96.470055780">
        <ele>2530.200</ele>
        <time>2020-01-21T00:20:35Z</time>
      </trkpt>
      <trkpt lat="17.054276480" lon="-96.470030910">
        <ele>2529.100</ele>
        <time>2020-01-21T00:20:36Z</time>
      </trkpt>
      <trkpt lat="17.054218790" lon="-96.469990950">
        <ele>2529.000</ele>
        <time>2020-01-21T00:20:37Z</time>
      </trkpt>
      <trkpt lat="17.054169890" lon="-96.469936770">
        <ele>2529.100</ele>
        <time>2020-01-21T00:20:38Z</time>
      </trkpt>
      <trkpt lat="17.054124910" lon="-96.469876730">
        <ele>2529.000</ele>
        <time>2020-01-21T00:20:39Z</time>
      </trkpt>
      <trkpt lat="17.054084430" lon="-96.469816640">
        <ele>2528.600</ele>
        <time>2020-01-21T00:20:40Z</time>
      </trkpt>
      <trkpt lat="17.054046160" lon="-96.469749650">
        <ele>2528.100</ele>
        <time>2020-01-21T00:20:41Z</time>
      </trkpt>
      <trkpt lat="17.054012210" lon="-96.469686590">
        <ele>2527.700</ele>
        <time>2020-01-21T00:20:42Z</time>
      </trkpt>
      <trkpt lat="17.053972800" lon="-96.469619820">
        <ele>2527.200</ele>
        <time>2020-01-21T00:20:43Z</time>
      </trkpt>
      <trkpt lat="17.053937760" lon="-96.469557840">
        <ele>2526.700</ele>
        <time>2020-01-21T00:20:44Z</time>
      </trkpt>
      <trkpt lat="17.053896270" lon="-96.469492520">
        <ele>2526.800</ele>
        <time>2020-01-21T00:20:45Z</time>
      </trkpt>
      <trkpt lat="17.053853360" lon="-96.469435710">
        <ele>2526.400</ele>
        <time>2020-01-21T00:20:46Z</time>
      </trkpt>
      <trkpt lat="17.053798290" lon="-96.469384140">
        <ele>2525.600</ele>
        <time>2020-01-21T00:20:47Z</time>
      </trkpt>
      <trkpt lat="17.053734040" lon="-96.469334070">
        <ele>2525.800</ele>
        <time>2020-01-21T00:20:48Z</time>
      </trkpt>
      <trkpt lat="17.053668530" lon="-96.469303930">
        <ele>2526.000</ele>
        <time>2020-01-21T00:20:49Z</time>
      </trkpt>
      <trkpt lat="17.053606060" lon="-96.469287800">
        <ele>2525.400</ele>
        <time>2020-01-21T00:20:50Z</time>
      </trkpt>
      <trkpt lat="17.053525600" lon="-96.469285410">
        <ele>2523.300</ele>
        <time>2020-01-21T00:20:51Z</time>
      </trkpt>
      <trkpt lat="17.053460030" lon="-96.469299190">
        <ele>2523.300</ele>
        <time>2020-01-21T00:20:52Z</time>
      </trkpt>
      <trkpt lat="17.053392380" lon="-96.469309770">
        <ele>2522.800</ele>
        <time>2020-01-21T00:20:53Z</time>
      </trkpt>
      <trkpt lat="17.053326210" lon="-96.469320340">
        <ele>2522.000</ele>
        <time>2020-01-21T00:20:54Z</time>
      </trkpt>
      <trkpt lat="17.053257400" lon="-96.469319510">
        <ele>2520.600</ele>
        <time>2020-01-21T00:20:55Z</time>
      </trkpt>
      <trkpt lat="17.053188470" lon="-96.469302080">
        <ele>2520.200</ele>
        <time>2020-01-21T00:20:56Z</time>
      </trkpt>
      <trkpt lat="17.053128850" lon="-96.469270530">
        <ele>2518.000</ele>
        <time>2020-01-21T00:20:57Z</time>
      </trkpt>
      <trkpt lat="17.053068190" lon="-96.469229850">
        <ele>2517.400</ele>
        <time>2020-01-21T00:20:58Z</time>
      </trkpt>
      <trkpt lat="17.053006000" lon="-96.469185980">
        <ele>2517.000</ele>
        <time>2020-01-21T00:20:59Z</time>
      </trkpt>
      <trkpt lat="17.052944100" lon="-96.469140520">
        <ele>2516.300</ele>
        <time>2020-01-21T00:21:00Z</time>
      </trkpt>
      <trkpt lat="17.052877270" lon="-96.469105230">
        <ele>2515.500</ele>
        <time>2020-01-21T00:21:01Z</time>
      </trkpt>
      <trkpt lat="17.052808660" lon="-96.469074220">
        <ele>2515.000</ele>
        <time>2020-01-21T00:21:02Z</time>
      </trkpt>
      <trkpt lat="17.052736870" lon="-96.469053750">
        <ele>2514.400</ele>
        <time>2020-01-21T00:21:03Z</time>
      </trkpt>
      <trkpt lat="17.052659000" lon="-96.469035340">
        <ele>2513.900</ele>
        <time>2020-01-21T00:21:04Z</time>
      </trkpt>
      <trkpt lat="17.052584020" lon="-96.469013870">
        <ele>2513.200</ele>
        <time>2020-01-21T00:21:05Z</time>
      </trkpt>
      <trkpt lat="17.052510450" lon="-96.468979920">
        <ele>2512.200</ele>
        <time>2020-01-21T00:21:06Z</time>
      </trkpt>
      <trkpt lat="17.052435470" lon="-96.468935510">
        <ele>2512.500</ele>
        <time>2020-01-21T00:21:07Z</time>
      </trkpt>
      <trkpt lat="17.052361380" lon="-96.468893890">
        <ele>2511.800</ele>
        <time>2020-01-21T00:21:08Z</time>
      </trkpt>
      <trkpt lat="17.052314300" lon="-96.468837730">
        <ele>2511.100</ele>
        <time>2020-01-21T00:21:09Z</time>
      </trkpt>
      <trkpt lat="17.052260600" lon="-96.468787720">
        <ele>2510.700</ele>
        <time>2020-01-21T00:21:10Z</time>
      </trkpt>
      <trkpt lat="17.052205220" lon="-96.468735760">
        <ele>2510.900</ele>
        <time>2020-01-21T00:21:11Z</time>
      </trkpt>
      <trkpt lat="17.052148900" lon="-96.468699030">
        <ele>2510.700</ele>
        <time>2020-01-21T00:21:12Z</time>
      </trkpt>
      <trkpt lat="17.052078190" lon="-96.468688410">
        <ele>2510.300</ele>
        <time>2020-01-21T00:21:13Z</time>
      </trkpt>
      <trkpt lat="17.052008940" lon="-96.468685930">
        <ele>2508.800</ele>
        <time>2020-01-21T00:21:14Z</time>
      </trkpt>
      <trkpt lat="17.051934160" lon="-96.468694080">
        <ele>2508.100</ele>
        <time>2020-01-21T00:21:15Z</time>
      </trkpt>
      <trkpt lat="17.051868220" lon="-96.468723250">
        <ele>2505.800</ele>
        <time>2020-01-21T00:21:16Z</time>
      </trkpt>
      <trkpt lat="17.051802430" lon="-96.468746830">
        <ele>2504.900</ele>
        <time>2020-01-21T00:21:17Z</time>
      </trkpt>
      <trkpt lat="17.051739920" lon="-96.468769980">
        <ele>2503.900</ele>
        <time>2020-01-21T00:21:18Z</time>
      </trkpt>
      <trkpt lat="17.051685260" lon="-96.468783590">
        <ele>2502.500</ele>
        <time>2020-01-21T00:21:19Z</time>
      </trkpt>
      <trkpt lat="17.051628100" lon="-96.468782400">
        <ele>2501.600</ele>
        <time>2020-01-21T00:21:20Z</time>
      </trkpt>
      <trkpt lat="17.051572580" lon="-96.468764950">
        <ele>2500.700</ele>
        <time>2020-01-21T00:21:21Z</time>
      </trkpt>
      <trkpt lat="17.051521300" lon="-96.468726910">
        <ele>2500.500</ele>
        <time>2020-01-21T00:21:22Z</time>
      </trkpt>
      <trkpt lat="17.051479420" lon="-96.468678420">
        <ele>2499.700</ele>
        <time>2020-01-21T00:21:23Z</time>
      </trkpt>
      <trkpt lat="17.051448870" lon="-96.468612930">
        <ele>2498.600</ele>
        <time>2020-01-21T00:21:24Z</time>
      </trkpt>
      <trkpt lat="17.051428180" lon="-96.468545350">
        <ele>2498.100</ele>
        <time>2020-01-21T00:21:25Z</time>
      </trkpt>
      <trkpt lat="17.051418700" lon="-96.468475020">
        <ele>2496.700</ele>
        <time>2020-01-21T00:21:26Z</time>
      </trkpt>
      <trkpt lat="17.051403420" lon="-96.468397280">
        <ele>2495.600</ele>
        <time>2020-01-21T00:21:27Z</time>
      </trkpt>
      <trkpt lat="17.051387500" lon="-96.468318230">
        <ele>2494.700</ele>
        <time>2020-01-21T00:21:28Z</time>
      </trkpt>
      <trkpt lat="17.051374740" lon="-96.468242120">
        <ele>2494.200</ele>
        <time>2020-01-21T00:21:29Z</time>
      </trkpt>
      <trkpt lat="17.051359550" lon="-96.468169600">
        <ele>2493.200</ele>
        <time>2020-01-21T00:21:30Z</time>
      </trkpt>
      <trkpt lat="17.051344910" lon="-96.468096510">
        <ele>2492.300</ele>
        <time>2020-01-21T00:21:31Z</time>
      </trkpt>
      <trkpt lat="17.051318520" lon="-96.468031740">
        <ele>2492.100</ele>
        <time>2020-01-21T00:21:32Z</time>
      </trkpt>
      <trkpt lat="17.051278290" lon="-96.467974920">
        <ele>2491.400</ele>
        <time>2020-01-21T00:21:33Z</time>
      </trkpt>
      <trkpt lat="17.051223200" lon="-96.467926170">
        <ele>2491.300</ele>
        <time>2020-01-21T00:21:34Z</time>
      </trkpt>
      <trkpt lat="17.051157280" lon="-96.467895850">
        <ele>2490.700</ele>
        <time>2020-01-21T00:21:35Z</time>
      </trkpt>
      <trkpt lat="17.051088310" lon="-96.467881290">
        <ele>2490.100</ele>
        <time>2020-01-21T00:21:36Z</time>
      </trkpt>
      <trkpt lat="17.051017660" lon="-96.467873440">
        <ele>2489.500</ele>
        <time>2020-01-21T00:21:37Z</time>
      </trkpt>
      <trkpt lat="17.050945170" lon="-96.467869390">
        <ele>2488.700</ele>
        <time>2020-01-21T00:21:38Z</time>
      </trkpt>
      <trkpt lat="17.050872260" lon="-96.467867610">
        <ele>2487.400</ele>
        <time>2020-01-21T00:21:39Z</time>
      </trkpt>
      <trkpt lat="17.050799240" lon="-96.467865380">
        <ele>2486.600</ele>
        <time>2020-01-21T00:21:40Z</time>
      </trkpt>
      <trkpt lat="17.050730550" lon="-96.467862170">
        <ele>2485.500</ele>
        <time>2020-01-21T00:21:41Z</time>
      </trkpt>
      <trkpt lat="17.050658670" lon="-96.467852400">
        <ele>2485.100</ele>
        <time>2020-01-21T00:21:42Z</time>
      </trkpt>
      <trkpt lat="17.050588690" lon="-96.467826690">
        <ele>2484.600</ele>
        <time>2020-01-21T00:21:43Z</time>
      </trkpt>
      <trkpt lat="17.050529730" lon="-96.467785770">
        <ele>2483.400</ele>
        <time>2020-01-21T00:21:44Z</time>
      </trkpt>
      <trkpt lat="17.050472400" lon="-96.467739860">
        <ele>2482.900</ele>
        <time>2020-01-21T00:21:45Z</time>
      </trkpt>
      <trkpt lat="17.050417440" lon="-96.467687950">
        <ele>2482.300</ele>
        <time>2020-01-21T00:21:46Z</time>
      </trkpt>
      <trkpt lat="17.050364000" lon="-96.467635340">
        <ele>2481.600</ele>
        <time>2020-01-21T00:21:47Z</time>
      </trkpt>
      <trkpt lat="17.050310490" lon="-96.467581780">
        <ele>2480.600</ele>
        <time>2020-01-21T00:21:48Z</time>
      </trkpt>
      <trkpt lat="17.050252020" lon="-96.467529940">
        <ele>2480.000</ele>
        <time>2020-01-21T00:21:49Z</time>
      </trkpt>
      <trkpt lat="17.050192820" lon="-96.467482560">
        <ele>2479.800</ele>
        <time>2020-01-21T00:21:50Z</time>
      </trkpt>
      <trkpt lat="17.050129400" lon="-96.467439610">
        <ele>2479.100</ele>
        <time>2020-01-21T00:21:51Z</time>
      </trkpt>
      <trkpt lat="17.050062860" lon="-96.467404600">
        <ele>2478.800</ele>
        <time>2020-01-21T00:21:52Z</time>
      </trkpt>
      <trkpt lat="17.049992930" lon="-96.467384740">
        <ele>2478.400</ele>
        <time>2020-01-21T00:21:53Z</time>
      </trkpt>
      <trkpt lat="17.049924590" lon="-96.467383770">
        <ele>2477.700</ele>
        <time>2020-01-21T00:21:54Z</time>
      </trkpt>
      <trkpt lat="17.049848770" lon="-96.467392040">
        <ele>2477.400</ele>
        <time>2020-01-21T00:21:55Z</time>
      </trkpt>
      <trkpt lat="17.049791590" lon="-96.467437370">
        <ele>2476.800</ele>
        <time>2020-01-21T00:21:56Z</time>
      </trkpt>
      <trkpt lat="17.049746110" lon="-96.467494880">
        <ele>2474.500</ele>
        <time>2020-01-21T00:21:57Z</time>
      </trkpt>
      <trkpt lat="17.049700370" lon="-96.467555280">
        <ele>2472.700</ele>
        <time>2020-01-21T00:21:58Z</time>
      </trkpt>
      <trkpt lat="17.049649050" lon="-96.467619320">
        <ele>2470.900</ele>
        <time>2020-01-21T00:21:59Z</time>
      </trkpt>
      <trkpt lat="17.049595990" lon="-96.467685310">
        <ele>2468.800</ele>
        <time>2020-01-21T00:22:00Z</time>
      </trkpt>
      <trkpt lat="17.049535510" lon="-96.467752150">
        <ele>2467.500</ele>
        <time>2020-01-21T00:22:01Z</time>
      </trkpt>
      <trkpt lat="17.049473010" lon="-96.467812520">
        <ele>2466.500</ele>
        <time>2020-01-21T00:22:02Z</time>
      </trkpt>
      <trkpt lat="17.049404270" lon="-96.467870140">
        <ele>2465.900</ele>
        <time>2020-01-21T00:22:03Z</time>
      </trkpt>
      <trkpt lat="17.049334250" lon="-96.467926490">
        <ele>2465.500</ele>
        <time>2020-01-21T00:22:04Z</time>
      </trkpt>
      <trkpt lat="17.049261880" lon="-96.467978700">
        <ele>2464.300</ele>
        <time>2020-01-21T00:22:05Z</time>
      </trkpt>
      <trkpt lat="17.049183780" lon="-96.468026930">
        <ele>2462.700</ele>
        <time>2020-01-21T00:22:06Z</time>
      </trkpt>
      <trkpt lat="17.049107990" lon="-96.468075810">
        <ele>2461.800</ele>
        <time>2020-01-21T00:22:07Z</time>
      </trkpt>
      <trkpt lat="17.049032440" lon="-96.468124830">
        <ele>2461.200</ele>
        <time>2020-01-21T00:22:08Z</time>
      </trkpt>
      <trkpt lat="17.048954200" lon="-96.468168240">
        <ele>2460.200</ele>
        <time>2020-01-21T00:22:09Z</time>
      </trkpt>
      <trkpt lat="17.048871540" lon="-96.468210910">
        <ele>2459.100</ele>
        <time>2020-01-21T00:22:10Z</time>
      </trkpt>
      <trkpt lat="17.048785750" lon="-96.468253630">
        <ele>2458.000</ele>
        <time>2020-01-21T00:22:11Z</time>
      </trkpt>
      <trkpt lat="17.048702520" lon="-96.468289750">
        <ele>2457.100</ele>
        <time>2020-01-21T00:22:12Z</time>
      </trkpt>
      <trkpt lat="17.048619230" lon="-96.468328570">
        <ele>2456.600</ele>
        <time>2020-01-21T00:22:13Z</time>
      </trkpt>
      <trkpt lat="17.048534790" lon="-96.468361800">
        <ele>2455.100</ele>
        <time>2020-01-21T00:22:14Z</time>
      </trkpt>
      <trkpt lat="17.048458040" lon="-96.468391450">
        <ele>2454.200</ele>
        <time>2020-01-21T00:22:15Z</time>
      </trkpt>
      <trkpt lat="17.048383160" lon="-96.468418270">
        <ele>2453.300</ele>
        <time>2020-01-21T00:22:16Z</time>
      </trkpt>
      <trkpt lat="17.048311290" lon="-96.468433440">
        <ele>2452.300</ele>
        <time>2020-01-21T00:22:17Z</time>
      </trkpt>
      <trkpt lat="17.048242470" lon="-96.468436370">
        <ele>2451.600</ele>
        <time>2020-01-21T00:22:18Z</time>
      </trkpt>
      <trkpt lat="17.048171910" lon="-96.468424430">
        <ele>2451.200</ele>
        <time>2020-01-21T00:22:19Z</time>
      </trkpt>
      <trkpt lat="17.048104960" lon="-96.468399520">
        <ele>2450.800</ele>
        <time>2020-01-21T00:22:20Z</time>
      </trkpt>
      <trkpt lat="17.048043140" lon="-96.468358650">
        <ele>2450.800</ele>
        <time>2020-01-21T00:22:21Z</time>
      </trkpt>
      <trkpt lat="17.047985250" lon="-96.468307340">
        <ele>2450.100</ele>
        <time>2020-01-21T00:22:22Z</time>
      </trkpt>
      <trkpt lat="17.047933270" lon="-96.468248610">
        <ele>2449.500</ele>
        <time>2020-01-21T00:22:23Z</time>
      </trkpt>
      <trkpt lat="17.047884720" lon="-96.468188220">
        <ele>2449.100</ele>
        <time>2020-01-21T00:22:24Z</time>
      </trkpt>
      <trkpt lat="17.047835200" lon="-96.468123660">
        <ele>2448.100</ele>
        <time>2020-01-21T00:22:25Z</time>
      </trkpt>
      <trkpt lat="17.047785770" lon="-96.468060330">
        <ele>2447.400</ele>
        <time>2020-01-21T00:22:26Z</time>
      </trkpt>
      <trkpt lat="17.047736490" lon="-96.467988860">
        <ele>2446.600</ele>
        <time>2020-01-21T00:22:27Z</time>
      </trkpt>
      <trkpt lat="17.047684570" lon="-96.467920490">
        <ele>2445.400</ele>
        <time>2020-01-21T00:22:28Z</time>
      </trkpt>
      <trkpt lat="17.047629620" lon="-96.467857610">
        <ele>2444.900</ele>
        <time>2020-01-21T00:22:29Z</time>
      </trkpt>
      <trkpt lat="17.047575980" lon="-96.467799870">
        <ele>2444.200</ele>
        <time>2020-01-21T00:22:30Z</time>
      </trkpt>
      <trkpt lat="17.047526140" lon="-96.467748640">
        <ele>2444.000</ele>
        <time>2020-01-21T00:22:31Z</time>
      </trkpt>
      <trkpt lat="17.047481190" lon="-96.467710330">
        <ele>2443.500</ele>
        <time>2020-01-21T00:22:32Z</time>
      </trkpt>
      <trkpt lat="17.047430720" lon="-96.467670430">
        <ele>2442.900</ele>
        <time>2020-01-21T00:22:33Z</time>
      </trkpt>
      <trkpt lat="17.047377190" lon="-96.467644590">
        <ele>2442.900</ele>
        <time>2020-01-21T00:22:34Z</time>
      </trkpt>
      <trkpt lat="17.047320560" lon="-96.467637120">
        <ele>2443.000</ele>
        <time>2020-01-21T00:22:35Z</time>
      </trkpt>
      <trkpt lat="17.047258560" lon="-96.467639540">
        <ele>2442.500</ele>
        <time>2020-01-21T00:22:36Z</time>
      </trkpt>
      <trkpt lat="17.047190060" lon="-96.467659840">
        <ele>2442.600</ele>
        <time>2020-01-21T00:22:37Z</time>
      </trkpt>
      <trkpt lat="17.047120840" lon="-96.467690750">
        <ele>2442.200</ele>
        <time>2020-01-21T00:22:38Z</time>
      </trkpt>
      <trkpt lat="17.047049690" lon="-96.467718640">
        <ele>2441.200</ele>
        <time>2020-01-21T00:22:39Z</time>
      </trkpt>
      <trkpt lat="17.046985900" lon="-96.467749590">
        <ele>2438.800</ele>
        <time>2020-01-21T00:22:40Z</time>
      </trkpt>
      <trkpt lat="17.046917270" lon="-96.467779460">
        <ele>2437.200</ele>
        <time>2020-01-21T00:22:41Z</time>
      </trkpt>
      <trkpt lat="17.046849160" lon="-96.467810050">
        <ele>2436.100</ele>
        <time>2020-01-21T00:22:42Z</time>
      </trkpt>
      <trkpt lat="17.046782810" lon="-96.467848730">
        <ele>2435.200</ele>
        <time>2020-01-21T00:22:43Z</time>
      </trkpt>
      <trkpt lat="17.046725160" lon="-96.467903370">
        <ele>2434.000</ele>
        <time>2020-01-21T00:22:44Z</time>
      </trkpt>
      <trkpt lat="17.046677580" lon="-96.467966750">
        <ele>2433.100</ele>
        <time>2020-01-21T00:22:45Z</time>
      </trkpt>
      <trkpt lat="17.046640230" lon="-96.468035760">
        <ele>2433.000</ele>
        <time>2020-01-21T00:22:46Z</time>
      </trkpt>
      <trkpt lat="17.046608860" lon="-96.468112030">
        <ele>2432.500</ele>
        <time>2020-01-21T00:22:47Z</time>
      </trkpt>
      <trkpt lat="17.046575160" lon="-96.468183700">
        <ele>2432.000</ele>
        <time>2020-01-21T00:22:48Z</time>
      </trkpt>
      <trkpt lat="17.046540160" lon="-96.468250910">
        <ele>2431.500</ele>
        <time>2020-01-21T00:22:49Z</time>
      </trkpt>
      <trkpt lat="17.046492270" lon="-96.468318970">
        <ele>2431.000</ele>
        <time>2020-01-21T00:22:50Z</time>
      </trkpt>
      <trkpt lat="17.046437790" lon="-96.468386750">
        <ele>2430.100</ele>
        <time>2020-01-21T00:22:51Z</time>
      </trkpt>
      <trkpt lat="17.046375600" lon="-96.468447450">
        <ele>2428.800</ele>
        <time>2020-01-21T00:22:52Z</time>
      </trkpt>
      <trkpt lat="17.046305860" lon="-96.468499840">
        <ele>2428.300</ele>
        <time>2020-01-21T00:22:53Z</time>
      </trkpt>
      <trkpt lat="17.046234240" lon="-96.468544330">
        <ele>2427.100</ele>
        <time>2020-01-21T00:22:54Z</time>
      </trkpt>
      <trkpt lat="17.046159550" lon="-96.468590320">
        <ele>2426.100</ele>
        <time>2020-01-21T00:22:55Z</time>
      </trkpt>
      <trkpt lat="17.046085200" lon="-96.468635700">
        <ele>2424.900</ele>
        <time>2020-01-21T00:22:56Z</time>
      </trkpt>
      <trkpt lat="17.046007720" lon="-96.468677120">
        <ele>2423.800</ele>
        <time>2020-01-21T00:22:57Z</time>
      </trkpt>
      <trkpt lat="17.045928270" lon="-96.468713150">
        <ele>2422.600</ele>
        <time>2020-01-21T00:22:58Z</time>
      </trkpt>
      <trkpt lat="17.045849550" lon="-96.468738450">
        <ele>2421.600</ele>
        <time>2020-01-21T00:22:59Z</time>
      </trkpt>
      <trkpt lat="17.045777410" lon="-96.468757430">
        <ele>2421.000</ele>
        <time>2020-01-21T00:23:00Z</time>
      </trkpt>
      <trkpt lat="17.045710490" lon="-96.468772830">
        <ele>2420.600</ele>
        <time>2020-01-21T00:23:01Z</time>
      </trkpt>
      <trkpt lat="17.045651700" lon="-96.468788640">
        <ele>2420.200</ele>
        <time>2020-01-21T00:23:02Z</time>
      </trkpt>
      <trkpt lat="17.045600590" lon="-96.468800230">
        <ele>2419.800</ele>
        <time>2020-01-21T00:23:03Z</time>
      </trkpt>
      <trkpt lat="17.045561810" lon="-96.468809680">
        <ele>2418.800</ele>
        <time>2020-01-21T00:23:04Z</time>
      </trkpt>
      <trkpt lat="17.045489210" lon="-96.468828580">
        <ele>2417.800</ele>
        <time>2020-01-21T00:23:06Z</time>
      </trkpt>
      <trkpt lat="17.045449550" lon="-96.468842780">
        <ele>2418.000</ele>
        <time>2020-01-21T00:23:07Z</time>
      </trkpt>
      <trkpt lat="17.045412910" lon="-96.468859960">
        <ele>2416.700</ele>
        <time>2020-01-21T00:23:08Z</time>
      </trkpt>
      <trkpt lat="17.045365650" lon="-96.468888190">
        <ele>2416.300</ele>
        <time>2020-01-21T00:23:09Z</time>
      </trkpt>
      <trkpt lat="17.045322600" lon="-96.468921800">
        <ele>2415.800</ele>
        <time>2020-01-21T00:23:10Z</time>
      </trkpt>
      <trkpt lat="17.045285610" lon="-96.468964500">
        <ele>2414.600</ele>
        <time>2020-01-21T00:23:11Z</time>
      </trkpt>
      <trkpt lat="17.045255450" lon="-96.469017660">
        <ele>2413.400</ele>
        <time>2020-01-21T00:23:12Z</time>
      </trkpt>
      <trkpt lat="17.045229880" lon="-96.469079660">
        <ele>2413.200</ele>
        <time>2020-01-21T00:23:13Z</time>
      </trkpt>
      <trkpt lat="17.045224610" lon="-96.469148960">
        <ele>2412.400</ele>
        <time>2020-01-21T00:23:14Z</time>
      </trkpt>
      <trkpt lat="17.045226960" lon="-96.469220090">
        <ele>2412.000</ele>
        <time>2020-01-21T00:23:15Z</time>
      </trkpt>
      <trkpt lat="17.045226210" lon="-96.469293630">
        <ele>2411.900</ele>
        <time>2020-01-21T00:23:16Z</time>
      </trkpt>
      <trkpt lat="17.045226220" lon="-96.469367600">
        <ele>2411.400</ele>
        <time>2020-01-21T00:23:17Z</time>
      </trkpt>
      <trkpt lat="17.045221110" lon="-96.469434310">
        <ele>2410.700</ele>
        <time>2020-01-21T00:23:18Z</time>
      </trkpt>
      <trkpt lat="17.045208140" lon="-96.469493880">
        <ele>2410.100</ele>
        <time>2020-01-21T00:23:19Z</time>
      </trkpt>
      <trkpt lat="17.045189950" lon="-96.469549840">
        <ele>2409.000</ele>
        <time>2020-01-21T00:23:20Z</time>
      </trkpt>
      <trkpt lat="17.045158910" lon="-96.469601300">
        <ele>2407.800</ele>
        <time>2020-01-21T00:23:21Z</time>
      </trkpt>
      <trkpt lat="17.045122540" lon="-96.469650580">
        <ele>2407.000</ele>
        <time>2020-01-21T00:23:22Z</time>
      </trkpt>
      <trkpt lat="17.045080180" lon="-96.469700100">
        <ele>2406.000</ele>
        <time>2020-01-21T00:23:23Z</time>
      </trkpt>
      <trkpt lat="17.045035800" lon="-96.469748720">
        <ele>2404.800</ele>
        <time>2020-01-21T00:23:24Z</time>
      </trkpt>
      <trkpt lat="17.044988760" lon="-96.469799900">
        <ele>2404.100</ele>
        <time>2020-01-21T00:23:25Z</time>
      </trkpt>
      <trkpt lat="17.044938620" lon="-96.469853800">
        <ele>2403.700</ele>
        <time>2020-01-21T00:23:26Z</time>
      </trkpt>
      <trkpt lat="17.044883040" lon="-96.469907190">
        <ele>2403.000</ele>
        <time>2020-01-21T00:23:27Z</time>
      </trkpt>
      <trkpt lat="17.044823170" lon="-96.469960750">
        <ele>2402.200</ele>
        <time>2020-01-21T00:23:28Z</time>
      </trkpt>
      <trkpt lat="17.044766280" lon="-96.470010890">
        <ele>2401.600</ele>
        <time>2020-01-21T00:23:29Z</time>
      </trkpt>
      <trkpt lat="17.044701150" lon="-96.470062780">
        <ele>2399.800</ele>
        <time>2020-01-21T00:23:30Z</time>
      </trkpt>
      <trkpt lat="17.044634810" lon="-96.470110670">
        <ele>2398.600</ele>
        <time>2020-01-21T00:23:31Z</time>
      </trkpt>
      <trkpt lat="17.044567160" lon="-96.470155850">
        <ele>2398.000</ele>
        <time>2020-01-21T00:23:32Z</time>
      </trkpt>
      <trkpt lat="17.044502750" lon="-96.470196190">
        <ele>2397.300</ele>
        <time>2020-01-21T00:23:33Z</time>
      </trkpt>
      <trkpt lat="17.044434860" lon="-96.470237720">
        <ele>2396.700</ele>
        <time>2020-01-21T00:23:34Z</time>
      </trkpt>
      <trkpt lat="17.044379870" lon="-96.470267080">
        <ele>2396.300</ele>
        <time>2020-01-21T00:23:35Z</time>
      </trkpt>
      <trkpt lat="17.044335380" lon="-96.470291320">
        <ele>2395.800</ele>
        <time>2020-01-21T00:23:36Z</time>
      </trkpt>
      <trkpt lat="17.044292560" lon="-96.470312090">
        <ele>2394.900</ele>
        <time>2020-01-21T00:23:37Z</time>
      </trkpt>
      <trkpt lat="17.044255390" lon="-96.470336480">
        <ele>2394.400</ele>
        <time>2020-01-21T00:23:38Z</time>
      </trkpt>
      <trkpt lat="17.044216220" lon="-96.470365140">
        <ele>2394.000</ele>
        <time>2020-01-21T00:23:39Z</time>
      </trkpt>
      <trkpt lat="17.044170100" lon="-96.470392830">
        <ele>2393.600</ele>
        <time>2020-01-21T00:23:40Z</time>
      </trkpt>
      <trkpt lat="17.044113490" lon="-96.470419950">
        <ele>2393.100</ele>
        <time>2020-01-21T00:23:41Z</time>
      </trkpt>
      <trkpt lat="17.044055710" lon="-96.470447810">
        <ele>2392.300</ele>
        <time>2020-01-21T00:23:42Z</time>
      </trkpt>
      <trkpt lat="17.043990200" lon="-96.470473110">
        <ele>2391.500</ele>
        <time>2020-01-21T00:23:43Z</time>
      </trkpt>
      <trkpt lat="17.043927010" lon="-96.470496840">
        <ele>2390.800</ele>
        <time>2020-01-21T00:23:44Z</time>
      </trkpt>
      <trkpt lat="17.043857130" lon="-96.470521800">
        <ele>2389.900</ele>
        <time>2020-01-21T00:23:45Z</time>
      </trkpt>
      <trkpt lat="17.043784860" lon="-96.470535720">
        <ele>2389.300</ele>
        <time>2020-01-21T00:23:46Z</time>
      </trkpt>
      <trkpt lat="17.043705960" lon="-96.470537870">
        <ele>2388.900</ele>
        <time>2020-01-21T00:23:47Z</time>
      </trkpt>
      <trkpt lat="17.043626630" lon="-96.470533610">
        <ele>2388.500</ele>
        <time>2020-01-21T00:23:48Z</time>
      </trkpt>
      <trkpt lat="17.043546410" lon="-96.470529860">
        <ele>2388.000</ele>
        <time>2020-01-21T00:23:49Z</time>
      </trkpt>
      <trkpt lat="17.043464970" lon="-96.470522090">
        <ele>2387.000</ele>
        <time>2020-01-21T00:23:50Z</time>
      </trkpt>
      <trkpt lat="17.043381560" lon="-96.470512470">
        <ele>2386.100</ele>
        <time>2020-01-21T00:23:51Z</time>
      </trkpt>
      <trkpt lat="17.043301170" lon="-96.470502330">
        <ele>2385.100</ele>
        <time>2020-01-21T00:23:52Z</time>
      </trkpt>
      <trkpt lat="17.043221470" lon="-96.470496970">
        <ele>2384.400</ele>
        <time>2020-01-21T00:23:53Z</time>
      </trkpt>
      <trkpt lat="17.043145870" lon="-96.470484580">
        <ele>2383.700</ele>
        <time>2020-01-21T00:23:54Z</time>
      </trkpt>
      <trkpt lat="17.043070660" lon="-96.470473840">
        <ele>2383.000</ele>
        <time>2020-01-21T00:23:55Z</time>
      </trkpt>
      <trkpt lat="17.042995680" lon="-96.470464570">
        <ele>2382.300</ele>
        <time>2020-01-21T00:23:56Z</time>
      </trkpt>
      <trkpt lat="17.042919190" lon="-96.470453690">
        <ele>2381.700</ele>
        <time>2020-01-21T00:23:57Z</time>
      </trkpt>
      <trkpt lat="17.042847190" lon="-96.470450080">
        <ele>2380.900</ele>
        <time>2020-01-21T00:23:58Z</time>
      </trkpt>
      <trkpt lat="17.042769080" lon="-96.470443800">
        <ele>2380.700</ele>
        <time>2020-01-21T00:23:59Z</time>
      </trkpt>
      <trkpt lat="17.042693200" lon="-96.470449450">
        <ele>2379.500</ele>
        <time>2020-01-21T00:24:00Z</time>
      </trkpt>
      <trkpt lat="17.042614800" lon="-96.470463280">
        <ele>2379.000</ele>
        <time>2020-01-21T00:24:01Z</time>
      </trkpt>
      <trkpt lat="17.042532610" lon="-96.470483000">
        <ele>2378.500</ele>
        <time>2020-01-21T00:24:02Z</time>
      </trkpt>
      <trkpt lat="17.042453340" lon="-96.470513460">
        <ele>2377.200</ele>
        <time>2020-01-21T00:24:03Z</time>
      </trkpt>
      <trkpt lat="17.042373660" lon="-96.470548050">
        <ele>2376.200</ele>
        <time>2020-01-21T00:24:04Z</time>
      </trkpt>
      <trkpt lat="17.042294620" lon="-96.470586350">
        <ele>2375.100</ele>
        <time>2020-01-21T00:24:05Z</time>
      </trkpt>
      <trkpt lat="17.042214110" lon="-96.470623400">
        <ele>2374.000</ele>
        <time>2020-01-21T00:24:06Z</time>
      </trkpt>
      <trkpt lat="17.042135010" lon="-96.470668820">
        <ele>2372.800</ele>
        <time>2020-01-21T00:24:07Z</time>
      </trkpt>
      <trkpt lat="17.042056260" lon="-96.470710610">
        <ele>2371.900</ele>
        <time>2020-01-21T00:24:08Z</time>
      </trkpt>
      <trkpt lat="17.041973490" lon="-96.470752250">
        <ele>2371.200</ele>
        <time>2020-01-21T00:24:09Z</time>
      </trkpt>
      <trkpt lat="17.041892130" lon="-96.470791000">
        <ele>2370.600</ele>
        <time>2020-01-21T00:24:10Z</time>
      </trkpt>
      <trkpt lat="17.041805930" lon="-96.470833360">
        <ele>2369.500</ele>
        <time>2020-01-21T00:24:11Z</time>
      </trkpt>
      <trkpt lat="17.041720930" lon="-96.470874500">
        <ele>2369.100</ele>
        <time>2020-01-21T00:24:12Z</time>
      </trkpt>
      <trkpt lat="17.041634860" lon="-96.470918160">
        <ele>2368.200</ele>
        <time>2020-01-21T00:24:13Z</time>
      </trkpt>
      <trkpt lat="17.041546680" lon="-96.470961760">
        <ele>2367.400</ele>
        <time>2020-01-21T00:24:14Z</time>
      </trkpt>
      <trkpt lat="17.041462740" lon="-96.471006300">
        <ele>2366.600</ele>
        <time>2020-01-21T00:24:15Z</time>
      </trkpt>
      <trkpt lat="17.041376380" lon="-96.471050640">
        <ele>2365.900</ele>
        <time>2020-01-21T00:24:16Z</time>
      </trkpt>
      <trkpt lat="17.041290820" lon="-96.471094040">
        <ele>2365.000</ele>
        <time>2020-01-21T00:24:17Z</time>
      </trkpt>
      <trkpt lat="17.041207330" lon="-96.471139980">
        <ele>2364.300</ele>
        <time>2020-01-21T00:24:18Z</time>
      </trkpt>
      <trkpt lat="17.041120620" lon="-96.471186830">
        <ele>2363.800</ele>
        <time>2020-01-21T00:24:19Z</time>
      </trkpt>
      <trkpt lat="17.041037750" lon="-96.471225670">
        <ele>2362.300</ele>
        <time>2020-01-21T00:24:20Z</time>
      </trkpt>
      <trkpt lat="17.040962170" lon="-96.471278010">
        <ele>2361.200</ele>
        <time>2020-01-21T00:24:21Z</time>
      </trkpt>
      <trkpt lat="17.040879050" lon="-96.471320390">
        <ele>2360.500</ele>
        <time>2020-01-21T00:24:22Z</time>
      </trkpt>
      <trkpt lat="17.040794430" lon="-96.471364240">
        <ele>2359.600</ele>
        <time>2020-01-21T00:24:23Z</time>
      </trkpt>
      <trkpt lat="17.040709020" lon="-96.471403390">
        <ele>2359.300</ele>
        <time>2020-01-21T00:24:24Z</time>
      </trkpt>
      <trkpt lat="17.040623660" lon="-96.471441680">
        <ele>2358.500</ele>
        <time>2020-01-21T00:24:25Z</time>
      </trkpt>
      <trkpt lat="17.040540160" lon="-96.471478510">
        <ele>2357.900</ele>
        <time>2020-01-21T00:24:26Z</time>
      </trkpt>
      <trkpt lat="17.040450970" lon="-96.471502110">
        <ele>2356.800</ele>
        <time>2020-01-21T00:24:27Z</time>
      </trkpt>
      <trkpt lat="17.040362150" lon="-96.471522060">
        <ele>2355.700</ele>
        <time>2020-01-21T00:24:28Z</time>
      </trkpt>
      <trkpt lat="17.040272470" lon="-96.471531550">
        <ele>2355.000</ele>
        <time>2020-01-21T00:24:29Z</time>
      </trkpt>
      <trkpt lat="17.040190830" lon="-96.471530500">
        <ele>2353.200</ele>
        <time>2020-01-21T00:24:30Z</time>
      </trkpt>
      <trkpt lat="17.040102090" lon="-96.471527140">
        <ele>2352.400</ele>
        <time>2020-01-21T00:24:31Z</time>
      </trkpt>
      <trkpt lat="17.040012840" lon="-96.471521690">
        <ele>2351.700</ele>
        <time>2020-01-21T00:24:32Z</time>
      </trkpt>
      <trkpt lat="17.039925410" lon="-96.471514370">
        <ele>2351.500</ele>
        <time>2020-01-21T00:24:33Z</time>
      </trkpt>
      <trkpt lat="17.039834160" lon="-96.471509040">
        <ele>2351.500</ele>
        <time>2020-01-21T00:24:34Z</time>
      </trkpt>
      <trkpt lat="17.039746950" lon="-96.471501000">
        <ele>2350.800</ele>
        <time>2020-01-21T00:24:35Z</time>
      </trkpt>
      <trkpt lat="17.039661000" lon="-96.471496130">
        <ele>2350.500</ele>
        <time>2020-01-21T00:24:36Z</time>
      </trkpt>
      <trkpt lat="17.039574010" lon="-96.471489100">
        <ele>2350.300</ele>
        <time>2020-01-21T00:24:37Z</time>
      </trkpt>
      <trkpt lat="17.039490920" lon="-96.471480460">
        <ele>2350.000</ele>
        <time>2020-01-21T00:24:38Z</time>
      </trkpt>
      <trkpt lat="17.039404480" lon="-96.471479010">
        <ele>2349.400</ele>
        <time>2020-01-21T00:24:39Z</time>
      </trkpt>
      <trkpt lat="17.039325380" lon="-96.471470950">
        <ele>2349.300</ele>
        <time>2020-01-21T00:24:40Z</time>
      </trkpt>
      <trkpt lat="17.039246580" lon="-96.471465340">
        <ele>2348.600</ele>
        <time>2020-01-21T00:24:41Z</time>
      </trkpt>
      <trkpt lat="17.039168970" lon="-96.471460720">
        <ele>2348.500</ele>
        <time>2020-01-21T00:24:42Z</time>
      </trkpt>
      <trkpt lat="17.039099020" lon="-96.471456770">
        <ele>2348.100</ele>
        <time>2020-01-21T00:24:43Z</time>
      </trkpt>
      <trkpt lat="17.039031500" lon="-96.471455380">
        <ele>2347.300</ele>
        <time>2020-01-21T00:24:44Z</time>
      </trkpt>
      <trkpt lat="17.038966600" lon="-96.471458200">
        <ele>2346.200</ele>
        <time>2020-01-21T00:24:45Z</time>
      </trkpt>
      <trkpt lat="17.038902390" lon="-96.471452190">
        <ele>2346.000</ele>
        <time>2020-01-21T00:24:46Z</time>
      </trkpt>
      <trkpt lat="17.038841850" lon="-96.471439710">
        <ele>2345.400</ele>
        <time>2020-01-21T00:24:47Z</time>
      </trkpt>
      <trkpt lat="17.038770540" lon="-96.471424910">
        <ele>2345.200</ele>
        <time>2020-01-21T00:24:48Z</time>
      </trkpt>
      <trkpt lat="17.038702530" lon="-96.471406940">
        <ele>2344.900</ele>
        <time>2020-01-21T00:24:49Z</time>
      </trkpt>
      <trkpt lat="17.038632960" lon="-96.471388570">
        <ele>2344.200</ele>
        <time>2020-01-21T00:24:50Z</time>
      </trkpt>
      <trkpt lat="17.038559110" lon="-96.471368110">
        <ele>2344.100</ele>
        <time>2020-01-21T00:24:51Z</time>
      </trkpt>
      <trkpt lat="17.038481280" lon="-96.471350550">
        <ele>2343.300</ele>
        <time>2020-01-21T00:24:52Z</time>
      </trkpt>
      <trkpt lat="17.038404250" lon="-96.471334120">
        <ele>2342.600</ele>
        <time>2020-01-21T00:24:53Z</time>
      </trkpt>
      <trkpt lat="17.038327230" lon="-96.471315350">
        <ele>2342.100</ele>
        <time>2020-01-21T00:24:54Z</time>
      </trkpt>
      <trkpt lat="17.038251110" lon="-96.471298510">
        <ele>2340.900</ele>
        <time>2020-01-21T00:24:55Z</time>
      </trkpt>
      <trkpt lat="17.038169710" lon="-96.471281800">
        <ele>2340.400</ele>
        <time>2020-01-21T00:24:56Z</time>
      </trkpt>
      <trkpt lat="17.038091990" lon="-96.471268300">
        <ele>2339.900</ele>
        <time>2020-01-21T00:24:57Z</time>
      </trkpt>
      <trkpt lat="17.038011760" lon="-96.471261630">
        <ele>2339.000</ele>
        <time>2020-01-21T00:24:58Z</time>
      </trkpt>
      <trkpt lat="17.037930140" lon="-96.471261560">
        <ele>2338.300</ele>
        <time>2020-01-21T00:24:59Z</time>
      </trkpt>
      <trkpt lat="17.037850570" lon="-96.471269480">
        <ele>2337.600</ele>
        <time>2020-01-21T00:25:00Z</time>
      </trkpt>
      <trkpt lat="17.037767660" lon="-96.471284260">
        <ele>2336.900</ele>
        <time>2020-01-21T00:25:01Z</time>
      </trkpt>
      <trkpt lat="17.037682220" lon="-96.471302990">
        <ele>2336.100</ele>
        <time>2020-01-21T00:25:02Z</time>
      </trkpt>
      <trkpt lat="17.037599710" lon="-96.471319040">
        <ele>2335.300</ele>
        <time>2020-01-21T00:25:03Z</time>
      </trkpt>
      <trkpt lat="17.037514260" lon="-96.471342610">
        <ele>2334.500</ele>
        <time>2020-01-21T00:25:04Z</time>
      </trkpt>
      <trkpt lat="17.037428570" lon="-96.471365990">
        <ele>2332.700</ele>
        <time>2020-01-21T00:25:05Z</time>
      </trkpt>
      <trkpt lat="17.037346240" lon="-96.471390520">
        <ele>2331.200</ele>
        <time>2020-01-21T00:25:06Z</time>
      </trkpt>
      <trkpt lat="17.037257550" lon="-96.471413530">
        <ele>2330.200</ele>
        <time>2020-01-21T00:25:07Z</time>
      </trkpt>
      <trkpt lat="17.037169120" lon="-96.471438630">
        <ele>2328.800</ele>
        <time>2020-01-21T00:25:08Z</time>
      </trkpt>
      <trkpt lat="17.037078930" lon="-96.471468320">
        <ele>2327.700</ele>
        <time>2020-01-21T00:25:09Z</time>
      </trkpt>
      <trkpt lat="17.036990890" lon="-96.471503080">
        <ele>2326.800</ele>
        <time>2020-01-21T00:25:10Z</time>
      </trkpt>
      <trkpt lat="17.036904840" lon="-96.471543370">
        <ele>2326.000</ele>
        <time>2020-01-21T00:25:11Z</time>
      </trkpt>
      <trkpt lat="17.036822130" lon="-96.471592360">
        <ele>2325.000</ele>
        <time>2020-01-21T00:25:12Z</time>
      </trkpt>
      <trkpt lat="17.036737930" lon="-96.471639630">
        <ele>2324.000</ele>
        <time>2020-01-21T00:25:13Z</time>
      </trkpt>
      <trkpt lat="17.036653840" lon="-96.471688180">
        <ele>2323.000</ele>
        <time>2020-01-21T00:25:14Z</time>
      </trkpt>
      <trkpt lat="17.036567640" lon="-96.471737670">
        <ele>2321.700</ele>
        <time>2020-01-21T00:25:15Z</time>
      </trkpt>
      <trkpt lat="17.036483540" lon="-96.471787590">
        <ele>2320.400</ele>
        <time>2020-01-21T00:25:16Z</time>
      </trkpt>
      <trkpt lat="17.036405930" lon="-96.471840060">
        <ele>2319.300</ele>
        <time>2020-01-21T00:25:17Z</time>
      </trkpt>
      <trkpt lat="17.036328340" lon="-96.471884810">
        <ele>2318.000</ele>
        <time>2020-01-21T00:25:18Z</time>
      </trkpt>
      <trkpt lat="17.036253300" lon="-96.471921760">
        <ele>2317.700</ele>
        <time>2020-01-21T00:25:19Z</time>
      </trkpt>
      <trkpt lat="17.036180130" lon="-96.471949850">
        <ele>2316.200</ele>
        <time>2020-01-21T00:25:20Z</time>
      </trkpt>
      <trkpt lat="17.036108440" lon="-96.471968460">
        <ele>2314.500</ele>
        <time>2020-01-21T00:25:21Z</time>
      </trkpt>
      <trkpt lat="17.036029940" lon="-96.471983260">
        <ele>2313.700</ele>
        <time>2020-01-21T00:25:22Z</time>
      </trkpt>
      <trkpt lat="17.035948730" lon="-96.471990020">
        <ele>2376.200</ele>
        <time>2020-01-21T00:25:23Z</time>
      </trkpt>
      <trkpt lat="17.035870450" lon="-96.471985760">
        <ele>2352.700</ele>
        <time>2020-01-21T00:25:24Z</time>
      </trkpt>
      <trkpt lat="17.035799800" lon="-96.471977720">
        <ele>2339.600</ele>
        <time>2020-01-21T00:25:25Z</time>
      </trkpt>
      <trkpt lat="17.035738010" lon="-96.471956680">
        <ele>2331.300</ele>
        <time>2020-01-21T00:25:26Z</time>
      </trkpt>
      <trkpt lat="17.035676190" lon="-96.471931510">
        <ele>2325.700</ele>
        <time>2020-01-21T00:25:27Z</time>
      </trkpt>
      <trkpt lat="17.035619580" lon="-96.471895620">
        <ele>2324.300</ele>
        <time>2020-01-21T00:25:28Z</time>
      </trkpt>
      <trkpt lat="17.035560140" lon="-96.471851580">
        <ele>2318.300</ele>
        <time>2020-01-21T00:25:29Z</time>
      </trkpt>
      <trkpt lat="17.035501490" lon="-96.471798410">
        <ele>2315.000</ele>
        <time>2020-01-21T00:25:30Z</time>
      </trkpt>
      <trkpt lat="17.035441510" lon="-96.471741420">
        <ele>2312.300</ele>
        <time>2020-01-21T00:25:31Z</time>
      </trkpt>
      <trkpt lat="17.035383070" lon="-96.471685750">
        <ele>2310.000</ele>
        <time>2020-01-21T00:25:32Z</time>
      </trkpt>
      <trkpt lat="17.035324630" lon="-96.471628090">
        <ele>2308.500</ele>
        <time>2020-01-21T00:25:33Z</time>
      </trkpt>
      <trkpt lat="17.035271610" lon="-96.471568730">
        <ele>2307.100</ele>
        <time>2020-01-21T00:25:34Z</time>
      </trkpt>
      <trkpt lat="17.035228400" lon="-96.471501650">
        <ele>2305.800</ele>
        <time>2020-01-21T00:25:35Z</time>
      </trkpt>
      <trkpt lat="17.035197590" lon="-96.471421430">
        <ele>2304.800</ele>
        <time>2020-01-21T00:25:36Z</time>
      </trkpt>
      <trkpt lat="17.035176120" lon="-96.471340890">
        <ele>2303.700</ele>
        <time>2020-01-21T00:25:37Z</time>
      </trkpt>
      <trkpt lat="17.035162060" lon="-96.471255890">
        <ele>2302.600</ele>
        <time>2020-01-21T00:25:38Z</time>
      </trkpt>
      <trkpt lat="17.035147890" lon="-96.471171990">
        <ele>2301.400</ele>
        <time>2020-01-21T00:25:39Z</time>
      </trkpt>
      <trkpt lat="17.035136240" lon="-96.471092710">
        <ele>2300.200</ele>
        <time>2020-01-21T00:25:40Z</time>
      </trkpt>
      <trkpt lat="17.035122740" lon="-96.471032050">
        <ele>2299.300</ele>
        <time>2020-01-21T00:25:41Z</time>
      </trkpt>
      <trkpt lat="17.035115090" lon="-96.470981480">
        <ele>2298.600</ele>
        <time>2020-01-21T00:25:42Z</time>
      </trkpt>
      <trkpt lat="17.035102740" lon="-96.470938310">
        <ele>2297.900</ele>
        <time>2020-01-21T00:25:43Z</time>
      </trkpt>
      <trkpt lat="17.035087870" lon="-96.470903320">
        <ele>2297.300</ele>
        <time>2020-01-21T00:25:44Z</time>
      </trkpt>
      <trkpt lat="17.035046260" lon="-96.470863920">
        <ele>2296.700</ele>
        <time>2020-01-21T00:25:45Z</time>
      </trkpt>
      <trkpt lat="17.034997510" lon="-96.470824910">
        <ele>2297.000</ele>
        <time>2020-01-21T00:25:46Z</time>
      </trkpt>
      <trkpt lat="17.034952260" lon="-96.470799430">
        <ele>2296.900</ele>
        <time>2020-01-21T00:25:47Z</time>
      </trkpt>
      <trkpt lat="17.034900420" lon="-96.470784050">
        <ele>2296.100</ele>
        <time>2020-01-21T00:25:48Z</time>
      </trkpt>
      <trkpt lat="17.034844060" lon="-96.470788100">
        <ele>2295.300</ele>
        <time>2020-01-21T00:25:49Z</time>
      </trkpt>
      <trkpt lat="17.034783170" lon="-96.470813730">
        <ele>2293.100</ele>
        <time>2020-01-21T00:25:50Z</time>
      </trkpt>
      <trkpt lat="17.034729180" lon="-96.470857260">
        <ele>2291.700</ele>
        <time>2020-01-21T00:25:51Z</time>
      </trkpt>
      <trkpt lat="17.034687710" lon="-96.470916500">
        <ele>2290.700</ele>
        <time>2020-01-21T00:25:52Z</time>
      </trkpt>
      <trkpt lat="17.034660170" lon="-96.470988200">
        <ele>2289.700</ele>
        <time>2020-01-21T00:25:53Z</time>
      </trkpt>
      <trkpt lat="17.034644760" lon="-96.471067900">
        <ele>2289.000</ele>
        <time>2020-01-21T00:25:54Z</time>
      </trkpt>
      <trkpt lat="17.034641260" lon="-96.471147820">
        <ele>2288.400</ele>
        <time>2020-01-21T00:25:55Z</time>
      </trkpt>
      <trkpt lat="17.034638630" lon="-96.471233850">
        <ele>2287.500</ele>
        <time>2020-01-21T00:25:56Z</time>
      </trkpt>
      <trkpt lat="17.034636230" lon="-96.471320470">
        <ele>2287.200</ele>
        <time>2020-01-21T00:25:57Z</time>
      </trkpt>
      <trkpt lat="17.034641460" lon="-96.471403910">
        <ele>2286.500</ele>
        <time>2020-01-21T00:25:58Z</time>
      </trkpt>
      <trkpt lat="17.034634700" lon="-96.471493650">
        <ele>2285.900</ele>
        <time>2020-01-21T00:25:59Z</time>
      </trkpt>
      <trkpt lat="17.034621750" lon="-96.471586340">
        <ele>2285.300</ele>
        <time>2020-01-21T00:26:00Z</time>
      </trkpt>
      <trkpt lat="17.034609670" lon="-96.471665600">
        <ele>2284.400</ele>
        <time>2020-01-21T00:26:01Z</time>
      </trkpt>
      <trkpt lat="17.034571260" lon="-96.471755880">
        <ele>2283.000</ele>
        <time>2020-01-21T00:26:02Z</time>
      </trkpt>
      <trkpt lat="17.034522560" lon="-96.471832700">
        <ele>2281.800</ele>
        <time>2020-01-21T00:26:03Z</time>
      </trkpt>
      <trkpt lat="17.034467670" lon="-96.471901450">
        <ele>2281.700</ele>
        <time>2020-01-21T00:26:04Z</time>
      </trkpt>
      <trkpt lat="17.034401100" lon="-96.471962180">
        <ele>2281.100</ele>
        <time>2020-01-21T00:26:05Z</time>
      </trkpt>
      <trkpt lat="17.034338080" lon="-96.472007090">
        <ele>2279.500</ele>
        <time>2020-01-21T00:26:06Z</time>
      </trkpt>
      <trkpt lat="17.034264700" lon="-96.472052620">
        <ele>2278.900</ele>
        <time>2020-01-21T00:26:07Z</time>
      </trkpt>
      <trkpt lat="17.034192140" lon="-96.472098210">
        <ele>2277.800</ele>
        <time>2020-01-21T00:26:08Z</time>
      </trkpt>
      <trkpt lat="17.034117250" lon="-96.472144760">
        <ele>2277.100</ele>
        <time>2020-01-21T00:26:09Z</time>
      </trkpt>
      <trkpt lat="17.034038730" lon="-96.472187800">
        <ele>2276.400</ele>
        <time>2020-01-21T00:26:10Z</time>
      </trkpt>
      <trkpt lat="17.033961010" lon="-96.472226700">
        <ele>2276.900</ele>
        <time>2020-01-21T00:26:11Z</time>
      </trkpt>
      <trkpt lat="17.033884310" lon="-96.472261460">
        <ele>2276.300</ele>
        <time>2020-01-21T00:26:12Z</time>
      </trkpt>
      <trkpt lat="17.033804590" lon="-96.472282630">
        <ele>2276.000</ele>
        <time>2020-01-21T00:26:13Z</time>
      </trkpt>
      <trkpt lat="17.033721380" lon="-96.472294630">
        <ele>2275.400</ele>
        <time>2020-01-21T00:26:14Z</time>
      </trkpt>
      <trkpt lat="17.033636530" lon="-96.472290140">
        <ele>2274.900</ele>
        <time>2020-01-21T00:26:15Z</time>
      </trkpt>
      <trkpt lat="17.033546930" lon="-96.472290230">
        <ele>2274.300</ele>
        <time>2020-01-21T00:26:16Z</time>
      </trkpt>
      <trkpt lat="17.033459420" lon="-96.472289920">
        <ele>2273.600</ele>
        <time>2020-01-21T00:26:17Z</time>
      </trkpt>
      <trkpt lat="17.033374250" lon="-96.472284750">
        <ele>2273.000</ele>
        <time>2020-01-21T00:26:18Z</time>
      </trkpt>
      <trkpt lat="17.033289870" lon="-96.472279830">
        <ele>2272.200</ele>
        <time>2020-01-21T00:26:19Z</time>
      </trkpt>
      <trkpt lat="17.033203910" lon="-96.472270390">
        <ele>2271.500</ele>
        <time>2020-01-21T00:26:20Z</time>
      </trkpt>
      <trkpt lat="17.033117280" lon="-96.472261340">
        <ele>2271.000</ele>
        <time>2020-01-21T00:26:21Z</time>
      </trkpt>
      <trkpt lat="17.033031510" lon="-96.472256590">
        <ele>2270.500</ele>
        <time>2020-01-21T00:26:22Z</time>
      </trkpt>
      <trkpt lat="17.032945530" lon="-96.472251850">
        <ele>2269.400</ele>
        <time>2020-01-21T00:26:23Z</time>
      </trkpt>
      <trkpt lat="17.032852940" lon="-96.472242650">
        <ele>2269.200</ele>
        <time>2020-01-21T00:26:24Z</time>
      </trkpt>
      <trkpt lat="17.032764270" lon="-96.472232980">
        <ele>2268.500</ele>
        <time>2020-01-21T00:26:25Z</time>
      </trkpt>
      <trkpt lat="17.032675620" lon="-96.472226890">
        <ele>2267.700</ele>
        <time>2020-01-21T00:26:26Z</time>
      </trkpt>
      <trkpt lat="17.032584500" lon="-96.472215610">
        <ele>2267.600</ele>
        <time>2020-01-21T00:26:27Z</time>
      </trkpt>
      <trkpt lat="17.032498350" lon="-96.472204340">
        <ele>2266.900</ele>
        <time>2020-01-21T00:26:28Z</time>
      </trkpt>
      <trkpt lat="17.032423960" lon="-96.472197290">
        <ele>2265.300</ele>
        <time>2020-01-21T00:26:29Z</time>
      </trkpt>
      <trkpt lat="17.032341890" lon="-96.472185830">
        <ele>2264.200</ele>
        <time>2020-01-21T00:26:30Z</time>
      </trkpt>
      <trkpt lat="17.032265180" lon="-96.472176330">
        <ele>2263.400</ele>
        <time>2020-01-21T00:26:31Z</time>
      </trkpt>
      <trkpt lat="17.032189580" lon="-96.472161420">
        <ele>2262.700</ele>
        <time>2020-01-21T00:26:32Z</time>
      </trkpt>
      <trkpt lat="17.032106180" lon="-96.472135380">
        <ele>2261.800</ele>
        <time>2020-01-21T00:26:33Z</time>
      </trkpt>
      <trkpt lat="17.032020790" lon="-96.472101840">
        <ele>2260.700</ele>
        <time>2020-01-21T00:26:34Z</time>
      </trkpt>
      <trkpt lat="17.031939600" lon="-96.472060150">
        <ele>2259.500</ele>
        <time>2020-01-21T00:26:35Z</time>
      </trkpt>
      <trkpt lat="17.031854000" lon="-96.472010300">
        <ele>2258.600</ele>
        <time>2020-01-21T00:26:36Z</time>
      </trkpt>
      <trkpt lat="17.031763490" lon="-96.471962070">
        <ele>2257.500</ele>
        <time>2020-01-21T00:26:37Z</time>
      </trkpt>
      <trkpt lat="17.031675140" lon="-96.471909480">
        <ele>2256.400</ele>
        <time>2020-01-21T00:26:38Z</time>
      </trkpt>
      <trkpt lat="17.031589950" lon="-96.471857970">
        <ele>2255.500</ele>
        <time>2020-01-21T00:26:39Z</time>
      </trkpt>
      <trkpt lat="17.031506180" lon="-96.471804780">
        <ele>2254.700</ele>
        <time>2020-01-21T00:26:40Z</time>
      </trkpt>
      <trkpt lat="17.031415320" lon="-96.471751610">
        <ele>2253.900</ele>
        <time>2020-01-21T00:26:41Z</time>
      </trkpt>
      <trkpt lat="17.031328440" lon="-96.471700440">
        <ele>2252.900</ele>
        <time>2020-01-21T00:26:42Z</time>
      </trkpt>
      <trkpt lat="17.031236780" lon="-96.471655220">
        <ele>2251.700</ele>
        <time>2020-01-21T00:26:43Z</time>
      </trkpt>
      <trkpt lat="17.031142750" lon="-96.471610790">
        <ele>2250.700</ele>
        <time>2020-01-21T00:26:44Z</time>
      </trkpt>
      <trkpt lat="17.031046790" lon="-96.471570250">
        <ele>2249.300</ele>
        <time>2020-01-21T00:26:45Z</time>
      </trkpt>
      <trkpt lat="17.030944160" lon="-96.471538480">
        <ele>2248.000</ele>
        <time>2020-01-21T00:26:46Z</time>
      </trkpt>
      <trkpt lat="17.030838960" lon="-96.471519050">
        <ele>2246.700</ele>
        <time>2020-01-21T00:26:47Z</time>
      </trkpt>
      <trkpt lat="17.030734370" lon="-96.471511630">
        <ele>2245.800</ele>
        <time>2020-01-21T00:26:48Z</time>
      </trkpt>
      <trkpt lat="17.030629900" lon="-96.471503250">
        <ele>2244.600</ele>
        <time>2020-01-21T00:26:49Z</time>
      </trkpt>
      <trkpt lat="17.030519140" lon="-96.471488180">
        <ele>2243.900</ele>
        <time>2020-01-21T00:26:50Z</time>
      </trkpt>
      <trkpt lat="17.030415300" lon="-96.471480040">
        <ele>2242.800</ele>
        <time>2020-01-21T00:26:51Z</time>
      </trkpt>
      <trkpt lat="17.030305950" lon="-96.471470490">
        <ele>2241.600</ele>
        <time>2020-01-21T00:26:52Z</time>
      </trkpt>
      <trkpt lat="17.030200410" lon="-96.471460010">
        <ele>2240.600</ele>
        <time>2020-01-21T00:26:53Z</time>
      </trkpt>
      <trkpt lat="17.030094370" lon="-96.471448340">
        <ele>2239.700</ele>
        <time>2020-01-21T00:26:54Z</time>
      </trkpt>
      <trkpt lat="17.029987360" lon="-96.471438050">
        <ele>2238.700</ele>
        <time>2020-01-21T00:26:55Z</time>
      </trkpt>
      <trkpt lat="17.029883350" lon="-96.471423430">
        <ele>2237.300</ele>
        <time>2020-01-21T00:26:56Z</time>
      </trkpt>
      <trkpt lat="17.029773840" lon="-96.471402240">
        <ele>2236.300</ele>
        <time>2020-01-21T00:26:57Z</time>
      </trkpt>
      <trkpt lat="17.029666230" lon="-96.471376850">
        <ele>2235.300</ele>
        <time>2020-01-21T00:26:58Z</time>
      </trkpt>
      <trkpt lat="17.029559670" lon="-96.471346650">
        <ele>2234.500</ele>
        <time>2020-01-21T00:26:59Z</time>
      </trkpt>
      <trkpt lat="17.029456890" lon="-96.471313720">
        <ele>2233.500</ele>
        <time>2020-01-21T00:27:00Z</time>
      </trkpt>
      <trkpt lat="17.029358120" lon="-96.471275120">
        <ele>2232.300</ele>
        <time>2020-01-21T00:27:01Z</time>
      </trkpt>
      <trkpt lat="17.029255710" lon="-96.471238010">
        <ele>2231.200</ele>
        <time>2020-01-21T00:27:02Z</time>
      </trkpt>
      <trkpt lat="17.029161970" lon="-96.471198950">
        <ele>2230.300</ele>
        <time>2020-01-21T00:27:03Z</time>
      </trkpt>
      <trkpt lat="17.029063820" lon="-96.471162140">
        <ele>2229.900</ele>
        <time>2020-01-21T00:27:04Z</time>
      </trkpt>
      <trkpt lat="17.028969400" lon="-96.471127720">
        <ele>2229.300</ele>
        <time>2020-01-21T00:27:05Z</time>
      </trkpt>
      <trkpt lat="17.028873730" lon="-96.471090710">
        <ele>2228.400</ele>
        <time>2020-01-21T00:27:06Z</time>
      </trkpt>
      <trkpt lat="17.028777590" lon="-96.471057720">
        <ele>2227.700</ele>
        <time>2020-01-21T00:27:07Z</time>
      </trkpt>
      <trkpt lat="17.028692530" lon="-96.471029840">
        <ele>2227.100</ele>
        <time>2020-01-21T00:27:08Z</time>
      </trkpt>
      <trkpt lat="17.028591570" lon="-96.471019940">
        <ele>2226.400</ele>
        <time>2020-01-21T00:27:09Z</time>
      </trkpt>
      <trkpt lat="17.028492490" lon="-96.471017390">
        <ele>2225.800</ele>
        <time>2020-01-21T00:27:10Z</time>
      </trkpt>
      <trkpt lat="17.028395830" lon="-96.471033970">
        <ele>2224.700</ele>
        <time>2020-01-21T00:27:11Z</time>
      </trkpt>
      <trkpt lat="17.028301680" lon="-96.471060620">
        <ele>2223.700</ele>
        <time>2020-01-21T00:27:12Z</time>
      </trkpt>
      <trkpt lat="17.028202730" lon="-96.471088770">
        <ele>2222.200</ele>
        <time>2020-01-21T00:27:13Z</time>
      </trkpt>
      <trkpt lat="17.028106570" lon="-96.471119490">
        <ele>2221.400</ele>
        <time>2020-01-21T00:27:14Z</time>
      </trkpt>
      <trkpt lat="17.028009810" lon="-96.471151410">
        <ele>2220.100</ele>
        <time>2020-01-21T00:27:15Z</time>
      </trkpt>
      <trkpt lat="17.027909620" lon="-96.471176710">
        <ele>2219.200</ele>
        <time>2020-01-21T00:27:16Z</time>
      </trkpt>
      <trkpt lat="17.027807460" lon="-96.471196150">
        <ele>2218.800</ele>
        <time>2020-01-21T00:27:17Z</time>
      </trkpt>
      <trkpt lat="17.027707860" lon="-96.471215910">
        <ele>2217.800</ele>
        <time>2020-01-21T00:27:18Z</time>
      </trkpt>
      <trkpt lat="17.027594310" lon="-96.471231400">
        <ele>2216.800</ele>
        <time>2020-01-21T00:27:19Z</time>
      </trkpt>
      <trkpt lat="17.027485750" lon="-96.471251470">
        <ele>2216.000</ele>
        <time>2020-01-21T00:27:20Z</time>
      </trkpt>
      <trkpt lat="17.027376950" lon="-96.471272840">
        <ele>2215.000</ele>
        <time>2020-01-21T00:27:21Z</time>
      </trkpt>
      <trkpt lat="17.027269610" lon="-96.471296230">
        <ele>2214.000</ele>
        <time>2020-01-21T00:27:22Z</time>
      </trkpt>
      <trkpt lat="17.027157690" lon="-96.471315900">
        <ele>2213.400</ele>
        <time>2020-01-21T00:27:23Z</time>
      </trkpt>
      <trkpt lat="17.027045380" lon="-96.471333170">
        <ele>2212.400</ele>
        <time>2020-01-21T00:27:24Z</time>
      </trkpt>
      <trkpt lat="17.026932780" lon="-96.471345760">
        <ele>2210.800</ele>
        <time>2020-01-21T00:27:25Z</time>
      </trkpt>
      <trkpt lat="17.026820190" lon="-96.471360110">
        <ele>2210.600</ele>
        <time>2020-01-21T00:27:26Z</time>
      </trkpt>
      <trkpt lat="17.026706900" lon="-96.471369890">
        <ele>2209.400</ele>
        <time>2020-01-21T00:27:27Z</time>
      </trkpt>
      <trkpt lat="17.026601640" lon="-96.471378580">
        <ele>2208.500</ele>
        <time>2020-01-21T00:27:28Z</time>
      </trkpt>
      <trkpt lat="17.026494310" lon="-96.471386160">
        <ele>2207.300</ele>
        <time>2020-01-21T00:27:29Z</time>
      </trkpt>
      <trkpt lat="17.026385750" lon="-96.471393640">
        <ele>2206.400</ele>
        <time>2020-01-21T00:27:30Z</time>
      </trkpt>
      <trkpt lat="17.026278970" lon="-96.471388870">
        <ele>2205.700</ele>
        <time>2020-01-21T00:27:31Z</time>
      </trkpt>
      <trkpt lat="17.026176470" lon="-96.471372910">
        <ele>2205.100</ele>
        <time>2020-01-21T00:27:32Z</time>
      </trkpt>
      <trkpt lat="17.026077660" lon="-96.471334210">
        <ele>2204.400</ele>
        <time>2020-01-21T00:27:33Z</time>
      </trkpt>
      <trkpt lat="17.025986620" lon="-96.471276680">
        <ele>2204.300</ele>
        <time>2020-01-21T00:27:34Z</time>
      </trkpt>
      <trkpt lat="17.025919010" lon="-96.471208690">
        <ele>2203.700</ele>
        <time>2020-01-21T00:27:35Z</time>
      </trkpt>
      <trkpt lat="17.025837350" lon="-96.471129310">
        <ele>2203.400</ele>
        <time>2020-01-21T00:27:36Z</time>
      </trkpt>
      <trkpt lat="17.025757230" lon="-96.471057180">
        <ele>2202.700</ele>
        <time>2020-01-21T00:27:37Z</time>
      </trkpt>
      <trkpt lat="17.025676780" lon="-96.470987650">
        <ele>2202.600</ele>
        <time>2020-01-21T00:27:38Z</time>
      </trkpt>
      <trkpt lat="17.025601720" lon="-96.470919970">
        <ele>2202.100</ele>
        <time>2020-01-21T00:27:39Z</time>
      </trkpt>
      <trkpt lat="17.025525150" lon="-96.470835860">
        <ele>2201.300</ele>
        <time>2020-01-21T00:27:40Z</time>
      </trkpt>
      <trkpt lat="17.025446870" lon="-96.470760170">
        <ele>2200.800</ele>
        <time>2020-01-21T00:27:41Z</time>
      </trkpt>
      <trkpt lat="17.025375200" lon="-96.470681340">
        <ele>2200.100</ele>
        <time>2020-01-21T00:27:42Z</time>
      </trkpt>
      <trkpt lat="17.025302070" lon="-96.470614520">
        <ele>2199.200</ele>
        <time>2020-01-21T00:27:43Z</time>
      </trkpt>
      <trkpt lat="17.025229420" lon="-96.470545440">
        <ele>2198.300</ele>
        <time>2020-01-21T00:27:44Z</time>
      </trkpt>
      <trkpt lat="17.025145420" lon="-96.470477010">
        <ele>2196.900</ele>
        <time>2020-01-21T00:27:45Z</time>
      </trkpt>
      <trkpt lat="17.025062350" lon="-96.470414050">
        <ele>2195.400</ele>
        <time>2020-01-21T00:27:46Z</time>
      </trkpt>
      <trkpt lat="17.024971930" lon="-96.470358090">
        <ele>2194.100</ele>
        <time>2020-01-21T00:27:47Z</time>
      </trkpt>
      <trkpt lat="17.024871470" lon="-96.470312420">
        <ele>2192.500</ele>
        <time>2020-01-21T00:27:48Z</time>
      </trkpt>
      <trkpt lat="17.024765510" lon="-96.470280170">
        <ele>2190.800</ele>
        <time>2020-01-21T00:27:49Z</time>
      </trkpt>
      <trkpt lat="17.024653910" lon="-96.470263060">
        <ele>2190.100</ele>
        <time>2020-01-21T00:27:50Z</time>
      </trkpt>
      <trkpt lat="17.024547390" lon="-96.470262640">
        <ele>2189.100</ele>
        <time>2020-01-21T00:27:51Z</time>
      </trkpt>
      <trkpt lat="17.024433820" lon="-96.470276670">
        <ele>2187.600</ele>
        <time>2020-01-21T00:27:52Z</time>
      </trkpt>
      <trkpt lat="17.024320350" lon="-96.470307490">
        <ele>2186.600</ele>
        <time>2020-01-21T00:27:53Z</time>
      </trkpt>
      <trkpt lat="17.024216490" lon="-96.470353500">
        <ele>2184.800</ele>
        <time>2020-01-21T00:27:54Z</time>
      </trkpt>
      <trkpt lat="17.024116000" lon="-96.470414640">
        <ele>2183.700</ele>
        <time>2020-01-21T00:27:55Z</time>
      </trkpt>
      <trkpt lat="17.024020150" lon="-96.470487700">
        <ele>2182.600</ele>
        <time>2020-01-21T00:27:56Z</time>
      </trkpt>
      <trkpt lat="17.023927920" lon="-96.470565330">
        <ele>2181.400</ele>
        <time>2020-01-21T00:27:57Z</time>
      </trkpt>
      <trkpt lat="17.023836890" lon="-96.470644610">
        <ele>2180.300</ele>
        <time>2020-01-21T00:27:58Z</time>
      </trkpt>
      <trkpt lat="17.023748590" lon="-96.470726660">
        <ele>2179.200</ele>
        <time>2020-01-21T00:27:59Z</time>
      </trkpt>
      <trkpt lat="17.023669790" lon="-96.470816350">
        <ele>2178.100</ele>
        <time>2020-01-21T00:28:00Z</time>
      </trkpt>
      <trkpt lat="17.023592240" lon="-96.470915280">
        <ele>2177.200</ele>
        <time>2020-01-21T00:28:01Z</time>
      </trkpt>
      <trkpt lat="17.023519600" lon="-96.471020580">
        <ele>2176.000</ele>
        <time>2020-01-21T00:28:02Z</time>
      </trkpt>
      <trkpt lat="17.023462400" lon="-96.471128320">
        <ele>2175.000</ele>
        <time>2020-01-21T00:28:03Z</time>
      </trkpt>
      <trkpt lat="17.023405680" lon="-96.471239810">
        <ele>2173.700</ele>
        <time>2020-01-21T00:28:04Z</time>
      </trkpt>
      <trkpt lat="17.023353560" lon="-96.471349810">
        <ele>2172.900</ele>
        <time>2020-01-21T00:28:05Z</time>
      </trkpt>
      <trkpt lat="17.023302400" lon="-96.471453210">
        <ele>2149.900</ele>
        <time>2020-01-21T00:28:06Z</time>
      </trkpt>
      <trkpt lat="17.023254060" lon="-96.471551590">
        <ele>2156.400</ele>
        <time>2020-01-21T00:28:07Z</time>
      </trkpt>
      <trkpt lat="17.023208460" lon="-96.471658540">
        <ele>2084.100</ele>
        <time>2020-01-21T00:28:08Z</time>
      </trkpt>
      <trkpt lat="17.023175800" lon="-96.471768370">
        <ele>2114.300</ele>
        <time>2020-01-21T00:28:09Z</time>
      </trkpt>
      <trkpt lat="17.023151210" lon="-96.471883740">
        <ele>2130.200</ele>
        <time>2020-01-21T00:28:10Z</time>
      </trkpt>
      <trkpt lat="17.023132610" lon="-96.471998200">
        <ele>2139.200</ele>
        <time>2020-01-21T00:28:11Z</time>
      </trkpt>
      <trkpt lat="17.023119480" lon="-96.472112550">
        <ele>2144.200</ele>
        <time>2020-01-21T00:28:12Z</time>
      </trkpt>
      <trkpt lat="17.023100200" lon="-96.472225170">
        <ele>2147.600</ele>
        <time>2020-01-21T00:28:13Z</time>
      </trkpt>
      <trkpt lat="17.023085420" lon="-96.472331800">
        <ele>2149.200</ele>
        <time>2020-01-21T00:28:14Z</time>
      </trkpt>
      <trkpt lat="17.023072520" lon="-96.472428670">
        <ele>2150.200</ele>
        <time>2020-01-21T00:28:15Z</time>
      </trkpt>
      <trkpt lat="17.023059720" lon="-96.472519920">
        <ele>2150.900</ele>
        <time>2020-01-21T00:28:16Z</time>
      </trkpt>
      <trkpt lat="17.023045910" lon="-96.472597320">
        <ele>2150.800</ele>
        <time>2020-01-21T00:28:17Z</time>
      </trkpt>
      <trkpt lat="17.023017820" lon="-96.472672630">
        <ele>2150.600</ele>
        <time>2020-01-21T00:28:18Z</time>
      </trkpt>
      <trkpt lat="17.022986760" lon="-96.472741270">
        <ele>2149.900</ele>
        <time>2020-01-21T00:28:19Z</time>
      </trkpt>
      <trkpt lat="17.022936930" lon="-96.472796660">
        <ele>2150.600</ele>
        <time>2020-01-21T00:28:20Z</time>
      </trkpt>
      <trkpt lat="17.022874480" lon="-96.472840850">
        <ele>2150.300</ele>
        <time>2020-01-21T00:28:21Z</time>
      </trkpt>
      <trkpt lat="17.022800340" lon="-96.472871890">
        <ele>2150.000</ele>
        <time>2020-01-21T00:28:22Z</time>
      </trkpt>
      <trkpt lat="17.022721810" lon="-96.472880930">
        <ele>2150.600</ele>
        <time>2020-01-21T00:28:23Z</time>
      </trkpt>
      <trkpt lat="17.022648780" lon="-96.472869140">
        <ele>2150.500</ele>
        <time>2020-01-21T00:28:24Z</time>
      </trkpt>
      <trkpt lat="17.022578050" lon="-96.472837410">
        <ele>2149.900</ele>
        <time>2020-01-21T00:28:25Z</time>
      </trkpt>
      <trkpt lat="17.022519900" lon="-96.472786740">
        <ele>2149.400</ele>
        <time>2020-01-21T00:28:26Z</time>
      </trkpt>
      <trkpt lat="17.022477000" lon="-96.472720330">
        <ele>2148.800</ele>
        <time>2020-01-21T00:28:27Z</time>
      </trkpt>
      <trkpt lat="17.022449560" lon="-96.472639120">
        <ele>2148.300</ele>
        <time>2020-01-21T00:28:28Z</time>
      </trkpt>
      <trkpt lat="17.022440760" lon="-96.472549490">
        <ele>2147.600</ele>
        <time>2020-01-21T00:28:29Z</time>
      </trkpt>
      <trkpt lat="17.022452050" lon="-96.472456410">
        <ele>2147.100</ele>
        <time>2020-01-21T00:28:30Z</time>
      </trkpt>
      <trkpt lat="17.022478420" lon="-96.472359430">
        <ele>2146.900</ele>
        <time>2020-01-21T00:28:31Z</time>
      </trkpt>
      <trkpt lat="17.022499300" lon="-96.472263980">
        <ele>2145.700</ele>
        <time>2020-01-21T00:28:32Z</time>
      </trkpt>
      <trkpt lat="17.022524760" lon="-96.472173410">
        <ele>2144.800</ele>
        <time>2020-01-21T00:28:33Z</time>
      </trkpt>
      <trkpt lat="17.022551720" lon="-96.472075510">
        <ele>2144.000</ele>
        <time>2020-01-21T00:28:34Z</time>
      </trkpt>
      <trkpt lat="17.022573030" lon="-96.471978070">
        <ele>2131.600</ele>
        <time>2020-01-21T00:28:35Z</time>
      </trkpt>
      <trkpt lat="17.022589760" lon="-96.471866030">
        <ele>2135.300</ele>
        <time>2020-01-21T00:28:36Z</time>
      </trkpt>
      <trkpt lat="17.022591180" lon="-96.471764110">
        <ele>2136.800</ele>
        <time>2020-01-21T00:28:37Z</time>
      </trkpt>
      <trkpt lat="17.022579450" lon="-96.471659030">
        <ele>2137.400</ele>
        <time>2020-01-21T00:28:38Z</time>
      </trkpt>
      <trkpt lat="17.022549230" lon="-96.471555220">
        <ele>2137.400</ele>
        <time>2020-01-21T00:28:39Z</time>
      </trkpt>
      <trkpt lat="17.022499530" lon="-96.471455640">
        <ele>2136.200</ele>
        <time>2020-01-21T00:28:40Z</time>
      </trkpt>
      <trkpt lat="17.022443510" lon="-96.471352580">
        <ele>2135.400</ele>
        <time>2020-01-21T00:28:41Z</time>
      </trkpt>
      <trkpt lat="17.022384830" lon="-96.471251130">
        <ele>2134.500</ele>
        <time>2020-01-21T00:28:42Z</time>
      </trkpt>
      <trkpt lat="17.022329100" lon="-96.471154690">
        <ele>2133.400</ele>
        <time>2020-01-21T00:28:43Z</time>
      </trkpt>
      <trkpt lat="17.022272440" lon="-96.471057550">
        <ele>2132.200</ele>
        <time>2020-01-21T00:28:44Z</time>
      </trkpt>
      <trkpt lat="17.022219290" lon="-96.470962740">
        <ele>2131.200</ele>
        <time>2020-01-21T00:28:45Z</time>
      </trkpt>
      <trkpt lat="17.022165680" lon="-96.470868190">
        <ele>2130.700</ele>
        <time>2020-01-21T00:28:46Z</time>
      </trkpt>
      <trkpt lat="17.022106450" lon="-96.470772540">
        <ele>2129.800</ele>
        <time>2020-01-21T00:28:47Z</time>
      </trkpt>
      <trkpt lat="17.022039810" lon="-96.470690490">
        <ele>2128.900</ele>
        <time>2020-01-21T00:28:48Z</time>
      </trkpt>
      <trkpt lat="17.021962600" lon="-96.470616830">
        <ele>2128.300</ele>
        <time>2020-01-21T00:28:49Z</time>
      </trkpt>
      <trkpt lat="17.021874170" lon="-96.470556090">
        <ele>2127.400</ele>
        <time>2020-01-21T00:28:50Z</time>
      </trkpt>
      <trkpt lat="17.021777920" lon="-96.470505270">
        <ele>2126.900</ele>
        <time>2020-01-21T00:28:51Z</time>
      </trkpt>
      <trkpt lat="17.021680540" lon="-96.470465460">
        <ele>2125.400</ele>
        <time>2020-01-21T00:28:52Z</time>
      </trkpt>
      <trkpt lat="17.021585680" lon="-96.470430370">
        <ele>2124.300</ele>
        <time>2020-01-21T00:28:53Z</time>
      </trkpt>
      <trkpt lat="17.021491060" lon="-96.470403560">
        <ele>2123.500</ele>
        <time>2020-01-21T00:28:54Z</time>
      </trkpt>
      <trkpt lat="17.021401160" lon="-96.470375930">
        <ele>2122.800</ele>
        <time>2020-01-21T00:28:55Z</time>
      </trkpt>
      <trkpt lat="17.021317080" lon="-96.470354260">
        <ele>2121.700</ele>
        <time>2020-01-21T00:28:56Z</time>
      </trkpt>
      <trkpt lat="17.021239310" lon="-96.470326220">
        <ele>2120.900</ele>
        <time>2020-01-21T00:28:57Z</time>
      </trkpt>
      <trkpt lat="17.021166790" lon="-96.470289170">
        <ele>2119.900</ele>
        <time>2020-01-21T00:28:58Z</time>
      </trkpt>
      <trkpt lat="17.021107740" lon="-96.470244320">
        <ele>2119.200</ele>
        <time>2020-01-21T00:28:59Z</time>
      </trkpt>
      <trkpt lat="17.021065690" lon="-96.470190260">
        <ele>2117.800</ele>
        <time>2020-01-21T00:29:00Z</time>
      </trkpt>
      <trkpt lat="17.021030420" lon="-96.470124060">
        <ele>2117.300</ele>
        <time>2020-01-21T00:29:01Z</time>
      </trkpt>
      <trkpt lat="17.021022230" lon="-96.470055360">
        <ele>2116.800</ele>
        <time>2020-01-21T00:29:02Z</time>
      </trkpt>
      <trkpt lat="17.021030620" lon="-96.469987020">
        <ele>2116.200</ele>
        <time>2020-01-21T00:29:03Z</time>
      </trkpt>
      <trkpt lat="17.021063170" lon="-96.469921280">
        <ele>2115.700</ele>
        <time>2020-01-21T00:29:04Z</time>
      </trkpt>
      <trkpt lat="17.021108830" lon="-96.469867240">
        <ele>2115.200</ele>
        <time>2020-01-21T00:29:05Z</time>
      </trkpt>
      <trkpt lat="17.021173780" lon="-96.469825390">
        <ele>2114.800</ele>
        <time>2020-01-21T00:29:06Z</time>
      </trkpt>
      <trkpt lat="17.021247290" lon="-96.469808840">
        <ele>2114.400</ele>
        <time>2020-01-21T00:29:07Z</time>
      </trkpt>
      <trkpt lat="17.021332050" lon="-96.469816050">
        <ele>2113.800</ele>
        <time>2020-01-21T00:29:08Z</time>
      </trkpt>
      <trkpt lat="17.021421590" lon="-96.469829190">
        <ele>2113.100</ele>
        <time>2020-01-21T00:29:09Z</time>
      </trkpt>
      <trkpt lat="17.021517990" lon="-96.469843310">
        <ele>2112.000</ele>
        <time>2020-01-21T00:29:10Z</time>
      </trkpt>
      <trkpt lat="17.021617000" lon="-96.469849290">
        <ele>2111.100</ele>
        <time>2020-01-21T00:29:11Z</time>
      </trkpt>
      <trkpt lat="17.021719010" lon="-96.469838130">
        <ele>2110.200</ele>
        <time>2020-01-21T00:29:12Z</time>
      </trkpt>
      <trkpt lat="17.021817770" lon="-96.469810640">
        <ele>2109.500</ele>
        <time>2020-01-21T00:29:13Z</time>
      </trkpt>
      <trkpt lat="17.021916260" lon="-96.469768300">
        <ele>2108.700</ele>
        <time>2020-01-21T00:29:14Z</time>
      </trkpt>
      <trkpt lat="17.022010410" lon="-96.469720200">
        <ele>2108.000</ele>
        <time>2020-01-21T00:29:15Z</time>
      </trkpt>
      <trkpt lat="17.022103660" lon="-96.469670180">
        <ele>2107.200</ele>
        <time>2020-01-21T00:29:16Z</time>
      </trkpt>
      <trkpt lat="17.022194940" lon="-96.469622750">
        <ele>2106.300</ele>
        <time>2020-01-21T00:29:17Z</time>
      </trkpt>
      <trkpt lat="17.022286480" lon="-96.469570960">
        <ele>2105.500</ele>
        <time>2020-01-21T00:29:18Z</time>
      </trkpt>
      <trkpt lat="17.022371870" lon="-96.469513440">
        <ele>2104.300</ele>
        <time>2020-01-21T00:29:19Z</time>
      </trkpt>
      <trkpt lat="17.022449320" lon="-96.469438780">
        <ele>2104.200</ele>
        <time>2020-01-21T00:29:20Z</time>
      </trkpt>
      <trkpt lat="17.022510990" lon="-96.469362100">
        <ele>2103.900</ele>
        <time>2020-01-21T00:29:21Z</time>
      </trkpt>
      <trkpt lat="17.022567360" lon="-96.469269340">
        <ele>2103.100</ele>
        <time>2020-01-21T00:29:22Z</time>
      </trkpt>
      <trkpt lat="17.022619830" lon="-96.469169130">
        <ele>2102.200</ele>
        <time>2020-01-21T00:29:23Z</time>
      </trkpt>
      <trkpt lat="17.022667900" lon="-96.469068790">
        <ele>2101.200</ele>
        <time>2020-01-21T00:29:24Z</time>
      </trkpt>
      <trkpt lat="17.022716220" lon="-96.468967040">
        <ele>2099.800</ele>
        <time>2020-01-21T00:29:25Z</time>
      </trkpt>
      <trkpt lat="17.022761390" lon="-96.468865410">
        <ele>2098.500</ele>
        <time>2020-01-21T00:29:26Z</time>
      </trkpt>
      <trkpt lat="17.022801680" lon="-96.468760960">
        <ele>2097.700</ele>
        <time>2020-01-21T00:29:27Z</time>
      </trkpt>
      <trkpt lat="17.022845560" lon="-96.468655950">
        <ele>2096.400</ele>
        <time>2020-01-21T00:29:28Z</time>
      </trkpt>
      <trkpt lat="17.022885780" lon="-96.468544100">
        <ele>2095.600</ele>
        <time>2020-01-21T00:29:29Z</time>
      </trkpt>
      <trkpt lat="17.022918290" lon="-96.468434360">
        <ele>2095.300</ele>
        <time>2020-01-21T00:29:30Z</time>
      </trkpt>
      <trkpt lat="17.022937190" lon="-96.468324200">
        <ele>2094.800</ele>
        <time>2020-01-21T00:29:31Z</time>
      </trkpt>
      <trkpt lat="17.022935160" lon="-96.468212150">
        <ele>2094.200</ele>
        <time>2020-01-21T00:29:32Z</time>
      </trkpt>
      <trkpt lat="17.022909670" lon="-96.468101870">
        <ele>2093.700</ele>
        <time>2020-01-21T00:29:33Z</time>
      </trkpt>
      <trkpt lat="17.022865740" lon="-96.467994960">
        <ele>2093.400</ele>
        <time>2020-01-21T00:29:34Z</time>
      </trkpt>
      <trkpt lat="17.022808090" lon="-96.467891190">
        <ele>2093.000</ele>
        <time>2020-01-21T00:29:35Z</time>
      </trkpt>
      <trkpt lat="17.022750740" lon="-96.467778450">
        <ele>2093.200</ele>
        <time>2020-01-21T00:29:36Z</time>
      </trkpt>
      <trkpt lat="17.022688730" lon="-96.467669240">
        <ele>2092.400</ele>
        <time>2020-01-21T00:29:37Z</time>
      </trkpt>
      <trkpt lat="17.022627680" lon="-96.467556460">
        <ele>2092.100</ele>
        <time>2020-01-21T00:29:38Z</time>
      </trkpt>
      <trkpt lat="17.022569770" lon="-96.467445870">
        <ele>2091.800</ele>
        <time>2020-01-21T00:29:39Z</time>
      </trkpt>
      <trkpt lat="17.022515950" lon="-96.467335620">
        <ele>2091.700</ele>
        <time>2020-01-21T00:29:40Z</time>
      </trkpt>
      <trkpt lat="17.022466520" lon="-96.467230240">
        <ele>2091.600</ele>
        <time>2020-01-21T00:29:41Z</time>
      </trkpt>
      <trkpt lat="17.022420400" lon="-96.467126370">
        <ele>2091.300</ele>
        <time>2020-01-21T00:29:42Z</time>
      </trkpt>
      <trkpt lat="17.022376670" lon="-96.467028440">
        <ele>2090.100</ele>
        <time>2020-01-21T00:29:43Z</time>
      </trkpt>
      <trkpt lat="17.022328630" lon="-96.466936210">
        <ele>2089.200</ele>
        <time>2020-01-21T00:29:44Z</time>
      </trkpt>
      <trkpt lat="17.022278560" lon="-96.466831490">
        <ele>2088.400</ele>
        <time>2020-01-21T00:29:45Z</time>
      </trkpt>
      <trkpt lat="17.022237170" lon="-96.466726800">
        <ele>2087.400</ele>
        <time>2020-01-21T00:29:46Z</time>
      </trkpt>
      <trkpt lat="17.022195780" lon="-96.466628050">
        <ele>2086.300</ele>
        <time>2020-01-21T00:29:47Z</time>
      </trkpt>
      <trkpt lat="17.022149640" lon="-96.466529980">
        <ele>2085.200</ele>
        <time>2020-01-21T00:29:48Z</time>
      </trkpt>
      <trkpt lat="17.022099330" lon="-96.466436990">
        <ele>2084.000</ele>
        <time>2020-01-21T00:29:49Z</time>
      </trkpt>
      <trkpt lat="17.022031900" lon="-96.466335450">
        <ele>2083.300</ele>
        <time>2020-01-21T00:29:50Z</time>
      </trkpt>
      <trkpt lat="17.021954130" lon="-96.466236950">
        <ele>2081.600</ele>
        <time>2020-01-21T00:29:51Z</time>
      </trkpt>
      <trkpt lat="17.021870500" lon="-96.466155480">
        <ele>2080.200</ele>
        <time>2020-01-21T00:29:52Z</time>
      </trkpt>
      <trkpt lat="17.021782620" lon="-96.466071640">
        <ele>2078.800</ele>
        <time>2020-01-21T00:29:53Z</time>
      </trkpt>
      <trkpt lat="17.021689480" lon="-96.465996060">
        <ele>2077.000</ele>
        <time>2020-01-21T00:29:54Z</time>
      </trkpt>
      <trkpt lat="17.021583560" lon="-96.465927820">
        <ele>2075.300</ele>
        <time>2020-01-21T00:29:55Z</time>
      </trkpt>
      <trkpt lat="17.021477690" lon="-96.465875510">
        <ele>2074.300</ele>
        <time>2020-01-21T00:29:56Z</time>
      </trkpt>
      <trkpt lat="17.021366680" lon="-96.465831090">
        <ele>2073.200</ele>
        <time>2020-01-21T00:29:57Z</time>
      </trkpt>
      <trkpt lat="17.021256420" lon="-96.465794610">
        <ele>2072.100</ele>
        <time>2020-01-21T00:29:58Z</time>
      </trkpt>
      <trkpt lat="17.021145110" lon="-96.465760650">
        <ele>2070.700</ele>
        <time>2020-01-21T00:29:59Z</time>
      </trkpt>
      <trkpt lat="17.021036710" lon="-96.465724120">
        <ele>2069.300</ele>
        <time>2020-01-21T00:30:00Z</time>
      </trkpt>
      <trkpt lat="17.020930580" lon="-96.465689430">
        <ele>2067.600</ele>
        <time>2020-01-21T00:30:01Z</time>
      </trkpt>
      <trkpt lat="17.020823590" lon="-96.465655340">
        <ele>2066.400</ele>
        <time>2020-01-21T00:30:02Z</time>
      </trkpt>
      <trkpt lat="17.020716210" lon="-96.465620920">
        <ele>2065.100</ele>
        <time>2020-01-21T00:30:03Z</time>
      </trkpt>
      <trkpt lat="17.020609060" lon="-96.465586130">
        <ele>2063.800</ele>
        <time>2020-01-21T00:30:04Z</time>
      </trkpt>
      <trkpt lat="17.020501160" lon="-96.465550970">
        <ele>2062.600</ele>
        <time>2020-01-21T00:30:05Z</time>
      </trkpt>
      <trkpt lat="17.020392990" lon="-96.465520750">
        <ele>2061.600</ele>
        <time>2020-01-21T00:30:06Z</time>
      </trkpt>
      <trkpt lat="17.020280550" lon="-96.465483710">
        <ele>2060.600</ele>
        <time>2020-01-21T00:30:07Z</time>
      </trkpt>
      <trkpt lat="17.020167860" lon="-96.465445370">
        <ele>2059.200</ele>
        <time>2020-01-21T00:30:08Z</time>
      </trkpt>
      <trkpt lat="17.020061070" lon="-96.465402250">
        <ele>2058.200</ele>
        <time>2020-01-21T00:30:09Z</time>
      </trkpt>
      <trkpt lat="17.019952160" lon="-96.465365200">
        <ele>2056.900</ele>
        <time>2020-01-21T00:30:10Z</time>
      </trkpt>
      <trkpt lat="17.019842100" lon="-96.465328760">
        <ele>2055.500</ele>
        <time>2020-01-21T00:30:11Z</time>
      </trkpt>
      <trkpt lat="17.019721850" lon="-96.465297740">
        <ele>2054.200</ele>
        <time>2020-01-21T00:30:12Z</time>
      </trkpt>
      <trkpt lat="17.019611500" lon="-96.465260120">
        <ele>2053.100</ele>
        <time>2020-01-21T00:30:13Z</time>
      </trkpt>
      <trkpt lat="17.019495820" lon="-96.465227200">
        <ele>2051.700</ele>
        <time>2020-01-21T00:30:14Z</time>
      </trkpt>
      <trkpt lat="17.019378220" lon="-96.465192810">
        <ele>2050.500</ele>
        <time>2020-01-21T00:30:15Z</time>
      </trkpt>
      <trkpt lat="17.019263820" lon="-96.465154450">
        <ele>2049.300</ele>
        <time>2020-01-21T00:30:16Z</time>
      </trkpt>
      <trkpt lat="17.019149420" lon="-96.465114590">
        <ele>2047.900</ele>
        <time>2020-01-21T00:30:17Z</time>
      </trkpt>
      <trkpt lat="17.019034530" lon="-96.465076960">
        <ele>2047.000</ele>
        <time>2020-01-21T00:30:18Z</time>
      </trkpt>
      <trkpt lat="17.018920490" lon="-96.465038340">
        <ele>2045.900</ele>
        <time>2020-01-21T00:30:19Z</time>
      </trkpt>
      <trkpt lat="17.018807190" lon="-96.464998540">
        <ele>2044.800</ele>
        <time>2020-01-21T00:30:20Z</time>
      </trkpt>
      <trkpt lat="17.018694690" lon="-96.464957770">
        <ele>2043.600</ele>
        <time>2020-01-21T00:30:21Z</time>
      </trkpt>
      <trkpt lat="17.018589180" lon="-96.464907400">
        <ele>2042.400</ele>
        <time>2020-01-21T00:30:22Z</time>
      </trkpt>
      <trkpt lat="17.018480210" lon="-96.464857270">
        <ele>2041.100</ele>
        <time>2020-01-21T00:30:23Z</time>
      </trkpt>
      <trkpt lat="17.018375420" lon="-96.464808850">
        <ele>2039.200</ele>
        <time>2020-01-21T00:30:24Z</time>
      </trkpt>
      <trkpt lat="17.018268520" lon="-96.464752110">
        <ele>2038.400</ele>
        <time>2020-01-21T00:30:25Z</time>
      </trkpt>
      <trkpt lat="17.018163460" lon="-96.464691750">
        <ele>2037.000</ele>
        <time>2020-01-21T00:30:26Z</time>
      </trkpt>
      <trkpt lat="17.018057550" lon="-96.464634120">
        <ele>2036.000</ele>
        <time>2020-01-21T00:30:27Z</time>
      </trkpt>
      <trkpt lat="17.017958920" lon="-96.464573370">
        <ele>2034.500</ele>
        <time>2020-01-21T00:30:28Z</time>
      </trkpt>
      <trkpt lat="17.017865630" lon="-96.464516190">
        <ele>2033.600</ele>
        <time>2020-01-21T00:30:29Z</time>
      </trkpt>
      <trkpt lat="17.017779070" lon="-96.464464690">
        <ele>2032.100</ele>
        <time>2020-01-21T00:30:30Z</time>
      </trkpt>
      <trkpt lat="17.017687740" lon="-96.464417140">
        <ele>2031.100</ele>
        <time>2020-01-21T00:30:31Z</time>
      </trkpt>
      <trkpt lat="17.017601440" lon="-96.464372710">
        <ele>2030.500</ele>
        <time>2020-01-21T00:30:32Z</time>
      </trkpt>
      <trkpt lat="17.017509500" lon="-96.464337690">
        <ele>2029.000</ele>
        <time>2020-01-21T00:30:33Z</time>
      </trkpt>
      <trkpt lat="17.017421460" lon="-96.464320870">
        <ele>2027.500</ele>
        <time>2020-01-21T00:30:34Z</time>
      </trkpt>
      <trkpt lat="17.017338340" lon="-96.464306700">
        <ele>2027.000</ele>
        <time>2020-01-21T00:30:35Z</time>
      </trkpt>
      <trkpt lat="17.017265810" lon="-96.464379330">
        <ele>2024.500</ele>
        <time>2020-01-21T00:30:36Z</time>
      </trkpt>
      <trkpt lat="17.017207680" lon="-96.464455200">
        <ele>2023.800</ele>
        <time>2020-01-21T00:30:37Z</time>
      </trkpt>
      <trkpt lat="17.017177180" lon="-96.464547530">
        <ele>2022.700</ele>
        <time>2020-01-21T00:30:38Z</time>
      </trkpt>
      <trkpt lat="17.017179230" lon="-96.464643200">
        <ele>2022.000</ele>
        <time>2020-01-21T00:30:39Z</time>
      </trkpt>
      <trkpt lat="17.017215640" lon="-96.464731750">
        <ele>2021.400</ele>
        <time>2020-01-21T00:30:40Z</time>
      </trkpt>
      <trkpt lat="17.017275680" lon="-96.464801140">
        <ele>2021.200</ele>
        <time>2020-01-21T00:30:41Z</time>
      </trkpt>
      <trkpt lat="17.017360590" lon="-96.464849440">
        <ele>2019.700</ele>
        <time>2020-01-21T00:30:42Z</time>
      </trkpt>
      <trkpt lat="17.017450300" lon="-96.464886230">
        <ele>2018.900</ele>
        <time>2020-01-21T00:30:43Z</time>
      </trkpt>
      <trkpt lat="17.017546010" lon="-96.464929160">
        <ele>2018.000</ele>
        <time>2020-01-21T00:30:44Z</time>
      </trkpt>
      <trkpt lat="17.017647590" lon="-96.464969530">
        <ele>2016.600</ele>
        <time>2020-01-21T00:30:45Z</time>
      </trkpt>
      <trkpt lat="17.017741550" lon="-96.464999680">
        <ele>2015.000</ele>
        <time>2020-01-21T00:30:46Z</time>
      </trkpt>
      <trkpt lat="17.017841280" lon="-96.465037840">
        <ele>2014.000</ele>
        <time>2020-01-21T00:30:47Z</time>
      </trkpt>
      <trkpt lat="17.017936370" lon="-96.465074730">
        <ele>2012.800</ele>
        <time>2020-01-21T00:30:48Z</time>
      </trkpt>
      <trkpt lat="17.018029630" lon="-96.465117050">
        <ele>2011.400</ele>
        <time>2020-01-21T00:30:49Z</time>
      </trkpt>
      <trkpt lat="17.018109780" lon="-96.465167110">
        <ele>2011.200</ele>
        <time>2020-01-21T00:30:50Z</time>
      </trkpt>
      <trkpt lat="17.018174710" lon="-96.465212690">
        <ele>2009.900</ele>
        <time>2020-01-21T00:30:51Z</time>
      </trkpt>
      <trkpt lat="17.018224670" lon="-96.465270850">
        <ele>2009.500</ele>
        <time>2020-01-21T00:30:52Z</time>
      </trkpt>
      <trkpt lat="17.018265390" lon="-96.465339880">
        <ele>2008.700</ele>
        <time>2020-01-21T00:30:53Z</time>
      </trkpt>
      <trkpt lat="17.018288770" lon="-96.465417590">
        <ele>2008.800</ele>
        <time>2020-01-21T00:30:54Z</time>
      </trkpt>
      <trkpt lat="17.018277660" lon="-96.465513280">
        <ele>2008.000</ele>
        <time>2020-01-21T00:30:55Z</time>
      </trkpt>
      <trkpt lat="17.018245860" lon="-96.465596080">
        <ele>2006.700</ele>
        <time>2020-01-21T00:30:56Z</time>
      </trkpt>
      <trkpt lat="17.018193350" lon="-96.465668200">
        <ele>2006.500</ele>
        <time>2020-01-21T00:30:57Z</time>
      </trkpt>
      <trkpt lat="17.018122110" lon="-96.465725050">
        <ele>2006.400</ele>
        <time>2020-01-21T00:30:58Z</time>
      </trkpt>
      <trkpt lat="17.018041710" lon="-96.465766680">
        <ele>2005.900</ele>
        <time>2020-01-21T00:30:59Z</time>
      </trkpt>
      <trkpt lat="17.017951310" lon="-96.465777950">
        <ele>2005.300</ele>
        <time>2020-01-21T00:31:00Z</time>
      </trkpt>
      <trkpt lat="17.017855580" lon="-96.465771850">
        <ele>2004.500</ele>
        <time>2020-01-21T00:31:01Z</time>
      </trkpt>
      <trkpt lat="17.017757620" lon="-96.465748590">
        <ele>2003.500</ele>
        <time>2020-01-21T00:31:02Z</time>
      </trkpt>
      <trkpt lat="17.017657500" lon="-96.465726050">
        <ele>2002.800</ele>
        <time>2020-01-21T00:31:03Z</time>
      </trkpt>
      <trkpt lat="17.017555520" lon="-96.465701790">
        <ele>2001.900</ele>
        <time>2020-01-21T00:31:04Z</time>
      </trkpt>
      <trkpt lat="17.017445840" lon="-96.465680250">
        <ele>2000.800</ele>
        <time>2020-01-21T00:31:05Z</time>
      </trkpt>
      <trkpt lat="17.017337840" lon="-96.465654840">
        <ele>1999.600</ele>
        <time>2020-01-21T00:31:06Z</time>
      </trkpt>
      <trkpt lat="17.017226980" lon="-96.465632650">
        <ele>1998.400</ele>
        <time>2020-01-21T00:31:07Z</time>
      </trkpt>
      <trkpt lat="17.017117430" lon="-96.465610220">
        <ele>1997.600</ele>
        <time>2020-01-21T00:31:08Z</time>
      </trkpt>
      <trkpt lat="17.017009410" lon="-96.465589270">
        <ele>1996.800</ele>
        <time>2020-01-21T00:31:09Z</time>
      </trkpt>
      <trkpt lat="17.016904460" lon="-96.465563150">
        <ele>1996.200</ele>
        <time>2020-01-21T00:31:10Z</time>
      </trkpt>
      <trkpt lat="17.016801740" lon="-96.465531060">
        <ele>1995.000</ele>
        <time>2020-01-21T00:31:11Z</time>
      </trkpt>
      <trkpt lat="17.016706370" lon="-96.465483280">
        <ele>1993.600</ele>
        <time>2020-01-21T00:31:12Z</time>
      </trkpt>
      <trkpt lat="17.016618000" lon="-96.465419900">
        <ele>1993.000</ele>
        <time>2020-01-21T00:31:13Z</time>
      </trkpt>
      <trkpt lat="17.016539620" lon="-96.465345760">
        <ele>1992.100</ele>
        <time>2020-01-21T00:31:14Z</time>
      </trkpt>
      <trkpt lat="17.016472100" lon="-96.465261630">
        <ele>1991.000</ele>
        <time>2020-01-21T00:31:15Z</time>
      </trkpt>
      <trkpt lat="17.016406710" lon="-96.465177250">
        <ele>1989.800</ele>
        <time>2020-01-21T00:31:16Z</time>
      </trkpt>
      <trkpt lat="17.016341220" lon="-96.465092390">
        <ele>1988.600</ele>
        <time>2020-01-21T00:31:17Z</time>
      </trkpt>
      <trkpt lat="17.016276770" lon="-96.465008050">
        <ele>1987.700</ele>
        <time>2020-01-21T00:31:18Z</time>
      </trkpt>
      <trkpt lat="17.016218570" lon="-96.464920610">
        <ele>1986.300</ele>
        <time>2020-01-21T00:31:19Z</time>
      </trkpt>
      <trkpt lat="17.016157420" lon="-96.464832780">
        <ele>1985.000</ele>
        <time>2020-01-21T00:31:20Z</time>
      </trkpt>
      <trkpt lat="17.016095600" lon="-96.464743500">
        <ele>1983.800</ele>
        <time>2020-01-21T00:31:21Z</time>
      </trkpt>
      <trkpt lat="17.016029810" lon="-96.464655350">
        <ele>1982.400</ele>
        <time>2020-01-21T00:31:22Z</time>
      </trkpt>
      <trkpt lat="17.015965900" lon="-96.464566150">
        <ele>1981.300</ele>
        <time>2020-01-21T00:31:23Z</time>
      </trkpt>
      <trkpt lat="17.015904080" lon="-96.464472760">
        <ele>1980.000</ele>
        <time>2020-01-21T00:31:24Z</time>
      </trkpt>
      <trkpt lat="17.015846730" lon="-96.464379180">
        <ele>1978.700</ele>
        <time>2020-01-21T00:31:25Z</time>
      </trkpt>
      <trkpt lat="17.015793010" lon="-96.464282660">
        <ele>1977.800</ele>
        <time>2020-01-21T00:31:26Z</time>
      </trkpt>
      <trkpt lat="17.015754380" lon="-96.464181060">
        <ele>1977.000</ele>
        <time>2020-01-21T00:31:27Z</time>
      </trkpt>
      <trkpt lat="17.015713950" lon="-96.464075520">
        <ele>1976.100</ele>
        <time>2020-01-21T00:31:28Z</time>
      </trkpt>
      <trkpt lat="17.015676090" lon="-96.463973980">
        <ele>1975.100</ele>
        <time>2020-01-21T00:31:29Z</time>
      </trkpt>
      <trkpt lat="17.015635440" lon="-96.463874110">
        <ele>1974.100</ele>
        <time>2020-01-21T00:31:30Z</time>
      </trkpt>
      <trkpt lat="17.015593780" lon="-96.463772260">
        <ele>1973.000</ele>
        <time>2020-01-21T00:31:31Z</time>
      </trkpt>
      <trkpt lat="17.015542110" lon="-96.463667520">
        <ele>1971.600</ele>
        <time>2020-01-21T00:31:32Z</time>
      </trkpt>
      <trkpt lat="17.015492840" lon="-96.463567740">
        <ele>1970.200</ele>
        <time>2020-01-21T00:31:33Z</time>
      </trkpt>
      <trkpt lat="17.015441120" lon="-96.463466610">
        <ele>1968.800</ele>
        <time>2020-01-21T00:31:34Z</time>
      </trkpt>
      <trkpt lat="17.015383610" lon="-96.463371420">
        <ele>1967.600</ele>
        <time>2020-01-21T00:31:35Z</time>
      </trkpt>
      <trkpt lat="17.015321090" lon="-96.463285050">
        <ele>1966.200</ele>
        <time>2020-01-21T00:31:36Z</time>
      </trkpt>
      <trkpt lat="17.015252070" lon="-96.463195250">
        <ele>1964.800</ele>
        <time>2020-01-21T00:31:37Z</time>
      </trkpt>
      <trkpt lat="17.015184490" lon="-96.463104720">
        <ele>1963.800</ele>
        <time>2020-01-21T00:31:38Z</time>
      </trkpt>
      <trkpt lat="17.015112940" lon="-96.463016290">
        <ele>1962.700</ele>
        <time>2020-01-21T00:31:39Z</time>
      </trkpt>
      <trkpt lat="17.015040060" lon="-96.462926720">
        <ele>1961.700</ele>
        <time>2020-01-21T00:31:40Z</time>
      </trkpt>
      <trkpt lat="17.014968800" lon="-96.462835300">
        <ele>1960.500</ele>
        <time>2020-01-21T00:31:41Z</time>
      </trkpt>
      <trkpt lat="17.014897950" lon="-96.462742770">
        <ele>1959.200</ele>
        <time>2020-01-21T00:31:42Z</time>
      </trkpt>
      <trkpt lat="17.014820100" lon="-96.462650290">
        <ele>1957.900</ele>
        <time>2020-01-21T00:31:43Z</time>
      </trkpt>
      <trkpt lat="17.014746010" lon="-96.462562910">
        <ele>1956.600</ele>
        <time>2020-01-21T00:31:44Z</time>
      </trkpt>
      <trkpt lat="17.014671520" lon="-96.462471010">
        <ele>1955.700</ele>
        <time>2020-01-21T00:31:45Z</time>
      </trkpt>
      <trkpt lat="17.014597800" lon="-96.462378700">
        <ele>1954.500</ele>
        <time>2020-01-21T00:31:46Z</time>
      </trkpt>
      <trkpt lat="17.014521390" lon="-96.462296040">
        <ele>1953.300</ele>
        <time>2020-01-21T00:31:47Z</time>
      </trkpt>
      <trkpt lat="17.014443080" lon="-96.462201580">
        <ele>1952.600</ele>
        <time>2020-01-21T00:31:48Z</time>
      </trkpt>
      <trkpt lat="17.014365100" lon="-96.462096120">
        <ele>1951.700</ele>
        <time>2020-01-21T00:31:49Z</time>
      </trkpt>
      <trkpt lat="17.014291780" lon="-96.461995410">
        <ele>1951.000</ele>
        <time>2020-01-21T00:31:50Z</time>
      </trkpt>
      <trkpt lat="17.014215620" lon="-96.461898720">
        <ele>1950.000</ele>
        <time>2020-01-21T00:31:51Z</time>
      </trkpt>
      <trkpt lat="17.014140010" lon="-96.461806410">
        <ele>1949.000</ele>
        <time>2020-01-21T00:31:52Z</time>
      </trkpt>
      <trkpt lat="17.014053400" lon="-96.461709890">
        <ele>1947.900</ele>
        <time>2020-01-21T00:31:53Z</time>
      </trkpt>
      <trkpt lat="17.013972450" lon="-96.461611530">
        <ele>1946.800</ele>
        <time>2020-01-21T00:31:54Z</time>
      </trkpt>
      <trkpt lat="17.013895120" lon="-96.461513270">
        <ele>1946.200</ele>
        <time>2020-01-21T00:31:55Z</time>
      </trkpt>
      <trkpt lat="17.013817300" lon="-96.461416640">
        <ele>1945.300</ele>
        <time>2020-01-21T00:31:56Z</time>
      </trkpt>
      <trkpt lat="17.013742500" lon="-96.461323860">
        <ele>1943.900</ele>
        <time>2020-01-21T00:31:57Z</time>
      </trkpt>
      <trkpt lat="17.013664250" lon="-96.461227050">
        <ele>1942.600</ele>
        <time>2020-01-21T00:31:58Z</time>
      </trkpt>
      <trkpt lat="17.013584200" lon="-96.461126630">
        <ele>1941.600</ele>
        <time>2020-01-21T00:31:59Z</time>
      </trkpt>
      <trkpt lat="17.013500630" lon="-96.461027280">
        <ele>1939.900</ele>
        <time>2020-01-21T00:32:00Z</time>
      </trkpt>
      <trkpt lat="17.013420130" lon="-96.460924280">
        <ele>1938.700</ele>
        <time>2020-01-21T00:32:01Z</time>
      </trkpt>
      <trkpt lat="17.013335420" lon="-96.460820670">
        <ele>1937.200</ele>
        <time>2020-01-21T00:32:02Z</time>
      </trkpt>
      <trkpt lat="17.013247850" lon="-96.460715650">
        <ele>1935.600</ele>
        <time>2020-01-21T00:32:03Z</time>
      </trkpt>
      <trkpt lat="17.013163140" lon="-96.460608190">
        <ele>1934.400</ele>
        <time>2020-01-21T00:32:04Z</time>
      </trkpt>
      <trkpt lat="17.013076620" lon="-96.460496200">
        <ele>1933.000</ele>
        <time>2020-01-21T00:32:05Z</time>
      </trkpt>
      <trkpt lat="17.012990210" lon="-96.460386730">
        <ele>1931.300</ele>
        <time>2020-01-21T00:32:06Z</time>
      </trkpt>
      <trkpt lat="17.012907740" lon="-96.460279640">
        <ele>1929.600</ele>
        <time>2020-01-21T00:32:07Z</time>
      </trkpt>
      <trkpt lat="17.012818050" lon="-96.460168460">
        <ele>1928.500</ele>
        <time>2020-01-21T00:32:08Z</time>
      </trkpt>
      <trkpt lat="17.012731220" lon="-96.460055640">
        <ele>1927.100</ele>
        <time>2020-01-21T00:32:09Z</time>
      </trkpt>
      <trkpt lat="17.012638690" lon="-96.459949140">
        <ele>1925.500</ele>
        <time>2020-01-21T00:32:10Z</time>
      </trkpt>
      <trkpt lat="17.012546850" lon="-96.459837700">
        <ele>1923.300</ele>
        <time>2020-01-21T00:32:11Z</time>
      </trkpt>
      <trkpt lat="17.012457490" lon="-96.459716640">
        <ele>1921.700</ele>
        <time>2020-01-21T00:32:12Z</time>
      </trkpt>
      <trkpt lat="17.012368470" lon="-96.459596810">
        <ele>1920.100</ele>
        <time>2020-01-21T00:32:13Z</time>
      </trkpt>
      <trkpt lat="17.012269900" lon="-96.459480070">
        <ele>1918.400</ele>
        <time>2020-01-21T00:32:14Z</time>
      </trkpt>
      <trkpt lat="17.012174250" lon="-96.459360960">
        <ele>1916.200</ele>
        <time>2020-01-21T00:32:15Z</time>
      </trkpt>
      <trkpt lat="17.012078080" lon="-96.459244140">
        <ele>1914.500</ele>
        <time>2020-01-21T00:32:16Z</time>
      </trkpt>
      <trkpt lat="17.011981900" lon="-96.459124010">
        <ele>1912.600</ele>
        <time>2020-01-21T00:32:17Z</time>
      </trkpt>
      <trkpt lat="17.011885850" lon="-96.459001900">
        <ele>1911.100</ele>
        <time>2020-01-21T00:32:18Z</time>
      </trkpt>
      <trkpt lat="17.011791310" lon="-96.458887610">
        <ele>1909.100</ele>
        <time>2020-01-21T00:32:19Z</time>
      </trkpt>
      <trkpt lat="17.011701480" lon="-96.458773320">
        <ele>1907.300</ele>
        <time>2020-01-21T00:32:20Z</time>
      </trkpt>
      <trkpt lat="17.011613690" lon="-96.458658700">
        <ele>1905.400</ele>
        <time>2020-01-21T00:32:21Z</time>
      </trkpt>
      <trkpt lat="17.011521760" lon="-96.458539630">
        <ele>1903.400</ele>
        <time>2020-01-21T00:32:22Z</time>
      </trkpt>
      <trkpt lat="17.011428340" lon="-96.458423660">
        <ele>1901.400</ele>
        <time>2020-01-21T00:32:23Z</time>
      </trkpt>
      <trkpt lat="17.011333480" lon="-96.458310440">
        <ele>1899.400</ele>
        <time>2020-01-21T00:32:24Z</time>
      </trkpt>
      <trkpt lat="17.011246270" lon="-96.458198570">
        <ele>1897.600</ele>
        <time>2020-01-21T00:32:25Z</time>
      </trkpt>
      <trkpt lat="17.011156430" lon="-96.458086940">
        <ele>1895.800</ele>
        <time>2020-01-21T00:32:26Z</time>
      </trkpt>
      <trkpt lat="17.011068450" lon="-96.457974990">
        <ele>1894.100</ele>
        <time>2020-01-21T00:32:27Z</time>
      </trkpt>
      <trkpt lat="17.010973980" lon="-96.457860940">
        <ele>1893.000</ele>
        <time>2020-01-21T00:32:28Z</time>
      </trkpt>
      <trkpt lat="17.010880570" lon="-96.457748580">
        <ele>1891.600</ele>
        <time>2020-01-21T00:32:29Z</time>
      </trkpt>
      <trkpt lat="17.010787480" lon="-96.457632560">
        <ele>1890.400</ele>
        <time>2020-01-21T00:32:30Z</time>
      </trkpt>
      <trkpt lat="17.010696810" lon="-96.457515020">
        <ele>1889.100</ele>
        <time>2020-01-21T00:32:31Z</time>
      </trkpt>
      <trkpt lat="17.010604420" lon="-96.457403100">
        <ele>1887.200</ele>
        <time>2020-01-21T00:32:32Z</time>
      </trkpt>
      <trkpt lat="17.010513170" lon="-96.457296490">
        <ele>1885.900</ele>
        <time>2020-01-21T00:32:33Z</time>
      </trkpt>
      <trkpt lat="17.010425430" lon="-96.457180240">
        <ele>1884.300</ele>
        <time>2020-01-21T00:32:34Z</time>
      </trkpt>
      <trkpt lat="17.010335810" lon="-96.457062300">
        <ele>1883.200</ele>
        <time>2020-01-21T00:32:35Z</time>
      </trkpt>
      <trkpt lat="17.010249810" lon="-96.456948100">
        <ele>1882.200</ele>
        <time>2020-01-21T00:32:36Z</time>
      </trkpt>
      <trkpt lat="17.010164070" lon="-96.456836580">
        <ele>1881.200</ele>
        <time>2020-01-21T00:32:37Z</time>
      </trkpt>
      <trkpt lat="17.010078580" lon="-96.456731090">
        <ele>1879.800</ele>
        <time>2020-01-21T00:32:38Z</time>
      </trkpt>
      <trkpt lat="17.009986310" lon="-96.456624860">
        <ele>1878.600</ele>
        <time>2020-01-21T00:32:39Z</time>
      </trkpt>
      <trkpt lat="17.009896810" lon="-96.456523840">
        <ele>1877.600</ele>
        <time>2020-01-21T00:32:40Z</time>
      </trkpt>
      <trkpt lat="17.009811660" lon="-96.456422600">
        <ele>1877.000</ele>
        <time>2020-01-21T00:32:41Z</time>
      </trkpt>
      <trkpt lat="17.009730340" lon="-96.456333340">
        <ele>1876.700</ele>
        <time>2020-01-21T00:32:42Z</time>
      </trkpt>
      <trkpt lat="17.009647530" lon="-96.456251310">
        <ele>1876.100</ele>
        <time>2020-01-21T00:32:43Z</time>
      </trkpt>
      <trkpt lat="17.009572580" lon="-96.456176690">
        <ele>1875.500</ele>
        <time>2020-01-21T00:32:44Z</time>
      </trkpt>
      <trkpt lat="17.009499880" lon="-96.456099790">
        <ele>1875.100</ele>
        <time>2020-01-21T00:32:45Z</time>
      </trkpt>
      <trkpt lat="17.009424530" lon="-96.456028420">
        <ele>1874.600</ele>
        <time>2020-01-21T00:32:46Z</time>
      </trkpt>
      <trkpt lat="17.009352760" lon="-96.455957280">
        <ele>1874.000</ele>
        <time>2020-01-21T00:32:47Z</time>
      </trkpt>
      <trkpt lat="17.009286870" lon="-96.455883670">
        <ele>1873.400</ele>
        <time>2020-01-21T00:32:48Z</time>
      </trkpt>
      <trkpt lat="17.009226530" lon="-96.455809750">
        <ele>1873.100</ele>
        <time>2020-01-21T00:32:49Z</time>
      </trkpt>
      <trkpt lat="17.009179760" lon="-96.455732970">
        <ele>1872.300</ele>
        <time>2020-01-21T00:32:50Z</time>
      </trkpt>
      <trkpt lat="17.009143500" lon="-96.455648050">
        <ele>1872.200</ele>
        <time>2020-01-21T00:32:51Z</time>
      </trkpt>
      <trkpt lat="17.009121290" lon="-96.455563910">
        <ele>1872.100</ele>
        <time>2020-01-21T00:32:52Z</time>
      </trkpt>
      <trkpt lat="17.009112090" lon="-96.455477850">
        <ele>1871.800</ele>
        <time>2020-01-21T00:32:53Z</time>
      </trkpt>
      <trkpt lat="17.009119190" lon="-96.455392510">
        <ele>1871.300</ele>
        <time>2020-01-21T00:32:54Z</time>
      </trkpt>
      <trkpt lat="17.009140130" lon="-96.455310480">
        <ele>1871.300</ele>
        <time>2020-01-21T00:32:55Z</time>
      </trkpt>
      <trkpt lat="17.009174320" lon="-96.455239050">
        <ele>1870.600</ele>
        <time>2020-01-21T00:32:56Z</time>
      </trkpt>
      <trkpt lat="17.009211610" lon="-96.455171240">
        <ele>1870.400</ele>
        <time>2020-01-21T00:32:57Z</time>
      </trkpt>
      <trkpt lat="17.009245900" lon="-96.455104390">
        <ele>1870.000</ele>
        <time>2020-01-21T00:32:58Z</time>
      </trkpt>
      <trkpt lat="17.009290130" lon="-96.455039040">
        <ele>1868.800</ele>
        <time>2020-01-21T00:32:59Z</time>
      </trkpt>
      <trkpt lat="17.009335450" lon="-96.454966660">
        <ele>1868.100</ele>
        <time>2020-01-21T00:33:00Z</time>
      </trkpt>
      <trkpt lat="17.009381470" lon="-96.454898770">
        <ele>1868.300</ele>
        <time>2020-01-21T00:33:01Z</time>
      </trkpt>
      <trkpt lat="17.009440310" lon="-96.454836550">
        <ele>1867.800</ele>
        <time>2020-01-21T00:33:02Z</time>
      </trkpt>
      <trkpt lat="17.009501130" lon="-96.454781770">
        <ele>1866.600</ele>
        <time>2020-01-21T00:33:03Z</time>
      </trkpt>
      <trkpt lat="17.009564570" lon="-96.454725810">
        <ele>1865.500</ele>
        <time>2020-01-21T00:33:04Z</time>
      </trkpt>
      <trkpt lat="17.009626600" lon="-96.454673840">
        <ele>1864.500</ele>
        <time>2020-01-21T00:33:05Z</time>
      </trkpt>
      <trkpt lat="17.009691240" lon="-96.454624200">
        <ele>1863.900</ele>
        <time>2020-01-21T00:33:06Z</time>
      </trkpt>
      <trkpt lat="17.009760620" lon="-96.454570300">
        <ele>1863.400</ele>
        <time>2020-01-21T00:33:07Z</time>
      </trkpt>
      <trkpt lat="17.009826970" lon="-96.454520360">
        <ele>1862.600</ele>
        <time>2020-01-21T00:33:08Z</time>
      </trkpt>
      <trkpt lat="17.009905140" lon="-96.454461730">
        <ele>1861.500</ele>
        <time>2020-01-21T00:33:09Z</time>
      </trkpt>
      <trkpt lat="17.009973470" lon="-96.454411650">
        <ele>1860.500</ele>
        <time>2020-01-21T00:33:10Z</time>
      </trkpt>
      <trkpt lat="17.010039600" lon="-96.454361800">
        <ele>1859.800</ele>
        <time>2020-01-21T00:33:11Z</time>
      </trkpt>
      <trkpt lat="17.010096410" lon="-96.454304430">
        <ele>1859.100</ele>
        <time>2020-01-21T00:33:12Z</time>
      </trkpt>
      <trkpt lat="17.010154510" lon="-96.454239680">
        <ele>1858.100</ele>
        <time>2020-01-21T00:33:13Z</time>
      </trkpt>
      <trkpt lat="17.010198440" lon="-96.454170520">
        <ele>1857.100</ele>
        <time>2020-01-21T00:33:14Z</time>
      </trkpt>
      <trkpt lat="17.010229230" lon="-96.454093450">
        <ele>1856.000</ele>
        <time>2020-01-21T00:33:15Z</time>
      </trkpt>
      <trkpt lat="17.010235230" lon="-96.454008750">
        <ele>1855.400</ele>
        <time>2020-01-21T00:33:16Z</time>
      </trkpt>
      <trkpt lat="17.010219630" lon="-96.453924670">
        <ele>1854.400</ele>
        <time>2020-01-21T00:33:17Z</time>
      </trkpt>
      <trkpt lat="17.010181590" lon="-96.453844410">
        <ele>1853.500</ele>
        <time>2020-01-21T00:33:18Z</time>
      </trkpt>
      <trkpt lat="17.010132100" lon="-96.453760140">
        <ele>1852.500</ele>
        <time>2020-01-21T00:33:19Z</time>
      </trkpt>
      <trkpt lat="17.010092130" lon="-96.453685760">
        <ele>1850.900</ele>
        <time>2020-01-21T00:33:20Z</time>
      </trkpt>
      <trkpt lat="17.010041710" lon="-96.453611620">
        <ele>1849.500</ele>
        <time>2020-01-21T00:33:21Z</time>
      </trkpt>
      <trkpt lat="17.009980530" lon="-96.453548530">
        <ele>1849.000</ele>
        <time>2020-01-21T00:33:22Z</time>
      </trkpt>
      <trkpt lat="17.009906900" lon="-96.453486460">
        <ele>1848.000</ele>
        <time>2020-01-21T00:33:23Z</time>
      </trkpt>
      <trkpt lat="17.009824120" lon="-96.453432750">
        <ele>1847.300</ele>
        <time>2020-01-21T00:33:24Z</time>
      </trkpt>
      <trkpt lat="17.009740540" lon="-96.453393570">
        <ele>1846.900</ele>
        <time>2020-01-21T00:33:25Z</time>
      </trkpt>
      <trkpt lat="17.009650810" lon="-96.453371120">
        <ele>1846.100</ele>
        <time>2020-01-21T00:33:26Z</time>
      </trkpt>
      <trkpt lat="17.009557730" lon="-96.453362700">
        <ele>1845.400</ele>
        <time>2020-01-21T00:33:27Z</time>
      </trkpt>
      <trkpt lat="17.009465460" lon="-96.453368010">
        <ele>1844.600</ele>
        <time>2020-01-21T00:33:28Z</time>
      </trkpt>
      <trkpt lat="17.009372800" lon="-96.453385390">
        <ele>1844.300</ele>
        <time>2020-01-21T00:33:29Z</time>
      </trkpt>
      <trkpt lat="17.009283080" lon="-96.453414640">
        <ele>1843.800</ele>
        <time>2020-01-21T00:33:30Z</time>
      </trkpt>
      <trkpt lat="17.009196340" lon="-96.453448310">
        <ele>1843.000</ele>
        <time>2020-01-21T00:33:31Z</time>
      </trkpt>
      <trkpt lat="17.009112000" lon="-96.453488880">
        <ele>1842.200</ele>
        <time>2020-01-21T00:33:32Z</time>
      </trkpt>
      <trkpt lat="17.009027830" lon="-96.453529060">
        <ele>1841.100</ele>
        <time>2020-01-21T00:33:33Z</time>
      </trkpt>
      <trkpt lat="17.008949790" lon="-96.453577590">
        <ele>1840.100</ele>
        <time>2020-01-21T00:33:34Z</time>
      </trkpt>
      <trkpt lat="17.008872560" lon="-96.453624510">
        <ele>1839.400</ele>
        <time>2020-01-21T00:33:35Z</time>
      </trkpt>
      <trkpt lat="17.008788570" lon="-96.453664570">
        <ele>1838.500</ele>
        <time>2020-01-21T00:33:36Z</time>
      </trkpt>
      <trkpt lat="17.008703920" lon="-96.453705720">
        <ele>1837.800</ele>
        <time>2020-01-21T00:33:37Z</time>
      </trkpt>
      <trkpt lat="17.008624790" lon="-96.453742730">
        <ele>1836.900</ele>
        <time>2020-01-21T00:33:38Z</time>
      </trkpt>
      <trkpt lat="17.008540520" lon="-96.453775160">
        <ele>1836.000</ele>
        <time>2020-01-21T00:33:39Z</time>
      </trkpt>
      <trkpt lat="17.008450460" lon="-96.453799610">
        <ele>1835.900</ele>
        <time>2020-01-21T00:33:40Z</time>
      </trkpt>
      <trkpt lat="17.008357250" lon="-96.453803120">
        <ele>1835.400</ele>
        <time>2020-01-21T00:33:41Z</time>
      </trkpt>
      <trkpt lat="17.008262910" lon="-96.453796600">
        <ele>1834.600</ele>
        <time>2020-01-21T00:33:42Z</time>
      </trkpt>
      <trkpt lat="17.008166410" lon="-96.453778330">
        <ele>1833.800</ele>
        <time>2020-01-21T00:33:43Z</time>
      </trkpt>
      <trkpt lat="17.008076760" lon="-96.453744510">
        <ele>1832.800</ele>
        <time>2020-01-21T00:33:44Z</time>
      </trkpt>
      <trkpt lat="17.007983990" lon="-96.453708670">
        <ele>1831.600</ele>
        <time>2020-01-21T00:33:45Z</time>
      </trkpt>
      <trkpt lat="17.007889300" lon="-96.453674050">
        <ele>1830.700</ele>
        <time>2020-01-21T00:33:46Z</time>
      </trkpt>
      <trkpt lat="17.007792910" lon="-96.453637090">
        <ele>1829.500</ele>
        <time>2020-01-21T00:33:47Z</time>
      </trkpt>
      <trkpt lat="17.007699850" lon="-96.453602790">
        <ele>1828.700</ele>
        <time>2020-01-21T00:33:48Z</time>
      </trkpt>
      <trkpt lat="17.007607890" lon="-96.453565050">
        <ele>1827.200</ele>
        <time>2020-01-21T00:33:49Z</time>
      </trkpt>
      <trkpt lat="17.007520000" lon="-96.453524990">
        <ele>1826.200</ele>
        <time>2020-01-21T00:33:50Z</time>
      </trkpt>
      <trkpt lat="17.007431220" lon="-96.453493410">
        <ele>1824.900</ele>
        <time>2020-01-21T00:33:51Z</time>
      </trkpt>
      <trkpt lat="17.007346830" lon="-96.453467890">
        <ele>1823.900</ele>
        <time>2020-01-21T00:33:52Z</time>
      </trkpt>
      <trkpt lat="17.007260970" lon="-96.453447310">
        <ele>1823.000</ele>
        <time>2020-01-21T00:33:53Z</time>
      </trkpt>
      <trkpt lat="17.007174020" lon="-96.453439830">
        <ele>1822.300</ele>
        <time>2020-01-21T00:33:54Z</time>
      </trkpt>
      <trkpt lat="17.007092650" lon="-96.453460670">
        <ele>1821.400</ele>
        <time>2020-01-21T00:33:55Z</time>
      </trkpt>
      <trkpt lat="17.007012930" lon="-96.453494210">
        <ele>1821.100</ele>
        <time>2020-01-21T00:33:56Z</time>
      </trkpt>
      <trkpt lat="17.006939970" lon="-96.453549070">
        <ele>1820.300</ele>
        <time>2020-01-21T00:33:57Z</time>
      </trkpt>
      <trkpt lat="17.006876520" lon="-96.453616530">
        <ele>1820.000</ele>
        <time>2020-01-21T00:33:58Z</time>
      </trkpt>
      <trkpt lat="17.006819630" lon="-96.453687850">
        <ele>1819.400</ele>
        <time>2020-01-21T00:33:59Z</time>
      </trkpt>
      <trkpt lat="17.006764620" lon="-96.453757830">
        <ele>1818.400</ele>
        <time>2020-01-21T00:34:00Z</time>
      </trkpt>
      <trkpt lat="17.006701570" lon="-96.453818890">
        <ele>1817.500</ele>
        <time>2020-01-21T00:34:01Z</time>
      </trkpt>
      <trkpt lat="17.006630550" lon="-96.453879220">
        <ele>1816.700</ele>
        <time>2020-01-21T00:34:02Z</time>
      </trkpt>
      <trkpt lat="17.006557160" lon="-96.453927950">
        <ele>1816.300</ele>
        <time>2020-01-21T00:34:03Z</time>
      </trkpt>
      <trkpt lat="17.006471970" lon="-96.453972430">
        <ele>1816.000</ele>
        <time>2020-01-21T00:34:04Z</time>
      </trkpt>
      <trkpt lat="17.006390350" lon="-96.454008740">
        <ele>1815.200</ele>
        <time>2020-01-21T00:34:05Z</time>
      </trkpt>
      <trkpt lat="17.006308810" lon="-96.454041590">
        <ele>1814.600</ele>
        <time>2020-01-21T00:34:06Z</time>
      </trkpt>
      <trkpt lat="17.006233480" lon="-96.454065350">
        <ele>1813.500</ele>
        <time>2020-01-21T00:34:07Z</time>
      </trkpt>
      <trkpt lat="17.006148450" lon="-96.454078760">
        <ele>1812.700</ele>
        <time>2020-01-21T00:34:08Z</time>
      </trkpt>
      <trkpt lat="17.006061010" lon="-96.454078380">
        <ele>1812.100</ele>
        <time>2020-01-21T00:34:09Z</time>
      </trkpt>
      <trkpt lat="17.005975950" lon="-96.454058100">
        <ele>1811.400</ele>
        <time>2020-01-21T00:34:10Z</time>
      </trkpt>
      <trkpt lat="17.005895920" lon="-96.454017640">
        <ele>1810.800</ele>
        <time>2020-01-21T00:34:11Z</time>
      </trkpt>
      <trkpt lat="17.005823140" lon="-96.453956000">
        <ele>1810.100</ele>
        <time>2020-01-21T00:34:12Z</time>
      </trkpt>
      <trkpt lat="17.005758060" lon="-96.453882880">
        <ele>1809.500</ele>
        <time>2020-01-21T00:34:13Z</time>
      </trkpt>
      <trkpt lat="17.005696700" lon="-96.453802970">
        <ele>1809.100</ele>
        <time>2020-01-21T00:34:14Z</time>
      </trkpt>
      <trkpt lat="17.005647540" lon="-96.453722730">
        <ele>1807.900</ele>
        <time>2020-01-21T00:34:15Z</time>
      </trkpt>
      <trkpt lat="17.005591430" lon="-96.453638850">
        <ele>1806.900</ele>
        <time>2020-01-21T00:34:16Z</time>
      </trkpt>
      <trkpt lat="17.005528040" lon="-96.453554710">
        <ele>1805.700</ele>
        <time>2020-01-21T00:34:17Z</time>
      </trkpt>
      <trkpt lat="17.005474540" lon="-96.453468830">
        <ele>1805.300</ele>
        <time>2020-01-21T00:34:18Z</time>
      </trkpt>
      <trkpt lat="17.005418660" lon="-96.453383700">
        <ele>1804.000</ele>
        <time>2020-01-21T00:34:19Z</time>
      </trkpt>
      <trkpt lat="17.005364550" lon="-96.453308680">
        <ele>1802.800</ele>
        <time>2020-01-21T00:34:20Z</time>
      </trkpt>
      <trkpt lat="17.005304410" lon="-96.453224510">
        <ele>1802.000</ele>
        <time>2020-01-21T00:34:21Z</time>
      </trkpt>
      <trkpt lat="17.005247690" lon="-96.453135990">
        <ele>1800.900</ele>
        <time>2020-01-21T00:34:22Z</time>
      </trkpt>
      <trkpt lat="17.005199930" lon="-96.453051430">
        <ele>1799.500</ele>
        <time>2020-01-21T00:34:23Z</time>
      </trkpt>
      <trkpt lat="17.005147650" lon="-96.452974030">
        <ele>1798.400</ele>
        <time>2020-01-21T00:34:24Z</time>
      </trkpt>
      <trkpt lat="17.005097720" lon="-96.452904420">
        <ele>1797.500</ele>
        <time>2020-01-21T00:34:25Z</time>
      </trkpt>
      <trkpt lat="17.005038610" lon="-96.452837900">
        <ele>1796.700</ele>
        <time>2020-01-21T00:34:26Z</time>
      </trkpt>
      <trkpt lat="17.004965520" lon="-96.452775520">
        <ele>1795.600</ele>
        <time>2020-01-21T00:34:27Z</time>
      </trkpt>
      <trkpt lat="17.004886790" lon="-96.452721880">
        <ele>1794.100</ele>
        <time>2020-01-21T00:34:28Z</time>
      </trkpt>
      <trkpt lat="17.004808330" lon="-96.452675800">
        <ele>1793.700</ele>
        <time>2020-01-21T00:34:29Z</time>
      </trkpt>
      <trkpt lat="17.004724700" lon="-96.452633970">
        <ele>1793.200</ele>
        <time>2020-01-21T00:34:30Z</time>
      </trkpt>
      <trkpt lat="17.004639530" lon="-96.452593600">
        <ele>1792.500</ele>
        <time>2020-01-21T00:34:31Z</time>
      </trkpt>
      <trkpt lat="17.004556240" lon="-96.452555880">
        <ele>1791.800</ele>
        <time>2020-01-21T00:34:32Z</time>
      </trkpt>
      <trkpt lat="17.004469650" lon="-96.452516100">
        <ele>1790.800</ele>
        <time>2020-01-21T00:34:33Z</time>
      </trkpt>
      <trkpt lat="17.004380120" lon="-96.452479890">
        <ele>1789.700</ele>
        <time>2020-01-21T00:34:34Z</time>
      </trkpt>
      <trkpt lat="17.004290000" lon="-96.452446750">
        <ele>1788.900</ele>
        <time>2020-01-21T00:34:35Z</time>
      </trkpt>
      <trkpt lat="17.004199440" lon="-96.452412580">
        <ele>1787.500</ele>
        <time>2020-01-21T00:34:36Z</time>
      </trkpt>
      <trkpt lat="17.004113120" lon="-96.452379500">
        <ele>1786.400</ele>
        <time>2020-01-21T00:34:37Z</time>
      </trkpt>
      <trkpt lat="17.004034870" lon="-96.452346590">
        <ele>1785.500</ele>
        <time>2020-01-21T00:34:38Z</time>
      </trkpt>
      <trkpt lat="17.003951970" lon="-96.452302050">
        <ele>1784.800</ele>
        <time>2020-01-21T00:34:39Z</time>
      </trkpt>
      <trkpt lat="17.003877980" lon="-96.452243220">
        <ele>1783.900</ele>
        <time>2020-01-21T00:34:40Z</time>
      </trkpt>
      <trkpt lat="17.003814350" lon="-96.452172580">
        <ele>1783.500</ele>
        <time>2020-01-21T00:34:41Z</time>
      </trkpt>
      <trkpt lat="17.003768970" lon="-96.452093620">
        <ele>1782.100</ele>
        <time>2020-01-21T00:34:42Z</time>
      </trkpt>
      <trkpt lat="17.003733690" lon="-96.452005450">
        <ele>1781.300</ele>
        <time>2020-01-21T00:34:43Z</time>
      </trkpt>
      <trkpt lat="17.003706440" lon="-96.451907590">
        <ele>1780.500</ele>
        <time>2020-01-21T00:34:44Z</time>
      </trkpt>
      <trkpt lat="17.003683820" lon="-96.451813330">
        <ele>1779.300</ele>
        <time>2020-01-21T00:34:45Z</time>
      </trkpt>
      <trkpt lat="17.003658960" lon="-96.451718880">
        <ele>1778.500</ele>
        <time>2020-01-21T00:34:46Z</time>
      </trkpt>
      <trkpt lat="17.003632610" lon="-96.451623490">
        <ele>1777.200</ele>
        <time>2020-01-21T00:34:47Z</time>
      </trkpt>
      <trkpt lat="17.003603640" lon="-96.451524300">
        <ele>1776.200</ele>
        <time>2020-01-21T00:34:48Z</time>
      </trkpt>
      <trkpt lat="17.003577900" lon="-96.451424530">
        <ele>1775.400</ele>
        <time>2020-01-21T00:34:49Z</time>
      </trkpt>
      <trkpt lat="17.003550540" lon="-96.451326060">
        <ele>1774.600</ele>
        <time>2020-01-21T00:34:50Z</time>
      </trkpt>
      <trkpt lat="17.003522120" lon="-96.451227950">
        <ele>1773.200</ele>
        <time>2020-01-21T00:34:51Z</time>
      </trkpt>
      <trkpt lat="17.003484270" lon="-96.451130600">
        <ele>1772.600</ele>
        <time>2020-01-21T00:34:52Z</time>
      </trkpt>
      <trkpt lat="17.003441540" lon="-96.451038670">
        <ele>1771.200</ele>
        <time>2020-01-21T00:34:53Z</time>
      </trkpt>
      <trkpt lat="17.003396850" lon="-96.450949280">
        <ele>1770.000</ele>
        <time>2020-01-21T00:34:54Z</time>
      </trkpt>
      <trkpt lat="17.003333320" lon="-96.450864400">
        <ele>1768.800</ele>
        <time>2020-01-21T00:34:55Z</time>
      </trkpt>
      <trkpt lat="17.003258110" lon="-96.450788050">
        <ele>1768.200</ele>
        <time>2020-01-21T00:34:56Z</time>
      </trkpt>
      <trkpt lat="17.003170910" lon="-96.450720480">
        <ele>1767.000</ele>
        <time>2020-01-21T00:34:57Z</time>
      </trkpt>
      <trkpt lat="17.003076740" lon="-96.450657800">
        <ele>1766.000</ele>
        <time>2020-01-21T00:34:58Z</time>
      </trkpt>
      <trkpt lat="17.002978940" lon="-96.450595850">
        <ele>1765.100</ele>
        <time>2020-01-21T00:34:59Z</time>
      </trkpt>
      <trkpt lat="17.002882800" lon="-96.450539970">
        <ele>1764.300</ele>
        <time>2020-01-21T00:35:00Z</time>
      </trkpt>
      <trkpt lat="17.002783460" lon="-96.450475140">
        <ele>1763.600</ele>
        <time>2020-01-21T00:35:01Z</time>
      </trkpt>
      <trkpt lat="17.002683490" lon="-96.450406980">
        <ele>1763.500</ele>
        <time>2020-01-21T00:35:02Z</time>
      </trkpt>
      <trkpt lat="17.002594800" lon="-96.450337600">
        <ele>1762.900</ele>
        <time>2020-01-21T00:35:03Z</time>
      </trkpt>
      <trkpt lat="17.002503240" lon="-96.450273110">
        <ele>1762.200</ele>
        <time>2020-01-21T00:35:04Z</time>
      </trkpt>
      <trkpt lat="17.002409710" lon="-96.450213390">
        <ele>1761.300</ele>
        <time>2020-01-21T00:35:05Z</time>
      </trkpt>
      <trkpt lat="17.002308810" lon="-96.450151680">
        <ele>1760.700</ele>
        <time>2020-01-21T00:35:06Z</time>
      </trkpt>
      <trkpt lat="17.002215640" lon="-96.450091090">
        <ele>1760.200</ele>
        <time>2020-01-21T00:35:07Z</time>
      </trkpt>
      <trkpt lat="17.002120250" lon="-96.450027690">
        <ele>1759.900</ele>
        <time>2020-01-21T00:35:08Z</time>
      </trkpt>
      <trkpt lat="17.002023490" lon="-96.449964120">
        <ele>1759.200</ele>
        <time>2020-01-21T00:35:09Z</time>
      </trkpt>
      <trkpt lat="17.001923060" lon="-96.449898750">
        <ele>1759.000</ele>
        <time>2020-01-21T00:35:10Z</time>
      </trkpt>
      <trkpt lat="17.001830290" lon="-96.449832540">
        <ele>1758.600</ele>
        <time>2020-01-21T00:35:11Z</time>
      </trkpt>
      <trkpt lat="17.001735860" lon="-96.449768680">
        <ele>1757.800</ele>
        <time>2020-01-21T00:35:12Z</time>
      </trkpt>
      <trkpt lat="17.001642560" lon="-96.449706600">
        <ele>1757.200</ele>
        <time>2020-01-21T00:35:13Z</time>
      </trkpt>
      <trkpt lat="17.001545820" lon="-96.449646380">
        <ele>1756.800</ele>
        <time>2020-01-21T00:35:14Z</time>
      </trkpt>
      <trkpt lat="17.001451440" lon="-96.449584250">
        <ele>1756.400</ele>
        <time>2020-01-21T00:35:15Z</time>
      </trkpt>
      <trkpt lat="17.001361560" lon="-96.449519730">
        <ele>1756.100</ele>
        <time>2020-01-21T00:35:16Z</time>
      </trkpt>
      <trkpt lat="17.001259580" lon="-96.449455850">
        <ele>1755.400</ele>
        <time>2020-01-21T00:35:17Z</time>
      </trkpt>
      <trkpt lat="17.001161430" lon="-96.449393600">
        <ele>1755.000</ele>
        <time>2020-01-21T00:35:18Z</time>
      </trkpt>
      <trkpt lat="17.001066920" lon="-96.449330850">
        <ele>1754.500</ele>
        <time>2020-01-21T00:35:19Z</time>
      </trkpt>
      <trkpt lat="17.000971400" lon="-96.449274710">
        <ele>1754.300</ele>
        <time>2020-01-21T00:35:20Z</time>
      </trkpt>
      <trkpt lat="17.000883740" lon="-96.449212180">
        <ele>1753.700</ele>
        <time>2020-01-21T00:35:21Z</time>
      </trkpt>
      <trkpt lat="17.000785250" lon="-96.449147350">
        <ele>1753.400</ele>
        <time>2020-01-21T00:35:22Z</time>
      </trkpt>
      <trkpt lat="17.000699680" lon="-96.449077500">
        <ele>1753.300</ele>
        <time>2020-01-21T00:35:23Z</time>
      </trkpt>
      <trkpt lat="17.000608720" lon="-96.449016420">
        <ele>1752.800</ele>
        <time>2020-01-21T00:35:24Z</time>
      </trkpt>
      <trkpt lat="17.000516720" lon="-96.448956150">
        <ele>1752.800</ele>
        <time>2020-01-21T00:35:25Z</time>
      </trkpt>
      <trkpt lat="17.000417630" lon="-96.448893510">
        <ele>1752.600</ele>
        <time>2020-01-21T00:35:26Z</time>
      </trkpt>
      <trkpt lat="17.000321000" lon="-96.448832240">
        <ele>1752.400</ele>
        <time>2020-01-21T00:35:27Z</time>
      </trkpt>
      <trkpt lat="17.000220800" lon="-96.448768470">
        <ele>1751.900</ele>
        <time>2020-01-21T00:35:28Z</time>
      </trkpt>
      <trkpt lat="17.000124480" lon="-96.448702470">
        <ele>1751.600</ele>
        <time>2020-01-21T00:35:29Z</time>
      </trkpt>
      <trkpt lat="17.000028280" lon="-96.448634850">
        <ele>1751.400</ele>
        <time>2020-01-21T00:35:30Z</time>
      </trkpt>
      <trkpt lat="16.999927900" lon="-96.448565990">
        <ele>1751.200</ele>
        <time>2020-01-21T00:35:31Z</time>
      </trkpt>
      <trkpt lat="16.999829010" lon="-96.448498660">
        <ele>1750.600</ele>
        <time>2020-01-21T00:35:32Z</time>
      </trkpt>
      <trkpt lat="16.999728650" lon="-96.448432650">
        <ele>1749.700</ele>
        <time>2020-01-21T00:35:33Z</time>
      </trkpt>
      <trkpt lat="16.999630540" lon="-96.448366260">
        <ele>1749.200</ele>
        <time>2020-01-21T00:35:34Z</time>
      </trkpt>
      <trkpt lat="16.999530350" lon="-96.448297310">
        <ele>1748.900</ele>
        <time>2020-01-21T00:35:35Z</time>
      </trkpt>
      <trkpt lat="16.999438150" lon="-96.448229780">
        <ele>1748.000</ele>
        <time>2020-01-21T00:35:36Z</time>
      </trkpt>
      <trkpt lat="16.999337760" lon="-96.448167570">
        <ele>1747.400</ele>
        <time>2020-01-21T00:35:37Z</time>
      </trkpt>
      <trkpt lat="16.999240940" lon="-96.448103040">
        <ele>1746.900</ele>
        <time>2020-01-21T00:35:38Z</time>
      </trkpt>
      <trkpt lat="16.999145980" lon="-96.448043970">
        <ele>1746.300</ele>
        <time>2020-01-21T00:35:39Z</time>
      </trkpt>
      <trkpt lat="16.999055310" lon="-96.447990190">
        <ele>1746.000</ele>
        <time>2020-01-21T00:35:40Z</time>
      </trkpt>
      <trkpt lat="16.998958120" lon="-96.447925920">
        <ele>1745.500</ele>
        <time>2020-01-21T00:35:41Z</time>
      </trkpt>
      <trkpt lat="16.998863180" lon="-96.447859830">
        <ele>1745.000</ele>
        <time>2020-01-21T00:35:42Z</time>
      </trkpt>
      <trkpt lat="16.998775530" lon="-96.447791580">
        <ele>1744.400</ele>
        <time>2020-01-21T00:35:43Z</time>
      </trkpt>
      <trkpt lat="16.998686890" lon="-96.447726240">
        <ele>1743.700</ele>
        <time>2020-01-21T00:35:44Z</time>
      </trkpt>
      <trkpt lat="16.998594020" lon="-96.447667010">
        <ele>1742.900</ele>
        <time>2020-01-21T00:35:45Z</time>
      </trkpt>
      <trkpt lat="16.998489880" lon="-96.447609640">
        <ele>1742.500</ele>
        <time>2020-01-21T00:35:46Z</time>
      </trkpt>
      <trkpt lat="16.998394860" lon="-96.447550000">
        <ele>1742.700</ele>
        <time>2020-01-21T00:35:47Z</time>
      </trkpt>
      <trkpt lat="16.998299090" lon="-96.447493820">
        <ele>1742.600</ele>
        <time>2020-01-21T00:35:48Z</time>
      </trkpt>
      <trkpt lat="16.998205270" lon="-96.447439170">
        <ele>1742.600</ele>
        <time>2020-01-21T00:35:49Z</time>
      </trkpt>
      <trkpt lat="16.998110310" lon="-96.447381550">
        <ele>1742.000</ele>
        <time>2020-01-21T00:35:50Z</time>
      </trkpt>
      <trkpt lat="16.998014190" lon="-96.447326140">
        <ele>1741.600</ele>
        <time>2020-01-21T00:35:51Z</time>
      </trkpt>
      <trkpt lat="16.997914790" lon="-96.447264870">
        <ele>1740.800</ele>
        <time>2020-01-21T00:35:52Z</time>
      </trkpt>
      <trkpt lat="16.997815850" lon="-96.447208900">
        <ele>1740.200</ele>
        <time>2020-01-21T00:35:53Z</time>
      </trkpt>
      <trkpt lat="16.997713630" lon="-96.447148780">
        <ele>1739.700</ele>
        <time>2020-01-21T00:35:54Z</time>
      </trkpt>
      <trkpt lat="16.997613030" lon="-96.447085820">
        <ele>1739.600</ele>
        <time>2020-01-21T00:35:55Z</time>
      </trkpt>
      <trkpt lat="16.997511730" lon="-96.447020460">
        <ele>1739.300</ele>
        <time>2020-01-21T00:35:56Z</time>
      </trkpt>
      <trkpt lat="16.997410560" lon="-96.446955100">
        <ele>1738.900</ele>
        <time>2020-01-21T00:35:57Z</time>
      </trkpt>
      <trkpt lat="16.997310480" lon="-96.446895320">
        <ele>1738.400</ele>
        <time>2020-01-21T00:35:58Z</time>
      </trkpt>
      <trkpt lat="16.997218160" lon="-96.446833200">
        <ele>1738.300</ele>
        <time>2020-01-21T00:35:59Z</time>
      </trkpt>
      <trkpt lat="16.997131410" lon="-96.446781760">
        <ele>1738.100</ele>
        <time>2020-01-21T00:36:00Z</time>
      </trkpt>
      <trkpt lat="16.997042510" lon="-96.446723050">
        <ele>1738.400</ele>
        <time>2020-01-21T00:36:01Z</time>
      </trkpt>
      <trkpt lat="16.996960220" lon="-96.446659160">
        <ele>1738.200</ele>
        <time>2020-01-21T00:36:02Z</time>
      </trkpt>
      <trkpt lat="16.996885490" lon="-96.446592260">
        <ele>1737.900</ele>
        <time>2020-01-21T00:36:03Z</time>
      </trkpt>
      <trkpt lat="16.996818970" lon="-96.446522930">
        <ele>1737.600</ele>
        <time>2020-01-21T00:36:04Z</time>
      </trkpt>
      <trkpt lat="16.996757120" lon="-96.446447140">
        <ele>1737.200</ele>
        <time>2020-01-21T00:36:05Z</time>
      </trkpt>
      <trkpt lat="16.996714180" lon="-96.446365780">
        <ele>1736.900</ele>
        <time>2020-01-21T00:36:06Z</time>
      </trkpt>
      <trkpt lat="16.996672540" lon="-96.446269550">
        <ele>1736.000</ele>
        <time>2020-01-21T00:36:07Z</time>
      </trkpt>
      <trkpt lat="16.996646050" lon="-96.446163170">
        <ele>1735.800</ele>
        <time>2020-01-21T00:36:08Z</time>
      </trkpt>
      <trkpt lat="16.996637170" lon="-96.446049760">
        <ele>1735.200</ele>
        <time>2020-01-21T00:36:09Z</time>
      </trkpt>
      <trkpt lat="16.996633990" lon="-96.445937430">
        <ele>1734.800</ele>
        <time>2020-01-21T00:36:10Z</time>
      </trkpt>
      <trkpt lat="16.996636800" lon="-96.445821330">
        <ele>1734.400</ele>
        <time>2020-01-21T00:36:11Z</time>
      </trkpt>
      <trkpt lat="16.996635340" lon="-96.445703290">
        <ele>1734.300</ele>
        <time>2020-01-21T00:36:12Z</time>
      </trkpt>
      <trkpt lat="16.996633870" lon="-96.445583360">
        <ele>1733.500</ele>
        <time>2020-01-21T00:36:13Z</time>
      </trkpt>
      <trkpt lat="16.996634570" lon="-96.445455150">
        <ele>1732.800</ele>
        <time>2020-01-21T00:36:14Z</time>
      </trkpt>
      <trkpt lat="16.996636510" lon="-96.445326840">
        <ele>1732.500</ele>
        <time>2020-01-21T00:36:15Z</time>
      </trkpt>
      <trkpt lat="16.996638460" lon="-96.445199180">
        <ele>1732.300</ele>
        <time>2020-01-21T00:36:16Z</time>
      </trkpt>
      <trkpt lat="16.996635440" lon="-96.445073650">
        <ele>1731.900</ele>
        <time>2020-01-21T00:36:17Z</time>
      </trkpt>
      <trkpt lat="16.996638730" lon="-96.444946730">
        <ele>1731.700</ele>
        <time>2020-01-21T00:36:18Z</time>
      </trkpt>
      <trkpt lat="16.996637840" lon="-96.444814540">
        <ele>1731.100</ele>
        <time>2020-01-21T00:36:19Z</time>
      </trkpt>
      <trkpt lat="16.996637700" lon="-96.444688160">
        <ele>1730.600</ele>
        <time>2020-01-21T00:36:20Z</time>
      </trkpt>
      <trkpt lat="16.996637240" lon="-96.444560000">
        <ele>1729.800</ele>
        <time>2020-01-21T00:36:21Z</time>
      </trkpt>
      <trkpt lat="16.996641300" lon="-96.444437110">
        <ele>1729.600</ele>
        <time>2020-01-21T00:36:22Z</time>
      </trkpt>
      <trkpt lat="16.996643540" lon="-96.444314710">
        <ele>1729.000</ele>
        <time>2020-01-21T00:36:23Z</time>
      </trkpt>
      <trkpt lat="16.996644350" lon="-96.444194400">
        <ele>1728.500</ele>
        <time>2020-01-21T00:36:24Z</time>
      </trkpt>
      <trkpt lat="16.996644750" lon="-96.444075770">
        <ele>1728.000</ele>
        <time>2020-01-21T00:36:25Z</time>
      </trkpt>
      <trkpt lat="16.996640820" lon="-96.443950870">
        <ele>1727.800</ele>
        <time>2020-01-21T00:36:26Z</time>
      </trkpt>
      <trkpt lat="16.996643430" lon="-96.443828650">
        <ele>1727.500</ele>
        <time>2020-01-21T00:36:27Z</time>
      </trkpt>
      <trkpt lat="16.996640980" lon="-96.443708520">
        <ele>1727.400</ele>
        <time>2020-01-21T00:36:28Z</time>
      </trkpt>
      <trkpt lat="16.996636500" lon="-96.443585260">
        <ele>1727.200</ele>
        <time>2020-01-21T00:36:29Z</time>
      </trkpt>
      <trkpt lat="16.996628550" lon="-96.443464590">
        <ele>1727.000</ele>
        <time>2020-01-21T00:36:30Z</time>
      </trkpt>
      <trkpt lat="16.996619530" lon="-96.443343260">
        <ele>1726.500</ele>
        <time>2020-01-21T00:36:31Z</time>
      </trkpt>
      <trkpt lat="16.996612250" lon="-96.443220180">
        <ele>1726.000</ele>
        <time>2020-01-21T00:36:32Z</time>
      </trkpt>
      <trkpt lat="16.996604060" lon="-96.443099720">
        <ele>1725.500</ele>
        <time>2020-01-21T00:36:33Z</time>
      </trkpt>
      <trkpt lat="16.996595230" lon="-96.442982990">
        <ele>1725.100</ele>
        <time>2020-01-21T00:36:34Z</time>
      </trkpt>
      <trkpt lat="16.996587960" lon="-96.442862630">
        <ele>1724.600</ele>
        <time>2020-01-21T00:36:35Z</time>
      </trkpt>
      <trkpt lat="16.996581710" lon="-96.442744090">
        <ele>1724.100</ele>
        <time>2020-01-21T00:36:36Z</time>
      </trkpt>
      <trkpt lat="16.996575130" lon="-96.442626450">
        <ele>1723.800</ele>
        <time>2020-01-21T00:36:37Z</time>
      </trkpt>
      <trkpt lat="16.996567210" lon="-96.442507970">
        <ele>1723.400</ele>
        <time>2020-01-21T00:36:38Z</time>
      </trkpt>
      <trkpt lat="16.996555180" lon="-96.442387880">
        <ele>1722.900</ele>
        <time>2020-01-21T00:36:39Z</time>
      </trkpt>
      <trkpt lat="16.996544050" lon="-96.442271270">
        <ele>1722.500</ele>
        <time>2020-01-21T00:36:40Z</time>
      </trkpt>
      <trkpt lat="16.996534610" lon="-96.442158310">
        <ele>1722.100</ele>
        <time>2020-01-21T00:36:41Z</time>
      </trkpt>
      <trkpt lat="16.996524230" lon="-96.442044150">
        <ele>1721.400</ele>
        <time>2020-01-21T00:36:42Z</time>
      </trkpt>
      <trkpt lat="16.996517240" lon="-96.441928110">
        <ele>1721.000</ele>
        <time>2020-01-21T00:36:43Z</time>
      </trkpt>
      <trkpt lat="16.996513790" lon="-96.441809210">
        <ele>1720.800</ele>
        <time>2020-01-21T00:36:44Z</time>
      </trkpt>
      <trkpt lat="16.996510380" lon="-96.441691610">
        <ele>1720.200</ele>
        <time>2020-01-21T00:36:45Z</time>
      </trkpt>
      <trkpt lat="16.996509390" lon="-96.441580480">
        <ele>1719.600</ele>
        <time>2020-01-21T00:36:46Z</time>
      </trkpt>
      <trkpt lat="16.996506940" lon="-96.441469670">
        <ele>1719.400</ele>
        <time>2020-01-21T00:36:47Z</time>
      </trkpt>
      <trkpt lat="16.996502740" lon="-96.441362140">
        <ele>1718.800</ele>
        <time>2020-01-21T00:36:48Z</time>
      </trkpt>
      <trkpt lat="16.996518290" lon="-96.441253710">
        <ele>1718.200</ele>
        <time>2020-01-21T00:36:49Z</time>
      </trkpt>
      <trkpt lat="16.996528740" lon="-96.441142110">
        <ele>1718.200</ele>
        <time>2020-01-21T00:36:50Z</time>
      </trkpt>
      <trkpt lat="16.996538770" lon="-96.441032540">
        <ele>1717.900</ele>
        <time>2020-01-21T00:36:51Z</time>
      </trkpt>
      <trkpt lat="16.996553040" lon="-96.440923810">
        <ele>1717.500</ele>
        <time>2020-01-21T00:36:52Z</time>
      </trkpt>
      <trkpt lat="16.996568820" lon="-96.440813550">
        <ele>1717.100</ele>
        <time>2020-01-21T00:36:53Z</time>
      </trkpt>
      <trkpt lat="16.996581740" lon="-96.440705500">
        <ele>1716.700</ele>
        <time>2020-01-21T00:36:54Z</time>
      </trkpt>
      <trkpt lat="16.996592130" lon="-96.440603740">
        <ele>1715.800</ele>
        <time>2020-01-21T00:36:55Z</time>
      </trkpt>
      <trkpt lat="16.996602480" lon="-96.440504410">
        <ele>1715.500</ele>
        <time>2020-01-21T00:36:56Z</time>
      </trkpt>
      <trkpt lat="16.996618910" lon="-96.440418870">
        <ele>1714.900</ele>
        <time>2020-01-21T00:36:57Z</time>
      </trkpt>
      <trkpt lat="16.996631260" lon="-96.440349290">
        <ele>1714.300</ele>
        <time>2020-01-21T00:36:58Z</time>
      </trkpt>
      <trkpt lat="16.996641210" lon="-96.440276440">
        <ele>1713.900</ele>
        <time>2020-01-21T00:36:59Z</time>
      </trkpt>
      <trkpt lat="16.996649450" lon="-96.440204550">
        <ele>1713.800</ele>
        <time>2020-01-21T00:37:00Z</time>
      </trkpt>
      <trkpt lat="16.996655630" lon="-96.440137360">
        <ele>1713.300</ele>
        <time>2020-01-21T00:37:01Z</time>
      </trkpt>
      <trkpt lat="16.996655820" lon="-96.440068110">
        <ele>1713.100</ele>
        <time>2020-01-21T00:37:02Z</time>
      </trkpt>
      <trkpt lat="16.996654060" lon="-96.439997010">
        <ele>1713.500</ele>
        <time>2020-01-21T00:37:03Z</time>
      </trkpt>
      <trkpt lat="16.996650380" lon="-96.439922450">
        <ele>1714.100</ele>
        <time>2020-01-21T00:37:04Z</time>
      </trkpt>
      <trkpt lat="16.996639080" lon="-96.439849140">
        <ele>1714.500</ele>
        <time>2020-01-21T00:37:05Z</time>
      </trkpt>
      <trkpt lat="16.996620170" lon="-96.439781160">
        <ele>1714.700</ele>
        <time>2020-01-21T00:37:06Z</time>
      </trkpt>
      <trkpt lat="16.996584470" lon="-96.439708550">
        <ele>1714.900</ele>
        <time>2020-01-21T00:37:07Z</time>
      </trkpt>
      <trkpt lat="16.996540700" lon="-96.439627960">
        <ele>1714.900</ele>
        <time>2020-01-21T00:37:08Z</time>
      </trkpt>
      <trkpt lat="16.996496760" lon="-96.439543010">
        <ele>1714.600</ele>
        <time>2020-01-21T00:37:09Z</time>
      </trkpt>
      <trkpt lat="16.996449010" lon="-96.439456150">
        <ele>1714.300</ele>
        <time>2020-01-21T00:37:10Z</time>
      </trkpt>
      <trkpt lat="16.996400190" lon="-96.439365720">
        <ele>1714.100</ele>
        <time>2020-01-21T00:37:11Z</time>
      </trkpt>
      <trkpt lat="16.996346560" lon="-96.439272870">
        <ele>1713.900</ele>
        <time>2020-01-21T00:37:12Z</time>
      </trkpt>
      <trkpt lat="16.996294540" lon="-96.439176300">
        <ele>1713.700</ele>
        <time>2020-01-21T00:37:13Z</time>
      </trkpt>
      <trkpt lat="16.996239220" lon="-96.439078080">
        <ele>1713.700</ele>
        <time>2020-01-21T00:37:14Z</time>
      </trkpt>
      <trkpt lat="16.996182450" lon="-96.438983570">
        <ele>1713.300</ele>
        <time>2020-01-21T00:37:15Z</time>
      </trkpt>
      <trkpt lat="16.996130520" lon="-96.438888570">
        <ele>1713.000</ele>
        <time>2020-01-21T00:37:16Z</time>
      </trkpt>
      <trkpt lat="16.996086940" lon="-96.438792350">
        <ele>1713.000</ele>
        <time>2020-01-21T00:37:17Z</time>
      </trkpt>
      <trkpt lat="16.996054400" lon="-96.438690260">
        <ele>1713.000</ele>
        <time>2020-01-21T00:37:18Z</time>
      </trkpt>
      <trkpt lat="16.996037430" lon="-96.438585570">
        <ele>1713.200</ele>
        <time>2020-01-21T00:37:19Z</time>
      </trkpt>
      <trkpt lat="16.996018290" lon="-96.438483660">
        <ele>1712.800</ele>
        <time>2020-01-21T00:37:20Z</time>
      </trkpt>
      <trkpt lat="16.996010170" lon="-96.438378310">
        <ele>1712.900</ele>
        <time>2020-01-21T00:37:21Z</time>
      </trkpt>
      <trkpt lat="16.996001640" lon="-96.438269270">
        <ele>1712.800</ele>
        <time>2020-01-21T00:37:22Z</time>
      </trkpt>
      <trkpt lat="16.995995110" lon="-96.438156540">
        <ele>1712.800</ele>
        <time>2020-01-21T00:37:23Z</time>
      </trkpt>
      <trkpt lat="16.995987520" lon="-96.438042530">
        <ele>1713.200</ele>
        <time>2020-01-21T00:37:24Z</time>
      </trkpt>
      <trkpt lat="16.995981940" lon="-96.437931360">
        <ele>1713.200</ele>
        <time>2020-01-21T00:37:25Z</time>
      </trkpt>
      <trkpt lat="16.995972740" lon="-96.437825570">
        <ele>1713.200</ele>
        <time>2020-01-21T00:37:26Z</time>
      </trkpt>
      <trkpt lat="16.995959790" lon="-96.437718090">
        <ele>1713.200</ele>
        <time>2020-01-21T00:37:27Z</time>
      </trkpt>
      <trkpt lat="16.995949060" lon="-96.437612890">
        <ele>1713.600</ele>
        <time>2020-01-21T00:37:28Z</time>
      </trkpt>
      <trkpt lat="16.995926350" lon="-96.437505810">
        <ele>1713.600</ele>
        <time>2020-01-21T00:37:29Z</time>
      </trkpt>
      <trkpt lat="16.995901620" lon="-96.437402240">
        <ele>1713.200</ele>
        <time>2020-01-21T00:37:30Z</time>
      </trkpt>
      <trkpt lat="16.995866860" lon="-96.437289320">
        <ele>1713.300</ele>
        <time>2020-01-21T00:37:31Z</time>
      </trkpt>
      <trkpt lat="16.995841170" lon="-96.437180950">
        <ele>1713.000</ele>
        <time>2020-01-21T00:37:32Z</time>
      </trkpt>
      <trkpt lat="16.995816910" lon="-96.437072690">
        <ele>1713.000</ele>
        <time>2020-01-21T00:37:33Z</time>
      </trkpt>
      <trkpt lat="16.995790900" lon="-96.436966930">
        <ele>1712.800</ele>
        <time>2020-01-21T00:37:34Z</time>
      </trkpt>
      <trkpt lat="16.995767060" lon="-96.436862690">
        <ele>1712.400</ele>
        <time>2020-01-21T00:37:35Z</time>
      </trkpt>
      <trkpt lat="16.995743080" lon="-96.436762070">
        <ele>1712.300</ele>
        <time>2020-01-21T00:37:36Z</time>
      </trkpt>
      <trkpt lat="16.995723600" lon="-96.436659720">
        <ele>1712.000</ele>
        <time>2020-01-21T00:37:37Z</time>
      </trkpt>
      <trkpt lat="16.995702570" lon="-96.436558080">
        <ele>1711.900</ele>
        <time>2020-01-21T00:37:38Z</time>
      </trkpt>
      <trkpt lat="16.995682750" lon="-96.436458970">
        <ele>1711.600</ele>
        <time>2020-01-21T00:37:39Z</time>
      </trkpt>
      <trkpt lat="16.995668460" lon="-96.436362850">
        <ele>1711.700</ele>
        <time>2020-01-21T00:37:40Z</time>
      </trkpt>
      <trkpt lat="16.995658690" lon="-96.436274800">
        <ele>1711.300</ele>
        <time>2020-01-21T00:37:41Z</time>
      </trkpt>
      <trkpt lat="16.995645150" lon="-96.436195230">
        <ele>1710.900</ele>
        <time>2020-01-21T00:37:42Z</time>
      </trkpt>
      <trkpt lat="16.995640420" lon="-96.436134900">
        <ele>1711.100</ele>
        <time>2020-01-21T00:37:43Z</time>
      </trkpt>
      <trkpt lat="16.995638180" lon="-96.436079610">
        <ele>1710.800</ele>
        <time>2020-01-21T00:37:44Z</time>
      </trkpt>
      <trkpt lat="16.995635660" lon="-96.436023920">
        <ele>1710.800</ele>
        <time>2020-01-21T00:37:45Z</time>
      </trkpt>
      <trkpt lat="16.995635980" lon="-96.435971710">
        <ele>1711.400</ele>
        <time>2020-01-21T00:37:46Z</time>
      </trkpt>
      <trkpt lat="16.995635900" lon="-96.435913860">
        <ele>1711.500</ele>
        <time>2020-01-21T00:37:47Z</time>
      </trkpt>
      <trkpt lat="16.995636370" lon="-96.435850870">
        <ele>1711.400</ele>
        <time>2020-01-21T00:37:48Z</time>
      </trkpt>
      <trkpt lat="16.995635890" lon="-96.435777840">
        <ele>1711.000</ele>
        <time>2020-01-21T00:37:49Z</time>
      </trkpt>
      <trkpt lat="16.995635360" lon="-96.435702820">
        <ele>1711.100</ele>
        <time>2020-01-21T00:37:50Z</time>
      </trkpt>
      <trkpt lat="16.995628400" lon="-96.435628530">
        <ele>1711.100</ele>
        <time>2020-01-21T00:37:51Z</time>
      </trkpt>
      <trkpt lat="16.995626560" lon="-96.435548460">
        <ele>1710.900</ele>
        <time>2020-01-21T00:37:52Z</time>
      </trkpt>
      <trkpt lat="16.995627030" lon="-96.435463530">
        <ele>1710.800</ele>
        <time>2020-01-21T00:37:53Z</time>
      </trkpt>
      <trkpt lat="16.995626530" lon="-96.435390210">
        <ele>1710.400</ele>
        <time>2020-01-21T00:37:54Z</time>
      </trkpt>
      <trkpt lat="16.995620430" lon="-96.435330660">
        <ele>1710.200</ele>
        <time>2020-01-21T00:37:55Z</time>
      </trkpt>
      <trkpt lat="16.995611450" lon="-96.435272580">
        <ele>1709.700</ele>
        <time>2020-01-21T00:37:56Z</time>
      </trkpt>
      <trkpt lat="16.995605590" lon="-96.435220730">
        <ele>1709.100</ele>
        <time>2020-01-21T00:37:57Z</time>
      </trkpt>
      <trkpt lat="16.995602360" lon="-96.435163020">
        <ele>1709.000</ele>
        <time>2020-01-21T00:37:58Z</time>
      </trkpt>
      <trkpt lat="16.995594890" lon="-96.435111760">
        <ele>1709.400</ele>
        <time>2020-01-21T00:37:59Z</time>
      </trkpt>
      <trkpt lat="16.995582260" lon="-96.435048100">
        <ele>1709.500</ele>
        <time>2020-01-21T00:38:00Z</time>
      </trkpt>
      <trkpt lat="16.995576060" lon="-96.434976220">
        <ele>1709.300</ele>
        <time>2020-01-21T00:38:01Z</time>
      </trkpt>
      <trkpt lat="16.995567790" lon="-96.434898420">
        <ele>1709.100</ele>
        <time>2020-01-21T00:38:02Z</time>
      </trkpt>
      <trkpt lat="16.995554650" lon="-96.434817870">
        <ele>1708.900</ele>
        <time>2020-01-21T00:38:03Z</time>
      </trkpt>
      <trkpt lat="16.995535210" lon="-96.434734870">
        <ele>1708.700</ele>
        <time>2020-01-21T00:38:04Z</time>
      </trkpt>
      <trkpt lat="16.995518630" lon="-96.434653120">
        <ele>1708.500</ele>
        <time>2020-01-21T00:38:05Z</time>
      </trkpt>
      <trkpt lat="16.995499130" lon="-96.434563290">
        <ele>1708.200</ele>
        <time>2020-01-21T00:38:06Z</time>
      </trkpt>
      <trkpt lat="16.995483930" lon="-96.434478600">
        <ele>1708.000</ele>
        <time>2020-01-21T00:38:07Z</time>
      </trkpt>
      <trkpt lat="16.995463240" lon="-96.434407750">
        <ele>1708.000</ele>
        <time>2020-01-21T00:38:08Z</time>
      </trkpt>
      <trkpt lat="16.995441860" lon="-96.434329610">
        <ele>1709.100</ele>
        <time>2020-01-21T00:38:09Z</time>
      </trkpt>
      <trkpt lat="16.995425770" lon="-96.434262190">
        <ele>1708.800</ele>
        <time>2020-01-21T00:38:10Z</time>
      </trkpt>
      <trkpt lat="16.995414860" lon="-96.434207680">
        <ele>1709.000</ele>
        <time>2020-01-21T00:38:11Z</time>
      </trkpt>
      <trkpt lat="16.995400060" lon="-96.434144510">
        <ele>1709.100</ele>
        <time>2020-01-21T00:38:13Z</time>
      </trkpt>
      <trkpt lat="16.995388800" lon="-96.434085850">
        <ele>1709.000</ele>
        <time>2020-01-21T00:38:15Z</time>
      </trkpt>
      <trkpt lat="16.995383090" lon="-96.434042150">
        <ele>1708.700</ele>
        <time>2020-01-21T00:38:16Z</time>
      </trkpt>
      <trkpt lat="16.995376790" lon="-96.433996500">
        <ele>1708.900</ele>
        <time>2020-01-21T00:38:17Z</time>
      </trkpt>
      <trkpt lat="16.995372840" lon="-96.433945590">
        <ele>1708.800</ele>
        <time>2020-01-21T00:38:18Z</time>
      </trkpt>
      <trkpt lat="16.995368520" lon="-96.433891140">
        <ele>1709.500</ele>
        <time>2020-01-21T00:38:19Z</time>
      </trkpt>
      <trkpt lat="16.995359410" lon="-96.433828090">
        <ele>1709.300</ele>
        <time>2020-01-21T00:38:20Z</time>
      </trkpt>
      <trkpt lat="16.995347650" lon="-96.433764990">
        <ele>1708.800</ele>
        <time>2020-01-21T00:38:21Z</time>
      </trkpt>
      <trkpt lat="16.995335260" lon="-96.433702140">
        <ele>1708.600</ele>
        <time>2020-01-21T00:38:22Z</time>
      </trkpt>
      <trkpt lat="16.995325830" lon="-96.433640450">
        <ele>1708.500</ele>
        <time>2020-01-21T00:38:23Z</time>
      </trkpt>
      <trkpt lat="16.995316440" lon="-96.433583770">
        <ele>1708.100</ele>
        <time>2020-01-21T00:38:24Z</time>
      </trkpt>
      <trkpt lat="16.995310370" lon="-96.433529410">
        <ele>1708.300</ele>
        <time>2020-01-21T00:38:25Z</time>
      </trkpt>
      <trkpt lat="16.995302230" lon="-96.433473590">
        <ele>1708.300</ele>
        <time>2020-01-21T00:38:26Z</time>
      </trkpt>
      <trkpt lat="16.995293390" lon="-96.433419600">
        <ele>1707.900</ele>
        <time>2020-01-21T00:38:27Z</time>
      </trkpt>
      <trkpt lat="16.995290120" lon="-96.433369450">
        <ele>1707.100</ele>
        <time>2020-01-21T00:38:28Z</time>
      </trkpt>
      <trkpt lat="16.995286910" lon="-96.433328570">
        <ele>1706.900</ele>
        <time>2020-01-21T00:38:29Z</time>
      </trkpt>
      <trkpt lat="16.995280710" lon="-96.433266470">
        <ele>1707.300</ele>
        <time>2020-01-21T00:38:31Z</time>
      </trkpt>
      <trkpt lat="16.995285890" lon="-96.433224950">
        <ele>1707.600</ele>
        <time>2020-01-21T00:38:33Z</time>
      </trkpt>
      <trkpt lat="16.995312060" lon="-96.433162680">
        <ele>1707.900</ele>
        <time>2020-01-21T00:38:35Z</time>
      </trkpt>
      <trkpt lat="16.995334010" lon="-96.433132400">
        <ele>1707.500</ele>
        <time>2020-01-21T00:38:36Z</time>
      </trkpt>
      <trkpt lat="16.995363370" lon="-96.433103440">
        <ele>1707.400</ele>
        <time>2020-01-21T00:38:37Z</time>
      </trkpt>
      <trkpt lat="16.995443650" lon="-96.433093990">
        <ele>1706.600</ele>
        <time>2020-01-21T00:38:38Z</time>
      </trkpt>
      <trkpt lat="16.995494700" lon="-96.433074000">
        <ele>1706.800</ele>
        <time>2020-01-21T00:38:39Z</time>
      </trkpt>
      <trkpt lat="16.995543580" lon="-96.433050220">
        <ele>1706.800</ele>
        <time>2020-01-21T00:38:40Z</time>
      </trkpt>
      <trkpt lat="16.995596570" lon="-96.433030570">
        <ele>1706.300</ele>
        <time>2020-01-21T00:38:41Z</time>
      </trkpt>
      <trkpt lat="16.995649020" lon="-96.433012340">
        <ele>1706.700</ele>
        <time>2020-01-21T00:38:42Z</time>
      </trkpt>
      <trkpt lat="16.995697920" lon="-96.432991580">
        <ele>1706.400</ele>
        <time>2020-01-21T00:38:43Z</time>
      </trkpt>
      <trkpt lat="16.995753290" lon="-96.432970260">
        <ele>1706.300</ele>
        <time>2020-01-21T00:38:44Z</time>
      </trkpt>
      <trkpt lat="16.995809860" lon="-96.432945400">
        <ele>1706.300</ele>
        <time>2020-01-21T00:38:45Z</time>
      </trkpt>
      <trkpt lat="16.995868520" lon="-96.432919360">
        <ele>1705.900</ele>
        <time>2020-01-21T00:38:46Z</time>
      </trkpt>
      <trkpt lat="16.995922830" lon="-96.432892260">
        <ele>1705.600</ele>
        <time>2020-01-21T00:38:47Z</time>
      </trkpt>
      <trkpt lat="16.995978190" lon="-96.432860390">
        <ele>1705.300</ele>
        <time>2020-01-21T00:38:48Z</time>
      </trkpt>
      <trkpt lat="16.996034270" lon="-96.432827570">
        <ele>1705.300</ele>
        <time>2020-01-21T00:38:49Z</time>
      </trkpt>
      <trkpt lat="16.996087050" lon="-96.432799280">
        <ele>1705.400</ele>
        <time>2020-01-21T00:38:50Z</time>
      </trkpt>
      <trkpt lat="16.996138010" lon="-96.432774400">
        <ele>1705.300</ele>
        <time>2020-01-21T00:38:51Z</time>
      </trkpt>
      <trkpt lat="16.996175970" lon="-96.432751120">
        <ele>1705.100</ele>
        <time>2020-01-21T00:38:52Z</time>
      </trkpt>
      <trkpt lat="16.996212790" lon="-96.432733430">
        <ele>1705.400</ele>
        <time>2020-01-21T00:38:53Z</time>
      </trkpt>
      <trkpt lat="16.996244630" lon="-96.432715510">
        <ele>1705.300</ele>
        <time>2020-01-21T00:38:54Z</time>
      </trkpt>
      <trkpt lat="16.996274690" lon="-96.432694000">
        <ele>1705.100</ele>
        <time>2020-01-21T00:38:55Z</time>
      </trkpt>
      <trkpt lat="16.996322010" lon="-96.432665660">
        <ele>1705.200</ele>
        <time>2020-01-21T00:38:57Z</time>
      </trkpt>
      <trkpt lat="16.996363940" lon="-96.432628860">
        <ele>1704.700</ele>
        <time>2020-01-21T00:38:59Z</time>
      </trkpt>
      <trkpt lat="16.996337950" lon="-96.432538360">
        <ele>1704.600</ele>
        <time>2020-01-21T00:39:01Z</time>
      </trkpt>
      <trkpt lat="16.996318020" lon="-96.432489440">
        <ele>1704.400</ele>
        <time>2020-01-21T00:39:02Z</time>
      </trkpt>
      <trkpt lat="16.996312120" lon="-96.432446880">
        <ele>1704.600</ele>
        <time>2020-01-21T00:39:03Z</time>
      </trkpt>
      <trkpt lat="16.996331000" lon="-96.432373960">
        <ele>1704.800</ele>
        <time>2020-01-21T00:39:04Z</time>
      </trkpt>
      <trkpt lat="16.996285700" lon="-96.432293540">
        <ele>1703.800</ele>
        <time>2020-01-21T00:39:05Z</time>
      </trkpt>
      <trkpt lat="16.996257180" lon="-96.432205920">
        <ele>1703.500</ele>
        <time>2020-01-21T00:39:06Z</time>
      </trkpt>
      <trkpt lat="16.996225460" lon="-96.432122290">
        <ele>1703.200</ele>
        <time>2020-01-21T00:39:07Z</time>
      </trkpt>
      <trkpt lat="16.996194610" lon="-96.432040790">
        <ele>1703.100</ele>
        <time>2020-01-21T00:39:08Z</time>
      </trkpt>
      <trkpt lat="16.996163110" lon="-96.431968480">
        <ele>1702.900</ele>
        <time>2020-01-21T00:39:09Z</time>
      </trkpt>
      <trkpt lat="16.996130840" lon="-96.431894980">
        <ele>1702.000</ele>
        <time>2020-01-21T00:39:10Z</time>
      </trkpt>
      <trkpt lat="16.996105760" lon="-96.431821440">
        <ele>1701.800</ele>
        <time>2020-01-21T00:39:11Z</time>
      </trkpt>
      <trkpt lat="16.996094180" lon="-96.431748360">
        <ele>1702.300</ele>
        <time>2020-01-21T00:39:12Z</time>
      </trkpt>
      <trkpt lat="16.996092830" lon="-96.431675890">
        <ele>1701.600</ele>
        <time>2020-01-21T00:39:13Z</time>
      </trkpt>
      <trkpt lat="16.996100480" lon="-96.431608040">
        <ele>1701.600</ele>
        <time>2020-01-21T00:39:14Z</time>
      </trkpt>
      <trkpt lat="16.996108640" lon="-96.431544340">
        <ele>1701.600</ele>
        <time>2020-01-21T00:39:15Z</time>
      </trkpt>
      <trkpt lat="16.996117300" lon="-96.431494600">
        <ele>1701.600</ele>
        <time>2020-01-21T00:39:16Z</time>
      </trkpt>
      <trkpt lat="16.996125560" lon="-96.431454630">
        <ele>1701.700</ele>
        <time>2020-01-21T00:39:17Z</time>
      </trkpt>
      <trkpt lat="16.996145400" lon="-96.431402070">
        <ele>1701.800</ele>
        <time>2020-01-21T00:39:19Z</time>
      </trkpt>
      <trkpt lat="16.996159560" lon="-96.431352080">
        <ele>1702.000</ele>
        <time>2020-01-21T00:39:21Z</time>
      </trkpt>
      <trkpt lat="16.996152930" lon="-96.431308360">
        <ele>1883.400</ele>
        <time>2020-01-21T00:39:23Z</time>
      </trkpt>
      <trkpt lat="16.996195870" lon="-96.431284180">
        <ele>1766.900</ele>
        <time>2020-01-21T00:39:25Z</time>
      </trkpt>
      <trkpt lat="16.996238450" lon="-96.431285960">
        <ele>1749.500</ele>
        <time>2020-01-21T00:39:26Z</time>
      </trkpt>
      <trkpt lat="16.996287860" lon="-96.431294000">
        <ele>1731.200</ele>
        <time>2020-01-21T00:39:27Z</time>
      </trkpt>
      <trkpt lat="16.996353710" lon="-96.431314010">
        <ele>1731.500</ele>
        <time>2020-01-21T00:39:28Z</time>
      </trkpt>
      <trkpt lat="16.996408230" lon="-96.431319710">
        <ele>1721.100</ele>
        <time>2020-01-21T00:39:29Z</time>
      </trkpt>
      <trkpt lat="16.996454890" lon="-96.431319480">
        <ele>1717.100</ele>
        <time>2020-01-21T00:39:30Z</time>
      </trkpt>
      <trkpt lat="16.996501520" lon="-96.431316260">
        <ele>1714.300</ele>
        <time>2020-01-21T00:39:31Z</time>
      </trkpt>
      <trkpt lat="16.996556740" lon="-96.431312710">
        <ele>1710.800</ele>
        <time>2020-01-21T00:39:32Z</time>
      </trkpt>
      <trkpt lat="16.996615050" lon="-96.431301360">
        <ele>1707.100</ele>
        <time>2020-01-21T00:39:33Z</time>
      </trkpt>
      <trkpt lat="16.996678990" lon="-96.431286710">
        <ele>1705.700</ele>
        <time>2020-01-21T00:39:34Z</time>
      </trkpt>
      <trkpt lat="16.996747760" lon="-96.431266200">
        <ele>1704.300</ele>
        <time>2020-01-21T00:39:35Z</time>
      </trkpt>
      <trkpt lat="16.996823190" lon="-96.431245900">
        <ele>1703.500</ele>
        <time>2020-01-21T00:39:36Z</time>
      </trkpt>
      <trkpt lat="16.996895570" lon="-96.431219570">
        <ele>1703.600</ele>
        <time>2020-01-21T00:39:37Z</time>
      </trkpt>
      <trkpt lat="16.996972940" lon="-96.431194820">
        <ele>1703.600</ele>
        <time>2020-01-21T00:39:38Z</time>
      </trkpt>
      <trkpt lat="16.997043260" lon="-96.431175550">
        <ele>1703.400</ele>
        <time>2020-01-21T00:39:39Z</time>
      </trkpt>
      <trkpt lat="16.997121810" lon="-96.431159630">
        <ele>1702.200</ele>
        <time>2020-01-21T00:39:40Z</time>
      </trkpt>
      <trkpt lat="16.997196580" lon="-96.431140770">
        <ele>1702.300</ele>
        <time>2020-01-21T00:39:41Z</time>
      </trkpt>
      <trkpt lat="16.997269330" lon="-96.431121010">
        <ele>1701.700</ele>
        <time>2020-01-21T00:39:42Z</time>
      </trkpt>
      <trkpt lat="16.997338960" lon="-96.431098970">
        <ele>1701.300</ele>
        <time>2020-01-21T00:39:43Z</time>
      </trkpt>
      <trkpt lat="16.997399040" lon="-96.431071420">
        <ele>1701.200</ele>
        <time>2020-01-21T00:39:44Z</time>
      </trkpt>
      <trkpt lat="16.997457020" lon="-96.431044660">
        <ele>1701.100</ele>
        <time>2020-01-21T00:39:45Z</time>
      </trkpt>
      <trkpt lat="16.997514120" lon="-96.431020670">
        <ele>1701.900</ele>
        <time>2020-01-21T00:39:46Z</time>
      </trkpt>
      <trkpt lat="16.997557590" lon="-96.431001480">
        <ele>1701.500</ele>
        <time>2020-01-21T00:39:47Z</time>
      </trkpt>
      <trkpt lat="16.997606080" lon="-96.430984560">
        <ele>1701.600</ele>
        <time>2020-01-21T00:39:49Z</time>
      </trkpt>
      <trkpt lat="16.997653610" lon="-96.430970580">
        <ele>1701.400</ele>
        <time>2020-01-21T00:39:51Z</time>
      </trkpt>
      <trkpt lat="16.997686330" lon="-96.430951100">
        <ele>1701.900</ele>
        <time>2020-01-21T00:39:52Z</time>
      </trkpt>
      <trkpt lat="16.997721460" lon="-96.430935360">
        <ele>1701.700</ele>
        <time>2020-01-21T00:39:53Z</time>
      </trkpt>
      <trkpt lat="16.997754900" lon="-96.430918770">
        <ele>1702.900</ele>
        <time>2020-01-21T00:39:54Z</time>
      </trkpt>
      <trkpt lat="16.997810510" lon="-96.430892990">
        <ele>1702.500</ele>
        <time>2020-01-21T00:39:56Z</time>
      </trkpt>
      <trkpt lat="16.997880230" lon="-96.430860200">
        <ele>1703.300</ele>
        <time>2020-01-21T00:39:58Z</time>
      </trkpt>
      <trkpt lat="16.997916570" lon="-96.430842070">
        <ele>1704.000</ele>
        <time>2020-01-21T00:39:59Z</time>
      </trkpt>
      <trkpt lat="16.997951600" lon="-96.430824950">
        <ele>1703.800</ele>
        <time>2020-01-21T00:40:00Z</time>
      </trkpt>
      <trkpt lat="16.998008620" lon="-96.430795970">
        <ele>1704.000</ele>
        <time>2020-01-21T00:40:02Z</time>
      </trkpt>
      <trkpt lat="16.998043620" lon="-96.430772620">
        <ele>1703.500</ele>
        <time>2020-01-21T00:40:04Z</time>
      </trkpt>
      <trkpt lat="16.998076320" lon="-96.430749670">
        <ele>1703.200</ele>
        <time>2020-01-21T00:40:06Z</time>
      </trkpt>
      <trkpt lat="16.998110010" lon="-96.430732620">
        <ele>1703.400</ele>
        <time>2020-01-21T00:40:07Z</time>
      </trkpt>
      <trkpt lat="16.998163740" lon="-96.430717250">
        <ele>1703.600</ele>
        <time>2020-01-21T00:40:08Z</time>
      </trkpt>
      <trkpt lat="16.998208170" lon="-96.430691730">
        <ele>1704.000</ele>
        <time>2020-01-21T00:40:09Z</time>
      </trkpt>
      <trkpt lat="16.998252660" lon="-96.430664290">
        <ele>1704.300</ele>
        <time>2020-01-21T00:40:10Z</time>
      </trkpt>
      <trkpt lat="16.998311310" lon="-96.430633860">
        <ele>1704.900</ele>
        <time>2020-01-21T00:40:11Z</time>
      </trkpt>
      <trkpt lat="16.998364310" lon="-96.430599130">
        <ele>1705.000</ele>
        <time>2020-01-21T00:40:12Z</time>
      </trkpt>
      <trkpt lat="16.998414780" lon="-96.430560610">
        <ele>1705.600</ele>
        <time>2020-01-21T00:40:13Z</time>
      </trkpt>
      <trkpt lat="16.998469370" lon="-96.430521430">
        <ele>1706.200</ele>
        <time>2020-01-21T00:40:14Z</time>
      </trkpt>
      <trkpt lat="16.998511640" lon="-96.430481640">
        <ele>1706.500</ele>
        <time>2020-01-21T00:40:15Z</time>
      </trkpt>
      <trkpt lat="16.998552570" lon="-96.430445500">
        <ele>1706.300</ele>
        <time>2020-01-21T00:40:16Z</time>
      </trkpt>
      <trkpt lat="16.998589380" lon="-96.430414500">
        <ele>1706.300</ele>
        <time>2020-01-21T00:40:17Z</time>
      </trkpt>
      <trkpt lat="16.998623060" lon="-96.430398660">
        <ele>1706.800</ele>
        <time>2020-01-21T00:40:18Z</time>
      </trkpt>
      <trkpt lat="16.998686290" lon="-96.430395300">
        <ele>1706.200</ele>
        <time>2020-01-21T00:40:20Z</time>
      </trkpt>
      <trkpt lat="16.998728960" lon="-96.430430120">
        <ele>1707.000</ele>
        <time>2020-01-21T00:40:22Z</time>
      </trkpt>
      <trkpt lat="16.998751450" lon="-96.430467870">
        <ele>1707.500</ele>
        <time>2020-01-21T00:40:24Z</time>
      </trkpt>
      <trkpt lat="16.998763640" lon="-96.430509720">
        <ele>1707.600</ele>
        <time>2020-01-21T00:40:26Z</time>
      </trkpt>
      <trkpt lat="16.998793800" lon="-96.430587030">
        <ele>1708.900</ele>
        <time>2020-01-21T00:40:28Z</time>
      </trkpt>
      <trkpt lat="16.998811820" lon="-96.430629130">
        <ele>1708.800</ele>
        <time>2020-01-21T00:40:29Z</time>
      </trkpt>
      <trkpt lat="16.998831400" lon="-96.430672360">
        <ele>1709.500</ele>
        <time>2020-01-21T00:40:30Z</time>
      </trkpt>
      <trkpt lat="16.998859210" lon="-96.430718110">
        <ele>1709.600</ele>
        <time>2020-01-21T00:40:31Z</time>
      </trkpt>
      <trkpt lat="16.998873730" lon="-96.430763350">
        <ele>1710.000</ele>
        <time>2020-01-21T00:40:32Z</time>
      </trkpt>
      <trkpt lat="16.998892340" lon="-96.430801140">
        <ele>1710.800</ele>
        <time>2020-01-21T00:40:33Z</time>
      </trkpt>
      <trkpt lat="16.998914510" lon="-96.430846060">
        <ele>1711.200</ele>
        <time>2020-01-21T00:40:34Z</time>
      </trkpt>
      <trkpt lat="16.998936540" lon="-96.430891040">
        <ele>1711.400</ele>
        <time>2020-01-21T00:40:35Z</time>
      </trkpt>
      <trkpt lat="16.998954940" lon="-96.430934260">
        <ele>1711.800</ele>
        <time>2020-01-21T00:40:36Z</time>
      </trkpt>
      <trkpt lat="16.998970470" lon="-96.430971190">
        <ele>1712.300</ele>
        <time>2020-01-21T00:40:37Z</time>
      </trkpt>
      <trkpt lat="16.998996250" lon="-96.431020040">
        <ele>1712.700</ele>
        <time>2020-01-21T00:40:39Z</time>
      </trkpt>
      <trkpt lat="16.999018660" lon="-96.431056370">
        <ele>1711.900</ele>
        <time>2020-01-21T00:40:41Z</time>
      </trkpt>
      <trkpt lat="16.999047760" lon="-96.431117570">
        <ele>1712.700</ele>
        <time>2020-01-21T00:40:43Z</time>
      </trkpt>
      <trkpt lat="16.999069560" lon="-96.431156680">
        <ele>1712.700</ele>
        <time>2020-01-21T00:40:44Z</time>
      </trkpt>
      <trkpt lat="16.999091670" lon="-96.431194950">
        <ele>1712.300</ele>
        <time>2020-01-21T00:40:45Z</time>
      </trkpt>
      <trkpt lat="16.999113190" lon="-96.431231440">
        <ele>1712.700</ele>
        <time>2020-01-21T00:40:46Z</time>
      </trkpt>
      <trkpt lat="16.999141060" lon="-96.431282230">
        <ele>1713.000</ele>
        <time>2020-01-21T00:40:48Z</time>
      </trkpt>
      <trkpt lat="16.999158800" lon="-96.431317970">
        <ele>1712.900</ele>
        <time>2020-01-21T00:40:50Z</time>
      </trkpt>
      <trkpt lat="16.999185810" lon="-96.431380600">
        <ele>1713.300</ele>
        <time>2020-01-21T00:40:52Z</time>
      </trkpt>
      <trkpt lat="16.999205160" lon="-96.431429370">
        <ele>1714.300</ele>
        <time>2020-01-21T00:40:53Z</time>
      </trkpt>
      <trkpt lat="16.999226660" lon="-96.431473550">
        <ele>1713.600</ele>
        <time>2020-01-21T00:40:54Z</time>
      </trkpt>
      <trkpt lat="16.999252040" lon="-96.431520340">
        <ele>1713.300</ele>
        <time>2020-01-21T00:40:55Z</time>
      </trkpt>
      <trkpt lat="16.999276980" lon="-96.431568700">
        <ele>1712.800</ele>
        <time>2020-01-21T00:40:56Z</time>
      </trkpt>
      <trkpt lat="16.999298980" lon="-96.431615770">
        <ele>1712.100</ele>
        <time>2020-01-21T00:40:57Z</time>
      </trkpt>
      <trkpt lat="16.999321290" lon="-96.431661760">
        <ele>1712.000</ele>
        <time>2020-01-21T00:40:58Z</time>
      </trkpt>
      <trkpt lat="16.999338790" lon="-96.431705340">
        <ele>1712.200</ele>
        <time>2020-01-21T00:40:59Z</time>
      </trkpt>
      <trkpt lat="16.999358430" lon="-96.431745360">
        <ele>1712.200</ele>
        <time>2020-01-21T00:41:00Z</time>
      </trkpt>
      <trkpt lat="16.999374340" lon="-96.431783360">
        <ele>1712.400</ele>
        <time>2020-01-21T00:41:01Z</time>
      </trkpt>
      <trkpt lat="16.999393910" lon="-96.431815220">
        <ele>1712.300</ele>
        <time>2020-01-21T00:41:02Z</time>
      </trkpt>
      <trkpt lat="16.999410660" lon="-96.431855200">
        <ele>1712.400</ele>
        <time>2020-01-21T00:41:04Z</time>
      </trkpt>
      <trkpt lat="16.999427990" lon="-96.431890710">
        <ele>1711.900</ele>
        <time>2020-01-21T00:41:06Z</time>
      </trkpt>
      <trkpt lat="16.999447330" lon="-96.431932690">
        <ele>1712.200</ele>
        <time>2020-01-21T00:41:08Z</time>
      </trkpt>
      <trkpt lat="16.999468170" lon="-96.431965900">
        <ele>1712.300</ele>
        <time>2020-01-21T00:41:10Z</time>
      </trkpt>
      <trkpt lat="16.999515450" lon="-96.431995410">
        <ele>1712.000</ele>
        <time>2020-01-21T00:41:13Z</time>
      </trkpt>
      <trkpt lat="16.999565020" lon="-96.431999710">
        <ele>1711.900</ele>
        <time>2020-01-21T00:41:15Z</time>
      </trkpt>
      <trkpt lat="16.999627070" lon="-96.431972320">
        <ele>1712.000</ele>
        <time>2020-01-21T00:41:17Z</time>
      </trkpt>
      <trkpt lat="16.999655400" lon="-96.431947670">
        <ele>1712.000</ele>
        <time>2020-01-21T00:41:18Z</time>
      </trkpt>
      <trkpt lat="16.999709530" lon="-96.431912370">
        <ele>1712.300</ele>
        <time>2020-01-21T00:41:20Z</time>
      </trkpt>
      <trkpt lat="16.999744250" lon="-96.431896270">
        <ele>1712.800</ele>
        <time>2020-01-21T00:41:21Z</time>
      </trkpt>
      <trkpt lat="16.999786500" lon="-96.431881320">
        <ele>1712.800</ele>
        <time>2020-01-21T00:41:22Z</time>
      </trkpt>
      <trkpt lat="16.999828360" lon="-96.431867970">
        <ele>1712.900</ele>
        <time>2020-01-21T00:41:23Z</time>
      </trkpt>
      <trkpt lat="16.999870310" lon="-96.431851330">
        <ele>1713.200</ele>
        <time>2020-01-21T00:41:24Z</time>
      </trkpt>
      <trkpt lat="16.999915710" lon="-96.431825790">
        <ele>1713.600</ele>
        <time>2020-01-21T00:41:25Z</time>
      </trkpt>
      <trkpt lat="16.999969700" lon="-96.431807580">
        <ele>1712.900</ele>
        <time>2020-01-21T00:41:26Z</time>
      </trkpt>
      <trkpt lat="17.000022380" lon="-96.431792690">
        <ele>1712.700</ele>
        <time>2020-01-21T00:41:27Z</time>
      </trkpt>
      <trkpt lat="17.000077680" lon="-96.431775720">
        <ele>1711.900</ele>
        <time>2020-01-21T00:41:28Z</time>
      </trkpt>
      <trkpt lat="17.000133630" lon="-96.431757710">
        <ele>1711.300</ele>
        <time>2020-01-21T00:41:29Z</time>
      </trkpt>
      <trkpt lat="17.000191230" lon="-96.431736470">
        <ele>1710.800</ele>
        <time>2020-01-21T00:41:30Z</time>
      </trkpt>
      <trkpt lat="17.000243740" lon="-96.431714230">
        <ele>1711.400</ele>
        <time>2020-01-21T00:41:31Z</time>
      </trkpt>
      <trkpt lat="17.000297670" lon="-96.431693750">
        <ele>1712.000</ele>
        <time>2020-01-21T00:41:32Z</time>
      </trkpt>
      <trkpt lat="17.000349920" lon="-96.431673830">
        <ele>1712.200</ele>
        <time>2020-01-21T00:41:33Z</time>
      </trkpt>
      <trkpt lat="17.000405870" lon="-96.431651360">
        <ele>1712.600</ele>
        <time>2020-01-21T00:41:34Z</time>
      </trkpt>
      <trkpt lat="17.000449430" lon="-96.431625280">
        <ele>1711.100</ele>
        <time>2020-01-21T00:41:35Z</time>
      </trkpt>
      <trkpt lat="17.000501900" lon="-96.431600470">
        <ele>1710.900</ele>
        <time>2020-01-21T00:41:36Z</time>
      </trkpt>
      <trkpt lat="17.000558080" lon="-96.431574260">
        <ele>1711.000</ele>
        <time>2020-01-21T00:41:37Z</time>
      </trkpt>
      <trkpt lat="17.000616360" lon="-96.431547140">
        <ele>1711.100</ele>
        <time>2020-01-21T00:41:38Z</time>
      </trkpt>
      <trkpt lat="17.000674130" lon="-96.431519830">
        <ele>1711.600</ele>
        <time>2020-01-21T00:41:39Z</time>
      </trkpt>
      <trkpt lat="17.000726370" lon="-96.431492660">
        <ele>1711.400</ele>
        <time>2020-01-21T00:41:40Z</time>
      </trkpt>
      <trkpt lat="17.000779660" lon="-96.431467690">
        <ele>1712.300</ele>
        <time>2020-01-21T00:41:41Z</time>
      </trkpt>
      <trkpt lat="17.000826060" lon="-96.431447810">
        <ele>1712.500</ele>
        <time>2020-01-21T00:41:42Z</time>
      </trkpt>
      <trkpt lat="17.000871300" lon="-96.431426200">
        <ele>1713.100</ele>
        <time>2020-01-21T00:41:43Z</time>
      </trkpt>
      <trkpt lat="17.000914610" lon="-96.431409880">
        <ele>1714.100</ele>
        <time>2020-01-21T00:41:44Z</time>
      </trkpt>
      <trkpt lat="17.000956250" lon="-96.431388790">
        <ele>1714.600</ele>
        <time>2020-01-21T00:41:45Z</time>
      </trkpt>
      <trkpt lat="17.001002900" lon="-96.431365720">
        <ele>1715.200</ele>
        <time>2020-01-21T00:41:46Z</time>
      </trkpt>
      <trkpt lat="17.001048000" lon="-96.431348800">
        <ele>1715.900</ele>
        <time>2020-01-21T00:41:47Z</time>
      </trkpt>
      <trkpt lat="17.001093000" lon="-96.431333900">
        <ele>1716.900</ele>
        <time>2020-01-21T00:41:48Z</time>
      </trkpt>
      <trkpt lat="17.001142790" lon="-96.431317460">
        <ele>1717.500</ele>
        <time>2020-01-21T00:41:49Z</time>
      </trkpt>
      <trkpt lat="17.001193250" lon="-96.431295600">
        <ele>1718.000</ele>
        <time>2020-01-21T00:41:50Z</time>
      </trkpt>
      <trkpt lat="17.001243960" lon="-96.431274190">
        <ele>1718.300</ele>
        <time>2020-01-21T00:41:51Z</time>
      </trkpt>
      <trkpt lat="17.001294150" lon="-96.431253340">
        <ele>1717.800</ele>
        <time>2020-01-21T00:41:52Z</time>
      </trkpt>
      <trkpt lat="17.001336470" lon="-96.431227150">
        <ele>1718.500</ele>
        <time>2020-01-21T00:41:53Z</time>
      </trkpt>
      <trkpt lat="17.001379450" lon="-96.431204060">
        <ele>1718.600</ele>
        <time>2020-01-21T00:41:54Z</time>
      </trkpt>
      <trkpt lat="17.001425470" lon="-96.431188680">
        <ele>1718.700</ele>
        <time>2020-01-21T00:41:55Z</time>
      </trkpt>
      <trkpt lat="17.001476940" lon="-96.431166520">
        <ele>1719.200</ele>
        <time>2020-01-21T00:41:56Z</time>
      </trkpt>
      <trkpt lat="17.001532680" lon="-96.431145770">
        <ele>1719.400</ele>
        <time>2020-01-21T00:41:57Z</time>
      </trkpt>
      <trkpt lat="17.001591790" lon="-96.431126970">
        <ele>1719.700</ele>
        <time>2020-01-21T00:41:58Z</time>
      </trkpt>
      <trkpt lat="17.001650480" lon="-96.431112720">
        <ele>1720.700</ele>
        <time>2020-01-21T00:41:59Z</time>
      </trkpt>
      <trkpt lat="17.001712670" lon="-96.431099690">
        <ele>1721.100</ele>
        <time>2020-01-21T00:42:00Z</time>
      </trkpt>
      <trkpt lat="17.001768430" lon="-96.431085840">
        <ele>1721.700</ele>
        <time>2020-01-21T00:42:01Z</time>
      </trkpt>
      <trkpt lat="17.001824340" lon="-96.431071420">
        <ele>1722.100</ele>
        <time>2020-01-21T00:42:02Z</time>
      </trkpt>
      <trkpt lat="17.001875260" lon="-96.431059130">
        <ele>1722.000</ele>
        <time>2020-01-21T00:42:03Z</time>
      </trkpt>
      <trkpt lat="17.001924880" lon="-96.431039970">
        <ele>1722.200</ele>
        <time>2020-01-21T00:42:04Z</time>
      </trkpt>
      <trkpt lat="17.001971100" lon="-96.431023430">
        <ele>1722.300</ele>
        <time>2020-01-21T00:42:05Z</time>
      </trkpt>
      <trkpt lat="17.002014210" lon="-96.431001960">
        <ele>1722.700</ele>
        <time>2020-01-21T00:42:06Z</time>
      </trkpt>
      <trkpt lat="17.002052820" lon="-96.430974170">
        <ele>1723.200</ele>
        <time>2020-01-21T00:42:07Z</time>
      </trkpt>
      <trkpt lat="17.002088180" lon="-96.430944530">
        <ele>1724.200</ele>
        <time>2020-01-21T00:42:08Z</time>
      </trkpt>
      <trkpt lat="17.002120440" lon="-96.430909800">
        <ele>1724.400</ele>
        <time>2020-01-21T00:42:09Z</time>
      </trkpt>
      <trkpt lat="17.002144810" lon="-96.430869540">
        <ele>1725.000</ele>
        <time>2020-01-21T00:42:10Z</time>
      </trkpt>
      <trkpt lat="17.002163470" lon="-96.430825550">
        <ele>1725.400</ele>
        <time>2020-01-21T00:42:11Z</time>
      </trkpt>
      <trkpt lat="17.002183460" lon="-96.430774300">
        <ele>1725.600</ele>
        <time>2020-01-21T00:42:12Z</time>
      </trkpt>
      <trkpt lat="17.002200860" lon="-96.430716240">
        <ele>1726.700</ele>
        <time>2020-01-21T00:42:13Z</time>
      </trkpt>
      <trkpt lat="17.002221290" lon="-96.430658170">
        <ele>1726.700</ele>
        <time>2020-01-21T00:42:14Z</time>
      </trkpt>
      <trkpt lat="17.002241720" lon="-96.430594200">
        <ele>1727.500</ele>
        <time>2020-01-21T00:42:15Z</time>
      </trkpt>
      <trkpt lat="17.002264270" lon="-96.430531680">
        <ele>1727.500</ele>
        <time>2020-01-21T00:42:16Z</time>
      </trkpt>
      <trkpt lat="17.002293220" lon="-96.430462950">
        <ele>1728.600</ele>
        <time>2020-01-21T00:42:17Z</time>
      </trkpt>
      <trkpt lat="17.002322260" lon="-96.430389250">
        <ele>1729.100</ele>
        <time>2020-01-21T00:42:18Z</time>
      </trkpt>
      <trkpt lat="17.002353100" lon="-96.430314470">
        <ele>1729.800</ele>
        <time>2020-01-21T00:42:19Z</time>
      </trkpt>
      <trkpt lat="17.002382620" lon="-96.430236970">
        <ele>1730.200</ele>
        <time>2020-01-21T00:42:20Z</time>
      </trkpt>
      <trkpt lat="17.002410500" lon="-96.430158680">
        <ele>1730.800</ele>
        <time>2020-01-21T00:42:21Z</time>
      </trkpt>
      <trkpt lat="17.002422870" lon="-96.430076450">
        <ele>1731.000</ele>
        <time>2020-01-21T00:42:22Z</time>
      </trkpt>
      <trkpt lat="17.002431270" lon="-96.429988820">
        <ele>1731.300</ele>
        <time>2020-01-21T00:42:23Z</time>
      </trkpt>
      <trkpt lat="17.002437740" lon="-96.429917530">
        <ele>1731.400</ele>
        <time>2020-01-21T00:42:24Z</time>
      </trkpt>
      <trkpt lat="17.002426560" lon="-96.429824930">
        <ele>1731.700</ele>
        <time>2020-01-21T00:42:25Z</time>
      </trkpt>
      <trkpt lat="17.002415110" lon="-96.429741150">
        <ele>1732.300</ele>
        <time>2020-01-21T00:42:26Z</time>
      </trkpt>
      <trkpt lat="17.002396780" lon="-96.429658350">
        <ele>1732.500</ele>
        <time>2020-01-21T00:42:27Z</time>
      </trkpt>
      <trkpt lat="17.002379450" lon="-96.429578170">
        <ele>1732.500</ele>
        <time>2020-01-21T00:42:28Z</time>
      </trkpt>
      <trkpt lat="17.002356800" lon="-96.429496290">
        <ele>1733.000</ele>
        <time>2020-01-21T00:42:29Z</time>
      </trkpt>
      <trkpt lat="17.002334950" lon="-96.429423500">
        <ele>1733.400</ele>
        <time>2020-01-21T00:42:30Z</time>
      </trkpt>
      <trkpt lat="17.002317480" lon="-96.429351460">
        <ele>1733.500</ele>
        <time>2020-01-21T00:42:31Z</time>
      </trkpt>
      <trkpt lat="17.002315150" lon="-96.429272060">
        <ele>1733.900</ele>
        <time>2020-01-21T00:42:32Z</time>
      </trkpt>
      <trkpt lat="17.002327390" lon="-96.429185540">
        <ele>1734.300</ele>
        <time>2020-01-21T00:42:33Z</time>
      </trkpt>
      <trkpt lat="17.002352610" lon="-96.429103830">
        <ele>1734.500</ele>
        <time>2020-01-21T00:42:34Z</time>
      </trkpt>
      <trkpt lat="17.002385760" lon="-96.429022920">
        <ele>1735.100</ele>
        <time>2020-01-21T00:42:35Z</time>
      </trkpt>
      <trkpt lat="17.002422670" lon="-96.428939340">
        <ele>1735.900</ele>
        <time>2020-01-21T00:42:36Z</time>
      </trkpt>
      <trkpt lat="17.002457860" lon="-96.428856910">
        <ele>1737.100</ele>
        <time>2020-01-21T00:42:37Z</time>
      </trkpt>
      <trkpt lat="17.002499010" lon="-96.428773470">
        <ele>1737.900</ele>
        <time>2020-01-21T00:42:38Z</time>
      </trkpt>
      <trkpt lat="17.002536650" lon="-96.428687550">
        <ele>1738.600</ele>
        <time>2020-01-21T00:42:39Z</time>
      </trkpt>
      <trkpt lat="17.002572440" lon="-96.428602420">
        <ele>1739.200</ele>
        <time>2020-01-21T00:42:40Z</time>
      </trkpt>
      <trkpt lat="17.002607090" lon="-96.428517940">
        <ele>1740.000</ele>
        <time>2020-01-21T00:42:41Z</time>
      </trkpt>
      <trkpt lat="17.002639720" lon="-96.428436250">
        <ele>1741.000</ele>
        <time>2020-01-21T00:42:42Z</time>
      </trkpt>
      <trkpt lat="17.002676740" lon="-96.428356910">
        <ele>1741.500</ele>
        <time>2020-01-21T00:42:43Z</time>
      </trkpt>
      <trkpt lat="17.002711770" lon="-96.428279930">
        <ele>1742.100</ele>
        <time>2020-01-21T00:42:44Z</time>
      </trkpt>
      <trkpt lat="17.002755580" lon="-96.428211210">
        <ele>1742.100</ele>
        <time>2020-01-21T00:42:45Z</time>
      </trkpt>
      <trkpt lat="17.002806450" lon="-96.428147420">
        <ele>1742.200</ele>
        <time>2020-01-21T00:42:46Z</time>
      </trkpt>
      <trkpt lat="17.002860280" lon="-96.428091020">
        <ele>1742.700</ele>
        <time>2020-01-21T00:42:47Z</time>
      </trkpt>
      <trkpt lat="17.002922480" lon="-96.428053520">
        <ele>1743.000</ele>
        <time>2020-01-21T00:42:48Z</time>
      </trkpt>
      <trkpt lat="17.002992790" lon="-96.428030220">
        <ele>1742.800</ele>
        <time>2020-01-21T00:42:49Z</time>
      </trkpt>
      <trkpt lat="17.003064340" lon="-96.428017600">
        <ele>1741.800</ele>
        <time>2020-01-21T00:42:50Z</time>
      </trkpt>
      <trkpt lat="17.003142930" lon="-96.428016960">
        <ele>1741.900</ele>
        <time>2020-01-21T00:42:51Z</time>
      </trkpt>
      <trkpt lat="17.003217920" lon="-96.428019610">
        <ele>1742.200</ele>
        <time>2020-01-21T00:42:52Z</time>
      </trkpt>
      <trkpt lat="17.003293230" lon="-96.428017300">
        <ele>1742.600</ele>
        <time>2020-01-21T00:42:53Z</time>
      </trkpt>
      <trkpt lat="17.003367650" lon="-96.428017620">
        <ele>1742.700</ele>
        <time>2020-01-21T00:42:54Z</time>
      </trkpt>
      <trkpt lat="17.003438850" lon="-96.428017930">
        <ele>1742.600</ele>
        <time>2020-01-21T00:42:55Z</time>
      </trkpt>
      <trkpt lat="17.003506420" lon="-96.428018790">
        <ele>1742.800</ele>
        <time>2020-01-21T00:42:56Z</time>
      </trkpt>
      <trkpt lat="17.003574610" lon="-96.428015620">
        <ele>1742.600</ele>
        <time>2020-01-21T00:42:57Z</time>
      </trkpt>
      <trkpt lat="17.003643480" lon="-96.428003490">
        <ele>1742.600</ele>
        <time>2020-01-21T00:42:58Z</time>
      </trkpt>
      <trkpt lat="17.003704910" lon="-96.427979530">
        <ele>1741.800</ele>
        <time>2020-01-21T00:42:59Z</time>
      </trkpt>
      <trkpt lat="17.003763310" lon="-96.427947420">
        <ele>1741.600</ele>
        <time>2020-01-21T00:43:00Z</time>
      </trkpt>
      <trkpt lat="17.003813310" lon="-96.427906490">
        <ele>1740.900</ele>
        <time>2020-01-21T00:43:01Z</time>
      </trkpt>
      <trkpt lat="17.003865420" lon="-96.427852360">
        <ele>1740.500</ele>
        <time>2020-01-21T00:43:02Z</time>
      </trkpt>
      <trkpt lat="17.003916550" lon="-96.427790100">
        <ele>1740.300</ele>
        <time>2020-01-21T00:43:03Z</time>
      </trkpt>
      <trkpt lat="17.003960050" lon="-96.427725520">
        <ele>1739.700</ele>
        <time>2020-01-21T00:43:04Z</time>
      </trkpt>
      <trkpt lat="17.004005160" lon="-96.427662460">
        <ele>1739.200</ele>
        <time>2020-01-21T00:43:05Z</time>
      </trkpt>
      <trkpt lat="17.004052270" lon="-96.427597150">
        <ele>1739.000</ele>
        <time>2020-01-21T00:43:06Z</time>
      </trkpt>
      <trkpt lat="17.004104100" lon="-96.427530950">
        <ele>1738.300</ele>
        <time>2020-01-21T00:43:07Z</time>
      </trkpt>
      <trkpt lat="17.004161240" lon="-96.427475710">
        <ele>1737.800</ele>
        <time>2020-01-21T00:43:08Z</time>
      </trkpt>
      <trkpt lat="17.004218490" lon="-96.427436220">
        <ele>1737.500</ele>
        <time>2020-01-21T00:43:09Z</time>
      </trkpt>
      <trkpt lat="17.004294040" lon="-96.427396500">
        <ele>1737.000</ele>
        <time>2020-01-21T00:43:10Z</time>
      </trkpt>
      <trkpt lat="17.004366560" lon="-96.427370360">
        <ele>1737.100</ele>
        <time>2020-01-21T00:43:11Z</time>
      </trkpt>
      <trkpt lat="17.004449830" lon="-96.427358480">
        <ele>1736.200</ele>
        <time>2020-01-21T00:43:12Z</time>
      </trkpt>
      <trkpt lat="17.004524900" lon="-96.427358430">
        <ele>1735.300</ele>
        <time>2020-01-21T00:43:13Z</time>
      </trkpt>
      <trkpt lat="17.004608930" lon="-96.427360800">
        <ele>1735.400</ele>
        <time>2020-01-21T00:43:14Z</time>
      </trkpt>
      <trkpt lat="17.004693440" lon="-96.427366020">
        <ele>1734.700</ele>
        <time>2020-01-21T00:43:15Z</time>
      </trkpt>
      <trkpt lat="17.004783950" lon="-96.427374310">
        <ele>1734.300</ele>
        <time>2020-01-21T00:43:16Z</time>
      </trkpt>
      <trkpt lat="17.004870180" lon="-96.427380540">
        <ele>1733.700</ele>
        <time>2020-01-21T00:43:17Z</time>
      </trkpt>
      <trkpt lat="17.004958250" lon="-96.427388170">
        <ele>1733.500</ele>
        <time>2020-01-21T00:43:18Z</time>
      </trkpt>
      <trkpt lat="17.005051330" lon="-96.427397610">
        <ele>1732.900</ele>
        <time>2020-01-21T00:43:19Z</time>
      </trkpt>
      <trkpt lat="17.005148170" lon="-96.427404300">
        <ele>1732.400</ele>
        <time>2020-01-21T00:43:20Z</time>
      </trkpt>
      <trkpt lat="17.005247110" lon="-96.427412210">
        <ele>1731.800</ele>
        <time>2020-01-21T00:43:21Z</time>
      </trkpt>
      <trkpt lat="17.005346850" lon="-96.427416960">
        <ele>1731.200</ele>
        <time>2020-01-21T00:43:22Z</time>
      </trkpt>
      <trkpt lat="17.005447050" lon="-96.427424880">
        <ele>1731.000</ele>
        <time>2020-01-21T00:43:23Z</time>
      </trkpt>
      <trkpt lat="17.005545890" lon="-96.427431940">
        <ele>1730.300</ele>
        <time>2020-01-21T00:43:24Z</time>
      </trkpt>
      <trkpt lat="17.005649650" lon="-96.427438250">
        <ele>1729.700</ele>
        <time>2020-01-21T00:43:25Z</time>
      </trkpt>
      <trkpt lat="17.005755610" lon="-96.427439770">
        <ele>1729.500</ele>
        <time>2020-01-21T00:43:26Z</time>
      </trkpt>
      <trkpt lat="17.005864080" lon="-96.427440790">
        <ele>1728.900</ele>
        <time>2020-01-21T00:43:27Z</time>
      </trkpt>
      <trkpt lat="17.005979460" lon="-96.427442020">
        <ele>1728.000</ele>
        <time>2020-01-21T00:43:28Z</time>
      </trkpt>
      <trkpt lat="17.006097020" lon="-96.427429300">
        <ele>1727.700</ele>
        <time>2020-01-21T00:43:29Z</time>
      </trkpt>
      <trkpt lat="17.006207270" lon="-96.427403510">
        <ele>1726.700</ele>
        <time>2020-01-21T00:43:30Z</time>
      </trkpt>
      <trkpt lat="17.006318970" lon="-96.427357390">
        <ele>1726.600</ele>
        <time>2020-01-21T00:43:31Z</time>
      </trkpt>
      <trkpt lat="17.006421260" lon="-96.427305110">
        <ele>1727.000</ele>
        <time>2020-01-21T00:43:32Z</time>
      </trkpt>
      <trkpt lat="17.006522370" lon="-96.427247810">
        <ele>1728.000</ele>
        <time>2020-01-21T00:43:33Z</time>
      </trkpt>
      <trkpt lat="17.006620350" lon="-96.427189370">
        <ele>1728.900</ele>
        <time>2020-01-21T00:43:34Z</time>
      </trkpt>
      <trkpt lat="17.006717730" lon="-96.427123140">
        <ele>1728.900</ele>
        <time>2020-01-21T00:43:35Z</time>
      </trkpt>
      <trkpt lat="17.006822220" lon="-96.427056870">
        <ele>1729.100</ele>
        <time>2020-01-21T00:43:36Z</time>
      </trkpt>
      <trkpt lat="17.006923070" lon="-96.426989760">
        <ele>1729.700</ele>
        <time>2020-01-21T00:43:37Z</time>
      </trkpt>
      <trkpt lat="17.007023310" lon="-96.426925370">
        <ele>1730.400</ele>
        <time>2020-01-21T00:43:38Z</time>
      </trkpt>
      <trkpt lat="17.007119880" lon="-96.426856410">
        <ele>1730.800</ele>
        <time>2020-01-21T00:43:39Z</time>
      </trkpt>
      <trkpt lat="17.007223090" lon="-96.426788310">
        <ele>1731.500</ele>
        <time>2020-01-21T00:43:40Z</time>
      </trkpt>
      <trkpt lat="17.007324920" lon="-96.426721310">
        <ele>1732.500</ele>
        <time>2020-01-21T00:43:41Z</time>
      </trkpt>
      <trkpt lat="17.007428680" lon="-96.426658430">
        <ele>1732.900</ele>
        <time>2020-01-21T00:43:42Z</time>
      </trkpt>
      <trkpt lat="17.007527690" lon="-96.426593660">
        <ele>1733.100</ele>
        <time>2020-01-21T00:43:43Z</time>
      </trkpt>
      <trkpt lat="17.007628800" lon="-96.426528350">
        <ele>1733.400</ele>
        <time>2020-01-21T00:43:44Z</time>
      </trkpt>
      <trkpt lat="17.007727920" lon="-96.426464610">
        <ele>1733.400</ele>
        <time>2020-01-21T00:43:45Z</time>
      </trkpt>
      <trkpt lat="17.007828230" lon="-96.426403090">
        <ele>1733.500</ele>
        <time>2020-01-21T00:43:46Z</time>
      </trkpt>
      <trkpt lat="17.007923720" lon="-96.426343240">
        <ele>1733.600</ele>
        <time>2020-01-21T00:43:47Z</time>
      </trkpt>
      <trkpt lat="17.008021540" lon="-96.426280030">
        <ele>1733.400</ele>
        <time>2020-01-21T00:43:48Z</time>
      </trkpt>
      <trkpt lat="17.008117660" lon="-96.426216170">
        <ele>1733.000</ele>
        <time>2020-01-21T00:43:49Z</time>
      </trkpt>
      <trkpt lat="17.008216050" lon="-96.426152740">
        <ele>1732.800</ele>
        <time>2020-01-21T00:43:50Z</time>
      </trkpt>
      <trkpt lat="17.008312490" lon="-96.426091130">
        <ele>1732.700</ele>
        <time>2020-01-21T00:43:51Z</time>
      </trkpt>
      <trkpt lat="17.008411930" lon="-96.426028680">
        <ele>1732.700</ele>
        <time>2020-01-21T00:43:52Z</time>
      </trkpt>
      <trkpt lat="17.008508050" lon="-96.425965460">
        <ele>1732.300</ele>
        <time>2020-01-21T00:43:53Z</time>
      </trkpt>
      <trkpt lat="17.008606270" lon="-96.425898750">
        <ele>1731.900</ele>
        <time>2020-01-21T00:43:54Z</time>
      </trkpt>
      <trkpt lat="17.008702680" lon="-96.425835370">
        <ele>1731.600</ele>
        <time>2020-01-21T00:43:55Z</time>
      </trkpt>
      <trkpt lat="17.008803640" lon="-96.425772310">
        <ele>1731.200</ele>
        <time>2020-01-21T00:43:56Z</time>
      </trkpt>
      <trkpt lat="17.008899720" lon="-96.425705120">
        <ele>1730.800</ele>
        <time>2020-01-21T00:43:57Z</time>
      </trkpt>
      <trkpt lat="17.009000460" lon="-96.425636410">
        <ele>1730.100</ele>
        <time>2020-01-21T00:43:58Z</time>
      </trkpt>
      <trkpt lat="17.009094400" lon="-96.425558650">
        <ele>1729.600</ele>
        <time>2020-01-21T00:43:59Z</time>
      </trkpt>
      <trkpt lat="17.009182330" lon="-96.425475000">
        <ele>1729.600</ele>
        <time>2020-01-21T00:44:00Z</time>
      </trkpt>
      <trkpt lat="17.009263390" lon="-96.425386370">
        <ele>1729.200</ele>
        <time>2020-01-21T00:44:01Z</time>
      </trkpt>
      <trkpt lat="17.009342020" lon="-96.425290590">
        <ele>1728.800</ele>
        <time>2020-01-21T00:44:02Z</time>
      </trkpt>
      <trkpt lat="17.009415960" lon="-96.425192950">
        <ele>1728.400</ele>
        <time>2020-01-21T00:44:03Z</time>
      </trkpt>
      <trkpt lat="17.009480490" lon="-96.425092790">
        <ele>1728.300</ele>
        <time>2020-01-21T00:44:04Z</time>
      </trkpt>
      <trkpt lat="17.009549590" lon="-96.424985460">
        <ele>1728.400</ele>
        <time>2020-01-21T00:44:05Z</time>
      </trkpt>
      <trkpt lat="17.009620470" lon="-96.424883960">
        <ele>1728.100</ele>
        <time>2020-01-21T00:44:06Z</time>
      </trkpt>
      <trkpt lat="17.009690100" lon="-96.424780180">
        <ele>1727.700</ele>
        <time>2020-01-21T00:44:07Z</time>
      </trkpt>
      <trkpt lat="17.009761730" lon="-96.424674390">
        <ele>1727.800</ele>
        <time>2020-01-21T00:44:08Z</time>
      </trkpt>
      <trkpt lat="17.009832020" lon="-96.424567810">
        <ele>1727.700</ele>
        <time>2020-01-21T00:44:09Z</time>
      </trkpt>
      <trkpt lat="17.009902890" lon="-96.424460910">
        <ele>1727.800</ele>
        <time>2020-01-21T00:44:10Z</time>
      </trkpt>
      <trkpt lat="17.009975720" lon="-96.424354240">
        <ele>1727.700</ele>
        <time>2020-01-21T00:44:11Z</time>
      </trkpt>
      <trkpt lat="17.010049230" lon="-96.424251420">
        <ele>1727.300</ele>
        <time>2020-01-21T00:44:12Z</time>
      </trkpt>
      <trkpt lat="17.010121000" lon="-96.424145990">
        <ele>1727.100</ele>
        <time>2020-01-21T00:44:13Z</time>
      </trkpt>
      <trkpt lat="17.010194510" lon="-96.424041360">
        <ele>1727.400</ele>
        <time>2020-01-21T00:44:14Z</time>
      </trkpt>
      <trkpt lat="17.010262160" lon="-96.423936440">
        <ele>1727.500</ele>
        <time>2020-01-21T00:44:15Z</time>
      </trkpt>
      <trkpt lat="17.010332370" lon="-96.423832770">
        <ele>1727.600</ele>
        <time>2020-01-21T00:44:16Z</time>
      </trkpt>
      <trkpt lat="17.010402140" lon="-96.423731470">
        <ele>1727.900</ele>
        <time>2020-01-21T00:44:17Z</time>
      </trkpt>
      <trkpt lat="17.010475120" lon="-96.423634190">
        <ele>1728.500</ele>
        <time>2020-01-21T00:44:18Z</time>
      </trkpt>
      <trkpt lat="17.010543050" lon="-96.423534940">
        <ele>1728.800</ele>
        <time>2020-01-21T00:44:19Z</time>
      </trkpt>
      <trkpt lat="17.010610490" lon="-96.423438920">
        <ele>1728.300</ele>
        <time>2020-01-21T00:44:20Z</time>
      </trkpt>
      <trkpt lat="17.010674240" lon="-96.423345360">
        <ele>1728.500</ele>
        <time>2020-01-21T00:44:21Z</time>
      </trkpt>
      <trkpt lat="17.010740550" lon="-96.423259420">
        <ele>1728.300</ele>
        <time>2020-01-21T00:44:22Z</time>
      </trkpt>
      <trkpt lat="17.010798840" lon="-96.423171600">
        <ele>1728.300</ele>
        <time>2020-01-21T00:44:23Z</time>
      </trkpt>
      <trkpt lat="17.010851700" lon="-96.423086560">
        <ele>1728.800</ele>
        <time>2020-01-21T00:44:24Z</time>
      </trkpt>
      <trkpt lat="17.010905470" lon="-96.423008110">
        <ele>1728.800</ele>
        <time>2020-01-21T00:44:25Z</time>
      </trkpt>
      <trkpt lat="17.010955560" lon="-96.422936420">
        <ele>1729.000</ele>
        <time>2020-01-21T00:44:26Z</time>
      </trkpt>
      <trkpt lat="17.010999710" lon="-96.422873140">
        <ele>1729.000</ele>
        <time>2020-01-21T00:44:27Z</time>
      </trkpt>
      <trkpt lat="17.011033340" lon="-96.422816330">
        <ele>1730.200</ele>
        <time>2020-01-21T00:44:28Z</time>
      </trkpt>
      <trkpt lat="17.011064750" lon="-96.422768090">
        <ele>1730.700</ele>
        <time>2020-01-21T00:44:29Z</time>
      </trkpt>
      <trkpt lat="17.011090070" lon="-96.422726680">
        <ele>1731.600</ele>
        <time>2020-01-21T00:44:30Z</time>
      </trkpt>
      <trkpt lat="17.011111760" lon="-96.422696330">
        <ele>1732.100</ele>
        <time>2020-01-21T00:44:32Z</time>
      </trkpt>
      <trkpt lat="17.011152200" lon="-96.422640960">
        <ele>1730.800</ele>
        <time>2020-01-21T00:44:35Z</time>
      </trkpt>
      <trkpt lat="17.011179580" lon="-96.422601650">
        <ele>1731.500</ele>
        <time>2020-01-21T00:44:36Z</time>
      </trkpt>
      <trkpt lat="17.011210580" lon="-96.422557490">
        <ele>1731.500</ele>
        <time>2020-01-21T00:44:37Z</time>
      </trkpt>
      <trkpt lat="17.011238510" lon="-96.422511220">
        <ele>1732.000</ele>
        <time>2020-01-21T00:44:38Z</time>
      </trkpt>
      <trkpt lat="17.011277440" lon="-96.422453920">
        <ele>1732.500</ele>
        <time>2020-01-21T00:44:39Z</time>
      </trkpt>
      <trkpt lat="17.011323950" lon="-96.422392490">
        <ele>1733.000</ele>
        <time>2020-01-21T00:44:40Z</time>
      </trkpt>
      <trkpt lat="17.011369600" lon="-96.422321490">
        <ele>1733.200</ele>
        <time>2020-01-21T00:44:41Z</time>
      </trkpt>
      <trkpt lat="17.011421170" lon="-96.422249010">
        <ele>1733.200</ele>
        <time>2020-01-21T00:44:42Z</time>
      </trkpt>
      <trkpt lat="17.011472330" lon="-96.422171530">
        <ele>1733.900</ele>
        <time>2020-01-21T00:44:43Z</time>
      </trkpt>
      <trkpt lat="17.011530320" lon="-96.422090290">
        <ele>1734.200</ele>
        <time>2020-01-21T00:44:44Z</time>
      </trkpt>
      <trkpt lat="17.011584310" lon="-96.422006750">
        <ele>1734.600</ele>
        <time>2020-01-21T00:44:45Z</time>
      </trkpt>
      <trkpt lat="17.011641430" lon="-96.421920310">
        <ele>1735.200</ele>
        <time>2020-01-21T00:44:46Z</time>
      </trkpt>
      <trkpt lat="17.011703810" lon="-96.421843610">
        <ele>1734.800</ele>
        <time>2020-01-21T00:44:47Z</time>
      </trkpt>
      <trkpt lat="17.011761190" lon="-96.421767010">
        <ele>1735.000</ele>
        <time>2020-01-21T00:44:48Z</time>
      </trkpt>
      <trkpt lat="17.011822600" lon="-96.421693170">
        <ele>1735.000</ele>
        <time>2020-01-21T00:44:49Z</time>
      </trkpt>
      <trkpt lat="17.011887410" lon="-96.421616050">
        <ele>1735.600</ele>
        <time>2020-01-21T00:44:50Z</time>
      </trkpt>
      <trkpt lat="17.011957810" lon="-96.421543820">
        <ele>1735.600</ele>
        <time>2020-01-21T00:44:51Z</time>
      </trkpt>
      <trkpt lat="17.012030000" lon="-96.421475640">
        <ele>1735.800</ele>
        <time>2020-01-21T00:44:52Z</time>
      </trkpt>
      <trkpt lat="17.012104010" lon="-96.421418340">
        <ele>1735.600</ele>
        <time>2020-01-21T00:44:53Z</time>
      </trkpt>
      <trkpt lat="17.012187290" lon="-96.421365840">
        <ele>1736.000</ele>
        <time>2020-01-21T00:44:54Z</time>
      </trkpt>
      <trkpt lat="17.012270640" lon="-96.421321000">
        <ele>1735.700</ele>
        <time>2020-01-21T00:44:55Z</time>
      </trkpt>
      <trkpt lat="17.012368070" lon="-96.421293400">
        <ele>1735.600</ele>
        <time>2020-01-21T00:44:56Z</time>
      </trkpt>
      <trkpt lat="17.012460070" lon="-96.421257080">
        <ele>1735.400</ele>
        <time>2020-01-21T00:44:57Z</time>
      </trkpt>
      <trkpt lat="17.012548880" lon="-96.421222040">
        <ele>1735.500</ele>
        <time>2020-01-21T00:44:58Z</time>
      </trkpt>
      <trkpt lat="17.012629780" lon="-96.421179620">
        <ele>1735.200</ele>
        <time>2020-01-21T00:44:59Z</time>
      </trkpt>
      <trkpt lat="17.012714690" lon="-96.421134900">
        <ele>1735.100</ele>
        <time>2020-01-21T00:45:00Z</time>
      </trkpt>
      <trkpt lat="17.012787510" lon="-96.421081900">
        <ele>1734.600</ele>
        <time>2020-01-21T00:45:01Z</time>
      </trkpt>
      <trkpt lat="17.012853360" lon="-96.421025360">
        <ele>1735.500</ele>
        <time>2020-01-21T00:45:02Z</time>
      </trkpt>
      <trkpt lat="17.012901600" lon="-96.420963390">
        <ele>1735.200</ele>
        <time>2020-01-21T00:45:03Z</time>
      </trkpt>
      <trkpt lat="17.012944240" lon="-96.420903780">
        <ele>1735.200</ele>
        <time>2020-01-21T00:45:04Z</time>
      </trkpt>
      <trkpt lat="17.012984160" lon="-96.420848060">
        <ele>1735.100</ele>
        <time>2020-01-21T00:45:05Z</time>
      </trkpt>
      <trkpt lat="17.013023880" lon="-96.420792680">
        <ele>1735.000</ele>
        <time>2020-01-21T00:45:06Z</time>
      </trkpt>
      <trkpt lat="17.013064410" lon="-96.420731610">
        <ele>1735.200</ele>
        <time>2020-01-21T00:45:07Z</time>
      </trkpt>
      <trkpt lat="17.013108330" lon="-96.420670690">
        <ele>1735.000</ele>
        <time>2020-01-21T00:45:08Z</time>
      </trkpt>
      <trkpt lat="17.013151760" lon="-96.420599390">
        <ele>1735.600</ele>
        <time>2020-01-21T00:45:09Z</time>
      </trkpt>
      <trkpt lat="17.013192850" lon="-96.420533080">
        <ele>1735.400</ele>
        <time>2020-01-21T00:45:10Z</time>
      </trkpt>
      <trkpt lat="17.013239470" lon="-96.420468690">
        <ele>1735.200</ele>
        <time>2020-01-21T00:45:11Z</time>
      </trkpt>
      <trkpt lat="17.013285960" lon="-96.420406330">
        <ele>1734.800</ele>
        <time>2020-01-21T00:45:12Z</time>
      </trkpt>
      <trkpt lat="17.013327060" lon="-96.420346350">
        <ele>1734.800</ele>
        <time>2020-01-21T00:45:13Z</time>
      </trkpt>
      <trkpt lat="17.013367490" lon="-96.420288540">
        <ele>1735.900</ele>
        <time>2020-01-21T00:45:14Z</time>
      </trkpt>
      <trkpt lat="17.013406030" lon="-96.420217220">
        <ele>1736.500</ele>
        <time>2020-01-21T00:45:15Z</time>
      </trkpt>
      <trkpt lat="17.013435560" lon="-96.420143360">
        <ele>1736.400</ele>
        <time>2020-01-21T00:45:16Z</time>
      </trkpt>
      <trkpt lat="17.013468670" lon="-96.420060080">
        <ele>1736.600</ele>
        <time>2020-01-21T00:45:17Z</time>
      </trkpt>
      <trkpt lat="17.013493800" lon="-96.419971930">
        <ele>1737.000</ele>
        <time>2020-01-21T00:45:18Z</time>
      </trkpt>
      <trkpt lat="17.013514240" lon="-96.419875860">
        <ele>1736.900</ele>
        <time>2020-01-21T00:45:19Z</time>
      </trkpt>
      <trkpt lat="17.013528200" lon="-96.419780860">
        <ele>1737.000</ele>
        <time>2020-01-21T00:45:20Z</time>
      </trkpt>
      <trkpt lat="17.013536360" lon="-96.419691740">
        <ele>1736.500</ele>
        <time>2020-01-21T00:45:21Z</time>
      </trkpt>
      <trkpt lat="17.013545880" lon="-96.419601430">
        <ele>1736.900</ele>
        <time>2020-01-21T00:45:22Z</time>
      </trkpt>
      <trkpt lat="17.013554080" lon="-96.419520240">
        <ele>1737.300</ele>
        <time>2020-01-21T00:45:23Z</time>
      </trkpt>
      <trkpt lat="17.013564850" lon="-96.419441960">
        <ele>1737.800</ele>
        <time>2020-01-21T00:45:24Z</time>
      </trkpt>
      <trkpt lat="17.013580440" lon="-96.419371610">
        <ele>1738.200</ele>
        <time>2020-01-21T00:45:25Z</time>
      </trkpt>
      <trkpt lat="17.013595600" lon="-96.419299800">
        <ele>1738.500</ele>
        <time>2020-01-21T00:45:26Z</time>
      </trkpt>
      <trkpt lat="17.013614340" lon="-96.419240690">
        <ele>1738.600</ele>
        <time>2020-01-21T00:45:27Z</time>
      </trkpt>
      <trkpt lat="17.013633660" lon="-96.419195230">
        <ele>1738.700</ele>
        <time>2020-01-21T00:45:28Z</time>
      </trkpt>
      <trkpt lat="17.013657550" lon="-96.419150470">
        <ele>1739.500</ele>
        <time>2020-01-21T00:45:30Z</time>
      </trkpt>
      <trkpt lat="17.013686270" lon="-96.419117380">
        <ele>1739.400</ele>
        <time>2020-01-21T00:45:32Z</time>
      </trkpt>
      <trkpt lat="17.013727230" lon="-96.419058870">
        <ele>1739.700</ele>
        <time>2020-01-21T00:45:34Z</time>
      </trkpt>
      <trkpt lat="17.013767580" lon="-96.419025230">
        <ele>1740.400</ele>
        <time>2020-01-21T00:45:35Z</time>
      </trkpt>
      <trkpt lat="17.013820830" lon="-96.418996560">
        <ele>1739.800</ele>
        <time>2020-01-21T00:45:36Z</time>
      </trkpt>
      <trkpt lat="17.013872370" lon="-96.418967200">
        <ele>1739.800</ele>
        <time>2020-01-21T00:45:37Z</time>
      </trkpt>
      <trkpt lat="17.013925100" lon="-96.418944450">
        <ele>1740.000</ele>
        <time>2020-01-21T00:45:38Z</time>
      </trkpt>
      <trkpt lat="17.013984970" lon="-96.418930450">
        <ele>1740.700</ele>
        <time>2020-01-21T00:45:39Z</time>
      </trkpt>
      <trkpt lat="17.014049060" lon="-96.418923380">
        <ele>1740.600</ele>
        <time>2020-01-21T00:45:40Z</time>
      </trkpt>
      <trkpt lat="17.014117700" lon="-96.418926720">
        <ele>1741.600</ele>
        <time>2020-01-21T00:45:41Z</time>
      </trkpt>
      <trkpt lat="17.014180760" lon="-96.418944030">
        <ele>1742.200</ele>
        <time>2020-01-21T00:45:42Z</time>
      </trkpt>
      <trkpt lat="17.014236930" lon="-96.418968070">
        <ele>1743.000</ele>
        <time>2020-01-21T00:45:43Z</time>
      </trkpt>
      <trkpt lat="17.014286850" lon="-96.418994540">
        <ele>1744.100</ele>
        <time>2020-01-21T00:45:44Z</time>
      </trkpt>
      <trkpt lat="17.014336080" lon="-96.419029030">
        <ele>1744.000</ele>
        <time>2020-01-21T00:45:45Z</time>
      </trkpt>
      <trkpt lat="17.014382720" lon="-96.419065520">
        <ele>1743.900</ele>
        <time>2020-01-21T00:45:46Z</time>
      </trkpt>
      <trkpt lat="17.014422180" lon="-96.419093680">
        <ele>1743.100</ele>
        <time>2020-01-21T00:45:47Z</time>
      </trkpt>
      <trkpt lat="17.014460300" lon="-96.419121010">
        <ele>1743.400</ele>
        <time>2020-01-21T00:45:48Z</time>
      </trkpt>
      <trkpt lat="17.014501490" lon="-96.419159420">
        <ele>1743.400</ele>
        <time>2020-01-21T00:45:50Z</time>
      </trkpt>
      <trkpt lat="17.014546630" lon="-96.419184920">
        <ele>1743.200</ele>
        <time>2020-01-21T00:45:52Z</time>
      </trkpt>
      <trkpt lat="17.014585590" lon="-96.419186980">
        <ele>1743.000</ele>
        <time>2020-01-21T00:45:53Z</time>
      </trkpt>
      <trkpt lat="17.014635160" lon="-96.419209860">
        <ele>1742.900</ele>
        <time>2020-01-21T00:45:54Z</time>
      </trkpt>
      <trkpt lat="17.014692520" lon="-96.419215430">
        <ele>1742.500</ele>
        <time>2020-01-21T00:45:55Z</time>
      </trkpt>
      <trkpt lat="17.014746310" lon="-96.419197590">
        <ele>1742.100</ele>
        <time>2020-01-21T00:45:56Z</time>
      </trkpt>
      <trkpt lat="17.014803360" lon="-96.419169640">
        <ele>1741.500</ele>
        <time>2020-01-21T00:45:57Z</time>
      </trkpt>
      <trkpt lat="17.014857140" lon="-96.419132740">
        <ele>1741.000</ele>
        <time>2020-01-21T00:45:58Z</time>
      </trkpt>
      <trkpt lat="17.014896020" lon="-96.419081750">
        <ele>1741.200</ele>
        <time>2020-01-21T00:45:59Z</time>
      </trkpt>
      <trkpt lat="17.014918180" lon="-96.419022050">
        <ele>1740.500</ele>
        <time>2020-01-21T00:46:00Z</time>
      </trkpt>
      <trkpt lat="17.014928340" lon="-96.418956880">
        <ele>1740.600</ele>
        <time>2020-01-21T00:46:01Z</time>
      </trkpt>
      <trkpt lat="17.014927430" lon="-96.418884090">
        <ele>1740.600</ele>
        <time>2020-01-21T00:46:02Z</time>
      </trkpt>
      <trkpt lat="17.014916080" lon="-96.418813540">
        <ele>1740.600</ele>
        <time>2020-01-21T00:46:03Z</time>
      </trkpt>
      <trkpt lat="17.014900610" lon="-96.418735800">
        <ele>1740.700</ele>
        <time>2020-01-21T00:46:04Z</time>
      </trkpt>
      <trkpt lat="17.014878420" lon="-96.418653730">
        <ele>1740.600</ele>
        <time>2020-01-21T00:46:05Z</time>
      </trkpt>
      <trkpt lat="17.014864690" lon="-96.418573000">
        <ele>1740.600</ele>
        <time>2020-01-21T00:46:06Z</time>
      </trkpt>
      <trkpt lat="17.014850440" lon="-96.418490490">
        <ele>1740.700</ele>
        <time>2020-01-21T00:46:07Z</time>
      </trkpt>
      <trkpt lat="17.014836480" lon="-96.418410970">
        <ele>1741.400</ele>
        <time>2020-01-21T00:46:08Z</time>
      </trkpt>
      <trkpt lat="17.014829090" lon="-96.418344770">
        <ele>1741.600</ele>
        <time>2020-01-21T00:46:09Z</time>
      </trkpt>
      <trkpt lat="17.014831000" lon="-96.418290310">
        <ele>1742.000</ele>
        <time>2020-01-21T00:46:10Z</time>
      </trkpt>
      <trkpt lat="17.014829380" lon="-96.418251700">
        <ele>1742.400</ele>
        <time>2020-01-21T00:46:11Z</time>
      </trkpt>
      <trkpt lat="17.014835590" lon="-96.418211260">
        <ele>1743.200</ele>
        <time>2020-01-21T00:46:13Z</time>
      </trkpt>
      <trkpt lat="17.014853290" lon="-96.418149870">
        <ele>1743.700</ele>
        <time>2020-01-21T00:46:15Z</time>
      </trkpt>
      <trkpt lat="17.014877790" lon="-96.418106920">
        <ele>1744.100</ele>
        <time>2020-01-21T00:46:16Z</time>
      </trkpt>
      <trkpt lat="17.014913150" lon="-96.418061130">
        <ele>1744.700</ele>
        <time>2020-01-21T00:46:17Z</time>
      </trkpt>
      <trkpt lat="17.014949070" lon="-96.418029070">
        <ele>1744.800</ele>
        <time>2020-01-21T00:46:18Z</time>
      </trkpt>
      <trkpt lat="17.015001630" lon="-96.418006300">
        <ele>1745.000</ele>
        <time>2020-01-21T00:46:19Z</time>
      </trkpt>
      <trkpt lat="17.015066860" lon="-96.417993550">
        <ele>1745.100</ele>
        <time>2020-01-21T00:46:20Z</time>
      </trkpt>
      <trkpt lat="17.015127890" lon="-96.417991980">
        <ele>1745.000</ele>
        <time>2020-01-21T00:46:21Z</time>
      </trkpt>
      <trkpt lat="17.015187300" lon="-96.417998470">
        <ele>1745.700</ele>
        <time>2020-01-21T00:46:22Z</time>
      </trkpt>
      <trkpt lat="17.015243620" lon="-96.418007570">
        <ele>1746.500</ele>
        <time>2020-01-21T00:46:23Z</time>
      </trkpt>
      <trkpt lat="17.015293930" lon="-96.418016960">
        <ele>1746.800</ele>
        <time>2020-01-21T00:46:24Z</time>
      </trkpt>
      <trkpt lat="17.015336710" lon="-96.418026710">
        <ele>1747.300</ele>
        <time>2020-01-21T00:46:25Z</time>
      </trkpt>
      <trkpt lat="17.015391150" lon="-96.418039270">
        <ele>1748.000</ele>
        <time>2020-01-21T00:46:27Z</time>
      </trkpt>
      <trkpt lat="17.015427200" lon="-96.418042340">
        <ele>1748.800</ele>
        <time>2020-01-21T00:46:28Z</time>
      </trkpt>
      <trkpt lat="17.015480200" lon="-96.418051250">
        <ele>1749.300</ele>
        <time>2020-01-21T00:46:29Z</time>
      </trkpt>
      <trkpt lat="17.015537640" lon="-96.418064650">
        <ele>1749.100</ele>
        <time>2020-01-21T00:46:30Z</time>
      </trkpt>
      <trkpt lat="17.015593970" lon="-96.418074970">
        <ele>1749.000</ele>
        <time>2020-01-21T00:46:31Z</time>
      </trkpt>
      <trkpt lat="17.015663180" lon="-96.418090890">
        <ele>1749.100</ele>
        <time>2020-01-21T00:46:32Z</time>
      </trkpt>
      <trkpt lat="17.015738870" lon="-96.418110940">
        <ele>1749.800</ele>
        <time>2020-01-21T00:46:33Z</time>
      </trkpt>
      <trkpt lat="17.015818370" lon="-96.418127750">
        <ele>1749.900</ele>
        <time>2020-01-21T00:46:34Z</time>
      </trkpt>
      <trkpt lat="17.015894850" lon="-96.418137520">
        <ele>1749.900</ele>
        <time>2020-01-21T00:46:35Z</time>
      </trkpt>
      <trkpt lat="17.015971230" lon="-96.418153770">
        <ele>1750.300</ele>
        <time>2020-01-21T00:46:36Z</time>
      </trkpt>
      <trkpt lat="17.016050130" lon="-96.418171710">
        <ele>1750.500</ele>
        <time>2020-01-21T00:46:37Z</time>
      </trkpt>
      <trkpt lat="17.016133580" lon="-96.418191050">
        <ele>1751.400</ele>
        <time>2020-01-21T00:46:38Z</time>
      </trkpt>
      <trkpt lat="17.016214300" lon="-96.418205540">
        <ele>1751.900</ele>
        <time>2020-01-21T00:46:39Z</time>
      </trkpt>
      <trkpt lat="17.016293460" lon="-96.418226200">
        <ele>1752.300</ele>
        <time>2020-01-21T00:46:40Z</time>
      </trkpt>
      <trkpt lat="17.016365340" lon="-96.418245800">
        <ele>1752.700</ele>
        <time>2020-01-21T00:46:41Z</time>
      </trkpt>
      <trkpt lat="17.016435580" lon="-96.418264090">
        <ele>1752.900</ele>
        <time>2020-01-21T00:46:42Z</time>
      </trkpt>
      <trkpt lat="17.016501580" lon="-96.418282250">
        <ele>1753.300</ele>
        <time>2020-01-21T00:46:43Z</time>
      </trkpt>
      <trkpt lat="17.016558390" lon="-96.418300880">
        <ele>1754.000</ele>
        <time>2020-01-21T00:46:44Z</time>
      </trkpt>
      <trkpt lat="17.016608210" lon="-96.418315020">
        <ele>1754.500</ele>
        <time>2020-01-21T00:46:45Z</time>
      </trkpt>
      <trkpt lat="17.016651500" lon="-96.418323940">
        <ele>1755.500</ele>
        <time>2020-01-21T00:46:46Z</time>
      </trkpt>
      <trkpt lat="17.016709260" lon="-96.418339040">
        <ele>1756.000</ele>
        <time>2020-01-21T00:46:48Z</time>
      </trkpt>
      <trkpt lat="17.016745870" lon="-96.418352050">
        <ele>1756.600</ele>
        <time>2020-01-21T00:46:50Z</time>
      </trkpt>
      <trkpt lat="17.016798750" lon="-96.418379230">
        <ele>1756.700</ele>
        <time>2020-01-21T00:46:52Z</time>
      </trkpt>
      <trkpt lat="17.016852060" lon="-96.418389960">
        <ele>1757.000</ele>
        <time>2020-01-21T00:46:53Z</time>
      </trkpt>
      <trkpt lat="17.016901930" lon="-96.418412360">
        <ele>1757.700</ele>
        <time>2020-01-21T00:46:54Z</time>
      </trkpt>
      <trkpt lat="17.016958920" lon="-96.418432290">
        <ele>1758.300</ele>
        <time>2020-01-21T00:46:55Z</time>
      </trkpt>
      <trkpt lat="17.017011890" lon="-96.418456000">
        <ele>1758.800</ele>
        <time>2020-01-21T00:46:56Z</time>
      </trkpt>
      <trkpt lat="17.017067750" lon="-96.418481300">
        <ele>1759.400</ele>
        <time>2020-01-21T00:46:57Z</time>
      </trkpt>
      <trkpt lat="17.017121830" lon="-96.418504000">
        <ele>1759.600</ele>
        <time>2020-01-21T00:46:58Z</time>
      </trkpt>
      <trkpt lat="17.017168500" lon="-96.418525670">
        <ele>1759.800</ele>
        <time>2020-01-21T00:46:59Z</time>
      </trkpt>
      <trkpt lat="17.017213960" lon="-96.418548120">
        <ele>1759.900</ele>
        <time>2020-01-21T00:47:00Z</time>
      </trkpt>
      <trkpt lat="17.017268910" lon="-96.418573540">
        <ele>1760.100</ele>
        <time>2020-01-21T00:47:01Z</time>
      </trkpt>
      <trkpt lat="17.017327920" lon="-96.418602210">
        <ele>1760.400</ele>
        <time>2020-01-21T00:47:02Z</time>
      </trkpt>
      <trkpt lat="17.017388220" lon="-96.418631130">
        <ele>1760.500</ele>
        <time>2020-01-21T00:47:03Z</time>
      </trkpt>
      <trkpt lat="17.017455360" lon="-96.418659710">
        <ele>1761.000</ele>
        <time>2020-01-21T00:47:04Z</time>
      </trkpt>
      <trkpt lat="17.017532390" lon="-96.418688580">
        <ele>1761.200</ele>
        <time>2020-01-21T00:47:05Z</time>
      </trkpt>
      <trkpt lat="17.017606740" lon="-96.418714500">
        <ele>1761.400</ele>
        <time>2020-01-21T00:47:06Z</time>
      </trkpt>
      <trkpt lat="17.017676700" lon="-96.418742820">
        <ele>1761.600</ele>
        <time>2020-01-21T00:47:07Z</time>
      </trkpt>
      <trkpt lat="17.017754890" lon="-96.418780860">
        <ele>1761.800</ele>
        <time>2020-01-21T00:47:08Z</time>
      </trkpt>
      <trkpt lat="17.017836020" lon="-96.418817490">
        <ele>1761.700</ele>
        <time>2020-01-21T00:47:09Z</time>
      </trkpt>
      <trkpt lat="17.017913180" lon="-96.418853050">
        <ele>1762.400</ele>
        <time>2020-01-21T00:47:10Z</time>
      </trkpt>
      <trkpt lat="17.017988460" lon="-96.418893210">
        <ele>1762.600</ele>
        <time>2020-01-21T00:47:11Z</time>
      </trkpt>
      <trkpt lat="17.018052290" lon="-96.418930980">
        <ele>1763.100</ele>
        <time>2020-01-21T00:47:12Z</time>
      </trkpt>
      <trkpt lat="17.018112240" lon="-96.418968340">
        <ele>1763.200</ele>
        <time>2020-01-21T00:47:13Z</time>
      </trkpt>
      <trkpt lat="17.018165130" lon="-96.419004390">
        <ele>1763.800</ele>
        <time>2020-01-21T00:47:14Z</time>
      </trkpt>
      <trkpt lat="17.018215600" lon="-96.419039930">
        <ele>1764.400</ele>
        <time>2020-01-21T00:47:15Z</time>
      </trkpt>
      <trkpt lat="17.018260270" lon="-96.419072610">
        <ele>1765.000</ele>
        <time>2020-01-21T00:47:16Z</time>
      </trkpt>
      <trkpt lat="17.018291010" lon="-96.419093950">
        <ele>1765.300</ele>
        <time>2020-01-21T00:47:17Z</time>
      </trkpt>
      <trkpt lat="17.018324780" lon="-96.419122740">
        <ele>1765.000</ele>
        <time>2020-01-21T00:47:20Z</time>
      </trkpt>
      <trkpt lat="17.018379190" lon="-96.419169760">
        <ele>1765.200</ele>
        <time>2020-01-21T00:47:22Z</time>
      </trkpt>
      <trkpt lat="17.018426290" lon="-96.419202960">
        <ele>1765.600</ele>
        <time>2020-01-21T00:47:23Z</time>
      </trkpt>
      <trkpt lat="17.018467510" lon="-96.419237090">
        <ele>1766.100</ele>
        <time>2020-01-21T00:47:24Z</time>
      </trkpt>
      <trkpt lat="17.018514130" lon="-96.419274360">
        <ele>1766.200</ele>
        <time>2020-01-21T00:47:25Z</time>
      </trkpt>
      <trkpt lat="17.018572280" lon="-96.419319830">
        <ele>1767.000</ele>
        <time>2020-01-21T00:47:26Z</time>
      </trkpt>
      <trkpt lat="17.018626690" lon="-96.419365030">
        <ele>1767.200</ele>
        <time>2020-01-21T00:47:27Z</time>
      </trkpt>
      <trkpt lat="17.018683030" lon="-96.419410240">
        <ele>1767.900</ele>
        <time>2020-01-21T00:47:28Z</time>
      </trkpt>
      <trkpt lat="17.018741990" lon="-96.419456680">
        <ele>1769.200</ele>
        <time>2020-01-21T00:47:29Z</time>
      </trkpt>
      <trkpt lat="17.018796620" lon="-96.419505080">
        <ele>1769.700</ele>
        <time>2020-01-21T00:47:30Z</time>
      </trkpt>
      <trkpt lat="17.018845120" lon="-96.419551600">
        <ele>1770.700</ele>
        <time>2020-01-21T00:47:31Z</time>
      </trkpt>
      <trkpt lat="17.018894810" lon="-96.419587730">
        <ele>1771.400</ele>
        <time>2020-01-21T00:47:32Z</time>
      </trkpt>
      <trkpt lat="17.018931580" lon="-96.419623230">
        <ele>1771.500</ele>
        <time>2020-01-21T00:47:33Z</time>
      </trkpt>
      <trkpt lat="17.018975170" lon="-96.419650760">
        <ele>1771.100</ele>
        <time>2020-01-21T00:47:34Z</time>
      </trkpt>
      <trkpt lat="17.019021070" lon="-96.419690770">
        <ele>1772.400</ele>
        <time>2020-01-21T00:47:36Z</time>
      </trkpt>
      <trkpt lat="17.019066230" lon="-96.419698930">
        <ele>1772.800</ele>
        <time>2020-01-21T00:47:38Z</time>
      </trkpt>
      <trkpt lat="17.019105580" lon="-96.419683930">
        <ele>1771.300</ele>
        <time>2020-01-21T00:47:41Z</time>
      </trkpt>
      <trkpt lat="17.019126500" lon="-96.419643690">
        <ele>1771.300</ele>
        <time>2020-01-21T00:47:43Z</time>
      </trkpt>
      <trkpt lat="17.019107190" lon="-96.419607970">
        <ele>1771.900</ele>
        <time>2020-01-21T00:47:44Z</time>
      </trkpt>
      <trkpt lat="17.019082600" lon="-96.419572440">
        <ele>1772.200</ele>
        <time>2020-01-21T00:47:45Z</time>
      </trkpt>
      <trkpt lat="17.019047870" lon="-96.419522640">
        <ele>1767.400</ele>
        <time>2020-01-21T00:47:47Z</time>
      </trkpt>
      <trkpt lat="17.019011750" lon="-96.419483290">
        <ele>1772.900</ele>
        <time>2020-01-21T00:47:49Z</time>
      </trkpt>
      <trkpt lat="17.018981190" lon="-96.419448680">
        <ele>1775.600</ele>
        <time>2020-01-21T00:47:51Z</time>
      </trkpt>
      <trkpt lat="17.018973670" lon="-96.419489160">
        <ele>1774.900</ele>
        <time>2020-01-21T00:48:30Z</time>
      </trkpt>
      <trkpt lat="17.018992750" lon="-96.419524770">
        <ele>1774.700</ele>
        <time>2020-01-21T00:48:34Z</time>
      </trkpt>
      <trkpt lat="17.019021450" lon="-96.419555770">
        <ele>1772.700</ele>
        <time>2020-01-21T00:48:38Z</time>
      </trkpt>
      <trkpt lat="17.019020590" lon="-96.419593340">
        <ele>1772.300</ele>
        <time>2020-01-21T00:48:55Z</time>
      </trkpt>
      <trkpt lat="17.019026610" lon="-96.419552990">
        <ele>1774.700</ele>
        <time>2020-01-21T00:49:52Z</time>
      </trkpt>
      <trkpt lat="17.019014280" lon="-96.419515400">
        <ele>1775.800</ele>
        <time>2020-01-21T00:50:07Z</time>
      </trkpt>
      <trkpt lat="17.018983830" lon="-96.419489520">
        <ele>1777.400</ele>
        <time>2020-01-21T00:50:15Z</time>
      </trkpt>
      <trkpt lat="17.018946700" lon="-96.419499370">
        <ele>1776.200</ele>
        <time>2020-01-21T00:51:14Z</time>
      </trkpt>
      <trkpt lat="17.018944070" lon="-96.419461830">
        <ele>1777.900</ele>
        <time>2020-01-21T00:51:47Z</time>
      </trkpt>
      <trkpt lat="17.018933630" lon="-96.419405490">
        <ele>1778.900</ele>
        <time>2020-01-21T00:53:37Z</time>
      </trkpt>
      <trkpt lat="17.018898480" lon="-96.419352060">
        <ele>1779.600</ele>
        <time>2020-01-21T00:53:39Z</time>
      </trkpt>
      <trkpt lat="17.018878710" lon="-96.419319030">
        <ele>1779.600</ele>
        <time>2020-01-21T00:53:40Z</time>
      </trkpt>
      <trkpt lat="17.018857890" lon="-96.419282120">
        <ele>1780.000</ele>
        <time>2020-01-21T00:53:41Z</time>
      </trkpt>
      <trkpt lat="17.018832590" lon="-96.419218010">
        <ele>1784.200</ele>
        <time>2020-01-21T00:53:42Z</time>
      </trkpt>
      <trkpt lat="17.018815300" lon="-96.419180800">
        <ele>1784.000</ele>
        <time>2020-01-21T00:53:43Z</time>
      </trkpt>
      <trkpt lat="17.018789420" lon="-96.419138140">
        <ele>1785.200</ele>
        <time>2020-01-21T00:53:44Z</time>
      </trkpt>
      <trkpt lat="17.018762100" lon="-96.419081400">
        <ele>1785.300</ele>
        <time>2020-01-21T00:53:45Z</time>
      </trkpt>
      <trkpt lat="17.018744000" lon="-96.419044820">
        <ele>1786.600</ele>
        <time>2020-01-21T00:53:46Z</time>
      </trkpt>
      <trkpt lat="17.018723690" lon="-96.419001480">
        <ele>1787.500</ele>
        <time>2020-01-21T00:53:47Z</time>
      </trkpt>
      <trkpt lat="17.018697120" lon="-96.418961080">
        <ele>1788.600</ele>
        <time>2020-01-21T00:53:48Z</time>
      </trkpt>
      <trkpt lat="17.018674880" lon="-96.418918260">
        <ele>1789.100</ele>
        <time>2020-01-21T00:53:49Z</time>
      </trkpt>
      <trkpt lat="17.018649950" lon="-96.418875030">
        <ele>1789.200</ele>
        <time>2020-01-21T00:53:50Z</time>
      </trkpt>
      <trkpt lat="17.018626880" lon="-96.418837570">
        <ele>1789.200</ele>
        <time>2020-01-21T00:53:51Z</time>
      </trkpt>
      <trkpt lat="17.018603120" lon="-96.418797390">
        <ele>1789.500</ele>
        <time>2020-01-21T00:53:52Z</time>
      </trkpt>
      <trkpt lat="17.018576170" lon="-96.418757440">
        <ele>1789.500</ele>
        <time>2020-01-21T00:53:53Z</time>
      </trkpt>
      <trkpt lat="17.018555160" lon="-96.418720490">
        <ele>1790.400</ele>
        <time>2020-01-21T00:53:54Z</time>
      </trkpt>
      <trkpt lat="17.018535700" lon="-96.418685530">
        <ele>1790.500</ele>
        <time>2020-01-21T00:53:55Z</time>
      </trkpt>
      <trkpt lat="17.018519110" lon="-96.418648450">
        <ele>1790.900</ele>
        <time>2020-01-21T00:53:56Z</time>
      </trkpt>
      <trkpt lat="17.018493830" lon="-96.418607840">
        <ele>1790.700</ele>
        <time>2020-01-21T00:53:57Z</time>
      </trkpt>
      <trkpt lat="17.018477790" lon="-96.418566570">
        <ele>1790.600</ele>
        <time>2020-01-21T00:53:58Z</time>
      </trkpt>
      <trkpt lat="17.018469130" lon="-96.418526330">
        <ele>1790.800</ele>
        <time>2020-01-21T00:53:59Z</time>
      </trkpt>
      <trkpt lat="17.018452760" lon="-96.418484000">
        <ele>1791.100</ele>
        <time>2020-01-21T00:54:00Z</time>
      </trkpt>
      <trkpt lat="17.018441600" lon="-96.418443160">
        <ele>1790.700</ele>
        <time>2020-01-21T00:54:01Z</time>
      </trkpt>
      <trkpt lat="17.018424880" lon="-96.418401370">
        <ele>1790.900</ele>
        <time>2020-01-21T00:54:02Z</time>
      </trkpt>
      <trkpt lat="17.018408270" lon="-96.418363340">
        <ele>1790.500</ele>
        <time>2020-01-21T00:54:03Z</time>
      </trkpt>
      <trkpt lat="17.018380410" lon="-96.418327700">
        <ele>1790.700</ele>
        <time>2020-01-21T00:54:04Z</time>
      </trkpt>
      <trkpt lat="17.018353070" lon="-96.418274240">
        <ele>1789.900</ele>
        <time>2020-01-21T00:54:05Z</time>
      </trkpt>
      <trkpt lat="17.018316170" lon="-96.418236010">
        <ele>1790.000</ele>
        <time>2020-01-21T00:54:06Z</time>
      </trkpt>
      <trkpt lat="17.018282880" lon="-96.418199150">
        <ele>1790.000</ele>
        <time>2020-01-21T00:54:07Z</time>
      </trkpt>
      <trkpt lat="17.018243190" lon="-96.418161850">
        <ele>1790.200</ele>
        <time>2020-01-21T00:54:08Z</time>
      </trkpt>
      <trkpt lat="17.018204600" lon="-96.418124670">
        <ele>1790.200</ele>
        <time>2020-01-21T00:54:09Z</time>
      </trkpt>
      <trkpt lat="17.018163130" lon="-96.418088500">
        <ele>1790.600</ele>
        <time>2020-01-21T00:54:10Z</time>
      </trkpt>
      <trkpt lat="17.018121030" lon="-96.418054830">
        <ele>1791.000</ele>
        <time>2020-01-21T00:54:11Z</time>
      </trkpt>
      <trkpt lat="17.018078530" lon="-96.418020940">
        <ele>1791.500</ele>
        <time>2020-01-21T00:54:12Z</time>
      </trkpt>
      <trkpt lat="17.018037480" lon="-96.417987330">
        <ele>1791.600</ele>
        <time>2020-01-21T00:54:13Z</time>
      </trkpt>
      <trkpt lat="17.017993230" lon="-96.417951420">
        <ele>1792.600</ele>
        <time>2020-01-21T00:54:14Z</time>
      </trkpt>
      <trkpt lat="17.017951070" lon="-96.417919890">
        <ele>1793.400</ele>
        <time>2020-01-21T00:54:15Z</time>
      </trkpt>
      <trkpt lat="17.017911010" lon="-96.417887740">
        <ele>1794.700</ele>
        <time>2020-01-21T00:54:16Z</time>
      </trkpt>
      <trkpt lat="17.017873430" lon="-96.417852630">
        <ele>1795.700</ele>
        <time>2020-01-21T00:54:17Z</time>
      </trkpt>
      <trkpt lat="17.017837910" lon="-96.417817300">
        <ele>1796.800</ele>
        <time>2020-01-21T00:54:18Z</time>
      </trkpt>
      <trkpt lat="17.017795980" lon="-96.417784700">
        <ele>1797.200</ele>
        <time>2020-01-21T00:54:19Z</time>
      </trkpt>
      <trkpt lat="17.017754960" lon="-96.417750400">
        <ele>1798.100</ele>
        <time>2020-01-21T00:54:20Z</time>
      </trkpt>
      <trkpt lat="17.017709390" lon="-96.417716490">
        <ele>1798.200</ele>
        <time>2020-01-21T00:54:21Z</time>
      </trkpt>
      <trkpt lat="17.017671500" lon="-96.417682310">
        <ele>1798.400</ele>
        <time>2020-01-21T00:54:22Z</time>
      </trkpt>
      <trkpt lat="17.017633160" lon="-96.417648530">
        <ele>1799.000</ele>
        <time>2020-01-21T00:54:23Z</time>
      </trkpt>
      <trkpt lat="17.017595000" lon="-96.417614250">
        <ele>1799.800</ele>
        <time>2020-01-21T00:54:24Z</time>
      </trkpt>
      <trkpt lat="17.017558860" lon="-96.417580830">
        <ele>1800.400</ele>
        <time>2020-01-21T00:54:25Z</time>
      </trkpt>
      <trkpt lat="17.017527670" lon="-96.417548450">
        <ele>1800.800</ele>
        <time>2020-01-21T00:54:26Z</time>
      </trkpt>
      <trkpt lat="17.017501790" lon="-96.417516650">
        <ele>1801.000</ele>
        <time>2020-01-21T00:54:27Z</time>
      </trkpt>
      <trkpt lat="17.017476900" lon="-96.417487050">
        <ele>1801.300</ele>
        <time>2020-01-21T00:54:28Z</time>
      </trkpt>
      <trkpt lat="17.017434880" lon="-96.417439410">
        <ele>1801.800</ele>
        <time>2020-01-21T00:54:30Z</time>
      </trkpt>
      <trkpt lat="17.017409640" lon="-96.417389190">
        <ele>1803.100</ele>
        <time>2020-01-21T00:54:32Z</time>
      </trkpt>
      <trkpt lat="17.017370020" lon="-96.417324610">
        <ele>1804.700</ele>
        <time>2020-01-21T00:54:34Z</time>
      </trkpt>
      <trkpt lat="17.017350520" lon="-96.417291450">
        <ele>1805.200</ele>
        <time>2020-01-21T00:54:35Z</time>
      </trkpt>
      <trkpt lat="17.017331850" lon="-96.417256950">
        <ele>1805.600</ele>
        <time>2020-01-21T00:54:36Z</time>
      </trkpt>
      <trkpt lat="17.017312500" lon="-96.417220890">
        <ele>1806.300</ele>
        <time>2020-01-21T00:54:37Z</time>
      </trkpt>
      <trkpt lat="17.017294050" lon="-96.417182900">
        <ele>1807.000</ele>
        <time>2020-01-21T00:54:38Z</time>
      </trkpt>
      <trkpt lat="17.017273960" lon="-96.417145380">
        <ele>1807.200</ele>
        <time>2020-01-21T00:54:39Z</time>
      </trkpt>
      <trkpt lat="17.017251300" lon="-96.417105430">
        <ele>1807.900</ele>
        <time>2020-01-21T00:54:40Z</time>
      </trkpt>
      <trkpt lat="17.017229970" lon="-96.417063100">
        <ele>1807.700</ele>
        <time>2020-01-21T00:54:41Z</time>
      </trkpt>
      <trkpt lat="17.017211370" lon="-96.417022370">
        <ele>1808.800</ele>
        <time>2020-01-21T00:54:42Z</time>
      </trkpt>
      <trkpt lat="17.017194010" lon="-96.416979030">
        <ele>1807.800</ele>
        <time>2020-01-21T00:54:43Z</time>
      </trkpt>
      <trkpt lat="17.017173960" lon="-96.416935830">
        <ele>1808.400</ele>
        <time>2020-01-21T00:54:44Z</time>
      </trkpt>
      <trkpt lat="17.017153900" lon="-96.416894060">
        <ele>1808.900</ele>
        <time>2020-01-21T00:54:45Z</time>
      </trkpt>
      <trkpt lat="17.017135830" lon="-96.416855200">
        <ele>1809.000</ele>
        <time>2020-01-21T00:54:46Z</time>
      </trkpt>
      <trkpt lat="17.017116790" lon="-96.416816750">
        <ele>1809.500</ele>
        <time>2020-01-21T00:54:47Z</time>
      </trkpt>
      <trkpt lat="17.017086210" lon="-96.416753890">
        <ele>1809.500</ele>
        <time>2020-01-21T00:54:49Z</time>
      </trkpt>
      <trkpt lat="17.017106150" lon="-96.416690280">
        <ele>1810.900</ele>
        <time>2020-01-21T00:54:51Z</time>
      </trkpt>
      <trkpt lat="17.017136390" lon="-96.416638990">
        <ele>1810.800</ele>
        <time>2020-01-21T00:54:53Z</time>
      </trkpt>
      <trkpt lat="17.017140710" lon="-96.416596650">
        <ele>1810.300</ele>
        <time>2020-01-21T00:54:54Z</time>
      </trkpt>
      <trkpt lat="17.017176690" lon="-96.416532100">
        <ele>1810.200</ele>
        <time>2020-01-21T00:54:56Z</time>
      </trkpt>
      <trkpt lat="17.017198200" lon="-96.416487010">
        <ele>1810.100</ele>
        <time>2020-01-21T00:54:57Z</time>
      </trkpt>
      <trkpt lat="17.017217780" lon="-96.416436020">
        <ele>1810.300</ele>
        <time>2020-01-21T00:54:58Z</time>
      </trkpt>
      <trkpt lat="17.017231320" lon="-96.416378060">
        <ele>1810.300</ele>
        <time>2020-01-21T00:54:59Z</time>
      </trkpt>
      <trkpt lat="17.017235570" lon="-96.416319710">
        <ele>1810.300</ele>
        <time>2020-01-21T00:55:00Z</time>
      </trkpt>
      <trkpt lat="17.017233330" lon="-96.416261860">
        <ele>1810.300</ele>
        <time>2020-01-21T00:55:01Z</time>
      </trkpt>
      <trkpt lat="17.017234490" lon="-96.416206990">
        <ele>1810.800</ele>
        <time>2020-01-21T00:55:02Z</time>
      </trkpt>
      <trkpt lat="17.017221690" lon="-96.416161250">
        <ele>1811.700</ele>
        <time>2020-01-21T00:55:03Z</time>
      </trkpt>
      <trkpt lat="17.017245160" lon="-96.416129590">
        <ele>1812.200</ele>
        <time>2020-01-21T00:55:07Z</time>
      </trkpt>
      <trkpt lat="17.017297450" lon="-96.416119930">
        <ele>1814.200</ele>
        <time>2020-01-21T00:55:09Z</time>
      </trkpt>
      <trkpt lat="17.017365240" lon="-96.416126840">
        <ele>1816.000</ele>
        <time>2020-01-21T00:55:11Z</time>
      </trkpt>
      <trkpt lat="17.017438100" lon="-96.416127740">
        <ele>1817.500</ele>
        <time>2020-01-21T00:55:13Z</time>
      </trkpt>
      <trkpt lat="17.017476760" lon="-96.416123080">
        <ele>1818.200</ele>
        <time>2020-01-21T00:55:14Z</time>
      </trkpt>
      <trkpt lat="17.017512760" lon="-96.416113740">
        <ele>1819.200</ele>
        <time>2020-01-21T00:55:15Z</time>
      </trkpt>
      <trkpt lat="17.017553770" lon="-96.416098840">
        <ele>1820.000</ele>
        <time>2020-01-21T00:55:16Z</time>
      </trkpt>
      <trkpt lat="17.017596590" lon="-96.416081880">
        <ele>1820.800</ele>
        <time>2020-01-21T00:55:17Z</time>
      </trkpt>
      <trkpt lat="17.017614700" lon="-96.416025790">
        <ele>1821.600</ele>
        <time>2020-01-21T00:55:19Z</time>
      </trkpt>
      <trkpt lat="17.017668260" lon="-96.415989280">
        <ele>1822.300</ele>
        <time>2020-01-21T00:55:21Z</time>
      </trkpt>
      <trkpt lat="17.017691650" lon="-96.415960370">
        <ele>1822.600</ele>
        <time>2020-01-21T00:55:22Z</time>
      </trkpt>
      <trkpt lat="17.017719270" lon="-96.415905120">
        <ele>1823.000</ele>
        <time>2020-01-21T00:55:24Z</time>
      </trkpt>
      <trkpt lat="17.017710610" lon="-96.415866540">
        <ele>1823.000</ele>
        <time>2020-01-21T00:55:26Z</time>
      </trkpt>
      <trkpt lat="17.017709240" lon="-96.415828110">
        <ele>1824.800</ele>
        <time>2020-01-21T00:55:28Z</time>
      </trkpt>
      <trkpt lat="17.017705430" lon="-96.415781530">
        <ele>1824.300</ele>
        <time>2020-01-21T00:55:30Z</time>
      </trkpt>
      <trkpt lat="17.017706910" lon="-96.415730550">
        <ele>1825.100</ele>
        <time>2020-01-21T00:55:32Z</time>
      </trkpt>
      <trkpt lat="17.017699960" lon="-96.415674610">
        <ele>1826.400</ele>
        <time>2020-01-21T00:55:34Z</time>
      </trkpt>
      <trkpt lat="17.017688920" lon="-96.415608680">
        <ele>1827.400</ele>
        <time>2020-01-21T00:55:36Z</time>
      </trkpt>
      <trkpt lat="17.017680390" lon="-96.415570760">
        <ele>1828.000</ele>
        <time>2020-01-21T00:55:37Z</time>
      </trkpt>
      <trkpt lat="17.017669970" lon="-96.415530080">
        <ele>1828.800</ele>
        <time>2020-01-21T00:55:38Z</time>
      </trkpt>
      <trkpt lat="17.017658930" lon="-96.415488710">
        <ele>1829.600</ele>
        <time>2020-01-21T00:55:39Z</time>
      </trkpt>
      <trkpt lat="17.017648610" lon="-96.415446850">
        <ele>1830.200</ele>
        <time>2020-01-21T00:55:40Z</time>
      </trkpt>
      <trkpt lat="17.017638780" lon="-96.415402290">
        <ele>1832.000</ele>
        <time>2020-01-21T00:55:41Z</time>
      </trkpt>
      <trkpt lat="17.017628130" lon="-96.415362090">
        <ele>1832.600</ele>
        <time>2020-01-21T00:55:42Z</time>
      </trkpt>
      <trkpt lat="17.017619730" lon="-96.415322000">
        <ele>1833.100</ele>
        <time>2020-01-21T00:55:43Z</time>
      </trkpt>
      <trkpt lat="17.017609770" lon="-96.415282960">
        <ele>1833.600</ele>
        <time>2020-01-21T00:55:44Z</time>
      </trkpt>
      <trkpt lat="17.017601350" lon="-96.415246150">
        <ele>1834.600</ele>
        <time>2020-01-21T00:55:45Z</time>
      </trkpt>
      <trkpt lat="17.017593080" lon="-96.415183420">
        <ele>1835.500</ele>
        <time>2020-01-21T00:55:47Z</time>
      </trkpt>
      <trkpt lat="17.017585950" lon="-96.415132720">
        <ele>1836.300</ele>
        <time>2020-01-21T00:55:49Z</time>
      </trkpt>
      <trkpt lat="17.017588690" lon="-96.415088030">
        <ele>1837.100</ele>
        <time>2020-01-21T00:55:51Z</time>
      </trkpt>
      <trkpt lat="17.017613300" lon="-96.415039040">
        <ele>1838.000</ele>
        <time>2020-01-21T00:55:53Z</time>
      </trkpt>
      <trkpt lat="17.017664430" lon="-96.415000760">
        <ele>1839.000</ele>
        <time>2020-01-21T00:55:55Z</time>
      </trkpt>
      <trkpt lat="17.017694960" lon="-96.414975060">
        <ele>1840.200</ele>
        <time>2020-01-21T00:55:56Z</time>
      </trkpt>
      <trkpt lat="17.017701860" lon="-96.414907790">
        <ele>1842.200</ele>
        <time>2020-01-21T00:55:57Z</time>
      </trkpt>
      <trkpt lat="17.017732560" lon="-96.414877150">
        <ele>1842.700</ele>
        <time>2020-01-21T00:55:58Z</time>
      </trkpt>
      <trkpt lat="17.017764640" lon="-96.414846730">
        <ele>1843.500</ele>
        <time>2020-01-21T00:55:59Z</time>
      </trkpt>
      <trkpt lat="17.017797790" lon="-96.414814860">
        <ele>1844.500</ele>
        <time>2020-01-21T00:56:00Z</time>
      </trkpt>
      <trkpt lat="17.017831320" lon="-96.414781320">
        <ele>1845.700</ele>
        <time>2020-01-21T00:56:01Z</time>
      </trkpt>
      <trkpt lat="17.017863540" lon="-96.414760020">
        <ele>1845.600</ele>
        <time>2020-01-21T00:56:02Z</time>
      </trkpt>
      <trkpt lat="17.017898650" lon="-96.414726380">
        <ele>1846.700</ele>
        <time>2020-01-21T00:56:03Z</time>
      </trkpt>
      <trkpt lat="17.017934920" lon="-96.414687980">
        <ele>1847.800</ele>
        <time>2020-01-21T00:56:04Z</time>
      </trkpt>
      <trkpt lat="17.017966610" lon="-96.414650600">
        <ele>1849.000</ele>
        <time>2020-01-21T00:56:05Z</time>
      </trkpt>
      <trkpt lat="17.018000400" lon="-96.414608330">
        <ele>1850.100</ele>
        <time>2020-01-21T00:56:06Z</time>
      </trkpt>
      <trkpt lat="17.018030420" lon="-96.414563900">
        <ele>1851.400</ele>
        <time>2020-01-21T00:56:07Z</time>
      </trkpt>
      <trkpt lat="17.018060750" lon="-96.414520290">
        <ele>1852.600</ele>
        <time>2020-01-21T00:56:08Z</time>
      </trkpt>
      <trkpt lat="17.018075250" lon="-96.414478940">
        <ele>1853.100</ele>
        <time>2020-01-21T00:56:09Z</time>
      </trkpt>
      <trkpt lat="17.018100930" lon="-96.414439630">
        <ele>1853.800</ele>
        <time>2020-01-21T00:56:10Z</time>
      </trkpt>
      <trkpt lat="17.018125040" lon="-96.414401610">
        <ele>1854.700</ele>
        <time>2020-01-21T00:56:11Z</time>
      </trkpt>
      <trkpt lat="17.018148700" lon="-96.414364520">
        <ele>1855.700</ele>
        <time>2020-01-21T00:56:12Z</time>
      </trkpt>
      <trkpt lat="17.018172070" lon="-96.414326070">
        <ele>1856.500</ele>
        <time>2020-01-21T00:56:13Z</time>
      </trkpt>
      <trkpt lat="17.018193760" lon="-96.414288940">
        <ele>1857.500</ele>
        <time>2020-01-21T00:56:14Z</time>
      </trkpt>
      <trkpt lat="17.018214740" lon="-96.414253550">
        <ele>1858.700</ele>
        <time>2020-01-21T00:56:15Z</time>
      </trkpt>
      <trkpt lat="17.018237130" lon="-96.414221760">
        <ele>1859.600</ele>
        <time>2020-01-21T00:56:16Z</time>
      </trkpt>
      <trkpt lat="17.018260480" lon="-96.414188600">
        <ele>1861.000</ele>
        <time>2020-01-21T00:56:17Z</time>
      </trkpt>
      <trkpt lat="17.018286310" lon="-96.414157220">
        <ele>1861.700</ele>
        <time>2020-01-21T00:56:18Z</time>
      </trkpt>
      <trkpt lat="17.018312370" lon="-96.414125100">
        <ele>1862.300</ele>
        <time>2020-01-21T00:56:19Z</time>
      </trkpt>
      <trkpt lat="17.018341780" lon="-96.414091650">
        <ele>1862.900</ele>
        <time>2020-01-21T00:56:20Z</time>
      </trkpt>
      <trkpt lat="17.018368760" lon="-96.414056880">
        <ele>1863.500</ele>
        <time>2020-01-21T00:56:21Z</time>
      </trkpt>
      <trkpt lat="17.018395210" lon="-96.414021910">
        <ele>1864.400</ele>
        <time>2020-01-21T00:56:22Z</time>
      </trkpt>
      <trkpt lat="17.018419700" lon="-96.413988030">
        <ele>1865.500</ele>
        <time>2020-01-21T00:56:23Z</time>
      </trkpt>
      <trkpt lat="17.018445390" lon="-96.413955150">
        <ele>1866.500</ele>
        <time>2020-01-21T00:56:24Z</time>
      </trkpt>
      <trkpt lat="17.018469330" lon="-96.413923810">
        <ele>1867.000</ele>
        <time>2020-01-21T00:56:25Z</time>
      </trkpt>
      <trkpt lat="17.018493210" lon="-96.413894470">
        <ele>1867.900</ele>
        <time>2020-01-21T00:56:26Z</time>
      </trkpt>
      <trkpt lat="17.018535080" lon="-96.413845180">
        <ele>1869.400</ele>
        <time>2020-01-21T00:56:28Z</time>
      </trkpt>
      <trkpt lat="17.018572500" lon="-96.413804670">
        <ele>1870.300</ele>
        <time>2020-01-21T00:56:30Z</time>
      </trkpt>
      <trkpt lat="17.018599650" lon="-96.413770650">
        <ele>1871.200</ele>
        <time>2020-01-21T00:56:32Z</time>
      </trkpt>
      <trkpt lat="17.018617020" lon="-96.413737390">
        <ele>1870.200</ele>
        <time>2020-01-21T00:59:16Z</time>
      </trkpt>
      <trkpt lat="17.018632760" lon="-96.413698140">
        <ele>1871.000</ele>
        <time>2020-01-21T00:59:18Z</time>
      </trkpt>
      <trkpt lat="17.018646860" lon="-96.413644910">
        <ele>1871.600</ele>
        <time>2020-01-21T00:59:20Z</time>
      </trkpt>
      <trkpt lat="17.018665260" lon="-96.413584740">
        <ele>1872.400</ele>
        <time>2020-01-21T00:59:22Z</time>
      </trkpt>
      <trkpt lat="17.018691770" lon="-96.413521990">
        <ele>1873.900</ele>
        <time>2020-01-21T00:59:24Z</time>
      </trkpt>
      <trkpt lat="17.018717270" lon="-96.413460850">
        <ele>1875.200</ele>
        <time>2020-01-21T00:59:26Z</time>
      </trkpt>
      <trkpt lat="17.018743480" lon="-96.413403020">
        <ele>1876.500</ele>
        <time>2020-01-21T00:59:28Z</time>
      </trkpt>
      <trkpt lat="17.018771050" lon="-96.413343270">
        <ele>1846.300</ele>
        <time>2020-01-21T00:59:30Z</time>
      </trkpt>
      <trkpt lat="17.018802380" lon="-96.413276420">
        <ele>1865.100</ele>
        <time>2020-01-21T00:59:32Z</time>
      </trkpt>
      <trkpt lat="17.018816180" lon="-96.413239570">
        <ele>1869.400</ele>
        <time>2020-01-21T00:59:33Z</time>
      </trkpt>
      <trkpt lat="17.018828100" lon="-96.413201460">
        <ele>1872.500</ele>
        <time>2020-01-21T00:59:34Z</time>
      </trkpt>
      <trkpt lat="17.018828800" lon="-96.413123930">
        <ele>1874.900</ele>
        <time>2020-01-21T00:59:36Z</time>
      </trkpt>
      <trkpt lat="17.018824030" lon="-96.413079610">
        <ele>1876.600</ele>
        <time>2020-01-21T00:59:37Z</time>
      </trkpt>
      <trkpt lat="17.018810410" lon="-96.413038640">
        <ele>1878.100</ele>
        <time>2020-01-21T00:59:38Z</time>
      </trkpt>
      <trkpt lat="17.018797900" lon="-96.412996400">
        <ele>1879.700</ele>
        <time>2020-01-21T00:59:39Z</time>
      </trkpt>
      <trkpt lat="17.018783900" lon="-96.412954770">
        <ele>1881.100</ele>
        <time>2020-01-21T00:59:40Z</time>
      </trkpt>
      <trkpt lat="17.018770020" lon="-96.412915270">
        <ele>1882.200</ele>
        <time>2020-01-21T00:59:41Z</time>
      </trkpt>
      <trkpt lat="17.018758580" lon="-96.412877530">
        <ele>1883.500</ele>
        <time>2020-01-21T00:59:42Z</time>
      </trkpt>
      <trkpt lat="17.018744150" lon="-96.412811160">
        <ele>1885.400</ele>
        <time>2020-01-21T00:59:44Z</time>
      </trkpt>
      <trkpt lat="17.018722740" lon="-96.412757770">
        <ele>1885.900</ele>
        <time>2020-01-21T00:59:46Z</time>
      </trkpt>
      <trkpt lat="17.018696560" lon="-96.412686580">
        <ele>1887.200</ele>
        <time>2020-01-21T00:59:48Z</time>
      </trkpt>
      <trkpt lat="17.018681210" lon="-96.412644190">
        <ele>1888.000</ele>
        <time>2020-01-21T00:59:49Z</time>
      </trkpt>
      <trkpt lat="17.018664390" lon="-96.412600770">
        <ele>1888.700</ele>
        <time>2020-01-21T00:59:50Z</time>
      </trkpt>
      <trkpt lat="17.018646250" lon="-96.412557120">
        <ele>1889.400</ele>
        <time>2020-01-21T00:59:51Z</time>
      </trkpt>
      <trkpt lat="17.018626280" lon="-96.412513440">
        <ele>1890.100</ele>
        <time>2020-01-21T00:59:52Z</time>
      </trkpt>
      <trkpt lat="17.018606370" lon="-96.412469840">
        <ele>1890.900</ele>
        <time>2020-01-21T00:59:53Z</time>
      </trkpt>
      <trkpt lat="17.018586470" lon="-96.412427330">
        <ele>1891.800</ele>
        <time>2020-01-21T00:59:54Z</time>
      </trkpt>
      <trkpt lat="17.018569120" lon="-96.412385360">
        <ele>1892.400</ele>
        <time>2020-01-21T00:59:55Z</time>
      </trkpt>
      <trkpt lat="17.018554520" lon="-96.412345090">
        <ele>1892.800</ele>
        <time>2020-01-21T00:59:56Z</time>
      </trkpt>
      <trkpt lat="17.018544240" lon="-96.412303530">
        <ele>1893.500</ele>
        <time>2020-01-21T00:59:57Z</time>
      </trkpt>
      <trkpt lat="17.018537380" lon="-96.412263340">
        <ele>1894.300</ele>
        <time>2020-01-21T00:59:58Z</time>
      </trkpt>
      <trkpt lat="17.018532770" lon="-96.412225560">
        <ele>1895.000</ele>
        <time>2020-01-21T00:59:59Z</time>
      </trkpt>
      <trkpt lat="17.018527540" lon="-96.412157310">
        <ele>1896.000</ele>
        <time>2020-01-21T01:00:01Z</time>
      </trkpt>
      <trkpt lat="17.018526090" lon="-96.412106330">
        <ele>1896.800</ele>
        <time>2020-01-21T01:00:03Z</time>
      </trkpt>
      <trkpt lat="17.018532040" lon="-96.412069220">
        <ele>1897.400</ele>
        <time>2020-01-21T01:00:05Z</time>
      </trkpt>
      <trkpt lat="17.018560390" lon="-96.412023060">
        <ele>1898.800</ele>
        <time>2020-01-21T01:00:08Z</time>
      </trkpt>
      <trkpt lat="17.018604850" lon="-96.412010440">
        <ele>1899.500</ele>
        <time>2020-01-21T01:00:11Z</time>
      </trkpt>
      <trkpt lat="17.018638590" lon="-96.411979310">
        <ele>1896.900</ele>
        <time>2020-01-21T01:01:02Z</time>
      </trkpt>
      <trkpt lat="17.018610930" lon="-96.412004520">
        <ele>1896.800</ele>
        <time>2020-01-21T01:01:21Z</time>
      </trkpt>
      <trkpt lat="17.018585690" lon="-96.412032710">
        <ele>1896.700</ele>
        <time>2020-01-21T01:02:15Z</time>
      </trkpt>
      <trkpt lat="17.018622060" lon="-96.412004270">
        <ele>1895.800</ele>
        <time>2020-01-21T01:02:22Z</time>
      </trkpt>
      <trkpt lat="17.018631130" lon="-96.411964810">
        <ele>1896.500</ele>
        <time>2020-01-21T01:02:26Z</time>
      </trkpt>
      <trkpt lat="17.018641510" lon="-96.411926460">
        <ele>1896.500</ele>
        <time>2020-01-21T01:02:32Z</time>
      </trkpt>
      <trkpt lat="17.018677960" lon="-96.411919790">
        <ele>1894.800</ele>
        <time>2020-01-21T01:03:22Z</time>
      </trkpt>
      <trkpt lat="17.018696050" lon="-96.411955460">
        <ele>1896.700</ele>
        <time>2020-01-21T01:05:16Z</time>
      </trkpt>
      <trkpt lat="17.018709360" lon="-96.411920050">
        <ele>1900.300</ele>
        <time>2020-01-21T01:06:47Z</time>
      </trkpt>
      <trkpt lat="17.018672920" lon="-96.411943080">
        <ele>1896.700</ele>
        <time>2020-01-21T01:07:44Z</time>
      </trkpt>
      <trkpt lat="17.018691640" lon="-96.411975720">
        <ele>1899.000</ele>
        <time>2020-01-21T01:07:57Z</time>
      </trkpt>
      <trkpt lat="17.018686130" lon="-96.411935210">
        <ele>1898.500</ele>
        <time>2020-01-21T01:08:06Z</time>
      </trkpt>
      <trkpt lat="17.018645000" lon="-96.411929660">
        <ele>1898.800</ele>
        <time>2020-01-21T01:08:15Z</time>
      </trkpt>
      <trkpt lat="17.018628830" lon="-96.411887660">
        <ele>1897.900</ele>
        <time>2020-01-21T01:08:20Z</time>
      </trkpt>
      <trkpt lat="17.018637130" lon="-96.411849640">
        <ele>1897.900</ele>
        <time>2020-01-21T01:08:25Z</time>
      </trkpt>
      <trkpt lat="17.018614330" lon="-96.411818590">
        <ele>1899.000</ele>
        <time>2020-01-21T01:08:30Z</time>
      </trkpt>
      <trkpt lat="17.018618820" lon="-96.411771990">
        <ele>1900.100</ele>
        <time>2020-01-21T01:08:35Z</time>
      </trkpt>
      <trkpt lat="17.018609730" lon="-96.411729720">
        <ele>1898.900</ele>
        <time>2020-01-21T01:08:40Z</time>
      </trkpt>
      <trkpt lat="17.018618050" lon="-96.411691280">
        <ele>1900.700</ele>
        <time>2020-01-21T01:08:44Z</time>
      </trkpt>
      <trkpt lat="17.018588030" lon="-96.411653730">
        <ele>1899.600</ele>
        <time>2020-01-21T01:08:50Z</time>
      </trkpt>
      <trkpt lat="17.018585970" lon="-96.411610000">
        <ele>1899.900</ele>
        <time>2020-01-21T01:08:55Z</time>
      </trkpt>
      <trkpt lat="17.018569510" lon="-96.411576210">
        <ele>1901.000</ele>
        <time>2020-01-21T01:09:00Z</time>
      </trkpt>
      <trkpt lat="17.018543580" lon="-96.411541240">
        <ele>1901.900</ele>
        <time>2020-01-21T01:09:06Z</time>
      </trkpt>
      <trkpt lat="17.018535160" lon="-96.411503860">
        <ele>1901.000</ele>
        <time>2020-01-21T01:09:12Z</time>
      </trkpt>
      <trkpt lat="17.018508820" lon="-96.411476190">
        <ele>1900.600</ele>
        <time>2020-01-21T01:09:17Z</time>
      </trkpt>
      <trkpt lat="17.018476640" lon="-96.411495040">
        <ele>1903.900</ele>
        <time>2020-01-21T01:09:51Z</time>
      </trkpt>
      <trkpt lat="17.018503720" lon="-96.411464680">
        <ele>1904.200</ele>
        <time>2020-01-21T01:10:39Z</time>
      </trkpt>
      <trkpt lat="17.018519160" lon="-96.411501330">
        <ele>1901.700</ele>
        <time>2020-01-21T01:10:45Z</time>
      </trkpt>
      <trkpt lat="17.018536340" lon="-96.411540770">
        <ele>1899.700</ele>
        <time>2020-01-21T01:10:50Z</time>
      </trkpt>
      <trkpt lat="17.018576930" lon="-96.411552840">
        <ele>1899.000</ele>
        <time>2020-01-21T01:10:55Z</time>
      </trkpt>
      <trkpt lat="17.018576600" lon="-96.411591710">
        <ele>1898.500</ele>
        <time>2020-01-21T01:10:59Z</time>
      </trkpt>
      <trkpt lat="17.018560830" lon="-96.411633100">
        <ele>1898.900</ele>
        <time>2020-01-21T01:11:03Z</time>
      </trkpt>
      <trkpt lat="17.018587850" lon="-96.411667150">
        <ele>1898.100</ele>
        <time>2020-01-21T01:11:07Z</time>
      </trkpt>
      <trkpt lat="17.018592070" lon="-96.411713480">
        <ele>1897.500</ele>
        <time>2020-01-21T01:11:12Z</time>
      </trkpt>
      <trkpt lat="17.018593420" lon="-96.411752010">
        <ele>1896.700</ele>
        <time>2020-01-21T01:11:16Z</time>
      </trkpt>
      <trkpt lat="17.018592280" lon="-96.411791530">
        <ele>1896.600</ele>
        <time>2020-01-21T01:11:21Z</time>
      </trkpt>
      <trkpt lat="17.018611150" lon="-96.411831810">
        <ele>1895.800</ele>
        <time>2020-01-21T01:11:26Z</time>
      </trkpt>
      <trkpt lat="17.018600450" lon="-96.411874490">
        <ele>1896.400</ele>
        <time>2020-01-21T01:11:30Z</time>
      </trkpt>
      <trkpt lat="17.018610770" lon="-96.411913320">
        <ele>1895.900</ele>
        <time>2020-01-21T01:11:34Z</time>
      </trkpt>
      <trkpt lat="17.018648570" lon="-96.411915620">
        <ele>1897.400</ele>
        <time>2020-01-21T01:11:41Z</time>
      </trkpt>
      <trkpt lat="17.018683490" lon="-96.411925350">
        <ele>1899.300</ele>
        <time>2020-01-21T01:12:15Z</time>
      </trkpt>
      <trkpt lat="17.018691080" lon="-96.411968280">
        <ele>1903.800</ele>
        <time>2020-01-21T01:15:47Z</time>
      </trkpt>
      <trkpt lat="17.018703330" lon="-96.411930060">
        <ele>1901.800</ele>
        <time>2020-01-21T01:16:35Z</time>
      </trkpt>
      <trkpt lat="17.018665920" lon="-96.411914860">
        <ele>1901.100</ele>
        <time>2020-01-21T01:17:49Z</time>
      </trkpt>
      <trkpt lat="17.018670500" lon="-96.411912640">
        <ele>1900.100</ele>
        <time>2020-01-21T01:18:11Z</time>
      </trkpt>
    </trkseg>
  </trk>
</gpx>
